<?xml version="1.0" encoding="UTF-8" standalone="no" ?>
<gpx xmlns="http://www.topografix.com/GPX/1/1" xmlns:xsi="http://www.w3.org/2001/XMLSchema-instance" xsi:schemaLocation="http://www.topografix.com/GPX/1/1 http://www.topografix.com/GPX/1/1/gpx.xsd" version="1.1" creator="VisuGPX - https://www.visugpx.com">
  <metadata>
    <name>trip septembre</name>
  </metadata>
  <wpt lat="50.83956" lon="1.59443">
    <ele>51.1</ele>
    <name><![CDATA[Batterie Todt]]></name>
    <type><![CDATA[user]]></type>
  </wpt>
  <wpt lat="50.82679" lon="2.18225">
    <ele>10.6</ele>
    <name><![CDATA[Blockhaus D'Éperlecques]]></name>
    <type><![CDATA[user]]></type>
  </wpt>
  <wpt lat="50.70075" lon="2.09689">
    <ele>56</ele>
    <name><![CDATA[Le Moulin de Mombreux]]></name>
    <type><![CDATA[user]]></type>
  </wpt>
  <wpt lat="50.38697" lon="2.32159">
    <ele>82.6</ele>
    <name><![CDATA[www.lesballastieres.com]]></name>
    <type><![CDATA[user]]></type>
  </wpt>
  <wpt lat="50.83956" lon="1.59443">
    <ele>51.1</ele>
    <name><![CDATA[Batterie Todt]]></name>
    <type><![CDATA[user]]></type>
  </wpt>
  <wpt lat="50.82679" lon="2.18225">
    <ele>10.6</ele>
    <name><![CDATA[Blockhaus D'Éperlecques]]></name>
    <type><![CDATA[user]]></type>
  </wpt>
  <wpt lat="50.70075" lon="2.09689">
    <ele>56</ele>
    <name><![CDATA[Le Moulin de Mombreux]]></name>
    <type><![CDATA[user]]></type>
  </wpt>
  <wpt lat="50.38697" lon="2.32159">
    <ele>82.6</ele>
    <name><![CDATA[www.lesballastieres.com]]></name>
    <type><![CDATA[user]]></type>
  </wpt>
  <wpt lat="45.20002" lon="5.42078">
    <ele>251.8</ele>
    <name><![CDATA[400 La Plaine de Buissonnière]]></name>
    <type><![CDATA[ 38470 Vinay]]></type>
  </wpt>
  <wpt lat="45.08552" lon="5.46765">
    <ele>694.9</ele>
    <name><![CDATA[31b Les Granges]]></name>
    <type><![CDATA[ 26420 Rencurel]]></type>
  </wpt>
  <trk>
    <name><![CDATA[2018-09-09 09:38]]></name>
    <trkseg>
      <trkpt lat="45.20104" lon="5.71792">
        <ele>248.14</ele>
        <time>2018-09-09T07:38:51Z</time>
      </trkpt>
      <trkpt lat="45.20104" lon="5.71792">
        <ele>248.14</ele>
        <time>2018-09-09T07:38:51Z</time>
      </trkpt>
      <trkpt lat="45.20104" lon="5.71792">
        <ele>248.14</ele>
        <time>2018-09-09T07:38:51Z</time>
      </trkpt>
      <trkpt lat="45.20104" lon="5.71792">
        <ele>248.14</ele>
        <time>2018-09-09T07:38:51Z</time>
      </trkpt>
      <trkpt lat="45.20084" lon="5.71802">
        <ele>226.36</ele>
        <time>2018-09-09T07:40:27Z</time>
      </trkpt>
      <trkpt lat="45.2008" lon="5.71774">
        <ele>223.17</ele>
        <time>2018-09-09T07:40:33Z</time>
      </trkpt>
      <trkpt lat="45.20096" lon="5.71757">
        <ele>220.45</ele>
        <time>2018-09-09T07:40:37Z</time>
      </trkpt>
      <trkpt lat="45.2011" lon="5.71739">
        <ele>218.09</ele>
        <time>2018-09-09T07:40:42Z</time>
      </trkpt>
      <trkpt lat="45.20093" lon="5.71758">
        <ele>219.35</ele>
        <time>2018-09-09T07:42:14Z</time>
      </trkpt>
      <trkpt lat="45.20077" lon="5.71779">
        <ele>222.73</ele>
        <time>2018-09-09T07:42:19Z</time>
      </trkpt>
      <trkpt lat="45.20077" lon="5.71805">
        <ele>221.36</ele>
        <time>2018-09-09T07:42:25Z</time>
      </trkpt>
      <trkpt lat="45.20098" lon="5.71804">
        <ele>221.75</ele>
        <time>2018-09-09T07:42:31Z</time>
      </trkpt>
      <trkpt lat="45.20112" lon="5.71787">
        <ele>224.32</ele>
        <time>2018-09-09T07:43:11Z</time>
      </trkpt>
      <trkpt lat="45.20094" lon="5.71794">
        <ele>233.47</ele>
        <time>2018-09-09T07:45:39Z</time>
      </trkpt>
      <trkpt lat="45.20073" lon="5.71792">
        <ele>232.97</ele>
        <time>2018-09-09T07:45:43Z</time>
      </trkpt>
      <trkpt lat="45.20078" lon="5.71768">
        <ele>229.88</ele>
        <time>2018-09-09T07:45:47Z</time>
      </trkpt>
      <trkpt lat="45.20093" lon="5.71748">
        <ele>230.04</ele>
        <time>2018-09-09T07:45:50Z</time>
      </trkpt>
      <trkpt lat="45.20099" lon="5.71723">
        <ele>228.37</ele>
        <time>2018-09-09T07:45:55Z</time>
      </trkpt>
      <trkpt lat="45.20081" lon="5.71735">
        <ele>229.42</ele>
        <time>2018-09-09T07:45:59Z</time>
      </trkpt>
      <trkpt lat="45.20066" lon="5.71751">
        <ele>228.17</ele>
        <time>2018-09-09T07:46:01Z</time>
      </trkpt>
      <trkpt lat="45.20046" lon="5.71764">
        <ele>226.66</ele>
        <time>2018-09-09T07:46:03Z</time>
      </trkpt>
      <trkpt lat="45.20022" lon="5.71769">
        <ele>224.49</ele>
        <time>2018-09-09T07:46:05Z</time>
      </trkpt>
      <trkpt lat="45.19997" lon="5.71774">
        <ele>223.18</ele>
        <time>2018-09-09T07:46:07Z</time>
      </trkpt>
      <trkpt lat="45.19974" lon="5.71781">
        <ele>221.66</ele>
        <time>2018-09-09T07:46:09Z</time>
      </trkpt>
      <trkpt lat="45.19952" lon="5.7179">
        <ele>219.49</ele>
        <time>2018-09-09T07:46:11Z</time>
      </trkpt>
      <trkpt lat="45.19926" lon="5.71794">
        <ele>218.39</ele>
        <time>2018-09-09T07:46:13Z</time>
      </trkpt>
      <trkpt lat="45.19905" lon="5.71798">
        <ele>218.08</ele>
        <time>2018-09-09T07:46:15Z</time>
      </trkpt>
      <trkpt lat="45.19886" lon="5.71806">
        <ele>217.84</ele>
        <time>2018-09-09T07:46:17Z</time>
      </trkpt>
      <trkpt lat="45.19866" lon="5.71805">
        <ele>218.03</ele>
        <time>2018-09-09T07:46:19Z</time>
      </trkpt>
      <trkpt lat="45.19848" lon="5.71814">
        <ele>218.96</ele>
        <time>2018-09-09T07:46:21Z</time>
      </trkpt>
      <trkpt lat="45.19828" lon="5.71814">
        <ele>219.89</ele>
        <time>2018-09-09T07:46:24Z</time>
      </trkpt>
      <trkpt lat="45.19806" lon="5.71813">
        <ele>218.16</ele>
        <time>2018-09-09T07:46:27Z</time>
      </trkpt>
      <trkpt lat="45.19789" lon="5.71827">
        <ele>217.85</ele>
        <time>2018-09-09T07:46:29Z</time>
      </trkpt>
      <trkpt lat="45.19772" lon="5.71834">
        <ele>217.12</ele>
        <time>2018-09-09T07:46:31Z</time>
      </trkpt>
      <trkpt lat="45.19751" lon="5.71837">
        <ele>214.54</ele>
        <time>2018-09-09T07:46:33Z</time>
      </trkpt>
      <trkpt lat="45.19729" lon="5.71843">
        <ele>211.78</ele>
        <time>2018-09-09T07:46:35Z</time>
      </trkpt>
      <trkpt lat="45.19707" lon="5.71851">
        <ele>212.94</ele>
        <time>2018-09-09T07:46:37Z</time>
      </trkpt>
      <trkpt lat="45.19686" lon="5.71858">
        <ele>213.74</ele>
        <time>2018-09-09T07:46:39Z</time>
      </trkpt>
      <trkpt lat="45.19662" lon="5.71861">
        <ele>214.93</ele>
        <time>2018-09-09T07:46:41Z</time>
      </trkpt>
      <trkpt lat="45.19643" lon="5.71874">
        <ele>213.22</ele>
        <time>2018-09-09T07:46:43Z</time>
      </trkpt>
      <trkpt lat="45.19624" lon="5.71881">
        <ele>213.27</ele>
        <time>2018-09-09T07:46:45Z</time>
      </trkpt>
      <trkpt lat="45.19604" lon="5.71888">
        <ele>213.07</ele>
        <time>2018-09-09T07:46:47Z</time>
      </trkpt>
      <trkpt lat="45.19585" lon="5.71893">
        <ele>213.05</ele>
        <time>2018-09-09T07:46:49Z</time>
      </trkpt>
      <trkpt lat="45.19561" lon="5.71899">
        <ele>212.84</ele>
        <time>2018-09-09T07:46:52Z</time>
      </trkpt>
      <trkpt lat="45.19538" lon="5.71905">
        <ele>213.05</ele>
        <time>2018-09-09T07:46:56Z</time>
      </trkpt>
      <trkpt lat="45.19538" lon="5.71878">
        <ele>215.35</ele>
        <time>2018-09-09T07:47:03Z</time>
      </trkpt>
      <trkpt lat="45.19495" lon="5.71865">
        <ele>233.05</ele>
        <time>2018-09-09T07:51:34Z</time>
      </trkpt>
      <trkpt lat="45.19529" lon="5.71862">
        <ele>239.13</ele>
        <time>2018-09-09T07:53:26Z</time>
      </trkpt>
      <trkpt lat="45.19541" lon="5.71888">
        <ele>215.47</ele>
        <time>2018-09-09T07:53:30Z</time>
      </trkpt>
      <trkpt lat="45.19542" lon="5.71914">
        <ele>212.18</ele>
        <time>2018-09-09T07:53:38Z</time>
      </trkpt>
      <trkpt lat="45.19522" lon="5.71913">
        <ele>211.08</ele>
        <time>2018-09-09T07:53:41Z</time>
      </trkpt>
      <trkpt lat="45.19501" lon="5.71914">
        <ele>210.08</ele>
        <time>2018-09-09T07:53:44Z</time>
      </trkpt>
      <trkpt lat="45.19477" lon="5.71916">
        <ele>210.05</ele>
        <time>2018-09-09T07:53:47Z</time>
      </trkpt>
      <trkpt lat="45.19455" lon="5.71916">
        <ele>208.1</ele>
        <time>2018-09-09T07:53:50Z</time>
      </trkpt>
      <trkpt lat="45.19436" lon="5.7191">
        <ele>206.38</ele>
        <time>2018-09-09T07:53:53Z</time>
      </trkpt>
      <trkpt lat="45.19422" lon="5.71891">
        <ele>204.09</ele>
        <time>2018-09-09T07:53:57Z</time>
      </trkpt>
      <trkpt lat="45.19406" lon="5.71864">
        <ele>202.05</ele>
        <time>2018-09-09T07:54:29Z</time>
      </trkpt>
      <trkpt lat="45.19392" lon="5.71847">
        <ele>204.57</ele>
        <time>2018-09-09T07:54:31Z</time>
      </trkpt>
      <trkpt lat="45.19375" lon="5.71859">
        <ele>204.83</ele>
        <time>2018-09-09T07:54:34Z</time>
      </trkpt>
      <trkpt lat="45.19363" lon="5.71894">
        <ele>205.32</ele>
        <time>2018-09-09T07:54:37Z</time>
      </trkpt>
      <trkpt lat="45.19358" lon="5.7192">
        <ele>205.07</ele>
        <time>2018-09-09T07:54:39Z</time>
      </trkpt>
      <trkpt lat="45.1935" lon="5.71945">
        <ele>205.05</ele>
        <time>2018-09-09T07:54:41Z</time>
      </trkpt>
      <trkpt lat="45.19341" lon="5.71967">
        <ele>205.05</ele>
        <time>2018-09-09T07:54:43Z</time>
      </trkpt>
      <trkpt lat="45.19327" lon="5.71983">
        <ele>205.75</ele>
        <time>2018-09-09T07:54:45Z</time>
      </trkpt>
      <trkpt lat="45.19303" lon="5.71996">
        <ele>207.71</ele>
        <time>2018-09-09T07:54:48Z</time>
      </trkpt>
      <trkpt lat="45.19283" lon="5.72009">
        <ele>207.07</ele>
        <time>2018-09-09T07:54:51Z</time>
      </trkpt>
      <trkpt lat="45.19264" lon="5.72023">
        <ele>207.05</ele>
        <time>2018-09-09T07:54:55Z</time>
      </trkpt>
      <trkpt lat="45.19246" lon="5.72034">
        <ele>206.06</ele>
        <time>2018-09-09T07:55:01Z</time>
      </trkpt>
      <trkpt lat="45.19236" lon="5.72005">
        <ele>205.12</ele>
        <time>2018-09-09T07:55:06Z</time>
      </trkpt>
      <trkpt lat="45.19241" lon="5.71976">
        <ele>206.02</ele>
        <time>2018-09-09T07:55:09Z</time>
      </trkpt>
      <trkpt lat="45.19248" lon="5.71939">
        <ele>206.05</ele>
        <time>2018-09-09T07:55:12Z</time>
      </trkpt>
      <trkpt lat="45.19255" lon="5.7191">
        <ele>205.35</ele>
        <time>2018-09-09T07:55:14Z</time>
      </trkpt>
      <trkpt lat="45.19262" lon="5.71878">
        <ele>205.78</ele>
        <time>2018-09-09T07:55:16Z</time>
      </trkpt>
      <trkpt lat="45.1927" lon="5.71846">
        <ele>205.81</ele>
        <time>2018-09-09T07:55:18Z</time>
      </trkpt>
      <trkpt lat="45.19278" lon="5.71816">
        <ele>203.72</ele>
        <time>2018-09-09T07:55:20Z</time>
      </trkpt>
      <trkpt lat="45.19288" lon="5.71784">
        <ele>204.72</ele>
        <time>2018-09-09T07:55:22Z</time>
      </trkpt>
      <trkpt lat="45.19299" lon="5.71752">
        <ele>205.93</ele>
        <time>2018-09-09T07:55:24Z</time>
      </trkpt>
      <trkpt lat="45.19311" lon="5.71719">
        <ele>206.74</ele>
        <time>2018-09-09T07:55:26Z</time>
      </trkpt>
      <trkpt lat="45.19323" lon="5.71688">
        <ele>206.11</ele>
        <time>2018-09-09T07:55:28Z</time>
      </trkpt>
      <trkpt lat="45.19337" lon="5.71658">
        <ele>207.66</ele>
        <time>2018-09-09T07:55:30Z</time>
      </trkpt>
      <trkpt lat="45.19353" lon="5.7163">
        <ele>208.71</ele>
        <time>2018-09-09T07:55:32Z</time>
      </trkpt>
      <trkpt lat="45.1937" lon="5.71602">
        <ele>209.02</ele>
        <time>2018-09-09T07:55:34Z</time>
      </trkpt>
      <trkpt lat="45.1939" lon="5.71576">
        <ele>209.05</ele>
        <time>2018-09-09T07:55:36Z</time>
      </trkpt>
      <trkpt lat="45.19408" lon="5.71551">
        <ele>209.26</ele>
        <time>2018-09-09T07:55:38Z</time>
      </trkpt>
      <trkpt lat="45.19429" lon="5.71527">
        <ele>209.98</ele>
        <time>2018-09-09T07:55:40Z</time>
      </trkpt>
      <trkpt lat="45.19451" lon="5.71507">
        <ele>210.95</ele>
        <time>2018-09-09T07:55:42Z</time>
      </trkpt>
      <trkpt lat="45.19474" lon="5.7149">
        <ele>211.04</ele>
        <time>2018-09-09T07:55:44Z</time>
      </trkpt>
      <trkpt lat="45.19499" lon="5.71476">
        <ele>211.05</ele>
        <time>2018-09-09T07:55:46Z</time>
      </trkpt>
      <trkpt lat="45.19525" lon="5.71463">
        <ele>210.14</ele>
        <time>2018-09-09T07:55:48Z</time>
      </trkpt>
      <trkpt lat="45.1955" lon="5.71452">
        <ele>209.36</ele>
        <time>2018-09-09T07:55:50Z</time>
      </trkpt>
      <trkpt lat="45.19576" lon="5.71446">
        <ele>210.48</ele>
        <time>2018-09-09T07:55:52Z</time>
      </trkpt>
      <trkpt lat="45.19602" lon="5.71441">
        <ele>209.6</ele>
        <time>2018-09-09T07:55:54Z</time>
      </trkpt>
      <trkpt lat="45.19627" lon="5.71439">
        <ele>207.49</ele>
        <time>2018-09-09T07:55:56Z</time>
      </trkpt>
      <trkpt lat="45.19654" lon="5.71439">
        <ele>208.7</ele>
        <time>2018-09-09T07:55:58Z</time>
      </trkpt>
      <trkpt lat="45.19682" lon="5.7144">
        <ele>208.11</ele>
        <time>2018-09-09T07:56:00Z</time>
      </trkpt>
      <trkpt lat="45.19714" lon="5.71441">
        <ele>208.75</ele>
        <time>2018-09-09T07:56:02Z</time>
      </trkpt>
      <trkpt lat="45.19738" lon="5.71441">
        <ele>208.53</ele>
        <time>2018-09-09T07:56:04Z</time>
      </trkpt>
      <trkpt lat="45.19763" lon="5.71441">
        <ele>207.18</ele>
        <time>2018-09-09T07:56:06Z</time>
      </trkpt>
      <trkpt lat="45.19785" lon="5.71442">
        <ele>207.97</ele>
        <time>2018-09-09T07:56:08Z</time>
      </trkpt>
      <trkpt lat="45.19809" lon="5.7144">
        <ele>208.95</ele>
        <time>2018-09-09T07:56:10Z</time>
      </trkpt>
      <trkpt lat="45.19831" lon="5.7144">
        <ele>210.65</ele>
        <time>2018-09-09T07:56:12Z</time>
      </trkpt>
      <trkpt lat="45.1985" lon="5.71435">
        <ele>211.22</ele>
        <time>2018-09-09T07:56:14Z</time>
      </trkpt>
      <trkpt lat="45.19874" lon="5.7143">
        <ele>210.99</ele>
        <time>2018-09-09T07:56:17Z</time>
      </trkpt>
      <trkpt lat="45.19895" lon="5.71424">
        <ele>213.63</ele>
        <time>2018-09-09T07:56:20Z</time>
      </trkpt>
      <trkpt lat="45.19916" lon="5.71422">
        <ele>213.06</ele>
        <time>2018-09-09T07:56:23Z</time>
      </trkpt>
      <trkpt lat="45.19941" lon="5.71415">
        <ele>212.14</ele>
        <time>2018-09-09T07:56:26Z</time>
      </trkpt>
      <trkpt lat="45.19961" lon="5.71409">
        <ele>212.05</ele>
        <time>2018-09-09T07:56:29Z</time>
      </trkpt>
      <trkpt lat="45.19956" lon="5.71374">
        <ele>214.01</ele>
        <time>2018-09-09T07:56:33Z</time>
      </trkpt>
      <trkpt lat="45.19948" lon="5.71337">
        <ele>213.14</ele>
        <time>2018-09-09T07:56:36Z</time>
      </trkpt>
      <trkpt lat="45.19941" lon="5.71308">
        <ele>213.06</ele>
        <time>2018-09-09T07:56:38Z</time>
      </trkpt>
      <trkpt lat="45.19934" lon="5.71276">
        <ele>213.05</ele>
        <time>2018-09-09T07:56:40Z</time>
      </trkpt>
      <trkpt lat="45.19926" lon="5.71244">
        <ele>212.35</ele>
        <time>2018-09-09T07:56:42Z</time>
      </trkpt>
      <trkpt lat="45.19919" lon="5.71211">
        <ele>214.6</ele>
        <time>2018-09-09T07:56:44Z</time>
      </trkpt>
      <trkpt lat="45.19911" lon="5.71178">
        <ele>215.71</ele>
        <time>2018-09-09T07:56:46Z</time>
      </trkpt>
      <trkpt lat="45.19904" lon="5.71143">
        <ele>216.93</ele>
        <time>2018-09-09T07:56:48Z</time>
      </trkpt>
      <trkpt lat="45.19896" lon="5.71108">
        <ele>217.95</ele>
        <time>2018-09-09T07:56:50Z</time>
      </trkpt>
      <trkpt lat="45.19888" lon="5.71076">
        <ele>218.04</ele>
        <time>2018-09-09T07:56:52Z</time>
      </trkpt>
      <trkpt lat="45.19883" lon="5.71049">
        <ele>218.05</ele>
        <time>2018-09-09T07:56:54Z</time>
      </trkpt>
      <trkpt lat="45.19878" lon="5.71015">
        <ele>217.14</ele>
        <time>2018-09-09T07:56:57Z</time>
      </trkpt>
      <trkpt lat="45.19873" lon="5.70988">
        <ele>217.83</ele>
        <time>2018-09-09T07:57:01Z</time>
      </trkpt>
      <trkpt lat="45.19866" lon="5.70953">
        <ele>215.38</ele>
        <time>2018-09-09T07:57:06Z</time>
      </trkpt>
      <trkpt lat="45.19851" lon="5.70928">
        <ele>215.06</ele>
        <time>2018-09-09T07:57:09Z</time>
      </trkpt>
      <trkpt lat="45.19832" lon="5.70929">
        <ele>214.84</ele>
        <time>2018-09-09T07:57:11Z</time>
      </trkpt>
      <trkpt lat="45.19811" lon="5.70943">
        <ele>215.03</ele>
        <time>2018-09-09T07:57:13Z</time>
      </trkpt>
      <trkpt lat="45.19792" lon="5.70963">
        <ele>214.14</ele>
        <time>2018-09-09T07:57:15Z</time>
      </trkpt>
      <trkpt lat="45.19774" lon="5.70981">
        <ele>214.06</ele>
        <time>2018-09-09T07:57:17Z</time>
      </trkpt>
      <trkpt lat="45.19756" lon="5.70989">
        <ele>214.05</ele>
        <time>2018-09-09T07:57:19Z</time>
      </trkpt>
      <trkpt lat="45.19732" lon="5.70999">
        <ele>214.05</ele>
        <time>2018-09-09T07:57:22Z</time>
      </trkpt>
      <trkpt lat="45.19711" lon="5.71009">
        <ele>214.26</ele>
        <time>2018-09-09T07:57:25Z</time>
      </trkpt>
      <trkpt lat="45.19691" lon="5.71018">
        <ele>214.05</ele>
        <time>2018-09-09T07:57:28Z</time>
      </trkpt>
      <trkpt lat="45.19671" lon="5.71026">
        <ele>213.08</ele>
        <time>2018-09-09T07:57:32Z</time>
      </trkpt>
      <trkpt lat="45.19648" lon="5.71035">
        <ele>212.07</ele>
        <time>2018-09-09T07:57:41Z</time>
      </trkpt>
      <trkpt lat="45.19624" lon="5.71046">
        <ele>212.05</ele>
        <time>2018-09-09T07:57:44Z</time>
      </trkpt>
      <trkpt lat="45.19604" lon="5.71055">
        <ele>212.05</ele>
        <time>2018-09-09T07:57:46Z</time>
      </trkpt>
      <trkpt lat="45.19581" lon="5.71066">
        <ele>211.14</ele>
        <time>2018-09-09T07:57:48Z</time>
      </trkpt>
      <trkpt lat="45.19559" lon="5.71076">
        <ele>211.06</ele>
        <time>2018-09-09T07:57:50Z</time>
      </trkpt>
      <trkpt lat="45.19537" lon="5.71075">
        <ele>210.14</ele>
        <time>2018-09-09T07:57:52Z</time>
      </trkpt>
      <trkpt lat="45.19515" lon="5.7107">
        <ele>210.06</ele>
        <time>2018-09-09T07:57:54Z</time>
      </trkpt>
      <trkpt lat="45.19493" lon="5.71065">
        <ele>210.05</ele>
        <time>2018-09-09T07:57:56Z</time>
      </trkpt>
      <trkpt lat="45.19471" lon="5.71057">
        <ele>210.05</ele>
        <time>2018-09-09T07:57:58Z</time>
      </trkpt>
      <trkpt lat="45.19449" lon="5.71043">
        <ele>210.05</ele>
        <time>2018-09-09T07:58:00Z</time>
      </trkpt>
      <trkpt lat="45.19431" lon="5.71022">
        <ele>210.05</ele>
        <time>2018-09-09T07:58:02Z</time>
      </trkpt>
      <trkpt lat="45.19415" lon="5.71002">
        <ele>210.05</ele>
        <time>2018-09-09T07:58:04Z</time>
      </trkpt>
      <trkpt lat="45.19401" lon="5.70983">
        <ele>209.14</ele>
        <time>2018-09-09T07:58:06Z</time>
      </trkpt>
      <trkpt lat="45.19382" lon="5.70958">
        <ele>210.23</ele>
        <time>2018-09-09T07:58:09Z</time>
      </trkpt>
      <trkpt lat="45.19367" lon="5.70939">
        <ele>210.82</ele>
        <time>2018-09-09T07:58:12Z</time>
      </trkpt>
      <trkpt lat="45.19351" lon="5.70918">
        <ele>212.72</ele>
        <time>2018-09-09T07:58:16Z</time>
      </trkpt>
      <trkpt lat="45.1934" lon="5.70898">
        <ele>216.92</ele>
        <time>2018-09-09T07:58:21Z</time>
      </trkpt>
      <trkpt lat="45.19322" lon="5.70875">
        <ele>217.77</ele>
        <time>2018-09-09T07:58:26Z</time>
      </trkpt>
      <trkpt lat="45.19306" lon="5.70854">
        <ele>217.11</ele>
        <time>2018-09-09T07:58:28Z</time>
      </trkpt>
      <trkpt lat="45.19287" lon="5.70831">
        <ele>217.26</ele>
        <time>2018-09-09T07:58:30Z</time>
      </trkpt>
      <trkpt lat="45.19269" lon="5.70809">
        <ele>214.55</ele>
        <time>2018-09-09T07:58:32Z</time>
      </trkpt>
      <trkpt lat="45.1925" lon="5.70782">
        <ele>214.79</ele>
        <time>2018-09-09T07:58:34Z</time>
      </trkpt>
      <trkpt lat="45.19232" lon="5.70755">
        <ele>215.03</ele>
        <time>2018-09-09T07:58:36Z</time>
      </trkpt>
      <trkpt lat="45.19214" lon="5.70727">
        <ele>215.96</ele>
        <time>2018-09-09T07:58:38Z</time>
      </trkpt>
      <trkpt lat="45.19202" lon="5.70703">
        <ele>215.34</ele>
        <time>2018-09-09T07:58:40Z</time>
      </trkpt>
      <trkpt lat="45.1919" lon="5.70677">
        <ele>215.82</ele>
        <time>2018-09-09T07:58:43Z</time>
      </trkpt>
      <trkpt lat="45.19179" lon="5.70655">
        <ele>216.26</ele>
        <time>2018-09-09T07:59:32Z</time>
      </trkpt>
      <trkpt lat="45.19165" lon="5.70631">
        <ele>215.08</ele>
        <time>2018-09-09T07:59:35Z</time>
      </trkpt>
      <trkpt lat="45.19156" lon="5.70605">
        <ele>214.2</ele>
        <time>2018-09-09T07:59:38Z</time>
      </trkpt>
      <trkpt lat="45.19165" lon="5.7058">
        <ele>214.05</ele>
        <time>2018-09-09T07:59:41Z</time>
      </trkpt>
      <trkpt lat="45.19175" lon="5.70558">
        <ele>214.05</ele>
        <time>2018-09-09T07:59:43Z</time>
      </trkpt>
      <trkpt lat="45.19186" lon="5.70535">
        <ele>212.44</ele>
        <time>2018-09-09T07:59:45Z</time>
      </trkpt>
      <trkpt lat="45.19196" lon="5.7051">
        <ele>212.78</ele>
        <time>2018-09-09T07:59:47Z</time>
      </trkpt>
      <trkpt lat="45.19208" lon="5.70486">
        <ele>213.03</ele>
        <time>2018-09-09T07:59:49Z</time>
      </trkpt>
      <trkpt lat="45.1922" lon="5.7046">
        <ele>213.05</ele>
        <time>2018-09-09T07:59:51Z</time>
      </trkpt>
      <trkpt lat="45.1923" lon="5.70434">
        <ele>213.05</ele>
        <time>2018-09-09T07:59:53Z</time>
      </trkpt>
      <trkpt lat="45.19239" lon="5.70407">
        <ele>213.96</ele>
        <time>2018-09-09T07:59:55Z</time>
      </trkpt>
      <trkpt lat="45.19244" lon="5.7038">
        <ele>213.13</ele>
        <time>2018-09-09T07:59:57Z</time>
      </trkpt>
      <trkpt lat="45.19246" lon="5.7035">
        <ele>212.99</ele>
        <time>2018-09-09T08:00:00Z</time>
      </trkpt>
      <trkpt lat="45.19246" lon="5.70314">
        <ele>215.9</ele>
        <time>2018-09-09T08:00:03Z</time>
      </trkpt>
      <trkpt lat="45.19245" lon="5.70281">
        <ele>216.26</ele>
        <time>2018-09-09T08:00:06Z</time>
      </trkpt>
      <trkpt lat="45.19236" lon="5.70258">
        <ele>217.05</ele>
        <time>2018-09-09T08:00:11Z</time>
      </trkpt>
      <trkpt lat="45.1921" lon="5.70255">
        <ele>216.14</ele>
        <time>2018-09-09T08:00:14Z</time>
      </trkpt>
      <trkpt lat="45.19185" lon="5.70254">
        <ele>215.36</ele>
        <time>2018-09-09T08:00:16Z</time>
      </trkpt>
      <trkpt lat="45.19157" lon="5.70253">
        <ele>214.17</ele>
        <time>2018-09-09T08:00:18Z</time>
      </trkpt>
      <trkpt lat="45.19126" lon="5.70255">
        <ele>213.15</ele>
        <time>2018-09-09T08:00:20Z</time>
      </trkpt>
      <trkpt lat="45.19093" lon="5.70258">
        <ele>212.15</ele>
        <time>2018-09-09T08:00:22Z</time>
      </trkpt>
      <trkpt lat="45.19059" lon="5.70261">
        <ele>212.06</ele>
        <time>2018-09-09T08:00:24Z</time>
      </trkpt>
      <trkpt lat="45.19024" lon="5.70262">
        <ele>212.05</ele>
        <time>2018-09-09T08:00:26Z</time>
      </trkpt>
      <trkpt lat="45.18989" lon="5.70262">
        <ele>212.75</ele>
        <time>2018-09-09T08:00:28Z</time>
      </trkpt>
      <trkpt lat="45.18953" lon="5.70261">
        <ele>212.81</ele>
        <time>2018-09-09T08:00:30Z</time>
      </trkpt>
      <trkpt lat="45.18935" lon="5.70259">
        <ele>213.68</ele>
        <time>2018-09-09T08:00:31Z</time>
      </trkpt>
      <trkpt lat="45.18916" lon="5.70258">
        <ele>213.94</ele>
        <time>2018-09-09T08:00:32Z</time>
      </trkpt>
      <trkpt lat="45.18896" lon="5.70258">
        <ele>214.02</ele>
        <time>2018-09-09T08:00:33Z</time>
      </trkpt>
      <trkpt lat="45.18876" lon="5.70259">
        <ele>214.74</ele>
        <time>2018-09-09T08:00:34Z</time>
      </trkpt>
      <trkpt lat="45.18857" lon="5.70258">
        <ele>215.66</ele>
        <time>2018-09-09T08:00:35Z</time>
      </trkpt>
      <trkpt lat="45.18837" lon="5.70258">
        <ele>215.93</ele>
        <time>2018-09-09T08:00:36Z</time>
      </trkpt>
      <trkpt lat="45.18817" lon="5.70255">
        <ele>216.01</ele>
        <time>2018-09-09T08:00:37Z</time>
      </trkpt>
      <trkpt lat="45.18799" lon="5.70255">
        <ele>216.04</ele>
        <time>2018-09-09T08:00:38Z</time>
      </trkpt>
      <trkpt lat="45.18779" lon="5.70255">
        <ele>216.75</ele>
        <time>2018-09-09T08:00:39Z</time>
      </trkpt>
      <trkpt lat="45.18759" lon="5.70254">
        <ele>217.66</ele>
        <time>2018-09-09T08:00:40Z</time>
      </trkpt>
      <trkpt lat="45.18739" lon="5.70254">
        <ele>217.93</ele>
        <time>2018-09-09T08:00:41Z</time>
      </trkpt>
      <trkpt lat="45.18719" lon="5.70254">
        <ele>218.01</ele>
        <time>2018-09-09T08:00:42Z</time>
      </trkpt>
      <trkpt lat="45.18699" lon="5.70253">
        <ele>218.04</ele>
        <time>2018-09-09T08:00:43Z</time>
      </trkpt>
      <trkpt lat="45.1868" lon="5.70253">
        <ele>218.05</ele>
        <time>2018-09-09T08:00:44Z</time>
      </trkpt>
      <trkpt lat="45.1866" lon="5.70252">
        <ele>218.75</ele>
        <time>2018-09-09T08:00:45Z</time>
      </trkpt>
      <trkpt lat="45.1864" lon="5.70251">
        <ele>218.96</ele>
        <time>2018-09-09T08:00:46Z</time>
      </trkpt>
      <trkpt lat="45.1862" lon="5.7025">
        <ele>219.72</ele>
        <time>2018-09-09T08:00:47Z</time>
      </trkpt>
      <trkpt lat="45.18599" lon="5.7025">
        <ele>219.95</ele>
        <time>2018-09-09T08:00:48Z</time>
      </trkpt>
      <trkpt lat="45.18579" lon="5.70249">
        <ele>220.02</ele>
        <time>2018-09-09T08:00:49Z</time>
      </trkpt>
      <trkpt lat="45.18558" lon="5.70249">
        <ele>220.74</ele>
        <time>2018-09-09T08:00:50Z</time>
      </trkpt>
      <trkpt lat="45.18538" lon="5.70249">
        <ele>220.26</ele>
        <time>2018-09-09T08:00:51Z</time>
      </trkpt>
      <trkpt lat="45.18518" lon="5.70248">
        <ele>220.81</ele>
        <time>2018-09-09T08:00:52Z</time>
      </trkpt>
      <trkpt lat="45.18498" lon="5.70248">
        <ele>220.98</ele>
        <time>2018-09-09T08:00:53Z</time>
      </trkpt>
      <trkpt lat="45.18478" lon="5.70247">
        <ele>221.03</ele>
        <time>2018-09-09T08:00:54Z</time>
      </trkpt>
      <trkpt lat="45.18457" lon="5.70247">
        <ele>221.74</ele>
        <time>2018-09-09T08:00:55Z</time>
      </trkpt>
      <trkpt lat="45.18436" lon="5.70246">
        <ele>221.96</ele>
        <time>2018-09-09T08:00:56Z</time>
      </trkpt>
      <trkpt lat="45.18416" lon="5.70246">
        <ele>222.02</ele>
        <time>2018-09-09T08:00:57Z</time>
      </trkpt>
      <trkpt lat="45.18396" lon="5.70245">
        <ele>222.04</ele>
        <time>2018-09-09T08:00:58Z</time>
      </trkpt>
      <trkpt lat="45.18377" lon="5.70244">
        <ele>221.35</ele>
        <time>2018-09-09T08:00:59Z</time>
      </trkpt>
      <trkpt lat="45.18357" lon="5.70244">
        <ele>221.14</ele>
        <time>2018-09-09T08:01:00Z</time>
      </trkpt>
      <trkpt lat="45.18336" lon="5.70242">
        <ele>221.08</ele>
        <time>2018-09-09T08:01:01Z</time>
      </trkpt>
      <trkpt lat="45.18316" lon="5.70241">
        <ele>221.06</ele>
        <time>2018-09-09T08:01:02Z</time>
      </trkpt>
      <trkpt lat="45.18296" lon="5.7024">
        <ele>221.75</ele>
        <time>2018-09-09T08:01:03Z</time>
      </trkpt>
      <trkpt lat="45.18276" lon="5.70239">
        <ele>221.96</ele>
        <time>2018-09-09T08:01:04Z</time>
      </trkpt>
      <trkpt lat="45.18256" lon="5.70239">
        <ele>221.32</ele>
        <time>2018-09-09T08:01:05Z</time>
      </trkpt>
      <trkpt lat="45.18235" lon="5.70238">
        <ele>220.43</ele>
        <time>2018-09-09T08:01:06Z</time>
      </trkpt>
      <trkpt lat="45.18215" lon="5.70238">
        <ele>220.16</ele>
        <time>2018-09-09T08:01:07Z</time>
      </trkpt>
      <trkpt lat="45.18196" lon="5.70237">
        <ele>220.08</ele>
        <time>2018-09-09T08:01:08Z</time>
      </trkpt>
      <trkpt lat="45.18176" lon="5.70237">
        <ele>220.06</ele>
        <time>2018-09-09T08:01:09Z</time>
      </trkpt>
      <trkpt lat="45.18156" lon="5.70237">
        <ele>220.05</ele>
        <time>2018-09-09T08:01:10Z</time>
      </trkpt>
      <trkpt lat="45.18137" lon="5.70235">
        <ele>220.05</ele>
        <time>2018-09-09T08:01:11Z</time>
      </trkpt>
      <trkpt lat="45.18117" lon="5.70235">
        <ele>219.35</ele>
        <time>2018-09-09T08:01:12Z</time>
      </trkpt>
      <trkpt lat="45.18097" lon="5.70234">
        <ele>219.14</ele>
        <time>2018-09-09T08:01:13Z</time>
      </trkpt>
      <trkpt lat="45.18077" lon="5.70233">
        <ele>219.08</ele>
        <time>2018-09-09T08:01:14Z</time>
      </trkpt>
      <trkpt lat="45.18058" lon="5.70233">
        <ele>218.36</ele>
        <time>2018-09-09T08:01:15Z</time>
      </trkpt>
      <trkpt lat="45.18039" lon="5.70232">
        <ele>218.14</ele>
        <time>2018-09-09T08:01:16Z</time>
      </trkpt>
      <trkpt lat="45.1802" lon="5.70232">
        <ele>218.08</ele>
        <time>2018-09-09T08:01:17Z</time>
      </trkpt>
      <trkpt lat="45.18001" lon="5.70232">
        <ele>218.06</ele>
        <time>2018-09-09T08:01:18Z</time>
      </trkpt>
      <trkpt lat="45.17982" lon="5.70231">
        <ele>218.75</ele>
        <time>2018-09-09T08:01:19Z</time>
      </trkpt>
      <trkpt lat="45.17963" lon="5.70232">
        <ele>218.96</ele>
        <time>2018-09-09T08:01:20Z</time>
      </trkpt>
      <trkpt lat="45.17944" lon="5.70232">
        <ele>219.02</ele>
        <time>2018-09-09T08:01:21Z</time>
      </trkpt>
      <trkpt lat="45.17925" lon="5.70232">
        <ele>218.34</ele>
        <time>2018-09-09T08:01:22Z</time>
      </trkpt>
      <trkpt lat="45.17906" lon="5.70232">
        <ele>218.14</ele>
        <time>2018-09-09T08:01:23Z</time>
      </trkpt>
      <trkpt lat="45.17887" lon="5.70231">
        <ele>218.08</ele>
        <time>2018-09-09T08:01:24Z</time>
      </trkpt>
      <trkpt lat="45.17868" lon="5.7023">
        <ele>218.06</ele>
        <time>2018-09-09T08:01:25Z</time>
      </trkpt>
      <trkpt lat="45.17849" lon="5.70227">
        <ele>218.05</ele>
        <time>2018-09-09T08:01:26Z</time>
      </trkpt>
      <trkpt lat="45.17829" lon="5.70227">
        <ele>218.05</ele>
        <time>2018-09-09T08:01:27Z</time>
      </trkpt>
      <trkpt lat="45.17809" lon="5.70226">
        <ele>218.05</ele>
        <time>2018-09-09T08:01:28Z</time>
      </trkpt>
      <trkpt lat="45.17789" lon="5.70225">
        <ele>219.45</ele>
        <time>2018-09-09T08:01:29Z</time>
      </trkpt>
      <trkpt lat="45.17769" lon="5.70224">
        <ele>219.17</ele>
        <time>2018-09-09T08:01:30Z</time>
      </trkpt>
      <trkpt lat="45.17749" lon="5.70223">
        <ele>219.09</ele>
        <time>2018-09-09T08:01:31Z</time>
      </trkpt>
      <trkpt lat="45.17729" lon="5.70221">
        <ele>219.06</ele>
        <time>2018-09-09T08:01:32Z</time>
      </trkpt>
      <trkpt lat="45.1771" lon="5.70219">
        <ele>219.05</ele>
        <time>2018-09-09T08:01:33Z</time>
      </trkpt>
      <trkpt lat="45.17691" lon="5.70218">
        <ele>219.75</ele>
        <time>2018-09-09T08:01:34Z</time>
      </trkpt>
      <trkpt lat="45.17671" lon="5.70217">
        <ele>219.96</ele>
        <time>2018-09-09T08:01:35Z</time>
      </trkpt>
      <trkpt lat="45.17651" lon="5.70215">
        <ele>220.02</ele>
        <time>2018-09-09T08:01:36Z</time>
      </trkpt>
      <trkpt lat="45.17632" lon="5.70215">
        <ele>220.04</ele>
        <time>2018-09-09T08:01:37Z</time>
      </trkpt>
      <trkpt lat="45.17612" lon="5.70214">
        <ele>220.75</ele>
        <time>2018-09-09T08:01:38Z</time>
      </trkpt>
      <trkpt lat="45.17592" lon="5.70213">
        <ele>220.96</ele>
        <time>2018-09-09T08:01:39Z</time>
      </trkpt>
      <trkpt lat="45.17573" lon="5.70213">
        <ele>221.02</ele>
        <time>2018-09-09T08:01:40Z</time>
      </trkpt>
      <trkpt lat="45.17553" lon="5.70212">
        <ele>221.74</ele>
        <time>2018-09-09T08:01:41Z</time>
      </trkpt>
      <trkpt lat="45.17534" lon="5.70212">
        <ele>221.96</ele>
        <time>2018-09-09T08:01:42Z</time>
      </trkpt>
      <trkpt lat="45.17514" lon="5.70212">
        <ele>221.32</ele>
        <time>2018-09-09T08:01:43Z</time>
      </trkpt>
      <trkpt lat="45.17495" lon="5.70211">
        <ele>221.83</ele>
        <time>2018-09-09T08:01:44Z</time>
      </trkpt>
      <trkpt lat="45.17476" lon="5.70212">
        <ele>221.98</ele>
        <time>2018-09-09T08:01:45Z</time>
      </trkpt>
      <trkpt lat="45.17457" lon="5.70212">
        <ele>222.03</ele>
        <time>2018-09-09T08:01:46Z</time>
      </trkpt>
      <trkpt lat="45.17439" lon="5.7021">
        <ele>222.04</ele>
        <time>2018-09-09T08:01:47Z</time>
      </trkpt>
      <trkpt lat="45.17419" lon="5.70209">
        <ele>222.75</ele>
        <time>2018-09-09T08:01:48Z</time>
      </trkpt>
      <trkpt lat="45.17401" lon="5.70208">
        <ele>222.96</ele>
        <time>2018-09-09T08:01:49Z</time>
      </trkpt>
      <trkpt lat="45.17382" lon="5.70209">
        <ele>222.32</ele>
        <time>2018-09-09T08:01:50Z</time>
      </trkpt>
      <trkpt lat="45.17363" lon="5.70208">
        <ele>222.13</ele>
        <time>2018-09-09T08:01:51Z</time>
      </trkpt>
      <trkpt lat="45.17344" lon="5.70207">
        <ele>222.07</ele>
        <time>2018-09-09T08:01:52Z</time>
      </trkpt>
      <trkpt lat="45.17324" lon="5.70207">
        <ele>222.76</ele>
        <time>2018-09-09T08:01:53Z</time>
      </trkpt>
      <trkpt lat="45.17304" lon="5.70206">
        <ele>222.96</ele>
        <time>2018-09-09T08:01:54Z</time>
      </trkpt>
      <trkpt lat="45.17285" lon="5.70205">
        <ele>223.02</ele>
        <time>2018-09-09T08:01:55Z</time>
      </trkpt>
      <trkpt lat="45.17265" lon="5.70203">
        <ele>222.34</ele>
        <time>2018-09-09T08:01:56Z</time>
      </trkpt>
      <trkpt lat="45.17245" lon="5.70202">
        <ele>222.14</ele>
        <time>2018-09-09T08:01:57Z</time>
      </trkpt>
      <trkpt lat="45.17225" lon="5.702">
        <ele>222.78</ele>
        <time>2018-09-09T08:01:58Z</time>
      </trkpt>
      <trkpt lat="45.17205" lon="5.702">
        <ele>222.27</ele>
        <time>2018-09-09T08:01:59Z</time>
      </trkpt>
      <trkpt lat="45.17185" lon="5.70199">
        <ele>222.81</ele>
        <time>2018-09-09T08:02:00Z</time>
      </trkpt>
      <trkpt lat="45.17166" lon="5.702">
        <ele>222.28</ele>
        <time>2018-09-09T08:02:01Z</time>
      </trkpt>
      <trkpt lat="45.17147" lon="5.70199">
        <ele>222.12</ele>
        <time>2018-09-09T08:02:02Z</time>
      </trkpt>
      <trkpt lat="45.17128" lon="5.70198">
        <ele>221.37</ele>
        <time>2018-09-09T08:02:03Z</time>
      </trkpt>
      <trkpt lat="45.1711" lon="5.70197">
        <ele>221.85</ele>
        <time>2018-09-09T08:02:04Z</time>
      </trkpt>
      <trkpt lat="45.17074" lon="5.70195">
        <ele>221.33</ele>
        <time>2018-09-09T08:02:06Z</time>
      </trkpt>
      <trkpt lat="45.17038" lon="5.70192">
        <ele>221.07</ele>
        <time>2018-09-09T08:02:08Z</time>
      </trkpt>
      <trkpt lat="45.17004" lon="5.7019">
        <ele>221.05</ele>
        <time>2018-09-09T08:02:10Z</time>
      </trkpt>
      <trkpt lat="45.16986" lon="5.70189">
        <ele>221.75</ele>
        <time>2018-09-09T08:02:11Z</time>
      </trkpt>
      <trkpt lat="45.16951" lon="5.70189">
        <ele>222.02</ele>
        <time>2018-09-09T08:02:13Z</time>
      </trkpt>
      <trkpt lat="45.16932" lon="5.70188">
        <ele>221.34</ele>
        <time>2018-09-09T08:02:14Z</time>
      </trkpt>
      <trkpt lat="45.16914" lon="5.70188">
        <ele>220.44</ele>
        <time>2018-09-09T08:02:15Z</time>
      </trkpt>
      <trkpt lat="45.16896" lon="5.70188">
        <ele>220.87</ele>
        <time>2018-09-09T08:02:16Z</time>
      </trkpt>
      <trkpt lat="45.16877" lon="5.70187">
        <ele>220.99</ele>
        <time>2018-09-09T08:02:17Z</time>
      </trkpt>
      <trkpt lat="45.16858" lon="5.70185">
        <ele>221.73</ele>
        <time>2018-09-09T08:02:18Z</time>
      </trkpt>
      <trkpt lat="45.16838" lon="5.70184">
        <ele>222.65</ele>
        <time>2018-09-09T08:02:19Z</time>
      </trkpt>
      <trkpt lat="45.16818" lon="5.70183">
        <ele>222.93</ele>
        <time>2018-09-09T08:02:20Z</time>
      </trkpt>
      <trkpt lat="45.16799" lon="5.70181">
        <ele>223.01</ele>
        <time>2018-09-09T08:02:21Z</time>
      </trkpt>
      <trkpt lat="45.16779" lon="5.70179">
        <ele>223.04</ele>
        <time>2018-09-09T08:02:22Z</time>
      </trkpt>
      <trkpt lat="45.16759" lon="5.70179">
        <ele>223.05</ele>
        <time>2018-09-09T08:02:23Z</time>
      </trkpt>
      <trkpt lat="45.16738" lon="5.70178">
        <ele>223.05</ele>
        <time>2018-09-09T08:02:24Z</time>
      </trkpt>
      <trkpt lat="45.16717" lon="5.70177">
        <ele>223.05</ele>
        <time>2018-09-09T08:02:25Z</time>
      </trkpt>
      <trkpt lat="45.16696" lon="5.70176">
        <ele>223.05</ele>
        <time>2018-09-09T08:02:26Z</time>
      </trkpt>
      <trkpt lat="45.16674" lon="5.70174">
        <ele>223.05</ele>
        <time>2018-09-09T08:02:27Z</time>
      </trkpt>
      <trkpt lat="45.16651" lon="5.70173">
        <ele>223.75</ele>
        <time>2018-09-09T08:02:28Z</time>
      </trkpt>
      <trkpt lat="45.16629" lon="5.70173">
        <ele>223.96</ele>
        <time>2018-09-09T08:02:29Z</time>
      </trkpt>
      <trkpt lat="45.16606" lon="5.70172">
        <ele>224.02</ele>
        <time>2018-09-09T08:02:30Z</time>
      </trkpt>
      <trkpt lat="45.16584" lon="5.70171">
        <ele>224.74</ele>
        <time>2018-09-09T08:02:31Z</time>
      </trkpt>
      <trkpt lat="45.16561" lon="5.70168">
        <ele>224.26</ele>
        <time>2018-09-09T08:02:32Z</time>
      </trkpt>
      <trkpt lat="45.16538" lon="5.70167">
        <ele>224.81</ele>
        <time>2018-09-09T08:02:33Z</time>
      </trkpt>
      <trkpt lat="45.16515" lon="5.70166">
        <ele>224.98</ele>
        <time>2018-09-09T08:02:34Z</time>
      </trkpt>
      <trkpt lat="45.16492" lon="5.70165">
        <ele>225.03</ele>
        <time>2018-09-09T08:02:35Z</time>
      </trkpt>
      <trkpt lat="45.16469" lon="5.70164">
        <ele>225.04</ele>
        <time>2018-09-09T08:02:36Z</time>
      </trkpt>
      <trkpt lat="45.16446" lon="5.70163">
        <ele>225.05</ele>
        <time>2018-09-09T08:02:37Z</time>
      </trkpt>
      <trkpt lat="45.16423" lon="5.70162">
        <ele>225.05</ele>
        <time>2018-09-09T08:02:38Z</time>
      </trkpt>
      <trkpt lat="45.164" lon="5.70161">
        <ele>225.05</ele>
        <time>2018-09-09T08:02:39Z</time>
      </trkpt>
      <trkpt lat="45.16376" lon="5.7016">
        <ele>225.05</ele>
        <time>2018-09-09T08:02:40Z</time>
      </trkpt>
      <trkpt lat="45.16353" lon="5.7016">
        <ele>225.75</ele>
        <time>2018-09-09T08:02:41Z</time>
      </trkpt>
      <trkpt lat="45.16329" lon="5.70159">
        <ele>225.96</ele>
        <time>2018-09-09T08:02:42Z</time>
      </trkpt>
      <trkpt lat="45.16306" lon="5.70158">
        <ele>226.02</ele>
        <time>2018-09-09T08:02:43Z</time>
      </trkpt>
      <trkpt lat="45.16282" lon="5.70158">
        <ele>226.04</ele>
        <time>2018-09-09T08:02:44Z</time>
      </trkpt>
      <trkpt lat="45.16259" lon="5.70157">
        <ele>226.05</ele>
        <time>2018-09-09T08:02:45Z</time>
      </trkpt>
      <trkpt lat="45.16235" lon="5.70156">
        <ele>225.35</ele>
        <time>2018-09-09T08:02:46Z</time>
      </trkpt>
      <trkpt lat="45.16212" lon="5.70156">
        <ele>225.14</ele>
        <time>2018-09-09T08:02:47Z</time>
      </trkpt>
      <trkpt lat="45.16189" lon="5.70156">
        <ele>225.08</ele>
        <time>2018-09-09T08:02:48Z</time>
      </trkpt>
      <trkpt lat="45.16167" lon="5.70155">
        <ele>225.06</ele>
        <time>2018-09-09T08:02:49Z</time>
      </trkpt>
      <trkpt lat="45.16144" lon="5.70154">
        <ele>225.05</ele>
        <time>2018-09-09T08:02:50Z</time>
      </trkpt>
      <trkpt lat="45.16122" lon="5.70153">
        <ele>225.05</ele>
        <time>2018-09-09T08:02:51Z</time>
      </trkpt>
      <trkpt lat="45.16099" lon="5.70151">
        <ele>225.05</ele>
        <time>2018-09-09T08:02:52Z</time>
      </trkpt>
      <trkpt lat="45.16077" lon="5.7015">
        <ele>225.05</ele>
        <time>2018-09-09T08:02:53Z</time>
      </trkpt>
      <trkpt lat="45.16054" lon="5.70148">
        <ele>225.05</ele>
        <time>2018-09-09T08:02:54Z</time>
      </trkpt>
      <trkpt lat="45.16032" lon="5.70147">
        <ele>225.05</ele>
        <time>2018-09-09T08:02:55Z</time>
      </trkpt>
      <trkpt lat="45.16009" lon="5.70145">
        <ele>225.05</ele>
        <time>2018-09-09T08:02:56Z</time>
      </trkpt>
      <trkpt lat="45.15987" lon="5.70143">
        <ele>225.05</ele>
        <time>2018-09-09T08:02:57Z</time>
      </trkpt>
      <trkpt lat="45.15965" lon="5.70141">
        <ele>224.35</ele>
        <time>2018-09-09T08:02:58Z</time>
      </trkpt>
      <trkpt lat="45.15944" lon="5.70138">
        <ele>224.84</ele>
        <time>2018-09-09T08:02:59Z</time>
      </trkpt>
      <trkpt lat="45.15922" lon="5.70134">
        <ele>224.99</ele>
        <time>2018-09-09T08:03:00Z</time>
      </trkpt>
      <trkpt lat="45.159" lon="5.70129">
        <ele>225.03</ele>
        <time>2018-09-09T08:03:01Z</time>
      </trkpt>
      <trkpt lat="45.15879" lon="5.70122">
        <ele>225.04</ele>
        <time>2018-09-09T08:03:02Z</time>
      </trkpt>
      <trkpt lat="45.15858" lon="5.70113">
        <ele>225.05</ele>
        <time>2018-09-09T08:03:03Z</time>
      </trkpt>
      <trkpt lat="45.15837" lon="5.70103">
        <ele>225.75</ele>
        <time>2018-09-09T08:03:04Z</time>
      </trkpt>
      <trkpt lat="45.15817" lon="5.70089">
        <ele>225.96</ele>
        <time>2018-09-09T08:03:05Z</time>
      </trkpt>
      <trkpt lat="45.15798" lon="5.70075">
        <ele>226.02</ele>
        <time>2018-09-09T08:03:06Z</time>
      </trkpt>
      <trkpt lat="45.15778" lon="5.70062">
        <ele>226.04</ele>
        <time>2018-09-09T08:03:07Z</time>
      </trkpt>
      <trkpt lat="45.15759" lon="5.70048">
        <ele>226.75</ele>
        <time>2018-09-09T08:03:08Z</time>
      </trkpt>
      <trkpt lat="45.1574" lon="5.70034">
        <ele>226.96</ele>
        <time>2018-09-09T08:03:09Z</time>
      </trkpt>
      <trkpt lat="45.15721" lon="5.70019">
        <ele>227.02</ele>
        <time>2018-09-09T08:03:10Z</time>
      </trkpt>
      <trkpt lat="45.15701" lon="5.70003">
        <ele>227.04</ele>
        <time>2018-09-09T08:03:11Z</time>
      </trkpt>
      <trkpt lat="45.15681" lon="5.69988">
        <ele>227.05</ele>
        <time>2018-09-09T08:03:12Z</time>
      </trkpt>
      <trkpt lat="45.15661" lon="5.69974">
        <ele>227.75</ele>
        <time>2018-09-09T08:03:13Z</time>
      </trkpt>
      <trkpt lat="45.15642" lon="5.69961">
        <ele>227.96</ele>
        <time>2018-09-09T08:03:14Z</time>
      </trkpt>
      <trkpt lat="45.15621" lon="5.69949">
        <ele>228.02</ele>
        <time>2018-09-09T08:03:15Z</time>
      </trkpt>
      <trkpt lat="45.156" lon="5.69937">
        <ele>228.04</ele>
        <time>2018-09-09T08:03:16Z</time>
      </trkpt>
      <trkpt lat="45.15579" lon="5.69926">
        <ele>228.05</ele>
        <time>2018-09-09T08:03:17Z</time>
      </trkpt>
      <trkpt lat="45.15558" lon="5.69915">
        <ele>228.05</ele>
        <time>2018-09-09T08:03:18Z</time>
      </trkpt>
      <trkpt lat="45.15538" lon="5.69905">
        <ele>228.05</ele>
        <time>2018-09-09T08:03:19Z</time>
      </trkpt>
      <trkpt lat="45.15516" lon="5.69895">
        <ele>228.05</ele>
        <time>2018-09-09T08:03:20Z</time>
      </trkpt>
      <trkpt lat="45.15496" lon="5.69885">
        <ele>228.75</ele>
        <time>2018-09-09T08:03:21Z</time>
      </trkpt>
      <trkpt lat="45.15475" lon="5.69876">
        <ele>228.96</ele>
        <time>2018-09-09T08:03:22Z</time>
      </trkpt>
      <trkpt lat="45.15454" lon="5.69865">
        <ele>229.02</ele>
        <time>2018-09-09T08:03:23Z</time>
      </trkpt>
      <trkpt lat="45.15432" lon="5.69855">
        <ele>229.74</ele>
        <time>2018-09-09T08:03:24Z</time>
      </trkpt>
      <trkpt lat="45.15411" lon="5.69845">
        <ele>229.96</ele>
        <time>2018-09-09T08:03:25Z</time>
      </trkpt>
      <trkpt lat="45.1539" lon="5.69836">
        <ele>230.02</ele>
        <time>2018-09-09T08:03:26Z</time>
      </trkpt>
      <trkpt lat="45.15369" lon="5.69826">
        <ele>230.04</ele>
        <time>2018-09-09T08:03:27Z</time>
      </trkpt>
      <trkpt lat="45.15348" lon="5.69816">
        <ele>230.05</ele>
        <time>2018-09-09T08:03:28Z</time>
      </trkpt>
      <trkpt lat="45.15326" lon="5.69807">
        <ele>230.05</ele>
        <time>2018-09-09T08:03:29Z</time>
      </trkpt>
      <trkpt lat="45.15305" lon="5.69797">
        <ele>230.05</ele>
        <time>2018-09-09T08:03:30Z</time>
      </trkpt>
      <trkpt lat="45.15284" lon="5.69786">
        <ele>230.75</ele>
        <time>2018-09-09T08:03:31Z</time>
      </trkpt>
      <trkpt lat="45.15262" lon="5.69776">
        <ele>230.96</ele>
        <time>2018-09-09T08:03:32Z</time>
      </trkpt>
      <trkpt lat="45.15241" lon="5.69766">
        <ele>231.02</ele>
        <time>2018-09-09T08:03:33Z</time>
      </trkpt>
      <trkpt lat="45.1522" lon="5.69755">
        <ele>231.04</ele>
        <time>2018-09-09T08:03:34Z</time>
      </trkpt>
      <trkpt lat="45.15199" lon="5.69745">
        <ele>231.05</ele>
        <time>2018-09-09T08:03:35Z</time>
      </trkpt>
      <trkpt lat="45.15177" lon="5.69735">
        <ele>231.05</ele>
        <time>2018-09-09T08:03:36Z</time>
      </trkpt>
      <trkpt lat="45.15156" lon="5.69725">
        <ele>231.05</ele>
        <time>2018-09-09T08:03:37Z</time>
      </trkpt>
      <trkpt lat="45.15134" lon="5.69715">
        <ele>231.75</ele>
        <time>2018-09-09T08:03:38Z</time>
      </trkpt>
      <trkpt lat="45.15113" lon="5.69704">
        <ele>231.96</ele>
        <time>2018-09-09T08:03:39Z</time>
      </trkpt>
      <trkpt lat="45.15091" lon="5.69694">
        <ele>232.02</ele>
        <time>2018-09-09T08:03:40Z</time>
      </trkpt>
      <trkpt lat="45.15068" lon="5.69683">
        <ele>231.34</ele>
        <time>2018-09-09T08:03:41Z</time>
      </trkpt>
      <trkpt lat="45.15043" lon="5.69673">
        <ele>231.84</ele>
        <time>2018-09-09T08:03:42Z</time>
      </trkpt>
      <trkpt lat="45.15018" lon="5.69662">
        <ele>231.99</ele>
        <time>2018-09-09T08:03:43Z</time>
      </trkpt>
      <trkpt lat="45.14993" lon="5.69651">
        <ele>232.03</ele>
        <time>2018-09-09T08:03:44Z</time>
      </trkpt>
      <trkpt lat="45.14967" lon="5.6964">
        <ele>232.04</ele>
        <time>2018-09-09T08:03:45Z</time>
      </trkpt>
      <trkpt lat="45.14942" lon="5.69628">
        <ele>232.05</ele>
        <time>2018-09-09T08:03:46Z</time>
      </trkpt>
      <trkpt lat="45.14917" lon="5.69616">
        <ele>232.05</ele>
        <time>2018-09-09T08:03:47Z</time>
      </trkpt>
      <trkpt lat="45.14891" lon="5.69604">
        <ele>232.05</ele>
        <time>2018-09-09T08:03:48Z</time>
      </trkpt>
      <trkpt lat="45.14865" lon="5.69591">
        <ele>232.05</ele>
        <time>2018-09-09T08:03:49Z</time>
      </trkpt>
      <trkpt lat="45.1484" lon="5.69579">
        <ele>232.75</ele>
        <time>2018-09-09T08:03:50Z</time>
      </trkpt>
      <trkpt lat="45.14814" lon="5.69566">
        <ele>232.96</ele>
        <time>2018-09-09T08:03:51Z</time>
      </trkpt>
      <trkpt lat="45.14788" lon="5.69554">
        <ele>233.02</ele>
        <time>2018-09-09T08:03:52Z</time>
      </trkpt>
      <trkpt lat="45.14763" lon="5.69541">
        <ele>233.04</ele>
        <time>2018-09-09T08:03:53Z</time>
      </trkpt>
      <trkpt lat="45.14737" lon="5.69529">
        <ele>233.05</ele>
        <time>2018-09-09T08:03:54Z</time>
      </trkpt>
      <trkpt lat="45.14711" lon="5.69517">
        <ele>233.05</ele>
        <time>2018-09-09T08:03:55Z</time>
      </trkpt>
      <trkpt lat="45.14686" lon="5.69505">
        <ele>233.05</ele>
        <time>2018-09-09T08:03:56Z</time>
      </trkpt>
      <trkpt lat="45.1466" lon="5.69493">
        <ele>233.75</ele>
        <time>2018-09-09T08:03:57Z</time>
      </trkpt>
      <trkpt lat="45.14635" lon="5.69481">
        <ele>233.26</ele>
        <time>2018-09-09T08:03:58Z</time>
      </trkpt>
      <trkpt lat="45.14609" lon="5.69469">
        <ele>233.81</ele>
        <time>2018-09-09T08:03:59Z</time>
      </trkpt>
      <trkpt lat="45.14583" lon="5.69457">
        <ele>233.98</ele>
        <time>2018-09-09T08:04:00Z</time>
      </trkpt>
      <trkpt lat="45.14558" lon="5.69445">
        <ele>234.03</ele>
        <time>2018-09-09T08:04:01Z</time>
      </trkpt>
      <trkpt lat="45.14532" lon="5.69432">
        <ele>234.04</ele>
        <time>2018-09-09T08:04:02Z</time>
      </trkpt>
      <trkpt lat="45.14507" lon="5.69421">
        <ele>234.75</ele>
        <time>2018-09-09T08:04:03Z</time>
      </trkpt>
      <trkpt lat="45.14481" lon="5.69409">
        <ele>234.96</ele>
        <time>2018-09-09T08:04:04Z</time>
      </trkpt>
      <trkpt lat="45.14455" lon="5.69396">
        <ele>235.02</ele>
        <time>2018-09-09T08:04:05Z</time>
      </trkpt>
      <trkpt lat="45.1443" lon="5.69385">
        <ele>235.04</ele>
        <time>2018-09-09T08:04:06Z</time>
      </trkpt>
      <trkpt lat="45.14404" lon="5.69372">
        <ele>235.05</ele>
        <time>2018-09-09T08:04:07Z</time>
      </trkpt>
      <trkpt lat="45.14379" lon="5.6936">
        <ele>235.75</ele>
        <time>2018-09-09T08:04:08Z</time>
      </trkpt>
      <trkpt lat="45.14353" lon="5.69346">
        <ele>235.26</ele>
        <time>2018-09-09T08:04:09Z</time>
      </trkpt>
      <trkpt lat="45.14328" lon="5.69333">
        <ele>235.81</ele>
        <time>2018-09-09T08:04:10Z</time>
      </trkpt>
      <trkpt lat="45.14302" lon="5.69321">
        <ele>235.98</ele>
        <time>2018-09-09T08:04:11Z</time>
      </trkpt>
      <trkpt lat="45.14276" lon="5.69308">
        <ele>236.03</ele>
        <time>2018-09-09T08:04:12Z</time>
      </trkpt>
      <trkpt lat="45.1425" lon="5.69295">
        <ele>235.34</ele>
        <time>2018-09-09T08:04:13Z</time>
      </trkpt>
      <trkpt lat="45.14224" lon="5.69283">
        <ele>235.84</ele>
        <time>2018-09-09T08:04:14Z</time>
      </trkpt>
      <trkpt lat="45.14198" lon="5.6927">
        <ele>235.99</ele>
        <time>2018-09-09T08:04:15Z</time>
      </trkpt>
      <trkpt lat="45.14172" lon="5.69258">
        <ele>236.03</ele>
        <time>2018-09-09T08:04:16Z</time>
      </trkpt>
      <trkpt lat="45.14146" lon="5.69245">
        <ele>236.04</ele>
        <time>2018-09-09T08:04:17Z</time>
      </trkpt>
      <trkpt lat="45.1412" lon="5.69233">
        <ele>236.05</ele>
        <time>2018-09-09T08:04:18Z</time>
      </trkpt>
      <trkpt lat="45.14094" lon="5.69221">
        <ele>236.75</ele>
        <time>2018-09-09T08:04:19Z</time>
      </trkpt>
      <trkpt lat="45.14068" lon="5.69209">
        <ele>236.96</ele>
        <time>2018-09-09T08:04:20Z</time>
      </trkpt>
      <trkpt lat="45.14043" lon="5.69197">
        <ele>237.72</ele>
        <time>2018-09-09T08:04:21Z</time>
      </trkpt>
      <trkpt lat="45.14017" lon="5.69185">
        <ele>237.95</ele>
        <time>2018-09-09T08:04:22Z</time>
      </trkpt>
      <trkpt lat="45.13991" lon="5.69173">
        <ele>238.02</ele>
        <time>2018-09-09T08:04:23Z</time>
      </trkpt>
      <trkpt lat="45.13966" lon="5.69162">
        <ele>238.04</ele>
        <time>2018-09-09T08:04:24Z</time>
      </trkpt>
      <trkpt lat="45.1394" lon="5.6915">
        <ele>238.05</ele>
        <time>2018-09-09T08:04:25Z</time>
      </trkpt>
      <trkpt lat="45.13915" lon="5.69138">
        <ele>238.75</ele>
        <time>2018-09-09T08:04:26Z</time>
      </trkpt>
      <trkpt lat="45.13889" lon="5.69127">
        <ele>238.96</ele>
        <time>2018-09-09T08:04:27Z</time>
      </trkpt>
      <trkpt lat="45.13864" lon="5.69116">
        <ele>239.02</ele>
        <time>2018-09-09T08:04:28Z</time>
      </trkpt>
      <trkpt lat="45.13838" lon="5.69105">
        <ele>239.04</ele>
        <time>2018-09-09T08:04:29Z</time>
      </trkpt>
      <trkpt lat="45.13812" lon="5.69096">
        <ele>239.05</ele>
        <time>2018-09-09T08:04:30Z</time>
      </trkpt>
      <trkpt lat="45.13786" lon="5.69086">
        <ele>238.35</ele>
        <time>2018-09-09T08:04:31Z</time>
      </trkpt>
      <trkpt lat="45.1376" lon="5.69077">
        <ele>238.84</ele>
        <time>2018-09-09T08:04:32Z</time>
      </trkpt>
      <trkpt lat="45.13734" lon="5.69069">
        <ele>238.99</ele>
        <time>2018-09-09T08:04:33Z</time>
      </trkpt>
      <trkpt lat="45.13708" lon="5.69063">
        <ele>239.03</ele>
        <time>2018-09-09T08:04:34Z</time>
      </trkpt>
      <trkpt lat="45.13682" lon="5.69058">
        <ele>238.34</ele>
        <time>2018-09-09T08:04:35Z</time>
      </trkpt>
      <trkpt lat="45.13656" lon="5.69052">
        <ele>238.14</ele>
        <time>2018-09-09T08:04:36Z</time>
      </trkpt>
      <trkpt lat="45.13629" lon="5.69046">
        <ele>237.38</ele>
        <time>2018-09-09T08:04:37Z</time>
      </trkpt>
      <trkpt lat="45.13603" lon="5.6904">
        <ele>237.15</ele>
        <time>2018-09-09T08:04:38Z</time>
      </trkpt>
      <trkpt lat="45.13576" lon="5.69035">
        <ele>237.08</ele>
        <time>2018-09-09T08:04:39Z</time>
      </trkpt>
      <trkpt lat="45.1355" lon="5.69029">
        <ele>236.36</ele>
        <time>2018-09-09T08:04:40Z</time>
      </trkpt>
      <trkpt lat="45.13524" lon="5.69024">
        <ele>236.14</ele>
        <time>2018-09-09T08:04:41Z</time>
      </trkpt>
      <trkpt lat="45.13496" lon="5.6902">
        <ele>236.78</ele>
        <time>2018-09-09T08:04:42Z</time>
      </trkpt>
      <trkpt lat="45.1347" lon="5.69016">
        <ele>236.97</ele>
        <time>2018-09-09T08:04:43Z</time>
      </trkpt>
      <trkpt lat="45.13443" lon="5.69012">
        <ele>237.02</ele>
        <time>2018-09-09T08:04:44Z</time>
      </trkpt>
      <trkpt lat="45.13416" lon="5.69008">
        <ele>237.04</ele>
        <time>2018-09-09T08:04:45Z</time>
      </trkpt>
      <trkpt lat="45.13389" lon="5.69005">
        <ele>237.05</ele>
        <time>2018-09-09T08:04:46Z</time>
      </trkpt>
      <trkpt lat="45.13363" lon="5.69003">
        <ele>237.05</ele>
        <time>2018-09-09T08:04:47Z</time>
      </trkpt>
      <trkpt lat="45.13336" lon="5.69002">
        <ele>237.05</ele>
        <time>2018-09-09T08:04:48Z</time>
      </trkpt>
      <trkpt lat="45.13309" lon="5.69003">
        <ele>237.05</ele>
        <time>2018-09-09T08:04:49Z</time>
      </trkpt>
      <trkpt lat="45.13283" lon="5.69003">
        <ele>237.05</ele>
        <time>2018-09-09T08:04:50Z</time>
      </trkpt>
      <trkpt lat="45.13257" lon="5.69004">
        <ele>237.05</ele>
        <time>2018-09-09T08:04:51Z</time>
      </trkpt>
      <trkpt lat="45.1323" lon="5.69006">
        <ele>237.05</ele>
        <time>2018-09-09T08:04:52Z</time>
      </trkpt>
      <trkpt lat="45.13204" lon="5.69008">
        <ele>237.75</ele>
        <time>2018-09-09T08:04:53Z</time>
      </trkpt>
      <trkpt lat="45.13178" lon="5.69012">
        <ele>237.96</ele>
        <time>2018-09-09T08:04:54Z</time>
      </trkpt>
      <trkpt lat="45.13152" lon="5.69016">
        <ele>237.32</ele>
        <time>2018-09-09T08:04:55Z</time>
      </trkpt>
      <trkpt lat="45.13127" lon="5.6902">
        <ele>237.83</ele>
        <time>2018-09-09T08:04:56Z</time>
      </trkpt>
      <trkpt lat="45.13101" lon="5.69026">
        <ele>237.28</ele>
        <time>2018-09-09T08:04:57Z</time>
      </trkpt>
      <trkpt lat="45.13076" lon="5.69033">
        <ele>237.82</ele>
        <time>2018-09-09T08:04:58Z</time>
      </trkpt>
      <trkpt lat="45.13053" lon="5.6904">
        <ele>237.98</ele>
        <time>2018-09-09T08:04:59Z</time>
      </trkpt>
      <trkpt lat="45.13031" lon="5.69046">
        <ele>238.03</ele>
        <time>2018-09-09T08:05:00Z</time>
      </trkpt>
      <trkpt lat="45.1301" lon="5.69052">
        <ele>238.04</ele>
        <time>2018-09-09T08:05:01Z</time>
      </trkpt>
      <trkpt lat="45.12988" lon="5.69058">
        <ele>238.75</ele>
        <time>2018-09-09T08:05:02Z</time>
      </trkpt>
      <trkpt lat="45.12967" lon="5.69064">
        <ele>238.96</ele>
        <time>2018-09-09T08:05:03Z</time>
      </trkpt>
      <trkpt lat="45.12945" lon="5.69067">
        <ele>239.02</ele>
        <time>2018-09-09T08:05:04Z</time>
      </trkpt>
      <trkpt lat="45.12924" lon="5.69068">
        <ele>238.34</ele>
        <time>2018-09-09T08:05:05Z</time>
      </trkpt>
      <trkpt lat="45.12903" lon="5.69066">
        <ele>238.14</ele>
        <time>2018-09-09T08:05:06Z</time>
      </trkpt>
      <trkpt lat="45.12882" lon="5.69063">
        <ele>237.38</ele>
        <time>2018-09-09T08:05:07Z</time>
      </trkpt>
      <trkpt lat="45.12861" lon="5.69058">
        <ele>237.15</ele>
        <time>2018-09-09T08:05:08Z</time>
      </trkpt>
      <trkpt lat="45.12842" lon="5.69053">
        <ele>237.08</ele>
        <time>2018-09-09T08:05:09Z</time>
      </trkpt>
      <trkpt lat="45.12823" lon="5.69048">
        <ele>237.06</ele>
        <time>2018-09-09T08:05:10Z</time>
      </trkpt>
      <trkpt lat="45.12804" lon="5.69044">
        <ele>237.05</ele>
        <time>2018-09-09T08:05:11Z</time>
      </trkpt>
      <trkpt lat="45.12785" lon="5.6904">
        <ele>236.35</ele>
        <time>2018-09-09T08:05:12Z</time>
      </trkpt>
      <trkpt lat="45.12766" lon="5.69038">
        <ele>236.14</ele>
        <time>2018-09-09T08:05:13Z</time>
      </trkpt>
      <trkpt lat="45.12747" lon="5.69037">
        <ele>236.08</ele>
        <time>2018-09-09T08:05:14Z</time>
      </trkpt>
      <trkpt lat="45.12728" lon="5.69039">
        <ele>236.06</ele>
        <time>2018-09-09T08:05:15Z</time>
      </trkpt>
      <trkpt lat="45.12708" lon="5.69042">
        <ele>235.35</ele>
        <time>2018-09-09T08:05:16Z</time>
      </trkpt>
      <trkpt lat="45.12689" lon="5.69048">
        <ele>234.44</ele>
        <time>2018-09-09T08:05:17Z</time>
      </trkpt>
      <trkpt lat="45.12671" lon="5.69056">
        <ele>234.17</ele>
        <time>2018-09-09T08:05:18Z</time>
      </trkpt>
      <trkpt lat="45.12653" lon="5.6907">
        <ele>234.78</ele>
        <time>2018-09-09T08:05:19Z</time>
      </trkpt>
      <trkpt lat="45.12636" lon="5.69083">
        <ele>234.97</ele>
        <time>2018-09-09T08:05:20Z</time>
      </trkpt>
      <trkpt lat="45.12618" lon="5.69097">
        <ele>235.73</ele>
        <time>2018-09-09T08:05:21Z</time>
      </trkpt>
      <trkpt lat="45.12605" lon="5.69115">
        <ele>235.95</ele>
        <time>2018-09-09T08:05:22Z</time>
      </trkpt>
      <trkpt lat="45.12589" lon="5.69134">
        <ele>237.42</ele>
        <time>2018-09-09T08:05:23Z</time>
      </trkpt>
      <trkpt lat="45.12574" lon="5.6915">
        <ele>238.56</ele>
        <time>2018-09-09T08:05:24Z</time>
      </trkpt>
      <trkpt lat="45.12559" lon="5.69167">
        <ele>238.9</ele>
        <time>2018-09-09T08:05:25Z</time>
      </trkpt>
      <trkpt lat="45.12545" lon="5.69186">
        <ele>240.41</ele>
        <time>2018-09-09T08:05:26Z</time>
      </trkpt>
      <trkpt lat="45.1253" lon="5.69203">
        <ele>241.56</ele>
        <time>2018-09-09T08:05:27Z</time>
      </trkpt>
      <trkpt lat="45.12516" lon="5.6922">
        <ele>241.9</ele>
        <time>2018-09-09T08:05:28Z</time>
      </trkpt>
      <trkpt lat="45.12501" lon="5.69239">
        <ele>242</ele>
        <time>2018-09-09T08:05:29Z</time>
      </trkpt>
      <trkpt lat="45.12487" lon="5.69255">
        <ele>242.74</ele>
        <time>2018-09-09T08:05:30Z</time>
      </trkpt>
      <trkpt lat="45.12473" lon="5.69273">
        <ele>242.96</ele>
        <time>2018-09-09T08:05:31Z</time>
      </trkpt>
      <trkpt lat="45.12458" lon="5.69291">
        <ele>242.32</ele>
        <time>2018-09-09T08:05:32Z</time>
      </trkpt>
      <trkpt lat="45.12444" lon="5.69309">
        <ele>242.13</ele>
        <time>2018-09-09T08:05:33Z</time>
      </trkpt>
      <trkpt lat="45.12429" lon="5.69327">
        <ele>242.07</ele>
        <time>2018-09-09T08:05:34Z</time>
      </trkpt>
      <trkpt lat="45.12414" lon="5.69345">
        <ele>242.76</ele>
        <time>2018-09-09T08:05:35Z</time>
      </trkpt>
      <trkpt lat="45.12399" lon="5.69363">
        <ele>242.96</ele>
        <time>2018-09-09T08:05:36Z</time>
      </trkpt>
      <trkpt lat="45.12385" lon="5.69382">
        <ele>243.02</ele>
        <time>2018-09-09T08:05:37Z</time>
      </trkpt>
      <trkpt lat="45.1237" lon="5.694">
        <ele>243.04</ele>
        <time>2018-09-09T08:05:38Z</time>
      </trkpt>
      <trkpt lat="45.12354" lon="5.69418">
        <ele>243.05</ele>
        <time>2018-09-09T08:05:39Z</time>
      </trkpt>
      <trkpt lat="45.1234" lon="5.69436">
        <ele>242.35</ele>
        <time>2018-09-09T08:05:40Z</time>
      </trkpt>
      <trkpt lat="45.12325" lon="5.69453">
        <ele>242.14</ele>
        <time>2018-09-09T08:05:41Z</time>
      </trkpt>
      <trkpt lat="45.1231" lon="5.69472">
        <ele>242.08</ele>
        <time>2018-09-09T08:05:42Z</time>
      </trkpt>
      <trkpt lat="45.12295" lon="5.69489">
        <ele>242.06</ele>
        <time>2018-09-09T08:05:43Z</time>
      </trkpt>
      <trkpt lat="45.1228" lon="5.69508">
        <ele>241.35</ele>
        <time>2018-09-09T08:05:44Z</time>
      </trkpt>
      <trkpt lat="45.12265" lon="5.69525">
        <ele>241.14</ele>
        <time>2018-09-09T08:05:45Z</time>
      </trkpt>
      <trkpt lat="45.12249" lon="5.69543">
        <ele>240.38</ele>
        <time>2018-09-09T08:05:46Z</time>
      </trkpt>
      <trkpt lat="45.12234" lon="5.6956">
        <ele>240.15</ele>
        <time>2018-09-09T08:05:47Z</time>
      </trkpt>
      <trkpt lat="45.12219" lon="5.69578">
        <ele>240.08</ele>
        <time>2018-09-09T08:05:48Z</time>
      </trkpt>
      <trkpt lat="45.12205" lon="5.69595">
        <ele>240.06</ele>
        <time>2018-09-09T08:05:49Z</time>
      </trkpt>
      <trkpt lat="45.12191" lon="5.69612">
        <ele>240.05</ele>
        <time>2018-09-09T08:05:50Z</time>
      </trkpt>
      <trkpt lat="45.12177" lon="5.6963">
        <ele>240.75</ele>
        <time>2018-09-09T08:05:51Z</time>
      </trkpt>
      <trkpt lat="45.12162" lon="5.69648">
        <ele>240.96</ele>
        <time>2018-09-09T08:05:52Z</time>
      </trkpt>
      <trkpt lat="45.12146" lon="5.69663">
        <ele>241.02</ele>
        <time>2018-09-09T08:05:53Z</time>
      </trkpt>
      <trkpt lat="45.12131" lon="5.69677">
        <ele>241.04</ele>
        <time>2018-09-09T08:05:54Z</time>
      </trkpt>
      <trkpt lat="45.12115" lon="5.69691">
        <ele>241.05</ele>
        <time>2018-09-09T08:05:55Z</time>
      </trkpt>
      <trkpt lat="45.12098" lon="5.69705">
        <ele>241.05</ele>
        <time>2018-09-09T08:05:56Z</time>
      </trkpt>
      <trkpt lat="45.12082" lon="5.69719">
        <ele>241.05</ele>
        <time>2018-09-09T08:05:57Z</time>
      </trkpt>
      <trkpt lat="45.12066" lon="5.69733">
        <ele>241.05</ele>
        <time>2018-09-09T08:05:58Z</time>
      </trkpt>
      <trkpt lat="45.1205" lon="5.69746">
        <ele>241.05</ele>
        <time>2018-09-09T08:05:59Z</time>
      </trkpt>
      <trkpt lat="45.12034" lon="5.69758">
        <ele>241.05</ele>
        <time>2018-09-09T08:06:00Z</time>
      </trkpt>
      <trkpt lat="45.11994" lon="5.69756">
        <ele>242.45</ele>
        <time>2018-09-09T08:06:02Z</time>
      </trkpt>
      <trkpt lat="45.11976" lon="5.69764">
        <ele>243.57</ele>
        <time>2018-09-09T08:06:03Z</time>
      </trkpt>
      <trkpt lat="45.11956" lon="5.69768">
        <ele>243.9</ele>
        <time>2018-09-09T08:06:04Z</time>
      </trkpt>
      <trkpt lat="45.11938" lon="5.69775">
        <ele>244.01</ele>
        <time>2018-09-09T08:06:05Z</time>
      </trkpt>
      <trkpt lat="45.11919" lon="5.69781">
        <ele>244.74</ele>
        <time>2018-09-09T08:06:06Z</time>
      </trkpt>
      <trkpt lat="45.119" lon="5.69789">
        <ele>244.96</ele>
        <time>2018-09-09T08:06:07Z</time>
      </trkpt>
      <trkpt lat="45.11878" lon="5.69794">
        <ele>246.42</ele>
        <time>2018-09-09T08:06:08Z</time>
      </trkpt>
      <trkpt lat="45.11859" lon="5.69797">
        <ele>246.16</ele>
        <time>2018-09-09T08:06:09Z</time>
      </trkpt>
      <trkpt lat="45.11838" lon="5.69803">
        <ele>246.08</ele>
        <time>2018-09-09T08:06:10Z</time>
      </trkpt>
      <trkpt lat="45.11818" lon="5.6981">
        <ele>246.06</ele>
        <time>2018-09-09T08:06:11Z</time>
      </trkpt>
      <trkpt lat="45.11797" lon="5.69816">
        <ele>245.35</ele>
        <time>2018-09-09T08:06:12Z</time>
      </trkpt>
      <trkpt lat="45.11778" lon="5.69822">
        <ele>245.84</ele>
        <time>2018-09-09T08:06:13Z</time>
      </trkpt>
      <trkpt lat="45.11758" lon="5.69827">
        <ele>245.99</ele>
        <time>2018-09-09T08:06:14Z</time>
      </trkpt>
      <trkpt lat="45.11739" lon="5.69834">
        <ele>245.33</ele>
        <time>2018-09-09T08:06:15Z</time>
      </trkpt>
      <trkpt lat="45.1172" lon="5.6984">
        <ele>244.43</ele>
        <time>2018-09-09T08:06:16Z</time>
      </trkpt>
      <trkpt lat="45.11702" lon="5.69847">
        <ele>242.76</ele>
        <time>2018-09-09T08:06:17Z</time>
      </trkpt>
      <trkpt lat="45.11682" lon="5.69853">
        <ele>242.26</ele>
        <time>2018-09-09T08:06:18Z</time>
      </trkpt>
      <trkpt lat="45.11662" lon="5.69859">
        <ele>242.11</ele>
        <time>2018-09-09T08:06:19Z</time>
      </trkpt>
      <trkpt lat="45.11643" lon="5.69864">
        <ele>242.07</ele>
        <time>2018-09-09T08:06:20Z</time>
      </trkpt>
      <trkpt lat="45.11624" lon="5.69871">
        <ele>242.05</ele>
        <time>2018-09-09T08:06:21Z</time>
      </trkpt>
      <trkpt lat="45.11605" lon="5.69876">
        <ele>241.35</ele>
        <time>2018-09-09T08:06:22Z</time>
      </trkpt>
      <trkpt lat="45.11586" lon="5.69881">
        <ele>241.14</ele>
        <time>2018-09-09T08:06:23Z</time>
      </trkpt>
      <trkpt lat="45.11566" lon="5.69885">
        <ele>241.08</ele>
        <time>2018-09-09T08:06:24Z</time>
      </trkpt>
      <trkpt lat="45.11547" lon="5.6989">
        <ele>241.06</ele>
        <time>2018-09-09T08:06:25Z</time>
      </trkpt>
      <trkpt lat="45.11527" lon="5.69893">
        <ele>241.05</ele>
        <time>2018-09-09T08:06:26Z</time>
      </trkpt>
      <trkpt lat="45.11507" lon="5.69896">
        <ele>241.05</ele>
        <time>2018-09-09T08:06:27Z</time>
      </trkpt>
      <trkpt lat="45.11487" lon="5.69899">
        <ele>241.05</ele>
        <time>2018-09-09T08:06:28Z</time>
      </trkpt>
      <trkpt lat="45.11467" lon="5.69901">
        <ele>241.05</ele>
        <time>2018-09-09T08:06:29Z</time>
      </trkpt>
      <trkpt lat="45.11447" lon="5.69903">
        <ele>240.35</ele>
        <time>2018-09-09T08:06:30Z</time>
      </trkpt>
      <trkpt lat="45.11426" lon="5.69904">
        <ele>240.14</ele>
        <time>2018-09-09T08:06:31Z</time>
      </trkpt>
      <trkpt lat="45.11406" lon="5.69905">
        <ele>240.78</ele>
        <time>2018-09-09T08:06:32Z</time>
      </trkpt>
      <trkpt lat="45.11386" lon="5.69906">
        <ele>240.97</ele>
        <time>2018-09-09T08:06:33Z</time>
      </trkpt>
      <trkpt lat="45.11367" lon="5.69907">
        <ele>240.32</ele>
        <time>2018-09-09T08:06:34Z</time>
      </trkpt>
      <trkpt lat="45.11347" lon="5.69908">
        <ele>240.83</ele>
        <time>2018-09-09T08:06:35Z</time>
      </trkpt>
      <trkpt lat="45.11327" lon="5.6991">
        <ele>240.28</ele>
        <time>2018-09-09T08:06:36Z</time>
      </trkpt>
      <trkpt lat="45.11307" lon="5.6991">
        <ele>240.12</ele>
        <time>2018-09-09T08:06:37Z</time>
      </trkpt>
      <trkpt lat="45.11287" lon="5.69911">
        <ele>240.07</ele>
        <time>2018-09-09T08:06:38Z</time>
      </trkpt>
      <trkpt lat="45.11267" lon="5.69911">
        <ele>240.76</ele>
        <time>2018-09-09T08:06:39Z</time>
      </trkpt>
      <trkpt lat="45.11247" lon="5.69912">
        <ele>240.26</ele>
        <time>2018-09-09T08:06:40Z</time>
      </trkpt>
      <trkpt lat="45.11227" lon="5.69914">
        <ele>240.11</ele>
        <time>2018-09-09T08:06:41Z</time>
      </trkpt>
      <trkpt lat="45.11207" lon="5.69915">
        <ele>240.07</ele>
        <time>2018-09-09T08:06:42Z</time>
      </trkpt>
      <trkpt lat="45.11187" lon="5.69915">
        <ele>240.05</ele>
        <time>2018-09-09T08:06:43Z</time>
      </trkpt>
      <trkpt lat="45.11167" lon="5.69917">
        <ele>240.05</ele>
        <time>2018-09-09T08:06:44Z</time>
      </trkpt>
      <trkpt lat="45.11147" lon="5.69917">
        <ele>240.75</ele>
        <time>2018-09-09T08:06:45Z</time>
      </trkpt>
      <trkpt lat="45.11127" lon="5.69918">
        <ele>240.96</ele>
        <time>2018-09-09T08:06:46Z</time>
      </trkpt>
      <trkpt lat="45.11107" lon="5.69919">
        <ele>241.02</ele>
        <time>2018-09-09T08:06:47Z</time>
      </trkpt>
      <trkpt lat="45.11086" lon="5.69919">
        <ele>241.04</ele>
        <time>2018-09-09T08:06:48Z</time>
      </trkpt>
      <trkpt lat="45.11066" lon="5.6992">
        <ele>241.75</ele>
        <time>2018-09-09T08:06:49Z</time>
      </trkpt>
      <trkpt lat="45.11046" lon="5.69921">
        <ele>242.66</ele>
        <time>2018-09-09T08:06:50Z</time>
      </trkpt>
      <trkpt lat="45.11027" lon="5.69924">
        <ele>242.93</ele>
        <time>2018-09-09T08:06:51Z</time>
      </trkpt>
      <trkpt lat="45.11007" lon="5.69927">
        <ele>243.01</ele>
        <time>2018-09-09T08:06:52Z</time>
      </trkpt>
      <trkpt lat="45.10988" lon="5.69932">
        <ele>243.74</ele>
        <time>2018-09-09T08:06:53Z</time>
      </trkpt>
      <trkpt lat="45.10968" lon="5.69937">
        <ele>244.66</ele>
        <time>2018-09-09T08:06:54Z</time>
      </trkpt>
      <trkpt lat="45.10949" lon="5.69946">
        <ele>244.93</ele>
        <time>2018-09-09T08:06:55Z</time>
      </trkpt>
      <trkpt lat="45.1093" lon="5.69954">
        <ele>245.01</ele>
        <time>2018-09-09T08:06:56Z</time>
      </trkpt>
      <trkpt lat="45.10911" lon="5.69965">
        <ele>245.04</ele>
        <time>2018-09-09T08:06:57Z</time>
      </trkpt>
      <trkpt lat="45.10893" lon="5.69976">
        <ele>245.05</ele>
        <time>2018-09-09T08:06:58Z</time>
      </trkpt>
      <trkpt lat="45.10875" lon="5.69988">
        <ele>245.05</ele>
        <time>2018-09-09T08:06:59Z</time>
      </trkpt>
      <trkpt lat="45.10857" lon="5.70003">
        <ele>246.45</ele>
        <time>2018-09-09T08:07:00Z</time>
      </trkpt>
      <trkpt lat="45.10839" lon="5.70018">
        <ele>246.87</ele>
        <time>2018-09-09T08:07:01Z</time>
      </trkpt>
      <trkpt lat="45.10823" lon="5.70035">
        <ele>246.99</ele>
        <time>2018-09-09T08:07:02Z</time>
      </trkpt>
      <trkpt lat="45.10808" lon="5.70053">
        <ele>247.03</ele>
        <time>2018-09-09T08:07:03Z</time>
      </trkpt>
      <trkpt lat="45.10792" lon="5.70072">
        <ele>247.74</ele>
        <time>2018-09-09T08:07:04Z</time>
      </trkpt>
      <trkpt lat="45.10778" lon="5.70091">
        <ele>247.96</ele>
        <time>2018-09-09T08:07:05Z</time>
      </trkpt>
      <trkpt lat="45.10765" lon="5.7011">
        <ele>248.02</ele>
        <time>2018-09-09T08:07:06Z</time>
      </trkpt>
      <trkpt lat="45.1075" lon="5.70131">
        <ele>248.74</ele>
        <time>2018-09-09T08:07:07Z</time>
      </trkpt>
      <trkpt lat="45.10736" lon="5.70151">
        <ele>248.96</ele>
        <time>2018-09-09T08:07:08Z</time>
      </trkpt>
      <trkpt lat="45.10722" lon="5.7017">
        <ele>249.72</ele>
        <time>2018-09-09T08:07:09Z</time>
      </trkpt>
      <trkpt lat="45.10708" lon="5.7019">
        <ele>249.95</ele>
        <time>2018-09-09T08:07:10Z</time>
      </trkpt>
      <trkpt lat="45.10694" lon="5.70209">
        <ele>250.02</ele>
        <time>2018-09-09T08:07:11Z</time>
      </trkpt>
      <trkpt lat="45.1068" lon="5.70228">
        <ele>250.04</ele>
        <time>2018-09-09T08:07:12Z</time>
      </trkpt>
      <trkpt lat="45.10666" lon="5.70247">
        <ele>249.35</ele>
        <time>2018-09-09T08:07:13Z</time>
      </trkpt>
      <trkpt lat="45.10653" lon="5.70267">
        <ele>249.84</ele>
        <time>2018-09-09T08:07:14Z</time>
      </trkpt>
      <trkpt lat="45.10638" lon="5.70287">
        <ele>249.29</ele>
        <time>2018-09-09T08:07:15Z</time>
      </trkpt>
      <trkpt lat="45.10625" lon="5.70307">
        <ele>249.12</ele>
        <time>2018-09-09T08:07:16Z</time>
      </trkpt>
      <trkpt lat="45.10611" lon="5.70327">
        <ele>249.07</ele>
        <time>2018-09-09T08:07:17Z</time>
      </trkpt>
      <trkpt lat="45.10598" lon="5.70346">
        <ele>249.06</ele>
        <time>2018-09-09T08:07:18Z</time>
      </trkpt>
      <trkpt lat="45.10584" lon="5.70365">
        <ele>249.05</ele>
        <time>2018-09-09T08:07:19Z</time>
      </trkpt>
      <trkpt lat="45.10571" lon="5.70384">
        <ele>249.05</ele>
        <time>2018-09-09T08:07:20Z</time>
      </trkpt>
      <trkpt lat="45.10557" lon="5.70404">
        <ele>249.05</ele>
        <time>2018-09-09T08:07:21Z</time>
      </trkpt>
      <trkpt lat="45.10543" lon="5.70424">
        <ele>249.05</ele>
        <time>2018-09-09T08:07:22Z</time>
      </trkpt>
      <trkpt lat="45.1053" lon="5.70443">
        <ele>249.05</ele>
        <time>2018-09-09T08:07:23Z</time>
      </trkpt>
      <trkpt lat="45.10516" lon="5.70463">
        <ele>249.05</ele>
        <time>2018-09-09T08:07:24Z</time>
      </trkpt>
      <trkpt lat="45.10502" lon="5.70482">
        <ele>249.75</ele>
        <time>2018-09-09T08:07:25Z</time>
      </trkpt>
      <trkpt lat="45.10489" lon="5.70502">
        <ele>250.66</ele>
        <time>2018-09-09T08:07:26Z</time>
      </trkpt>
      <trkpt lat="45.10476" lon="5.70522">
        <ele>250.93</ele>
        <time>2018-09-09T08:07:27Z</time>
      </trkpt>
      <trkpt lat="45.10463" lon="5.70541">
        <ele>251.71</ele>
        <time>2018-09-09T08:07:28Z</time>
      </trkpt>
      <trkpt lat="45.10449" lon="5.70559">
        <ele>251.95</ele>
        <time>2018-09-09T08:07:29Z</time>
      </trkpt>
      <trkpt lat="45.10436" lon="5.70579">
        <ele>252.72</ele>
        <time>2018-09-09T08:07:30Z</time>
      </trkpt>
      <trkpt lat="45.10423" lon="5.70599">
        <ele>253.65</ele>
        <time>2018-09-09T08:07:31Z</time>
      </trkpt>
      <trkpt lat="45.1041" lon="5.7062">
        <ele>253.93</ele>
        <time>2018-09-09T08:07:32Z</time>
      </trkpt>
      <trkpt lat="45.10398" lon="5.70641">
        <ele>254.01</ele>
        <time>2018-09-09T08:07:33Z</time>
      </trkpt>
      <trkpt lat="45.10386" lon="5.70663">
        <ele>254.04</ele>
        <time>2018-09-09T08:07:34Z</time>
      </trkpt>
      <trkpt lat="45.10376" lon="5.70688">
        <ele>254.05</ele>
        <time>2018-09-09T08:07:35Z</time>
      </trkpt>
      <trkpt lat="45.10366" lon="5.70713">
        <ele>254.05</ele>
        <time>2018-09-09T08:07:36Z</time>
      </trkpt>
      <trkpt lat="45.10356" lon="5.70739">
        <ele>254.75</ele>
        <time>2018-09-09T08:07:37Z</time>
      </trkpt>
      <trkpt lat="45.10348" lon="5.70765">
        <ele>255.66</ele>
        <time>2018-09-09T08:07:38Z</time>
      </trkpt>
      <trkpt lat="45.10341" lon="5.70792">
        <ele>255.93</ele>
        <time>2018-09-09T08:07:39Z</time>
      </trkpt>
      <trkpt lat="45.10335" lon="5.70819">
        <ele>256.01</ele>
        <time>2018-09-09T08:07:40Z</time>
      </trkpt>
      <trkpt lat="45.10328" lon="5.70847">
        <ele>256.04</ele>
        <time>2018-09-09T08:07:41Z</time>
      </trkpt>
      <trkpt lat="45.10323" lon="5.70876">
        <ele>256.05</ele>
        <time>2018-09-09T08:07:42Z</time>
      </trkpt>
      <trkpt lat="45.10319" lon="5.70905">
        <ele>256.05</ele>
        <time>2018-09-09T08:07:43Z</time>
      </trkpt>
      <trkpt lat="45.10317" lon="5.70934">
        <ele>256.05</ele>
        <time>2018-09-09T08:07:44Z</time>
      </trkpt>
      <trkpt lat="45.10315" lon="5.70963">
        <ele>256.05</ele>
        <time>2018-09-09T08:07:45Z</time>
      </trkpt>
      <trkpt lat="45.10314" lon="5.70993">
        <ele>256.05</ele>
        <time>2018-09-09T08:07:46Z</time>
      </trkpt>
      <trkpt lat="45.10313" lon="5.71021">
        <ele>255.35</ele>
        <time>2018-09-09T08:07:47Z</time>
      </trkpt>
      <trkpt lat="45.10312" lon="5.71049">
        <ele>255.14</ele>
        <time>2018-09-09T08:07:48Z</time>
      </trkpt>
      <trkpt lat="45.1031" lon="5.71078">
        <ele>255.08</ele>
        <time>2018-09-09T08:07:49Z</time>
      </trkpt>
      <trkpt lat="45.10307" lon="5.71107">
        <ele>255.06</ele>
        <time>2018-09-09T08:07:50Z</time>
      </trkpt>
      <trkpt lat="45.10302" lon="5.71134">
        <ele>255.05</ele>
        <time>2018-09-09T08:07:51Z</time>
      </trkpt>
      <trkpt lat="45.10295" lon="5.7116">
        <ele>255.05</ele>
        <time>2018-09-09T08:07:52Z</time>
      </trkpt>
      <trkpt lat="45.10288" lon="5.71185">
        <ele>254.35</ele>
        <time>2018-09-09T08:07:53Z</time>
      </trkpt>
      <trkpt lat="45.10282" lon="5.71209">
        <ele>254.14</ele>
        <time>2018-09-09T08:07:54Z</time>
      </trkpt>
      <trkpt lat="45.10275" lon="5.71255">
        <ele>254.06</ele>
        <time>2018-09-09T08:07:56Z</time>
      </trkpt>
      <trkpt lat="45.10271" lon="5.71296">
        <ele>253.35</ele>
        <time>2018-09-09T08:07:58Z</time>
      </trkpt>
      <trkpt lat="45.10255" lon="5.71327">
        <ele>253.08</ele>
        <time>2018-09-09T08:08:00Z</time>
      </trkpt>
      <trkpt lat="45.10242" lon="5.71356">
        <ele>253.05</ele>
        <time>2018-09-09T08:08:02Z</time>
      </trkpt>
      <trkpt lat="45.10238" lon="5.71392">
        <ele>252.14</ele>
        <time>2018-09-09T08:08:04Z</time>
      </trkpt>
      <trkpt lat="45.10239" lon="5.71418">
        <ele>252.08</ele>
        <time>2018-09-09T08:08:05Z</time>
      </trkpt>
      <trkpt lat="45.10227" lon="5.71463">
        <ele>252.75</ele>
        <time>2018-09-09T08:08:07Z</time>
      </trkpt>
      <trkpt lat="45.10216" lon="5.71484">
        <ele>252.96</ele>
        <time>2018-09-09T08:08:08Z</time>
      </trkpt>
      <trkpt lat="45.10202" lon="5.71504">
        <ele>253.72</ele>
        <time>2018-09-09T08:08:09Z</time>
      </trkpt>
      <trkpt lat="45.10185" lon="5.71523">
        <ele>253.95</ele>
        <time>2018-09-09T08:08:10Z</time>
      </trkpt>
      <trkpt lat="45.10167" lon="5.71538">
        <ele>254.02</ele>
        <time>2018-09-09T08:08:11Z</time>
      </trkpt>
      <trkpt lat="45.10149" lon="5.71552">
        <ele>254.04</ele>
        <time>2018-09-09T08:08:12Z</time>
      </trkpt>
      <trkpt lat="45.10132" lon="5.71566">
        <ele>254.05</ele>
        <time>2018-09-09T08:08:13Z</time>
      </trkpt>
      <trkpt lat="45.10117" lon="5.7158">
        <ele>254.05</ele>
        <time>2018-09-09T08:08:14Z</time>
      </trkpt>
      <trkpt lat="45.10103" lon="5.71595">
        <ele>254.75</ele>
        <time>2018-09-09T08:08:15Z</time>
      </trkpt>
      <trkpt lat="45.10074" lon="5.71628">
        <ele>255.02</ele>
        <time>2018-09-09T08:08:17Z</time>
      </trkpt>
      <trkpt lat="45.10059" lon="5.71646">
        <ele>255.04</ele>
        <time>2018-09-09T08:08:18Z</time>
      </trkpt>
      <trkpt lat="45.10042" lon="5.71664">
        <ele>255.05</ele>
        <time>2018-09-09T08:08:19Z</time>
      </trkpt>
      <trkpt lat="45.10024" lon="5.71683">
        <ele>255.05</ele>
        <time>2018-09-09T08:08:20Z</time>
      </trkpt>
      <trkpt lat="45.10006" lon="5.71701">
        <ele>255.75</ele>
        <time>2018-09-09T08:08:21Z</time>
      </trkpt>
      <trkpt lat="45.09985" lon="5.71719">
        <ele>255.96</ele>
        <time>2018-09-09T08:08:22Z</time>
      </trkpt>
      <trkpt lat="45.09962" lon="5.71738">
        <ele>256.02</ele>
        <time>2018-09-09T08:08:23Z</time>
      </trkpt>
      <trkpt lat="45.09939" lon="5.71753">
        <ele>255.34</ele>
        <time>2018-09-09T08:08:24Z</time>
      </trkpt>
      <trkpt lat="45.09918" lon="5.71769">
        <ele>255.84</ele>
        <time>2018-09-09T08:08:25Z</time>
      </trkpt>
      <trkpt lat="45.09897" lon="5.71786">
        <ele>255.99</ele>
        <time>2018-09-09T08:08:26Z</time>
      </trkpt>
      <trkpt lat="45.09877" lon="5.71803">
        <ele>256.03</ele>
        <time>2018-09-09T08:08:27Z</time>
      </trkpt>
      <trkpt lat="45.09859" lon="5.71818">
        <ele>256.04</ele>
        <time>2018-09-09T08:08:28Z</time>
      </trkpt>
      <trkpt lat="45.0984" lon="5.71833">
        <ele>256.05</ele>
        <time>2018-09-09T08:08:29Z</time>
      </trkpt>
      <trkpt lat="45.09822" lon="5.71848">
        <ele>256.05</ele>
        <time>2018-09-09T08:08:30Z</time>
      </trkpt>
      <trkpt lat="45.09804" lon="5.71862">
        <ele>256.05</ele>
        <time>2018-09-09T08:08:31Z</time>
      </trkpt>
      <trkpt lat="45.09786" lon="5.71877">
        <ele>256.05</ele>
        <time>2018-09-09T08:08:32Z</time>
      </trkpt>
      <trkpt lat="45.09769" lon="5.71891">
        <ele>256.05</ele>
        <time>2018-09-09T08:08:33Z</time>
      </trkpt>
      <trkpt lat="45.09751" lon="5.71903">
        <ele>256.05</ele>
        <time>2018-09-09T08:08:34Z</time>
      </trkpt>
      <trkpt lat="45.09734" lon="5.71917">
        <ele>256.05</ele>
        <time>2018-09-09T08:08:35Z</time>
      </trkpt>
      <trkpt lat="45.09717" lon="5.71931">
        <ele>256.05</ele>
        <time>2018-09-09T08:08:36Z</time>
      </trkpt>
      <trkpt lat="45.097" lon="5.71945">
        <ele>256.05</ele>
        <time>2018-09-09T08:08:37Z</time>
      </trkpt>
      <trkpt lat="45.09682" lon="5.71958">
        <ele>256.05</ele>
        <time>2018-09-09T08:08:38Z</time>
      </trkpt>
      <trkpt lat="45.09665" lon="5.71973">
        <ele>256.05</ele>
        <time>2018-09-09T08:08:39Z</time>
      </trkpt>
      <trkpt lat="45.09648" lon="5.71985">
        <ele>256.05</ele>
        <time>2018-09-09T08:08:40Z</time>
      </trkpt>
      <trkpt lat="45.0963" lon="5.71999">
        <ele>256.05</ele>
        <time>2018-09-09T08:08:41Z</time>
      </trkpt>
      <trkpt lat="45.09613" lon="5.72012">
        <ele>256.05</ele>
        <time>2018-09-09T08:08:42Z</time>
      </trkpt>
      <trkpt lat="45.09595" lon="5.72026">
        <ele>256.75</ele>
        <time>2018-09-09T08:08:43Z</time>
      </trkpt>
      <trkpt lat="45.09578" lon="5.7204">
        <ele>256.96</ele>
        <time>2018-09-09T08:08:44Z</time>
      </trkpt>
      <trkpt lat="45.09561" lon="5.72054">
        <ele>257.02</ele>
        <time>2018-09-09T08:08:45Z</time>
      </trkpt>
      <trkpt lat="45.09543" lon="5.72069">
        <ele>257.04</ele>
        <time>2018-09-09T08:08:46Z</time>
      </trkpt>
      <trkpt lat="45.09527" lon="5.72083">
        <ele>257.05</ele>
        <time>2018-09-09T08:08:47Z</time>
      </trkpt>
      <trkpt lat="45.0951" lon="5.72098">
        <ele>257.05</ele>
        <time>2018-09-09T08:08:48Z</time>
      </trkpt>
      <trkpt lat="45.09492" lon="5.72112">
        <ele>257.75</ele>
        <time>2018-09-09T08:08:49Z</time>
      </trkpt>
      <trkpt lat="45.09475" lon="5.72127">
        <ele>257.96</ele>
        <time>2018-09-09T08:08:50Z</time>
      </trkpt>
      <trkpt lat="45.09458" lon="5.72142">
        <ele>258.02</ele>
        <time>2018-09-09T08:08:51Z</time>
      </trkpt>
      <trkpt lat="45.09441" lon="5.72156">
        <ele>258.04</ele>
        <time>2018-09-09T08:08:52Z</time>
      </trkpt>
      <trkpt lat="45.09424" lon="5.7217">
        <ele>258.05</ele>
        <time>2018-09-09T08:08:53Z</time>
      </trkpt>
      <trkpt lat="45.09407" lon="5.72183">
        <ele>258.75</ele>
        <time>2018-09-09T08:08:54Z</time>
      </trkpt>
      <trkpt lat="45.0939" lon="5.72197">
        <ele>258.96</ele>
        <time>2018-09-09T08:08:55Z</time>
      </trkpt>
      <trkpt lat="45.09373" lon="5.72211">
        <ele>259.02</ele>
        <time>2018-09-09T08:08:56Z</time>
      </trkpt>
      <trkpt lat="45.09356" lon="5.72225">
        <ele>259.74</ele>
        <time>2018-09-09T08:08:57Z</time>
      </trkpt>
      <trkpt lat="45.09339" lon="5.72239">
        <ele>259.96</ele>
        <time>2018-09-09T08:08:58Z</time>
      </trkpt>
      <trkpt lat="45.09322" lon="5.72252">
        <ele>260.02</ele>
        <time>2018-09-09T08:08:59Z</time>
      </trkpt>
      <trkpt lat="45.09305" lon="5.72267">
        <ele>260.04</ele>
        <time>2018-09-09T08:09:00Z</time>
      </trkpt>
      <trkpt lat="45.09289" lon="5.72281">
        <ele>260.05</ele>
        <time>2018-09-09T08:09:01Z</time>
      </trkpt>
      <trkpt lat="45.09273" lon="5.72296">
        <ele>260.75</ele>
        <time>2018-09-09T08:09:02Z</time>
      </trkpt>
      <trkpt lat="45.09256" lon="5.72311">
        <ele>260.96</ele>
        <time>2018-09-09T08:09:03Z</time>
      </trkpt>
      <trkpt lat="45.0924" lon="5.72326">
        <ele>261.02</ele>
        <time>2018-09-09T08:09:04Z</time>
      </trkpt>
      <trkpt lat="45.09223" lon="5.72341">
        <ele>261.04</ele>
        <time>2018-09-09T08:09:05Z</time>
      </trkpt>
      <trkpt lat="45.09206" lon="5.72356">
        <ele>260.35</ele>
        <time>2018-09-09T08:09:06Z</time>
      </trkpt>
      <trkpt lat="45.09189" lon="5.72371">
        <ele>260.14</ele>
        <time>2018-09-09T08:09:07Z</time>
      </trkpt>
      <trkpt lat="45.09173" lon="5.72386">
        <ele>260.08</ele>
        <time>2018-09-09T08:09:08Z</time>
      </trkpt>
      <trkpt lat="45.09157" lon="5.72403">
        <ele>260.06</ele>
        <time>2018-09-09T08:09:09Z</time>
      </trkpt>
      <trkpt lat="45.09142" lon="5.72422">
        <ele>260.75</ele>
        <time>2018-09-09T08:09:10Z</time>
      </trkpt>
      <trkpt lat="45.09127" lon="5.72441">
        <ele>260.96</ele>
        <time>2018-09-09T08:09:11Z</time>
      </trkpt>
      <trkpt lat="45.09114" lon="5.7246">
        <ele>260.32</ele>
        <time>2018-09-09T08:09:12Z</time>
      </trkpt>
      <trkpt lat="45.09102" lon="5.72483">
        <ele>260.83</ele>
        <time>2018-09-09T08:09:13Z</time>
      </trkpt>
      <trkpt lat="45.09091" lon="5.72506">
        <ele>260.98</ele>
        <time>2018-09-09T08:09:14Z</time>
      </trkpt>
      <trkpt lat="45.09079" lon="5.72528">
        <ele>261.73</ele>
        <time>2018-09-09T08:09:15Z</time>
      </trkpt>
      <trkpt lat="45.09068" lon="5.72551">
        <ele>261.25</ele>
        <time>2018-09-09T08:09:16Z</time>
      </trkpt>
      <trkpt lat="45.09056" lon="5.72575">
        <ele>261.11</ele>
        <time>2018-09-09T08:09:17Z</time>
      </trkpt>
      <trkpt lat="45.09045" lon="5.72599">
        <ele>261.77</ele>
        <time>2018-09-09T08:09:18Z</time>
      </trkpt>
      <trkpt lat="45.09033" lon="5.72623">
        <ele>261.96</ele>
        <time>2018-09-09T08:09:19Z</time>
      </trkpt>
      <trkpt lat="45.09021" lon="5.72647">
        <ele>262.02</ele>
        <time>2018-09-09T08:09:20Z</time>
      </trkpt>
      <trkpt lat="45.09011" lon="5.72672">
        <ele>262.04</ele>
        <time>2018-09-09T08:09:21Z</time>
      </trkpt>
      <trkpt lat="45.09001" lon="5.72697">
        <ele>262.75</ele>
        <time>2018-09-09T08:09:22Z</time>
      </trkpt>
      <trkpt lat="45.08991" lon="5.72722">
        <ele>262.96</ele>
        <time>2018-09-09T08:09:23Z</time>
      </trkpt>
      <trkpt lat="45.08981" lon="5.72746">
        <ele>263.72</ele>
        <time>2018-09-09T08:09:24Z</time>
      </trkpt>
      <trkpt lat="45.08971" lon="5.7277">
        <ele>263.95</ele>
        <time>2018-09-09T08:09:25Z</time>
      </trkpt>
      <trkpt lat="45.08961" lon="5.72794">
        <ele>264.72</ele>
        <time>2018-09-09T08:09:26Z</time>
      </trkpt>
      <trkpt lat="45.08951" lon="5.72818">
        <ele>265.65</ele>
        <time>2018-09-09T08:09:27Z</time>
      </trkpt>
      <trkpt lat="45.08941" lon="5.72841">
        <ele>266.63</ele>
        <time>2018-09-09T08:09:28Z</time>
      </trkpt>
      <trkpt lat="45.08931" lon="5.72865">
        <ele>267.62</ele>
        <time>2018-09-09T08:09:29Z</time>
      </trkpt>
      <trkpt lat="45.08921" lon="5.72889">
        <ele>268.62</ele>
        <time>2018-09-09T08:09:30Z</time>
      </trkpt>
      <trkpt lat="45.0891" lon="5.72913">
        <ele>269.62</ele>
        <time>2018-09-09T08:09:31Z</time>
      </trkpt>
      <trkpt lat="45.089" lon="5.72936">
        <ele>269.92</ele>
        <time>2018-09-09T08:09:32Z</time>
      </trkpt>
      <trkpt lat="45.0889" lon="5.7296">
        <ele>270.71</ele>
        <time>2018-09-09T08:09:33Z</time>
      </trkpt>
      <trkpt lat="45.0888" lon="5.72985">
        <ele>271.65</ele>
        <time>2018-09-09T08:09:34Z</time>
      </trkpt>
      <trkpt lat="45.08871" lon="5.7301">
        <ele>271.93</ele>
        <time>2018-09-09T08:09:35Z</time>
      </trkpt>
      <trkpt lat="45.08862" lon="5.73035">
        <ele>272.01</ele>
        <time>2018-09-09T08:09:36Z</time>
      </trkpt>
      <trkpt lat="45.08853" lon="5.7306">
        <ele>272.04</ele>
        <time>2018-09-09T08:09:37Z</time>
      </trkpt>
      <trkpt lat="45.08844" lon="5.73085">
        <ele>272.75</ele>
        <time>2018-09-09T08:09:38Z</time>
      </trkpt>
      <trkpt lat="45.08835" lon="5.7311">
        <ele>272.96</ele>
        <time>2018-09-09T08:09:39Z</time>
      </trkpt>
      <trkpt lat="45.08825" lon="5.73135">
        <ele>273.02</ele>
        <time>2018-09-09T08:09:40Z</time>
      </trkpt>
      <trkpt lat="45.08815" lon="5.73159">
        <ele>273.04</ele>
        <time>2018-09-09T08:09:41Z</time>
      </trkpt>
      <trkpt lat="45.08804" lon="5.73183">
        <ele>273.05</ele>
        <time>2018-09-09T08:09:42Z</time>
      </trkpt>
      <trkpt lat="45.08793" lon="5.73207">
        <ele>273.05</ele>
        <time>2018-09-09T08:09:43Z</time>
      </trkpt>
      <trkpt lat="45.08782" lon="5.73232">
        <ele>273.05</ele>
        <time>2018-09-09T08:09:44Z</time>
      </trkpt>
      <trkpt lat="45.08771" lon="5.73256">
        <ele>273.05</ele>
        <time>2018-09-09T08:09:45Z</time>
      </trkpt>
      <trkpt lat="45.0876" lon="5.7328">
        <ele>273.05</ele>
        <time>2018-09-09T08:09:46Z</time>
      </trkpt>
      <trkpt lat="45.0875" lon="5.73304">
        <ele>273.05</ele>
        <time>2018-09-09T08:09:47Z</time>
      </trkpt>
      <trkpt lat="45.08741" lon="5.73328">
        <ele>272.35</ele>
        <time>2018-09-09T08:09:48Z</time>
      </trkpt>
      <trkpt lat="45.08732" lon="5.73352">
        <ele>272.14</ele>
        <time>2018-09-09T08:09:49Z</time>
      </trkpt>
      <trkpt lat="45.08722" lon="5.73376">
        <ele>272.08</ele>
        <time>2018-09-09T08:09:50Z</time>
      </trkpt>
      <trkpt lat="45.08713" lon="5.734">
        <ele>271.36</ele>
        <time>2018-09-09T08:09:51Z</time>
      </trkpt>
      <trkpt lat="45.08703" lon="5.73425">
        <ele>271.14</ele>
        <time>2018-09-09T08:09:52Z</time>
      </trkpt>
      <trkpt lat="45.08694" lon="5.73449">
        <ele>271.08</ele>
        <time>2018-09-09T08:09:53Z</time>
      </trkpt>
      <trkpt lat="45.08684" lon="5.73474">
        <ele>271.06</ele>
        <time>2018-09-09T08:09:54Z</time>
      </trkpt>
      <trkpt lat="45.08673" lon="5.73497">
        <ele>271.05</ele>
        <time>2018-09-09T08:09:55Z</time>
      </trkpt>
      <trkpt lat="45.08664" lon="5.73522">
        <ele>271.05</ele>
        <time>2018-09-09T08:09:56Z</time>
      </trkpt>
      <trkpt lat="45.08654" lon="5.73546">
        <ele>271.05</ele>
        <time>2018-09-09T08:09:57Z</time>
      </trkpt>
      <trkpt lat="45.08645" lon="5.7357">
        <ele>271.05</ele>
        <time>2018-09-09T08:09:58Z</time>
      </trkpt>
      <trkpt lat="45.08634" lon="5.73593">
        <ele>271.05</ele>
        <time>2018-09-09T08:09:59Z</time>
      </trkpt>
      <trkpt lat="45.08624" lon="5.73617">
        <ele>271.05</ele>
        <time>2018-09-09T08:10:00Z</time>
      </trkpt>
      <trkpt lat="45.08614" lon="5.7364">
        <ele>271.05</ele>
        <time>2018-09-09T08:10:01Z</time>
      </trkpt>
      <trkpt lat="45.08603" lon="5.73662">
        <ele>271.05</ele>
        <time>2018-09-09T08:10:02Z</time>
      </trkpt>
      <trkpt lat="45.08592" lon="5.73685">
        <ele>271.75</ele>
        <time>2018-09-09T08:10:03Z</time>
      </trkpt>
      <trkpt lat="45.08582" lon="5.73707">
        <ele>271.96</ele>
        <time>2018-09-09T08:10:04Z</time>
      </trkpt>
      <trkpt lat="45.08571" lon="5.73729">
        <ele>272.02</ele>
        <time>2018-09-09T08:10:05Z</time>
      </trkpt>
      <trkpt lat="45.08559" lon="5.7375">
        <ele>272.74</ele>
        <time>2018-09-09T08:10:06Z</time>
      </trkpt>
      <trkpt lat="45.08547" lon="5.7377">
        <ele>272.96</ele>
        <time>2018-09-09T08:10:07Z</time>
      </trkpt>
      <trkpt lat="45.08522" lon="5.73804">
        <ele>273.95</ele>
        <time>2018-09-09T08:10:09Z</time>
      </trkpt>
      <trkpt lat="45.08507" lon="5.73819">
        <ele>274.02</ele>
        <time>2018-09-09T08:10:10Z</time>
      </trkpt>
      <trkpt lat="45.08491" lon="5.73833">
        <ele>274.04</ele>
        <time>2018-09-09T08:10:11Z</time>
      </trkpt>
      <trkpt lat="45.08475" lon="5.73847">
        <ele>274.05</ele>
        <time>2018-09-09T08:10:12Z</time>
      </trkpt>
      <trkpt lat="45.0846" lon="5.73861">
        <ele>274.75</ele>
        <time>2018-09-09T08:10:13Z</time>
      </trkpt>
      <trkpt lat="45.08444" lon="5.73875">
        <ele>274.26</ele>
        <time>2018-09-09T08:10:14Z</time>
      </trkpt>
      <trkpt lat="45.08427" lon="5.73888">
        <ele>274.11</ele>
        <time>2018-09-09T08:10:15Z</time>
      </trkpt>
      <trkpt lat="45.0841" lon="5.739">
        <ele>274.07</ele>
        <time>2018-09-09T08:10:16Z</time>
      </trkpt>
      <trkpt lat="45.08393" lon="5.73912">
        <ele>274.05</ele>
        <time>2018-09-09T08:10:17Z</time>
      </trkpt>
      <trkpt lat="45.08377" lon="5.73925">
        <ele>274.05</ele>
        <time>2018-09-09T08:10:18Z</time>
      </trkpt>
      <trkpt lat="45.08361" lon="5.73938">
        <ele>274.05</ele>
        <time>2018-09-09T08:10:19Z</time>
      </trkpt>
      <trkpt lat="45.08345" lon="5.73951">
        <ele>274.05</ele>
        <time>2018-09-09T08:10:20Z</time>
      </trkpt>
      <trkpt lat="45.08328" lon="5.73964">
        <ele>274.05</ele>
        <time>2018-09-09T08:10:21Z</time>
      </trkpt>
      <trkpt lat="45.08313" lon="5.73979">
        <ele>274.05</ele>
        <time>2018-09-09T08:10:22Z</time>
      </trkpt>
      <trkpt lat="45.08298" lon="5.73995">
        <ele>274.75</ele>
        <time>2018-09-09T08:10:23Z</time>
      </trkpt>
      <trkpt lat="45.08273" lon="5.7403">
        <ele>274.81</ele>
        <time>2018-09-09T08:10:25Z</time>
      </trkpt>
      <trkpt lat="45.08252" lon="5.7407">
        <ele>275.73</ele>
        <time>2018-09-09T08:10:27Z</time>
      </trkpt>
      <trkpt lat="45.08235" lon="5.74114">
        <ele>276.72</ele>
        <time>2018-09-09T08:10:29Z</time>
      </trkpt>
      <trkpt lat="45.08228" lon="5.74137">
        <ele>277.65</ele>
        <time>2018-09-09T08:10:30Z</time>
      </trkpt>
      <trkpt lat="45.08217" lon="5.74185">
        <ele>278.01</ele>
        <time>2018-09-09T08:10:32Z</time>
      </trkpt>
      <trkpt lat="45.08212" lon="5.74235">
        <ele>278.75</ele>
        <time>2018-09-09T08:10:34Z</time>
      </trkpt>
      <trkpt lat="45.08211" lon="5.74262">
        <ele>278.96</ele>
        <time>2018-09-09T08:10:35Z</time>
      </trkpt>
      <trkpt lat="45.08212" lon="5.74288">
        <ele>279.02</ele>
        <time>2018-09-09T08:10:36Z</time>
      </trkpt>
      <trkpt lat="45.08215" lon="5.74315">
        <ele>279.74</ele>
        <time>2018-09-09T08:10:37Z</time>
      </trkpt>
      <trkpt lat="45.08218" lon="5.7434">
        <ele>279.96</ele>
        <time>2018-09-09T08:10:38Z</time>
      </trkpt>
      <trkpt lat="45.08222" lon="5.74366">
        <ele>280.02</ele>
        <time>2018-09-09T08:10:39Z</time>
      </trkpt>
      <trkpt lat="45.08229" lon="5.74392">
        <ele>280.04</ele>
        <time>2018-09-09T08:10:40Z</time>
      </trkpt>
      <trkpt lat="45.08237" lon="5.74417">
        <ele>280.05</ele>
        <time>2018-09-09T08:10:41Z</time>
      </trkpt>
      <trkpt lat="45.08246" lon="5.74442">
        <ele>280.05</ele>
        <time>2018-09-09T08:10:42Z</time>
      </trkpt>
      <trkpt lat="45.08256" lon="5.74465">
        <ele>280.75</ele>
        <time>2018-09-09T08:10:43Z</time>
      </trkpt>
      <trkpt lat="45.08268" lon="5.74488">
        <ele>282.36</ele>
        <time>2018-09-09T08:10:44Z</time>
      </trkpt>
      <trkpt lat="45.0828" lon="5.74511">
        <ele>282.84</ele>
        <time>2018-09-09T08:10:45Z</time>
      </trkpt>
      <trkpt lat="45.08291" lon="5.74534">
        <ele>281.59</ele>
        <time>2018-09-09T08:10:46Z</time>
      </trkpt>
      <trkpt lat="45.08302" lon="5.74557">
        <ele>280.51</ele>
        <time>2018-09-09T08:10:47Z</time>
      </trkpt>
      <trkpt lat="45.08312" lon="5.7458">
        <ele>279.49</ele>
        <time>2018-09-09T08:10:48Z</time>
      </trkpt>
      <trkpt lat="45.08322" lon="5.74603">
        <ele>278.48</ele>
        <time>2018-09-09T08:10:49Z</time>
      </trkpt>
      <trkpt lat="45.08331" lon="5.74629">
        <ele>276.78</ele>
        <time>2018-09-09T08:10:50Z</time>
      </trkpt>
      <trkpt lat="45.08339" lon="5.74655">
        <ele>275.57</ele>
        <time>2018-09-09T08:10:51Z</time>
      </trkpt>
      <trkpt lat="45.08345" lon="5.74682">
        <ele>274.5</ele>
        <time>2018-09-09T08:10:52Z</time>
      </trkpt>
      <trkpt lat="45.08351" lon="5.74709">
        <ele>274.19</ele>
        <time>2018-09-09T08:10:53Z</time>
      </trkpt>
      <trkpt lat="45.08356" lon="5.74736">
        <ele>273.39</ele>
        <time>2018-09-09T08:10:54Z</time>
      </trkpt>
      <trkpt lat="45.08361" lon="5.74764">
        <ele>273.15</ele>
        <time>2018-09-09T08:10:55Z</time>
      </trkpt>
      <trkpt lat="45.08366" lon="5.74792">
        <ele>273.08</ele>
        <time>2018-09-09T08:10:56Z</time>
      </trkpt>
      <trkpt lat="45.0837" lon="5.74819">
        <ele>273.06</ele>
        <time>2018-09-09T08:10:57Z</time>
      </trkpt>
      <trkpt lat="45.08375" lon="5.74846">
        <ele>272.35</ele>
        <time>2018-09-09T08:10:58Z</time>
      </trkpt>
      <trkpt lat="45.0838" lon="5.74873">
        <ele>272.14</ele>
        <time>2018-09-09T08:10:59Z</time>
      </trkpt>
      <trkpt lat="45.08387" lon="5.749">
        <ele>273.48</ele>
        <time>2018-09-09T08:11:00Z</time>
      </trkpt>
      <trkpt lat="45.08393" lon="5.74927">
        <ele>273.88</ele>
        <time>2018-09-09T08:11:01Z</time>
      </trkpt>
      <trkpt lat="45.08399" lon="5.74952">
        <ele>274</ele>
        <time>2018-09-09T08:11:02Z</time>
      </trkpt>
      <trkpt lat="45.08407" lon="5.74979">
        <ele>275.43</ele>
        <time>2018-09-09T08:11:03Z</time>
      </trkpt>
      <trkpt lat="45.08415" lon="5.75005">
        <ele>275.65</ele>
        <time>2018-09-09T08:11:04Z</time>
      </trkpt>
      <trkpt lat="45.08422" lon="5.75031">
        <ele>276.41</ele>
        <time>2018-09-09T08:11:05Z</time>
      </trkpt>
      <trkpt lat="45.08428" lon="5.75055">
        <ele>276.64</ele>
        <time>2018-09-09T08:11:06Z</time>
      </trkpt>
      <trkpt lat="45.08435" lon="5.7508">
        <ele>276.71</ele>
        <time>2018-09-09T08:11:07Z</time>
      </trkpt>
      <trkpt lat="45.08441" lon="5.75106">
        <ele>276.03</ele>
        <time>2018-09-09T08:11:08Z</time>
      </trkpt>
      <trkpt lat="45.08446" lon="5.75133">
        <ele>275.83</ele>
        <time>2018-09-09T08:11:09Z</time>
      </trkpt>
      <trkpt lat="45.08451" lon="5.7516">
        <ele>275.77</ele>
        <time>2018-09-09T08:11:10Z</time>
      </trkpt>
      <trkpt lat="45.08456" lon="5.75186">
        <ele>275.75</ele>
        <time>2018-09-09T08:11:11Z</time>
      </trkpt>
      <trkpt lat="45.0846" lon="5.75214">
        <ele>276.44</ele>
        <time>2018-09-09T08:11:12Z</time>
      </trkpt>
      <trkpt lat="45.08465" lon="5.7524">
        <ele>276.65</ele>
        <time>2018-09-09T08:11:13Z</time>
      </trkpt>
      <trkpt lat="45.08469" lon="5.75266">
        <ele>276.71</ele>
        <time>2018-09-09T08:11:14Z</time>
      </trkpt>
      <trkpt lat="45.08474" lon="5.75292">
        <ele>276.73</ele>
        <time>2018-09-09T08:11:15Z</time>
      </trkpt>
      <trkpt lat="45.08479" lon="5.75317">
        <ele>276.04</ele>
        <time>2018-09-09T08:11:16Z</time>
      </trkpt>
      <trkpt lat="45.08484" lon="5.75344">
        <ele>276.53</ele>
        <time>2018-09-09T08:11:17Z</time>
      </trkpt>
      <trkpt lat="45.08489" lon="5.75371">
        <ele>276.68</ele>
        <time>2018-09-09T08:11:18Z</time>
      </trkpt>
      <trkpt lat="45.08494" lon="5.75398">
        <ele>276.72</ele>
        <time>2018-09-09T08:11:19Z</time>
      </trkpt>
      <trkpt lat="45.08499" lon="5.75424">
        <ele>277.44</ele>
        <time>2018-09-09T08:11:20Z</time>
      </trkpt>
      <trkpt lat="45.08503" lon="5.75451">
        <ele>277.65</ele>
        <time>2018-09-09T08:11:21Z</time>
      </trkpt>
      <trkpt lat="45.08511" lon="5.75479">
        <ele>279.11</ele>
        <time>2018-09-09T08:11:22Z</time>
      </trkpt>
      <trkpt lat="45.08516" lon="5.75506">
        <ele>280.25</ele>
        <time>2018-09-09T08:11:23Z</time>
      </trkpt>
      <trkpt lat="45.08521" lon="5.75534">
        <ele>279.89</ele>
        <time>2018-09-09T08:11:24Z</time>
      </trkpt>
      <trkpt lat="45.08525" lon="5.75562">
        <ele>279.79</ele>
        <time>2018-09-09T08:11:25Z</time>
      </trkpt>
      <trkpt lat="45.08527" lon="5.75592">
        <ele>280.45</ele>
        <time>2018-09-09T08:11:26Z</time>
      </trkpt>
      <trkpt lat="45.08525" lon="5.7562">
        <ele>279.96</ele>
        <time>2018-09-09T08:11:27Z</time>
      </trkpt>
      <trkpt lat="45.08518" lon="5.75645">
        <ele>278.41</ele>
        <time>2018-09-09T08:11:28Z</time>
      </trkpt>
      <trkpt lat="45.08512" lon="5.75672">
        <ele>277.24</ele>
        <time>2018-09-09T08:11:29Z</time>
      </trkpt>
      <trkpt lat="45.085" lon="5.75695">
        <ele>275.49</ele>
        <time>2018-09-09T08:11:30Z</time>
      </trkpt>
      <trkpt lat="45.08488" lon="5.75717">
        <ele>274.97</ele>
        <time>2018-09-09T08:11:31Z</time>
      </trkpt>
      <trkpt lat="45.08476" lon="5.75739">
        <ele>274.81</ele>
        <time>2018-09-09T08:11:32Z</time>
      </trkpt>
      <trkpt lat="45.08466" lon="5.75762">
        <ele>274.06</ele>
        <time>2018-09-09T08:11:33Z</time>
      </trkpt>
      <trkpt lat="45.08455" lon="5.75786">
        <ele>272.44</ele>
        <time>2018-09-09T08:11:34Z</time>
      </trkpt>
      <trkpt lat="45.08448" lon="5.75811">
        <ele>271.25</ele>
        <time>2018-09-09T08:11:35Z</time>
      </trkpt>
      <trkpt lat="45.08442" lon="5.75838">
        <ele>270.89</ele>
        <time>2018-09-09T08:11:36Z</time>
      </trkpt>
      <trkpt lat="45.08436" lon="5.75864">
        <ele>270.79</ele>
        <time>2018-09-09T08:11:37Z</time>
      </trkpt>
      <trkpt lat="45.08431" lon="5.75889">
        <ele>270.75</ele>
        <time>2018-09-09T08:11:38Z</time>
      </trkpt>
      <trkpt lat="45.08425" lon="5.75916">
        <ele>270.05</ele>
        <time>2018-09-09T08:11:39Z</time>
      </trkpt>
      <trkpt lat="45.08419" lon="5.75943">
        <ele>269.83</ele>
        <time>2018-09-09T08:11:40Z</time>
      </trkpt>
      <trkpt lat="45.08413" lon="5.7597">
        <ele>269.77</ele>
        <time>2018-09-09T08:11:41Z</time>
      </trkpt>
      <trkpt lat="45.08407" lon="5.75996">
        <ele>269.75</ele>
        <time>2018-09-09T08:11:42Z</time>
      </trkpt>
      <trkpt lat="45.084" lon="5.76023">
        <ele>270.44</ele>
        <time>2018-09-09T08:11:43Z</time>
      </trkpt>
      <trkpt lat="45.08394" lon="5.76049">
        <ele>271.35</ele>
        <time>2018-09-09T08:11:44Z</time>
      </trkpt>
      <trkpt lat="45.08388" lon="5.76076">
        <ele>272.32</ele>
        <time>2018-09-09T08:11:45Z</time>
      </trkpt>
      <trkpt lat="45.08381" lon="5.76102">
        <ele>271.92</ele>
        <time>2018-09-09T08:11:46Z</time>
      </trkpt>
      <trkpt lat="45.08374" lon="5.76129">
        <ele>271.79</ele>
        <time>2018-09-09T08:11:47Z</time>
      </trkpt>
      <trkpt lat="45.08368" lon="5.76156">
        <ele>271.76</ele>
        <time>2018-09-09T08:11:48Z</time>
      </trkpt>
      <trkpt lat="45.08361" lon="5.76181">
        <ele>271.75</ele>
        <time>2018-09-09T08:11:49Z</time>
      </trkpt>
      <trkpt lat="45.08355" lon="5.76208">
        <ele>271.74</ele>
        <time>2018-09-09T08:11:50Z</time>
      </trkpt>
      <trkpt lat="45.08348" lon="5.76235">
        <ele>271.74</ele>
        <time>2018-09-09T08:11:51Z</time>
      </trkpt>
      <trkpt lat="45.08342" lon="5.76261">
        <ele>271.74</ele>
        <time>2018-09-09T08:11:52Z</time>
      </trkpt>
      <trkpt lat="45.08336" lon="5.76287">
        <ele>271.74</ele>
        <time>2018-09-09T08:11:53Z</time>
      </trkpt>
      <trkpt lat="45.08329" lon="5.76312">
        <ele>271.74</ele>
        <time>2018-09-09T08:11:54Z</time>
      </trkpt>
      <trkpt lat="45.08323" lon="5.76338">
        <ele>271.74</ele>
        <time>2018-09-09T08:11:55Z</time>
      </trkpt>
      <trkpt lat="45.08317" lon="5.76364">
        <ele>272.44</ele>
        <time>2018-09-09T08:11:56Z</time>
      </trkpt>
      <trkpt lat="45.08311" lon="5.76388">
        <ele>272.65</ele>
        <time>2018-09-09T08:11:57Z</time>
      </trkpt>
      <trkpt lat="45.08305" lon="5.76413">
        <ele>272.71</ele>
        <time>2018-09-09T08:11:58Z</time>
      </trkpt>
      <trkpt lat="45.08295" lon="5.76456">
        <ele>272.04</ele>
        <time>2018-09-09T08:12:00Z</time>
      </trkpt>
      <trkpt lat="45.08285" lon="5.76494">
        <ele>271.77</ele>
        <time>2018-09-09T08:12:02Z</time>
      </trkpt>
      <trkpt lat="45.08277" lon="5.76528">
        <ele>272.44</ele>
        <time>2018-09-09T08:12:04Z</time>
      </trkpt>
      <trkpt lat="45.08267" lon="5.76549">
        <ele>272.71</ele>
        <time>2018-09-09T08:12:06Z</time>
      </trkpt>
      <trkpt lat="45.08248" lon="5.76567">
        <ele>272.74</ele>
        <time>2018-09-09T08:12:10Z</time>
      </trkpt>
      <trkpt lat="45.08229" lon="5.76577">
        <ele>271.83</ele>
        <time>2018-09-09T08:12:12Z</time>
      </trkpt>
      <trkpt lat="45.082" lon="5.76586">
        <ele>272.45</ele>
        <time>2018-09-09T08:12:14Z</time>
      </trkpt>
      <trkpt lat="45.08182" lon="5.76591">
        <ele>272.65</ele>
        <time>2018-09-09T08:12:15Z</time>
      </trkpt>
      <trkpt lat="45.08161" lon="5.76596">
        <ele>273.41</ele>
        <time>2018-09-09T08:12:16Z</time>
      </trkpt>
      <trkpt lat="45.08139" lon="5.76603">
        <ele>273.64</ele>
        <time>2018-09-09T08:12:17Z</time>
      </trkpt>
      <trkpt lat="45.08117" lon="5.76609">
        <ele>273.71</ele>
        <time>2018-09-09T08:12:18Z</time>
      </trkpt>
      <trkpt lat="45.08096" lon="5.76616">
        <ele>274.43</ele>
        <time>2018-09-09T08:12:19Z</time>
      </trkpt>
      <trkpt lat="45.08075" lon="5.76624">
        <ele>274.65</ele>
        <time>2018-09-09T08:12:20Z</time>
      </trkpt>
      <trkpt lat="45.08054" lon="5.76631">
        <ele>274.71</ele>
        <time>2018-09-09T08:12:21Z</time>
      </trkpt>
      <trkpt lat="45.08033" lon="5.76639">
        <ele>274.73</ele>
        <time>2018-09-09T08:12:22Z</time>
      </trkpt>
      <trkpt lat="45.08013" lon="5.76646">
        <ele>274.04</ele>
        <time>2018-09-09T08:12:23Z</time>
      </trkpt>
      <trkpt lat="45.07992" lon="5.76653">
        <ele>274.53</ele>
        <time>2018-09-09T08:12:24Z</time>
      </trkpt>
      <trkpt lat="45.07971" lon="5.76659">
        <ele>273.98</ele>
        <time>2018-09-09T08:12:25Z</time>
      </trkpt>
      <trkpt lat="45.0795" lon="5.76665">
        <ele>274.51</ele>
        <time>2018-09-09T08:12:26Z</time>
      </trkpt>
      <trkpt lat="45.07928" lon="5.76669">
        <ele>274.67</ele>
        <time>2018-09-09T08:12:27Z</time>
      </trkpt>
      <trkpt lat="45.07906" lon="5.76671">
        <ele>274.72</ele>
        <time>2018-09-09T08:12:28Z</time>
      </trkpt>
      <trkpt lat="45.07884" lon="5.76672">
        <ele>274.73</ele>
        <time>2018-09-09T08:12:29Z</time>
      </trkpt>
      <trkpt lat="45.07859" lon="5.76672">
        <ele>275.44</ele>
        <time>2018-09-09T08:12:30Z</time>
      </trkpt>
      <trkpt lat="45.07835" lon="5.76671">
        <ele>276.35</ele>
        <time>2018-09-09T08:12:31Z</time>
      </trkpt>
      <trkpt lat="45.07812" lon="5.76671">
        <ele>276.62</ele>
        <time>2018-09-09T08:12:32Z</time>
      </trkpt>
      <trkpt lat="45.07788" lon="5.76672">
        <ele>276.71</ele>
        <time>2018-09-09T08:12:33Z</time>
      </trkpt>
      <trkpt lat="45.07765" lon="5.76672">
        <ele>276.73</ele>
        <time>2018-09-09T08:12:34Z</time>
      </trkpt>
      <trkpt lat="45.07743" lon="5.76673">
        <ele>276.74</ele>
        <time>2018-09-09T08:12:35Z</time>
      </trkpt>
      <trkpt lat="45.07721" lon="5.76672">
        <ele>276.74</ele>
        <time>2018-09-09T08:12:36Z</time>
      </trkpt>
      <trkpt lat="45.07699" lon="5.76671">
        <ele>276.74</ele>
        <time>2018-09-09T08:12:37Z</time>
      </trkpt>
      <trkpt lat="45.07677" lon="5.76669">
        <ele>276.74</ele>
        <time>2018-09-09T08:12:38Z</time>
      </trkpt>
      <trkpt lat="45.07655" lon="5.76667">
        <ele>276.74</ele>
        <time>2018-09-09T08:12:39Z</time>
      </trkpt>
      <trkpt lat="45.07633" lon="5.7666">
        <ele>276.74</ele>
        <time>2018-09-09T08:12:40Z</time>
      </trkpt>
      <trkpt lat="45.07611" lon="5.76653">
        <ele>276.74</ele>
        <time>2018-09-09T08:12:41Z</time>
      </trkpt>
      <trkpt lat="45.0759" lon="5.76646">
        <ele>277.44</ele>
        <time>2018-09-09T08:12:42Z</time>
      </trkpt>
      <trkpt lat="45.07569" lon="5.76637">
        <ele>277.65</ele>
        <time>2018-09-09T08:12:43Z</time>
      </trkpt>
      <trkpt lat="45.07547" lon="5.76627">
        <ele>278.41</ele>
        <time>2018-09-09T08:12:44Z</time>
      </trkpt>
      <trkpt lat="45.07525" lon="5.76615">
        <ele>278.64</ele>
        <time>2018-09-09T08:12:45Z</time>
      </trkpt>
      <trkpt lat="45.07503" lon="5.76603">
        <ele>279.41</ele>
        <time>2018-09-09T08:12:46Z</time>
      </trkpt>
      <trkpt lat="45.07482" lon="5.7659">
        <ele>278.94</ele>
        <time>2018-09-09T08:12:47Z</time>
      </trkpt>
      <trkpt lat="45.07461" lon="5.76576">
        <ele>279.5</ele>
        <time>2018-09-09T08:12:48Z</time>
      </trkpt>
      <trkpt lat="45.07441" lon="5.76563">
        <ele>279.67</ele>
        <time>2018-09-09T08:12:49Z</time>
      </trkpt>
      <trkpt lat="45.07422" lon="5.76548">
        <ele>279.72</ele>
        <time>2018-09-09T08:12:50Z</time>
      </trkpt>
      <trkpt lat="45.07403" lon="5.76535">
        <ele>279.73</ele>
        <time>2018-09-09T08:12:51Z</time>
      </trkpt>
      <trkpt lat="45.07384" lon="5.76522">
        <ele>279.74</ele>
        <time>2018-09-09T08:12:52Z</time>
      </trkpt>
      <trkpt lat="45.07366" lon="5.76509">
        <ele>279.74</ele>
        <time>2018-09-09T08:12:53Z</time>
      </trkpt>
      <trkpt lat="45.07347" lon="5.76497">
        <ele>279.74</ele>
        <time>2018-09-09T08:12:54Z</time>
      </trkpt>
      <trkpt lat="45.07329" lon="5.76484">
        <ele>279.74</ele>
        <time>2018-09-09T08:12:55Z</time>
      </trkpt>
      <trkpt lat="45.07311" lon="5.76471">
        <ele>280.44</ele>
        <time>2018-09-09T08:12:56Z</time>
      </trkpt>
      <trkpt lat="45.07293" lon="5.76459">
        <ele>280.65</ele>
        <time>2018-09-09T08:12:57Z</time>
      </trkpt>
      <trkpt lat="45.07275" lon="5.76446">
        <ele>280.71</ele>
        <time>2018-09-09T08:12:58Z</time>
      </trkpt>
      <trkpt lat="45.07257" lon="5.76433">
        <ele>280.73</ele>
        <time>2018-09-09T08:12:59Z</time>
      </trkpt>
      <trkpt lat="45.07239" lon="5.76421">
        <ele>281.44</ele>
        <time>2018-09-09T08:13:00Z</time>
      </trkpt>
      <trkpt lat="45.07221" lon="5.76409">
        <ele>280.95</ele>
        <time>2018-09-09T08:13:01Z</time>
      </trkpt>
      <trkpt lat="45.07203" lon="5.76397">
        <ele>280.8</ele>
        <time>2018-09-09T08:13:02Z</time>
      </trkpt>
      <trkpt lat="45.07187" lon="5.76385">
        <ele>280.76</ele>
        <time>2018-09-09T08:13:03Z</time>
      </trkpt>
      <trkpt lat="45.07169" lon="5.76374">
        <ele>281.45</ele>
        <time>2018-09-09T08:13:04Z</time>
      </trkpt>
      <trkpt lat="45.07153" lon="5.76362">
        <ele>281.65</ele>
        <time>2018-09-09T08:13:05Z</time>
      </trkpt>
      <trkpt lat="45.07135" lon="5.7635">
        <ele>281.71</ele>
        <time>2018-09-09T08:13:06Z</time>
      </trkpt>
      <trkpt lat="45.07118" lon="5.76338">
        <ele>281.03</ele>
        <time>2018-09-09T08:13:07Z</time>
      </trkpt>
      <trkpt lat="45.071" lon="5.76328">
        <ele>280.83</ele>
        <time>2018-09-09T08:13:08Z</time>
      </trkpt>
      <trkpt lat="45.07082" lon="5.76317">
        <ele>281.47</ele>
        <time>2018-09-09T08:13:09Z</time>
      </trkpt>
      <trkpt lat="45.07064" lon="5.76307">
        <ele>281.66</ele>
        <time>2018-09-09T08:13:10Z</time>
      </trkpt>
      <trkpt lat="45.07046" lon="5.76296">
        <ele>281.72</ele>
        <time>2018-09-09T08:13:11Z</time>
      </trkpt>
      <trkpt lat="45.07027" lon="5.76286">
        <ele>281.73</ele>
        <time>2018-09-09T08:13:12Z</time>
      </trkpt>
      <trkpt lat="45.07008" lon="5.76277">
        <ele>281.74</ele>
        <time>2018-09-09T08:13:13Z</time>
      </trkpt>
      <trkpt lat="45.06989" lon="5.76268">
        <ele>281.74</ele>
        <time>2018-09-09T08:13:14Z</time>
      </trkpt>
      <trkpt lat="45.06968" lon="5.76261">
        <ele>282.44</ele>
        <time>2018-09-09T08:13:15Z</time>
      </trkpt>
      <trkpt lat="45.06948" lon="5.76253">
        <ele>282.65</ele>
        <time>2018-09-09T08:13:16Z</time>
      </trkpt>
      <trkpt lat="45.06928" lon="5.76245">
        <ele>283.41</ele>
        <time>2018-09-09T08:13:17Z</time>
      </trkpt>
      <trkpt lat="45.06908" lon="5.76238">
        <ele>283.64</ele>
        <time>2018-09-09T08:13:18Z</time>
      </trkpt>
      <trkpt lat="45.06888" lon="5.76232">
        <ele>283.71</ele>
        <time>2018-09-09T08:13:19Z</time>
      </trkpt>
      <trkpt lat="45.06868" lon="5.76228">
        <ele>283.73</ele>
        <time>2018-09-09T08:13:20Z</time>
      </trkpt>
      <trkpt lat="45.06848" lon="5.76224">
        <ele>284.44</ele>
        <time>2018-09-09T08:13:21Z</time>
      </trkpt>
      <trkpt lat="45.06828" lon="5.76221">
        <ele>284.65</ele>
        <time>2018-09-09T08:13:22Z</time>
      </trkpt>
      <trkpt lat="45.06808" lon="5.76217">
        <ele>284.01</ele>
        <time>2018-09-09T08:13:23Z</time>
      </trkpt>
      <trkpt lat="45.06787" lon="5.76215">
        <ele>283.82</ele>
        <time>2018-09-09T08:13:24Z</time>
      </trkpt>
      <trkpt lat="45.06767" lon="5.76213">
        <ele>283.77</ele>
        <time>2018-09-09T08:13:25Z</time>
      </trkpt>
      <trkpt lat="45.06747" lon="5.76211">
        <ele>283.75</ele>
        <time>2018-09-09T08:13:26Z</time>
      </trkpt>
      <trkpt lat="45.06727" lon="5.76211">
        <ele>283.74</ele>
        <time>2018-09-09T08:13:27Z</time>
      </trkpt>
      <trkpt lat="45.06708" lon="5.7621">
        <ele>284.44</ele>
        <time>2018-09-09T08:13:28Z</time>
      </trkpt>
      <trkpt lat="45.06688" lon="5.7621">
        <ele>283.95</ele>
        <time>2018-09-09T08:13:29Z</time>
      </trkpt>
      <trkpt lat="45.06669" lon="5.7621">
        <ele>283.8</ele>
        <time>2018-09-09T08:13:30Z</time>
      </trkpt>
      <trkpt lat="45.06648" lon="5.76209">
        <ele>284.46</ele>
        <time>2018-09-09T08:13:31Z</time>
      </trkpt>
      <trkpt lat="45.06629" lon="5.7621">
        <ele>284.66</ele>
        <time>2018-09-09T08:13:32Z</time>
      </trkpt>
      <trkpt lat="45.06608" lon="5.7621">
        <ele>285.42</ele>
        <time>2018-09-09T08:13:33Z</time>
      </trkpt>
      <trkpt lat="45.06589" lon="5.76211">
        <ele>285.64</ele>
        <time>2018-09-09T08:13:34Z</time>
      </trkpt>
      <trkpt lat="45.06569" lon="5.76213">
        <ele>285.71</ele>
        <time>2018-09-09T08:13:35Z</time>
      </trkpt>
      <trkpt lat="45.06549" lon="5.76216">
        <ele>285.73</ele>
        <time>2018-09-09T08:13:36Z</time>
      </trkpt>
      <trkpt lat="45.06529" lon="5.76219">
        <ele>285.74</ele>
        <time>2018-09-09T08:13:37Z</time>
      </trkpt>
      <trkpt lat="45.06509" lon="5.76223">
        <ele>285.74</ele>
        <time>2018-09-09T08:13:38Z</time>
      </trkpt>
      <trkpt lat="45.06489" lon="5.76227">
        <ele>285.74</ele>
        <time>2018-09-09T08:13:39Z</time>
      </trkpt>
      <trkpt lat="45.0647" lon="5.76232">
        <ele>285.74</ele>
        <time>2018-09-09T08:13:40Z</time>
      </trkpt>
      <trkpt lat="45.06451" lon="5.76239">
        <ele>284.34</ele>
        <time>2018-09-09T08:13:41Z</time>
      </trkpt>
      <trkpt lat="45.06432" lon="5.76245">
        <ele>283.92</ele>
        <time>2018-09-09T08:13:42Z</time>
      </trkpt>
      <trkpt lat="45.06413" lon="5.76252">
        <ele>283.79</ele>
        <time>2018-09-09T08:13:43Z</time>
      </trkpt>
      <trkpt lat="45.06394" lon="5.7626">
        <ele>283.76</ele>
        <time>2018-09-09T08:13:44Z</time>
      </trkpt>
      <trkpt lat="45.06376" lon="5.7627">
        <ele>283.75</ele>
        <time>2018-09-09T08:13:45Z</time>
      </trkpt>
      <trkpt lat="45.06357" lon="5.76278">
        <ele>283.74</ele>
        <time>2018-09-09T08:13:46Z</time>
      </trkpt>
      <trkpt lat="45.06339" lon="5.76289">
        <ele>283.04</ele>
        <time>2018-09-09T08:13:47Z</time>
      </trkpt>
      <trkpt lat="45.06321" lon="5.76299">
        <ele>282.83</ele>
        <time>2018-09-09T08:13:48Z</time>
      </trkpt>
      <trkpt lat="45.06303" lon="5.76311">
        <ele>283.47</ele>
        <time>2018-09-09T08:13:49Z</time>
      </trkpt>
      <trkpt lat="45.06285" lon="5.76321">
        <ele>284.36</ele>
        <time>2018-09-09T08:13:50Z</time>
      </trkpt>
      <trkpt lat="45.06267" lon="5.7633">
        <ele>286.03</ele>
        <time>2018-09-09T08:13:51Z</time>
      </trkpt>
      <trkpt lat="45.06249" lon="5.76344">
        <ele>287.23</ele>
        <time>2018-09-09T08:13:52Z</time>
      </trkpt>
      <trkpt lat="45.06234" lon="5.76358">
        <ele>287.59</ele>
        <time>2018-09-09T08:13:53Z</time>
      </trkpt>
      <trkpt lat="45.06217" lon="5.76372">
        <ele>286.29</ele>
        <time>2018-09-09T08:13:54Z</time>
      </trkpt>
      <trkpt lat="45.06186" lon="5.764">
        <ele>285.58</ele>
        <time>2018-09-09T08:13:56Z</time>
      </trkpt>
      <trkpt lat="45.06171" lon="5.76416">
        <ele>285.69</ele>
        <time>2018-09-09T08:13:57Z</time>
      </trkpt>
      <trkpt lat="45.06157" lon="5.76434">
        <ele>285.03</ele>
        <time>2018-09-09T08:13:58Z</time>
      </trkpt>
      <trkpt lat="45.06143" lon="5.76451">
        <ele>286.23</ele>
        <time>2018-09-09T08:13:59Z</time>
      </trkpt>
      <trkpt lat="45.0613" lon="5.76468">
        <ele>286.59</ele>
        <time>2018-09-09T08:14:00Z</time>
      </trkpt>
      <trkpt lat="45.06104" lon="5.76504">
        <ele>286.73</ele>
        <time>2018-09-09T08:14:02Z</time>
      </trkpt>
      <trkpt lat="45.0608" lon="5.7654">
        <ele>285.83</ele>
        <time>2018-09-09T08:14:04Z</time>
      </trkpt>
      <trkpt lat="45.06056" lon="5.76577">
        <ele>286.45</ele>
        <time>2018-09-09T08:14:06Z</time>
      </trkpt>
      <trkpt lat="45.06031" lon="5.76614">
        <ele>286.71</ele>
        <time>2018-09-09T08:14:08Z</time>
      </trkpt>
      <trkpt lat="45.0602" lon="5.76634">
        <ele>287.43</ele>
        <time>2018-09-09T08:14:09Z</time>
      </trkpt>
      <trkpt lat="45.05997" lon="5.76673">
        <ele>288.41</ele>
        <time>2018-09-09T08:14:11Z</time>
      </trkpt>
      <trkpt lat="45.05974" lon="5.76712">
        <ele>288.71</ele>
        <time>2018-09-09T08:14:13Z</time>
      </trkpt>
      <trkpt lat="45.05951" lon="5.7675">
        <ele>288.04</ele>
        <time>2018-09-09T08:14:15Z</time>
      </trkpt>
      <trkpt lat="45.0593" lon="5.76788">
        <ele>288.68</ele>
        <time>2018-09-09T08:14:17Z</time>
      </trkpt>
      <trkpt lat="45.05908" lon="5.76826">
        <ele>289.44</ele>
        <time>2018-09-09T08:14:19Z</time>
      </trkpt>
      <trkpt lat="45.05886" lon="5.76864">
        <ele>289.01</ele>
        <time>2018-09-09T08:14:21Z</time>
      </trkpt>
      <trkpt lat="45.05865" lon="5.76899">
        <ele>288.98</ele>
        <time>2018-09-09T08:14:23Z</time>
      </trkpt>
      <trkpt lat="45.05844" lon="5.76934">
        <ele>287.15</ele>
        <time>2018-09-09T08:14:25Z</time>
      </trkpt>
      <trkpt lat="45.05824" lon="5.76965">
        <ele>287.69</ele>
        <time>2018-09-09T08:14:27Z</time>
      </trkpt>
      <trkpt lat="45.05807" lon="5.76993">
        <ele>286.83</ele>
        <time>2018-09-09T08:14:29Z</time>
      </trkpt>
      <trkpt lat="45.05795" lon="5.77012">
        <ele>286.75</ele>
        <time>2018-09-09T08:14:31Z</time>
      </trkpt>
      <trkpt lat="45.05781" lon="5.77031">
        <ele>287.72</ele>
        <time>2018-09-09T08:14:37Z</time>
      </trkpt>
      <trkpt lat="45.05768" lon="5.77055">
        <ele>289.41</ele>
        <time>2018-09-09T08:14:42Z</time>
      </trkpt>
      <trkpt lat="45.05754" lon="5.77079">
        <ele>290.43</ele>
        <time>2018-09-09T08:14:45Z</time>
      </trkpt>
      <trkpt lat="45.05741" lon="5.77098">
        <ele>290.71</ele>
        <time>2018-09-09T08:14:47Z</time>
      </trkpt>
      <trkpt lat="45.05728" lon="5.77118">
        <ele>292.35</ele>
        <time>2018-09-09T08:14:49Z</time>
      </trkpt>
      <trkpt lat="45.05713" lon="5.7714">
        <ele>291.8</ele>
        <time>2018-09-09T08:14:51Z</time>
      </trkpt>
      <trkpt lat="45.05697" lon="5.77165">
        <ele>292.66</ele>
        <time>2018-09-09T08:14:53Z</time>
      </trkpt>
      <trkpt lat="45.0568" lon="5.77193">
        <ele>291.33</ele>
        <time>2018-09-09T08:14:55Z</time>
      </trkpt>
      <trkpt lat="45.05664" lon="5.77218">
        <ele>290.79</ele>
        <time>2018-09-09T08:14:57Z</time>
      </trkpt>
      <trkpt lat="45.05648" lon="5.77246">
        <ele>291.45</ele>
        <time>2018-09-09T08:14:59Z</time>
      </trkpt>
      <trkpt lat="45.05632" lon="5.77272">
        <ele>291.5</ele>
        <time>2018-09-09T08:15:01Z</time>
      </trkpt>
      <trkpt lat="45.05616" lon="5.77297">
        <ele>293.33</ele>
        <time>2018-09-09T08:15:03Z</time>
      </trkpt>
      <trkpt lat="45.056" lon="5.77322">
        <ele>293.7</ele>
        <time>2018-09-09T08:15:05Z</time>
      </trkpt>
      <trkpt lat="45.05584" lon="5.77348">
        <ele>294.44</ele>
        <time>2018-09-09T08:15:07Z</time>
      </trkpt>
      <trkpt lat="45.05567" lon="5.77375">
        <ele>294.71</ele>
        <time>2018-09-09T08:15:09Z</time>
      </trkpt>
      <trkpt lat="45.0555" lon="5.77403">
        <ele>294.74</ele>
        <time>2018-09-09T08:15:11Z</time>
      </trkpt>
      <trkpt lat="45.05534" lon="5.7743">
        <ele>294.74</ele>
        <time>2018-09-09T08:15:13Z</time>
      </trkpt>
      <trkpt lat="45.05517" lon="5.77457">
        <ele>294.74</ele>
        <time>2018-09-09T08:15:15Z</time>
      </trkpt>
      <trkpt lat="45.05501" lon="5.77484">
        <ele>294.74</ele>
        <time>2018-09-09T08:15:17Z</time>
      </trkpt>
      <trkpt lat="45.05484" lon="5.77512">
        <ele>294.74</ele>
        <time>2018-09-09T08:15:19Z</time>
      </trkpt>
      <trkpt lat="45.05468" lon="5.77541">
        <ele>295.65</ele>
        <time>2018-09-09T08:15:21Z</time>
      </trkpt>
      <trkpt lat="45.0545" lon="5.77569">
        <ele>296.64</ele>
        <time>2018-09-09T08:15:23Z</time>
      </trkpt>
      <trkpt lat="45.05432" lon="5.77599">
        <ele>296.03</ele>
        <time>2018-09-09T08:15:25Z</time>
      </trkpt>
      <trkpt lat="45.05414" lon="5.7763">
        <ele>296.68</ele>
        <time>2018-09-09T08:15:27Z</time>
      </trkpt>
      <trkpt lat="45.05396" lon="5.77661">
        <ele>296.53</ele>
        <time>2018-09-09T08:15:29Z</time>
      </trkpt>
      <trkpt lat="45.05379" lon="5.7769">
        <ele>296.02</ele>
        <time>2018-09-09T08:15:31Z</time>
      </trkpt>
      <trkpt lat="45.05361" lon="5.77718">
        <ele>295.77</ele>
        <time>2018-09-09T08:15:33Z</time>
      </trkpt>
      <trkpt lat="45.05343" lon="5.77747">
        <ele>296.44</ele>
        <time>2018-09-09T08:15:35Z</time>
      </trkpt>
      <trkpt lat="45.05326" lon="5.77777">
        <ele>295.8</ele>
        <time>2018-09-09T08:15:37Z</time>
      </trkpt>
      <trkpt lat="45.05309" lon="5.77807">
        <ele>296.45</ele>
        <time>2018-09-09T08:15:39Z</time>
      </trkpt>
      <trkpt lat="45.05291" lon="5.77836">
        <ele>296.71</ele>
        <time>2018-09-09T08:15:41Z</time>
      </trkpt>
      <trkpt lat="45.05274" lon="5.77866">
        <ele>296.74</ele>
        <time>2018-09-09T08:15:43Z</time>
      </trkpt>
      <trkpt lat="45.05256" lon="5.77896">
        <ele>296.95</ele>
        <time>2018-09-09T08:15:45Z</time>
      </trkpt>
      <trkpt lat="45.05238" lon="5.77926">
        <ele>297.67</ele>
        <time>2018-09-09T08:15:47Z</time>
      </trkpt>
      <trkpt lat="45.0522" lon="5.77957">
        <ele>297.73</ele>
        <time>2018-09-09T08:15:49Z</time>
      </trkpt>
      <trkpt lat="45.052" lon="5.77989">
        <ele>299.35</ele>
        <time>2018-09-09T08:15:51Z</time>
      </trkpt>
      <trkpt lat="45.0518" lon="5.78024">
        <ele>299.71</ele>
        <time>2018-09-09T08:15:53Z</time>
      </trkpt>
      <trkpt lat="45.05159" lon="5.78059">
        <ele>300.44</ele>
        <time>2018-09-09T08:15:55Z</time>
      </trkpt>
      <trkpt lat="45.05138" lon="5.78093">
        <ele>300.71</ele>
        <time>2018-09-09T08:15:57Z</time>
      </trkpt>
      <trkpt lat="45.05118" lon="5.78129">
        <ele>301.44</ele>
        <time>2018-09-09T08:15:59Z</time>
      </trkpt>
      <trkpt lat="45.05096" lon="5.78164">
        <ele>303.53</ele>
        <time>2018-09-09T08:16:01Z</time>
      </trkpt>
      <trkpt lat="45.05075" lon="5.782">
        <ele>303.51</ele>
        <time>2018-09-09T08:16:03Z</time>
      </trkpt>
      <trkpt lat="45.05053" lon="5.78237">
        <ele>304.42</ele>
        <time>2018-09-09T08:16:05Z</time>
      </trkpt>
      <trkpt lat="45.05034" lon="5.78278">
        <ele>306.32</ele>
        <time>2018-09-09T08:16:07Z</time>
      </trkpt>
      <trkpt lat="45.0502" lon="5.78319">
        <ele>306</ele>
        <time>2018-09-09T08:16:09Z</time>
      </trkpt>
      <trkpt lat="45.05008" lon="5.78362">
        <ele>306.46</ele>
        <time>2018-09-09T08:16:11Z</time>
      </trkpt>
      <trkpt lat="45.04999" lon="5.78406">
        <ele>306.51</ele>
        <time>2018-09-09T08:16:13Z</time>
      </trkpt>
      <trkpt lat="45.04992" lon="5.78452">
        <ele>308.33</ele>
        <time>2018-09-09T08:16:15Z</time>
      </trkpt>
      <trkpt lat="45.04986" lon="5.78498">
        <ele>308.7</ele>
        <time>2018-09-09T08:16:17Z</time>
      </trkpt>
      <trkpt lat="45.04982" lon="5.78546">
        <ele>309.65</ele>
        <time>2018-09-09T08:16:19Z</time>
      </trkpt>
      <trkpt lat="45.0498" lon="5.78595">
        <ele>310.64</ele>
        <time>2018-09-09T08:16:21Z</time>
      </trkpt>
      <trkpt lat="45.04979" lon="5.78621">
        <ele>310.71</ele>
        <time>2018-09-09T08:16:22Z</time>
      </trkpt>
      <trkpt lat="45.04979" lon="5.78672">
        <ele>311.65</ele>
        <time>2018-09-09T08:16:24Z</time>
      </trkpt>
      <trkpt lat="45.04981" lon="5.78722">
        <ele>312.43</ele>
        <time>2018-09-09T08:16:26Z</time>
      </trkpt>
      <trkpt lat="45.04984" lon="5.78771">
        <ele>313.41</ele>
        <time>2018-09-09T08:16:28Z</time>
      </trkpt>
      <trkpt lat="45.04989" lon="5.7882">
        <ele>314.62</ele>
        <time>2018-09-09T08:16:30Z</time>
      </trkpt>
      <trkpt lat="45.04995" lon="5.78865">
        <ele>314.73</ele>
        <time>2018-09-09T08:16:32Z</time>
      </trkpt>
      <trkpt lat="45.05003" lon="5.78906">
        <ele>315.65</ele>
        <time>2018-09-09T08:16:34Z</time>
      </trkpt>
      <trkpt lat="45.05017" lon="5.78943">
        <ele>316.43</ele>
        <time>2018-09-09T08:16:36Z</time>
      </trkpt>
      <trkpt lat="45.05034" lon="5.78978">
        <ele>316.5</ele>
        <time>2018-09-09T08:16:38Z</time>
      </trkpt>
      <trkpt lat="45.05052" lon="5.79016">
        <ele>316.72</ele>
        <time>2018-09-09T08:16:40Z</time>
      </trkpt>
      <trkpt lat="45.0507" lon="5.79058">
        <ele>316.53</ele>
        <time>2018-09-09T08:16:42Z</time>
      </trkpt>
      <trkpt lat="45.05081" lon="5.79083">
        <ele>316.68</ele>
        <time>2018-09-09T08:16:43Z</time>
      </trkpt>
      <trkpt lat="45.05094" lon="5.7911">
        <ele>316.72</ele>
        <time>2018-09-09T08:16:44Z</time>
      </trkpt>
      <trkpt lat="45.05109" lon="5.79139">
        <ele>317.44</ele>
        <time>2018-09-09T08:16:45Z</time>
      </trkpt>
      <trkpt lat="45.05126" lon="5.79169">
        <ele>317.65</ele>
        <time>2018-09-09T08:16:46Z</time>
      </trkpt>
      <trkpt lat="45.05141" lon="5.79198">
        <ele>317.71</ele>
        <time>2018-09-09T08:16:47Z</time>
      </trkpt>
      <trkpt lat="45.05158" lon="5.79228">
        <ele>317.73</ele>
        <time>2018-09-09T08:16:48Z</time>
      </trkpt>
      <trkpt lat="45.05175" lon="5.79259">
        <ele>319.14</ele>
        <time>2018-09-09T08:16:49Z</time>
      </trkpt>
      <trkpt lat="45.05194" lon="5.79289">
        <ele>319.56</ele>
        <time>2018-09-09T08:16:50Z</time>
      </trkpt>
      <trkpt lat="45.0521" lon="5.79318">
        <ele>320.39</ele>
        <time>2018-09-09T08:16:51Z</time>
      </trkpt>
      <trkpt lat="45.05225" lon="5.79346">
        <ele>319.93</ele>
        <time>2018-09-09T08:16:52Z</time>
      </trkpt>
      <trkpt lat="45.0524" lon="5.79373">
        <ele>319.8</ele>
        <time>2018-09-09T08:16:53Z</time>
      </trkpt>
      <trkpt lat="45.05254" lon="5.794">
        <ele>320.46</ele>
        <time>2018-09-09T08:16:54Z</time>
      </trkpt>
      <trkpt lat="45.05269" lon="5.79426">
        <ele>320.66</ele>
        <time>2018-09-09T08:16:55Z</time>
      </trkpt>
      <trkpt lat="45.05283" lon="5.79451">
        <ele>321.42</ele>
        <time>2018-09-09T08:16:56Z</time>
      </trkpt>
      <trkpt lat="45.05297" lon="5.79474">
        <ele>321.64</ele>
        <time>2018-09-09T08:16:57Z</time>
      </trkpt>
      <trkpt lat="45.05311" lon="5.79498">
        <ele>321.71</ele>
        <time>2018-09-09T08:16:58Z</time>
      </trkpt>
      <trkpt lat="45.05324" lon="5.79523">
        <ele>321.73</ele>
        <time>2018-09-09T08:16:59Z</time>
      </trkpt>
      <trkpt lat="45.05336" lon="5.79548">
        <ele>321.74</ele>
        <time>2018-09-09T08:17:00Z</time>
      </trkpt>
      <trkpt lat="45.05347" lon="5.79572">
        <ele>321.04</ele>
        <time>2018-09-09T08:17:01Z</time>
      </trkpt>
      <trkpt lat="45.05358" lon="5.79597">
        <ele>321.53</ele>
        <time>2018-09-09T08:17:02Z</time>
      </trkpt>
      <trkpt lat="45.05368" lon="5.79622">
        <ele>322.38</ele>
        <time>2018-09-09T08:17:03Z</time>
      </trkpt>
      <trkpt lat="45.05379" lon="5.79646">
        <ele>322.63</ele>
        <time>2018-09-09T08:17:04Z</time>
      </trkpt>
      <trkpt lat="45.05389" lon="5.79671">
        <ele>323.41</ele>
        <time>2018-09-09T08:17:05Z</time>
      </trkpt>
      <trkpt lat="45.05399" lon="5.79696">
        <ele>322.94</ele>
        <time>2018-09-09T08:17:06Z</time>
      </trkpt>
      <trkpt lat="45.05409" lon="5.7972">
        <ele>322.8</ele>
        <time>2018-09-09T08:17:07Z</time>
      </trkpt>
      <trkpt lat="45.05417" lon="5.79746">
        <ele>322.76</ele>
        <time>2018-09-09T08:17:08Z</time>
      </trkpt>
      <trkpt lat="45.05425" lon="5.79773">
        <ele>323.45</ele>
        <time>2018-09-09T08:17:09Z</time>
      </trkpt>
      <trkpt lat="45.05433" lon="5.79799">
        <ele>323.65</ele>
        <time>2018-09-09T08:17:10Z</time>
      </trkpt>
      <trkpt lat="45.05438" lon="5.79825">
        <ele>323.71</ele>
        <time>2018-09-09T08:17:11Z</time>
      </trkpt>
      <trkpt lat="45.05439" lon="5.79851">
        <ele>324.43</ele>
        <time>2018-09-09T08:17:12Z</time>
      </trkpt>
      <trkpt lat="45.05436" lon="5.79878">
        <ele>323.95</ele>
        <time>2018-09-09T08:17:13Z</time>
      </trkpt>
      <trkpt lat="45.05431" lon="5.79906">
        <ele>323.8</ele>
        <time>2018-09-09T08:17:14Z</time>
      </trkpt>
      <trkpt lat="45.05422" lon="5.79934">
        <ele>324.46</ele>
        <time>2018-09-09T08:17:15Z</time>
      </trkpt>
      <trkpt lat="45.05415" lon="5.79964">
        <ele>324.66</ele>
        <time>2018-09-09T08:17:16Z</time>
      </trkpt>
      <trkpt lat="45.05408" lon="5.79996">
        <ele>324.02</ele>
        <time>2018-09-09T08:17:17Z</time>
      </trkpt>
      <trkpt lat="45.054" lon="5.80029">
        <ele>324.52</ele>
        <time>2018-09-09T08:17:18Z</time>
      </trkpt>
      <trkpt lat="45.05392" lon="5.8006">
        <ele>323.98</ele>
        <time>2018-09-09T08:17:19Z</time>
      </trkpt>
      <trkpt lat="45.05385" lon="5.80092">
        <ele>324.51</ele>
        <time>2018-09-09T08:17:20Z</time>
      </trkpt>
      <trkpt lat="45.05379" lon="5.80123">
        <ele>325.37</ele>
        <time>2018-09-09T08:17:21Z</time>
      </trkpt>
      <trkpt lat="45.05372" lon="5.80154">
        <ele>324.93</ele>
        <time>2018-09-09T08:17:22Z</time>
      </trkpt>
      <trkpt lat="45.05364" lon="5.80184">
        <ele>325.5</ele>
        <time>2018-09-09T08:17:23Z</time>
      </trkpt>
      <trkpt lat="45.05358" lon="5.80215">
        <ele>326.37</ele>
        <time>2018-09-09T08:17:24Z</time>
      </trkpt>
      <trkpt lat="45.05352" lon="5.80245">
        <ele>327.33</ele>
        <time>2018-09-09T08:17:25Z</time>
      </trkpt>
      <trkpt lat="45.05345" lon="5.80276">
        <ele>328.32</ele>
        <time>2018-09-09T08:17:26Z</time>
      </trkpt>
      <trkpt lat="45.0534" lon="5.80307">
        <ele>329.31</ele>
        <time>2018-09-09T08:17:27Z</time>
      </trkpt>
      <trkpt lat="45.05335" lon="5.80338">
        <ele>329.61</ele>
        <time>2018-09-09T08:17:28Z</time>
      </trkpt>
      <trkpt lat="45.05333" lon="5.8037">
        <ele>329.7</ele>
        <time>2018-09-09T08:17:29Z</time>
      </trkpt>
      <trkpt lat="45.05332" lon="5.80402">
        <ele>330.43</ele>
        <time>2018-09-09T08:17:30Z</time>
      </trkpt>
      <trkpt lat="45.05333" lon="5.80433">
        <ele>332.05</ele>
        <time>2018-09-09T08:17:31Z</time>
      </trkpt>
      <trkpt lat="45.05335" lon="5.80465">
        <ele>333.23</ele>
        <time>2018-09-09T08:17:32Z</time>
      </trkpt>
      <trkpt lat="45.05339" lon="5.80497">
        <ele>334.99</ele>
        <time>2018-09-09T08:17:33Z</time>
      </trkpt>
      <trkpt lat="45.05345" lon="5.80528">
        <ele>336.22</ele>
        <time>2018-09-09T08:17:34Z</time>
      </trkpt>
      <trkpt lat="45.05352" lon="5.80559">
        <ele>337.28</ele>
        <time>2018-09-09T08:17:35Z</time>
      </trkpt>
      <trkpt lat="45.05359" lon="5.80591">
        <ele>337.6</ele>
        <time>2018-09-09T08:17:36Z</time>
      </trkpt>
      <trkpt lat="45.05367" lon="5.80622">
        <ele>338.4</ele>
        <time>2018-09-09T08:17:37Z</time>
      </trkpt>
      <trkpt lat="45.05375" lon="5.80652">
        <ele>339.34</ele>
        <time>2018-09-09T08:17:38Z</time>
      </trkpt>
      <trkpt lat="45.05383" lon="5.80683">
        <ele>340.32</ele>
        <time>2018-09-09T08:17:39Z</time>
      </trkpt>
      <trkpt lat="45.05391" lon="5.80714">
        <ele>341.31</ele>
        <time>2018-09-09T08:17:40Z</time>
      </trkpt>
      <trkpt lat="45.05399" lon="5.80744">
        <ele>342.31</ele>
        <time>2018-09-09T08:17:41Z</time>
      </trkpt>
      <trkpt lat="45.05407" lon="5.80775">
        <ele>343.31</ele>
        <time>2018-09-09T08:17:42Z</time>
      </trkpt>
      <trkpt lat="45.05415" lon="5.80806">
        <ele>344.31</ele>
        <time>2018-09-09T08:17:43Z</time>
      </trkpt>
      <trkpt lat="45.05423" lon="5.80838">
        <ele>345.31</ele>
        <time>2018-09-09T08:17:44Z</time>
      </trkpt>
      <trkpt lat="45.05432" lon="5.8087">
        <ele>346.31</ele>
        <time>2018-09-09T08:17:45Z</time>
      </trkpt>
      <trkpt lat="45.05439" lon="5.80902">
        <ele>347.31</ele>
        <time>2018-09-09T08:17:46Z</time>
      </trkpt>
      <trkpt lat="45.05447" lon="5.80934">
        <ele>348.31</ele>
        <time>2018-09-09T08:17:47Z</time>
      </trkpt>
      <trkpt lat="45.05454" lon="5.80966">
        <ele>349.31</ele>
        <time>2018-09-09T08:17:48Z</time>
      </trkpt>
      <trkpt lat="45.05458" lon="5.80999">
        <ele>349.61</ele>
        <time>2018-09-09T08:17:49Z</time>
      </trkpt>
      <trkpt lat="45.05461" lon="5.81032">
        <ele>350.4</ele>
        <time>2018-09-09T08:17:50Z</time>
      </trkpt>
      <trkpt lat="45.05461" lon="5.81065">
        <ele>350.64</ele>
        <time>2018-09-09T08:17:51Z</time>
      </trkpt>
      <trkpt lat="45.05458" lon="5.81098">
        <ele>350.71</ele>
        <time>2018-09-09T08:17:52Z</time>
      </trkpt>
      <trkpt lat="45.05454" lon="5.81131">
        <ele>352.13</ele>
        <time>2018-09-09T08:17:53Z</time>
      </trkpt>
      <trkpt lat="45.05447" lon="5.81163">
        <ele>351.16</ele>
        <time>2018-09-09T08:17:54Z</time>
      </trkpt>
      <trkpt lat="45.0544" lon="5.81195">
        <ele>350.17</ele>
        <time>2018-09-09T08:17:55Z</time>
      </trkpt>
      <trkpt lat="45.05434" lon="5.81226">
        <ele>349.87</ele>
        <time>2018-09-09T08:17:56Z</time>
      </trkpt>
      <trkpt lat="45.0543" lon="5.81257">
        <ele>349.08</ele>
        <time>2018-09-09T08:17:57Z</time>
      </trkpt>
      <trkpt lat="45.05426" lon="5.81286">
        <ele>348.14</ele>
        <time>2018-09-09T08:17:58Z</time>
      </trkpt>
      <trkpt lat="45.05424" lon="5.81315">
        <ele>347.86</ele>
        <time>2018-09-09T08:17:59Z</time>
      </trkpt>
      <trkpt lat="45.05423" lon="5.81344">
        <ele>347.08</ele>
        <time>2018-09-09T08:18:00Z</time>
      </trkpt>
      <trkpt lat="45.05423" lon="5.81372">
        <ele>346.14</ele>
        <time>2018-09-09T08:18:01Z</time>
      </trkpt>
      <trkpt lat="45.05424" lon="5.81402">
        <ele>346.56</ele>
        <time>2018-09-09T08:18:02Z</time>
      </trkpt>
      <trkpt lat="45.05425" lon="5.81431">
        <ele>345.99</ele>
        <time>2018-09-09T08:18:03Z</time>
      </trkpt>
      <trkpt lat="45.05424" lon="5.81459">
        <ele>344.41</ele>
        <time>2018-09-09T08:18:04Z</time>
      </trkpt>
      <trkpt lat="45.05423" lon="5.81488">
        <ele>343.24</ele>
        <time>2018-09-09T08:18:05Z</time>
      </trkpt>
      <trkpt lat="45.05421" lon="5.81517">
        <ele>342.89</ele>
        <time>2018-09-09T08:18:06Z</time>
      </trkpt>
      <trkpt lat="45.05418" lon="5.81544">
        <ele>341.39</ele>
        <time>2018-09-09T08:18:07Z</time>
      </trkpt>
      <trkpt lat="45.05415" lon="5.81572">
        <ele>340.93</ele>
        <time>2018-09-09T08:18:08Z</time>
      </trkpt>
      <trkpt lat="45.05412" lon="5.816">
        <ele>340.8</ele>
        <time>2018-09-09T08:18:09Z</time>
      </trkpt>
      <trkpt lat="45.05409" lon="5.81628">
        <ele>340.76</ele>
        <time>2018-09-09T08:18:10Z</time>
      </trkpt>
      <trkpt lat="45.05406" lon="5.81656">
        <ele>341.45</ele>
        <time>2018-09-09T08:18:11Z</time>
      </trkpt>
      <trkpt lat="45.05403" lon="5.81685">
        <ele>341.65</ele>
        <time>2018-09-09T08:18:12Z</time>
      </trkpt>
      <trkpt lat="45.054" lon="5.81713">
        <ele>341.71</ele>
        <time>2018-09-09T08:18:13Z</time>
      </trkpt>
      <trkpt lat="45.05397" lon="5.81741">
        <ele>341.73</ele>
        <time>2018-09-09T08:18:14Z</time>
      </trkpt>
      <trkpt lat="45.05393" lon="5.8177">
        <ele>341.74</ele>
        <time>2018-09-09T08:18:15Z</time>
      </trkpt>
      <trkpt lat="45.0539" lon="5.81798">
        <ele>341.74</ele>
        <time>2018-09-09T08:18:16Z</time>
      </trkpt>
      <trkpt lat="45.05386" lon="5.81828">
        <ele>341.74</ele>
        <time>2018-09-09T08:18:17Z</time>
      </trkpt>
      <trkpt lat="45.05383" lon="5.81857">
        <ele>342.44</ele>
        <time>2018-09-09T08:18:18Z</time>
      </trkpt>
      <trkpt lat="45.05379" lon="5.81886">
        <ele>341.95</ele>
        <time>2018-09-09T08:18:19Z</time>
      </trkpt>
      <trkpt lat="45.05376" lon="5.81914">
        <ele>342.5</ele>
        <time>2018-09-09T08:18:20Z</time>
      </trkpt>
      <trkpt lat="45.05373" lon="5.81942">
        <ele>342.67</ele>
        <time>2018-09-09T08:18:21Z</time>
      </trkpt>
      <trkpt lat="45.0537" lon="5.8197">
        <ele>343.42</ele>
        <time>2018-09-09T08:18:22Z</time>
      </trkpt>
      <trkpt lat="45.05367" lon="5.81999">
        <ele>343.64</ele>
        <time>2018-09-09T08:18:23Z</time>
      </trkpt>
      <trkpt lat="45.05363" lon="5.82026">
        <ele>343.71</ele>
        <time>2018-09-09T08:18:24Z</time>
      </trkpt>
      <trkpt lat="45.0536" lon="5.82054">
        <ele>343.73</ele>
        <time>2018-09-09T08:18:25Z</time>
      </trkpt>
      <trkpt lat="45.05357" lon="5.82082">
        <ele>344.44</ele>
        <time>2018-09-09T08:18:26Z</time>
      </trkpt>
      <trkpt lat="45.05354" lon="5.8211">
        <ele>344.65</ele>
        <time>2018-09-09T08:18:27Z</time>
      </trkpt>
      <trkpt lat="45.05351" lon="5.82138">
        <ele>344.71</ele>
        <time>2018-09-09T08:18:28Z</time>
      </trkpt>
      <trkpt lat="45.05348" lon="5.82166">
        <ele>345.43</ele>
        <time>2018-09-09T08:18:29Z</time>
      </trkpt>
      <trkpt lat="45.05345" lon="5.82194">
        <ele>345.65</ele>
        <time>2018-09-09T08:18:30Z</time>
      </trkpt>
      <trkpt lat="45.05342" lon="5.82222">
        <ele>345.71</ele>
        <time>2018-09-09T08:18:31Z</time>
      </trkpt>
      <trkpt lat="45.05339" lon="5.8225">
        <ele>346.43</ele>
        <time>2018-09-09T08:18:32Z</time>
      </trkpt>
      <trkpt lat="45.05336" lon="5.82278">
        <ele>347.35</ele>
        <time>2018-09-09T08:18:33Z</time>
      </trkpt>
      <trkpt lat="45.05333" lon="5.82306">
        <ele>347.62</ele>
        <time>2018-09-09T08:18:34Z</time>
      </trkpt>
      <trkpt lat="45.0533" lon="5.82334">
        <ele>347.71</ele>
        <time>2018-09-09T08:18:35Z</time>
      </trkpt>
      <trkpt lat="45.05326" lon="5.82363">
        <ele>347.73</ele>
        <time>2018-09-09T08:18:36Z</time>
      </trkpt>
      <trkpt lat="45.05323" lon="5.82392">
        <ele>348.44</ele>
        <time>2018-09-09T08:18:37Z</time>
      </trkpt>
      <trkpt lat="45.05319" lon="5.82421">
        <ele>349.35</ele>
        <time>2018-09-09T08:18:38Z</time>
      </trkpt>
      <trkpt lat="45.05316" lon="5.82449">
        <ele>348.92</ele>
        <time>2018-09-09T08:18:39Z</time>
      </trkpt>
      <trkpt lat="45.05312" lon="5.82478">
        <ele>349.5</ele>
        <time>2018-09-09T08:18:40Z</time>
      </trkpt>
      <trkpt lat="45.05309" lon="5.82507">
        <ele>349.67</ele>
        <time>2018-09-09T08:18:41Z</time>
      </trkpt>
      <trkpt lat="45.05306" lon="5.82537">
        <ele>350.42</ele>
        <time>2018-09-09T08:18:42Z</time>
      </trkpt>
      <trkpt lat="45.05302" lon="5.82567">
        <ele>350.64</ele>
        <time>2018-09-09T08:18:43Z</time>
      </trkpt>
      <trkpt lat="45.053" lon="5.82596">
        <ele>349.31</ele>
        <time>2018-09-09T08:18:44Z</time>
      </trkpt>
      <trkpt lat="45.05297" lon="5.82626">
        <ele>348.91</ele>
        <time>2018-09-09T08:18:45Z</time>
      </trkpt>
      <trkpt lat="45.05293" lon="5.82655">
        <ele>349.49</ele>
        <time>2018-09-09T08:18:46Z</time>
      </trkpt>
      <trkpt lat="45.0529" lon="5.82684">
        <ele>349.67</ele>
        <time>2018-09-09T08:18:47Z</time>
      </trkpt>
      <trkpt lat="45.05287" lon="5.82713">
        <ele>349.72</ele>
        <time>2018-09-09T08:18:48Z</time>
      </trkpt>
      <trkpt lat="45.05283" lon="5.82743">
        <ele>350.43</ele>
        <time>2018-09-09T08:18:49Z</time>
      </trkpt>
      <trkpt lat="45.05279" lon="5.8277">
        <ele>351.35</ele>
        <time>2018-09-09T08:18:50Z</time>
      </trkpt>
      <trkpt lat="45.05275" lon="5.82799">
        <ele>352.32</ele>
        <time>2018-09-09T08:18:51Z</time>
      </trkpt>
      <trkpt lat="45.05272" lon="5.82828">
        <ele>352.62</ele>
        <time>2018-09-09T08:18:52Z</time>
      </trkpt>
      <trkpt lat="45.0527" lon="5.82856">
        <ele>352.7</ele>
        <time>2018-09-09T08:18:53Z</time>
      </trkpt>
      <trkpt lat="45.05266" lon="5.82884">
        <ele>352.73</ele>
        <time>2018-09-09T08:18:54Z</time>
      </trkpt>
      <trkpt lat="45.05263" lon="5.82912">
        <ele>352.74</ele>
        <time>2018-09-09T08:18:55Z</time>
      </trkpt>
      <trkpt lat="45.0526" lon="5.82939">
        <ele>353.44</ele>
        <time>2018-09-09T08:18:56Z</time>
      </trkpt>
      <trkpt lat="45.05257" lon="5.82966">
        <ele>353.65</ele>
        <time>2018-09-09T08:18:57Z</time>
      </trkpt>
      <trkpt lat="45.05254" lon="5.82993">
        <ele>354.41</ele>
        <time>2018-09-09T08:18:58Z</time>
      </trkpt>
      <trkpt lat="45.0525" lon="5.83021">
        <ele>354.64</ele>
        <time>2018-09-09T08:18:59Z</time>
      </trkpt>
      <trkpt lat="45.05246" lon="5.83048">
        <ele>354.71</ele>
        <time>2018-09-09T08:19:00Z</time>
      </trkpt>
      <trkpt lat="45.0524" lon="5.83074">
        <ele>354.73</ele>
        <time>2018-09-09T08:19:01Z</time>
      </trkpt>
      <trkpt lat="45.05233" lon="5.831">
        <ele>354.74</ele>
        <time>2018-09-09T08:19:02Z</time>
      </trkpt>
      <trkpt lat="45.05225" lon="5.83126">
        <ele>355.44</ele>
        <time>2018-09-09T08:19:03Z</time>
      </trkpt>
      <trkpt lat="45.05217" lon="5.83151">
        <ele>356.35</ele>
        <time>2018-09-09T08:19:04Z</time>
      </trkpt>
      <trkpt lat="45.05207" lon="5.83176">
        <ele>357.32</ele>
        <time>2018-09-09T08:19:05Z</time>
      </trkpt>
      <trkpt lat="45.05198" lon="5.83201">
        <ele>357.62</ele>
        <time>2018-09-09T08:19:06Z</time>
      </trkpt>
      <trkpt lat="45.05189" lon="5.83226">
        <ele>357.7</ele>
        <time>2018-09-09T08:19:07Z</time>
      </trkpt>
      <trkpt lat="45.05181" lon="5.83253">
        <ele>357.73</ele>
        <time>2018-09-09T08:19:08Z</time>
      </trkpt>
      <trkpt lat="45.05173" lon="5.83279">
        <ele>357.74</ele>
        <time>2018-09-09T08:19:09Z</time>
      </trkpt>
      <trkpt lat="45.05167" lon="5.83306">
        <ele>358.44</ele>
        <time>2018-09-09T08:19:10Z</time>
      </trkpt>
      <trkpt lat="45.05163" lon="5.83333">
        <ele>358.65</ele>
        <time>2018-09-09T08:19:11Z</time>
      </trkpt>
      <trkpt lat="45.05159" lon="5.83361">
        <ele>359.41</ele>
        <time>2018-09-09T08:19:12Z</time>
      </trkpt>
      <trkpt lat="45.05157" lon="5.8339">
        <ele>358.94</ele>
        <time>2018-09-09T08:19:13Z</time>
      </trkpt>
      <trkpt lat="45.05157" lon="5.83419">
        <ele>358.8</ele>
        <time>2018-09-09T08:19:14Z</time>
      </trkpt>
      <trkpt lat="45.05157" lon="5.83448">
        <ele>358.76</ele>
        <time>2018-09-09T08:19:15Z</time>
      </trkpt>
      <trkpt lat="45.05161" lon="5.83477">
        <ele>359.45</ele>
        <time>2018-09-09T08:19:16Z</time>
      </trkpt>
      <trkpt lat="45.05165" lon="5.83506">
        <ele>359.65</ele>
        <time>2018-09-09T08:19:17Z</time>
      </trkpt>
      <trkpt lat="45.05171" lon="5.83535">
        <ele>359.71</ele>
        <time>2018-09-09T08:19:18Z</time>
      </trkpt>
      <trkpt lat="45.05179" lon="5.83563">
        <ele>359.73</ele>
        <time>2018-09-09T08:19:19Z</time>
      </trkpt>
      <trkpt lat="45.05189" lon="5.8359">
        <ele>360.44</ele>
        <time>2018-09-09T08:19:20Z</time>
      </trkpt>
      <trkpt lat="45.05199" lon="5.83615">
        <ele>361.35</ele>
        <time>2018-09-09T08:19:21Z</time>
      </trkpt>
      <trkpt lat="45.0521" lon="5.83639">
        <ele>361.62</ele>
        <time>2018-09-09T08:19:22Z</time>
      </trkpt>
      <trkpt lat="45.05224" lon="5.83663">
        <ele>361.71</ele>
        <time>2018-09-09T08:19:23Z</time>
      </trkpt>
      <trkpt lat="45.05238" lon="5.83685">
        <ele>362.43</ele>
        <time>2018-09-09T08:19:24Z</time>
      </trkpt>
      <trkpt lat="45.05253" lon="5.83706">
        <ele>362.65</ele>
        <time>2018-09-09T08:19:25Z</time>
      </trkpt>
      <trkpt lat="45.05267" lon="5.83727">
        <ele>364.11</ele>
        <time>2018-09-09T08:19:26Z</time>
      </trkpt>
      <trkpt lat="45.05282" lon="5.83746">
        <ele>364.55</ele>
        <time>2018-09-09T08:19:27Z</time>
      </trkpt>
      <trkpt lat="45.05297" lon="5.83766">
        <ele>364.68</ele>
        <time>2018-09-09T08:19:28Z</time>
      </trkpt>
      <trkpt lat="45.05313" lon="5.83786">
        <ele>365.42</ele>
        <time>2018-09-09T08:19:29Z</time>
      </trkpt>
      <trkpt lat="45.05329" lon="5.83805">
        <ele>365.65</ele>
        <time>2018-09-09T08:19:30Z</time>
      </trkpt>
      <trkpt lat="45.05343" lon="5.83826">
        <ele>365.01</ele>
        <time>2018-09-09T08:19:31Z</time>
      </trkpt>
      <trkpt lat="45.05357" lon="5.83846">
        <ele>365.52</ele>
        <time>2018-09-09T08:19:32Z</time>
      </trkpt>
      <trkpt lat="45.05369" lon="5.83868">
        <ele>364.98</ele>
        <time>2018-09-09T08:19:33Z</time>
      </trkpt>
      <trkpt lat="45.05378" lon="5.83893">
        <ele>365.51</ele>
        <time>2018-09-09T08:19:34Z</time>
      </trkpt>
      <trkpt lat="45.05386" lon="5.83919">
        <ele>366.37</ele>
        <time>2018-09-09T08:19:35Z</time>
      </trkpt>
      <trkpt lat="45.05392" lon="5.83947">
        <ele>367.33</ele>
        <time>2018-09-09T08:19:36Z</time>
      </trkpt>
      <trkpt lat="45.05394" lon="5.83972">
        <ele>367.62</ele>
        <time>2018-09-09T08:19:37Z</time>
      </trkpt>
      <trkpt lat="45.05394" lon="5.84002">
        <ele>368.4</ele>
        <time>2018-09-09T08:19:38Z</time>
      </trkpt>
      <trkpt lat="45.05398" lon="5.84029">
        <ele>370.04</ele>
        <time>2018-09-09T08:19:39Z</time>
      </trkpt>
      <trkpt lat="45.05404" lon="5.84055">
        <ele>371.23</ele>
        <time>2018-09-09T08:19:40Z</time>
      </trkpt>
      <trkpt lat="45.05411" lon="5.84082">
        <ele>371.59</ele>
        <time>2018-09-09T08:19:41Z</time>
      </trkpt>
      <trkpt lat="45.05417" lon="5.84107">
        <ele>372.4</ele>
        <time>2018-09-09T08:19:42Z</time>
      </trkpt>
      <trkpt lat="45.05423" lon="5.84134">
        <ele>372.64</ele>
        <time>2018-09-09T08:19:43Z</time>
      </trkpt>
      <trkpt lat="45.05427" lon="5.84162">
        <ele>372.01</ele>
        <time>2018-09-09T08:19:44Z</time>
      </trkpt>
      <trkpt lat="45.05429" lon="5.84188">
        <ele>372.52</ele>
        <time>2018-09-09T08:19:45Z</time>
      </trkpt>
      <trkpt lat="45.05433" lon="5.84215">
        <ele>372.68</ele>
        <time>2018-09-09T08:19:46Z</time>
      </trkpt>
      <trkpt lat="45.05438" lon="5.84242">
        <ele>372.72</ele>
        <time>2018-09-09T08:19:47Z</time>
      </trkpt>
      <trkpt lat="45.05442" lon="5.84269">
        <ele>372.74</ele>
        <time>2018-09-09T08:19:48Z</time>
      </trkpt>
      <trkpt lat="45.05447" lon="5.84296">
        <ele>372.74</ele>
        <time>2018-09-09T08:19:49Z</time>
      </trkpt>
      <trkpt lat="45.05451" lon="5.84324">
        <ele>372.74</ele>
        <time>2018-09-09T08:19:50Z</time>
      </trkpt>
      <trkpt lat="45.05455" lon="5.8435">
        <ele>372.74</ele>
        <time>2018-09-09T08:19:51Z</time>
      </trkpt>
      <trkpt lat="45.0546" lon="5.84378">
        <ele>374.14</ele>
        <time>2018-09-09T08:19:52Z</time>
      </trkpt>
      <trkpt lat="45.05464" lon="5.84407">
        <ele>374.56</ele>
        <time>2018-09-09T08:19:53Z</time>
      </trkpt>
      <trkpt lat="45.05467" lon="5.84435">
        <ele>375.39</ele>
        <time>2018-09-09T08:19:54Z</time>
      </trkpt>
      <trkpt lat="45.05469" lon="5.84463">
        <ele>375.63</ele>
        <time>2018-09-09T08:19:55Z</time>
      </trkpt>
      <trkpt lat="45.05469" lon="5.84492">
        <ele>375.71</ele>
        <time>2018-09-09T08:19:56Z</time>
      </trkpt>
      <trkpt lat="45.05468" lon="5.84521">
        <ele>376.43</ele>
        <time>2018-09-09T08:19:57Z</time>
      </trkpt>
      <trkpt lat="45.05468" lon="5.8455">
        <ele>377.35</ele>
        <time>2018-09-09T08:19:58Z</time>
      </trkpt>
      <trkpt lat="45.05468" lon="5.84579">
        <ele>377.62</ele>
        <time>2018-09-09T08:19:59Z</time>
      </trkpt>
      <trkpt lat="45.05468" lon="5.84608">
        <ele>377.71</ele>
        <time>2018-09-09T08:20:00Z</time>
      </trkpt>
      <trkpt lat="45.05467" lon="5.84637">
        <ele>377.73</ele>
        <time>2018-09-09T08:20:01Z</time>
      </trkpt>
      <trkpt lat="45.05467" lon="5.84666">
        <ele>377.74</ele>
        <time>2018-09-09T08:20:02Z</time>
      </trkpt>
      <trkpt lat="45.05466" lon="5.84695">
        <ele>378.44</ele>
        <time>2018-09-09T08:20:03Z</time>
      </trkpt>
      <trkpt lat="45.05466" lon="5.84724">
        <ele>379.35</ele>
        <time>2018-09-09T08:20:04Z</time>
      </trkpt>
      <trkpt lat="45.05465" lon="5.84753">
        <ele>380.32</ele>
        <time>2018-09-09T08:20:05Z</time>
      </trkpt>
      <trkpt lat="45.05465" lon="5.84782">
        <ele>381.32</ele>
        <time>2018-09-09T08:20:06Z</time>
      </trkpt>
      <trkpt lat="45.05465" lon="5.8481">
        <ele>381.61</ele>
        <time>2018-09-09T08:20:07Z</time>
      </trkpt>
      <trkpt lat="45.05464" lon="5.84838">
        <ele>382.4</ele>
        <time>2018-09-09T08:20:08Z</time>
      </trkpt>
      <trkpt lat="45.05464" lon="5.84867">
        <ele>382.64</ele>
        <time>2018-09-09T08:20:09Z</time>
      </trkpt>
      <trkpt lat="45.05463" lon="5.84895">
        <ele>382.71</ele>
        <time>2018-09-09T08:20:10Z</time>
      </trkpt>
      <trkpt lat="45.05461" lon="5.84921">
        <ele>383.43</ele>
        <time>2018-09-09T08:20:11Z</time>
      </trkpt>
      <trkpt lat="45.05459" lon="5.84949">
        <ele>382.95</ele>
        <time>2018-09-09T08:20:12Z</time>
      </trkpt>
      <trkpt lat="45.0545" lon="5.84973">
        <ele>383.5</ele>
        <time>2018-09-09T08:20:13Z</time>
      </trkpt>
      <trkpt lat="45.05441" lon="5.84995">
        <ele>384.37</ele>
        <time>2018-09-09T08:20:14Z</time>
      </trkpt>
      <trkpt lat="45.05431" lon="5.85017">
        <ele>383.93</ele>
        <time>2018-09-09T08:20:15Z</time>
      </trkpt>
      <trkpt lat="45.05412" lon="5.85029">
        <ele>383.1</ele>
        <time>2018-09-09T08:20:16Z</time>
      </trkpt>
      <trkpt lat="45.05395" lon="5.85043">
        <ele>382.85</ele>
        <time>2018-09-09T08:20:17Z</time>
      </trkpt>
      <trkpt lat="45.0538" lon="5.85059">
        <ele>382.77</ele>
        <time>2018-09-09T08:20:18Z</time>
      </trkpt>
      <trkpt lat="45.05366" lon="5.85078">
        <ele>382.05</ele>
        <time>2018-09-09T08:20:19Z</time>
      </trkpt>
      <trkpt lat="45.05353" lon="5.85099">
        <ele>381.83</ele>
        <time>2018-09-09T08:20:20Z</time>
      </trkpt>
      <trkpt lat="45.05341" lon="5.85122">
        <ele>381.07</ele>
        <time>2018-09-09T08:20:21Z</time>
      </trkpt>
      <trkpt lat="45.05333" lon="5.85147">
        <ele>380.84</ele>
        <time>2018-09-09T08:20:22Z</time>
      </trkpt>
      <trkpt lat="45.05328" lon="5.85174">
        <ele>380.07</ele>
        <time>2018-09-09T08:20:23Z</time>
      </trkpt>
      <trkpt lat="45.05324" lon="5.85206">
        <ele>379.84</ele>
        <time>2018-09-09T08:20:24Z</time>
      </trkpt>
      <trkpt lat="45.05322" lon="5.85234">
        <ele>378.37</ele>
        <time>2018-09-09T08:20:25Z</time>
      </trkpt>
      <trkpt lat="45.05325" lon="5.85264">
        <ele>377.93</ele>
        <time>2018-09-09T08:20:26Z</time>
      </trkpt>
      <trkpt lat="45.05348" lon="5.85287">
        <ele>379.9</ele>
        <time>2018-09-09T08:20:27Z</time>
      </trkpt>
      <trkpt lat="45.05355" lon="5.85313">
        <ele>380.49</ele>
        <time>2018-09-09T08:20:28Z</time>
      </trkpt>
      <trkpt lat="45.05363" lon="5.85358">
        <ele>381.63</ele>
        <time>2018-09-09T08:20:30Z</time>
      </trkpt>
      <trkpt lat="45.05369" lon="5.85395">
        <ele>381.73</ele>
        <time>2018-09-09T08:20:32Z</time>
      </trkpt>
      <trkpt lat="45.05374" lon="5.8542">
        <ele>380.83</ele>
        <time>2018-09-09T08:20:34Z</time>
      </trkpt>
      <trkpt lat="45.05381" lon="5.85444">
        <ele>380.54</ele>
        <time>2018-09-09T08:20:40Z</time>
      </trkpt>
      <trkpt lat="45.05385" lon="5.85474">
        <ele>384.96</ele>
        <time>2018-09-09T08:22:22Z</time>
      </trkpt>
      <trkpt lat="45.05401" lon="5.85497">
        <ele>382.86</ele>
        <time>2018-09-09T08:22:26Z</time>
      </trkpt>
      <trkpt lat="45.05409" lon="5.85529">
        <ele>381.62</ele>
        <time>2018-09-09T08:22:29Z</time>
      </trkpt>
      <trkpt lat="45.05416" lon="5.85561">
        <ele>381.52</ele>
        <time>2018-09-09T08:22:31Z</time>
      </trkpt>
      <trkpt lat="45.05425" lon="5.85609">
        <ele>380.6</ele>
        <time>2018-09-09T08:22:33Z</time>
      </trkpt>
      <trkpt lat="45.05429" lon="5.85635">
        <ele>380.7</ele>
        <time>2018-09-09T08:22:34Z</time>
      </trkpt>
      <trkpt lat="45.05434" lon="5.85663">
        <ele>381.43</ele>
        <time>2018-09-09T08:22:35Z</time>
      </trkpt>
      <trkpt lat="45.05441" lon="5.85691">
        <ele>381.65</ele>
        <time>2018-09-09T08:22:36Z</time>
      </trkpt>
      <trkpt lat="45.05448" lon="5.85718">
        <ele>382.41</ele>
        <time>2018-09-09T08:22:37Z</time>
      </trkpt>
      <trkpt lat="45.05457" lon="5.85745">
        <ele>382.64</ele>
        <time>2018-09-09T08:22:38Z</time>
      </trkpt>
      <trkpt lat="45.05467" lon="5.85771">
        <ele>383.41</ele>
        <time>2018-09-09T08:22:39Z</time>
      </trkpt>
      <trkpt lat="45.05478" lon="5.85796">
        <ele>384.34</ele>
        <time>2018-09-09T08:22:40Z</time>
      </trkpt>
      <trkpt lat="45.05491" lon="5.8582">
        <ele>385.32</ele>
        <time>2018-09-09T08:22:41Z</time>
      </trkpt>
      <trkpt lat="45.05506" lon="5.85842">
        <ele>386.32</ele>
        <time>2018-09-09T08:22:42Z</time>
      </trkpt>
      <trkpt lat="45.05522" lon="5.85862">
        <ele>386.61</ele>
        <time>2018-09-09T08:22:43Z</time>
      </trkpt>
      <trkpt lat="45.0554" lon="5.85882">
        <ele>386.7</ele>
        <time>2018-09-09T08:22:44Z</time>
      </trkpt>
      <trkpt lat="45.05559" lon="5.85901">
        <ele>387.43</ele>
        <time>2018-09-09T08:22:45Z</time>
      </trkpt>
      <trkpt lat="45.05579" lon="5.8592">
        <ele>388.35</ele>
        <time>2018-09-09T08:22:46Z</time>
      </trkpt>
      <trkpt lat="45.05599" lon="5.85939">
        <ele>389.32</ele>
        <time>2018-09-09T08:22:47Z</time>
      </trkpt>
      <trkpt lat="45.05618" lon="5.8596">
        <ele>389.62</ele>
        <time>2018-09-09T08:22:48Z</time>
      </trkpt>
      <trkpt lat="45.05638" lon="5.8598">
        <ele>390.4</ele>
        <time>2018-09-09T08:22:49Z</time>
      </trkpt>
      <trkpt lat="45.05658" lon="5.86">
        <ele>390.64</ele>
        <time>2018-09-09T08:22:50Z</time>
      </trkpt>
      <trkpt lat="45.05677" lon="5.86021">
        <ele>390.71</ele>
        <time>2018-09-09T08:22:51Z</time>
      </trkpt>
      <trkpt lat="45.05697" lon="5.8604">
        <ele>390.73</ele>
        <time>2018-09-09T08:22:52Z</time>
      </trkpt>
      <trkpt lat="45.05717" lon="5.86061">
        <ele>392.14</ele>
        <time>2018-09-09T08:22:53Z</time>
      </trkpt>
      <trkpt lat="45.05737" lon="5.86081">
        <ele>392.56</ele>
        <time>2018-09-09T08:22:54Z</time>
      </trkpt>
      <trkpt lat="45.05757" lon="5.86102">
        <ele>392.69</ele>
        <time>2018-09-09T08:22:55Z</time>
      </trkpt>
      <trkpt lat="45.05777" lon="5.86122">
        <ele>393.42</ele>
        <time>2018-09-09T08:22:56Z</time>
      </trkpt>
      <trkpt lat="45.05797" lon="5.86141">
        <ele>394.35</ele>
        <time>2018-09-09T08:22:57Z</time>
      </trkpt>
      <trkpt lat="45.05815" lon="5.8616">
        <ele>394.62</ele>
        <time>2018-09-09T08:22:58Z</time>
      </trkpt>
      <trkpt lat="45.05833" lon="5.86178">
        <ele>395.41</ele>
        <time>2018-09-09T08:22:59Z</time>
      </trkpt>
      <trkpt lat="45.05852" lon="5.86198">
        <ele>396.34</ele>
        <time>2018-09-09T08:23:00Z</time>
      </trkpt>
      <trkpt lat="45.0587" lon="5.86217">
        <ele>397.32</ele>
        <time>2018-09-09T08:23:01Z</time>
      </trkpt>
      <trkpt lat="45.05888" lon="5.86235">
        <ele>397.61</ele>
        <time>2018-09-09T08:23:02Z</time>
      </trkpt>
      <trkpt lat="45.05906" lon="5.86254">
        <ele>397.7</ele>
        <time>2018-09-09T08:23:03Z</time>
      </trkpt>
      <trkpt lat="45.05925" lon="5.86273">
        <ele>398.43</ele>
        <time>2018-09-09T08:23:04Z</time>
      </trkpt>
      <trkpt lat="45.05944" lon="5.86292">
        <ele>399.35</ele>
        <time>2018-09-09T08:23:05Z</time>
      </trkpt>
      <trkpt lat="45.05963" lon="5.86312">
        <ele>399.62</ele>
        <time>2018-09-09T08:23:06Z</time>
      </trkpt>
      <trkpt lat="45.05981" lon="5.86332">
        <ele>399.71</ele>
        <time>2018-09-09T08:23:07Z</time>
      </trkpt>
      <trkpt lat="45.06" lon="5.86351">
        <ele>399.73</ele>
        <time>2018-09-09T08:23:08Z</time>
      </trkpt>
      <trkpt lat="45.06019" lon="5.86369">
        <ele>400.44</ele>
        <time>2018-09-09T08:23:09Z</time>
      </trkpt>
      <trkpt lat="45.06037" lon="5.86388">
        <ele>400.65</ele>
        <time>2018-09-09T08:23:10Z</time>
      </trkpt>
      <trkpt lat="45.06056" lon="5.86406">
        <ele>402.11</ele>
        <time>2018-09-09T08:23:11Z</time>
      </trkpt>
      <trkpt lat="45.06074" lon="5.86426">
        <ele>403.25</ele>
        <time>2018-09-09T08:23:12Z</time>
      </trkpt>
      <trkpt lat="45.06092" lon="5.86445">
        <ele>403.59</ele>
        <time>2018-09-09T08:23:13Z</time>
      </trkpt>
      <trkpt lat="45.06111" lon="5.86464">
        <ele>403</ele>
        <time>2018-09-09T08:23:14Z</time>
      </trkpt>
      <trkpt lat="45.0613" lon="5.86484">
        <ele>402.82</ele>
        <time>2018-09-09T08:23:15Z</time>
      </trkpt>
      <trkpt lat="45.06148" lon="5.86503">
        <ele>402.76</ele>
        <time>2018-09-09T08:23:16Z</time>
      </trkpt>
      <trkpt lat="45.06167" lon="5.86521">
        <ele>403.45</ele>
        <time>2018-09-09T08:23:17Z</time>
      </trkpt>
      <trkpt lat="45.06186" lon="5.86539">
        <ele>404.35</ele>
        <time>2018-09-09T08:23:18Z</time>
      </trkpt>
      <trkpt lat="45.06205" lon="5.86556">
        <ele>404.62</ele>
        <time>2018-09-09T08:23:19Z</time>
      </trkpt>
      <trkpt lat="45.06224" lon="5.86574">
        <ele>404.71</ele>
        <time>2018-09-09T08:23:20Z</time>
      </trkpt>
      <trkpt lat="45.06244" lon="5.86591">
        <ele>404.73</ele>
        <time>2018-09-09T08:23:21Z</time>
      </trkpt>
      <trkpt lat="45.06263" lon="5.86606">
        <ele>405.44</ele>
        <time>2018-09-09T08:23:22Z</time>
      </trkpt>
      <trkpt lat="45.06283" lon="5.86622">
        <ele>407.05</ele>
        <time>2018-09-09T08:23:23Z</time>
      </trkpt>
      <trkpt lat="45.06303" lon="5.86638">
        <ele>408.93</ele>
        <time>2018-09-09T08:23:24Z</time>
      </trkpt>
      <trkpt lat="45.06321" lon="5.86653">
        <ele>410.2</ele>
        <time>2018-09-09T08:23:25Z</time>
      </trkpt>
      <trkpt lat="45.0634" lon="5.86669">
        <ele>411.28</ele>
        <time>2018-09-09T08:23:26Z</time>
      </trkpt>
      <trkpt lat="45.0636" lon="5.86684">
        <ele>411.6</ele>
        <time>2018-09-09T08:23:27Z</time>
      </trkpt>
      <trkpt lat="45.06379" lon="5.86697">
        <ele>412.4</ele>
        <time>2018-09-09T08:23:28Z</time>
      </trkpt>
      <trkpt lat="45.06398" lon="5.86711">
        <ele>414.74</ele>
        <time>2018-09-09T08:23:29Z</time>
      </trkpt>
      <trkpt lat="45.06417" lon="5.86725">
        <ele>415.44</ele>
        <time>2018-09-09T08:23:30Z</time>
      </trkpt>
      <trkpt lat="45.06437" lon="5.86739">
        <ele>417.05</ele>
        <time>2018-09-09T08:23:31Z</time>
      </trkpt>
      <trkpt lat="45.06455" lon="5.86752">
        <ele>418.23</ele>
        <time>2018-09-09T08:23:32Z</time>
      </trkpt>
      <trkpt lat="45.06474" lon="5.86766">
        <ele>419.29</ele>
        <time>2018-09-09T08:23:33Z</time>
      </trkpt>
      <trkpt lat="45.06493" lon="5.86781">
        <ele>420.31</ele>
        <time>2018-09-09T08:23:34Z</time>
      </trkpt>
      <trkpt lat="45.06511" lon="5.86795">
        <ele>421.31</ele>
        <time>2018-09-09T08:23:35Z</time>
      </trkpt>
      <trkpt lat="45.0653" lon="5.86807">
        <ele>421.61</ele>
        <time>2018-09-09T08:23:36Z</time>
      </trkpt>
      <trkpt lat="45.06548" lon="5.86818">
        <ele>421.7</ele>
        <time>2018-09-09T08:23:37Z</time>
      </trkpt>
      <trkpt lat="45.06567" lon="5.86827">
        <ele>422.43</ele>
        <time>2018-09-09T08:23:38Z</time>
      </trkpt>
      <trkpt lat="45.06587" lon="5.86835">
        <ele>421.95</ele>
        <time>2018-09-09T08:23:39Z</time>
      </trkpt>
      <trkpt lat="45.06608" lon="5.8684">
        <ele>421.8</ele>
        <time>2018-09-09T08:23:40Z</time>
      </trkpt>
      <trkpt lat="45.06628" lon="5.86844">
        <ele>421.76</ele>
        <time>2018-09-09T08:23:41Z</time>
      </trkpt>
      <trkpt lat="45.06649" lon="5.86849">
        <ele>421.75</ele>
        <time>2018-09-09T08:23:42Z</time>
      </trkpt>
      <trkpt lat="45.0667" lon="5.86854">
        <ele>421.04</ele>
        <time>2018-09-09T08:23:43Z</time>
      </trkpt>
      <trkpt lat="45.06691" lon="5.8686">
        <ele>420.83</ele>
        <time>2018-09-09T08:23:44Z</time>
      </trkpt>
      <trkpt lat="45.0671" lon="5.86867">
        <ele>420.77</ele>
        <time>2018-09-09T08:23:45Z</time>
      </trkpt>
      <trkpt lat="45.0673" lon="5.86876">
        <ele>421.45</ele>
        <time>2018-09-09T08:23:46Z</time>
      </trkpt>
      <trkpt lat="45.0675" lon="5.86887">
        <ele>421.65</ele>
        <time>2018-09-09T08:23:47Z</time>
      </trkpt>
      <trkpt lat="45.0677" lon="5.869">
        <ele>421.71</ele>
        <time>2018-09-09T08:23:48Z</time>
      </trkpt>
      <trkpt lat="45.06788" lon="5.86912">
        <ele>421.03</ele>
        <time>2018-09-09T08:23:49Z</time>
      </trkpt>
      <trkpt lat="45.06808" lon="5.86925">
        <ele>420.83</ele>
        <time>2018-09-09T08:23:50Z</time>
      </trkpt>
      <trkpt lat="45.06827" lon="5.86939">
        <ele>421.47</ele>
        <time>2018-09-09T08:23:51Z</time>
      </trkpt>
      <trkpt lat="45.06846" lon="5.86952">
        <ele>423.06</ele>
        <time>2018-09-09T08:23:52Z</time>
      </trkpt>
      <trkpt lat="45.06864" lon="5.86966">
        <ele>423.54</ele>
        <time>2018-09-09T08:23:53Z</time>
      </trkpt>
      <trkpt lat="45.06883" lon="5.86978">
        <ele>423.68</ele>
        <time>2018-09-09T08:23:54Z</time>
      </trkpt>
      <trkpt lat="45.06901" lon="5.86992">
        <ele>425.12</ele>
        <time>2018-09-09T08:23:55Z</time>
      </trkpt>
      <trkpt lat="45.06919" lon="5.87005">
        <ele>424.86</ele>
        <time>2018-09-09T08:23:56Z</time>
      </trkpt>
      <trkpt lat="45.06936" lon="5.87019">
        <ele>424.78</ele>
        <time>2018-09-09T08:23:57Z</time>
      </trkpt>
      <trkpt lat="45.06952" lon="5.87034">
        <ele>424.05</ele>
        <time>2018-09-09T08:23:58Z</time>
      </trkpt>
      <trkpt lat="45.06969" lon="5.87049">
        <ele>423.83</ele>
        <time>2018-09-09T08:23:59Z</time>
      </trkpt>
      <trkpt lat="45.06986" lon="5.87065">
        <ele>423.07</ele>
        <time>2018-09-09T08:24:00Z</time>
      </trkpt>
      <trkpt lat="45.07001" lon="5.87084">
        <ele>424.24</ele>
        <time>2018-09-09T08:24:01Z</time>
      </trkpt>
      <trkpt lat="45.07017" lon="5.87103">
        <ele>425.29</ele>
        <time>2018-09-09T08:24:02Z</time>
      </trkpt>
      <trkpt lat="45.07033" lon="5.87122">
        <ele>426.31</ele>
        <time>2018-09-09T08:24:03Z</time>
      </trkpt>
      <trkpt lat="45.07049" lon="5.8714">
        <ele>428.71</ele>
        <time>2018-09-09T08:24:04Z</time>
      </trkpt>
      <trkpt lat="45.07065" lon="5.87158">
        <ele>429.43</ele>
        <time>2018-09-09T08:24:05Z</time>
      </trkpt>
      <trkpt lat="45.07081" lon="5.87176">
        <ele>429.65</ele>
        <time>2018-09-09T08:24:06Z</time>
      </trkpt>
      <trkpt lat="45.07097" lon="5.87193">
        <ele>430.41</ele>
        <time>2018-09-09T08:24:07Z</time>
      </trkpt>
      <trkpt lat="45.07112" lon="5.87211">
        <ele>430.64</ele>
        <time>2018-09-09T08:24:08Z</time>
      </trkpt>
      <trkpt lat="45.07126" lon="5.87231">
        <ele>432.11</ele>
        <time>2018-09-09T08:24:09Z</time>
      </trkpt>
      <trkpt lat="45.07139" lon="5.87253">
        <ele>434.65</ele>
        <time>2018-09-09T08:24:10Z</time>
      </trkpt>
      <trkpt lat="45.0715" lon="5.87276">
        <ele>436.81</ele>
        <time>2018-09-09T08:24:11Z</time>
      </trkpt>
      <trkpt lat="45.07159" lon="5.873">
        <ele>438.16</ele>
        <time>2018-09-09T08:24:12Z</time>
      </trkpt>
      <trkpt lat="45.07167" lon="5.87325">
        <ele>439.97</ele>
        <time>2018-09-09T08:24:13Z</time>
      </trkpt>
      <trkpt lat="45.07172" lon="5.87349">
        <ele>441.91</ele>
        <time>2018-09-09T08:24:14Z</time>
      </trkpt>
      <trkpt lat="45.07176" lon="5.87375">
        <ele>443.19</ele>
        <time>2018-09-09T08:24:15Z</time>
      </trkpt>
      <trkpt lat="45.07178" lon="5.87422">
        <ele>446.21</ele>
        <time>2018-09-09T08:24:17Z</time>
      </trkpt>
      <trkpt lat="45.07178" lon="5.87463">
        <ele>449.21</ele>
        <time>2018-09-09T08:24:19Z</time>
      </trkpt>
      <trkpt lat="45.07175" lon="5.87496">
        <ele>451.3</ele>
        <time>2018-09-09T08:24:21Z</time>
      </trkpt>
      <trkpt lat="45.07169" lon="5.87521">
        <ele>454.22</ele>
        <time>2018-09-09T08:24:23Z</time>
      </trkpt>
      <trkpt lat="45.07166" lon="5.87547">
        <ele>453.82</ele>
        <time>2018-09-09T08:24:26Z</time>
      </trkpt>
      <trkpt lat="45.07188" lon="5.87556">
        <ele>453.75</ele>
        <time>2018-09-09T08:24:28Z</time>
      </trkpt>
      <trkpt lat="45.07206" lon="5.87557">
        <ele>455.14</ele>
        <time>2018-09-09T08:24:29Z</time>
      </trkpt>
      <trkpt lat="45.07235" lon="5.87571">
        <ele>456.39</ele>
        <time>2018-09-09T08:24:31Z</time>
      </trkpt>
      <trkpt lat="45.07263" lon="5.87589">
        <ele>457.41</ele>
        <time>2018-09-09T08:24:33Z</time>
      </trkpt>
      <trkpt lat="45.07289" lon="5.87611">
        <ele>457.71</ele>
        <time>2018-09-09T08:24:35Z</time>
      </trkpt>
      <trkpt lat="45.07315" lon="5.87633">
        <ele>458.23</ele>
        <time>2018-09-09T08:24:37Z</time>
      </trkpt>
      <trkpt lat="45.07341" lon="5.87657">
        <ele>459.39</ele>
        <time>2018-09-09T08:24:39Z</time>
      </trkpt>
      <trkpt lat="45.0737" lon="5.87681">
        <ele>461.11</ele>
        <time>2018-09-09T08:24:41Z</time>
      </trkpt>
      <trkpt lat="45.07399" lon="5.87705">
        <ele>463.29</ele>
        <time>2018-09-09T08:24:43Z</time>
      </trkpt>
      <trkpt lat="45.07428" lon="5.87731">
        <ele>465.1</ele>
        <time>2018-09-09T08:24:45Z</time>
      </trkpt>
      <trkpt lat="45.07457" lon="5.87756">
        <ele>466.38</ele>
        <time>2018-09-09T08:24:47Z</time>
      </trkpt>
      <trkpt lat="45.07485" lon="5.87786">
        <ele>466.71</ele>
        <time>2018-09-09T08:24:49Z</time>
      </trkpt>
      <trkpt lat="45.07511" lon="5.8782">
        <ele>467.44</ele>
        <time>2018-09-09T08:24:51Z</time>
      </trkpt>
      <trkpt lat="45.07521" lon="5.87842">
        <ele>467.65</ele>
        <time>2018-09-09T08:24:52Z</time>
      </trkpt>
      <trkpt lat="45.07531" lon="5.87865">
        <ele>469.11</ele>
        <time>2018-09-09T08:24:53Z</time>
      </trkpt>
      <trkpt lat="45.07545" lon="5.87913">
        <ele>470.38</ele>
        <time>2018-09-09T08:24:55Z</time>
      </trkpt>
      <trkpt lat="45.07549" lon="5.87939">
        <ele>471.33</ele>
        <time>2018-09-09T08:24:56Z</time>
      </trkpt>
      <trkpt lat="45.07553" lon="5.87964">
        <ele>472.32</ele>
        <time>2018-09-09T08:24:57Z</time>
      </trkpt>
      <trkpt lat="45.07558" lon="5.8799">
        <ele>473.31</ele>
        <time>2018-09-09T08:24:58Z</time>
      </trkpt>
      <trkpt lat="45.07563" lon="5.88016">
        <ele>474.31</ele>
        <time>2018-09-09T08:24:59Z</time>
      </trkpt>
      <trkpt lat="45.07568" lon="5.88042">
        <ele>475.31</ele>
        <time>2018-09-09T08:25:00Z</time>
      </trkpt>
      <trkpt lat="45.07573" lon="5.88068">
        <ele>476.31</ele>
        <time>2018-09-09T08:25:01Z</time>
      </trkpt>
      <trkpt lat="45.07576" lon="5.88094">
        <ele>477.31</ele>
        <time>2018-09-09T08:25:02Z</time>
      </trkpt>
      <trkpt lat="45.07579" lon="5.8812">
        <ele>478.31</ele>
        <time>2018-09-09T08:25:03Z</time>
      </trkpt>
      <trkpt lat="45.07582" lon="5.88148">
        <ele>478.61</ele>
        <time>2018-09-09T08:25:04Z</time>
      </trkpt>
      <trkpt lat="45.07584" lon="5.88174">
        <ele>479.4</ele>
        <time>2018-09-09T08:25:05Z</time>
      </trkpt>
      <trkpt lat="45.07581" lon="5.88201">
        <ele>479.64</ele>
        <time>2018-09-09T08:25:06Z</time>
      </trkpt>
      <trkpt lat="45.0758" lon="5.88227">
        <ele>480.41</ele>
        <time>2018-09-09T08:25:07Z</time>
      </trkpt>
      <trkpt lat="45.07581" lon="5.88279">
        <ele>481.62</ele>
        <time>2018-09-09T08:25:09Z</time>
      </trkpt>
      <trkpt lat="45.07586" lon="5.88305">
        <ele>482.41</ele>
        <time>2018-09-09T08:25:10Z</time>
      </trkpt>
      <trkpt lat="45.07592" lon="5.88331">
        <ele>484.04</ele>
        <time>2018-09-09T08:25:11Z</time>
      </trkpt>
      <trkpt lat="45.07598" lon="5.88357">
        <ele>485.23</ele>
        <time>2018-09-09T08:25:12Z</time>
      </trkpt>
      <trkpt lat="45.07606" lon="5.88382">
        <ele>485.59</ele>
        <time>2018-09-09T08:25:13Z</time>
      </trkpt>
      <trkpt lat="45.07614" lon="5.88407">
        <ele>485.7</ele>
        <time>2018-09-09T08:25:14Z</time>
      </trkpt>
      <trkpt lat="45.07625" lon="5.88431">
        <ele>486.43</ele>
        <time>2018-09-09T08:25:15Z</time>
      </trkpt>
      <trkpt lat="45.07637" lon="5.88454">
        <ele>486.65</ele>
        <time>2018-09-09T08:25:16Z</time>
      </trkpt>
      <trkpt lat="45.0765" lon="5.88475">
        <ele>486.71</ele>
        <time>2018-09-09T08:25:17Z</time>
      </trkpt>
      <trkpt lat="45.07663" lon="5.88496">
        <ele>487.43</ele>
        <time>2018-09-09T08:25:18Z</time>
      </trkpt>
      <trkpt lat="45.07677" lon="5.88518">
        <ele>487.65</ele>
        <time>2018-09-09T08:25:19Z</time>
      </trkpt>
      <trkpt lat="45.07689" lon="5.88539">
        <ele>487.71</ele>
        <time>2018-09-09T08:25:20Z</time>
      </trkpt>
      <trkpt lat="45.07703" lon="5.88561">
        <ele>487.73</ele>
        <time>2018-09-09T08:25:21Z</time>
      </trkpt>
      <trkpt lat="45.07716" lon="5.88583">
        <ele>487.74</ele>
        <time>2018-09-09T08:25:22Z</time>
      </trkpt>
      <trkpt lat="45.0773" lon="5.88605">
        <ele>487.74</ele>
        <time>2018-09-09T08:25:23Z</time>
      </trkpt>
      <trkpt lat="45.07743" lon="5.88627">
        <ele>487.74</ele>
        <time>2018-09-09T08:25:24Z</time>
      </trkpt>
      <trkpt lat="45.07756" lon="5.88649">
        <ele>487.74</ele>
        <time>2018-09-09T08:25:25Z</time>
      </trkpt>
      <trkpt lat="45.0777" lon="5.88671">
        <ele>488.44</ele>
        <time>2018-09-09T08:25:26Z</time>
      </trkpt>
      <trkpt lat="45.07783" lon="5.88693">
        <ele>488.65</ele>
        <time>2018-09-09T08:25:27Z</time>
      </trkpt>
      <trkpt lat="45.07796" lon="5.88715">
        <ele>488.71</ele>
        <time>2018-09-09T08:25:28Z</time>
      </trkpt>
      <trkpt lat="45.07809" lon="5.88738">
        <ele>489.43</ele>
        <time>2018-09-09T08:25:29Z</time>
      </trkpt>
      <trkpt lat="45.0782" lon="5.88761">
        <ele>489.65</ele>
        <time>2018-09-09T08:25:30Z</time>
      </trkpt>
      <trkpt lat="45.07831" lon="5.88783">
        <ele>490.41</ele>
        <time>2018-09-09T08:25:31Z</time>
      </trkpt>
      <trkpt lat="45.07842" lon="5.88806">
        <ele>492.04</ele>
        <time>2018-09-09T08:25:32Z</time>
      </trkpt>
      <trkpt lat="45.07852" lon="5.8883">
        <ele>493.93</ele>
        <time>2018-09-09T08:25:33Z</time>
      </trkpt>
      <trkpt lat="45.07861" lon="5.88854">
        <ele>495.2</ele>
        <time>2018-09-09T08:25:34Z</time>
      </trkpt>
      <trkpt lat="45.0787" lon="5.88879">
        <ele>496.28</ele>
        <time>2018-09-09T08:25:35Z</time>
      </trkpt>
      <trkpt lat="45.07879" lon="5.88904">
        <ele>496.6</ele>
        <time>2018-09-09T08:25:36Z</time>
      </trkpt>
      <trkpt lat="45.07888" lon="5.88928">
        <ele>497.4</ele>
        <time>2018-09-09T08:25:37Z</time>
      </trkpt>
      <trkpt lat="45.07897" lon="5.88953">
        <ele>498.34</ele>
        <time>2018-09-09T08:25:38Z</time>
      </trkpt>
      <trkpt lat="45.07905" lon="5.88978">
        <ele>498.62</ele>
        <time>2018-09-09T08:25:39Z</time>
      </trkpt>
      <trkpt lat="45.07914" lon="5.89002">
        <ele>500.1</ele>
        <time>2018-09-09T08:25:40Z</time>
      </trkpt>
      <trkpt lat="45.07923" lon="5.89025">
        <ele>501.25</ele>
        <time>2018-09-09T08:25:41Z</time>
      </trkpt>
      <trkpt lat="45.07934" lon="5.89048">
        <ele>502.29</ele>
        <time>2018-09-09T08:25:42Z</time>
      </trkpt>
      <trkpt lat="45.07946" lon="5.89069">
        <ele>502.61</ele>
        <time>2018-09-09T08:25:43Z</time>
      </trkpt>
      <trkpt lat="45.07958" lon="5.89091">
        <ele>503.4</ele>
        <time>2018-09-09T08:25:44Z</time>
      </trkpt>
      <trkpt lat="45.07969" lon="5.89114">
        <ele>503.64</ele>
        <time>2018-09-09T08:25:45Z</time>
      </trkpt>
      <trkpt lat="45.07981" lon="5.89136">
        <ele>503.71</ele>
        <time>2018-09-09T08:25:46Z</time>
      </trkpt>
      <trkpt lat="45.07994" lon="5.89158">
        <ele>503.03</ele>
        <time>2018-09-09T08:25:47Z</time>
      </trkpt>
      <trkpt lat="45.08007" lon="5.8918">
        <ele>503.53</ele>
        <time>2018-09-09T08:25:48Z</time>
      </trkpt>
      <trkpt lat="45.0802" lon="5.89202">
        <ele>504.38</ele>
        <time>2018-09-09T08:25:49Z</time>
      </trkpt>
      <trkpt lat="45.08033" lon="5.89224">
        <ele>505.33</ele>
        <time>2018-09-09T08:25:50Z</time>
      </trkpt>
      <trkpt lat="45.08045" lon="5.89244">
        <ele>506.32</ele>
        <time>2018-09-09T08:25:51Z</time>
      </trkpt>
      <trkpt lat="45.08059" lon="5.89266">
        <ele>508.01</ele>
        <time>2018-09-09T08:25:52Z</time>
      </trkpt>
      <trkpt lat="45.08073" lon="5.89287">
        <ele>509.22</ele>
        <time>2018-09-09T08:25:53Z</time>
      </trkpt>
      <trkpt lat="45.08087" lon="5.89308">
        <ele>509.59</ele>
        <time>2018-09-09T08:25:54Z</time>
      </trkpt>
      <trkpt lat="45.08102" lon="5.89327">
        <ele>511.09</ele>
        <time>2018-09-09T08:25:55Z</time>
      </trkpt>
      <trkpt lat="45.08117" lon="5.89346">
        <ele>512.25</ele>
        <time>2018-09-09T08:25:56Z</time>
      </trkpt>
      <trkpt lat="45.08132" lon="5.89364">
        <ele>512.59</ele>
        <time>2018-09-09T08:25:57Z</time>
      </trkpt>
      <trkpt lat="45.08147" lon="5.89383">
        <ele>513.4</ele>
        <time>2018-09-09T08:25:58Z</time>
      </trkpt>
      <trkpt lat="45.08162" lon="5.89401">
        <ele>514.34</ele>
        <time>2018-09-09T08:25:59Z</time>
      </trkpt>
      <trkpt lat="45.08177" lon="5.89419">
        <ele>514.62</ele>
        <time>2018-09-09T08:26:00Z</time>
      </trkpt>
      <trkpt lat="45.0819" lon="5.89438">
        <ele>514</ele>
        <time>2018-09-09T08:26:01Z</time>
      </trkpt>
      <trkpt lat="45.08201" lon="5.89461">
        <ele>514.52</ele>
        <time>2018-09-09T08:26:02Z</time>
      </trkpt>
      <trkpt lat="45.08212" lon="5.89483">
        <ele>515.37</ele>
        <time>2018-09-09T08:26:03Z</time>
      </trkpt>
      <trkpt lat="45.08222" lon="5.89507">
        <ele>516.33</ele>
        <time>2018-09-09T08:26:04Z</time>
      </trkpt>
      <trkpt lat="45.08227" lon="5.89532">
        <ele>517.32</ele>
        <time>2018-09-09T08:26:05Z</time>
      </trkpt>
      <trkpt lat="45.08234" lon="5.89556">
        <ele>518.31</ele>
        <time>2018-09-09T08:26:06Z</time>
      </trkpt>
      <trkpt lat="45.08233" lon="5.89603">
        <ele>519.4</ele>
        <time>2018-09-09T08:26:08Z</time>
      </trkpt>
      <trkpt lat="45.08228" lon="5.89651">
        <ele>519.71</ele>
        <time>2018-09-09T08:26:10Z</time>
      </trkpt>
      <trkpt lat="45.08236" lon="5.89697">
        <ele>520.44</ele>
        <time>2018-09-09T08:26:12Z</time>
      </trkpt>
      <trkpt lat="45.08252" lon="5.89724">
        <ele>521.35</ele>
        <time>2018-09-09T08:26:13Z</time>
      </trkpt>
      <trkpt lat="45.08262" lon="5.89749">
        <ele>522.32</ele>
        <time>2018-09-09T08:26:14Z</time>
      </trkpt>
      <trkpt lat="45.08274" lon="5.89772">
        <ele>523.32</ele>
        <time>2018-09-09T08:26:15Z</time>
      </trkpt>
      <trkpt lat="45.08287" lon="5.89795">
        <ele>523.61</ele>
        <time>2018-09-09T08:26:16Z</time>
      </trkpt>
      <trkpt lat="45.08301" lon="5.89815">
        <ele>523.7</ele>
        <time>2018-09-09T08:26:17Z</time>
      </trkpt>
      <trkpt lat="45.08318" lon="5.89834">
        <ele>523.73</ele>
        <time>2018-09-09T08:26:18Z</time>
      </trkpt>
      <trkpt lat="45.08334" lon="5.89852">
        <ele>524.44</ele>
        <time>2018-09-09T08:26:19Z</time>
      </trkpt>
      <trkpt lat="45.0835" lon="5.8987">
        <ele>524.65</ele>
        <time>2018-09-09T08:26:20Z</time>
      </trkpt>
      <trkpt lat="45.08366" lon="5.89888">
        <ele>524.71</ele>
        <time>2018-09-09T08:26:21Z</time>
      </trkpt>
      <trkpt lat="45.08382" lon="5.89906">
        <ele>525.43</ele>
        <time>2018-09-09T08:26:22Z</time>
      </trkpt>
      <trkpt lat="45.08399" lon="5.89924">
        <ele>525.65</ele>
        <time>2018-09-09T08:26:23Z</time>
      </trkpt>
      <trkpt lat="45.08416" lon="5.89942">
        <ele>525.01</ele>
        <time>2018-09-09T08:26:24Z</time>
      </trkpt>
      <trkpt lat="45.08434" lon="5.89959">
        <ele>524.82</ele>
        <time>2018-09-09T08:26:25Z</time>
      </trkpt>
      <trkpt lat="45.08451" lon="5.89975">
        <ele>526.17</ele>
        <time>2018-09-09T08:26:26Z</time>
      </trkpt>
      <trkpt lat="45.08468" lon="5.8999">
        <ele>525.87</ele>
        <time>2018-09-09T08:26:27Z</time>
      </trkpt>
      <trkpt lat="45.08484" lon="5.90006">
        <ele>525.78</ele>
        <time>2018-09-09T08:26:28Z</time>
      </trkpt>
      <trkpt lat="45.085" lon="5.90021">
        <ele>526.45</ele>
        <time>2018-09-09T08:26:29Z</time>
      </trkpt>
      <trkpt lat="45.08516" lon="5.90034">
        <ele>526.65</ele>
        <time>2018-09-09T08:26:30Z</time>
      </trkpt>
      <trkpt lat="45.08535" lon="5.90045">
        <ele>527.42</ele>
        <time>2018-09-09T08:26:31Z</time>
      </trkpt>
      <trkpt lat="45.08552" lon="5.90054">
        <ele>528.34</ele>
        <time>2018-09-09T08:26:32Z</time>
      </trkpt>
      <trkpt lat="45.08571" lon="5.90063">
        <ele>529.32</ele>
        <time>2018-09-09T08:26:33Z</time>
      </trkpt>
      <trkpt lat="45.08589" lon="5.9007">
        <ele>530.32</ele>
        <time>2018-09-09T08:26:34Z</time>
      </trkpt>
      <trkpt lat="45.08608" lon="5.90078">
        <ele>531.31</ele>
        <time>2018-09-09T08:26:35Z</time>
      </trkpt>
      <trkpt lat="45.08627" lon="5.90085">
        <ele>532.31</ele>
        <time>2018-09-09T08:26:36Z</time>
      </trkpt>
      <trkpt lat="45.08645" lon="5.90093">
        <ele>532.61</ele>
        <time>2018-09-09T08:26:37Z</time>
      </trkpt>
      <trkpt lat="45.08663" lon="5.901">
        <ele>532.7</ele>
        <time>2018-09-09T08:26:38Z</time>
      </trkpt>
      <trkpt lat="45.08682" lon="5.90107">
        <ele>533.43</ele>
        <time>2018-09-09T08:26:39Z</time>
      </trkpt>
      <trkpt lat="45.087" lon="5.90114">
        <ele>533.65</ele>
        <time>2018-09-09T08:26:40Z</time>
      </trkpt>
      <trkpt lat="45.08719" lon="5.90122">
        <ele>534.41</ele>
        <time>2018-09-09T08:26:41Z</time>
      </trkpt>
      <trkpt lat="45.08738" lon="5.90131">
        <ele>535.34</ele>
        <time>2018-09-09T08:26:42Z</time>
      </trkpt>
      <trkpt lat="45.08756" lon="5.90138">
        <ele>534.92</ele>
        <time>2018-09-09T08:26:43Z</time>
      </trkpt>
      <trkpt lat="45.08775" lon="5.90146">
        <ele>535.5</ele>
        <time>2018-09-09T08:26:44Z</time>
      </trkpt>
      <trkpt lat="45.08794" lon="5.90152">
        <ele>535.67</ele>
        <time>2018-09-09T08:26:45Z</time>
      </trkpt>
      <trkpt lat="45.08814" lon="5.90156">
        <ele>537.12</ele>
        <time>2018-09-09T08:26:46Z</time>
      </trkpt>
      <trkpt lat="45.08833" lon="5.9016">
        <ele>537.55</ele>
        <time>2018-09-09T08:26:47Z</time>
      </trkpt>
      <trkpt lat="45.08852" lon="5.90165">
        <ele>539.09</ele>
        <time>2018-09-09T08:26:48Z</time>
      </trkpt>
      <trkpt lat="45.08872" lon="5.90169">
        <ele>539.54</ele>
        <time>2018-09-09T08:26:49Z</time>
      </trkpt>
      <trkpt lat="45.08891" lon="5.90173">
        <ele>540.38</ele>
        <time>2018-09-09T08:26:50Z</time>
      </trkpt>
      <trkpt lat="45.0891" lon="5.90177">
        <ele>541.33</ele>
        <time>2018-09-09T08:26:51Z</time>
      </trkpt>
      <trkpt lat="45.08928" lon="5.90181">
        <ele>542.32</ele>
        <time>2018-09-09T08:26:52Z</time>
      </trkpt>
      <trkpt lat="45.08947" lon="5.90185">
        <ele>543.31</ele>
        <time>2018-09-09T08:26:53Z</time>
      </trkpt>
      <trkpt lat="45.08981" lon="5.90192">
        <ele>545.31</ele>
        <time>2018-09-09T08:26:55Z</time>
      </trkpt>
      <trkpt lat="45.09015" lon="5.90202">
        <ele>545.7</ele>
        <time>2018-09-09T08:26:57Z</time>
      </trkpt>
      <trkpt lat="45.09044" lon="5.90219">
        <ele>546.65</ele>
        <time>2018-09-09T08:26:59Z</time>
      </trkpt>
      <trkpt lat="45.09068" lon="5.9024">
        <ele>546.73</ele>
        <time>2018-09-09T08:27:01Z</time>
      </trkpt>
      <trkpt lat="45.09091" lon="5.9026">
        <ele>547.44</ele>
        <time>2018-09-09T08:27:03Z</time>
      </trkpt>
      <trkpt lat="45.09115" lon="5.90279">
        <ele>549.32</ele>
        <time>2018-09-09T08:27:05Z</time>
      </trkpt>
      <trkpt lat="45.0914" lon="5.90298">
        <ele>551.31</ele>
        <time>2018-09-09T08:27:07Z</time>
      </trkpt>
      <trkpt lat="45.09165" lon="5.90316">
        <ele>553.31</ele>
        <time>2018-09-09T08:27:09Z</time>
      </trkpt>
      <trkpt lat="45.0919" lon="5.90335">
        <ele>553</ele>
        <time>2018-09-09T08:27:11Z</time>
      </trkpt>
      <trkpt lat="45.09213" lon="5.90358">
        <ele>553.67</ele>
        <time>2018-09-09T08:27:13Z</time>
      </trkpt>
      <trkpt lat="45.09237" lon="5.90379">
        <ele>553.74</ele>
        <time>2018-09-09T08:27:15Z</time>
      </trkpt>
      <trkpt lat="45.09259" lon="5.90398">
        <ele>553.53</ele>
        <time>2018-09-09T08:27:17Z</time>
      </trkpt>
      <trkpt lat="45.09283" lon="5.90419">
        <ele>552.81</ele>
        <time>2018-09-09T08:27:19Z</time>
      </trkpt>
      <trkpt lat="45.09309" lon="5.90438">
        <ele>552.75</ele>
        <time>2018-09-09T08:27:21Z</time>
      </trkpt>
      <trkpt lat="45.09334" lon="5.90458">
        <ele>552.74</ele>
        <time>2018-09-09T08:27:23Z</time>
      </trkpt>
      <trkpt lat="45.0936" lon="5.90479">
        <ele>554.14</ele>
        <time>2018-09-09T08:27:25Z</time>
      </trkpt>
      <trkpt lat="45.09387" lon="5.90501">
        <ele>554.69</ele>
        <time>2018-09-09T08:27:27Z</time>
      </trkpt>
      <trkpt lat="45.09415" lon="5.90524">
        <ele>555.65</ele>
        <time>2018-09-09T08:27:29Z</time>
      </trkpt>
      <trkpt lat="45.09444" lon="5.90546">
        <ele>554.82</ele>
        <time>2018-09-09T08:27:31Z</time>
      </trkpt>
      <trkpt lat="45.09475" lon="5.9057">
        <ele>555.45</ele>
        <time>2018-09-09T08:27:33Z</time>
      </trkpt>
      <trkpt lat="45.09491" lon="5.90584">
        <ele>557.05</ele>
        <time>2018-09-09T08:27:34Z</time>
      </trkpt>
      <trkpt lat="45.09505" lon="5.906">
        <ele>558.23</ele>
        <time>2018-09-09T08:27:35Z</time>
      </trkpt>
      <trkpt lat="45.09518" lon="5.90618">
        <ele>559.99</ele>
        <time>2018-09-09T08:27:36Z</time>
      </trkpt>
      <trkpt lat="45.0953" lon="5.9064">
        <ele>561.92</ele>
        <time>2018-09-09T08:27:37Z</time>
      </trkpt>
      <trkpt lat="45.0954" lon="5.90662">
        <ele>562.49</ele>
        <time>2018-09-09T08:27:38Z</time>
      </trkpt>
      <trkpt lat="45.0955" lon="5.90686">
        <ele>564.07</ele>
        <time>2018-09-09T08:27:39Z</time>
      </trkpt>
      <trkpt lat="45.0956" lon="5.90711">
        <ele>565.24</ele>
        <time>2018-09-09T08:27:40Z</time>
      </trkpt>
      <trkpt lat="45.09569" lon="5.90735">
        <ele>566.29</ele>
        <time>2018-09-09T08:27:41Z</time>
      </trkpt>
      <trkpt lat="45.09579" lon="5.9076">
        <ele>566.61</ele>
        <time>2018-09-09T08:27:42Z</time>
      </trkpt>
      <trkpt lat="45.09588" lon="5.90786">
        <ele>567.4</ele>
        <time>2018-09-09T08:27:43Z</time>
      </trkpt>
      <trkpt lat="45.09599" lon="5.9081">
        <ele>568.34</ele>
        <time>2018-09-09T08:27:44Z</time>
      </trkpt>
      <trkpt lat="45.09609" lon="5.90836">
        <ele>568.62</ele>
        <time>2018-09-09T08:27:45Z</time>
      </trkpt>
      <trkpt lat="45.09619" lon="5.90861">
        <ele>568.7</ele>
        <time>2018-09-09T08:27:46Z</time>
      </trkpt>
      <trkpt lat="45.0963" lon="5.90886">
        <ele>570.13</ele>
        <time>2018-09-09T08:27:47Z</time>
      </trkpt>
      <trkpt lat="45.0964" lon="5.90912">
        <ele>571.26</ele>
        <time>2018-09-09T08:27:48Z</time>
      </trkpt>
      <trkpt lat="45.09648" lon="5.90938">
        <ele>571.6</ele>
        <time>2018-09-09T08:27:49Z</time>
      </trkpt>
      <trkpt lat="45.09654" lon="5.90966">
        <ele>571.7</ele>
        <time>2018-09-09T08:27:50Z</time>
      </trkpt>
      <trkpt lat="45.09659" lon="5.90995">
        <ele>571.73</ele>
        <time>2018-09-09T08:27:51Z</time>
      </trkpt>
      <trkpt lat="45.09663" lon="5.91025">
        <ele>571.74</ele>
        <time>2018-09-09T08:27:52Z</time>
      </trkpt>
      <trkpt lat="45.09666" lon="5.91054">
        <ele>572.44</ele>
        <time>2018-09-09T08:27:53Z</time>
      </trkpt>
      <trkpt lat="45.0967" lon="5.91084">
        <ele>572.65</ele>
        <time>2018-09-09T08:27:54Z</time>
      </trkpt>
      <trkpt lat="45.09674" lon="5.91114">
        <ele>573.41</ele>
        <time>2018-09-09T08:27:55Z</time>
      </trkpt>
      <trkpt lat="45.09678" lon="5.91144">
        <ele>573.64</ele>
        <time>2018-09-09T08:27:56Z</time>
      </trkpt>
      <trkpt lat="45.09681" lon="5.91174">
        <ele>573.71</ele>
        <time>2018-09-09T08:27:57Z</time>
      </trkpt>
      <trkpt lat="45.09687" lon="5.91204">
        <ele>574.43</ele>
        <time>2018-09-09T08:27:58Z</time>
      </trkpt>
      <trkpt lat="45.09692" lon="5.91234">
        <ele>575.35</ele>
        <time>2018-09-09T08:27:59Z</time>
      </trkpt>
      <trkpt lat="45.09699" lon="5.91263">
        <ele>576.32</ele>
        <time>2018-09-09T08:28:00Z</time>
      </trkpt>
      <trkpt lat="45.09708" lon="5.91291">
        <ele>576.62</ele>
        <time>2018-09-09T08:28:01Z</time>
      </trkpt>
      <trkpt lat="45.09718" lon="5.91319">
        <ele>576.7</ele>
        <time>2018-09-09T08:28:02Z</time>
      </trkpt>
      <trkpt lat="45.09728" lon="5.91346">
        <ele>576.03</ele>
        <time>2018-09-09T08:28:03Z</time>
      </trkpt>
      <trkpt lat="45.09741" lon="5.91374">
        <ele>576.53</ele>
        <time>2018-09-09T08:28:04Z</time>
      </trkpt>
      <trkpt lat="45.09755" lon="5.914">
        <ele>578.78</ele>
        <time>2018-09-09T08:28:05Z</time>
      </trkpt>
      <trkpt lat="45.09766" lon="5.91427">
        <ele>579.45</ele>
        <time>2018-09-09T08:28:06Z</time>
      </trkpt>
      <trkpt lat="45.09779" lon="5.91453">
        <ele>580.35</ele>
        <time>2018-09-09T08:28:07Z</time>
      </trkpt>
      <trkpt lat="45.09789" lon="5.9148">
        <ele>581.32</ele>
        <time>2018-09-09T08:28:08Z</time>
      </trkpt>
      <trkpt lat="45.09801" lon="5.91505">
        <ele>582.32</ele>
        <time>2018-09-09T08:28:09Z</time>
      </trkpt>
      <trkpt lat="45.09812" lon="5.91532">
        <ele>582.61</ele>
        <time>2018-09-09T08:28:10Z</time>
      </trkpt>
      <trkpt lat="45.09825" lon="5.91555">
        <ele>582.7</ele>
        <time>2018-09-09T08:28:11Z</time>
      </trkpt>
      <trkpt lat="45.09839" lon="5.91578">
        <ele>582.73</ele>
        <time>2018-09-09T08:28:12Z</time>
      </trkpt>
      <trkpt lat="45.09855" lon="5.91597">
        <ele>582.74</ele>
        <time>2018-09-09T08:28:13Z</time>
      </trkpt>
      <trkpt lat="45.09872" lon="5.91613">
        <ele>582.74</ele>
        <time>2018-09-09T08:28:14Z</time>
      </trkpt>
      <trkpt lat="45.0989" lon="5.91629">
        <ele>583.44</ele>
        <time>2018-09-09T08:28:15Z</time>
      </trkpt>
      <trkpt lat="45.09908" lon="5.91644">
        <ele>584.35</ele>
        <time>2018-09-09T08:28:16Z</time>
      </trkpt>
      <trkpt lat="45.09926" lon="5.91659">
        <ele>585.32</ele>
        <time>2018-09-09T08:28:17Z</time>
      </trkpt>
      <trkpt lat="45.09944" lon="5.91674">
        <ele>586.32</ele>
        <time>2018-09-09T08:28:18Z</time>
      </trkpt>
      <trkpt lat="45.09962" lon="5.91689">
        <ele>586.61</ele>
        <time>2018-09-09T08:28:19Z</time>
      </trkpt>
      <trkpt lat="45.0998" lon="5.91704">
        <ele>587.4</ele>
        <time>2018-09-09T08:28:20Z</time>
      </trkpt>
      <trkpt lat="45.09998" lon="5.91719">
        <ele>589.04</ele>
        <time>2018-09-09T08:28:21Z</time>
      </trkpt>
      <trkpt lat="45.10015" lon="5.91735">
        <ele>588.83</ele>
        <time>2018-09-09T08:28:22Z</time>
      </trkpt>
      <trkpt lat="45.10032" lon="5.91749">
        <ele>588.77</ele>
        <time>2018-09-09T08:28:23Z</time>
      </trkpt>
      <trkpt lat="45.1005" lon="5.91764">
        <ele>588.05</ele>
        <time>2018-09-09T08:28:24Z</time>
      </trkpt>
      <trkpt lat="45.10068" lon="5.91778">
        <ele>589.23</ele>
        <time>2018-09-09T08:28:25Z</time>
      </trkpt>
      <trkpt lat="45.10085" lon="5.91793">
        <ele>588.89</ele>
        <time>2018-09-09T08:28:26Z</time>
      </trkpt>
      <trkpt lat="45.10103" lon="5.91808">
        <ele>588.79</ele>
        <time>2018-09-09T08:28:27Z</time>
      </trkpt>
      <trkpt lat="45.1012" lon="5.91824">
        <ele>589.45</ele>
        <time>2018-09-09T08:28:28Z</time>
      </trkpt>
      <trkpt lat="45.10137" lon="5.91839">
        <ele>590.35</ele>
        <time>2018-09-09T08:28:29Z</time>
      </trkpt>
      <trkpt lat="45.10154" lon="5.91852">
        <ele>590.63</ele>
        <time>2018-09-09T08:28:30Z</time>
      </trkpt>
      <trkpt lat="45.10171" lon="5.91866">
        <ele>590.01</ele>
        <time>2018-09-09T08:28:31Z</time>
      </trkpt>
      <trkpt lat="45.10188" lon="5.9188">
        <ele>590.52</ele>
        <time>2018-09-09T08:28:32Z</time>
      </trkpt>
      <trkpt lat="45.10206" lon="5.91894">
        <ele>592.77</ele>
        <time>2018-09-09T08:28:33Z</time>
      </trkpt>
      <trkpt lat="45.10224" lon="5.91909">
        <ele>594.15</ele>
        <time>2018-09-09T08:28:34Z</time>
      </trkpt>
      <trkpt lat="45.10241" lon="5.91924">
        <ele>594.56</ele>
        <time>2018-09-09T08:28:35Z</time>
      </trkpt>
      <trkpt lat="45.10259" lon="5.91938">
        <ele>595.39</ele>
        <time>2018-09-09T08:28:36Z</time>
      </trkpt>
      <trkpt lat="45.10275" lon="5.91954">
        <ele>595.64</ele>
        <time>2018-09-09T08:28:37Z</time>
      </trkpt>
      <trkpt lat="45.1029" lon="5.91972">
        <ele>597.11</ele>
        <time>2018-09-09T08:28:38Z</time>
      </trkpt>
      <trkpt lat="45.10304" lon="5.91993">
        <ele>598.25</ele>
        <time>2018-09-09T08:28:39Z</time>
      </trkpt>
      <trkpt lat="45.10316" lon="5.92015">
        <ele>599.29</ele>
        <time>2018-09-09T08:28:40Z</time>
      </trkpt>
      <trkpt lat="45.10325" lon="5.9204">
        <ele>601.01</ele>
        <time>2018-09-09T08:28:41Z</time>
      </trkpt>
      <trkpt lat="45.10334" lon="5.92064">
        <ele>602.92</ele>
        <time>2018-09-09T08:28:42Z</time>
      </trkpt>
      <trkpt lat="45.10342" lon="5.9209">
        <ele>604.19</ele>
        <time>2018-09-09T08:28:43Z</time>
      </trkpt>
      <trkpt lat="45.10349" lon="5.92116">
        <ele>605.28</ele>
        <time>2018-09-09T08:28:44Z</time>
      </trkpt>
      <trkpt lat="45.10357" lon="5.92141">
        <ele>606.3</ele>
        <time>2018-09-09T08:28:45Z</time>
      </trkpt>
      <trkpt lat="45.10366" lon="5.92167">
        <ele>608.01</ele>
        <time>2018-09-09T08:28:46Z</time>
      </trkpt>
      <trkpt lat="45.10373" lon="5.92193">
        <ele>609.22</ele>
        <time>2018-09-09T08:28:47Z</time>
      </trkpt>
      <trkpt lat="45.10381" lon="5.92219">
        <ele>609.59</ele>
        <time>2018-09-09T08:28:48Z</time>
      </trkpt>
      <trkpt lat="45.10388" lon="5.92245">
        <ele>611.09</ele>
        <time>2018-09-09T08:28:49Z</time>
      </trkpt>
      <trkpt lat="45.10396" lon="5.9227">
        <ele>612.25</ele>
        <time>2018-09-09T08:28:50Z</time>
      </trkpt>
      <trkpt lat="45.10404" lon="5.92294">
        <ele>612.59</ele>
        <time>2018-09-09T08:28:51Z</time>
      </trkpt>
      <trkpt lat="45.10412" lon="5.9232">
        <ele>614.1</ele>
        <time>2018-09-09T08:28:52Z</time>
      </trkpt>
      <trkpt lat="45.10419" lon="5.92346">
        <ele>615.25</ele>
        <time>2018-09-09T08:28:53Z</time>
      </trkpt>
      <trkpt lat="45.10426" lon="5.92372">
        <ele>616.29</ele>
        <time>2018-09-09T08:28:54Z</time>
      </trkpt>
      <trkpt lat="45.10432" lon="5.92399">
        <ele>617.31</ele>
        <time>2018-09-09T08:28:55Z</time>
      </trkpt>
      <trkpt lat="45.10438" lon="5.92425">
        <ele>619.01</ele>
        <time>2018-09-09T08:28:56Z</time>
      </trkpt>
      <trkpt lat="45.10442" lon="5.92453">
        <ele>620.22</ele>
        <time>2018-09-09T08:28:57Z</time>
      </trkpt>
      <trkpt lat="45.10444" lon="5.92481">
        <ele>619.89</ele>
        <time>2018-09-09T08:28:58Z</time>
      </trkpt>
      <trkpt lat="45.10445" lon="5.92507">
        <ele>621.18</ele>
        <time>2018-09-09T08:28:59Z</time>
      </trkpt>
      <trkpt lat="45.10447" lon="5.92534">
        <ele>622.27</ele>
        <time>2018-09-09T08:29:00Z</time>
      </trkpt>
      <trkpt lat="45.10448" lon="5.92561">
        <ele>624</ele>
        <time>2018-09-09T08:29:01Z</time>
      </trkpt>
      <trkpt lat="45.10451" lon="5.92589">
        <ele>625.22</ele>
        <time>2018-09-09T08:29:02Z</time>
      </trkpt>
      <trkpt lat="45.10452" lon="5.92616">
        <ele>626.28</ele>
        <time>2018-09-09T08:29:03Z</time>
      </trkpt>
      <trkpt lat="45.10453" lon="5.92643">
        <ele>627.3</ele>
        <time>2018-09-09T08:29:04Z</time>
      </trkpt>
      <trkpt lat="45.10455" lon="5.9267">
        <ele>628.31</ele>
        <time>2018-09-09T08:29:05Z</time>
      </trkpt>
      <trkpt lat="45.10459" lon="5.92697">
        <ele>629.31</ele>
        <time>2018-09-09T08:29:06Z</time>
      </trkpt>
      <trkpt lat="45.10464" lon="5.92724">
        <ele>631.01</ele>
        <time>2018-09-09T08:29:07Z</time>
      </trkpt>
      <trkpt lat="45.1047" lon="5.92751">
        <ele>632.22</ele>
        <time>2018-09-09T08:29:08Z</time>
      </trkpt>
      <trkpt lat="45.10477" lon="5.92777">
        <ele>633.29</ele>
        <time>2018-09-09T08:29:09Z</time>
      </trkpt>
      <trkpt lat="45.10486" lon="5.92803">
        <ele>632.9</ele>
        <time>2018-09-09T08:29:10Z</time>
      </trkpt>
      <trkpt lat="45.10496" lon="5.92828">
        <ele>633.49</ele>
        <time>2018-09-09T08:29:11Z</time>
      </trkpt>
      <trkpt lat="45.10507" lon="5.92852">
        <ele>634.37</ele>
        <time>2018-09-09T08:29:12Z</time>
      </trkpt>
      <trkpt lat="45.10518" lon="5.92876">
        <ele>635.33</ele>
        <time>2018-09-09T08:29:13Z</time>
      </trkpt>
      <trkpt lat="45.10529" lon="5.929">
        <ele>635.62</ele>
        <time>2018-09-09T08:29:14Z</time>
      </trkpt>
      <trkpt lat="45.10541" lon="5.92924">
        <ele>636.4</ele>
        <time>2018-09-09T08:29:15Z</time>
      </trkpt>
      <trkpt lat="45.10552" lon="5.92948">
        <ele>635.94</ele>
        <time>2018-09-09T08:29:16Z</time>
      </trkpt>
      <trkpt lat="45.10564" lon="5.92972">
        <ele>635.8</ele>
        <time>2018-09-09T08:29:17Z</time>
      </trkpt>
      <trkpt lat="45.10575" lon="5.92995">
        <ele>635.76</ele>
        <time>2018-09-09T08:29:18Z</time>
      </trkpt>
      <trkpt lat="45.10586" lon="5.93018">
        <ele>635.75</ele>
        <time>2018-09-09T08:29:19Z</time>
      </trkpt>
      <trkpt lat="45.10597" lon="5.9304">
        <ele>635.74</ele>
        <time>2018-09-09T08:29:20Z</time>
      </trkpt>
      <trkpt lat="45.10607" lon="5.93062">
        <ele>635.74</ele>
        <time>2018-09-09T08:29:21Z</time>
      </trkpt>
      <trkpt lat="45.10618" lon="5.93084">
        <ele>636.44</ele>
        <time>2018-09-09T08:29:22Z</time>
      </trkpt>
      <trkpt lat="45.10627" lon="5.93108">
        <ele>636.65</ele>
        <time>2018-09-09T08:29:23Z</time>
      </trkpt>
      <trkpt lat="45.10634" lon="5.93132">
        <ele>636.01</ele>
        <time>2018-09-09T08:29:24Z</time>
      </trkpt>
      <trkpt lat="45.10639" lon="5.93158">
        <ele>635.12</ele>
        <time>2018-09-09T08:29:25Z</time>
      </trkpt>
      <trkpt lat="45.10643" lon="5.93183">
        <ele>635.56</ele>
        <time>2018-09-09T08:29:26Z</time>
      </trkpt>
      <trkpt lat="45.10647" lon="5.9321">
        <ele>636.39</ele>
        <time>2018-09-09T08:29:27Z</time>
      </trkpt>
      <trkpt lat="45.10649" lon="5.93237">
        <ele>636.63</ele>
        <time>2018-09-09T08:29:28Z</time>
      </trkpt>
      <trkpt lat="45.1065" lon="5.93265">
        <ele>636.71</ele>
        <time>2018-09-09T08:29:29Z</time>
      </trkpt>
      <trkpt lat="45.10649" lon="5.93292">
        <ele>636.73</ele>
        <time>2018-09-09T08:29:30Z</time>
      </trkpt>
      <trkpt lat="45.10649" lon="5.9332">
        <ele>637.44</ele>
        <time>2018-09-09T08:29:31Z</time>
      </trkpt>
      <trkpt lat="45.1065" lon="5.93348">
        <ele>637.65</ele>
        <time>2018-09-09T08:29:32Z</time>
      </trkpt>
      <trkpt lat="45.10652" lon="5.93375">
        <ele>637.71</ele>
        <time>2018-09-09T08:29:33Z</time>
      </trkpt>
      <trkpt lat="45.10656" lon="5.93402">
        <ele>637.73</ele>
        <time>2018-09-09T08:29:34Z</time>
      </trkpt>
      <trkpt lat="45.10661" lon="5.93428">
        <ele>637.74</ele>
        <time>2018-09-09T08:29:35Z</time>
      </trkpt>
      <trkpt lat="45.10666" lon="5.93453">
        <ele>637.74</ele>
        <time>2018-09-09T08:29:36Z</time>
      </trkpt>
      <trkpt lat="45.1068" lon="5.93475">
        <ele>637.04</ele>
        <time>2018-09-09T08:29:37Z</time>
      </trkpt>
      <trkpt lat="45.10691" lon="5.93497">
        <ele>637.53</ele>
        <time>2018-09-09T08:29:38Z</time>
      </trkpt>
      <trkpt lat="45.10707" lon="5.93518">
        <ele>638.38</ele>
        <time>2018-09-09T08:29:39Z</time>
      </trkpt>
      <trkpt lat="45.10732" lon="5.93558">
        <ele>640.32</ele>
        <time>2018-09-09T08:29:41Z</time>
      </trkpt>
      <trkpt lat="45.10743" lon="5.93578">
        <ele>641.31</ele>
        <time>2018-09-09T08:29:42Z</time>
      </trkpt>
      <trkpt lat="45.10763" lon="5.93621">
        <ele>644.22</ele>
        <time>2018-09-09T08:29:44Z</time>
      </trkpt>
      <trkpt lat="45.10772" lon="5.93645">
        <ele>644.59</ele>
        <time>2018-09-09T08:29:45Z</time>
      </trkpt>
      <trkpt lat="45.1078" lon="5.93668">
        <ele>645.39</ele>
        <time>2018-09-09T08:29:46Z</time>
      </trkpt>
      <trkpt lat="45.10788" lon="5.93692">
        <ele>646.34</ele>
        <time>2018-09-09T08:29:47Z</time>
      </trkpt>
      <trkpt lat="45.10796" lon="5.93717">
        <ele>647.32</ele>
        <time>2018-09-09T08:29:48Z</time>
      </trkpt>
      <trkpt lat="45.10805" lon="5.93742">
        <ele>647.61</ele>
        <time>2018-09-09T08:29:49Z</time>
      </trkpt>
      <trkpt lat="45.10813" lon="5.93767">
        <ele>647.7</ele>
        <time>2018-09-09T08:29:50Z</time>
      </trkpt>
      <trkpt lat="45.1082" lon="5.93793">
        <ele>648.43</ele>
        <time>2018-09-09T08:29:51Z</time>
      </trkpt>
      <trkpt lat="45.10829" lon="5.9382">
        <ele>648.65</ele>
        <time>2018-09-09T08:29:52Z</time>
      </trkpt>
      <trkpt lat="45.10837" lon="5.93846">
        <ele>650.11</ele>
        <time>2018-09-09T08:29:53Z</time>
      </trkpt>
      <trkpt lat="45.10846" lon="5.93873">
        <ele>650.55</ele>
        <time>2018-09-09T08:29:54Z</time>
      </trkpt>
      <trkpt lat="45.10855" lon="5.939">
        <ele>651.38</ele>
        <time>2018-09-09T08:29:55Z</time>
      </trkpt>
      <trkpt lat="45.10864" lon="5.93927">
        <ele>651.63</ele>
        <time>2018-09-09T08:29:56Z</time>
      </trkpt>
      <trkpt lat="45.10874" lon="5.93954">
        <ele>652.41</ele>
        <time>2018-09-09T08:29:57Z</time>
      </trkpt>
      <trkpt lat="45.10884" lon="5.93981">
        <ele>653.34</ele>
        <time>2018-09-09T08:29:58Z</time>
      </trkpt>
      <trkpt lat="45.10892" lon="5.94009">
        <ele>654.32</ele>
        <time>2018-09-09T08:29:59Z</time>
      </trkpt>
      <trkpt lat="45.10901" lon="5.94037">
        <ele>654.62</ele>
        <time>2018-09-09T08:30:00Z</time>
      </trkpt>
      <trkpt lat="45.1091" lon="5.94065">
        <ele>655.4</ele>
        <time>2018-09-09T08:30:01Z</time>
      </trkpt>
      <trkpt lat="45.10919" lon="5.94093">
        <ele>655.64</ele>
        <time>2018-09-09T08:30:02Z</time>
      </trkpt>
      <trkpt lat="45.10928" lon="5.94122">
        <ele>657.11</ele>
        <time>2018-09-09T08:30:03Z</time>
      </trkpt>
      <trkpt lat="45.10937" lon="5.94151">
        <ele>657.55</ele>
        <time>2018-09-09T08:30:04Z</time>
      </trkpt>
      <trkpt lat="45.10947" lon="5.94181">
        <ele>658.38</ele>
        <time>2018-09-09T08:30:05Z</time>
      </trkpt>
      <trkpt lat="45.10955" lon="5.9421">
        <ele>658.63</ele>
        <time>2018-09-09T08:30:06Z</time>
      </trkpt>
      <trkpt lat="45.10964" lon="5.9424">
        <ele>660.11</ele>
        <time>2018-09-09T08:30:07Z</time>
      </trkpt>
      <trkpt lat="45.10972" lon="5.9427">
        <ele>660.55</ele>
        <time>2018-09-09T08:30:08Z</time>
      </trkpt>
      <trkpt lat="45.1098" lon="5.94302">
        <ele>660.68</ele>
        <time>2018-09-09T08:30:09Z</time>
      </trkpt>
      <trkpt lat="45.10989" lon="5.94334">
        <ele>661.42</ele>
        <time>2018-09-09T08:30:10Z</time>
      </trkpt>
      <trkpt lat="45.10998" lon="5.94365">
        <ele>662.35</ele>
        <time>2018-09-09T08:30:11Z</time>
      </trkpt>
      <trkpt lat="45.11008" lon="5.94397">
        <ele>662.62</ele>
        <time>2018-09-09T08:30:12Z</time>
      </trkpt>
      <trkpt lat="45.11019" lon="5.94426">
        <ele>663.41</ele>
        <time>2018-09-09T08:30:13Z</time>
      </trkpt>
      <trkpt lat="45.1103" lon="5.94454">
        <ele>664.34</ele>
        <time>2018-09-09T08:30:14Z</time>
      </trkpt>
      <trkpt lat="45.11043" lon="5.94483">
        <ele>664.62</ele>
        <time>2018-09-09T08:30:15Z</time>
      </trkpt>
      <trkpt lat="45.11057" lon="5.9451">
        <ele>665.4</ele>
        <time>2018-09-09T08:30:16Z</time>
      </trkpt>
      <trkpt lat="45.11073" lon="5.94536">
        <ele>666.34</ele>
        <time>2018-09-09T08:30:17Z</time>
      </trkpt>
      <trkpt lat="45.11089" lon="5.94562">
        <ele>666.62</ele>
        <time>2018-09-09T08:30:18Z</time>
      </trkpt>
      <trkpt lat="45.11105" lon="5.94587">
        <ele>667.4</ele>
        <time>2018-09-09T08:30:19Z</time>
      </trkpt>
      <trkpt lat="45.11121" lon="5.94612">
        <ele>668.34</ele>
        <time>2018-09-09T08:30:20Z</time>
      </trkpt>
      <trkpt lat="45.11137" lon="5.94638">
        <ele>669.32</ele>
        <time>2018-09-09T08:30:21Z</time>
      </trkpt>
      <trkpt lat="45.11154" lon="5.94664">
        <ele>669.61</ele>
        <time>2018-09-09T08:30:22Z</time>
      </trkpt>
      <trkpt lat="45.1117" lon="5.9469">
        <ele>671.1</ele>
        <time>2018-09-09T08:30:23Z</time>
      </trkpt>
      <trkpt lat="45.11186" lon="5.94716">
        <ele>672.25</ele>
        <time>2018-09-09T08:30:24Z</time>
      </trkpt>
      <trkpt lat="45.11202" lon="5.94743">
        <ele>673.29</ele>
        <time>2018-09-09T08:30:25Z</time>
      </trkpt>
      <trkpt lat="45.11216" lon="5.9477">
        <ele>674.31</ele>
        <time>2018-09-09T08:30:26Z</time>
      </trkpt>
      <trkpt lat="45.1123" lon="5.94798">
        <ele>675.31</ele>
        <time>2018-09-09T08:30:27Z</time>
      </trkpt>
      <trkpt lat="45.11243" lon="5.94827">
        <ele>676.31</ele>
        <time>2018-09-09T08:30:28Z</time>
      </trkpt>
      <trkpt lat="45.11256" lon="5.94859">
        <ele>678.01</ele>
        <time>2018-09-09T08:30:29Z</time>
      </trkpt>
      <trkpt lat="45.11269" lon="5.94894">
        <ele>679.22</ele>
        <time>2018-09-09T08:30:30Z</time>
      </trkpt>
      <trkpt lat="45.1128" lon="5.94932">
        <ele>680.29</ele>
        <time>2018-09-09T08:30:31Z</time>
      </trkpt>
      <trkpt lat="45.11291" lon="5.9497">
        <ele>681.3</ele>
        <time>2018-09-09T08:30:32Z</time>
      </trkpt>
      <trkpt lat="45.113" lon="5.95006">
        <ele>682.31</ele>
        <time>2018-09-09T08:30:33Z</time>
      </trkpt>
      <trkpt lat="45.11307" lon="5.95042">
        <ele>684.01</ele>
        <time>2018-09-09T08:30:34Z</time>
      </trkpt>
      <trkpt lat="45.11313" lon="5.95079">
        <ele>685.22</ele>
        <time>2018-09-09T08:30:35Z</time>
      </trkpt>
      <trkpt lat="45.11319" lon="5.95115">
        <ele>686.29</ele>
        <time>2018-09-09T08:30:36Z</time>
      </trkpt>
      <trkpt lat="45.1132" lon="5.95147">
        <ele>687.3</ele>
        <time>2018-09-09T08:30:37Z</time>
      </trkpt>
      <trkpt lat="45.11322" lon="5.9518">
        <ele>688.31</ele>
        <time>2018-09-09T08:30:38Z</time>
      </trkpt>
      <trkpt lat="45.11323" lon="5.95212">
        <ele>689.31</ele>
        <time>2018-09-09T08:30:39Z</time>
      </trkpt>
      <trkpt lat="45.11326" lon="5.95243">
        <ele>690.31</ele>
        <time>2018-09-09T08:30:40Z</time>
      </trkpt>
      <trkpt lat="45.11328" lon="5.95272">
        <ele>691.31</ele>
        <time>2018-09-09T08:30:41Z</time>
      </trkpt>
      <trkpt lat="45.1133" lon="5.953">
        <ele>692.31</ele>
        <time>2018-09-09T08:30:42Z</time>
      </trkpt>
      <trkpt lat="45.11333" lon="5.95327">
        <ele>693.31</ele>
        <time>2018-09-09T08:30:43Z</time>
      </trkpt>
      <trkpt lat="45.11336" lon="5.95354">
        <ele>694.31</ele>
        <time>2018-09-09T08:30:44Z</time>
      </trkpt>
      <trkpt lat="45.11339" lon="5.95381">
        <ele>695.31</ele>
        <time>2018-09-09T08:30:45Z</time>
      </trkpt>
      <trkpt lat="45.11341" lon="5.95406">
        <ele>696.31</ele>
        <time>2018-09-09T08:30:46Z</time>
      </trkpt>
      <trkpt lat="45.11343" lon="5.95432">
        <ele>696.61</ele>
        <time>2018-09-09T08:30:47Z</time>
      </trkpt>
      <trkpt lat="45.11348" lon="5.95482">
        <ele>697.64</ele>
        <time>2018-09-09T08:30:49Z</time>
      </trkpt>
      <trkpt lat="45.11352" lon="5.95532">
        <ele>699.34</ele>
        <time>2018-09-09T08:30:51Z</time>
      </trkpt>
      <trkpt lat="45.11356" lon="5.95582">
        <ele>700.62</ele>
        <time>2018-09-09T08:30:53Z</time>
      </trkpt>
      <trkpt lat="45.11359" lon="5.95608">
        <ele>701.4</ele>
        <time>2018-09-09T08:30:54Z</time>
      </trkpt>
      <trkpt lat="45.11363" lon="5.95633">
        <ele>701.64</ele>
        <time>2018-09-09T08:30:55Z</time>
      </trkpt>
      <trkpt lat="45.11377" lon="5.95679">
        <ele>701.73</ele>
        <time>2018-09-09T08:30:57Z</time>
      </trkpt>
      <trkpt lat="45.11397" lon="5.95715">
        <ele>702.44</ele>
        <time>2018-09-09T08:30:59Z</time>
      </trkpt>
      <trkpt lat="45.11415" lon="5.9575">
        <ele>703.41</ele>
        <time>2018-09-09T08:31:01Z</time>
      </trkpt>
      <trkpt lat="45.11419" lon="5.95788">
        <ele>703.71</ele>
        <time>2018-09-09T08:31:03Z</time>
      </trkpt>
      <trkpt lat="45.11415" lon="5.95828">
        <ele>703.95</ele>
        <time>2018-09-09T08:31:05Z</time>
      </trkpt>
      <trkpt lat="45.11391" lon="5.95855">
        <ele>703.76</ele>
        <time>2018-09-09T08:31:07Z</time>
      </trkpt>
      <trkpt lat="45.11376" lon="5.95885">
        <ele>703.95</ele>
        <time>2018-09-09T08:31:09Z</time>
      </trkpt>
      <trkpt lat="45.11381" lon="5.95925">
        <ele>703.06</ele>
        <time>2018-09-09T08:31:11Z</time>
      </trkpt>
      <trkpt lat="45.11411" lon="5.9596">
        <ele>703.26</ele>
        <time>2018-09-09T08:31:13Z</time>
      </trkpt>
      <trkpt lat="45.11428" lon="5.95979">
        <ele>702.9</ele>
        <time>2018-09-09T08:31:14Z</time>
      </trkpt>
      <trkpt lat="45.11442" lon="5.95999">
        <ele>702.79</ele>
        <time>2018-09-09T08:31:15Z</time>
      </trkpt>
      <trkpt lat="45.11456" lon="5.9602">
        <ele>702.76</ele>
        <time>2018-09-09T08:31:16Z</time>
      </trkpt>
      <trkpt lat="45.11472" lon="5.96041">
        <ele>703.45</ele>
        <time>2018-09-09T08:31:17Z</time>
      </trkpt>
      <trkpt lat="45.11487" lon="5.96062">
        <ele>703.65</ele>
        <time>2018-09-09T08:31:18Z</time>
      </trkpt>
      <trkpt lat="45.11502" lon="5.96082">
        <ele>703.01</ele>
        <time>2018-09-09T08:31:19Z</time>
      </trkpt>
      <trkpt lat="45.11518" lon="5.96103">
        <ele>702.12</ele>
        <time>2018-09-09T08:31:20Z</time>
      </trkpt>
      <trkpt lat="45.11534" lon="5.96123">
        <ele>701.16</ele>
        <time>2018-09-09T08:31:21Z</time>
      </trkpt>
      <trkpt lat="45.1155" lon="5.96143">
        <ele>701.57</ele>
        <time>2018-09-09T08:31:22Z</time>
      </trkpt>
      <trkpt lat="45.11564" lon="5.96164">
        <ele>700.99</ele>
        <time>2018-09-09T08:31:23Z</time>
      </trkpt>
      <trkpt lat="45.11578" lon="5.96185">
        <ele>700.82</ele>
        <time>2018-09-09T08:31:24Z</time>
      </trkpt>
      <trkpt lat="45.11593" lon="5.96206">
        <ele>700.76</ele>
        <time>2018-09-09T08:31:25Z</time>
      </trkpt>
      <trkpt lat="45.11609" lon="5.96227">
        <ele>700.75</ele>
        <time>2018-09-09T08:31:26Z</time>
      </trkpt>
      <trkpt lat="45.11622" lon="5.96249">
        <ele>700.74</ele>
        <time>2018-09-09T08:31:27Z</time>
      </trkpt>
      <trkpt lat="45.11632" lon="5.96273">
        <ele>700.74</ele>
        <time>2018-09-09T08:31:28Z</time>
      </trkpt>
      <trkpt lat="45.1164" lon="5.963">
        <ele>700.74</ele>
        <time>2018-09-09T08:31:29Z</time>
      </trkpt>
      <trkpt lat="45.11644" lon="5.96328">
        <ele>701.44</ele>
        <time>2018-09-09T08:31:30Z</time>
      </trkpt>
      <trkpt lat="45.11647" lon="5.96357">
        <ele>700.95</ele>
        <time>2018-09-09T08:31:31Z</time>
      </trkpt>
      <trkpt lat="45.11648" lon="5.96385">
        <ele>701.5</ele>
        <time>2018-09-09T08:31:32Z</time>
      </trkpt>
      <trkpt lat="45.11647" lon="5.96413">
        <ele>701.67</ele>
        <time>2018-09-09T08:31:33Z</time>
      </trkpt>
      <trkpt lat="45.11647" lon="5.96441">
        <ele>702.42</ele>
        <time>2018-09-09T08:31:34Z</time>
      </trkpt>
      <trkpt lat="45.11646" lon="5.9647">
        <ele>702.64</ele>
        <time>2018-09-09T08:31:35Z</time>
      </trkpt>
      <trkpt lat="45.11647" lon="5.96498">
        <ele>702.71</ele>
        <time>2018-09-09T08:31:36Z</time>
      </trkpt>
      <trkpt lat="45.11645" lon="5.96526">
        <ele>702.73</ele>
        <time>2018-09-09T08:31:37Z</time>
      </trkpt>
      <trkpt lat="45.11645" lon="5.96555">
        <ele>702.74</ele>
        <time>2018-09-09T08:31:38Z</time>
      </trkpt>
      <trkpt lat="45.11645" lon="5.96585">
        <ele>703.44</ele>
        <time>2018-09-09T08:31:39Z</time>
      </trkpt>
      <trkpt lat="45.11644" lon="5.96615">
        <ele>703.65</ele>
        <time>2018-09-09T08:31:40Z</time>
      </trkpt>
      <trkpt lat="45.11644" lon="5.96645">
        <ele>703.71</ele>
        <time>2018-09-09T08:31:41Z</time>
      </trkpt>
      <trkpt lat="45.11642" lon="5.96675">
        <ele>704.43</ele>
        <time>2018-09-09T08:31:42Z</time>
      </trkpt>
      <trkpt lat="45.11643" lon="5.96706">
        <ele>703.95</ele>
        <time>2018-09-09T08:31:43Z</time>
      </trkpt>
      <trkpt lat="45.11643" lon="5.96737">
        <ele>703.8</ele>
        <time>2018-09-09T08:31:44Z</time>
      </trkpt>
      <trkpt lat="45.11643" lon="5.96767">
        <ele>703.76</ele>
        <time>2018-09-09T08:31:45Z</time>
      </trkpt>
      <trkpt lat="45.11644" lon="5.96797">
        <ele>703.75</ele>
        <time>2018-09-09T08:31:46Z</time>
      </trkpt>
      <trkpt lat="45.1165" lon="5.96827">
        <ele>703.04</ele>
        <time>2018-09-09T08:31:47Z</time>
      </trkpt>
      <trkpt lat="45.11654" lon="5.96855">
        <ele>703.53</ele>
        <time>2018-09-09T08:31:48Z</time>
      </trkpt>
      <trkpt lat="45.11659" lon="5.96883">
        <ele>702.98</ele>
        <time>2018-09-09T08:31:49Z</time>
      </trkpt>
      <trkpt lat="45.11681" lon="5.96906">
        <ele>702.81</ele>
        <time>2018-09-09T08:31:50Z</time>
      </trkpt>
      <trkpt lat="45.11694" lon="5.96931">
        <ele>702.06</ele>
        <time>2018-09-09T08:31:51Z</time>
      </trkpt>
      <trkpt lat="45.11708" lon="5.96955">
        <ele>701.14</ele>
        <time>2018-09-09T08:31:52Z</time>
      </trkpt>
      <trkpt lat="45.11721" lon="5.9698">
        <ele>700.16</ele>
        <time>2018-09-09T08:31:53Z</time>
      </trkpt>
      <trkpt lat="45.11732" lon="5.97005">
        <ele>699.87</ele>
        <time>2018-09-09T08:31:54Z</time>
      </trkpt>
      <trkpt lat="45.11744" lon="5.97029">
        <ele>700.48</ele>
        <time>2018-09-09T08:31:55Z</time>
      </trkpt>
      <trkpt lat="45.11757" lon="5.97054">
        <ele>699.96</ele>
        <time>2018-09-09T08:31:56Z</time>
      </trkpt>
      <trkpt lat="45.11768" lon="5.97079">
        <ele>700.51</ele>
        <time>2018-09-09T08:31:57Z</time>
      </trkpt>
      <trkpt lat="45.1178" lon="5.97103">
        <ele>700.67</ele>
        <time>2018-09-09T08:31:58Z</time>
      </trkpt>
      <trkpt lat="45.1179" lon="5.97129">
        <ele>701.42</ele>
        <time>2018-09-09T08:31:59Z</time>
      </trkpt>
      <trkpt lat="45.11798" lon="5.97156">
        <ele>701.64</ele>
        <time>2018-09-09T08:32:00Z</time>
      </trkpt>
      <trkpt lat="45.11805" lon="5.97184">
        <ele>701.71</ele>
        <time>2018-09-09T08:32:01Z</time>
      </trkpt>
      <trkpt lat="45.11812" lon="5.97211">
        <ele>702.43</ele>
        <time>2018-09-09T08:32:02Z</time>
      </trkpt>
      <trkpt lat="45.11818" lon="5.97243">
        <ele>703.35</ele>
        <time>2018-09-09T08:32:03Z</time>
      </trkpt>
      <trkpt lat="45.11819" lon="5.97277">
        <ele>701.52</ele>
        <time>2018-09-09T08:32:04Z</time>
      </trkpt>
      <trkpt lat="45.11819" lon="5.97308">
        <ele>700.28</ele>
        <time>2018-09-09T08:32:05Z</time>
      </trkpt>
      <trkpt lat="45.11815" lon="5.97338">
        <ele>700.6</ele>
        <time>2018-09-09T08:32:06Z</time>
      </trkpt>
      <trkpt lat="45.1181" lon="5.97365">
        <ele>700</ele>
        <time>2018-09-09T08:32:07Z</time>
      </trkpt>
      <trkpt lat="45.11805" lon="5.97395">
        <ele>699.12</ele>
        <time>2018-09-09T08:32:08Z</time>
      </trkpt>
      <trkpt lat="45.11801" lon="5.97425">
        <ele>699.55</ele>
        <time>2018-09-09T08:32:09Z</time>
      </trkpt>
      <trkpt lat="45.11797" lon="5.97454">
        <ele>699.68</ele>
        <time>2018-09-09T08:32:10Z</time>
      </trkpt>
      <trkpt lat="45.11793" lon="5.97483">
        <ele>699.02</ele>
        <time>2018-09-09T08:32:11Z</time>
      </trkpt>
      <trkpt lat="45.1179" lon="5.97514">
        <ele>700.23</ele>
        <time>2018-09-09T08:32:12Z</time>
      </trkpt>
      <trkpt lat="45.11786" lon="5.97544">
        <ele>700.59</ele>
        <time>2018-09-09T08:32:13Z</time>
      </trkpt>
      <trkpt lat="45.11783" lon="5.97575">
        <ele>700.69</ele>
        <time>2018-09-09T08:32:14Z</time>
      </trkpt>
      <trkpt lat="45.11779" lon="5.97606">
        <ele>700.73</ele>
        <time>2018-09-09T08:32:15Z</time>
      </trkpt>
      <trkpt lat="45.11775" lon="5.97637">
        <ele>700.74</ele>
        <time>2018-09-09T08:32:16Z</time>
      </trkpt>
      <trkpt lat="45.11771" lon="5.97668">
        <ele>700.04</ele>
        <time>2018-09-09T08:32:17Z</time>
      </trkpt>
      <trkpt lat="45.11768" lon="5.97698">
        <ele>699.83</ele>
        <time>2018-09-09T08:32:18Z</time>
      </trkpt>
      <trkpt lat="45.11765" lon="5.9773">
        <ele>699.77</ele>
        <time>2018-09-09T08:32:19Z</time>
      </trkpt>
      <trkpt lat="45.11762" lon="5.97761">
        <ele>699.75</ele>
        <time>2018-09-09T08:32:20Z</time>
      </trkpt>
      <trkpt lat="45.11758" lon="5.97792">
        <ele>699.74</ele>
        <time>2018-09-09T08:32:21Z</time>
      </trkpt>
      <trkpt lat="45.11755" lon="5.97823">
        <ele>700.44</ele>
        <time>2018-09-09T08:32:22Z</time>
      </trkpt>
      <trkpt lat="45.11751" lon="5.97855">
        <ele>701.35</ele>
        <time>2018-09-09T08:32:23Z</time>
      </trkpt>
      <trkpt lat="45.11747" lon="5.97886">
        <ele>701.62</ele>
        <time>2018-09-09T08:32:24Z</time>
      </trkpt>
      <trkpt lat="45.11743" lon="5.97917">
        <ele>701.71</ele>
        <time>2018-09-09T08:32:25Z</time>
      </trkpt>
      <trkpt lat="45.1174" lon="5.97947">
        <ele>702.43</ele>
        <time>2018-09-09T08:32:26Z</time>
      </trkpt>
      <trkpt lat="45.11737" lon="5.97979">
        <ele>702.65</ele>
        <time>2018-09-09T08:32:27Z</time>
      </trkpt>
      <trkpt lat="45.11733" lon="5.9801">
        <ele>702.01</ele>
        <time>2018-09-09T08:32:28Z</time>
      </trkpt>
      <trkpt lat="45.1173" lon="5.98041">
        <ele>702.52</ele>
        <time>2018-09-09T08:32:29Z</time>
      </trkpt>
      <trkpt lat="45.11726" lon="5.98072">
        <ele>701.28</ele>
        <time>2018-09-09T08:32:30Z</time>
      </trkpt>
      <trkpt lat="45.11722" lon="5.98102">
        <ele>700.2</ele>
        <time>2018-09-09T08:32:31Z</time>
      </trkpt>
      <trkpt lat="45.11719" lon="5.98133">
        <ele>699.18</ele>
        <time>2018-09-09T08:32:32Z</time>
      </trkpt>
      <trkpt lat="45.11715" lon="5.98164">
        <ele>698.87</ele>
        <time>2018-09-09T08:32:33Z</time>
      </trkpt>
      <trkpt lat="45.11711" lon="5.98195">
        <ele>698.78</ele>
        <time>2018-09-09T08:32:34Z</time>
      </trkpt>
      <trkpt lat="45.11707" lon="5.98226">
        <ele>698.75</ele>
        <time>2018-09-09T08:32:35Z</time>
      </trkpt>
      <trkpt lat="45.11703" lon="5.98257">
        <ele>698.74</ele>
        <time>2018-09-09T08:32:36Z</time>
      </trkpt>
      <trkpt lat="45.11699" lon="5.98288">
        <ele>698.74</ele>
        <time>2018-09-09T08:32:37Z</time>
      </trkpt>
      <trkpt lat="45.11695" lon="5.9832">
        <ele>698.74</ele>
        <time>2018-09-09T08:32:38Z</time>
      </trkpt>
      <trkpt lat="45.11691" lon="5.98352">
        <ele>698.74</ele>
        <time>2018-09-09T08:32:39Z</time>
      </trkpt>
      <trkpt lat="45.11687" lon="5.98384">
        <ele>699.44</ele>
        <time>2018-09-09T08:32:40Z</time>
      </trkpt>
      <trkpt lat="45.11685" lon="5.98416">
        <ele>700.35</ele>
        <time>2018-09-09T08:32:41Z</time>
      </trkpt>
      <trkpt lat="45.11681" lon="5.98449">
        <ele>699.92</ele>
        <time>2018-09-09T08:32:42Z</time>
      </trkpt>
      <trkpt lat="45.11678" lon="5.9848">
        <ele>700.5</ele>
        <time>2018-09-09T08:32:43Z</time>
      </trkpt>
      <trkpt lat="45.11675" lon="5.98512">
        <ele>702.07</ele>
        <time>2018-09-09T08:32:44Z</time>
      </trkpt>
      <trkpt lat="45.11672" lon="5.98544">
        <ele>702.54</ele>
        <time>2018-09-09T08:32:45Z</time>
      </trkpt>
      <trkpt lat="45.11668" lon="5.98575">
        <ele>702.68</ele>
        <time>2018-09-09T08:32:46Z</time>
      </trkpt>
      <trkpt lat="45.11665" lon="5.98606">
        <ele>702.72</ele>
        <time>2018-09-09T08:32:47Z</time>
      </trkpt>
      <trkpt lat="45.11661" lon="5.98637">
        <ele>702.74</ele>
        <time>2018-09-09T08:32:48Z</time>
      </trkpt>
      <trkpt lat="45.11656" lon="5.98667">
        <ele>702.74</ele>
        <time>2018-09-09T08:32:49Z</time>
      </trkpt>
      <trkpt lat="45.11653" lon="5.98697">
        <ele>703.44</ele>
        <time>2018-09-09T08:32:50Z</time>
      </trkpt>
      <trkpt lat="45.1165" lon="5.98728">
        <ele>703.65</ele>
        <time>2018-09-09T08:32:51Z</time>
      </trkpt>
      <trkpt lat="45.11646" lon="5.9876">
        <ele>703.71</ele>
        <time>2018-09-09T08:32:52Z</time>
      </trkpt>
      <trkpt lat="45.11643" lon="5.98789">
        <ele>703.73</ele>
        <time>2018-09-09T08:32:53Z</time>
      </trkpt>
      <trkpt lat="45.11639" lon="5.98821">
        <ele>703.74</ele>
        <time>2018-09-09T08:32:54Z</time>
      </trkpt>
      <trkpt lat="45.11635" lon="5.98851">
        <ele>703.04</ele>
        <time>2018-09-09T08:32:55Z</time>
      </trkpt>
      <trkpt lat="45.11631" lon="5.98882">
        <ele>702.83</ele>
        <time>2018-09-09T08:32:56Z</time>
      </trkpt>
      <trkpt lat="45.11627" lon="5.98912">
        <ele>702.77</ele>
        <time>2018-09-09T08:32:57Z</time>
      </trkpt>
      <trkpt lat="45.11623" lon="5.98943">
        <ele>702.75</ele>
        <time>2018-09-09T08:32:58Z</time>
      </trkpt>
      <trkpt lat="45.1162" lon="5.98974">
        <ele>703.44</ele>
        <time>2018-09-09T08:32:59Z</time>
      </trkpt>
      <trkpt lat="45.11616" lon="5.99005">
        <ele>703.65</ele>
        <time>2018-09-09T08:33:00Z</time>
      </trkpt>
      <trkpt lat="45.11613" lon="5.99037">
        <ele>703.71</ele>
        <time>2018-09-09T08:33:01Z</time>
      </trkpt>
      <trkpt lat="45.11609" lon="5.99068">
        <ele>703.73</ele>
        <time>2018-09-09T08:33:02Z</time>
      </trkpt>
      <trkpt lat="45.11606" lon="5.991">
        <ele>703.74</ele>
        <time>2018-09-09T08:33:03Z</time>
      </trkpt>
      <trkpt lat="45.11602" lon="5.99131">
        <ele>703.74</ele>
        <time>2018-09-09T08:33:04Z</time>
      </trkpt>
      <trkpt lat="45.11599" lon="5.99162">
        <ele>704.44</ele>
        <time>2018-09-09T08:33:05Z</time>
      </trkpt>
      <trkpt lat="45.11595" lon="5.99193">
        <ele>704.65</ele>
        <time>2018-09-09T08:33:06Z</time>
      </trkpt>
      <trkpt lat="45.11592" lon="5.99224">
        <ele>704.71</ele>
        <time>2018-09-09T08:33:07Z</time>
      </trkpt>
      <trkpt lat="45.11588" lon="5.99255">
        <ele>704.73</ele>
        <time>2018-09-09T08:33:08Z</time>
      </trkpt>
      <trkpt lat="45.11585" lon="5.99285">
        <ele>704.04</ele>
        <time>2018-09-09T08:33:09Z</time>
      </trkpt>
      <trkpt lat="45.11581" lon="5.99316">
        <ele>703.83</ele>
        <time>2018-09-09T08:33:10Z</time>
      </trkpt>
      <trkpt lat="45.11577" lon="5.99346">
        <ele>703.77</ele>
        <time>2018-09-09T08:33:11Z</time>
      </trkpt>
      <trkpt lat="45.11574" lon="5.99377">
        <ele>703.75</ele>
        <time>2018-09-09T08:33:12Z</time>
      </trkpt>
      <trkpt lat="45.1157" lon="5.99408">
        <ele>703.74</ele>
        <time>2018-09-09T08:33:13Z</time>
      </trkpt>
      <trkpt lat="45.11566" lon="5.99439">
        <ele>703.74</ele>
        <time>2018-09-09T08:33:14Z</time>
      </trkpt>
      <trkpt lat="45.11563" lon="5.9947">
        <ele>703.74</ele>
        <time>2018-09-09T08:33:15Z</time>
      </trkpt>
      <trkpt lat="45.11559" lon="5.995">
        <ele>704.44</ele>
        <time>2018-09-09T08:33:16Z</time>
      </trkpt>
      <trkpt lat="45.11555" lon="5.99531">
        <ele>704.65</ele>
        <time>2018-09-09T08:33:17Z</time>
      </trkpt>
      <trkpt lat="45.11552" lon="5.99562">
        <ele>705.41</ele>
        <time>2018-09-09T08:33:18Z</time>
      </trkpt>
      <trkpt lat="45.11548" lon="5.99593">
        <ele>705.64</ele>
        <time>2018-09-09T08:33:19Z</time>
      </trkpt>
      <trkpt lat="45.11545" lon="5.99624">
        <ele>705.71</ele>
        <time>2018-09-09T08:33:20Z</time>
      </trkpt>
      <trkpt lat="45.11542" lon="5.99655">
        <ele>706.43</ele>
        <time>2018-09-09T08:33:21Z</time>
      </trkpt>
      <trkpt lat="45.11538" lon="5.99685">
        <ele>705.95</ele>
        <time>2018-09-09T08:33:22Z</time>
      </trkpt>
      <trkpt lat="45.11534" lon="5.99715">
        <ele>706.5</ele>
        <time>2018-09-09T08:33:23Z</time>
      </trkpt>
      <trkpt lat="45.11531" lon="5.99744">
        <ele>705.97</ele>
        <time>2018-09-09T08:33:24Z</time>
      </trkpt>
      <trkpt lat="45.11527" lon="5.99773">
        <ele>705.81</ele>
        <time>2018-09-09T08:33:25Z</time>
      </trkpt>
      <trkpt lat="45.11524" lon="5.99802">
        <ele>705.76</ele>
        <time>2018-09-09T08:33:26Z</time>
      </trkpt>
      <trkpt lat="45.1152" lon="5.99831">
        <ele>705.75</ele>
        <time>2018-09-09T08:33:27Z</time>
      </trkpt>
      <trkpt lat="45.11516" lon="5.99861">
        <ele>705.74</ele>
        <time>2018-09-09T08:33:28Z</time>
      </trkpt>
      <trkpt lat="45.11513" lon="5.9989">
        <ele>705.74</ele>
        <time>2018-09-09T08:33:29Z</time>
      </trkpt>
      <trkpt lat="45.1151" lon="5.9992">
        <ele>705.74</ele>
        <time>2018-09-09T08:33:30Z</time>
      </trkpt>
      <trkpt lat="45.11506" lon="5.99949">
        <ele>705.04</ele>
        <time>2018-09-09T08:33:31Z</time>
      </trkpt>
      <trkpt lat="45.11503" lon="5.99979">
        <ele>704.83</ele>
        <time>2018-09-09T08:33:32Z</time>
      </trkpt>
      <trkpt lat="45.11499" lon="6.00009">
        <ele>704.77</ele>
        <time>2018-09-09T08:33:33Z</time>
      </trkpt>
      <trkpt lat="45.11496" lon="6.00038">
        <ele>705.45</ele>
        <time>2018-09-09T08:33:34Z</time>
      </trkpt>
      <trkpt lat="45.11492" lon="6.00066">
        <ele>705.65</ele>
        <time>2018-09-09T08:33:35Z</time>
      </trkpt>
      <trkpt lat="45.11489" lon="6.00094">
        <ele>705.71</ele>
        <time>2018-09-09T08:33:36Z</time>
      </trkpt>
      <trkpt lat="45.11486" lon="6.00122">
        <ele>705.73</ele>
        <time>2018-09-09T08:33:37Z</time>
      </trkpt>
      <trkpt lat="45.11482" lon="6.0015">
        <ele>705.74</ele>
        <time>2018-09-09T08:33:38Z</time>
      </trkpt>
      <trkpt lat="45.11479" lon="6.00178">
        <ele>705.74</ele>
        <time>2018-09-09T08:33:39Z</time>
      </trkpt>
      <trkpt lat="45.11475" lon="6.00206">
        <ele>705.74</ele>
        <time>2018-09-09T08:33:40Z</time>
      </trkpt>
      <trkpt lat="45.11472" lon="6.00232">
        <ele>705.74</ele>
        <time>2018-09-09T08:33:41Z</time>
      </trkpt>
      <trkpt lat="45.11469" lon="6.0026">
        <ele>705.74</ele>
        <time>2018-09-09T08:33:42Z</time>
      </trkpt>
      <trkpt lat="45.11466" lon="6.00287">
        <ele>705.74</ele>
        <time>2018-09-09T08:33:43Z</time>
      </trkpt>
      <trkpt lat="45.11464" lon="6.00314">
        <ele>706.44</ele>
        <time>2018-09-09T08:33:44Z</time>
      </trkpt>
      <trkpt lat="45.11462" lon="6.0034">
        <ele>706.65</ele>
        <time>2018-09-09T08:33:45Z</time>
      </trkpt>
      <trkpt lat="45.11461" lon="6.00366">
        <ele>706.71</ele>
        <time>2018-09-09T08:33:46Z</time>
      </trkpt>
      <trkpt lat="45.11462" lon="6.00392">
        <ele>706.73</ele>
        <time>2018-09-09T08:33:47Z</time>
      </trkpt>
      <trkpt lat="45.11462" lon="6.00439">
        <ele>706.53</ele>
        <time>2018-09-09T08:33:49Z</time>
      </trkpt>
      <trkpt lat="45.11458" lon="6.00481">
        <ele>706.72</ele>
        <time>2018-09-09T08:33:51Z</time>
      </trkpt>
      <trkpt lat="45.11447" lon="6.00515">
        <ele>705.34</ele>
        <time>2018-09-09T08:33:53Z</time>
      </trkpt>
      <trkpt lat="45.11435" lon="6.00542">
        <ele>705.7</ele>
        <time>2018-09-09T08:33:55Z</time>
      </trkpt>
      <trkpt lat="45.11422" lon="6.00567">
        <ele>705.68</ele>
        <time>2018-09-09T08:33:58Z</time>
      </trkpt>
      <trkpt lat="45.11431" lon="6.00596">
        <ele>705.04</ele>
        <time>2018-09-09T08:34:01Z</time>
      </trkpt>
      <trkpt lat="45.1144" lon="6.00624">
        <ele>704.77</ele>
        <time>2018-09-09T08:34:03Z</time>
      </trkpt>
      <trkpt lat="45.11444" lon="6.00665">
        <ele>704.95</ele>
        <time>2018-09-09T08:34:05Z</time>
      </trkpt>
      <trkpt lat="45.11448" lon="6.00707">
        <ele>705.67</ele>
        <time>2018-09-09T08:34:07Z</time>
      </trkpt>
      <trkpt lat="45.11451" lon="6.00753">
        <ele>706.64</ele>
        <time>2018-09-09T08:34:09Z</time>
      </trkpt>
      <trkpt lat="45.11456" lon="6.00803">
        <ele>707.64</ele>
        <time>2018-09-09T08:34:11Z</time>
      </trkpt>
      <trkpt lat="45.11459" lon="6.0083">
        <ele>707.71</ele>
        <time>2018-09-09T08:34:12Z</time>
      </trkpt>
      <trkpt lat="45.11461" lon="6.00856">
        <ele>707.73</ele>
        <time>2018-09-09T08:34:13Z</time>
      </trkpt>
      <trkpt lat="45.11463" lon="6.00883">
        <ele>707.74</ele>
        <time>2018-09-09T08:34:14Z</time>
      </trkpt>
      <trkpt lat="45.11466" lon="6.0091">
        <ele>707.74</ele>
        <time>2018-09-09T08:34:15Z</time>
      </trkpt>
      <trkpt lat="45.11468" lon="6.00938">
        <ele>707.74</ele>
        <time>2018-09-09T08:34:16Z</time>
      </trkpt>
      <trkpt lat="45.11471" lon="6.00965">
        <ele>707.74</ele>
        <time>2018-09-09T08:34:17Z</time>
      </trkpt>
      <trkpt lat="45.11474" lon="6.00993">
        <ele>707.74</ele>
        <time>2018-09-09T08:34:18Z</time>
      </trkpt>
      <trkpt lat="45.11477" lon="6.0102">
        <ele>708.44</ele>
        <time>2018-09-09T08:34:19Z</time>
      </trkpt>
      <trkpt lat="45.11481" lon="6.01047">
        <ele>708.65</ele>
        <time>2018-09-09T08:34:20Z</time>
      </trkpt>
      <trkpt lat="45.11483" lon="6.01074">
        <ele>708.71</ele>
        <time>2018-09-09T08:34:21Z</time>
      </trkpt>
      <trkpt lat="45.11486" lon="6.01101">
        <ele>709.43</ele>
        <time>2018-09-09T08:34:22Z</time>
      </trkpt>
      <trkpt lat="45.11489" lon="6.01128">
        <ele>709.65</ele>
        <time>2018-09-09T08:34:23Z</time>
      </trkpt>
      <trkpt lat="45.11491" lon="6.01155">
        <ele>710.41</ele>
        <time>2018-09-09T08:34:24Z</time>
      </trkpt>
      <trkpt lat="45.11494" lon="6.01182">
        <ele>710.64</ele>
        <time>2018-09-09T08:34:25Z</time>
      </trkpt>
      <trkpt lat="45.11499" lon="6.01208">
        <ele>710.71</ele>
        <time>2018-09-09T08:34:26Z</time>
      </trkpt>
      <trkpt lat="45.11504" lon="6.01235">
        <ele>710.73</ele>
        <time>2018-09-09T08:34:27Z</time>
      </trkpt>
      <trkpt lat="45.11512" lon="6.01258">
        <ele>710.74</ele>
        <time>2018-09-09T08:34:28Z</time>
      </trkpt>
      <trkpt lat="45.11522" lon="6.0128">
        <ele>710.74</ele>
        <time>2018-09-09T08:34:29Z</time>
      </trkpt>
      <trkpt lat="45.11537" lon="6.01295">
        <ele>710.74</ele>
        <time>2018-09-09T08:34:30Z</time>
      </trkpt>
      <trkpt lat="45.11552" lon="6.01311">
        <ele>710.74</ele>
        <time>2018-09-09T08:34:31Z</time>
      </trkpt>
      <trkpt lat="45.11578" lon="6.01339">
        <ele>711.65</ele>
        <time>2018-09-09T08:34:33Z</time>
      </trkpt>
      <trkpt lat="45.11604" lon="6.01365">
        <ele>710.12</ele>
        <time>2018-09-09T08:34:35Z</time>
      </trkpt>
      <trkpt lat="45.1163" lon="6.01393">
        <ele>709.78</ele>
        <time>2018-09-09T08:34:37Z</time>
      </trkpt>
      <trkpt lat="45.11656" lon="6.01421">
        <ele>708.83</ele>
        <time>2018-09-09T08:34:39Z</time>
      </trkpt>
      <trkpt lat="45.11681" lon="6.01448">
        <ele>707.14</ele>
        <time>2018-09-09T08:34:41Z</time>
      </trkpt>
      <trkpt lat="45.11701" lon="6.01473">
        <ele>706.78</ele>
        <time>2018-09-09T08:34:43Z</time>
      </trkpt>
      <trkpt lat="45.11708" lon="6.01499">
        <ele>705.83</ele>
        <time>2018-09-09T08:34:45Z</time>
      </trkpt>
      <trkpt lat="45.11698" lon="6.01523">
        <ele>705.75</ele>
        <time>2018-09-09T08:34:47Z</time>
      </trkpt>
      <trkpt lat="45.11677" lon="6.01548">
        <ele>705.53</ele>
        <time>2018-09-09T08:34:49Z</time>
      </trkpt>
      <trkpt lat="45.11652" lon="6.01578">
        <ele>706.63</ele>
        <time>2018-09-09T08:34:51Z</time>
      </trkpt>
      <trkpt lat="45.11624" lon="6.01611">
        <ele>706.73</ele>
        <time>2018-09-09T08:34:53Z</time>
      </trkpt>
      <trkpt lat="45.1161" lon="6.01629">
        <ele>706.74</ele>
        <time>2018-09-09T08:34:54Z</time>
      </trkpt>
      <trkpt lat="45.11598" lon="6.01649">
        <ele>706.04</ele>
        <time>2018-09-09T08:34:55Z</time>
      </trkpt>
      <trkpt lat="45.11588" lon="6.01673">
        <ele>705.83</ele>
        <time>2018-09-09T08:34:56Z</time>
      </trkpt>
      <trkpt lat="45.11579" lon="6.01697">
        <ele>705.77</ele>
        <time>2018-09-09T08:34:57Z</time>
      </trkpt>
      <trkpt lat="45.11572" lon="6.01724">
        <ele>706.45</ele>
        <time>2018-09-09T08:34:58Z</time>
      </trkpt>
      <trkpt lat="45.11564" lon="6.0175">
        <ele>706.65</ele>
        <time>2018-09-09T08:34:59Z</time>
      </trkpt>
      <trkpt lat="45.11556" lon="6.01776">
        <ele>706.01</ele>
        <time>2018-09-09T08:35:00Z</time>
      </trkpt>
      <trkpt lat="45.11548" lon="6.01802">
        <ele>705.82</ele>
        <time>2018-09-09T08:35:01Z</time>
      </trkpt>
      <trkpt lat="45.11541" lon="6.01829">
        <ele>705.77</ele>
        <time>2018-09-09T08:35:02Z</time>
      </trkpt>
      <trkpt lat="45.11533" lon="6.01856">
        <ele>706.45</ele>
        <time>2018-09-09T08:35:03Z</time>
      </trkpt>
      <trkpt lat="45.11525" lon="6.01882">
        <ele>706.65</ele>
        <time>2018-09-09T08:35:04Z</time>
      </trkpt>
      <trkpt lat="45.11516" lon="6.01908">
        <ele>706.71</ele>
        <time>2018-09-09T08:35:05Z</time>
      </trkpt>
      <trkpt lat="45.11509" lon="6.01934">
        <ele>706.73</ele>
        <time>2018-09-09T08:35:06Z</time>
      </trkpt>
      <trkpt lat="45.11501" lon="6.01961">
        <ele>706.74</ele>
        <time>2018-09-09T08:35:07Z</time>
      </trkpt>
      <trkpt lat="45.11493" lon="6.01986">
        <ele>706.04</ele>
        <time>2018-09-09T08:35:08Z</time>
      </trkpt>
      <trkpt lat="45.11484" lon="6.02011">
        <ele>705.83</ele>
        <time>2018-09-09T08:35:09Z</time>
      </trkpt>
      <trkpt lat="45.11471" lon="6.02057">
        <ele>705.54</ele>
        <time>2018-09-09T08:35:11Z</time>
      </trkpt>
      <trkpt lat="45.11466" lon="6.02106">
        <ele>705.02</ele>
        <time>2018-09-09T08:35:13Z</time>
      </trkpt>
      <trkpt lat="45.11466" lon="6.02132">
        <ele>704.83</ele>
        <time>2018-09-09T08:35:14Z</time>
      </trkpt>
      <trkpt lat="45.11466" lon="6.02158">
        <ele>704.77</ele>
        <time>2018-09-09T08:35:15Z</time>
      </trkpt>
      <trkpt lat="45.11466" lon="6.02185">
        <ele>705.45</ele>
        <time>2018-09-09T08:35:16Z</time>
      </trkpt>
      <trkpt lat="45.11467" lon="6.02212">
        <ele>705.65</ele>
        <time>2018-09-09T08:35:17Z</time>
      </trkpt>
      <trkpt lat="45.11468" lon="6.02238">
        <ele>705.71</ele>
        <time>2018-09-09T08:35:18Z</time>
      </trkpt>
      <trkpt lat="45.11468" lon="6.02265">
        <ele>706.43</ele>
        <time>2018-09-09T08:35:19Z</time>
      </trkpt>
      <trkpt lat="45.11469" lon="6.02291">
        <ele>705.95</ele>
        <time>2018-09-09T08:35:20Z</time>
      </trkpt>
      <trkpt lat="45.1147" lon="6.02317">
        <ele>705.8</ele>
        <time>2018-09-09T08:35:21Z</time>
      </trkpt>
      <trkpt lat="45.11473" lon="6.02365">
        <ele>705.54</ele>
        <time>2018-09-09T08:35:23Z</time>
      </trkpt>
      <trkpt lat="45.11491" lon="6.02408">
        <ele>704.81</ele>
        <time>2018-09-09T08:35:25Z</time>
      </trkpt>
      <trkpt lat="45.11504" lon="6.02428">
        <ele>704.76</ele>
        <time>2018-09-09T08:35:26Z</time>
      </trkpt>
      <trkpt lat="45.11516" lon="6.02449">
        <ele>704.75</ele>
        <time>2018-09-09T08:35:27Z</time>
      </trkpt>
      <trkpt lat="45.1153" lon="6.02468">
        <ele>704.74</ele>
        <time>2018-09-09T08:35:28Z</time>
      </trkpt>
      <trkpt lat="45.11543" lon="6.02485">
        <ele>705.44</ele>
        <time>2018-09-09T08:35:29Z</time>
      </trkpt>
      <trkpt lat="45.11576" lon="6.02504">
        <ele>706.62</ele>
        <time>2018-09-09T08:35:31Z</time>
      </trkpt>
      <trkpt lat="45.1161" lon="6.02508">
        <ele>709.46</ele>
        <time>2018-09-09T08:35:33Z</time>
      </trkpt>
      <trkpt lat="45.11646" lon="6.02515">
        <ele>711.12</ele>
        <time>2018-09-09T08:35:35Z</time>
      </trkpt>
      <trkpt lat="45.11664" lon="6.0252">
        <ele>712.25</ele>
        <time>2018-09-09T08:35:36Z</time>
      </trkpt>
      <trkpt lat="45.11699" lon="6.02535">
        <ele>713.4</ele>
        <time>2018-09-09T08:35:38Z</time>
      </trkpt>
      <trkpt lat="45.11718" lon="6.02544">
        <ele>713.64</ele>
        <time>2018-09-09T08:35:39Z</time>
      </trkpt>
      <trkpt lat="45.11737" lon="6.02552">
        <ele>714.41</ele>
        <time>2018-09-09T08:35:40Z</time>
      </trkpt>
      <trkpt lat="45.11756" lon="6.02565">
        <ele>714.64</ele>
        <time>2018-09-09T08:35:41Z</time>
      </trkpt>
      <trkpt lat="45.11775" lon="6.02578">
        <ele>714.71</ele>
        <time>2018-09-09T08:35:42Z</time>
      </trkpt>
      <trkpt lat="45.11792" lon="6.02593">
        <ele>714.73</ele>
        <time>2018-09-09T08:35:43Z</time>
      </trkpt>
      <trkpt lat="45.11808" lon="6.02609">
        <ele>714.74</ele>
        <time>2018-09-09T08:35:44Z</time>
      </trkpt>
      <trkpt lat="45.11824" lon="6.02627">
        <ele>715.44</ele>
        <time>2018-09-09T08:35:45Z</time>
      </trkpt>
      <trkpt lat="45.11841" lon="6.02645">
        <ele>716.35</ele>
        <time>2018-09-09T08:35:46Z</time>
      </trkpt>
      <trkpt lat="45.11855" lon="6.02662">
        <ele>715.92</ele>
        <time>2018-09-09T08:35:47Z</time>
      </trkpt>
      <trkpt lat="45.11871" lon="6.02679">
        <ele>716.5</ele>
        <time>2018-09-09T08:35:48Z</time>
      </trkpt>
      <trkpt lat="45.11887" lon="6.02697">
        <ele>716.67</ele>
        <time>2018-09-09T08:35:49Z</time>
      </trkpt>
      <trkpt lat="45.11899" lon="6.02722">
        <ele>717.42</ele>
        <time>2018-09-09T08:35:50Z</time>
      </trkpt>
      <trkpt lat="45.11912" lon="6.02744">
        <ele>719.74</ele>
        <time>2018-09-09T08:35:51Z</time>
      </trkpt>
      <trkpt lat="45.11925" lon="6.02767">
        <ele>721.84</ele>
        <time>2018-09-09T08:35:52Z</time>
      </trkpt>
      <trkpt lat="45.11937" lon="6.0279">
        <ele>723.87</ele>
        <time>2018-09-09T08:35:53Z</time>
      </trkpt>
      <trkpt lat="45.11947" lon="6.02813">
        <ele>725.88</ele>
        <time>2018-09-09T08:35:54Z</time>
      </trkpt>
      <trkpt lat="45.11956" lon="6.02839">
        <ele>727.88</ele>
        <time>2018-09-09T08:35:55Z</time>
      </trkpt>
      <trkpt lat="45.11964" lon="6.02863">
        <ele>729.18</ele>
        <time>2018-09-09T08:35:56Z</time>
      </trkpt>
      <trkpt lat="45.11972" lon="6.02889">
        <ele>730.27</ele>
        <time>2018-09-09T08:35:57Z</time>
      </trkpt>
      <trkpt lat="45.1198" lon="6.02913">
        <ele>731.3</ele>
        <time>2018-09-09T08:35:58Z</time>
      </trkpt>
      <trkpt lat="45.11995" lon="6.02958">
        <ele>732.61</ele>
        <time>2018-09-09T08:36:00Z</time>
      </trkpt>
      <trkpt lat="45.12005" lon="6.03008">
        <ele>732.94</ele>
        <time>2018-09-09T08:36:02Z</time>
      </trkpt>
      <trkpt lat="45.12011" lon="6.03034">
        <ele>733.5</ele>
        <time>2018-09-09T08:36:03Z</time>
      </trkpt>
      <trkpt lat="45.12021" lon="6.03058">
        <ele>734.37</ele>
        <time>2018-09-09T08:36:04Z</time>
      </trkpt>
      <trkpt lat="45.12029" lon="6.03082">
        <ele>735.33</ele>
        <time>2018-09-09T08:36:05Z</time>
      </trkpt>
      <trkpt lat="45.12039" lon="6.03105">
        <ele>736.32</ele>
        <time>2018-09-09T08:36:06Z</time>
      </trkpt>
      <trkpt lat="45.12055" lon="6.03143">
        <ele>734.39</ele>
        <time>2018-09-09T08:36:08Z</time>
      </trkpt>
      <trkpt lat="45.12073" lon="6.03176">
        <ele>734.71</ele>
        <time>2018-09-09T08:36:10Z</time>
      </trkpt>
      <trkpt lat="45.1209" lon="6.03205">
        <ele>734.74</ele>
        <time>2018-09-09T08:36:12Z</time>
      </trkpt>
      <trkpt lat="45.12107" lon="6.03234">
        <ele>734.53</ele>
        <time>2018-09-09T08:36:14Z</time>
      </trkpt>
      <trkpt lat="45.12119" lon="6.0327">
        <ele>735.63</ele>
        <time>2018-09-09T08:36:16Z</time>
      </trkpt>
      <trkpt lat="45.1213" lon="6.03306">
        <ele>737.83</ele>
        <time>2018-09-09T08:36:18Z</time>
      </trkpt>
      <trkpt lat="45.12145" lon="6.0334">
        <ele>741.18</ele>
        <time>2018-09-09T08:36:20Z</time>
      </trkpt>
      <trkpt lat="45.12153" lon="6.03378">
        <ele>745.12</ele>
        <time>2018-09-09T08:36:22Z</time>
      </trkpt>
      <trkpt lat="45.12147" lon="6.03415">
        <ele>748.7</ele>
        <time>2018-09-09T08:36:24Z</time>
      </trkpt>
      <trkpt lat="45.12132" lon="6.03446">
        <ele>750.77</ele>
        <time>2018-09-09T08:36:26Z</time>
      </trkpt>
      <trkpt lat="45.12125" lon="6.03477">
        <ele>750.74</ele>
        <time>2018-09-09T08:36:28Z</time>
      </trkpt>
      <trkpt lat="45.12129" lon="6.03504">
        <ele>751.44</ele>
        <time>2018-09-09T08:36:30Z</time>
      </trkpt>
      <trkpt lat="45.12145" lon="6.03525">
        <ele>750.8</ele>
        <time>2018-09-09T08:36:32Z</time>
      </trkpt>
      <trkpt lat="45.12166" lon="6.03531">
        <ele>750.54</ele>
        <time>2018-09-09T08:36:34Z</time>
      </trkpt>
      <trkpt lat="45.12188" lon="6.03511">
        <ele>752.08</ele>
        <time>2018-09-09T08:36:35Z</time>
      </trkpt>
      <trkpt lat="45.12208" lon="6.03511">
        <ele>752.54</ele>
        <time>2018-09-09T08:36:36Z</time>
      </trkpt>
      <trkpt lat="45.12237" lon="6.03515">
        <ele>758.67</ele>
        <time>2018-09-09T08:36:38Z</time>
      </trkpt>
      <trkpt lat="45.12262" lon="6.03548">
        <ele>762.44</ele>
        <time>2018-09-09T08:36:40Z</time>
      </trkpt>
      <trkpt lat="45.12275" lon="6.03567">
        <ele>764.05</ele>
        <time>2018-09-09T08:36:41Z</time>
      </trkpt>
      <trkpt lat="45.12291" lon="6.03585">
        <ele>766.63</ele>
        <time>2018-09-09T08:36:42Z</time>
      </trkpt>
      <trkpt lat="45.12305" lon="6.03602">
        <ele>768.11</ele>
        <time>2018-09-09T08:36:43Z</time>
      </trkpt>
      <trkpt lat="45.12329" lon="6.03637">
        <ele>771.9</ele>
        <time>2018-09-09T08:36:45Z</time>
      </trkpt>
      <trkpt lat="45.12339" lon="6.0366">
        <ele>773.19</ele>
        <time>2018-09-09T08:36:46Z</time>
      </trkpt>
      <trkpt lat="45.12359" lon="6.03703">
        <ele>776.42</ele>
        <time>2018-09-09T08:36:48Z</time>
      </trkpt>
      <trkpt lat="45.1238" lon="6.03743">
        <ele>777.62</ele>
        <time>2018-09-09T08:36:50Z</time>
      </trkpt>
      <trkpt lat="45.12403" lon="6.03779">
        <ele>781.86</ele>
        <time>2018-09-09T08:36:52Z</time>
      </trkpt>
      <trkpt lat="45.12422" lon="6.03819">
        <ele>784.27</ele>
        <time>2018-09-09T08:36:54Z</time>
      </trkpt>
      <trkpt lat="45.12435" lon="6.03862">
        <ele>788.83</ele>
        <time>2018-09-09T08:36:56Z</time>
      </trkpt>
      <trkpt lat="45.12445" lon="6.03905">
        <ele>791.27</ele>
        <time>2018-09-09T08:36:58Z</time>
      </trkpt>
      <trkpt lat="45.1246" lon="6.03949">
        <ele>794.01</ele>
        <time>2018-09-09T08:37:00Z</time>
      </trkpt>
      <trkpt lat="45.12477" lon="6.03988">
        <ele>795.59</ele>
        <time>2018-09-09T08:37:02Z</time>
      </trkpt>
      <trkpt lat="45.12495" lon="6.04015">
        <ele>796.85</ele>
        <time>2018-09-09T08:37:04Z</time>
      </trkpt>
      <trkpt lat="45.12512" lon="6.04048">
        <ele>796.75</ele>
        <time>2018-09-09T08:37:06Z</time>
      </trkpt>
      <trkpt lat="45.12529" lon="6.04091">
        <ele>795.13</ele>
        <time>2018-09-09T08:37:08Z</time>
      </trkpt>
      <trkpt lat="45.1255" lon="6.04134">
        <ele>793.17</ele>
        <time>2018-09-09T08:37:10Z</time>
      </trkpt>
      <trkpt lat="45.1256" lon="6.04157">
        <ele>792.17</ele>
        <time>2018-09-09T08:37:11Z</time>
      </trkpt>
      <trkpt lat="45.12569" lon="6.0418">
        <ele>789.77</ele>
        <time>2018-09-09T08:37:12Z</time>
      </trkpt>
      <trkpt lat="45.12579" lon="6.04203">
        <ele>789.05</ele>
        <time>2018-09-09T08:37:13Z</time>
      </trkpt>
      <trkpt lat="45.12587" lon="6.04226">
        <ele>788.13</ele>
        <time>2018-09-09T08:37:14Z</time>
      </trkpt>
      <trkpt lat="45.12596" lon="6.0425">
        <ele>786.46</ele>
        <time>2018-09-09T08:37:15Z</time>
      </trkpt>
      <trkpt lat="45.1261" lon="6.04296">
        <ele>784.9</ele>
        <time>2018-09-09T08:37:17Z</time>
      </trkpt>
      <trkpt lat="45.12622" lon="6.04327">
        <ele>783.84</ele>
        <time>2018-09-09T08:37:19Z</time>
      </trkpt>
      <trkpt lat="45.12644" lon="6.04343">
        <ele>783.05</ele>
        <time>2018-09-09T08:37:21Z</time>
      </trkpt>
      <trkpt lat="45.12664" lon="6.04349">
        <ele>782.13</ele>
        <time>2018-09-09T08:37:22Z</time>
      </trkpt>
      <trkpt lat="45.12678" lon="6.04365">
        <ele>781.86</ele>
        <time>2018-09-09T08:37:23Z</time>
      </trkpt>
      <trkpt lat="45.12698" lon="6.04383">
        <ele>780.38</ele>
        <time>2018-09-09T08:37:24Z</time>
      </trkpt>
      <trkpt lat="45.12713" lon="6.044">
        <ele>779.23</ele>
        <time>2018-09-09T08:37:25Z</time>
      </trkpt>
      <trkpt lat="45.12728" lon="6.04415">
        <ele>777.49</ele>
        <time>2018-09-09T08:37:26Z</time>
      </trkpt>
      <trkpt lat="45.12744" lon="6.04428">
        <ele>775.57</ele>
        <time>2018-09-09T08:37:27Z</time>
      </trkpt>
      <trkpt lat="45.12766" lon="6.04465">
        <ele>772.51</ele>
        <time>2018-09-09T08:37:29Z</time>
      </trkpt>
      <trkpt lat="45.12778" lon="6.04488">
        <ele>772.67</ele>
        <time>2018-09-09T08:37:30Z</time>
      </trkpt>
      <trkpt lat="45.1279" lon="6.04511">
        <ele>772.02</ele>
        <time>2018-09-09T08:37:31Z</time>
      </trkpt>
      <trkpt lat="45.128" lon="6.04534">
        <ele>771.12</ele>
        <time>2018-09-09T08:37:32Z</time>
      </trkpt>
      <trkpt lat="45.12812" lon="6.04557">
        <ele>770.86</ele>
        <time>2018-09-09T08:37:33Z</time>
      </trkpt>
      <trkpt lat="45.12824" lon="6.0458">
        <ele>770.78</ele>
        <time>2018-09-09T08:37:34Z</time>
      </trkpt>
      <trkpt lat="45.12837" lon="6.04601">
        <ele>769.35</ele>
        <time>2018-09-09T08:37:35Z</time>
      </trkpt>
      <trkpt lat="45.1285" lon="6.04623">
        <ele>768.92</ele>
        <time>2018-09-09T08:37:36Z</time>
      </trkpt>
      <trkpt lat="45.12864" lon="6.04645">
        <ele>768.8</ele>
        <time>2018-09-09T08:37:37Z</time>
      </trkpt>
      <trkpt lat="45.12877" lon="6.04667">
        <ele>768.06</ele>
        <time>2018-09-09T08:37:38Z</time>
      </trkpt>
      <trkpt lat="45.12891" lon="6.04688">
        <ele>768.54</ele>
        <time>2018-09-09T08:37:39Z</time>
      </trkpt>
      <trkpt lat="45.12904" lon="6.0471">
        <ele>768.68</ele>
        <time>2018-09-09T08:37:40Z</time>
      </trkpt>
      <trkpt lat="45.12917" lon="6.04731">
        <ele>768.02</ele>
        <time>2018-09-09T08:37:41Z</time>
      </trkpt>
      <trkpt lat="45.1293" lon="6.04751">
        <ele>767.83</ele>
        <time>2018-09-09T08:37:42Z</time>
      </trkpt>
      <trkpt lat="45.12943" lon="6.0477">
        <ele>767.77</ele>
        <time>2018-09-09T08:37:43Z</time>
      </trkpt>
      <trkpt lat="45.1296" lon="6.0478">
        <ele>768.45</ele>
        <time>2018-09-09T08:37:44Z</time>
      </trkpt>
      <trkpt lat="45.12977" lon="6.0479">
        <ele>767.95</ele>
        <time>2018-09-09T08:37:45Z</time>
      </trkpt>
      <trkpt lat="45.12996" lon="6.04794">
        <ele>767.8</ele>
        <time>2018-09-09T08:37:46Z</time>
      </trkpt>
      <trkpt lat="45.13015" lon="6.048">
        <ele>767.76</ele>
        <time>2018-09-09T08:37:47Z</time>
      </trkpt>
      <trkpt lat="45.13035" lon="6.04805">
        <ele>767.75</ele>
        <time>2018-09-09T08:37:48Z</time>
      </trkpt>
      <trkpt lat="45.13054" lon="6.04811">
        <ele>767.04</ele>
        <time>2018-09-09T08:37:49Z</time>
      </trkpt>
      <trkpt lat="45.13074" lon="6.04818">
        <ele>768.23</ele>
        <time>2018-09-09T08:37:50Z</time>
      </trkpt>
      <trkpt lat="45.13094" lon="6.04825">
        <ele>769.29</ele>
        <time>2018-09-09T08:37:51Z</time>
      </trkpt>
      <trkpt lat="45.13113" lon="6.04831">
        <ele>769.61</ele>
        <time>2018-09-09T08:37:52Z</time>
      </trkpt>
      <trkpt lat="45.13132" lon="6.04838">
        <ele>770.4</ele>
        <time>2018-09-09T08:37:53Z</time>
      </trkpt>
      <trkpt lat="45.13152" lon="6.04845">
        <ele>769.94</ele>
        <time>2018-09-09T08:37:54Z</time>
      </trkpt>
      <trkpt lat="45.13173" lon="6.04853">
        <ele>769.1</ele>
        <time>2018-09-09T08:37:55Z</time>
      </trkpt>
      <trkpt lat="45.13193" lon="6.04859">
        <ele>769.55</ele>
        <time>2018-09-09T08:37:56Z</time>
      </trkpt>
      <trkpt lat="45.13213" lon="6.04866">
        <ele>768.98</ele>
        <time>2018-09-09T08:37:57Z</time>
      </trkpt>
      <trkpt lat="45.13232" lon="6.04871">
        <ele>768.11</ele>
        <time>2018-09-09T08:37:58Z</time>
      </trkpt>
      <trkpt lat="45.13252" lon="6.04876">
        <ele>768.55</ele>
        <time>2018-09-09T08:37:59Z</time>
      </trkpt>
      <trkpt lat="45.13271" lon="6.04882">
        <ele>767.98</ele>
        <time>2018-09-09T08:38:00Z</time>
      </trkpt>
      <trkpt lat="45.1329" lon="6.04887">
        <ele>768.51</ele>
        <time>2018-09-09T08:38:01Z</time>
      </trkpt>
      <trkpt lat="45.13309" lon="6.04891">
        <ele>767.97</ele>
        <time>2018-09-09T08:38:02Z</time>
      </trkpt>
      <trkpt lat="45.13329" lon="6.04896">
        <ele>767.81</ele>
        <time>2018-09-09T08:38:03Z</time>
      </trkpt>
      <trkpt lat="45.13348" lon="6.04901">
        <ele>767.76</ele>
        <time>2018-09-09T08:38:04Z</time>
      </trkpt>
      <trkpt lat="45.13367" lon="6.04906">
        <ele>767.05</ele>
        <time>2018-09-09T08:38:05Z</time>
      </trkpt>
      <trkpt lat="45.13387" lon="6.04911">
        <ele>767.53</ele>
        <time>2018-09-09T08:38:06Z</time>
      </trkpt>
      <trkpt lat="45.13408" lon="6.04917">
        <ele>768.38</ele>
        <time>2018-09-09T08:38:07Z</time>
      </trkpt>
      <trkpt lat="45.13427" lon="6.04922">
        <ele>769.33</ele>
        <time>2018-09-09T08:38:08Z</time>
      </trkpt>
      <trkpt lat="45.13448" lon="6.04926">
        <ele>768.92</ele>
        <time>2018-09-09T08:38:09Z</time>
      </trkpt>
      <trkpt lat="45.13468" lon="6.04929">
        <ele>768.79</ele>
        <time>2018-09-09T08:38:10Z</time>
      </trkpt>
      <trkpt lat="45.13488" lon="6.04932">
        <ele>768.76</ele>
        <time>2018-09-09T08:38:11Z</time>
      </trkpt>
      <trkpt lat="45.13508" lon="6.04937">
        <ele>768.75</ele>
        <time>2018-09-09T08:38:12Z</time>
      </trkpt>
      <trkpt lat="45.13529" lon="6.04941">
        <ele>768.04</ele>
        <time>2018-09-09T08:38:13Z</time>
      </trkpt>
      <trkpt lat="45.13548" lon="6.04946">
        <ele>767.83</ele>
        <time>2018-09-09T08:38:14Z</time>
      </trkpt>
      <trkpt lat="45.13567" lon="6.0495">
        <ele>767.77</ele>
        <time>2018-09-09T08:38:15Z</time>
      </trkpt>
      <trkpt lat="45.13602" lon="6.04956">
        <ele>768.65</ele>
        <time>2018-09-09T08:38:17Z</time>
      </trkpt>
      <trkpt lat="45.13637" lon="6.04953">
        <ele>768.94</ele>
        <time>2018-09-09T08:38:19Z</time>
      </trkpt>
      <trkpt lat="45.13669" lon="6.04929">
        <ele>769.46</ele>
        <time>2018-09-09T08:38:21Z</time>
      </trkpt>
      <trkpt lat="45.13686" lon="6.04915">
        <ele>770.36</ele>
        <time>2018-09-09T08:38:22Z</time>
      </trkpt>
      <trkpt lat="45.13702" lon="6.04901">
        <ele>771.33</ele>
        <time>2018-09-09T08:38:23Z</time>
      </trkpt>
      <trkpt lat="45.13719" lon="6.04886">
        <ele>770.92</ele>
        <time>2018-09-09T08:38:24Z</time>
      </trkpt>
      <trkpt lat="45.13736" lon="6.04872">
        <ele>770.79</ele>
        <time>2018-09-09T08:38:25Z</time>
      </trkpt>
      <trkpt lat="45.13754" lon="6.04859">
        <ele>770.76</ele>
        <time>2018-09-09T08:38:26Z</time>
      </trkpt>
      <trkpt lat="45.13772" lon="6.04848">
        <ele>770.75</ele>
        <time>2018-09-09T08:38:27Z</time>
      </trkpt>
      <trkpt lat="45.13793" lon="6.04845">
        <ele>770.04</ele>
        <time>2018-09-09T08:38:28Z</time>
      </trkpt>
      <trkpt lat="45.13813" lon="6.0484">
        <ele>769.83</ele>
        <time>2018-09-09T08:38:29Z</time>
      </trkpt>
      <trkpt lat="45.13832" lon="6.0484">
        <ele>769.77</ele>
        <time>2018-09-09T08:38:30Z</time>
      </trkpt>
      <trkpt lat="45.1385" lon="6.04843">
        <ele>769.75</ele>
        <time>2018-09-09T08:38:31Z</time>
      </trkpt>
      <trkpt lat="45.13869" lon="6.04853">
        <ele>768.34</ele>
        <time>2018-09-09T08:38:32Z</time>
      </trkpt>
      <trkpt lat="45.13888" lon="6.04866">
        <ele>767.92</ele>
        <time>2018-09-09T08:38:33Z</time>
      </trkpt>
      <trkpt lat="45.13908" lon="6.04879">
        <ele>767.8</ele>
        <time>2018-09-09T08:38:34Z</time>
      </trkpt>
      <trkpt lat="45.13927" lon="6.04887">
        <ele>768.46</ele>
        <time>2018-09-09T08:38:35Z</time>
      </trkpt>
      <trkpt lat="45.13946" lon="6.04891">
        <ele>767.96</ele>
        <time>2018-09-09T08:38:36Z</time>
      </trkpt>
      <trkpt lat="45.13966" lon="6.04894">
        <ele>767.81</ele>
        <time>2018-09-09T08:38:37Z</time>
      </trkpt>
      <trkpt lat="45.13986" lon="6.04891">
        <ele>767.76</ele>
        <time>2018-09-09T08:38:38Z</time>
      </trkpt>
      <trkpt lat="45.14006" lon="6.0489">
        <ele>767.75</ele>
        <time>2018-09-09T08:38:39Z</time>
      </trkpt>
      <trkpt lat="45.14026" lon="6.04891">
        <ele>767.74</ele>
        <time>2018-09-09T08:38:40Z</time>
      </trkpt>
      <trkpt lat="45.14047" lon="6.04894">
        <ele>767.04</ele>
        <time>2018-09-09T08:38:41Z</time>
      </trkpt>
      <trkpt lat="45.14067" lon="6.04898">
        <ele>766.83</ele>
        <time>2018-09-09T08:38:42Z</time>
      </trkpt>
      <trkpt lat="45.14087" lon="6.04903">
        <ele>766.77</ele>
        <time>2018-09-09T08:38:43Z</time>
      </trkpt>
      <trkpt lat="45.14106" lon="6.04909">
        <ele>766.75</ele>
        <time>2018-09-09T08:38:44Z</time>
      </trkpt>
      <trkpt lat="45.14124" lon="6.04919">
        <ele>767.44</ele>
        <time>2018-09-09T08:38:45Z</time>
      </trkpt>
      <trkpt lat="45.14143" lon="6.04928">
        <ele>767.65</ele>
        <time>2018-09-09T08:38:46Z</time>
      </trkpt>
      <trkpt lat="45.14163" lon="6.04938">
        <ele>768.41</ele>
        <time>2018-09-09T08:38:47Z</time>
      </trkpt>
      <trkpt lat="45.14181" lon="6.04947">
        <ele>768.64</ele>
        <time>2018-09-09T08:38:48Z</time>
      </trkpt>
      <trkpt lat="45.14199" lon="6.04957">
        <ele>768.71</ele>
        <time>2018-09-09T08:38:49Z</time>
      </trkpt>
      <trkpt lat="45.14218" lon="6.0497">
        <ele>768.03</ele>
        <time>2018-09-09T08:38:50Z</time>
      </trkpt>
      <trkpt lat="45.14237" lon="6.04983">
        <ele>767.83</ele>
        <time>2018-09-09T08:38:51Z</time>
      </trkpt>
      <trkpt lat="45.14255" lon="6.04995">
        <ele>767.77</ele>
        <time>2018-09-09T08:38:52Z</time>
      </trkpt>
      <trkpt lat="45.14273" lon="6.05008">
        <ele>767.75</ele>
        <time>2018-09-09T08:38:53Z</time>
      </trkpt>
      <trkpt lat="45.14291" lon="6.05019">
        <ele>768.44</ele>
        <time>2018-09-09T08:38:54Z</time>
      </trkpt>
      <trkpt lat="45.1431" lon="6.05033">
        <ele>769.35</ele>
        <time>2018-09-09T08:38:55Z</time>
      </trkpt>
      <trkpt lat="45.14327" lon="6.05046">
        <ele>770.32</ele>
        <time>2018-09-09T08:38:56Z</time>
      </trkpt>
      <trkpt lat="45.14345" lon="6.05062">
        <ele>769.92</ele>
        <time>2018-09-09T08:38:57Z</time>
      </trkpt>
      <trkpt lat="45.14361" lon="6.05078">
        <ele>769.09</ele>
        <time>2018-09-09T08:38:58Z</time>
      </trkpt>
      <trkpt lat="45.14377" lon="6.05096">
        <ele>769.55</ele>
        <time>2018-09-09T08:38:59Z</time>
      </trkpt>
      <trkpt lat="45.14392" lon="6.05113">
        <ele>769.68</ele>
        <time>2018-09-09T08:39:00Z</time>
      </trkpt>
      <trkpt lat="45.14409" lon="6.05128">
        <ele>770.42</ele>
        <time>2018-09-09T08:39:01Z</time>
      </trkpt>
      <trkpt lat="45.14427" lon="6.05138">
        <ele>771.35</ele>
        <time>2018-09-09T08:39:02Z</time>
      </trkpt>
      <trkpt lat="45.14443" lon="6.05149">
        <ele>771.62</ele>
        <time>2018-09-09T08:39:03Z</time>
      </trkpt>
      <trkpt lat="45.14469" lon="6.05177">
        <ele>770.61</ele>
        <time>2018-09-09T08:39:05Z</time>
      </trkpt>
      <trkpt lat="45.14482" lon="6.05212">
        <ele>773.04</ele>
        <time>2018-09-09T08:39:07Z</time>
      </trkpt>
      <trkpt lat="45.14456" lon="6.05244">
        <ele>773.19</ele>
        <time>2018-09-09T08:39:09Z</time>
      </trkpt>
      <trkpt lat="45.14446" lon="6.05287">
        <ele>775.09</ele>
        <time>2018-09-09T08:39:11Z</time>
      </trkpt>
      <trkpt lat="45.14443" lon="6.05335">
        <ele>776.59</ele>
        <time>2018-09-09T08:39:13Z</time>
      </trkpt>
      <trkpt lat="45.14446" lon="6.05381">
        <ele>775.33</ele>
        <time>2018-09-09T08:39:15Z</time>
      </trkpt>
      <trkpt lat="45.14455" lon="6.05424">
        <ele>775.7</ele>
        <time>2018-09-09T08:39:17Z</time>
      </trkpt>
      <trkpt lat="45.14463" lon="6.05457">
        <ele>775.53</ele>
        <time>2018-09-09T08:39:19Z</time>
      </trkpt>
      <trkpt lat="45.1449" lon="6.05477">
        <ele>775.72</ele>
        <time>2018-09-09T08:39:21Z</time>
      </trkpt>
      <trkpt lat="45.14509" lon="6.05475">
        <ele>776.44</ele>
        <time>2018-09-09T08:39:22Z</time>
      </trkpt>
      <trkpt lat="45.14529" lon="6.05465">
        <ele>778.05</ele>
        <time>2018-09-09T08:39:23Z</time>
      </trkpt>
      <trkpt lat="45.14548" lon="6.05453">
        <ele>779.23</ele>
        <time>2018-09-09T08:39:24Z</time>
      </trkpt>
      <trkpt lat="45.14574" lon="6.0542">
        <ele>782.92</ele>
        <time>2018-09-09T08:39:26Z</time>
      </trkpt>
      <trkpt lat="45.1458" lon="6.05358">
        <ele>785.98</ele>
        <time>2018-09-09T08:39:28Z</time>
      </trkpt>
      <trkpt lat="45.14585" lon="6.05333">
        <ele>787.91</ele>
        <time>2018-09-09T08:39:29Z</time>
      </trkpt>
      <trkpt lat="45.14588" lon="6.05306">
        <ele>789.89</ele>
        <time>2018-09-09T08:39:30Z</time>
      </trkpt>
      <trkpt lat="45.1459" lon="6.05277">
        <ele>791.19</ele>
        <time>2018-09-09T08:39:31Z</time>
      </trkpt>
      <trkpt lat="45.14594" lon="6.05252">
        <ele>792.97</ele>
        <time>2018-09-09T08:39:32Z</time>
      </trkpt>
      <trkpt lat="45.14598" lon="6.05202">
        <ele>795.28</ele>
        <time>2018-09-09T08:39:34Z</time>
      </trkpt>
      <trkpt lat="45.14609" lon="6.05157">
        <ele>796.61</ele>
        <time>2018-09-09T08:39:36Z</time>
      </trkpt>
      <trkpt lat="45.14636" lon="6.05126">
        <ele>798.34</ele>
        <time>2018-09-09T08:39:38Z</time>
      </trkpt>
      <trkpt lat="45.14664" lon="6.05095">
        <ele>798.7</ele>
        <time>2018-09-09T08:39:40Z</time>
      </trkpt>
      <trkpt lat="45.14694" lon="6.05075">
        <ele>798.95</ele>
        <time>2018-09-09T08:39:42Z</time>
      </trkpt>
      <trkpt lat="45.14723" lon="6.05067">
        <ele>799.67</ele>
        <time>2018-09-09T08:39:44Z</time>
      </trkpt>
      <trkpt lat="45.14752" lon="6.05046">
        <ele>800.43</ele>
        <time>2018-09-09T08:39:46Z</time>
      </trkpt>
      <trkpt lat="45.14774" lon="6.05008">
        <ele>798.19</ele>
        <time>2018-09-09T08:39:48Z</time>
      </trkpt>
      <trkpt lat="45.14795" lon="6.04972">
        <ele>796.17</ele>
        <time>2018-09-09T08:39:50Z</time>
      </trkpt>
      <trkpt lat="45.14809" lon="6.04926">
        <ele>794.17</ele>
        <time>2018-09-09T08:39:52Z</time>
      </trkpt>
      <trkpt lat="45.14822" lon="6.04884">
        <ele>793.08</ele>
        <time>2018-09-09T08:39:54Z</time>
      </trkpt>
      <trkpt lat="45.14844" lon="6.04856">
        <ele>791.37</ele>
        <time>2018-09-09T08:39:56Z</time>
      </trkpt>
      <trkpt lat="45.14876" lon="6.0484">
        <ele>790.1</ele>
        <time>2018-09-09T08:39:58Z</time>
      </trkpt>
      <trkpt lat="45.14895" lon="6.04834">
        <ele>789.85</ele>
        <time>2018-09-09T08:39:59Z</time>
      </trkpt>
      <trkpt lat="45.14914" lon="6.0483">
        <ele>789.77</ele>
        <time>2018-09-09T08:40:00Z</time>
      </trkpt>
      <trkpt lat="45.14934" lon="6.04826">
        <ele>789.75</ele>
        <time>2018-09-09T08:40:01Z</time>
      </trkpt>
      <trkpt lat="45.14953" lon="6.04824">
        <ele>789.74</ele>
        <time>2018-09-09T08:40:02Z</time>
      </trkpt>
      <trkpt lat="45.14971" lon="6.04819">
        <ele>789.74</ele>
        <time>2018-09-09T08:40:03Z</time>
      </trkpt>
      <trkpt lat="45.1499" lon="6.04814">
        <ele>789.74</ele>
        <time>2018-09-09T08:40:04Z</time>
      </trkpt>
      <trkpt lat="45.15007" lon="6.04802">
        <ele>789.74</ele>
        <time>2018-09-09T08:40:05Z</time>
      </trkpt>
      <trkpt lat="45.15025" lon="6.0479">
        <ele>789.74</ele>
        <time>2018-09-09T08:40:06Z</time>
      </trkpt>
      <trkpt lat="45.15043" lon="6.04779">
        <ele>789.04</ele>
        <time>2018-09-09T08:40:07Z</time>
      </trkpt>
      <trkpt lat="45.15062" lon="6.04768">
        <ele>788.83</ele>
        <time>2018-09-09T08:40:08Z</time>
      </trkpt>
      <trkpt lat="45.15079" lon="6.04756">
        <ele>789.47</ele>
        <time>2018-09-09T08:40:09Z</time>
      </trkpt>
      <trkpt lat="45.15099" lon="6.04746">
        <ele>789.66</ele>
        <time>2018-09-09T08:40:10Z</time>
      </trkpt>
      <trkpt lat="45.15117" lon="6.04734">
        <ele>788.32</ele>
        <time>2018-09-09T08:40:11Z</time>
      </trkpt>
      <trkpt lat="45.15137" lon="6.04724">
        <ele>787.91</ele>
        <time>2018-09-09T08:40:12Z</time>
      </trkpt>
      <trkpt lat="45.15156" lon="6.04712">
        <ele>787.79</ele>
        <time>2018-09-09T08:40:13Z</time>
      </trkpt>
      <trkpt lat="45.15172" lon="6.04695">
        <ele>787.76</ele>
        <time>2018-09-09T08:40:14Z</time>
      </trkpt>
      <trkpt lat="45.15186" lon="6.04678">
        <ele>787.75</ele>
        <time>2018-09-09T08:40:15Z</time>
      </trkpt>
      <trkpt lat="45.15201" lon="6.04663">
        <ele>787.04</ele>
        <time>2018-09-09T08:40:16Z</time>
      </trkpt>
      <trkpt lat="45.15217" lon="6.0465">
        <ele>786.83</ele>
        <time>2018-09-09T08:40:17Z</time>
      </trkpt>
      <trkpt lat="45.15234" lon="6.04639">
        <ele>786.77</ele>
        <time>2018-09-09T08:40:18Z</time>
      </trkpt>
      <trkpt lat="45.15253" lon="6.04632">
        <ele>787.45</ele>
        <time>2018-09-09T08:40:19Z</time>
      </trkpt>
      <trkpt lat="45.15271" lon="6.04622">
        <ele>786.95</ele>
        <time>2018-09-09T08:40:20Z</time>
      </trkpt>
      <trkpt lat="45.15289" lon="6.04611">
        <ele>787.5</ele>
        <time>2018-09-09T08:40:21Z</time>
      </trkpt>
      <trkpt lat="45.15303" lon="6.04593">
        <ele>788.37</ele>
        <time>2018-09-09T08:40:22Z</time>
      </trkpt>
      <trkpt lat="45.15319" lon="6.04578">
        <ele>789.33</ele>
        <time>2018-09-09T08:40:23Z</time>
      </trkpt>
      <trkpt lat="45.15336" lon="6.04565">
        <ele>790.32</ele>
        <time>2018-09-09T08:40:24Z</time>
      </trkpt>
      <trkpt lat="45.15354" lon="6.04555">
        <ele>791.31</ele>
        <time>2018-09-09T08:40:25Z</time>
      </trkpt>
      <trkpt lat="45.15372" lon="6.04545">
        <ele>791.61</ele>
        <time>2018-09-09T08:40:26Z</time>
      </trkpt>
      <trkpt lat="45.15392" lon="6.04538">
        <ele>791.7</ele>
        <time>2018-09-09T08:40:27Z</time>
      </trkpt>
      <trkpt lat="45.15415" lon="6.04534">
        <ele>791.73</ele>
        <time>2018-09-09T08:40:28Z</time>
      </trkpt>
      <trkpt lat="45.15438" lon="6.04533">
        <ele>791.74</ele>
        <time>2018-09-09T08:40:29Z</time>
      </trkpt>
      <trkpt lat="45.1546" lon="6.04528">
        <ele>791.74</ele>
        <time>2018-09-09T08:40:30Z</time>
      </trkpt>
      <trkpt lat="45.15482" lon="6.04523">
        <ele>791.74</ele>
        <time>2018-09-09T08:40:31Z</time>
      </trkpt>
      <trkpt lat="45.15504" lon="6.04518">
        <ele>792.44</ele>
        <time>2018-09-09T08:40:32Z</time>
      </trkpt>
      <trkpt lat="45.15523" lon="6.04513">
        <ele>793.35</ele>
        <time>2018-09-09T08:40:33Z</time>
      </trkpt>
      <trkpt lat="45.15541" lon="6.04509">
        <ele>794.32</ele>
        <time>2018-09-09T08:40:34Z</time>
      </trkpt>
      <trkpt lat="45.15568" lon="6.04475">
        <ele>797.92</ele>
        <time>2018-09-09T08:40:36Z</time>
      </trkpt>
      <trkpt lat="45.15584" lon="6.04457">
        <ele>800.6</ele>
        <time>2018-09-09T08:40:37Z</time>
      </trkpt>
      <trkpt lat="45.15601" lon="6.04437">
        <ele>801.4</ele>
        <time>2018-09-09T08:40:38Z</time>
      </trkpt>
      <trkpt lat="45.15619" lon="6.04417">
        <ele>803.04</ele>
        <time>2018-09-09T08:40:39Z</time>
      </trkpt>
      <trkpt lat="45.15639" lon="6.04402">
        <ele>804.23</ele>
        <time>2018-09-09T08:40:40Z</time>
      </trkpt>
      <trkpt lat="45.15662" lon="6.0439">
        <ele>805.99</ele>
        <time>2018-09-09T08:40:41Z</time>
      </trkpt>
      <trkpt lat="45.15681" lon="6.04376">
        <ele>807.92</ele>
        <time>2018-09-09T08:40:42Z</time>
      </trkpt>
      <trkpt lat="45.157" lon="6.04362">
        <ele>809.19</ele>
        <time>2018-09-09T08:40:43Z</time>
      </trkpt>
      <trkpt lat="45.15717" lon="6.04348">
        <ele>811.68</ele>
        <time>2018-09-09T08:40:44Z</time>
      </trkpt>
      <trkpt lat="45.15737" lon="6.04339">
        <ele>814.52</ele>
        <time>2018-09-09T08:40:45Z</time>
      </trkpt>
      <trkpt lat="45.15757" lon="6.04332">
        <ele>816.08</ele>
        <time>2018-09-09T08:40:46Z</time>
      </trkpt>
      <trkpt lat="45.15777" lon="6.04328">
        <ele>817.94</ele>
        <time>2018-09-09T08:40:47Z</time>
      </trkpt>
      <trkpt lat="45.15798" lon="6.04323">
        <ele>819.9</ele>
        <time>2018-09-09T08:40:48Z</time>
      </trkpt>
      <trkpt lat="45.15818" lon="6.04318">
        <ele>821.19</ele>
        <time>2018-09-09T08:40:49Z</time>
      </trkpt>
      <trkpt lat="45.15838" lon="6.04311">
        <ele>822.28</ele>
        <time>2018-09-09T08:40:50Z</time>
      </trkpt>
      <trkpt lat="45.15862" lon="6.04289">
        <ele>826.83</ele>
        <time>2018-09-09T08:40:52Z</time>
      </trkpt>
      <trkpt lat="45.15895" lon="6.04284">
        <ele>830.18</ele>
        <time>2018-09-09T08:40:54Z</time>
      </trkpt>
      <trkpt lat="45.15929" lon="6.0428">
        <ele>833.21</ele>
        <time>2018-09-09T08:40:56Z</time>
      </trkpt>
      <trkpt lat="45.15949" lon="6.04268">
        <ele>834.98</ele>
        <time>2018-09-09T08:40:57Z</time>
      </trkpt>
      <trkpt lat="45.15967" lon="6.04258">
        <ele>837.61</ele>
        <time>2018-09-09T08:40:58Z</time>
      </trkpt>
      <trkpt lat="45.15986" lon="6.04247">
        <ele>840.5</ele>
        <time>2018-09-09T08:40:59Z</time>
      </trkpt>
      <trkpt lat="45.16004" lon="6.04235">
        <ele>842.77</ele>
        <time>2018-09-09T08:41:00Z</time>
      </trkpt>
      <trkpt lat="45.1602" lon="6.04223">
        <ele>844.85</ele>
        <time>2018-09-09T08:41:01Z</time>
      </trkpt>
      <trkpt lat="45.16039" lon="6.04213">
        <ele>847.57</ele>
        <time>2018-09-09T08:41:02Z</time>
      </trkpt>
      <trkpt lat="45.16057" lon="6.04202">
        <ele>849.09</ele>
        <time>2018-09-09T08:41:03Z</time>
      </trkpt>
      <trkpt lat="45.16075" lon="6.04196">
        <ele>849.55</ele>
        <time>2018-09-09T08:41:04Z</time>
      </trkpt>
      <trkpt lat="45.16095" lon="6.04189">
        <ele>850.38</ele>
        <time>2018-09-09T08:41:05Z</time>
      </trkpt>
      <trkpt lat="45.1613" lon="6.04188">
        <ele>850.71</ele>
        <time>2018-09-09T08:41:07Z</time>
      </trkpt>
      <trkpt lat="45.16161" lon="6.04192">
        <ele>851.65</ele>
        <time>2018-09-09T08:41:09Z</time>
      </trkpt>
      <trkpt lat="45.16198" lon="6.042">
        <ele>852.43</ele>
        <time>2018-09-09T08:41:11Z</time>
      </trkpt>
      <trkpt lat="45.16219" lon="6.04204">
        <ele>852.65</ele>
        <time>2018-09-09T08:41:12Z</time>
      </trkpt>
      <trkpt lat="45.1624" lon="6.04208">
        <ele>853.41</ele>
        <time>2018-09-09T08:41:13Z</time>
      </trkpt>
      <trkpt lat="45.16262" lon="6.04208">
        <ele>853.64</ele>
        <time>2018-09-09T08:41:14Z</time>
      </trkpt>
      <trkpt lat="45.16284" lon="6.04208">
        <ele>855.11</ele>
        <time>2018-09-09T08:41:15Z</time>
      </trkpt>
      <trkpt lat="45.16306" lon="6.04206">
        <ele>856.95</ele>
        <time>2018-09-09T08:41:16Z</time>
      </trkpt>
      <trkpt lat="45.16327" lon="6.04204">
        <ele>858.2</ele>
        <time>2018-09-09T08:41:17Z</time>
      </trkpt>
      <trkpt lat="45.1635" lon="6.04202">
        <ele>858.58</ele>
        <time>2018-09-09T08:41:18Z</time>
      </trkpt>
      <trkpt lat="45.16371" lon="6.04201">
        <ele>859.39</ele>
        <time>2018-09-09T08:41:19Z</time>
      </trkpt>
      <trkpt lat="45.16393" lon="6.04202">
        <ele>861.04</ele>
        <time>2018-09-09T08:41:20Z</time>
      </trkpt>
      <trkpt lat="45.16414" lon="6.04202">
        <ele>862.23</ele>
        <time>2018-09-09T08:41:21Z</time>
      </trkpt>
      <trkpt lat="45.16435" lon="6.042">
        <ele>862.59</ele>
        <time>2018-09-09T08:41:22Z</time>
      </trkpt>
      <trkpt lat="45.16455" lon="6.04196">
        <ele>863.39</ele>
        <time>2018-09-09T08:41:23Z</time>
      </trkpt>
      <trkpt lat="45.16477" lon="6.04193">
        <ele>864.34</ele>
        <time>2018-09-09T08:41:24Z</time>
      </trkpt>
      <trkpt lat="45.16498" lon="6.04188">
        <ele>864.62</ele>
        <time>2018-09-09T08:41:25Z</time>
      </trkpt>
      <trkpt lat="45.16518" lon="6.04188">
        <ele>865.4</ele>
        <time>2018-09-09T08:41:26Z</time>
      </trkpt>
      <trkpt lat="45.16539" lon="6.04189">
        <ele>866.34</ele>
        <time>2018-09-09T08:41:27Z</time>
      </trkpt>
      <trkpt lat="45.1656" lon="6.04188">
        <ele>867.32</ele>
        <time>2018-09-09T08:41:28Z</time>
      </trkpt>
      <trkpt lat="45.16578" lon="6.04186">
        <ele>867.61</ele>
        <time>2018-09-09T08:41:29Z</time>
      </trkpt>
      <trkpt lat="45.16598" lon="6.04172">
        <ele>869.1</ele>
        <time>2018-09-09T08:41:30Z</time>
      </trkpt>
      <trkpt lat="45.16619" lon="6.04169">
        <ele>870.25</ele>
        <time>2018-09-09T08:41:31Z</time>
      </trkpt>
      <trkpt lat="45.1664" lon="6.04166">
        <ele>871.29</ele>
        <time>2018-09-09T08:41:32Z</time>
      </trkpt>
      <trkpt lat="45.16662" lon="6.04166">
        <ele>871.61</ele>
        <time>2018-09-09T08:41:33Z</time>
      </trkpt>
      <trkpt lat="45.16684" lon="6.04161">
        <ele>872.4</ele>
        <time>2018-09-09T08:41:34Z</time>
      </trkpt>
      <trkpt lat="45.16706" lon="6.04157">
        <ele>874.04</ele>
        <time>2018-09-09T08:41:35Z</time>
      </trkpt>
      <trkpt lat="45.16727" lon="6.0415">
        <ele>875.23</ele>
        <time>2018-09-09T08:41:36Z</time>
      </trkpt>
      <trkpt lat="45.16748" lon="6.04141">
        <ele>876.99</ele>
        <time>2018-09-09T08:41:37Z</time>
      </trkpt>
      <trkpt lat="45.1677" lon="6.04132">
        <ele>879.62</ele>
        <time>2018-09-09T08:41:38Z</time>
      </trkpt>
      <trkpt lat="45.1679" lon="6.04122">
        <ele>881.1</ele>
        <time>2018-09-09T08:41:39Z</time>
      </trkpt>
      <trkpt lat="45.1681" lon="6.04114">
        <ele>882.25</ele>
        <time>2018-09-09T08:41:40Z</time>
      </trkpt>
      <trkpt lat="45.16828" lon="6.04104">
        <ele>884.69</ele>
        <time>2018-09-09T08:41:41Z</time>
      </trkpt>
      <trkpt lat="45.16844" lon="6.04089">
        <ele>888.93</ele>
        <time>2018-09-09T08:41:42Z</time>
      </trkpt>
      <trkpt lat="45.16859" lon="6.04073">
        <ele>892.3</ele>
        <time>2018-09-09T08:41:43Z</time>
      </trkpt>
      <trkpt lat="45.16867" lon="6.04048">
        <ele>895.41</ele>
        <time>2018-09-09T08:41:44Z</time>
      </trkpt>
      <trkpt lat="45.16877" lon="6.04027">
        <ele>898.44</ele>
        <time>2018-09-09T08:41:45Z</time>
      </trkpt>
      <trkpt lat="45.1689" lon="6.04007">
        <ele>900.75</ele>
        <time>2018-09-09T08:41:46Z</time>
      </trkpt>
      <trkpt lat="45.16903" lon="6.03985">
        <ele>901.44</ele>
        <time>2018-09-09T08:41:47Z</time>
      </trkpt>
      <trkpt lat="45.16917" lon="6.03967">
        <ele>901.65</ele>
        <time>2018-09-09T08:41:48Z</time>
      </trkpt>
      <trkpt lat="45.16933" lon="6.0395">
        <ele>902.41</ele>
        <time>2018-09-09T08:41:49Z</time>
      </trkpt>
      <trkpt lat="45.16952" lon="6.03939">
        <ele>903.34</ele>
        <time>2018-09-09T08:41:50Z</time>
      </trkpt>
      <trkpt lat="45.16975" lon="6.03949">
        <ele>905.02</ele>
        <time>2018-09-09T08:41:51Z</time>
      </trkpt>
      <trkpt lat="45.17011" lon="6.0393">
        <ele>906.1</ele>
        <time>2018-09-09T08:41:53Z</time>
      </trkpt>
      <trkpt lat="45.17029" lon="6.03922">
        <ele>905.85</ele>
        <time>2018-09-09T08:41:54Z</time>
      </trkpt>
      <trkpt lat="45.17048" lon="6.03907">
        <ele>907.87</ele>
        <time>2018-09-09T08:41:55Z</time>
      </trkpt>
      <trkpt lat="45.17069" lon="6.03893">
        <ele>909.18</ele>
        <time>2018-09-09T08:41:56Z</time>
      </trkpt>
      <trkpt lat="45.17092" lon="6.03887">
        <ele>911.67</ele>
        <time>2018-09-09T08:41:57Z</time>
      </trkpt>
      <trkpt lat="45.17112" lon="6.03876">
        <ele>915.22</ele>
        <time>2018-09-09T08:41:58Z</time>
      </trkpt>
      <trkpt lat="45.17131" lon="6.03862">
        <ele>920.48</ele>
        <time>2018-09-09T08:41:59Z</time>
      </trkpt>
      <trkpt lat="45.17152" lon="6.0385">
        <ele>924.86</ele>
        <time>2018-09-09T08:42:00Z</time>
      </trkpt>
      <trkpt lat="45.17171" lon="6.03836">
        <ele>927.58</ele>
        <time>2018-09-09T08:42:01Z</time>
      </trkpt>
      <trkpt lat="45.1719" lon="6.03823">
        <ele>929.79</ele>
        <time>2018-09-09T08:42:02Z</time>
      </trkpt>
      <trkpt lat="45.1721" lon="6.03812">
        <ele>931.86</ele>
        <time>2018-09-09T08:42:03Z</time>
      </trkpt>
      <trkpt lat="45.17229" lon="6.03802">
        <ele>933.18</ele>
        <time>2018-09-09T08:42:04Z</time>
      </trkpt>
      <trkpt lat="45.17249" lon="6.03795">
        <ele>934.27</ele>
        <time>2018-09-09T08:42:05Z</time>
      </trkpt>
      <trkpt lat="45.17268" lon="6.03788">
        <ele>936</ele>
        <time>2018-09-09T08:42:06Z</time>
      </trkpt>
      <trkpt lat="45.17287" lon="6.0378">
        <ele>937.22</ele>
        <time>2018-09-09T08:42:07Z</time>
      </trkpt>
      <trkpt lat="45.17307" lon="6.03774">
        <ele>938.28</ele>
        <time>2018-09-09T08:42:08Z</time>
      </trkpt>
      <trkpt lat="45.17325" lon="6.03769">
        <ele>939.3</ele>
        <time>2018-09-09T08:42:09Z</time>
      </trkpt>
      <trkpt lat="45.17345" lon="6.03767">
        <ele>941.01</ele>
        <time>2018-09-09T08:42:10Z</time>
      </trkpt>
      <trkpt lat="45.17364" lon="6.03767">
        <ele>942.22</ele>
        <time>2018-09-09T08:42:11Z</time>
      </trkpt>
      <trkpt lat="45.17383" lon="6.03764">
        <ele>943.29</ele>
        <time>2018-09-09T08:42:12Z</time>
      </trkpt>
      <trkpt lat="45.17402" lon="6.03759">
        <ele>944.3</ele>
        <time>2018-09-09T08:42:13Z</time>
      </trkpt>
      <trkpt lat="45.17418" lon="6.03742">
        <ele>947.41</ele>
        <time>2018-09-09T08:42:14Z</time>
      </trkpt>
      <trkpt lat="45.17436" lon="6.03728">
        <ele>949.74</ele>
        <time>2018-09-09T08:42:15Z</time>
      </trkpt>
      <trkpt lat="45.17453" lon="6.0371">
        <ele>951.14</ele>
        <time>2018-09-09T08:42:16Z</time>
      </trkpt>
      <trkpt lat="45.17472" lon="6.03697">
        <ele>951.56</ele>
        <time>2018-09-09T08:42:17Z</time>
      </trkpt>
      <trkpt lat="45.1749" lon="6.03688">
        <ele>952.39</ele>
        <time>2018-09-09T08:42:18Z</time>
      </trkpt>
      <trkpt lat="45.17513" lon="6.03686">
        <ele>953.33</ele>
        <time>2018-09-09T08:42:19Z</time>
      </trkpt>
      <trkpt lat="45.17534" lon="6.03681">
        <ele>953.62</ele>
        <time>2018-09-09T08:42:20Z</time>
      </trkpt>
      <trkpt lat="45.17566" lon="6.03673">
        <ele>957.16</ele>
        <time>2018-09-09T08:42:22Z</time>
      </trkpt>
      <trkpt lat="45.17598" lon="6.03674">
        <ele>960.21</ele>
        <time>2018-09-09T08:42:24Z</time>
      </trkpt>
      <trkpt lat="45.1763" lon="6.03683">
        <ele>963.91</ele>
        <time>2018-09-09T08:42:26Z</time>
      </trkpt>
      <trkpt lat="45.1766" lon="6.03679">
        <ele>968.8</ele>
        <time>2018-09-09T08:42:28Z</time>
      </trkpt>
      <trkpt lat="45.17674" lon="6.03664">
        <ele>970.86</ele>
        <time>2018-09-09T08:42:29Z</time>
      </trkpt>
      <trkpt lat="45.17688" lon="6.03641">
        <ele>974.98</ele>
        <time>2018-09-09T08:42:30Z</time>
      </trkpt>
      <trkpt lat="45.17718" lon="6.03625">
        <ele>978.89</ele>
        <time>2018-09-09T08:42:32Z</time>
      </trkpt>
      <trkpt lat="45.17745" lon="6.03629">
        <ele>981.97</ele>
        <time>2018-09-09T08:42:34Z</time>
      </trkpt>
      <trkpt lat="45.1777" lon="6.0365">
        <ele>982.67</ele>
        <time>2018-09-09T08:42:36Z</time>
      </trkpt>
      <trkpt lat="45.17793" lon="6.03655">
        <ele>984.34</ele>
        <time>2018-09-09T08:42:38Z</time>
      </trkpt>
      <trkpt lat="45.17818" lon="6.03646">
        <ele>988.63</ele>
        <time>2018-09-09T08:42:40Z</time>
      </trkpt>
      <trkpt lat="45.1785" lon="6.03644">
        <ele>994.47</ele>
        <time>2018-09-09T08:42:42Z</time>
      </trkpt>
      <trkpt lat="45.17868" lon="6.03647">
        <ele>996.06</ele>
        <time>2018-09-09T08:42:43Z</time>
      </trkpt>
      <trkpt lat="45.17902" lon="6.03646">
        <ele>999.2</ele>
        <time>2018-09-09T08:42:45Z</time>
      </trkpt>
      <trkpt lat="45.17921" lon="6.03638">
        <ele>1000.28</ele>
        <time>2018-09-09T08:42:46Z</time>
      </trkpt>
      <trkpt lat="45.17938" lon="6.03628">
        <ele>1004.1</ele>
        <time>2018-09-09T08:42:47Z</time>
      </trkpt>
      <trkpt lat="45.17955" lon="6.03614">
        <ele>1008.05</ele>
        <time>2018-09-09T08:42:48Z</time>
      </trkpt>
      <trkpt lat="45.17972" lon="6.03596">
        <ele>1010.63</ele>
        <time>2018-09-09T08:42:49Z</time>
      </trkpt>
      <trkpt lat="45.17989" lon="6.03582">
        <ele>1013.51</ele>
        <time>2018-09-09T08:42:50Z</time>
      </trkpt>
      <trkpt lat="45.18007" lon="6.03567">
        <ele>1015.77</ele>
        <time>2018-09-09T08:42:51Z</time>
      </trkpt>
      <trkpt lat="45.18027" lon="6.03559">
        <ele>1017.15</ele>
        <time>2018-09-09T08:42:52Z</time>
      </trkpt>
      <trkpt lat="45.18047" lon="6.0355">
        <ele>1017.56</ele>
        <time>2018-09-09T08:42:53Z</time>
      </trkpt>
      <trkpt lat="45.18067" lon="6.03542">
        <ele>1019.09</ele>
        <time>2018-09-09T08:42:54Z</time>
      </trkpt>
      <trkpt lat="45.18088" lon="6.03532">
        <ele>1020.25</ele>
        <time>2018-09-09T08:42:55Z</time>
      </trkpt>
      <trkpt lat="45.18108" lon="6.03522">
        <ele>1021.29</ele>
        <time>2018-09-09T08:42:56Z</time>
      </trkpt>
      <trkpt lat="45.18129" lon="6.03512">
        <ele>1021.61</ele>
        <time>2018-09-09T08:42:57Z</time>
      </trkpt>
      <trkpt lat="45.18149" lon="6.03504">
        <ele>1022.4</ele>
        <time>2018-09-09T08:42:58Z</time>
      </trkpt>
      <trkpt lat="45.18168" lon="6.03496">
        <ele>1024.04</ele>
        <time>2018-09-09T08:42:59Z</time>
      </trkpt>
      <trkpt lat="45.18187" lon="6.03487">
        <ele>1025.23</ele>
        <time>2018-09-09T08:43:00Z</time>
      </trkpt>
      <trkpt lat="45.18206" lon="6.03482">
        <ele>1027.69</ele>
        <time>2018-09-09T08:43:01Z</time>
      </trkpt>
      <trkpt lat="45.18225" lon="6.03476">
        <ele>1029.12</ele>
        <time>2018-09-09T08:43:02Z</time>
      </trkpt>
      <trkpt lat="45.18244" lon="6.03472">
        <ele>1030.26</ele>
        <time>2018-09-09T08:43:03Z</time>
      </trkpt>
      <trkpt lat="45.18264" lon="6.03471">
        <ele>1031.3</ele>
        <time>2018-09-09T08:43:04Z</time>
      </trkpt>
      <trkpt lat="45.18284" lon="6.03474">
        <ele>1032.31</ele>
        <time>2018-09-09T08:43:05Z</time>
      </trkpt>
      <trkpt lat="45.18304" lon="6.03475">
        <ele>1031.91</ele>
        <time>2018-09-09T08:43:06Z</time>
      </trkpt>
      <trkpt lat="45.18324" lon="6.0347">
        <ele>1032.49</ele>
        <time>2018-09-09T08:43:07Z</time>
      </trkpt>
      <trkpt lat="45.18346" lon="6.03464">
        <ele>1033.37</ele>
        <time>2018-09-09T08:43:08Z</time>
      </trkpt>
      <trkpt lat="45.18366" lon="6.03458">
        <ele>1035.03</ele>
        <time>2018-09-09T08:43:09Z</time>
      </trkpt>
      <trkpt lat="45.18388" lon="6.03454">
        <ele>1034.83</ele>
        <time>2018-09-09T08:43:10Z</time>
      </trkpt>
      <trkpt lat="45.18411" lon="6.03447">
        <ele>1035.47</ele>
        <time>2018-09-09T08:43:11Z</time>
      </trkpt>
      <trkpt lat="45.18435" lon="6.03444">
        <ele>1037.06</ele>
        <time>2018-09-09T08:43:12Z</time>
      </trkpt>
      <trkpt lat="45.1846" lon="6.03437">
        <ele>1038.24</ele>
        <time>2018-09-09T08:43:13Z</time>
      </trkpt>
      <trkpt lat="45.18481" lon="6.0343">
        <ele>1039.29</ele>
        <time>2018-09-09T08:43:14Z</time>
      </trkpt>
      <trkpt lat="45.18502" lon="6.03425">
        <ele>1040.31</ele>
        <time>2018-09-09T08:43:15Z</time>
      </trkpt>
      <trkpt lat="45.18523" lon="6.03421">
        <ele>1042.71</ele>
        <time>2018-09-09T08:43:16Z</time>
      </trkpt>
      <trkpt lat="45.18543" lon="6.03421">
        <ele>1046.23</ele>
        <time>2018-09-09T08:43:17Z</time>
      </trkpt>
      <trkpt lat="45.18563" lon="6.03419">
        <ele>1047.29</ele>
        <time>2018-09-09T08:43:18Z</time>
      </trkpt>
      <trkpt lat="45.18582" lon="6.03415">
        <ele>1047.61</ele>
        <time>2018-09-09T08:43:19Z</time>
      </trkpt>
      <trkpt lat="45.18598" lon="6.03402">
        <ele>1051.2</ele>
        <time>2018-09-09T08:43:20Z</time>
      </trkpt>
      <trkpt lat="45.18616" lon="6.03389">
        <ele>1054.38</ele>
        <time>2018-09-09T08:43:21Z</time>
      </trkpt>
      <trkpt lat="45.18634" lon="6.03381">
        <ele>1058.13</ele>
        <time>2018-09-09T08:43:22Z</time>
      </trkpt>
      <trkpt lat="45.18653" lon="6.03372">
        <ele>1059.96</ele>
        <time>2018-09-09T08:43:23Z</time>
      </trkpt>
      <trkpt lat="45.18672" lon="6.03365">
        <ele>1063.31</ele>
        <time>2018-09-09T08:43:24Z</time>
      </trkpt>
      <trkpt lat="45.1869" lon="6.03358">
        <ele>1065.01</ele>
        <time>2018-09-09T08:43:25Z</time>
      </trkpt>
      <trkpt lat="45.18722" lon="6.03357">
        <ele>1069.81</ele>
        <time>2018-09-09T08:43:27Z</time>
      </trkpt>
      <trkpt lat="45.18753" lon="6.0338">
        <ele>1075.7</ele>
        <time>2018-09-09T08:43:29Z</time>
      </trkpt>
      <trkpt lat="45.1877" lon="6.03392">
        <ele>1077.13</ele>
        <time>2018-09-09T08:43:30Z</time>
      </trkpt>
      <trkpt lat="45.18791" lon="6.03408">
        <ele>1077.56</ele>
        <time>2018-09-09T08:43:31Z</time>
      </trkpt>
      <trkpt lat="45.1881" lon="6.03422">
        <ele>1079.09</ele>
        <time>2018-09-09T08:43:32Z</time>
      </trkpt>
      <trkpt lat="45.18829" lon="6.03437">
        <ele>1079.54</ele>
        <time>2018-09-09T08:43:33Z</time>
      </trkpt>
      <trkpt lat="45.18848" lon="6.03449">
        <ele>1079.68</ele>
        <time>2018-09-09T08:43:34Z</time>
      </trkpt>
      <trkpt lat="45.18867" lon="6.03461">
        <ele>1080.42</ele>
        <time>2018-09-09T08:43:35Z</time>
      </trkpt>
      <trkpt lat="45.18885" lon="6.03472">
        <ele>1081.35</ele>
        <time>2018-09-09T08:43:36Z</time>
      </trkpt>
      <trkpt lat="45.18904" lon="6.03483">
        <ele>1082.32</ele>
        <time>2018-09-09T08:43:37Z</time>
      </trkpt>
      <trkpt lat="45.18923" lon="6.03492">
        <ele>1083.32</ele>
        <time>2018-09-09T08:43:38Z</time>
      </trkpt>
      <trkpt lat="45.18942" lon="6.03499">
        <ele>1084.31</ele>
        <time>2018-09-09T08:43:39Z</time>
      </trkpt>
      <trkpt lat="45.18962" lon="6.03506">
        <ele>1086.01</ele>
        <time>2018-09-09T08:43:40Z</time>
      </trkpt>
      <trkpt lat="45.18981" lon="6.03516">
        <ele>1087.92</ele>
        <time>2018-09-09T08:43:41Z</time>
      </trkpt>
      <trkpt lat="45.18999" lon="6.03528">
        <ele>1089.9</ele>
        <time>2018-09-09T08:43:42Z</time>
      </trkpt>
      <trkpt lat="45.19018" lon="6.03538">
        <ele>1091.89</ele>
        <time>2018-09-09T08:43:43Z</time>
      </trkpt>
      <trkpt lat="45.19038" lon="6.03546">
        <ele>1093.88</ele>
        <time>2018-09-09T08:43:44Z</time>
      </trkpt>
      <trkpt lat="45.19057" lon="6.03553">
        <ele>1095.18</ele>
        <time>2018-09-09T08:43:45Z</time>
      </trkpt>
      <trkpt lat="45.19077" lon="6.03558">
        <ele>1096.27</ele>
        <time>2018-09-09T08:43:46Z</time>
      </trkpt>
      <trkpt lat="45.19097" lon="6.03566">
        <ele>1098.7</ele>
        <time>2018-09-09T08:43:47Z</time>
      </trkpt>
      <trkpt lat="45.19118" lon="6.03571">
        <ele>1100.83</ele>
        <time>2018-09-09T08:43:48Z</time>
      </trkpt>
      <trkpt lat="45.19138" lon="6.03577">
        <ele>1102.17</ele>
        <time>2018-09-09T08:43:49Z</time>
      </trkpt>
      <trkpt lat="45.19159" lon="6.03582">
        <ele>1103.97</ele>
        <time>2018-09-09T08:43:50Z</time>
      </trkpt>
      <trkpt lat="45.1918" lon="6.03584">
        <ele>1104.51</ele>
        <time>2018-09-09T08:43:51Z</time>
      </trkpt>
      <trkpt lat="45.19196" lon="6.03598">
        <ele>1110.27</ele>
        <time>2018-09-09T08:43:52Z</time>
      </trkpt>
      <trkpt lat="45.19227" lon="6.03619">
        <ele>1117.56</ele>
        <time>2018-09-09T08:43:54Z</time>
      </trkpt>
      <trkpt lat="45.19246" lon="6.03622">
        <ele>1116.99</ele>
        <time>2018-09-09T08:43:55Z</time>
      </trkpt>
      <trkpt lat="45.19265" lon="6.03626">
        <ele>1117.51</ele>
        <time>2018-09-09T08:43:56Z</time>
      </trkpt>
      <trkpt lat="45.19284" lon="6.03631">
        <ele>1119.77</ele>
        <time>2018-09-09T08:43:57Z</time>
      </trkpt>
      <trkpt lat="45.19303" lon="6.0364">
        <ele>1121.85</ele>
        <time>2018-09-09T08:43:58Z</time>
      </trkpt>
      <trkpt lat="45.19322" lon="6.03651">
        <ele>1122.47</ele>
        <time>2018-09-09T08:43:59Z</time>
      </trkpt>
      <trkpt lat="45.19339" lon="6.03667">
        <ele>1124.76</ele>
        <time>2018-09-09T08:44:00Z</time>
      </trkpt>
      <trkpt lat="45.19358" lon="6.03683">
        <ele>1126.85</ele>
        <time>2018-09-09T08:44:01Z</time>
      </trkpt>
      <trkpt lat="45.19371" lon="6.03704">
        <ele>1130.97</ele>
        <time>2018-09-09T08:44:02Z</time>
      </trkpt>
      <trkpt lat="45.19389" lon="6.03717">
        <ele>1134.31</ele>
        <time>2018-09-09T08:44:03Z</time>
      </trkpt>
      <trkpt lat="45.19407" lon="6.03731">
        <ele>1136.01</ele>
        <time>2018-09-09T08:44:04Z</time>
      </trkpt>
      <trkpt lat="45.19426" lon="6.03742">
        <ele>1137.22</ele>
        <time>2018-09-09T08:44:05Z</time>
      </trkpt>
      <trkpt lat="45.19446" lon="6.03752">
        <ele>1138.29</ele>
        <time>2018-09-09T08:44:06Z</time>
      </trkpt>
      <trkpt lat="45.19466" lon="6.03759">
        <ele>1140.7</ele>
        <time>2018-09-09T08:44:07Z</time>
      </trkpt>
      <trkpt lat="45.19485" lon="6.03765">
        <ele>1144.93</ele>
        <time>2018-09-09T08:44:08Z</time>
      </trkpt>
      <trkpt lat="45.19504" lon="6.03768">
        <ele>1148.3</ele>
        <time>2018-09-09T08:44:09Z</time>
      </trkpt>
      <trkpt lat="45.19523" lon="6.03773">
        <ele>1151.41</ele>
        <time>2018-09-09T08:44:10Z</time>
      </trkpt>
      <trkpt lat="45.1954" lon="6.0378">
        <ele>1153.74</ele>
        <time>2018-09-09T08:44:11Z</time>
      </trkpt>
      <trkpt lat="45.19557" lon="6.03796">
        <ele>1158.64</ele>
        <time>2018-09-09T08:44:12Z</time>
      </trkpt>
      <trkpt lat="45.19574" lon="6.03811">
        <ele>1161.51</ele>
        <time>2018-09-09T08:44:13Z</time>
      </trkpt>
      <trkpt lat="45.19591" lon="6.03826">
        <ele>1163.07</ele>
        <time>2018-09-09T08:44:14Z</time>
      </trkpt>
      <trkpt lat="45.19606" lon="6.03839">
        <ele>1164.94</ele>
        <time>2018-09-09T08:44:15Z</time>
      </trkpt>
      <trkpt lat="45.19643" lon="6.03849">
        <ele>1167.28</ele>
        <time>2018-09-09T08:44:17Z</time>
      </trkpt>
      <trkpt lat="45.19662" lon="6.03852">
        <ele>1169</ele>
        <time>2018-09-09T08:44:18Z</time>
      </trkpt>
      <trkpt lat="45.19682" lon="6.03856">
        <ele>1173.02</ele>
        <time>2018-09-09T08:44:19Z</time>
      </trkpt>
      <trkpt lat="45.19702" lon="6.03859">
        <ele>1175.62</ele>
        <time>2018-09-09T08:44:20Z</time>
      </trkpt>
      <trkpt lat="45.19722" lon="6.03863">
        <ele>1178.51</ele>
        <time>2018-09-09T08:44:21Z</time>
      </trkpt>
      <trkpt lat="45.19742" lon="6.03866">
        <ele>1180.77</ele>
        <time>2018-09-09T08:44:22Z</time>
      </trkpt>
      <trkpt lat="45.19762" lon="6.03868">
        <ele>1182.15</ele>
        <time>2018-09-09T08:44:23Z</time>
      </trkpt>
      <trkpt lat="45.19781" lon="6.03875">
        <ele>1183.96</ele>
        <time>2018-09-09T08:44:24Z</time>
      </trkpt>
      <trkpt lat="45.19801" lon="6.0388">
        <ele>1185.91</ele>
        <time>2018-09-09T08:44:25Z</time>
      </trkpt>
      <trkpt lat="45.19821" lon="6.03886">
        <ele>1187.89</ele>
        <time>2018-09-09T08:44:26Z</time>
      </trkpt>
      <trkpt lat="45.19839" lon="6.03891">
        <ele>1188.49</ele>
        <time>2018-09-09T08:44:27Z</time>
      </trkpt>
      <trkpt lat="45.1987" lon="6.03905">
        <ele>1191.45</ele>
        <time>2018-09-09T08:44:29Z</time>
      </trkpt>
      <trkpt lat="45.19893" lon="6.0391">
        <ele>1194.02</ele>
        <time>2018-09-09T08:44:31Z</time>
      </trkpt>
      <trkpt lat="45.19918" lon="6.03902">
        <ele>1199.12</ele>
        <time>2018-09-09T08:44:34Z</time>
      </trkpt>
      <trkpt lat="45.1994" lon="6.03903">
        <ele>1206.01</ele>
        <time>2018-09-09T08:44:37Z</time>
      </trkpt>
      <trkpt lat="45.19962" lon="6.03894">
        <ele>1208.12</ele>
        <time>2018-09-09T08:44:40Z</time>
      </trkpt>
      <trkpt lat="45.19982" lon="6.03889">
        <ele>1210.33</ele>
        <time>2018-09-09T08:44:43Z</time>
      </trkpt>
      <trkpt lat="45.20001" lon="6.03896">
        <ele>1214.5</ele>
        <time>2018-09-09T08:44:46Z</time>
      </trkpt>
      <trkpt lat="45.20025" lon="6.03903">
        <ele>1218.99</ele>
        <time>2018-09-09T08:44:49Z</time>
      </trkpt>
      <trkpt lat="45.20042" lon="6.0391">
        <ele>1221.28</ele>
        <time>2018-09-09T08:44:51Z</time>
      </trkpt>
      <trkpt lat="45.20065" lon="6.03922">
        <ele>1225.28</ele>
        <time>2018-09-09T08:44:54Z</time>
      </trkpt>
      <trkpt lat="45.20087" lon="6.03933">
        <ele>1228.31</ele>
        <time>2018-09-09T08:44:57Z</time>
      </trkpt>
      <trkpt lat="45.20108" lon="6.03939">
        <ele>1229.43</ele>
        <time>2018-09-09T08:45:00Z</time>
      </trkpt>
      <trkpt lat="45.20134" lon="6.03941">
        <ele>1230.71</ele>
        <time>2018-09-09T08:45:03Z</time>
      </trkpt>
      <trkpt lat="45.20152" lon="6.03944">
        <ele>1231.65</ele>
        <time>2018-09-09T08:45:05Z</time>
      </trkpt>
      <trkpt lat="45.20175" lon="6.03953">
        <ele>1232.71</ele>
        <time>2018-09-09T08:45:08Z</time>
      </trkpt>
      <trkpt lat="45.20194" lon="6.03978">
        <ele>1232.74</ele>
        <time>2018-09-09T08:45:11Z</time>
      </trkpt>
      <trkpt lat="45.20208" lon="6.03996">
        <ele>1234.35</ele>
        <time>2018-09-09T08:45:13Z</time>
      </trkpt>
      <trkpt lat="45.20227" lon="6.04015">
        <ele>1237.25</ele>
        <time>2018-09-09T08:45:16Z</time>
      </trkpt>
      <trkpt lat="45.20247" lon="6.04026">
        <ele>1236.33</ele>
        <time>2018-09-09T08:45:19Z</time>
      </trkpt>
      <trkpt lat="45.20269" lon="6.04022">
        <ele>1239.31</ele>
        <time>2018-09-09T08:45:22Z</time>
      </trkpt>
      <trkpt lat="45.20292" lon="6.04015">
        <ele>1241.4</ele>
        <time>2018-09-09T08:45:25Z</time>
      </trkpt>
      <trkpt lat="45.20314" lon="6.04022">
        <ele>1245.92</ele>
        <time>2018-09-09T08:45:28Z</time>
      </trkpt>
      <trkpt lat="45.20332" lon="6.04042">
        <ele>1250.28</ele>
        <time>2018-09-09T08:45:31Z</time>
      </trkpt>
      <trkpt lat="45.20345" lon="6.04062">
        <ele>1251.61</ele>
        <time>2018-09-09T08:45:33Z</time>
      </trkpt>
      <trkpt lat="45.2036" lon="6.04078">
        <ele>1252.64</ele>
        <time>2018-09-09T08:45:35Z</time>
      </trkpt>
      <trkpt lat="45.20375" lon="6.04094">
        <ele>1252.73</ele>
        <time>2018-09-09T08:45:37Z</time>
      </trkpt>
      <trkpt lat="45.20392" lon="6.04112">
        <ele>1253.44</ele>
        <time>2018-09-09T08:45:39Z</time>
      </trkpt>
      <trkpt lat="45.20409" lon="6.0413">
        <ele>1254.62</ele>
        <time>2018-09-09T08:45:41Z</time>
      </trkpt>
      <trkpt lat="45.20426" lon="6.0415">
        <ele>1255.22</ele>
        <time>2018-09-09T08:45:43Z</time>
      </trkpt>
      <trkpt lat="45.20444" lon="6.0417">
        <ele>1256.6</ele>
        <time>2018-09-09T08:45:45Z</time>
      </trkpt>
      <trkpt lat="45.2046" lon="6.04195">
        <ele>1256.73</ele>
        <time>2018-09-09T08:45:47Z</time>
      </trkpt>
      <trkpt lat="45.2047" lon="6.04222">
        <ele>1257.44</ele>
        <time>2018-09-09T08:45:49Z</time>
      </trkpt>
      <trkpt lat="45.2048" lon="6.04249">
        <ele>1258.62</ele>
        <time>2018-09-09T08:45:51Z</time>
      </trkpt>
      <trkpt lat="45.20489" lon="6.04274">
        <ele>1260.34</ele>
        <time>2018-09-09T08:45:53Z</time>
      </trkpt>
      <trkpt lat="45.20502" lon="6.04304">
        <ele>1261.43</ele>
        <time>2018-09-09T08:45:56Z</time>
      </trkpt>
      <trkpt lat="45.20519" lon="6.0433">
        <ele>1262.71</ele>
        <time>2018-09-09T08:45:59Z</time>
      </trkpt>
      <trkpt lat="45.20537" lon="6.04345">
        <ele>1262.74</ele>
        <time>2018-09-09T08:46:01Z</time>
      </trkpt>
      <trkpt lat="45.20559" lon="6.04358">
        <ele>1263.44</ele>
        <time>2018-09-09T08:46:03Z</time>
      </trkpt>
      <trkpt lat="45.20586" lon="6.04367">
        <ele>1263.5</ele>
        <time>2018-09-09T08:46:05Z</time>
      </trkpt>
      <trkpt lat="45.20613" lon="6.04378">
        <ele>1263.72</ele>
        <time>2018-09-09T08:46:07Z</time>
      </trkpt>
      <trkpt lat="45.2064" lon="6.04398">
        <ele>1263.74</ele>
        <time>2018-09-09T08:46:09Z</time>
      </trkpt>
      <trkpt lat="45.20663" lon="6.04426">
        <ele>1264.65</ele>
        <time>2018-09-09T08:46:11Z</time>
      </trkpt>
      <trkpt lat="45.20689" lon="6.04452">
        <ele>1265.64</ele>
        <time>2018-09-09T08:46:13Z</time>
      </trkpt>
      <trkpt lat="45.20719" lon="6.04469">
        <ele>1265.73</ele>
        <time>2018-09-09T08:46:15Z</time>
      </trkpt>
      <trkpt lat="45.20751" lon="6.04478">
        <ele>1265.04</ele>
        <time>2018-09-09T08:46:17Z</time>
      </trkpt>
      <trkpt lat="45.20782" lon="6.04479">
        <ele>1264.77</ele>
        <time>2018-09-09T08:46:19Z</time>
      </trkpt>
      <trkpt lat="45.20808" lon="6.04483">
        <ele>1265.65</ele>
        <time>2018-09-09T08:46:21Z</time>
      </trkpt>
      <trkpt lat="45.20834" lon="6.04496">
        <ele>1265.73</ele>
        <time>2018-09-09T08:46:23Z</time>
      </trkpt>
      <trkpt lat="45.20849" lon="6.04532">
        <ele>1264.83</ele>
        <time>2018-09-09T08:46:25Z</time>
      </trkpt>
      <trkpt lat="45.20871" lon="6.04548">
        <ele>1266.36</ele>
        <time>2018-09-09T08:46:27Z</time>
      </trkpt>
      <trkpt lat="45.20896" lon="6.04539">
        <ele>1267.41</ele>
        <time>2018-09-09T08:46:29Z</time>
      </trkpt>
      <trkpt lat="45.2092" lon="6.04522">
        <ele>1267.01</ele>
        <time>2018-09-09T08:46:31Z</time>
      </trkpt>
      <trkpt lat="45.2094" lon="6.04525">
        <ele>1266.77</ele>
        <time>2018-09-09T08:46:33Z</time>
      </trkpt>
      <trkpt lat="45.2095" lon="6.04551">
        <ele>1266.74</ele>
        <time>2018-09-09T08:46:35Z</time>
      </trkpt>
      <trkpt lat="45.20946" lon="6.04588">
        <ele>1266.74</ele>
        <time>2018-09-09T08:46:37Z</time>
      </trkpt>
      <trkpt lat="45.20942" lon="6.04625">
        <ele>1265.83</ele>
        <time>2018-09-09T08:46:39Z</time>
      </trkpt>
      <trkpt lat="45.20954" lon="6.04651">
        <ele>1266.45</ele>
        <time>2018-09-09T08:46:41Z</time>
      </trkpt>
      <trkpt lat="45.20975" lon="6.04668">
        <ele>1267.62</ele>
        <time>2018-09-09T08:46:43Z</time>
      </trkpt>
      <trkpt lat="45.20998" lon="6.0468">
        <ele>1268.64</ele>
        <time>2018-09-09T08:46:45Z</time>
      </trkpt>
      <trkpt lat="45.21018" lon="6.047">
        <ele>1268.73</ele>
        <time>2018-09-09T08:46:47Z</time>
      </trkpt>
      <trkpt lat="45.21042" lon="6.04714">
        <ele>1267.83</ele>
        <time>2018-09-09T08:46:49Z</time>
      </trkpt>
      <trkpt lat="45.21071" lon="6.04722">
        <ele>1266.63</ele>
        <time>2018-09-09T08:46:51Z</time>
      </trkpt>
      <trkpt lat="45.21096" lon="6.04739">
        <ele>1268.34</ele>
        <time>2018-09-09T08:46:53Z</time>
      </trkpt>
      <trkpt lat="45.21117" lon="6.04752">
        <ele>1268.01</ele>
        <time>2018-09-09T08:46:55Z</time>
      </trkpt>
      <trkpt lat="45.21124" lon="6.04779">
        <ele>1268.67</ele>
        <time>2018-09-09T08:46:57Z</time>
      </trkpt>
      <trkpt lat="45.21114" lon="6.04806">
        <ele>1269.44</ele>
        <time>2018-09-09T08:46:59Z</time>
      </trkpt>
      <trkpt lat="45.21096" lon="6.04827">
        <ele>1269.71</ele>
        <time>2018-09-09T08:47:01Z</time>
      </trkpt>
      <trkpt lat="45.21082" lon="6.04855">
        <ele>1269.04</ele>
        <time>2018-09-09T08:47:03Z</time>
      </trkpt>
      <trkpt lat="45.2107" lon="6.04888">
        <ele>1267.86</ele>
        <time>2018-09-09T08:47:05Z</time>
      </trkpt>
      <trkpt lat="45.21071" lon="6.04932">
        <ele>1267.75</ele>
        <time>2018-09-09T08:47:07Z</time>
      </trkpt>
      <trkpt lat="45.21072" lon="6.04962">
        <ele>1264.31</ele>
        <time>2018-09-09T08:47:09Z</time>
      </trkpt>
      <trkpt lat="45.21091" lon="6.04988">
        <ele>1263.79</ele>
        <time>2018-09-09T08:47:11Z</time>
      </trkpt>
      <trkpt lat="45.21107" lon="6.05009">
        <ele>1263.75</ele>
        <time>2018-09-09T08:47:13Z</time>
      </trkpt>
      <trkpt lat="45.21115" lon="6.05036">
        <ele>1263.74</ele>
        <time>2018-09-09T08:47:15Z</time>
      </trkpt>
      <trkpt lat="45.21112" lon="6.05064">
        <ele>1263.74</ele>
        <time>2018-09-09T08:47:17Z</time>
      </trkpt>
      <trkpt lat="45.211" lon="6.05082">
        <ele>1262.83</ele>
        <time>2018-09-09T08:47:19Z</time>
      </trkpt>
      <trkpt lat="45.21084" lon="6.05102">
        <ele>1259.61</ele>
        <time>2018-09-09T08:47:22Z</time>
      </trkpt>
      <trkpt lat="45.21078" lon="6.0514">
        <ele>1258.97</ele>
        <time>2018-09-09T08:47:25Z</time>
      </trkpt>
      <trkpt lat="45.2108" lon="6.05176">
        <ele>1258.06</ele>
        <time>2018-09-09T08:47:27Z</time>
      </trkpt>
      <trkpt lat="45.2109" lon="6.05226">
        <ele>1257.07</ele>
        <time>2018-09-09T08:47:29Z</time>
      </trkpt>
      <trkpt lat="45.21094" lon="6.05271">
        <ele>1253.55</ele>
        <time>2018-09-09T08:47:31Z</time>
      </trkpt>
      <trkpt lat="45.21092" lon="6.05319">
        <ele>1252.6</ele>
        <time>2018-09-09T08:47:33Z</time>
      </trkpt>
      <trkpt lat="45.21091" lon="6.05345">
        <ele>1252.7</ele>
        <time>2018-09-09T08:47:34Z</time>
      </trkpt>
      <trkpt lat="45.2109" lon="6.05371">
        <ele>1253.43</ele>
        <time>2018-09-09T08:47:35Z</time>
      </trkpt>
      <trkpt lat="45.21088" lon="6.05397">
        <ele>1253.65</ele>
        <time>2018-09-09T08:47:36Z</time>
      </trkpt>
      <trkpt lat="45.21086" lon="6.05424">
        <ele>1253.71</ele>
        <time>2018-09-09T08:47:37Z</time>
      </trkpt>
      <trkpt lat="45.21084" lon="6.05451">
        <ele>1254.43</ele>
        <time>2018-09-09T08:47:38Z</time>
      </trkpt>
      <trkpt lat="45.21082" lon="6.05496">
        <ele>1254.01</ele>
        <time>2018-09-09T08:47:40Z</time>
      </trkpt>
      <trkpt lat="45.21087" lon="6.05536">
        <ele>1252.16</ele>
        <time>2018-09-09T08:47:42Z</time>
      </trkpt>
      <trkpt lat="45.21089" lon="6.05572">
        <ele>1249.26</ele>
        <time>2018-09-09T08:47:44Z</time>
      </trkpt>
      <trkpt lat="45.21086" lon="6.05608">
        <ele>1246.48</ele>
        <time>2018-09-09T08:47:46Z</time>
      </trkpt>
      <trkpt lat="45.21084" lon="6.05644">
        <ele>1242.59</ele>
        <time>2018-09-09T08:47:48Z</time>
      </trkpt>
      <trkpt lat="45.21086" lon="6.05673">
        <ele>1240</ele>
        <time>2018-09-09T08:47:50Z</time>
      </trkpt>
      <trkpt lat="45.21071" lon="6.05659">
        <ele>1237.66</ele>
        <time>2018-09-09T08:48:03Z</time>
      </trkpt>
      <trkpt lat="45.21063" lon="6.05627">
        <ele>1235.35</ele>
        <time>2018-09-09T08:48:25Z</time>
      </trkpt>
      <trkpt lat="45.2106" lon="6.05602">
        <ele>1233.19</ele>
        <time>2018-09-09T08:48:27Z</time>
      </trkpt>
      <trkpt lat="45.21058" lon="6.05573">
        <ele>1231.17</ele>
        <time>2018-09-09T08:48:29Z</time>
      </trkpt>
      <trkpt lat="45.21054" lon="6.05547">
        <ele>1228.26</ele>
        <time>2018-09-09T08:48:31Z</time>
      </trkpt>
      <trkpt lat="45.21037" lon="6.05576">
        <ele>1224.93</ele>
        <time>2018-09-09T08:48:36Z</time>
      </trkpt>
      <trkpt lat="45.21033" lon="6.05607">
        <ele>1222</ele>
        <time>2018-09-09T08:48:37Z</time>
      </trkpt>
      <trkpt lat="45.21028" lon="6.05635">
        <ele>1219.02</ele>
        <time>2018-09-09T08:48:38Z</time>
      </trkpt>
      <trkpt lat="45.21022" lon="6.05661">
        <ele>1216.02</ele>
        <time>2018-09-09T08:48:39Z</time>
      </trkpt>
      <trkpt lat="45.21017" lon="6.05703">
        <ele>1212.55</ele>
        <time>2018-09-09T08:48:41Z</time>
      </trkpt>
      <trkpt lat="45.21009" lon="6.05726">
        <ele>1207.3</ele>
        <time>2018-09-09T08:48:44Z</time>
      </trkpt>
      <trkpt lat="45.20995" lon="6.05702">
        <ele>1206.69</ele>
        <time>2018-09-09T08:48:47Z</time>
      </trkpt>
      <trkpt lat="45.20988" lon="6.05649">
        <ele>1203.73</ele>
        <time>2018-09-09T08:48:49Z</time>
      </trkpt>
      <trkpt lat="45.20984" lon="6.05623">
        <ele>1201.64</ele>
        <time>2018-09-09T08:48:50Z</time>
      </trkpt>
      <trkpt lat="45.20978" lon="6.05577">
        <ele>1198.3</ele>
        <time>2018-09-09T08:48:52Z</time>
      </trkpt>
      <trkpt lat="45.20984" lon="6.05537">
        <ele>1194.57</ele>
        <time>2018-09-09T08:48:54Z</time>
      </trkpt>
      <trkpt lat="45.2098" lon="6.05503">
        <ele>1191.88</ele>
        <time>2018-09-09T08:48:57Z</time>
      </trkpt>
      <trkpt lat="45.20952" lon="6.05549">
        <ele>1185.66</ele>
        <time>2018-09-09T08:49:02Z</time>
      </trkpt>
      <trkpt lat="45.20943" lon="6.05582">
        <ele>1185.02</ele>
        <time>2018-09-09T08:49:03Z</time>
      </trkpt>
      <trkpt lat="45.20935" lon="6.05614">
        <ele>1182.72</ele>
        <time>2018-09-09T08:49:04Z</time>
      </trkpt>
      <trkpt lat="45.20934" lon="6.05643">
        <ele>1179.94</ele>
        <time>2018-09-09T08:49:05Z</time>
      </trkpt>
      <trkpt lat="45.2093" lon="6.05674">
        <ele>1177</ele>
        <time>2018-09-09T08:49:06Z</time>
      </trkpt>
      <trkpt lat="45.20927" lon="6.05702">
        <ele>1174.02</ele>
        <time>2018-09-09T08:49:07Z</time>
      </trkpt>
      <trkpt lat="45.20914" lon="6.0574">
        <ele>1171.25</ele>
        <time>2018-09-09T08:49:09Z</time>
      </trkpt>
      <trkpt lat="45.20892" lon="6.05758">
        <ele>1170.09</ele>
        <time>2018-09-09T08:49:11Z</time>
      </trkpt>
      <trkpt lat="45.20877" lon="6.05781">
        <ele>1171.38</ele>
        <time>2018-09-09T08:49:13Z</time>
      </trkpt>
      <trkpt lat="45.20865" lon="6.0581">
        <ele>1171.71</ele>
        <time>2018-09-09T08:49:15Z</time>
      </trkpt>
      <trkpt lat="45.2086" lon="6.05835">
        <ele>1172.43</ele>
        <time>2018-09-09T08:49:16Z</time>
      </trkpt>
      <trkpt lat="45.20848" lon="6.05887">
        <ele>1173.41</ele>
        <time>2018-09-09T08:49:18Z</time>
      </trkpt>
      <trkpt lat="45.20841" lon="6.05921">
        <ele>1173.64</ele>
        <time>2018-09-09T08:49:19Z</time>
      </trkpt>
      <trkpt lat="45.20836" lon="6.05959">
        <ele>1174.41</ele>
        <time>2018-09-09T08:49:20Z</time>
      </trkpt>
      <trkpt lat="45.20828" lon="6.05999">
        <ele>1175.34</ele>
        <time>2018-09-09T08:49:21Z</time>
      </trkpt>
      <trkpt lat="45.2082" lon="6.06042">
        <ele>1176.32</ele>
        <time>2018-09-09T08:49:22Z</time>
      </trkpt>
      <trkpt lat="45.20812" lon="6.06085">
        <ele>1178.02</ele>
        <time>2018-09-09T08:49:23Z</time>
      </trkpt>
      <trkpt lat="45.20804" lon="6.06126">
        <ele>1178.52</ele>
        <time>2018-09-09T08:49:24Z</time>
      </trkpt>
      <trkpt lat="45.20796" lon="6.06163">
        <ele>1178.68</ele>
        <time>2018-09-09T08:49:25Z</time>
      </trkpt>
      <trkpt lat="45.20788" lon="6.062">
        <ele>1179.42</ele>
        <time>2018-09-09T08:49:26Z</time>
      </trkpt>
      <trkpt lat="45.20782" lon="6.06236">
        <ele>1180.35</ele>
        <time>2018-09-09T08:49:27Z</time>
      </trkpt>
      <trkpt lat="45.20785" lon="6.06274">
        <ele>1186.92</ele>
        <time>2018-09-09T08:49:28Z</time>
      </trkpt>
      <trkpt lat="45.20782" lon="6.06309">
        <ele>1191</ele>
        <time>2018-09-09T08:49:29Z</time>
      </trkpt>
      <trkpt lat="45.20779" lon="6.06339">
        <ele>1192.92</ele>
        <time>2018-09-09T08:49:30Z</time>
      </trkpt>
      <trkpt lat="45.20777" lon="6.06369">
        <ele>1194.89</ele>
        <time>2018-09-09T08:49:31Z</time>
      </trkpt>
      <trkpt lat="45.20775" lon="6.06398">
        <ele>1196.89</ele>
        <time>2018-09-09T08:49:32Z</time>
      </trkpt>
      <trkpt lat="45.20764" lon="6.06424">
        <ele>1203.08</ele>
        <time>2018-09-09T08:49:33Z</time>
      </trkpt>
      <trkpt lat="45.20754" lon="6.06451">
        <ele>1209.14</ele>
        <time>2018-09-09T08:49:34Z</time>
      </trkpt>
      <trkpt lat="45.20744" lon="6.06476">
        <ele>1213.76</ele>
        <time>2018-09-09T08:49:35Z</time>
      </trkpt>
      <trkpt lat="45.20734" lon="6.06501">
        <ele>1218.65</ele>
        <time>2018-09-09T08:49:36Z</time>
      </trkpt>
      <trkpt lat="45.20724" lon="6.06528">
        <ele>1222.21</ele>
        <time>2018-09-09T08:49:37Z</time>
      </trkpt>
      <trkpt lat="45.20713" lon="6.06555">
        <ele>1226.08</ele>
        <time>2018-09-09T08:49:38Z</time>
      </trkpt>
      <trkpt lat="45.207" lon="6.06582">
        <ele>1230.04</ele>
        <time>2018-09-09T08:49:39Z</time>
      </trkpt>
      <trkpt lat="45.20684" lon="6.06607">
        <ele>1233.33</ele>
        <time>2018-09-09T08:49:40Z</time>
      </trkpt>
      <trkpt lat="45.2067" lon="6.06633">
        <ele>1236.42</ele>
        <time>2018-09-09T08:49:41Z</time>
      </trkpt>
      <trkpt lat="45.20655" lon="6.06659">
        <ele>1238.04</ele>
        <time>2018-09-09T08:49:42Z</time>
      </trkpt>
      <trkpt lat="45.20641" lon="6.06686">
        <ele>1240.63</ele>
        <time>2018-09-09T08:49:43Z</time>
      </trkpt>
      <trkpt lat="45.20628" lon="6.06713">
        <ele>1243.51</ele>
        <time>2018-09-09T08:49:44Z</time>
      </trkpt>
      <trkpt lat="45.20615" lon="6.0674">
        <ele>1246.47</ele>
        <time>2018-09-09T08:49:45Z</time>
      </trkpt>
      <trkpt lat="45.20602" lon="6.06765">
        <ele>1248.76</ele>
        <time>2018-09-09T08:49:46Z</time>
      </trkpt>
      <trkpt lat="45.20592" lon="6.06789">
        <ele>1250.85</ele>
        <time>2018-09-09T08:49:47Z</time>
      </trkpt>
      <trkpt lat="45.20581" lon="6.06813">
        <ele>1252.17</ele>
        <time>2018-09-09T08:49:48Z</time>
      </trkpt>
      <trkpt lat="45.20572" lon="6.06837">
        <ele>1253.27</ele>
        <time>2018-09-09T08:49:49Z</time>
      </trkpt>
      <trkpt lat="45.20566" lon="6.06861">
        <ele>1254.3</ele>
        <time>2018-09-09T08:49:50Z</time>
      </trkpt>
      <trkpt lat="45.20554" lon="6.06909">
        <ele>1257.01</ele>
        <time>2018-09-09T08:49:52Z</time>
      </trkpt>
      <trkpt lat="45.20546" lon="6.06932">
        <ele>1257.52</ele>
        <time>2018-09-09T08:49:53Z</time>
      </trkpt>
      <trkpt lat="45.20538" lon="6.06956">
        <ele>1258.38</ele>
        <time>2018-09-09T08:49:54Z</time>
      </trkpt>
      <trkpt lat="45.20531" lon="6.06982">
        <ele>1260.03</ele>
        <time>2018-09-09T08:49:55Z</time>
      </trkpt>
      <trkpt lat="45.20522" lon="6.07005">
        <ele>1260.53</ele>
        <time>2018-09-09T08:49:56Z</time>
      </trkpt>
      <trkpt lat="45.20514" lon="6.07031">
        <ele>1261.38</ele>
        <time>2018-09-09T08:49:57Z</time>
      </trkpt>
      <trkpt lat="45.20505" lon="6.07055">
        <ele>1263.73</ele>
        <time>2018-09-09T08:49:58Z</time>
      </trkpt>
      <trkpt lat="45.20496" lon="6.0708">
        <ele>1265.14</ele>
        <time>2018-09-09T08:49:59Z</time>
      </trkpt>
      <trkpt lat="45.20488" lon="6.07104">
        <ele>1266.26</ele>
        <time>2018-09-09T08:50:00Z</time>
      </trkpt>
      <trkpt lat="45.20473" lon="6.0715">
        <ele>1267.61</ele>
        <time>2018-09-09T08:50:02Z</time>
      </trkpt>
      <trkpt lat="45.20464" lon="6.07196">
        <ele>1269.83</ele>
        <time>2018-09-09T08:50:04Z</time>
      </trkpt>
      <trkpt lat="45.20446" lon="6.07233">
        <ele>1270.66</ele>
        <time>2018-09-09T08:50:06Z</time>
      </trkpt>
      <trkpt lat="45.2043" lon="6.07264">
        <ele>1270.52</ele>
        <time>2018-09-09T08:50:08Z</time>
      </trkpt>
      <trkpt lat="45.20425" lon="6.07298">
        <ele>1270.72</ele>
        <time>2018-09-09T08:50:10Z</time>
      </trkpt>
      <trkpt lat="45.20438" lon="6.0733">
        <ele>1273.26</ele>
        <time>2018-09-09T08:50:12Z</time>
      </trkpt>
      <trkpt lat="45.20436" lon="6.07356">
        <ele>1277.62</ele>
        <time>2018-09-09T08:50:14Z</time>
      </trkpt>
      <trkpt lat="45.20423" lon="6.07383">
        <ele>1280.95</ele>
        <time>2018-09-09T08:50:16Z</time>
      </trkpt>
      <trkpt lat="45.20404" lon="6.07415">
        <ele>1286.5</ele>
        <time>2018-09-09T08:50:18Z</time>
      </trkpt>
      <trkpt lat="45.20385" lon="6.07446">
        <ele>1289.45</ele>
        <time>2018-09-09T08:50:20Z</time>
      </trkpt>
      <trkpt lat="45.20376" lon="6.07481">
        <ele>1292.72</ele>
        <time>2018-09-09T08:50:22Z</time>
      </trkpt>
      <trkpt lat="45.20364" lon="6.07517">
        <ele>1296.17</ele>
        <time>2018-09-09T08:50:24Z</time>
      </trkpt>
      <trkpt lat="45.20343" lon="6.07542">
        <ele>1301.73</ele>
        <time>2018-09-09T08:50:26Z</time>
      </trkpt>
      <trkpt lat="45.20319" lon="6.07564">
        <ele>1305.87</ele>
        <time>2018-09-09T08:50:28Z</time>
      </trkpt>
      <trkpt lat="45.20295" lon="6.07588">
        <ele>1308.97</ele>
        <time>2018-09-09T08:50:30Z</time>
      </trkpt>
      <trkpt lat="45.20271" lon="6.07613">
        <ele>1312.89</ele>
        <time>2018-09-09T08:50:32Z</time>
      </trkpt>
      <trkpt lat="45.20253" lon="6.07644">
        <ele>1317.58</ele>
        <time>2018-09-09T08:50:34Z</time>
      </trkpt>
      <trkpt lat="45.20231" lon="6.07668">
        <ele>1322.77</ele>
        <time>2018-09-09T08:50:36Z</time>
      </trkpt>
      <trkpt lat="45.20209" lon="6.07668">
        <ele>1326.87</ele>
        <time>2018-09-09T08:50:38Z</time>
      </trkpt>
      <trkpt lat="45.20188" lon="6.07668">
        <ele>1329.6</ele>
        <time>2018-09-09T08:50:41Z</time>
      </trkpt>
      <trkpt lat="45.20197" lon="6.07693">
        <ele>1331.41</ele>
        <time>2018-09-09T08:50:44Z</time>
      </trkpt>
      <trkpt lat="45.2022" lon="6.07708">
        <ele>1334.93</ele>
        <time>2018-09-09T08:50:46Z</time>
      </trkpt>
      <trkpt lat="45.20247" lon="6.07716">
        <ele>1336.58</ele>
        <time>2018-09-09T08:50:48Z</time>
      </trkpt>
      <trkpt lat="45.20277" lon="6.07696">
        <ele>1338.13</ele>
        <time>2018-09-09T08:50:50Z</time>
      </trkpt>
      <trkpt lat="45.20305" lon="6.0768">
        <ele>1341.21</ele>
        <time>2018-09-09T08:50:52Z</time>
      </trkpt>
      <trkpt lat="45.20332" lon="6.0766">
        <ele>1344.7</ele>
        <time>2018-09-09T08:50:54Z</time>
      </trkpt>
      <trkpt lat="45.20354" lon="6.07644">
        <ele>1349.08</ele>
        <time>2018-09-09T08:50:56Z</time>
      </trkpt>
      <trkpt lat="45.20373" lon="6.07636">
        <ele>1353.28</ele>
        <time>2018-09-09T08:50:59Z</time>
      </trkpt>
      <trkpt lat="45.20364" lon="6.0766">
        <ele>1358.16</ele>
        <time>2018-09-09T08:51:03Z</time>
      </trkpt>
      <trkpt lat="45.20345" lon="6.07675">
        <ele>1361</ele>
        <time>2018-09-09T08:51:05Z</time>
      </trkpt>
      <trkpt lat="45.20322" lon="6.07698">
        <ele>1364.19</ele>
        <time>2018-09-09T08:51:07Z</time>
      </trkpt>
      <trkpt lat="45.20296" lon="6.07724">
        <ele>1364.69</ele>
        <time>2018-09-09T08:51:09Z</time>
      </trkpt>
      <trkpt lat="45.20282" lon="6.0774">
        <ele>1365.43</ele>
        <time>2018-09-09T08:51:10Z</time>
      </trkpt>
      <trkpt lat="45.20255" lon="6.07771">
        <ele>1366.41</ele>
        <time>2018-09-09T08:51:12Z</time>
      </trkpt>
      <trkpt lat="45.20228" lon="6.07805">
        <ele>1369.23</ele>
        <time>2018-09-09T08:51:14Z</time>
      </trkpt>
      <trkpt lat="45.20201" lon="6.07838">
        <ele>1370.4</ele>
        <time>2018-09-09T08:51:16Z</time>
      </trkpt>
      <trkpt lat="45.20177" lon="6.07869">
        <ele>1371.41</ele>
        <time>2018-09-09T08:51:18Z</time>
      </trkpt>
      <trkpt lat="45.20158" lon="6.07893">
        <ele>1372.41</ele>
        <time>2018-09-09T08:51:20Z</time>
      </trkpt>
      <trkpt lat="45.20142" lon="6.0792">
        <ele>1375.51</ele>
        <time>2018-09-09T08:51:22Z</time>
      </trkpt>
      <trkpt lat="45.20128" lon="6.07957">
        <ele>1377.54</ele>
        <time>2018-09-09T08:51:24Z</time>
      </trkpt>
      <trkpt lat="45.20131" lon="6.07986">
        <ele>1377.68</ele>
        <time>2018-09-09T08:51:25Z</time>
      </trkpt>
      <trkpt lat="45.2013" lon="6.08012">
        <ele>1379.12</ele>
        <time>2018-09-09T08:51:26Z</time>
      </trkpt>
      <trkpt lat="45.20124" lon="6.08037">
        <ele>1380.26</ele>
        <time>2018-09-09T08:51:27Z</time>
      </trkpt>
      <trkpt lat="45.20119" lon="6.08062">
        <ele>1380.6</ele>
        <time>2018-09-09T08:51:28Z</time>
      </trkpt>
      <trkpt lat="45.20113" lon="6.08088">
        <ele>1382.1</ele>
        <time>2018-09-09T08:51:29Z</time>
      </trkpt>
      <trkpt lat="45.20111" lon="6.08114">
        <ele>1384.65</ele>
        <time>2018-09-09T08:51:30Z</time>
      </trkpt>
      <trkpt lat="45.20111" lon="6.0814">
        <ele>1386.11</ele>
        <time>2018-09-09T08:51:31Z</time>
      </trkpt>
      <trkpt lat="45.20113" lon="6.08166">
        <ele>1387.25</ele>
        <time>2018-09-09T08:51:32Z</time>
      </trkpt>
      <trkpt lat="45.20117" lon="6.08192">
        <ele>1388.29</ele>
        <time>2018-09-09T08:51:33Z</time>
      </trkpt>
      <trkpt lat="45.20121" lon="6.08219">
        <ele>1390.01</ele>
        <time>2018-09-09T08:51:34Z</time>
      </trkpt>
      <trkpt lat="45.20124" lon="6.08245">
        <ele>1391.92</ele>
        <time>2018-09-09T08:51:35Z</time>
      </trkpt>
      <trkpt lat="45.20125" lon="6.08271">
        <ele>1394.59</ele>
        <time>2018-09-09T08:51:36Z</time>
      </trkpt>
      <trkpt lat="45.20123" lon="6.08317">
        <ele>1400.26</ele>
        <time>2018-09-09T08:51:38Z</time>
      </trkpt>
      <trkpt lat="45.20111" lon="6.08357">
        <ele>1405.53</ele>
        <time>2018-09-09T08:51:40Z</time>
      </trkpt>
      <trkpt lat="45.20102" lon="6.08402">
        <ele>1408.94</ele>
        <time>2018-09-09T08:51:42Z</time>
      </trkpt>
      <trkpt lat="45.20099" lon="6.08444">
        <ele>1411.49</ele>
        <time>2018-09-09T08:51:44Z</time>
      </trkpt>
      <trkpt lat="45.20113" lon="6.0848">
        <ele>1416.06</ele>
        <time>2018-09-09T08:51:46Z</time>
      </trkpt>
      <trkpt lat="45.20127" lon="6.08522">
        <ele>1420.11</ele>
        <time>2018-09-09T08:51:48Z</time>
      </trkpt>
      <trkpt lat="45.20146" lon="6.08561">
        <ele>1422.08</ele>
        <time>2018-09-09T08:51:50Z</time>
      </trkpt>
      <trkpt lat="45.20168" lon="6.08599">
        <ele>1425.2</ele>
        <time>2018-09-09T08:51:52Z</time>
      </trkpt>
      <trkpt lat="45.20192" lon="6.08636">
        <ele>1427.3</ele>
        <time>2018-09-09T08:51:54Z</time>
      </trkpt>
      <trkpt lat="45.20207" lon="6.08653">
        <ele>1427.61</ele>
        <time>2018-09-09T08:51:55Z</time>
      </trkpt>
      <trkpt lat="45.20221" lon="6.0867">
        <ele>1428.4</ele>
        <time>2018-09-09T08:51:56Z</time>
      </trkpt>
      <trkpt lat="45.20235" lon="6.08687">
        <ele>1428.64</ele>
        <time>2018-09-09T08:51:57Z</time>
      </trkpt>
      <trkpt lat="45.2025" lon="6.08704">
        <ele>1429.41</ele>
        <time>2018-09-09T08:51:58Z</time>
      </trkpt>
      <trkpt lat="45.20266" lon="6.08721">
        <ele>1430.34</ele>
        <time>2018-09-09T08:51:59Z</time>
      </trkpt>
      <trkpt lat="45.20282" lon="6.08737">
        <ele>1432.02</ele>
        <time>2018-09-09T08:52:00Z</time>
      </trkpt>
      <trkpt lat="45.20298" lon="6.08752">
        <ele>1432.53</ele>
        <time>2018-09-09T08:52:01Z</time>
      </trkpt>
      <trkpt lat="45.20312" lon="6.08769">
        <ele>1433.38</ele>
        <time>2018-09-09T08:52:02Z</time>
      </trkpt>
      <trkpt lat="45.20337" lon="6.08805">
        <ele>1434.41</ele>
        <time>2018-09-09T08:52:04Z</time>
      </trkpt>
      <trkpt lat="45.2035" lon="6.08844">
        <ele>1436.32</ele>
        <time>2018-09-09T08:52:06Z</time>
      </trkpt>
      <trkpt lat="45.20353" lon="6.08886">
        <ele>1439.92</ele>
        <time>2018-09-09T08:52:08Z</time>
      </trkpt>
      <trkpt lat="45.20358" lon="6.08927">
        <ele>1440.67</ele>
        <time>2018-09-09T08:52:10Z</time>
      </trkpt>
      <trkpt lat="45.2037" lon="6.08964">
        <ele>1443.04</ele>
        <time>2018-09-09T08:52:12Z</time>
      </trkpt>
      <trkpt lat="45.20375" lon="6.09002">
        <ele>1445.29</ele>
        <time>2018-09-09T08:52:14Z</time>
      </trkpt>
      <trkpt lat="45.20372" lon="6.09043">
        <ele>1446.61</ele>
        <time>2018-09-09T08:52:16Z</time>
      </trkpt>
      <trkpt lat="45.20377" lon="6.09085">
        <ele>1449.46</ele>
        <time>2018-09-09T08:52:18Z</time>
      </trkpt>
      <trkpt lat="45.20398" lon="6.09119">
        <ele>1453.15</ele>
        <time>2018-09-09T08:52:20Z</time>
      </trkpt>
      <trkpt lat="45.20408" lon="6.09171">
        <ele>1456.7</ele>
        <time>2018-09-09T08:52:22Z</time>
      </trkpt>
      <trkpt lat="45.20413" lon="6.09201">
        <ele>1459.53</ele>
        <time>2018-09-09T08:52:23Z</time>
      </trkpt>
      <trkpt lat="45.2042" lon="6.0923">
        <ele>1461.08</ele>
        <time>2018-09-09T08:52:24Z</time>
      </trkpt>
      <trkpt lat="45.20427" lon="6.09258">
        <ele>1463.64</ele>
        <time>2018-09-09T08:52:25Z</time>
      </trkpt>
      <trkpt lat="45.20434" lon="6.09285">
        <ele>1466.51</ele>
        <time>2018-09-09T08:52:26Z</time>
      </trkpt>
      <trkpt lat="45.20443" lon="6.09311">
        <ele>1468.77</ele>
        <time>2018-09-09T08:52:27Z</time>
      </trkpt>
      <trkpt lat="45.20453" lon="6.09337">
        <ele>1471.55</ele>
        <time>2018-09-09T08:52:28Z</time>
      </trkpt>
      <trkpt lat="45.2046" lon="6.09365">
        <ele>1475.88</ele>
        <time>2018-09-09T08:52:29Z</time>
      </trkpt>
      <trkpt lat="45.20465" lon="6.09394">
        <ele>1478.58</ele>
        <time>2018-09-09T08:52:30Z</time>
      </trkpt>
      <trkpt lat="45.20468" lon="6.09423">
        <ele>1481.49</ele>
        <time>2018-09-09T08:52:31Z</time>
      </trkpt>
      <trkpt lat="45.20469" lon="6.09452">
        <ele>1484.47</ele>
        <time>2018-09-09T08:52:32Z</time>
      </trkpt>
      <trkpt lat="45.20469" lon="6.09481">
        <ele>1486.76</ele>
        <time>2018-09-09T08:52:33Z</time>
      </trkpt>
      <trkpt lat="45.20467" lon="6.09509">
        <ele>1489.55</ele>
        <time>2018-09-09T08:52:34Z</time>
      </trkpt>
      <trkpt lat="45.20465" lon="6.09536">
        <ele>1491.78</ele>
        <time>2018-09-09T08:52:35Z</time>
      </trkpt>
      <trkpt lat="45.20462" lon="6.09564">
        <ele>1493.85</ele>
        <time>2018-09-09T08:52:36Z</time>
      </trkpt>
      <trkpt lat="45.20458" lon="6.09592">
        <ele>1495.17</ele>
        <time>2018-09-09T08:52:37Z</time>
      </trkpt>
      <trkpt lat="45.20455" lon="6.09619">
        <ele>1497.67</ele>
        <time>2018-09-09T08:52:38Z</time>
      </trkpt>
      <trkpt lat="45.20453" lon="6.09646">
        <ele>1499.12</ele>
        <time>2018-09-09T08:52:39Z</time>
      </trkpt>
      <trkpt lat="45.20454" lon="6.09672">
        <ele>1500.95</ele>
        <time>2018-09-09T08:52:40Z</time>
      </trkpt>
      <trkpt lat="45.20457" lon="6.09721">
        <ele>1505.1</ele>
        <time>2018-09-09T08:52:42Z</time>
      </trkpt>
      <trkpt lat="45.20451" lon="6.09769">
        <ele>1507.78</ele>
        <time>2018-09-09T08:52:44Z</time>
      </trkpt>
      <trkpt lat="45.20445" lon="6.09794">
        <ele>1509.85</ele>
        <time>2018-09-09T08:52:45Z</time>
      </trkpt>
      <trkpt lat="45.2044" lon="6.0982">
        <ele>1512.57</ele>
        <time>2018-09-09T08:52:46Z</time>
      </trkpt>
      <trkpt lat="45.20436" lon="6.09847">
        <ele>1515.49</ele>
        <time>2018-09-09T08:52:47Z</time>
      </trkpt>
      <trkpt lat="45.20434" lon="6.09874">
        <ele>1517.77</ele>
        <time>2018-09-09T08:52:48Z</time>
      </trkpt>
      <trkpt lat="45.20435" lon="6.09902">
        <ele>1520.55</ele>
        <time>2018-09-09T08:52:49Z</time>
      </trkpt>
      <trkpt lat="45.20437" lon="6.09931">
        <ele>1522.78</ele>
        <time>2018-09-09T08:52:50Z</time>
      </trkpt>
      <trkpt lat="45.20438" lon="6.09959">
        <ele>1525.55</ele>
        <time>2018-09-09T08:52:51Z</time>
      </trkpt>
      <trkpt lat="45.2044" lon="6.09987">
        <ele>1527.78</ele>
        <time>2018-09-09T08:52:52Z</time>
      </trkpt>
      <trkpt lat="45.20443" lon="6.10015">
        <ele>1529.85</ele>
        <time>2018-09-09T08:52:53Z</time>
      </trkpt>
      <trkpt lat="45.20445" lon="6.10043">
        <ele>1531.88</ele>
        <time>2018-09-09T08:52:54Z</time>
      </trkpt>
      <trkpt lat="45.20447" lon="6.10071">
        <ele>1533.88</ele>
        <time>2018-09-09T08:52:55Z</time>
      </trkpt>
      <trkpt lat="45.20449" lon="6.10097">
        <ele>1535.88</ele>
        <time>2018-09-09T08:52:56Z</time>
      </trkpt>
      <trkpt lat="45.20452" lon="6.10145">
        <ele>1539.67</ele>
        <time>2018-09-09T08:52:58Z</time>
      </trkpt>
      <trkpt lat="45.20457" lon="6.10187">
        <ele>1541.55</ele>
        <time>2018-09-09T08:53:00Z</time>
      </trkpt>
      <trkpt lat="45.20472" lon="6.10224">
        <ele>1543.33</ele>
        <time>2018-09-09T08:53:02Z</time>
      </trkpt>
      <trkpt lat="45.20489" lon="6.10264">
        <ele>1546.22</ele>
        <time>2018-09-09T08:53:04Z</time>
      </trkpt>
      <trkpt lat="45.20504" lon="6.10306">
        <ele>1548.3</ele>
        <time>2018-09-09T08:53:06Z</time>
      </trkpt>
      <trkpt lat="45.20519" lon="6.1035">
        <ele>1551.92</ele>
        <time>2018-09-09T08:53:08Z</time>
      </trkpt>
      <trkpt lat="45.20532" lon="6.10392">
        <ele>1554.28</ele>
        <time>2018-09-09T08:53:10Z</time>
      </trkpt>
      <trkpt lat="45.20542" lon="6.10435">
        <ele>1557.01</ele>
        <time>2018-09-09T08:53:12Z</time>
      </trkpt>
      <trkpt lat="45.20551" lon="6.10477">
        <ele>1560.2</ele>
        <time>2018-09-09T08:53:14Z</time>
      </trkpt>
      <trkpt lat="45.20564" lon="6.10517">
        <ele>1563</ele>
        <time>2018-09-09T08:53:16Z</time>
      </trkpt>
      <trkpt lat="45.20579" lon="6.10556">
        <ele>1566.19</ele>
        <time>2018-09-09T08:53:18Z</time>
      </trkpt>
      <trkpt lat="45.20594" lon="6.10596">
        <ele>1569.21</ele>
        <time>2018-09-09T08:53:20Z</time>
      </trkpt>
      <trkpt lat="45.2061" lon="6.10636">
        <ele>1572.21</ele>
        <time>2018-09-09T08:53:22Z</time>
      </trkpt>
      <trkpt lat="45.20628" lon="6.10673">
        <ele>1575.21</ele>
        <time>2018-09-09T08:53:24Z</time>
      </trkpt>
      <trkpt lat="45.20645" lon="6.10712">
        <ele>1577.3</ele>
        <time>2018-09-09T08:53:26Z</time>
      </trkpt>
      <trkpt lat="45.20658" lon="6.10756">
        <ele>1580.01</ele>
        <time>2018-09-09T08:53:28Z</time>
      </trkpt>
      <trkpt lat="45.20669" lon="6.108">
        <ele>1583.2</ele>
        <time>2018-09-09T08:53:30Z</time>
      </trkpt>
      <trkpt lat="45.20677" lon="6.10839">
        <ele>1585.09</ele>
        <time>2018-09-09T08:53:32Z</time>
      </trkpt>
      <trkpt lat="45.20676" lon="6.10871">
        <ele>1586.59</ele>
        <time>2018-09-09T08:53:34Z</time>
      </trkpt>
      <trkpt lat="45.20687" lon="6.10895">
        <ele>1588.43</ele>
        <time>2018-09-09T08:53:38Z</time>
      </trkpt>
      <trkpt lat="45.20695" lon="6.10863">
        <ele>1589.65</ele>
        <time>2018-09-09T08:53:42Z</time>
      </trkpt>
      <trkpt lat="45.20687" lon="6.10831">
        <ele>1591.13</ele>
        <time>2018-09-09T08:53:44Z</time>
      </trkpt>
      <trkpt lat="45.2068" lon="6.10786">
        <ele>1591.69</ele>
        <time>2018-09-09T08:53:46Z</time>
      </trkpt>
      <trkpt lat="45.20675" lon="6.10735">
        <ele>1594.05</ele>
        <time>2018-09-09T08:53:48Z</time>
      </trkpt>
      <trkpt lat="45.20671" lon="6.10708">
        <ele>1594.53</ele>
        <time>2018-09-09T08:53:49Z</time>
      </trkpt>
      <trkpt lat="45.20666" lon="6.10682">
        <ele>1596.08</ele>
        <time>2018-09-09T08:53:50Z</time>
      </trkpt>
      <trkpt lat="45.20661" lon="6.10655">
        <ele>1598.64</ele>
        <time>2018-09-09T08:53:51Z</time>
      </trkpt>
      <trkpt lat="45.20656" lon="6.10627">
        <ele>1600.11</ele>
        <time>2018-09-09T08:53:52Z</time>
      </trkpt>
      <trkpt lat="45.20654" lon="6.106">
        <ele>1602.65</ele>
        <time>2018-09-09T08:53:53Z</time>
      </trkpt>
      <trkpt lat="45.20652" lon="6.10574">
        <ele>1604.11</ele>
        <time>2018-09-09T08:53:54Z</time>
      </trkpt>
      <trkpt lat="45.20639" lon="6.1053">
        <ele>1606.99</ele>
        <time>2018-09-09T08:53:56Z</time>
      </trkpt>
      <trkpt lat="45.20625" lon="6.10489">
        <ele>1610.19</ele>
        <time>2018-09-09T08:53:58Z</time>
      </trkpt>
      <trkpt lat="45.20616" lon="6.10444">
        <ele>1614.61</ele>
        <time>2018-09-09T08:54:00Z</time>
      </trkpt>
      <trkpt lat="45.20604" lon="6.10401">
        <ele>1615.64</ele>
        <time>2018-09-09T08:54:02Z</time>
      </trkpt>
      <trkpt lat="45.20589" lon="6.10372">
        <ele>1618.25</ele>
        <time>2018-09-09T08:54:04Z</time>
      </trkpt>
      <trkpt lat="45.20575" lon="6.10349">
        <ele>1620.52</ele>
        <time>2018-09-09T08:54:06Z</time>
      </trkpt>
      <trkpt lat="45.20573" lon="6.10322">
        <ele>1623.59</ele>
        <time>2018-09-09T08:54:09Z</time>
      </trkpt>
      <trkpt lat="45.2059" lon="6.10352">
        <ele>1624.72</ele>
        <time>2018-09-09T08:54:14Z</time>
      </trkpt>
      <trkpt lat="45.20603" lon="6.10382">
        <ele>1625.65</ele>
        <time>2018-09-09T08:54:16Z</time>
      </trkpt>
      <trkpt lat="45.20619" lon="6.10419">
        <ele>1627.34</ele>
        <time>2018-09-09T08:54:18Z</time>
      </trkpt>
      <trkpt lat="45.20633" lon="6.10458">
        <ele>1629.32</ele>
        <time>2018-09-09T08:54:20Z</time>
      </trkpt>
      <trkpt lat="45.20652" lon="6.10497">
        <ele>1631.1</ele>
        <time>2018-09-09T08:54:22Z</time>
      </trkpt>
      <trkpt lat="45.20675" lon="6.10535">
        <ele>1633.99</ele>
        <time>2018-09-09T08:54:24Z</time>
      </trkpt>
      <trkpt lat="45.20693" lon="6.10579">
        <ele>1636.98</ele>
        <time>2018-09-09T08:54:26Z</time>
      </trkpt>
      <trkpt lat="45.20706" lon="6.10624">
        <ele>1639.98</ele>
        <time>2018-09-09T08:54:28Z</time>
      </trkpt>
      <trkpt lat="45.20721" lon="6.10668">
        <ele>1642.28</ele>
        <time>2018-09-09T08:54:30Z</time>
      </trkpt>
      <trkpt lat="45.20738" lon="6.10712">
        <ele>1643.61</ele>
        <time>2018-09-09T08:54:32Z</time>
      </trkpt>
      <trkpt lat="45.20748" lon="6.1076">
        <ele>1646.04</ele>
        <time>2018-09-09T08:54:34Z</time>
      </trkpt>
      <trkpt lat="45.20754" lon="6.10808">
        <ele>1648.29</ele>
        <time>2018-09-09T08:54:36Z</time>
      </trkpt>
      <trkpt lat="45.20767" lon="6.10852">
        <ele>1650.31</ele>
        <time>2018-09-09T08:54:38Z</time>
      </trkpt>
      <trkpt lat="45.2078" lon="6.10897">
        <ele>1653.22</ele>
        <time>2018-09-09T08:54:40Z</time>
      </trkpt>
      <trkpt lat="45.20789" lon="6.10939">
        <ele>1656.21</ele>
        <time>2018-09-09T08:54:42Z</time>
      </trkpt>
      <trkpt lat="45.20788" lon="6.10978">
        <ele>1659.21</ele>
        <time>2018-09-09T08:54:44Z</time>
      </trkpt>
      <trkpt lat="45.20782" lon="6.11016">
        <ele>1661.3</ele>
        <time>2018-09-09T08:54:46Z</time>
      </trkpt>
      <trkpt lat="45.20783" lon="6.1106">
        <ele>1662.61</ele>
        <time>2018-09-09T08:54:48Z</time>
      </trkpt>
      <trkpt lat="45.2078" lon="6.11105">
        <ele>1665.25</ele>
        <time>2018-09-09T08:54:50Z</time>
      </trkpt>
      <trkpt lat="45.20775" lon="6.11142">
        <ele>1666.61</ele>
        <time>2018-09-09T08:54:52Z</time>
      </trkpt>
      <trkpt lat="45.20772" lon="6.11167">
        <ele>1667.71</ele>
        <time>2018-09-09T08:54:56Z</time>
      </trkpt>
      <trkpt lat="45.20781" lon="6.112">
        <ele>1673.59</ele>
        <time>2018-09-09T08:55:46Z</time>
      </trkpt>
      <trkpt lat="45.20786" lon="6.11226">
        <ele>1676.04</ele>
        <time>2018-09-09T08:55:48Z</time>
      </trkpt>
      <trkpt lat="45.20792" lon="6.11255">
        <ele>1678.29</ele>
        <time>2018-09-09T08:55:50Z</time>
      </trkpt>
      <trkpt lat="45.20797" lon="6.11287">
        <ele>1678.7</ele>
        <time>2018-09-09T08:55:52Z</time>
      </trkpt>
      <trkpt lat="45.20797" lon="6.11321">
        <ele>1679.65</ele>
        <time>2018-09-09T08:55:54Z</time>
      </trkpt>
      <trkpt lat="45.20791" lon="6.1135">
        <ele>1679.52</ele>
        <time>2018-09-09T08:55:56Z</time>
      </trkpt>
      <trkpt lat="45.20794" lon="6.1138">
        <ele>1680.84</ele>
        <time>2018-09-09T08:55:58Z</time>
      </trkpt>
      <trkpt lat="45.20802" lon="6.11411">
        <ele>1681.66</ele>
        <time>2018-09-09T08:56:00Z</time>
      </trkpt>
      <trkpt lat="45.20807" lon="6.11442">
        <ele>1683.13</ele>
        <time>2018-09-09T08:56:02Z</time>
      </trkpt>
      <trkpt lat="45.20813" lon="6.11473">
        <ele>1683.69</ele>
        <time>2018-09-09T08:56:04Z</time>
      </trkpt>
      <trkpt lat="45.20824" lon="6.11503">
        <ele>1683.74</ele>
        <time>2018-09-09T08:56:06Z</time>
      </trkpt>
      <trkpt lat="45.20833" lon="6.11537">
        <ele>1684.65</ele>
        <time>2018-09-09T08:56:08Z</time>
      </trkpt>
      <trkpt lat="45.2084" lon="6.11573">
        <ele>1684.73</ele>
        <time>2018-09-09T08:56:10Z</time>
      </trkpt>
      <trkpt lat="45.20845" lon="6.11608">
        <ele>1685.65</ele>
        <time>2018-09-09T08:56:12Z</time>
      </trkpt>
      <trkpt lat="45.20849" lon="6.11644">
        <ele>1687.34</ele>
        <time>2018-09-09T08:56:14Z</time>
      </trkpt>
      <trkpt lat="45.20849" lon="6.11676">
        <ele>1688.41</ele>
        <time>2018-09-09T08:56:16Z</time>
      </trkpt>
      <trkpt lat="45.20844" lon="6.11701">
        <ele>1688.73</ele>
        <time>2018-09-09T08:56:19Z</time>
      </trkpt>
      <trkpt lat="45.20852" lon="6.11731">
        <ele>1688.43</ele>
        <time>2018-09-09T08:59:31Z</time>
      </trkpt>
      <trkpt lat="45.20849" lon="6.11767">
        <ele>1689.71</ele>
        <time>2018-09-09T08:59:34Z</time>
      </trkpt>
      <trkpt lat="45.20846" lon="6.11793">
        <ele>1689.74</ele>
        <time>2018-09-09T08:59:36Z</time>
      </trkpt>
      <trkpt lat="45.20844" lon="6.11831">
        <ele>1690.44</ele>
        <time>2018-09-09T08:59:39Z</time>
      </trkpt>
      <trkpt lat="45.20853" lon="6.11867">
        <ele>1690.8</ele>
        <time>2018-09-09T08:59:42Z</time>
      </trkpt>
      <trkpt lat="45.20863" lon="6.11893">
        <ele>1690.05</ele>
        <time>2018-09-09T08:59:44Z</time>
      </trkpt>
      <trkpt lat="45.20864" lon="6.1192">
        <ele>1688.86</ele>
        <time>2018-09-09T08:59:46Z</time>
      </trkpt>
      <trkpt lat="45.20861" lon="6.1195">
        <ele>1688.54</ele>
        <time>2018-09-09T08:59:48Z</time>
      </trkpt>
      <trkpt lat="45.20859" lon="6.11983">
        <ele>1689.42</ele>
        <time>2018-09-09T08:59:50Z</time>
      </trkpt>
      <trkpt lat="45.2086" lon="6.12017">
        <ele>1691.32</ele>
        <time>2018-09-09T08:59:52Z</time>
      </trkpt>
      <trkpt lat="45.20865" lon="6.12053">
        <ele>1690.79</ele>
        <time>2018-09-09T08:59:54Z</time>
      </trkpt>
      <trkpt lat="45.20872" lon="6.12088">
        <ele>1692.36</ele>
        <time>2018-09-09T08:59:56Z</time>
      </trkpt>
      <trkpt lat="45.20882" lon="6.12124">
        <ele>1692.71</ele>
        <time>2018-09-09T08:59:58Z</time>
      </trkpt>
      <trkpt lat="45.20891" lon="6.12159">
        <ele>1694.35</ele>
        <time>2018-09-09T09:00:00Z</time>
      </trkpt>
      <trkpt lat="45.20901" lon="6.12193">
        <ele>1695.41</ele>
        <time>2018-09-09T09:00:02Z</time>
      </trkpt>
      <trkpt lat="45.20915" lon="6.12229">
        <ele>1695.71</ele>
        <time>2018-09-09T09:00:04Z</time>
      </trkpt>
      <trkpt lat="45.20931" lon="6.12265">
        <ele>1697.35</ele>
        <time>2018-09-09T09:00:06Z</time>
      </trkpt>
      <trkpt lat="45.20946" lon="6.12301">
        <ele>1698.41</ele>
        <time>2018-09-09T09:00:08Z</time>
      </trkpt>
      <trkpt lat="45.20962" lon="6.1234">
        <ele>1699.41</ele>
        <time>2018-09-09T09:00:10Z</time>
      </trkpt>
      <trkpt lat="45.20976" lon="6.12381">
        <ele>1700.62</ele>
        <time>2018-09-09T09:00:12Z</time>
      </trkpt>
      <trkpt lat="45.20991" lon="6.12422">
        <ele>1702.34</ele>
        <time>2018-09-09T09:00:14Z</time>
      </trkpt>
      <trkpt lat="45.21003" lon="6.12465">
        <ele>1704.1</ele>
        <time>2018-09-09T09:00:16Z</time>
      </trkpt>
      <trkpt lat="45.21014" lon="6.12509">
        <ele>1706.29</ele>
        <time>2018-09-09T09:00:18Z</time>
      </trkpt>
      <trkpt lat="45.21024" lon="6.12551">
        <ele>1707.61</ele>
        <time>2018-09-09T09:00:20Z</time>
      </trkpt>
      <trkpt lat="45.21038" lon="6.12592">
        <ele>1708.64</ele>
        <time>2018-09-09T09:00:22Z</time>
      </trkpt>
      <trkpt lat="45.21056" lon="6.12632">
        <ele>1710.34</ele>
        <time>2018-09-09T09:00:24Z</time>
      </trkpt>
      <trkpt lat="45.21075" lon="6.12671">
        <ele>1712.32</ele>
        <time>2018-09-09T09:00:26Z</time>
      </trkpt>
      <trkpt lat="45.21095" lon="6.12711">
        <ele>1713.61</ele>
        <time>2018-09-09T09:00:28Z</time>
      </trkpt>
      <trkpt lat="45.21118" lon="6.12746">
        <ele>1715.34</ele>
        <time>2018-09-09T09:00:30Z</time>
      </trkpt>
      <trkpt lat="45.21147" lon="6.12771">
        <ele>1716.4</ele>
        <time>2018-09-09T09:00:32Z</time>
      </trkpt>
      <trkpt lat="45.21178" lon="6.12783">
        <ele>1718.53</ele>
        <time>2018-09-09T09:00:34Z</time>
      </trkpt>
      <trkpt lat="45.21198" lon="6.12818">
        <ele>1720.33</ele>
        <time>2018-09-09T09:00:36Z</time>
      </trkpt>
      <trkpt lat="45.21216" lon="6.12859">
        <ele>1722.52</ele>
        <time>2018-09-09T09:00:38Z</time>
      </trkpt>
      <trkpt lat="45.21229" lon="6.12877">
        <ele>1724.08</ele>
        <time>2018-09-09T09:00:39Z</time>
      </trkpt>
      <trkpt lat="45.21243" lon="6.12894">
        <ele>1724.54</ele>
        <time>2018-09-09T09:00:40Z</time>
      </trkpt>
      <trkpt lat="45.21258" lon="6.1291">
        <ele>1726.08</ele>
        <time>2018-09-09T09:00:41Z</time>
      </trkpt>
      <trkpt lat="45.21273" lon="6.12929">
        <ele>1727.24</ele>
        <time>2018-09-09T09:00:42Z</time>
      </trkpt>
      <trkpt lat="45.21289" lon="6.12947">
        <ele>1728.29</ele>
        <time>2018-09-09T09:00:43Z</time>
      </trkpt>
      <trkpt lat="45.21304" lon="6.12965">
        <ele>1730.01</ele>
        <time>2018-09-09T09:00:44Z</time>
      </trkpt>
      <trkpt lat="45.21321" lon="6.12982">
        <ele>1731.22</ele>
        <time>2018-09-09T09:00:45Z</time>
      </trkpt>
      <trkpt lat="45.21337" lon="6.13">
        <ele>1732.98</ele>
        <time>2018-09-09T09:00:46Z</time>
      </trkpt>
      <trkpt lat="45.21354" lon="6.13016">
        <ele>1734.21</ele>
        <time>2018-09-09T09:00:47Z</time>
      </trkpt>
      <trkpt lat="45.21371" lon="6.13032">
        <ele>1735.28</ele>
        <time>2018-09-09T09:00:48Z</time>
      </trkpt>
      <trkpt lat="45.21388" lon="6.13047">
        <ele>1736.3</ele>
        <time>2018-09-09T09:00:49Z</time>
      </trkpt>
      <trkpt lat="45.21404" lon="6.13063">
        <ele>1737.31</ele>
        <time>2018-09-09T09:00:50Z</time>
      </trkpt>
      <trkpt lat="45.21419" lon="6.1308">
        <ele>1737.61</ele>
        <time>2018-09-09T09:00:51Z</time>
      </trkpt>
      <trkpt lat="45.21433" lon="6.13098">
        <ele>1739.1</ele>
        <time>2018-09-09T09:00:52Z</time>
      </trkpt>
      <trkpt lat="45.21449" lon="6.13112">
        <ele>1740.25</ele>
        <time>2018-09-09T09:00:53Z</time>
      </trkpt>
      <trkpt lat="45.21466" lon="6.13124">
        <ele>1740.59</ele>
        <time>2018-09-09T09:00:54Z</time>
      </trkpt>
      <trkpt lat="45.21485" lon="6.13133">
        <ele>1742.1</ele>
        <time>2018-09-09T09:00:55Z</time>
      </trkpt>
      <trkpt lat="45.21505" lon="6.13143">
        <ele>1743.25</ele>
        <time>2018-09-09T09:00:56Z</time>
      </trkpt>
      <trkpt lat="45.21524" lon="6.13152">
        <ele>1743.59</ele>
        <time>2018-09-09T09:00:57Z</time>
      </trkpt>
      <trkpt lat="45.21543" lon="6.13163">
        <ele>1745.1</ele>
        <time>2018-09-09T09:00:58Z</time>
      </trkpt>
      <trkpt lat="45.21562" lon="6.13175">
        <ele>1746.25</ele>
        <time>2018-09-09T09:00:59Z</time>
      </trkpt>
      <trkpt lat="45.2158" lon="6.13188">
        <ele>1747.99</ele>
        <time>2018-09-09T09:01:00Z</time>
      </trkpt>
      <trkpt lat="45.21599" lon="6.13202">
        <ele>1749.22</ele>
        <time>2018-09-09T09:01:01Z</time>
      </trkpt>
      <trkpt lat="45.21617" lon="6.13216">
        <ele>1750.28</ele>
        <time>2018-09-09T09:01:02Z</time>
      </trkpt>
      <trkpt lat="45.21635" lon="6.13229">
        <ele>1750.6</ele>
        <time>2018-09-09T09:01:03Z</time>
      </trkpt>
      <trkpt lat="45.21652" lon="6.13242">
        <ele>1752.1</ele>
        <time>2018-09-09T09:01:04Z</time>
      </trkpt>
      <trkpt lat="45.21669" lon="6.13256">
        <ele>1752.55</ele>
        <time>2018-09-09T09:01:05Z</time>
      </trkpt>
      <trkpt lat="45.21685" lon="6.13271">
        <ele>1752.68</ele>
        <time>2018-09-09T09:01:06Z</time>
      </trkpt>
      <trkpt lat="45.217" lon="6.13286">
        <ele>1752.72</ele>
        <time>2018-09-09T09:01:07Z</time>
      </trkpt>
      <trkpt lat="45.21716" lon="6.13302">
        <ele>1754.14</ele>
        <time>2018-09-09T09:01:08Z</time>
      </trkpt>
      <trkpt lat="45.21732" lon="6.13317">
        <ele>1755.26</ele>
        <time>2018-09-09T09:01:09Z</time>
      </trkpt>
      <trkpt lat="45.21749" lon="6.13331">
        <ele>1756.3</ele>
        <time>2018-09-09T09:01:10Z</time>
      </trkpt>
      <trkpt lat="45.21767" lon="6.13343">
        <ele>1757.31</ele>
        <time>2018-09-09T09:01:11Z</time>
      </trkpt>
      <trkpt lat="45.21784" lon="6.13355">
        <ele>1759.71</ele>
        <time>2018-09-09T09:01:12Z</time>
      </trkpt>
      <trkpt lat="45.21802" lon="6.13368">
        <ele>1761.13</ele>
        <time>2018-09-09T09:01:13Z</time>
      </trkpt>
      <trkpt lat="45.2182" lon="6.13382">
        <ele>1762.26</ele>
        <time>2018-09-09T09:01:14Z</time>
      </trkpt>
      <trkpt lat="45.21837" lon="6.13397">
        <ele>1763.3</ele>
        <time>2018-09-09T09:01:15Z</time>
      </trkpt>
      <trkpt lat="45.21856" lon="6.1341">
        <ele>1764.31</ele>
        <time>2018-09-09T09:01:16Z</time>
      </trkpt>
      <trkpt lat="45.21874" lon="6.13423">
        <ele>1765.31</ele>
        <time>2018-09-09T09:01:17Z</time>
      </trkpt>
      <trkpt lat="45.21891" lon="6.13438">
        <ele>1766.31</ele>
        <time>2018-09-09T09:01:18Z</time>
      </trkpt>
      <trkpt lat="45.21908" lon="6.13454">
        <ele>1767.31</ele>
        <time>2018-09-09T09:01:19Z</time>
      </trkpt>
      <trkpt lat="45.21924" lon="6.1347">
        <ele>1768.31</ele>
        <time>2018-09-09T09:01:20Z</time>
      </trkpt>
      <trkpt lat="45.21941" lon="6.13486">
        <ele>1769.31</ele>
        <time>2018-09-09T09:01:21Z</time>
      </trkpt>
      <trkpt lat="45.21957" lon="6.13502">
        <ele>1769.61</ele>
        <time>2018-09-09T09:01:22Z</time>
      </trkpt>
      <trkpt lat="45.21973" lon="6.13518">
        <ele>1770.4</ele>
        <time>2018-09-09T09:01:23Z</time>
      </trkpt>
      <trkpt lat="45.21989" lon="6.13533">
        <ele>1771.34</ele>
        <time>2018-09-09T09:01:24Z</time>
      </trkpt>
      <trkpt lat="45.22005" lon="6.13547">
        <ele>1772.32</ele>
        <time>2018-09-09T09:01:25Z</time>
      </trkpt>
      <trkpt lat="45.22021" lon="6.13559">
        <ele>1773.31</ele>
        <time>2018-09-09T09:01:26Z</time>
      </trkpt>
      <trkpt lat="45.22039" lon="6.13569">
        <ele>1774.31</ele>
        <time>2018-09-09T09:01:27Z</time>
      </trkpt>
      <trkpt lat="45.22057" lon="6.13578">
        <ele>1774.61</ele>
        <time>2018-09-09T09:01:28Z</time>
      </trkpt>
      <trkpt lat="45.22075" lon="6.13589">
        <ele>1775.4</ele>
        <time>2018-09-09T09:01:29Z</time>
      </trkpt>
      <trkpt lat="45.22093" lon="6.13601">
        <ele>1775.64</ele>
        <time>2018-09-09T09:01:30Z</time>
      </trkpt>
      <trkpt lat="45.2211" lon="6.13614">
        <ele>1775.71</ele>
        <time>2018-09-09T09:01:31Z</time>
      </trkpt>
      <trkpt lat="45.22127" lon="6.13629">
        <ele>1776.43</ele>
        <time>2018-09-09T09:01:32Z</time>
      </trkpt>
      <trkpt lat="45.22144" lon="6.13642">
        <ele>1776.65</ele>
        <time>2018-09-09T09:01:33Z</time>
      </trkpt>
      <trkpt lat="45.22161" lon="6.13652">
        <ele>1776.71</ele>
        <time>2018-09-09T09:01:34Z</time>
      </trkpt>
      <trkpt lat="45.22193" lon="6.1367">
        <ele>1776.74</ele>
        <time>2018-09-09T09:01:36Z</time>
      </trkpt>
      <trkpt lat="45.22218" lon="6.13695">
        <ele>1775.83</ele>
        <time>2018-09-09T09:01:38Z</time>
      </trkpt>
      <trkpt lat="45.22239" lon="6.13732">
        <ele>1775.26</ele>
        <time>2018-09-09T09:01:40Z</time>
      </trkpt>
      <trkpt lat="45.22248" lon="6.13755">
        <ele>1774.9</ele>
        <time>2018-09-09T09:01:41Z</time>
      </trkpt>
      <trkpt lat="45.22256" lon="6.13778">
        <ele>1773.39</ele>
        <time>2018-09-09T09:01:42Z</time>
      </trkpt>
      <trkpt lat="45.22265" lon="6.138">
        <ele>1772.23</ele>
        <time>2018-09-09T09:01:43Z</time>
      </trkpt>
      <trkpt lat="45.22283" lon="6.13842">
        <ele>1771.09</ele>
        <time>2018-09-09T09:01:45Z</time>
      </trkpt>
      <trkpt lat="45.22306" lon="6.13873">
        <ele>1770.07</ele>
        <time>2018-09-09T09:01:47Z</time>
      </trkpt>
      <trkpt lat="45.22337" lon="6.13882">
        <ele>1769.77</ele>
        <time>2018-09-09T09:01:49Z</time>
      </trkpt>
      <trkpt lat="45.22368" lon="6.13869">
        <ele>1769.04</ele>
        <time>2018-09-09T09:01:51Z</time>
      </trkpt>
      <trkpt lat="45.22395" lon="6.13858">
        <ele>1768.07</ele>
        <time>2018-09-09T09:01:53Z</time>
      </trkpt>
      <trkpt lat="45.22419" lon="6.13865">
        <ele>1767.07</ele>
        <time>2018-09-09T09:01:55Z</time>
      </trkpt>
      <trkpt lat="45.22435" lon="6.13893">
        <ele>1766.77</ele>
        <time>2018-09-09T09:01:57Z</time>
      </trkpt>
      <trkpt lat="45.22451" lon="6.13929">
        <ele>1765.13</ele>
        <time>2018-09-09T09:01:59Z</time>
      </trkpt>
      <trkpt lat="45.22467" lon="6.13968">
        <ele>1762.26</ele>
        <time>2018-09-09T09:02:01Z</time>
      </trkpt>
      <trkpt lat="45.22483" lon="6.14011">
        <ele>1760.18</ele>
        <time>2018-09-09T09:02:03Z</time>
      </trkpt>
      <trkpt lat="45.22495" lon="6.14058">
        <ele>1758.17</ele>
        <time>2018-09-09T09:02:05Z</time>
      </trkpt>
      <trkpt lat="45.22505" lon="6.14107">
        <ele>1756.17</ele>
        <time>2018-09-09T09:02:07Z</time>
      </trkpt>
      <trkpt lat="45.2251" lon="6.14132">
        <ele>1755.17</ele>
        <time>2018-09-09T09:02:08Z</time>
      </trkpt>
      <trkpt lat="45.22516" lon="6.14156">
        <ele>1754.17</ele>
        <time>2018-09-09T09:02:09Z</time>
      </trkpt>
      <trkpt lat="45.2253" lon="6.14202">
        <ele>1752.17</ele>
        <time>2018-09-09T09:02:11Z</time>
      </trkpt>
      <trkpt lat="45.22548" lon="6.14245">
        <ele>1751.08</ele>
        <time>2018-09-09T09:02:13Z</time>
      </trkpt>
      <trkpt lat="45.22557" lon="6.14267">
        <ele>1750.14</ele>
        <time>2018-09-09T09:02:14Z</time>
      </trkpt>
      <trkpt lat="45.22566" lon="6.14289">
        <ele>1749.86</ele>
        <time>2018-09-09T09:02:15Z</time>
      </trkpt>
      <trkpt lat="45.22583" lon="6.14334">
        <ele>1748.84</ele>
        <time>2018-09-09T09:02:17Z</time>
      </trkpt>
      <trkpt lat="45.22592" lon="6.14358">
        <ele>1748.07</ele>
        <time>2018-09-09T09:02:18Z</time>
      </trkpt>
      <trkpt lat="45.226" lon="6.14383">
        <ele>1746.44</ele>
        <time>2018-09-09T09:02:19Z</time>
      </trkpt>
      <trkpt lat="45.22607" lon="6.14407">
        <ele>1745.25</ele>
        <time>2018-09-09T09:02:20Z</time>
      </trkpt>
      <trkpt lat="45.22615" lon="6.14432">
        <ele>1744.19</ele>
        <time>2018-09-09T09:02:21Z</time>
      </trkpt>
      <trkpt lat="45.22624" lon="6.14456">
        <ele>1743.18</ele>
        <time>2018-09-09T09:02:22Z</time>
      </trkpt>
      <trkpt lat="45.22632" lon="6.1448">
        <ele>1741.47</ele>
        <time>2018-09-09T09:02:23Z</time>
      </trkpt>
      <trkpt lat="45.2264" lon="6.14506">
        <ele>1740.96</ele>
        <time>2018-09-09T09:02:24Z</time>
      </trkpt>
      <trkpt lat="45.22646" lon="6.14533">
        <ele>1740.11</ele>
        <time>2018-09-09T09:02:25Z</time>
      </trkpt>
      <trkpt lat="45.22651" lon="6.14561">
        <ele>1739.15</ele>
        <time>2018-09-09T09:02:26Z</time>
      </trkpt>
      <trkpt lat="45.22654" lon="6.14589">
        <ele>1737.46</ele>
        <time>2018-09-09T09:02:27Z</time>
      </trkpt>
      <trkpt lat="45.22656" lon="6.14617">
        <ele>1736.26</ele>
        <time>2018-09-09T09:02:28Z</time>
      </trkpt>
      <trkpt lat="45.22658" lon="6.14645">
        <ele>1735.2</ele>
        <time>2018-09-09T09:02:29Z</time>
      </trkpt>
      <trkpt lat="45.2266" lon="6.14672">
        <ele>1734.88</ele>
        <time>2018-09-09T09:02:30Z</time>
      </trkpt>
      <trkpt lat="45.22663" lon="6.147">
        <ele>1734.08</ele>
        <time>2018-09-09T09:02:31Z</time>
      </trkpt>
      <trkpt lat="45.22665" lon="6.14728">
        <ele>1732.44</ele>
        <time>2018-09-09T09:02:32Z</time>
      </trkpt>
      <trkpt lat="45.22667" lon="6.14756">
        <ele>1731.25</ele>
        <time>2018-09-09T09:02:33Z</time>
      </trkpt>
      <trkpt lat="45.22668" lon="6.14783">
        <ele>1729.49</ele>
        <time>2018-09-09T09:02:34Z</time>
      </trkpt>
      <trkpt lat="45.22667" lon="6.1481">
        <ele>1728.27</ele>
        <time>2018-09-09T09:02:35Z</time>
      </trkpt>
      <trkpt lat="45.22666" lon="6.14838">
        <ele>1727.2</ele>
        <time>2018-09-09T09:02:36Z</time>
      </trkpt>
      <trkpt lat="45.22664" lon="6.14863">
        <ele>1726.18</ele>
        <time>2018-09-09T09:02:37Z</time>
      </trkpt>
      <trkpt lat="45.22668" lon="6.14911">
        <ele>1724.17</ele>
        <time>2018-09-09T09:02:39Z</time>
      </trkpt>
      <trkpt lat="45.22683" lon="6.14946">
        <ele>1722.87</ele>
        <time>2018-09-09T09:02:41Z</time>
      </trkpt>
      <trkpt lat="45.22701" lon="6.14961">
        <ele>1722.78</ele>
        <time>2018-09-09T09:02:42Z</time>
      </trkpt>
      <trkpt lat="45.22726" lon="6.14995">
        <ele>1720.92</ele>
        <time>2018-09-09T09:02:44Z</time>
      </trkpt>
      <trkpt lat="45.22736" lon="6.15041">
        <ele>1718.45</ele>
        <time>2018-09-09T09:02:46Z</time>
      </trkpt>
      <trkpt lat="45.22737" lon="6.15066">
        <ele>1717.95</ele>
        <time>2018-09-09T09:02:47Z</time>
      </trkpt>
      <trkpt lat="45.22745" lon="6.15116">
        <ele>1716.15</ele>
        <time>2018-09-09T09:02:49Z</time>
      </trkpt>
      <trkpt lat="45.2276" lon="6.15152">
        <ele>1714.17</ele>
        <time>2018-09-09T09:02:51Z</time>
      </trkpt>
      <trkpt lat="45.22784" lon="6.15179">
        <ele>1713.08</ele>
        <time>2018-09-09T09:02:53Z</time>
      </trkpt>
      <trkpt lat="45.22794" lon="6.15225">
        <ele>1711.86</ele>
        <time>2018-09-09T09:02:55Z</time>
      </trkpt>
      <trkpt lat="45.228" lon="6.15249">
        <ele>1713.18</ele>
        <time>2018-09-09T09:02:56Z</time>
      </trkpt>
      <trkpt lat="45.22809" lon="6.15274">
        <ele>1713.57</ele>
        <time>2018-09-09T09:02:57Z</time>
      </trkpt>
      <trkpt lat="45.22821" lon="6.153">
        <ele>1715.09</ele>
        <time>2018-09-09T09:02:58Z</time>
      </trkpt>
      <trkpt lat="45.22831" lon="6.15328">
        <ele>1716.95</ele>
        <time>2018-09-09T09:02:59Z</time>
      </trkpt>
      <trkpt lat="45.22838" lon="6.15355">
        <ele>1718.2</ele>
        <time>2018-09-09T09:03:00Z</time>
      </trkpt>
      <trkpt lat="45.22844" lon="6.15381">
        <ele>1719.28</ele>
        <time>2018-09-09T09:03:01Z</time>
      </trkpt>
      <trkpt lat="45.22852" lon="6.15424">
        <ele>1722.22</ele>
        <time>2018-09-09T09:03:03Z</time>
      </trkpt>
      <trkpt lat="45.22846" lon="6.15465">
        <ele>1725.21</ele>
        <time>2018-09-09T09:03:05Z</time>
      </trkpt>
      <trkpt lat="45.22841" lon="6.15509">
        <ele>1726.6</ele>
        <time>2018-09-09T09:03:07Z</time>
      </trkpt>
      <trkpt lat="45.22852" lon="6.1555">
        <ele>1729.95</ele>
        <time>2018-09-09T09:03:09Z</time>
      </trkpt>
      <trkpt lat="45.22862" lon="6.15571">
        <ele>1731.9</ele>
        <time>2018-09-09T09:03:10Z</time>
      </trkpt>
      <trkpt lat="45.22873" lon="6.15593">
        <ele>1733.89</ele>
        <time>2018-09-09T09:03:11Z</time>
      </trkpt>
      <trkpt lat="45.22885" lon="6.15617">
        <ele>1735.89</ele>
        <time>2018-09-09T09:03:12Z</time>
      </trkpt>
      <trkpt lat="45.22898" lon="6.15641">
        <ele>1737.88</ele>
        <time>2018-09-09T09:03:13Z</time>
      </trkpt>
      <trkpt lat="45.22914" lon="6.15665">
        <ele>1739.88</ele>
        <time>2018-09-09T09:03:14Z</time>
      </trkpt>
      <trkpt lat="45.2293" lon="6.15689">
        <ele>1741.88</ele>
        <time>2018-09-09T09:03:15Z</time>
      </trkpt>
      <trkpt lat="45.22946" lon="6.15713">
        <ele>1743.18</ele>
        <time>2018-09-09T09:03:16Z</time>
      </trkpt>
      <trkpt lat="45.22959" lon="6.15738">
        <ele>1744.27</ele>
        <time>2018-09-09T09:03:17Z</time>
      </trkpt>
      <trkpt lat="45.22968" lon="6.15764">
        <ele>1746</ele>
        <time>2018-09-09T09:03:18Z</time>
      </trkpt>
      <trkpt lat="45.22973" lon="6.15792">
        <ele>1748.62</ele>
        <time>2018-09-09T09:03:19Z</time>
      </trkpt>
      <trkpt lat="45.22978" lon="6.15819">
        <ele>1750.1</ele>
        <time>2018-09-09T09:03:20Z</time>
      </trkpt>
      <trkpt lat="45.22984" lon="6.15846">
        <ele>1750.55</ele>
        <time>2018-09-09T09:03:21Z</time>
      </trkpt>
      <trkpt lat="45.22995" lon="6.15872">
        <ele>1752.08</ele>
        <time>2018-09-09T09:03:22Z</time>
      </trkpt>
      <trkpt lat="45.23003" lon="6.15896">
        <ele>1753.94</ele>
        <time>2018-09-09T09:03:23Z</time>
      </trkpt>
      <trkpt lat="45.23022" lon="6.15934">
        <ele>1755.58</ele>
        <time>2018-09-09T09:03:25Z</time>
      </trkpt>
      <trkpt lat="45.23053" lon="6.15958">
        <ele>1758.25</ele>
        <time>2018-09-09T09:03:27Z</time>
      </trkpt>
      <trkpt lat="45.23075" lon="6.15998">
        <ele>1761.01</ele>
        <time>2018-09-09T09:03:29Z</time>
      </trkpt>
      <trkpt lat="45.23097" lon="6.16038">
        <ele>1762.37</ele>
        <time>2018-09-09T09:03:31Z</time>
      </trkpt>
      <trkpt lat="45.23109" lon="6.16058">
        <ele>1763.33</ele>
        <time>2018-09-09T09:03:32Z</time>
      </trkpt>
      <trkpt lat="45.23126" lon="6.16097">
        <ele>1764.61</ele>
        <time>2018-09-09T09:03:34Z</time>
      </trkpt>
      <trkpt lat="45.23147" lon="6.16123">
        <ele>1767.04</ele>
        <time>2018-09-09T09:03:36Z</time>
      </trkpt>
      <trkpt lat="45.23167" lon="6.1615">
        <ele>1768.59</ele>
        <time>2018-09-09T09:03:38Z</time>
      </trkpt>
      <trkpt lat="45.23181" lon="6.16188">
        <ele>1771.04</ele>
        <time>2018-09-09T09:03:40Z</time>
      </trkpt>
      <trkpt lat="45.23194" lon="6.1623">
        <ele>1773.29</ele>
        <time>2018-09-09T09:03:42Z</time>
      </trkpt>
      <trkpt lat="45.23202" lon="6.16274">
        <ele>1777.13</ele>
        <time>2018-09-09T09:03:44Z</time>
      </trkpt>
      <trkpt lat="45.23209" lon="6.16318">
        <ele>1780</ele>
        <time>2018-09-09T09:03:46Z</time>
      </trkpt>
      <trkpt lat="45.23216" lon="6.16363">
        <ele>1783.19</ele>
        <time>2018-09-09T09:03:48Z</time>
      </trkpt>
      <trkpt lat="45.23228" lon="6.16409">
        <ele>1786</ele>
        <time>2018-09-09T09:03:50Z</time>
      </trkpt>
      <trkpt lat="45.23242" lon="6.16456">
        <ele>1788.28</ele>
        <time>2018-09-09T09:03:52Z</time>
      </trkpt>
      <trkpt lat="45.2325" lon="6.16481">
        <ele>1790</ele>
        <time>2018-09-09T09:03:53Z</time>
      </trkpt>
      <trkpt lat="45.23258" lon="6.16505">
        <ele>1791.22</ele>
        <time>2018-09-09T09:03:54Z</time>
      </trkpt>
      <trkpt lat="45.23264" lon="6.1653">
        <ele>1792.98</ele>
        <time>2018-09-09T09:03:55Z</time>
      </trkpt>
      <trkpt lat="45.23269" lon="6.16555">
        <ele>1794.21</ele>
        <time>2018-09-09T09:03:56Z</time>
      </trkpt>
      <trkpt lat="45.23276" lon="6.16579">
        <ele>1795.98</ele>
        <time>2018-09-09T09:03:57Z</time>
      </trkpt>
      <trkpt lat="45.23285" lon="6.16603">
        <ele>1797.91</ele>
        <time>2018-09-09T09:03:58Z</time>
      </trkpt>
      <trkpt lat="45.23294" lon="6.16627">
        <ele>1799.89</ele>
        <time>2018-09-09T09:03:59Z</time>
      </trkpt>
      <trkpt lat="45.23302" lon="6.16652">
        <ele>1800.49</ele>
        <time>2018-09-09T09:04:00Z</time>
      </trkpt>
      <trkpt lat="45.23307" lon="6.1668">
        <ele>1802.06</ele>
        <time>2018-09-09T09:04:01Z</time>
      </trkpt>
      <trkpt lat="45.2331" lon="6.16706">
        <ele>1803.24</ele>
        <time>2018-09-09T09:04:02Z</time>
      </trkpt>
      <trkpt lat="45.23316" lon="6.16732">
        <ele>1804.29</ele>
        <time>2018-09-09T09:04:03Z</time>
      </trkpt>
      <trkpt lat="45.23323" lon="6.16758">
        <ele>1806.01</ele>
        <time>2018-09-09T09:04:04Z</time>
      </trkpt>
      <trkpt lat="45.23332" lon="6.16782">
        <ele>1807.92</ele>
        <time>2018-09-09T09:04:05Z</time>
      </trkpt>
      <trkpt lat="45.23342" lon="6.16806">
        <ele>1809.19</ele>
        <time>2018-09-09T09:04:06Z</time>
      </trkpt>
      <trkpt lat="45.23349" lon="6.16831">
        <ele>1810.98</ele>
        <time>2018-09-09T09:04:07Z</time>
      </trkpt>
      <trkpt lat="45.23354" lon="6.16857">
        <ele>1812.21</ele>
        <time>2018-09-09T09:04:08Z</time>
      </trkpt>
      <trkpt lat="45.2336" lon="6.16882">
        <ele>1813.28</ele>
        <time>2018-09-09T09:04:09Z</time>
      </trkpt>
      <trkpt lat="45.23369" lon="6.16906">
        <ele>1815</ele>
        <time>2018-09-09T09:04:10Z</time>
      </trkpt>
      <trkpt lat="45.23378" lon="6.16929">
        <ele>1816.22</ele>
        <time>2018-09-09T09:04:11Z</time>
      </trkpt>
      <trkpt lat="45.23389" lon="6.16951">
        <ele>1818.68</ele>
        <time>2018-09-09T09:04:12Z</time>
      </trkpt>
      <trkpt lat="45.23402" lon="6.16972">
        <ele>1820.12</ele>
        <time>2018-09-09T09:04:13Z</time>
      </trkpt>
      <trkpt lat="45.23412" lon="6.16995">
        <ele>1820.56</ele>
        <time>2018-09-09T09:04:14Z</time>
      </trkpt>
      <trkpt lat="45.23419" lon="6.17021">
        <ele>1822.09</ele>
        <time>2018-09-09T09:04:15Z</time>
      </trkpt>
      <trkpt lat="45.23425" lon="6.17047">
        <ele>1823.94</ele>
        <time>2018-09-09T09:04:16Z</time>
      </trkpt>
      <trkpt lat="45.23432" lon="6.17074">
        <ele>1825.9</ele>
        <time>2018-09-09T09:04:17Z</time>
      </trkpt>
      <trkpt lat="45.2344" lon="6.17099">
        <ele>1827.19</ele>
        <time>2018-09-09T09:04:18Z</time>
      </trkpt>
      <trkpt lat="45.2345" lon="6.17124">
        <ele>1828.98</ele>
        <time>2018-09-09T09:04:19Z</time>
      </trkpt>
      <trkpt lat="45.2346" lon="6.17148">
        <ele>1830.91</ele>
        <time>2018-09-09T09:04:20Z</time>
      </trkpt>
      <trkpt lat="45.2347" lon="6.17171">
        <ele>1832.89</ele>
        <time>2018-09-09T09:04:21Z</time>
      </trkpt>
      <trkpt lat="45.2349" lon="6.17208">
        <ele>1835.97</ele>
        <time>2018-09-09T09:04:23Z</time>
      </trkpt>
      <trkpt lat="45.23517" lon="6.1723">
        <ele>1837.37</ele>
        <time>2018-09-09T09:04:25Z</time>
      </trkpt>
      <trkpt lat="45.23534" lon="6.17239">
        <ele>1838.33</ele>
        <time>2018-09-09T09:04:26Z</time>
      </trkpt>
      <trkpt lat="45.2355" lon="6.17252">
        <ele>1840.02</ele>
        <time>2018-09-09T09:04:27Z</time>
      </trkpt>
      <trkpt lat="45.23564" lon="6.17269">
        <ele>1841.22</ele>
        <time>2018-09-09T09:04:28Z</time>
      </trkpt>
      <trkpt lat="45.23585" lon="6.17309">
        <ele>1845.82</ele>
        <time>2018-09-09T09:04:30Z</time>
      </trkpt>
      <trkpt lat="45.23607" lon="6.17345">
        <ele>1848.97</ele>
        <time>2018-09-09T09:04:32Z</time>
      </trkpt>
      <trkpt lat="45.23634" lon="6.17365">
        <ele>1851.28</ele>
        <time>2018-09-09T09:04:34Z</time>
      </trkpt>
      <trkpt lat="45.23647" lon="6.17397">
        <ele>1854.92</ele>
        <time>2018-09-09T09:04:36Z</time>
      </trkpt>
      <trkpt lat="45.23659" lon="6.17435">
        <ele>1857.28</ele>
        <time>2018-09-09T09:04:38Z</time>
      </trkpt>
      <trkpt lat="45.23681" lon="6.17467">
        <ele>1860.01</ele>
        <time>2018-09-09T09:04:40Z</time>
      </trkpt>
      <trkpt lat="45.2371" lon="6.17484">
        <ele>1863.69</ele>
        <time>2018-09-09T09:04:42Z</time>
      </trkpt>
      <trkpt lat="45.23738" lon="6.17505">
        <ele>1866.05</ele>
        <time>2018-09-09T09:04:44Z</time>
      </trkpt>
      <trkpt lat="45.2377" lon="6.1752">
        <ele>1869.2</ele>
        <time>2018-09-09T09:04:46Z</time>
      </trkpt>
      <trkpt lat="45.23799" lon="6.17534">
        <ele>1872</ele>
        <time>2018-09-09T09:04:48Z</time>
      </trkpt>
      <trkpt lat="45.23826" lon="6.17552">
        <ele>1875.19</ele>
        <time>2018-09-09T09:04:50Z</time>
      </trkpt>
      <trkpt lat="45.23845" lon="6.17577">
        <ele>1877.3</ele>
        <time>2018-09-09T09:04:52Z</time>
      </trkpt>
      <trkpt lat="45.2385" lon="6.17609">
        <ele>1880.22</ele>
        <time>2018-09-09T09:04:54Z</time>
      </trkpt>
      <trkpt lat="45.23853" lon="6.17645">
        <ele>1882.3</ele>
        <time>2018-09-09T09:04:56Z</time>
      </trkpt>
      <trkpt lat="45.23862" lon="6.17681">
        <ele>1884.31</ele>
        <time>2018-09-09T09:04:58Z</time>
      </trkpt>
      <trkpt lat="45.2387" lon="6.17717">
        <ele>1887.22</ele>
        <time>2018-09-09T09:05:00Z</time>
      </trkpt>
      <trkpt lat="45.23868" lon="6.17748">
        <ele>1889.3</ele>
        <time>2018-09-09T09:05:02Z</time>
      </trkpt>
      <trkpt lat="45.23872" lon="6.17778">
        <ele>1890.7</ele>
        <time>2018-09-09T09:05:05Z</time>
      </trkpt>
      <trkpt lat="45.23889" lon="6.17768">
        <ele>1894.61</ele>
        <time>2018-09-09T09:05:10Z</time>
      </trkpt>
      <trkpt lat="45.23898" lon="6.17742">
        <ele>1896.14</ele>
        <time>2018-09-09T09:05:14Z</time>
      </trkpt>
      <trkpt lat="45.23903" lon="6.17705">
        <ele>1898.3</ele>
        <time>2018-09-09T09:05:16Z</time>
      </trkpt>
      <trkpt lat="45.23904" lon="6.17676">
        <ele>1900.52</ele>
        <time>2018-09-09T09:05:18Z</time>
      </trkpt>
      <trkpt lat="45.23912" lon="6.17653">
        <ele>1902.33</ele>
        <time>2018-09-09T09:05:20Z</time>
      </trkpt>
      <trkpt lat="45.23931" lon="6.17625">
        <ele>1905.38</ele>
        <time>2018-09-09T09:05:23Z</time>
      </trkpt>
      <trkpt lat="45.2394" lon="6.17593">
        <ele>1908.31</ele>
        <time>2018-09-09T09:05:26Z</time>
      </trkpt>
      <trkpt lat="45.23946" lon="6.17568">
        <ele>1910.34</ele>
        <time>2018-09-09T09:05:29Z</time>
      </trkpt>
      <trkpt lat="45.23965" lon="6.17561">
        <ele>1913.03</ele>
        <time>2018-09-09T09:05:35Z</time>
      </trkpt>
      <trkpt lat="45.23946" lon="6.17563">
        <ele>1908.53</ele>
        <time>2018-09-09T09:10:31Z</time>
      </trkpt>
      <trkpt lat="45.2394" lon="6.1759">
        <ele>1908.04</ele>
        <time>2018-09-09T09:10:35Z</time>
      </trkpt>
      <trkpt lat="45.23932" lon="6.17614">
        <ele>1907.75</ele>
        <time>2018-09-09T09:10:38Z</time>
      </trkpt>
      <trkpt lat="45.23917" lon="6.17638">
        <ele>1905.86</ele>
        <time>2018-09-09T09:10:41Z</time>
      </trkpt>
      <trkpt lat="45.23902" lon="6.17665">
        <ele>1904.77</ele>
        <time>2018-09-09T09:10:44Z</time>
      </trkpt>
      <trkpt lat="45.23899" lon="6.177">
        <ele>1902.16</ele>
        <time>2018-09-09T09:10:47Z</time>
      </trkpt>
      <trkpt lat="45.23897" lon="6.17727">
        <ele>1901.08</ele>
        <time>2018-09-09T09:10:49Z</time>
      </trkpt>
      <trkpt lat="45.23892" lon="6.17752">
        <ele>1899.86</ele>
        <time>2018-09-09T09:10:51Z</time>
      </trkpt>
      <trkpt lat="45.23882" lon="6.17782">
        <ele>1896.19</ele>
        <time>2018-09-09T09:10:54Z</time>
      </trkpt>
      <trkpt lat="45.2388" lon="6.17808">
        <ele>1895.74</ele>
        <time>2018-09-09T09:10:58Z</time>
      </trkpt>
      <trkpt lat="45.23883" lon="6.17836">
        <ele>1897.41</ele>
        <time>2018-09-09T09:11:01Z</time>
      </trkpt>
      <trkpt lat="45.23888" lon="6.17868">
        <ele>1897.71</ele>
        <time>2018-09-09T09:11:03Z</time>
      </trkpt>
      <trkpt lat="45.23896" lon="6.17907">
        <ele>1899.35</ele>
        <time>2018-09-09T09:11:05Z</time>
      </trkpt>
      <trkpt lat="45.23899" lon="6.17956">
        <ele>1902.23</ele>
        <time>2018-09-09T09:11:07Z</time>
      </trkpt>
      <trkpt lat="45.23902" lon="6.18007">
        <ele>1903.6</ele>
        <time>2018-09-09T09:11:09Z</time>
      </trkpt>
      <trkpt lat="45.23905" lon="6.18034">
        <ele>1905.1</ele>
        <time>2018-09-09T09:11:10Z</time>
      </trkpt>
      <trkpt lat="45.23908" lon="6.18059">
        <ele>1905.55</ele>
        <time>2018-09-09T09:11:11Z</time>
      </trkpt>
      <trkpt lat="45.2391" lon="6.18086">
        <ele>1907.08</ele>
        <time>2018-09-09T09:11:12Z</time>
      </trkpt>
      <trkpt lat="45.23911" lon="6.18112">
        <ele>1908.94</ele>
        <time>2018-09-09T09:11:13Z</time>
      </trkpt>
      <trkpt lat="45.2391" lon="6.18138">
        <ele>1909.5</ele>
        <time>2018-09-09T09:11:14Z</time>
      </trkpt>
      <trkpt lat="45.23903" lon="6.18185">
        <ele>1912.24</ele>
        <time>2018-09-09T09:11:16Z</time>
      </trkpt>
      <trkpt lat="45.23893" lon="6.18228">
        <ele>1912.7</ele>
        <time>2018-09-09T09:11:18Z</time>
      </trkpt>
      <trkpt lat="45.23894" lon="6.18256">
        <ele>1914.13</ele>
        <time>2018-09-09T09:11:19Z</time>
      </trkpt>
      <trkpt lat="45.23895" lon="6.18284">
        <ele>1915.26</ele>
        <time>2018-09-09T09:11:20Z</time>
      </trkpt>
      <trkpt lat="45.23896" lon="6.18313">
        <ele>1916.3</ele>
        <time>2018-09-09T09:11:21Z</time>
      </trkpt>
      <trkpt lat="45.23896" lon="6.18341">
        <ele>1917.31</ele>
        <time>2018-09-09T09:11:22Z</time>
      </trkpt>
      <trkpt lat="45.23894" lon="6.1837">
        <ele>1919.01</ele>
        <time>2018-09-09T09:11:23Z</time>
      </trkpt>
      <trkpt lat="45.23888" lon="6.18417">
        <ele>1921.29</ele>
        <time>2018-09-09T09:11:25Z</time>
      </trkpt>
      <trkpt lat="45.23889" lon="6.18454">
        <ele>1922.61</ele>
        <time>2018-09-09T09:11:27Z</time>
      </trkpt>
      <trkpt lat="45.23907" lon="6.18486">
        <ele>1925.04</ele>
        <time>2018-09-09T09:11:29Z</time>
      </trkpt>
      <trkpt lat="45.23921" lon="6.18517">
        <ele>1926.38</ele>
        <time>2018-09-09T09:11:31Z</time>
      </trkpt>
      <trkpt lat="45.23919" lon="6.18549">
        <ele>1929.23</ele>
        <time>2018-09-09T09:11:33Z</time>
      </trkpt>
      <trkpt lat="45.23911" lon="6.18577">
        <ele>1931.3</ele>
        <time>2018-09-09T09:11:35Z</time>
      </trkpt>
      <trkpt lat="45.2389" lon="6.18585">
        <ele>1932.61</ele>
        <time>2018-09-09T09:11:37Z</time>
      </trkpt>
      <trkpt lat="45.23864" lon="6.18598">
        <ele>1935.04</ele>
        <time>2018-09-09T09:11:39Z</time>
      </trkpt>
      <trkpt lat="45.23843" lon="6.18623">
        <ele>1937.29</ele>
        <time>2018-09-09T09:11:41Z</time>
      </trkpt>
      <trkpt lat="45.23828" lon="6.18659">
        <ele>1939.1</ele>
        <time>2018-09-09T09:11:43Z</time>
      </trkpt>
      <trkpt lat="45.23812" lon="6.18698">
        <ele>1939.68</ele>
        <time>2018-09-09T09:11:45Z</time>
      </trkpt>
      <trkpt lat="45.23796" lon="6.1874">
        <ele>1941.35</ele>
        <time>2018-09-09T09:11:47Z</time>
      </trkpt>
      <trkpt lat="45.23777" lon="6.18778">
        <ele>1942.41</ele>
        <time>2018-09-09T09:11:49Z</time>
      </trkpt>
      <trkpt lat="45.23762" lon="6.18813">
        <ele>1945.23</ele>
        <time>2018-09-09T09:11:51Z</time>
      </trkpt>
      <trkpt lat="45.23754" lon="6.18853">
        <ele>1946.61</ele>
        <time>2018-09-09T09:11:53Z</time>
      </trkpt>
      <trkpt lat="45.23745" lon="6.18892">
        <ele>1948.34</ele>
        <time>2018-09-09T09:11:55Z</time>
      </trkpt>
      <trkpt lat="45.23731" lon="6.1893">
        <ele>1950.1</ele>
        <time>2018-09-09T09:11:57Z</time>
      </trkpt>
      <trkpt lat="45.23718" lon="6.18973">
        <ele>1950.68</ele>
        <time>2018-09-09T09:11:59Z</time>
      </trkpt>
      <trkpt lat="45.23708" lon="6.19018">
        <ele>1953.26</ele>
        <time>2018-09-09T09:12:01Z</time>
      </trkpt>
      <trkpt lat="45.23697" lon="6.19061">
        <ele>1954.4</ele>
        <time>2018-09-09T09:12:03Z</time>
      </trkpt>
      <trkpt lat="45.23681" lon="6.19098">
        <ele>1956.32</ele>
        <time>2018-09-09T09:12:05Z</time>
      </trkpt>
      <trkpt lat="45.2366" lon="6.19133">
        <ele>1959.01</ele>
        <time>2018-09-09T09:12:07Z</time>
      </trkpt>
      <trkpt lat="45.23636" lon="6.19167">
        <ele>1961.29</ele>
        <time>2018-09-09T09:12:09Z</time>
      </trkpt>
      <trkpt lat="45.23611" lon="6.19202">
        <ele>1964.01</ele>
        <time>2018-09-09T09:12:11Z</time>
      </trkpt>
      <trkpt lat="45.23587" lon="6.19238">
        <ele>1967.2</ele>
        <time>2018-09-09T09:12:13Z</time>
      </trkpt>
      <trkpt lat="45.23562" lon="6.1927">
        <ele>1969.51</ele>
        <time>2018-09-09T09:12:15Z</time>
      </trkpt>
      <trkpt lat="45.23536" lon="6.1929">
        <ele>1973.64</ele>
        <time>2018-09-09T09:12:17Z</time>
      </trkpt>
      <trkpt lat="45.23506" lon="6.19304">
        <ele>1976.25</ele>
        <time>2018-09-09T09:12:19Z</time>
      </trkpt>
      <trkpt lat="45.23476" lon="6.19318">
        <ele>1979.22</ele>
        <time>2018-09-09T09:12:21Z</time>
      </trkpt>
      <trkpt lat="45.23446" lon="6.19322">
        <ele>1983.12</ele>
        <time>2018-09-09T09:12:23Z</time>
      </trkpt>
      <trkpt lat="45.23423" lon="6.19326">
        <ele>1985.3</ele>
        <time>2018-09-09T09:12:25Z</time>
      </trkpt>
      <trkpt lat="45.2341" lon="6.19345">
        <ele>1988.01</ele>
        <time>2018-09-09T09:12:27Z</time>
      </trkpt>
      <trkpt lat="45.23401" lon="6.19373">
        <ele>1988.68</ele>
        <time>2018-09-09T09:12:29Z</time>
      </trkpt>
      <trkpt lat="45.23389" lon="6.19405">
        <ele>1989.65</ele>
        <time>2018-09-09T09:12:31Z</time>
      </trkpt>
      <trkpt lat="45.23376" lon="6.1944">
        <ele>1990.43</ele>
        <time>2018-09-09T09:12:33Z</time>
      </trkpt>
      <trkpt lat="45.2336" lon="6.19474">
        <ele>1992.11</ele>
        <time>2018-09-09T09:12:35Z</time>
      </trkpt>
      <trkpt lat="45.23344" lon="6.19508">
        <ele>1993.59</ele>
        <time>2018-09-09T09:12:37Z</time>
      </trkpt>
      <trkpt lat="45.23333" lon="6.19548">
        <ele>1995.55</ele>
        <time>2018-09-09T09:12:39Z</time>
      </trkpt>
      <trkpt lat="45.23328" lon="6.19592">
        <ele>1997.33</ele>
        <time>2018-09-09T09:12:41Z</time>
      </trkpt>
      <trkpt lat="45.23319" lon="6.19634">
        <ele>1999.1</ele>
        <time>2018-09-09T09:12:43Z</time>
      </trkpt>
      <trkpt lat="45.23302" lon="6.19671">
        <ele>2000.38</ele>
        <time>2018-09-09T09:12:45Z</time>
      </trkpt>
      <trkpt lat="45.23285" lon="6.19704">
        <ele>2002.32</ele>
        <time>2018-09-09T09:12:47Z</time>
      </trkpt>
      <trkpt lat="45.23266" lon="6.19734">
        <ele>2002.7</ele>
        <time>2018-09-09T09:12:49Z</time>
      </trkpt>
      <trkpt lat="45.23245" lon="6.19758">
        <ele>2004.35</ele>
        <time>2018-09-09T09:12:51Z</time>
      </trkpt>
      <trkpt lat="45.23223" lon="6.19783">
        <ele>2006.32</ele>
        <time>2018-09-09T09:12:53Z</time>
      </trkpt>
      <trkpt lat="45.232" lon="6.19812">
        <ele>2009.01</ele>
        <time>2018-09-09T09:12:55Z</time>
      </trkpt>
      <trkpt lat="45.23179" lon="6.19841">
        <ele>2011.29</ele>
        <time>2018-09-09T09:12:57Z</time>
      </trkpt>
      <trkpt lat="45.23161" lon="6.19875">
        <ele>2013.31</ele>
        <time>2018-09-09T09:12:59Z</time>
      </trkpt>
      <trkpt lat="45.23144" lon="6.19912">
        <ele>2015.31</ele>
        <time>2018-09-09T09:13:01Z</time>
      </trkpt>
      <trkpt lat="45.23128" lon="6.1995">
        <ele>2017.1</ele>
        <time>2018-09-09T09:13:03Z</time>
      </trkpt>
      <trkpt lat="45.2311" lon="6.19989">
        <ele>2018.59</ele>
        <time>2018-09-09T09:13:05Z</time>
      </trkpt>
      <trkpt lat="45.23091" lon="6.20028">
        <ele>2019.43</ele>
        <time>2018-09-09T09:13:07Z</time>
      </trkpt>
      <trkpt lat="45.2307" lon="6.20066">
        <ele>2022.23</ele>
        <time>2018-09-09T09:13:09Z</time>
      </trkpt>
      <trkpt lat="45.23047" lon="6.201">
        <ele>2024.31</ele>
        <time>2018-09-09T09:13:11Z</time>
      </trkpt>
      <trkpt lat="45.23024" lon="6.20132">
        <ele>2027.22</ele>
        <time>2018-09-09T09:13:13Z</time>
      </trkpt>
      <trkpt lat="45.23001" lon="6.20163">
        <ele>2030.21</ele>
        <time>2018-09-09T09:13:15Z</time>
      </trkpt>
      <trkpt lat="45.22978" lon="6.20194">
        <ele>2033.21</ele>
        <time>2018-09-09T09:13:17Z</time>
      </trkpt>
      <trkpt lat="45.22955" lon="6.20218">
        <ele>2034.39</ele>
        <time>2018-09-09T09:13:19Z</time>
      </trkpt>
      <trkpt lat="45.22926" lon="6.20227">
        <ele>2037.23</ele>
        <time>2018-09-09T09:13:21Z</time>
      </trkpt>
      <trkpt lat="45.22896" lon="6.20231">
        <ele>2040.92</ele>
        <time>2018-09-09T09:13:23Z</time>
      </trkpt>
      <trkpt lat="45.22866" lon="6.20238">
        <ele>2043.28</ele>
        <time>2018-09-09T09:13:25Z</time>
      </trkpt>
      <trkpt lat="45.22837" lon="6.20246">
        <ele>2045.31</ele>
        <time>2018-09-09T09:13:27Z</time>
      </trkpt>
      <trkpt lat="45.22811" lon="6.20256">
        <ele>2048.22</ele>
        <time>2018-09-09T09:13:29Z</time>
      </trkpt>
      <trkpt lat="45.2279" lon="6.20266">
        <ele>2050.3</ele>
        <time>2018-09-09T09:13:31Z</time>
      </trkpt>
      <trkpt lat="45.22774" lon="6.20278">
        <ele>2052.31</ele>
        <time>2018-09-09T09:13:33Z</time>
      </trkpt>
      <trkpt lat="45.22757" lon="6.20299">
        <ele>2056.5</ele>
        <time>2018-09-09T09:13:36Z</time>
      </trkpt>
      <trkpt lat="45.22749" lon="6.20322">
        <ele>2056.94</ele>
        <time>2018-09-09T09:13:39Z</time>
      </trkpt>
      <trkpt lat="45.22746" lon="6.20349">
        <ele>2059.75</ele>
        <time>2018-09-09T09:16:33Z</time>
      </trkpt>
      <trkpt lat="45.22747" lon="6.20383">
        <ele>2057.86</ele>
        <time>2018-09-09T09:16:37Z</time>
      </trkpt>
      <trkpt lat="45.2275" lon="6.20417">
        <ele>2057.53</ele>
        <time>2018-09-09T09:16:40Z</time>
      </trkpt>
      <trkpt lat="45.22759" lon="6.20439">
        <ele>2056.32</ele>
        <time>2018-09-09T09:16:42Z</time>
      </trkpt>
      <trkpt lat="45.22783" lon="6.20458">
        <ele>2053.17</ele>
        <time>2018-09-09T09:16:45Z</time>
      </trkpt>
      <trkpt lat="45.22802" lon="6.20461">
        <ele>2052.08</ele>
        <time>2018-09-09T09:16:47Z</time>
      </trkpt>
      <trkpt lat="45.22822" lon="6.20462">
        <ele>2049.46</ele>
        <time>2018-09-09T09:16:49Z</time>
      </trkpt>
      <trkpt lat="45.2284" lon="6.20477">
        <ele>2047.9</ele>
        <time>2018-09-09T09:16:51Z</time>
      </trkpt>
      <trkpt lat="45.22855" lon="6.20502">
        <ele>2047.05</ele>
        <time>2018-09-09T09:16:53Z</time>
      </trkpt>
      <trkpt lat="45.2287" lon="6.20531">
        <ele>2044.95</ele>
        <time>2018-09-09T09:16:55Z</time>
      </trkpt>
      <trkpt lat="45.22886" lon="6.20562">
        <ele>2042.94</ele>
        <time>2018-09-09T09:16:57Z</time>
      </trkpt>
      <trkpt lat="45.22903" lon="6.20595">
        <ele>2041.15</ele>
        <time>2018-09-09T09:16:59Z</time>
      </trkpt>
      <trkpt lat="45.22919" lon="6.20632">
        <ele>2040.08</ele>
        <time>2018-09-09T09:17:01Z</time>
      </trkpt>
      <trkpt lat="45.22933" lon="6.2067">
        <ele>2038.86</ele>
        <time>2018-09-09T09:17:03Z</time>
      </trkpt>
      <trkpt lat="45.22949" lon="6.20708">
        <ele>2037.84</ele>
        <time>2018-09-09T09:17:05Z</time>
      </trkpt>
      <trkpt lat="45.22968" lon="6.20743">
        <ele>2036.14</ele>
        <time>2018-09-09T09:17:07Z</time>
      </trkpt>
      <trkpt lat="45.22986" lon="6.20778">
        <ele>2033.68</ele>
        <time>2018-09-09T09:17:09Z</time>
      </trkpt>
      <trkpt lat="45.23004" lon="6.20813">
        <ele>2030.52</ele>
        <time>2018-09-09T09:17:11Z</time>
      </trkpt>
      <trkpt lat="45.23022" lon="6.20846">
        <ele>2026.8</ele>
        <time>2018-09-09T09:17:13Z</time>
      </trkpt>
      <trkpt lat="45.2304" lon="6.20877">
        <ele>2023.53</ele>
        <time>2018-09-09T09:17:15Z</time>
      </trkpt>
      <trkpt lat="45.23054" lon="6.20908">
        <ele>2020.5</ele>
        <time>2018-09-09T09:17:17Z</time>
      </trkpt>
      <trkpt lat="45.23063" lon="6.20938">
        <ele>2017.29</ele>
        <time>2018-09-09T09:17:19Z</time>
      </trkpt>
      <trkpt lat="45.23066" lon="6.20965">
        <ele>2014.27</ele>
        <time>2018-09-09T09:17:21Z</time>
      </trkpt>
      <trkpt lat="45.23068" lon="6.21002">
        <ele>2011.17</ele>
        <time>2018-09-09T09:17:24Z</time>
      </trkpt>
      <trkpt lat="45.2307" lon="6.21028">
        <ele>2009.17</ele>
        <time>2018-09-09T09:17:26Z</time>
      </trkpt>
      <trkpt lat="45.23071" lon="6.21057">
        <ele>2008.05</ele>
        <time>2018-09-09T09:17:29Z</time>
      </trkpt>
      <trkpt lat="45.23058" lon="6.21032">
        <ele>2003.08</ele>
        <time>2018-09-09T09:17:39Z</time>
      </trkpt>
      <trkpt lat="45.23053" lon="6.20998">
        <ele>1999.47</ele>
        <time>2018-09-09T09:17:42Z</time>
      </trkpt>
      <trkpt lat="45.23041" lon="6.20965">
        <ele>1996.24</ele>
        <time>2018-09-09T09:17:45Z</time>
      </trkpt>
      <trkpt lat="45.2302" lon="6.20949">
        <ele>1993.17</ele>
        <time>2018-09-09T09:17:48Z</time>
      </trkpt>
      <trkpt lat="45.22996" lon="6.20933">
        <ele>1991.14</ele>
        <time>2018-09-09T09:17:51Z</time>
      </trkpt>
      <trkpt lat="45.2298" lon="6.20923">
        <ele>1990.08</ele>
        <time>2018-09-09T09:17:53Z</time>
      </trkpt>
      <trkpt lat="45.22962" lon="6.20911">
        <ele>1988.16</ele>
        <time>2018-09-09T09:17:55Z</time>
      </trkpt>
      <trkpt lat="45.22943" lon="6.20899">
        <ele>1987.08</ele>
        <time>2018-09-09T09:17:57Z</time>
      </trkpt>
      <trkpt lat="45.22924" lon="6.20887">
        <ele>1985.16</ele>
        <time>2018-09-09T09:17:59Z</time>
      </trkpt>
      <trkpt lat="45.22908" lon="6.20875">
        <ele>1983.87</ele>
        <time>2018-09-09T09:18:01Z</time>
      </trkpt>
      <trkpt lat="45.22897" lon="6.20896">
        <ele>1981.84</ele>
        <time>2018-09-09T09:18:05Z</time>
      </trkpt>
      <trkpt lat="45.229" lon="6.20933">
        <ele>1980.13</ele>
        <time>2018-09-09T09:18:08Z</time>
      </trkpt>
      <trkpt lat="45.22898" lon="6.20964">
        <ele>1977.47</ele>
        <time>2018-09-09T09:18:10Z</time>
      </trkpt>
      <trkpt lat="45.22896" lon="6.20994">
        <ele>1976.11</ele>
        <time>2018-09-09T09:18:12Z</time>
      </trkpt>
      <trkpt lat="45.22895" lon="6.21031">
        <ele>1973.17</ele>
        <time>2018-09-09T09:18:15Z</time>
      </trkpt>
      <trkpt lat="45.22896" lon="6.21056">
        <ele>1972.74</ele>
        <time>2018-09-09T09:18:30Z</time>
      </trkpt>
      <trkpt lat="45.2289" lon="6.21088">
        <ele>1970.16</ele>
        <time>2018-09-09T09:18:42Z</time>
      </trkpt>
      <trkpt lat="45.22888" lon="6.21125">
        <ele>1968.14</ele>
        <time>2018-09-09T09:18:45Z</time>
      </trkpt>
      <trkpt lat="45.22895" lon="6.21154">
        <ele>1965.47</ele>
        <time>2018-09-09T09:18:47Z</time>
      </trkpt>
      <trkpt lat="45.22898" lon="6.21189">
        <ele>1963.9</ele>
        <time>2018-09-09T09:18:49Z</time>
      </trkpt>
      <trkpt lat="45.22897" lon="6.21223">
        <ele>1961.93</ele>
        <time>2018-09-09T09:18:51Z</time>
      </trkpt>
      <trkpt lat="45.22891" lon="6.21257">
        <ele>1960.15</ele>
        <time>2018-09-09T09:18:53Z</time>
      </trkpt>
      <trkpt lat="45.22878" lon="6.21286">
        <ele>1957.47</ele>
        <time>2018-09-09T09:18:55Z</time>
      </trkpt>
      <trkpt lat="45.22864" lon="6.21312">
        <ele>1954.29</ele>
        <time>2018-09-09T09:18:57Z</time>
      </trkpt>
      <trkpt lat="45.22857" lon="6.21339">
        <ele>1952.18</ele>
        <time>2018-09-09T09:18:59Z</time>
      </trkpt>
      <trkpt lat="45.22872" lon="6.21366">
        <ele>1949.17</ele>
        <time>2018-09-09T09:19:02Z</time>
      </trkpt>
      <trkpt lat="45.22894" lon="6.21382">
        <ele>1947.17</ele>
        <time>2018-09-09T09:19:04Z</time>
      </trkpt>
      <trkpt lat="45.22912" lon="6.21407">
        <ele>1943.56</ele>
        <time>2018-09-09T09:19:06Z</time>
      </trkpt>
      <trkpt lat="45.22917" lon="6.21444">
        <ele>1941.2</ele>
        <time>2018-09-09T09:19:08Z</time>
      </trkpt>
      <trkpt lat="45.22921" lon="6.21475">
        <ele>1939.38</ele>
        <time>2018-09-09T09:19:10Z</time>
      </trkpt>
      <trkpt lat="45.22936" lon="6.21495">
        <ele>1936.28</ele>
        <time>2018-09-09T09:19:12Z</time>
      </trkpt>
      <trkpt lat="45.22961" lon="6.21506">
        <ele>1934.18</ele>
        <time>2018-09-09T09:19:14Z</time>
      </trkpt>
      <trkpt lat="45.2299" lon="6.21514">
        <ele>1931.26</ele>
        <time>2018-09-09T09:19:16Z</time>
      </trkpt>
      <trkpt lat="45.23019" lon="6.21526">
        <ele>1928.27</ele>
        <time>2018-09-09T09:19:18Z</time>
      </trkpt>
      <trkpt lat="45.23045" lon="6.21546">
        <ele>1926.18</ele>
        <time>2018-09-09T09:19:20Z</time>
      </trkpt>
      <trkpt lat="45.23067" lon="6.21574">
        <ele>1924.17</ele>
        <time>2018-09-09T09:19:22Z</time>
      </trkpt>
      <trkpt lat="45.23084" lon="6.21606">
        <ele>1921.47</ele>
        <time>2018-09-09T09:19:24Z</time>
      </trkpt>
      <trkpt lat="45.23102" lon="6.21644">
        <ele>1919.9</ele>
        <time>2018-09-09T09:19:26Z</time>
      </trkpt>
      <trkpt lat="45.23107" lon="6.21674">
        <ele>1917.16</ele>
        <time>2018-09-09T09:19:29Z</time>
      </trkpt>
      <trkpt lat="45.23087" lon="6.21649">
        <ele>1916.76</ele>
        <time>2018-09-09T09:19:33Z</time>
      </trkpt>
      <trkpt lat="45.23069" lon="6.21625">
        <ele>1914.22</ele>
        <time>2018-09-09T09:19:35Z</time>
      </trkpt>
      <trkpt lat="45.23042" lon="6.21609">
        <ele>1911.26</ele>
        <time>2018-09-09T09:19:37Z</time>
      </trkpt>
      <trkpt lat="45.23013" lon="6.21605">
        <ele>1909.18</ele>
        <time>2018-09-09T09:19:39Z</time>
      </trkpt>
      <trkpt lat="45.22986" lon="6.21603">
        <ele>1907.17</ele>
        <time>2018-09-09T09:19:41Z</time>
      </trkpt>
      <trkpt lat="45.22963" lon="6.21602">
        <ele>1905.17</ele>
        <time>2018-09-09T09:19:43Z</time>
      </trkpt>
      <trkpt lat="45.22942" lon="6.21599">
        <ele>1904.78</ele>
        <time>2018-09-09T09:19:45Z</time>
      </trkpt>
      <trkpt lat="45.22921" lon="6.21588">
        <ele>1902.8</ele>
        <time>2018-09-09T09:19:48Z</time>
      </trkpt>
      <trkpt lat="45.22906" lon="6.2157">
        <ele>1899.04</ele>
        <time>2018-09-09T09:20:08Z</time>
      </trkpt>
      <trkpt lat="45.22891" lon="6.21554">
        <ele>1897.16</ele>
        <time>2018-09-09T09:20:10Z</time>
      </trkpt>
      <trkpt lat="45.2287" lon="6.21538">
        <ele>1895.17</ele>
        <time>2018-09-09T09:20:12Z</time>
      </trkpt>
      <trkpt lat="45.22845" lon="6.21525">
        <ele>1892.47</ele>
        <time>2018-09-09T09:20:14Z</time>
      </trkpt>
      <trkpt lat="45.2282" lon="6.21514">
        <ele>1889.29</ele>
        <time>2018-09-09T09:20:16Z</time>
      </trkpt>
      <trkpt lat="45.22795" lon="6.215">
        <ele>1887.39</ele>
        <time>2018-09-09T09:20:18Z</time>
      </trkpt>
      <trkpt lat="45.22775" lon="6.21478">
        <ele>1885.19</ele>
        <time>2018-09-09T09:20:20Z</time>
      </trkpt>
      <trkpt lat="45.22759" lon="6.21444">
        <ele>1883.17</ele>
        <time>2018-09-09T09:20:22Z</time>
      </trkpt>
      <trkpt lat="45.22746" lon="6.21401">
        <ele>1878.86</ele>
        <time>2018-09-09T09:20:24Z</time>
      </trkpt>
      <trkpt lat="45.22731" lon="6.21361">
        <ele>1875.53</ele>
        <time>2018-09-09T09:20:26Z</time>
      </trkpt>
      <trkpt lat="45.22706" lon="6.21331">
        <ele>1871.59</ele>
        <time>2018-09-09T09:20:28Z</time>
      </trkpt>
      <trkpt lat="45.22673" lon="6.21311">
        <ele>1867.6</ele>
        <time>2018-09-09T09:20:30Z</time>
      </trkpt>
      <trkpt lat="45.22641" lon="6.21294">
        <ele>1864.3</ele>
        <time>2018-09-09T09:20:32Z</time>
      </trkpt>
      <trkpt lat="45.22614" lon="6.21271">
        <ele>1862.18</ele>
        <time>2018-09-09T09:20:34Z</time>
      </trkpt>
      <trkpt lat="45.22598" lon="6.21253">
        <ele>1859.26</ele>
        <time>2018-09-09T09:20:36Z</time>
      </trkpt>
      <trkpt lat="45.2258" lon="6.21255">
        <ele>1857.84</ele>
        <time>2018-09-09T09:20:39Z</time>
      </trkpt>
      <trkpt lat="45.22598" lon="6.21278">
        <ele>1857.04</ele>
        <time>2018-09-09T09:20:42Z</time>
      </trkpt>
      <trkpt lat="45.22618" lon="6.21299">
        <ele>1855.16</ele>
        <time>2018-09-09T09:20:44Z</time>
      </trkpt>
      <trkpt lat="45.2264" lon="6.21329">
        <ele>1853.17</ele>
        <time>2018-09-09T09:20:46Z</time>
      </trkpt>
      <trkpt lat="45.22664" lon="6.2136">
        <ele>1849.77</ele>
        <time>2018-09-09T09:20:48Z</time>
      </trkpt>
      <trkpt lat="45.22685" lon="6.21397">
        <ele>1846.52</ele>
        <time>2018-09-09T09:20:50Z</time>
      </trkpt>
      <trkpt lat="45.22705" lon="6.21438">
        <ele>1843.5</ele>
        <time>2018-09-09T09:20:52Z</time>
      </trkpt>
      <trkpt lat="45.22724" lon="6.21477">
        <ele>1838.89</ele>
        <time>2018-09-09T09:20:54Z</time>
      </trkpt>
      <trkpt lat="45.22742" lon="6.21516">
        <ele>1837.14</ele>
        <time>2018-09-09T09:20:56Z</time>
      </trkpt>
      <trkpt lat="45.22759" lon="6.21556">
        <ele>1836.08</ele>
        <time>2018-09-09T09:20:58Z</time>
      </trkpt>
      <trkpt lat="45.22772" lon="6.21596">
        <ele>1832.76</ele>
        <time>2018-09-09T09:21:00Z</time>
      </trkpt>
      <trkpt lat="45.22785" lon="6.21635">
        <ele>1829.52</ele>
        <time>2018-09-09T09:21:02Z</time>
      </trkpt>
      <trkpt lat="45.22795" lon="6.21663">
        <ele>1828.11</ele>
        <time>2018-09-09T09:21:04Z</time>
      </trkpt>
      <trkpt lat="45.22797" lon="6.21693">
        <ele>1826.78</ele>
        <time>2018-09-09T09:21:07Z</time>
      </trkpt>
      <trkpt lat="45.22776" lon="6.21646">
        <ele>1826.04</ele>
        <time>2018-09-09T09:21:11Z</time>
      </trkpt>
      <trkpt lat="45.22764" lon="6.21611">
        <ele>1823.46</ele>
        <time>2018-09-09T09:21:13Z</time>
      </trkpt>
      <trkpt lat="45.22749" lon="6.21575">
        <ele>1819.59</ele>
        <time>2018-09-09T09:21:15Z</time>
      </trkpt>
      <trkpt lat="45.22726" lon="6.21541">
        <ele>1817.42</ele>
        <time>2018-09-09T09:21:17Z</time>
      </trkpt>
      <trkpt lat="45.22697" lon="6.21508">
        <ele>1814.28</ele>
        <time>2018-09-09T09:21:19Z</time>
      </trkpt>
      <trkpt lat="45.22682" lon="6.21494">
        <ele>1812.5</ele>
        <time>2018-09-09T09:21:20Z</time>
      </trkpt>
      <trkpt lat="45.22654" lon="6.21464">
        <ele>1808.8</ele>
        <time>2018-09-09T09:21:22Z</time>
      </trkpt>
      <trkpt lat="45.22639" lon="6.2145">
        <ele>1807.36</ele>
        <time>2018-09-09T09:21:23Z</time>
      </trkpt>
      <trkpt lat="45.22607" lon="6.21429">
        <ele>1805.4</ele>
        <time>2018-09-09T09:21:25Z</time>
      </trkpt>
      <trkpt lat="45.22591" lon="6.21416">
        <ele>1803.54</ele>
        <time>2018-09-09T09:21:26Z</time>
      </trkpt>
      <trkpt lat="45.22576" lon="6.21403">
        <ele>1801.58</ele>
        <time>2018-09-09T09:21:27Z</time>
      </trkpt>
      <trkpt lat="45.22544" lon="6.21386">
        <ele>1799.21</ele>
        <time>2018-09-09T09:21:29Z</time>
      </trkpt>
      <trkpt lat="45.22514" lon="6.21366">
        <ele>1796.26</ele>
        <time>2018-09-09T09:21:31Z</time>
      </trkpt>
      <trkpt lat="45.22486" lon="6.21339">
        <ele>1794.18</ele>
        <time>2018-09-09T09:21:33Z</time>
      </trkpt>
      <trkpt lat="45.22458" lon="6.21312">
        <ele>1791.96</ele>
        <time>2018-09-09T09:21:35Z</time>
      </trkpt>
      <trkpt lat="45.22431" lon="6.21281">
        <ele>1789.45</ele>
        <time>2018-09-09T09:21:37Z</time>
      </trkpt>
      <trkpt lat="45.22418" lon="6.21262">
        <ele>1788.25</ele>
        <time>2018-09-09T09:21:38Z</time>
      </trkpt>
      <trkpt lat="45.22394" lon="6.21226">
        <ele>1785.48</ele>
        <time>2018-09-09T09:21:40Z</time>
      </trkpt>
      <trkpt lat="45.2238" lon="6.2121">
        <ele>1783.56</ele>
        <time>2018-09-09T09:21:41Z</time>
      </trkpt>
      <trkpt lat="45.22364" lon="6.21197">
        <ele>1781.59</ele>
        <time>2018-09-09T09:21:42Z</time>
      </trkpt>
      <trkpt lat="45.22347" lon="6.21185">
        <ele>1779.59</ele>
        <time>2018-09-09T09:21:43Z</time>
      </trkpt>
      <trkpt lat="45.22329" lon="6.21177">
        <ele>1777.6</ele>
        <time>2018-09-09T09:21:44Z</time>
      </trkpt>
      <trkpt lat="45.2231" lon="6.21171">
        <ele>1776.3</ele>
        <time>2018-09-09T09:21:45Z</time>
      </trkpt>
      <trkpt lat="45.22291" lon="6.21167">
        <ele>1774.51</ele>
        <time>2018-09-09T09:21:46Z</time>
      </trkpt>
      <trkpt lat="45.22271" lon="6.21167">
        <ele>1773.27</ele>
        <time>2018-09-09T09:21:47Z</time>
      </trkpt>
      <trkpt lat="45.22253" lon="6.21169">
        <ele>1772.2</ele>
        <time>2018-09-09T09:21:48Z</time>
      </trkpt>
      <trkpt lat="45.22234" lon="6.21173">
        <ele>1770.48</ele>
        <time>2018-09-09T09:21:49Z</time>
      </trkpt>
      <trkpt lat="45.22215" lon="6.21179">
        <ele>1769.26</ele>
        <time>2018-09-09T09:21:50Z</time>
      </trkpt>
      <trkpt lat="45.22196" lon="6.21187">
        <ele>1768.2</ele>
        <time>2018-09-09T09:21:51Z</time>
      </trkpt>
      <trkpt lat="45.22177" lon="6.21198">
        <ele>1766.48</ele>
        <time>2018-09-09T09:21:52Z</time>
      </trkpt>
      <trkpt lat="45.2216" lon="6.21209">
        <ele>1765.26</ele>
        <time>2018-09-09T09:21:53Z</time>
      </trkpt>
      <trkpt lat="45.22133" lon="6.21227">
        <ele>1762.27</ele>
        <time>2018-09-09T09:21:55Z</time>
      </trkpt>
      <trkpt lat="45.22124" lon="6.2125">
        <ele>1760.99</ele>
        <time>2018-09-09T09:21:58Z</time>
      </trkpt>
      <trkpt lat="45.22144" lon="6.21242">
        <ele>1760.76</ele>
        <time>2018-09-09T09:22:00Z</time>
      </trkpt>
      <trkpt lat="45.22173" lon="6.21235">
        <ele>1758.22</ele>
        <time>2018-09-09T09:22:02Z</time>
      </trkpt>
      <trkpt lat="45.22208" lon="6.21245">
        <ele>1755.26</ele>
        <time>2018-09-09T09:22:04Z</time>
      </trkpt>
      <trkpt lat="45.22226" lon="6.21255">
        <ele>1753.5</ele>
        <time>2018-09-09T09:22:05Z</time>
      </trkpt>
      <trkpt lat="45.22243" lon="6.21266">
        <ele>1751.57</ele>
        <time>2018-09-09T09:22:06Z</time>
      </trkpt>
      <trkpt lat="45.22261" lon="6.2128">
        <ele>1750.29</ele>
        <time>2018-09-09T09:22:07Z</time>
      </trkpt>
      <trkpt lat="45.22278" lon="6.21296">
        <ele>1749.21</ele>
        <time>2018-09-09T09:22:08Z</time>
      </trkpt>
      <trkpt lat="45.22295" lon="6.21312">
        <ele>1748.88</ele>
        <time>2018-09-09T09:22:09Z</time>
      </trkpt>
      <trkpt lat="45.22311" lon="6.21329">
        <ele>1748.78</ele>
        <time>2018-09-09T09:22:10Z</time>
      </trkpt>
      <trkpt lat="45.22326" lon="6.21345">
        <ele>1747.35</ele>
        <time>2018-09-09T09:22:11Z</time>
      </trkpt>
      <trkpt lat="45.22341" lon="6.21362">
        <ele>1746.22</ele>
        <time>2018-09-09T09:22:12Z</time>
      </trkpt>
      <trkpt lat="45.22354" lon="6.21381">
        <ele>1744.49</ele>
        <time>2018-09-09T09:22:13Z</time>
      </trkpt>
      <trkpt lat="45.22368" lon="6.214">
        <ele>1741.86</ele>
        <time>2018-09-09T09:22:14Z</time>
      </trkpt>
      <trkpt lat="45.2238" lon="6.21419">
        <ele>1739.68</ele>
        <time>2018-09-09T09:22:15Z</time>
      </trkpt>
      <trkpt lat="45.22399" lon="6.21458">
        <ele>1735.4</ele>
        <time>2018-09-09T09:22:17Z</time>
      </trkpt>
      <trkpt lat="45.22405" lon="6.21498">
        <ele>1731.37</ele>
        <time>2018-09-09T09:22:19Z</time>
      </trkpt>
      <trkpt lat="45.22409" lon="6.21531">
        <ele>1728.49</ele>
        <time>2018-09-09T09:22:21Z</time>
      </trkpt>
      <trkpt lat="45.22424" lon="6.21558">
        <ele>1724.59</ele>
        <time>2018-09-09T09:22:23Z</time>
      </trkpt>
      <trkpt lat="45.22446" lon="6.2159">
        <ele>1721.3</ele>
        <time>2018-09-09T09:22:25Z</time>
      </trkpt>
      <trkpt lat="45.22469" lon="6.21626">
        <ele>1719.18</ele>
        <time>2018-09-09T09:22:27Z</time>
      </trkpt>
      <trkpt lat="45.22492" lon="6.2166">
        <ele>1716.96</ele>
        <time>2018-09-09T09:22:29Z</time>
      </trkpt>
      <trkpt lat="45.22512" lon="6.2169">
        <ele>1716.06</ele>
        <time>2018-09-09T09:22:31Z</time>
      </trkpt>
      <trkpt lat="45.22522" lon="6.2172">
        <ele>1712.89</ele>
        <time>2018-09-09T09:22:34Z</time>
      </trkpt>
      <trkpt lat="45.22491" lon="6.21702">
        <ele>1709.86</ele>
        <time>2018-09-09T09:22:39Z</time>
      </trkpt>
      <trkpt lat="45.22463" lon="6.21682">
        <ele>1706.74</ele>
        <time>2018-09-09T09:22:41Z</time>
      </trkpt>
      <trkpt lat="45.22434" lon="6.21663">
        <ele>1702.4</ele>
        <time>2018-09-09T09:22:43Z</time>
      </trkpt>
      <trkpt lat="45.22405" lon="6.21644">
        <ele>1699.28</ele>
        <time>2018-09-09T09:22:45Z</time>
      </trkpt>
      <trkpt lat="45.22376" lon="6.21627">
        <ele>1697.18</ele>
        <time>2018-09-09T09:22:47Z</time>
      </trkpt>
      <trkpt lat="45.2235" lon="6.21615">
        <ele>1694.26</ele>
        <time>2018-09-09T09:22:49Z</time>
      </trkpt>
      <trkpt lat="45.22328" lon="6.21613">
        <ele>1692.88</ele>
        <time>2018-09-09T09:22:51Z</time>
      </trkpt>
      <trkpt lat="45.2231" lon="6.216">
        <ele>1691.84</ele>
        <time>2018-09-09T09:22:53Z</time>
      </trkpt>
      <trkpt lat="45.2229" lon="6.21589">
        <ele>1689.23</ele>
        <time>2018-09-09T09:22:55Z</time>
      </trkpt>
      <trkpt lat="45.22266" lon="6.21593">
        <ele>1687.18</ele>
        <time>2018-09-09T09:22:57Z</time>
      </trkpt>
      <trkpt lat="45.22241" lon="6.21614">
        <ele>1684.26</ele>
        <time>2018-09-09T09:22:59Z</time>
      </trkpt>
      <trkpt lat="45.22212" lon="6.21637">
        <ele>1679.66</ele>
        <time>2018-09-09T09:23:01Z</time>
      </trkpt>
      <trkpt lat="45.22181" lon="6.21657">
        <ele>1674.69</ele>
        <time>2018-09-09T09:23:03Z</time>
      </trkpt>
      <trkpt lat="45.2215" lon="6.21673">
        <ele>1671.31</ele>
        <time>2018-09-09T09:23:05Z</time>
      </trkpt>
      <trkpt lat="45.22122" lon="6.21695">
        <ele>1666.66</ele>
        <time>2018-09-09T09:23:07Z</time>
      </trkpt>
      <trkpt lat="45.22101" lon="6.21722">
        <ele>1663.72</ele>
        <time>2018-09-09T09:23:09Z</time>
      </trkpt>
      <trkpt lat="45.22078" lon="6.21733">
        <ele>1659.82</ele>
        <time>2018-09-09T09:23:11Z</time>
      </trkpt>
      <trkpt lat="45.22051" lon="6.21728">
        <ele>1656.53</ele>
        <time>2018-09-09T09:23:13Z</time>
      </trkpt>
      <trkpt lat="45.22023" lon="6.21715">
        <ele>1651.68</ele>
        <time>2018-09-09T09:23:15Z</time>
      </trkpt>
      <trkpt lat="45.21995" lon="6.2171">
        <ele>1649.22</ele>
        <time>2018-09-09T09:23:17Z</time>
      </trkpt>
      <trkpt lat="45.21971" lon="6.21715">
        <ele>1647.08</ele>
        <time>2018-09-09T09:23:20Z</time>
      </trkpt>
      <trkpt lat="45.21997" lon="6.2174">
        <ele>1643.36</ele>
        <time>2018-09-09T09:23:24Z</time>
      </trkpt>
      <trkpt lat="45.22019" lon="6.21753">
        <ele>1640.98</ele>
        <time>2018-09-09T09:23:26Z</time>
      </trkpt>
      <trkpt lat="45.22031" lon="6.21775">
        <ele>1636.63</ele>
        <time>2018-09-09T09:23:28Z</time>
      </trkpt>
      <trkpt lat="45.22039" lon="6.21807">
        <ele>1633.3</ele>
        <time>2018-09-09T09:23:30Z</time>
      </trkpt>
      <trkpt lat="45.22047" lon="6.21837">
        <ele>1631.88</ele>
        <time>2018-09-09T09:23:32Z</time>
      </trkpt>
      <trkpt lat="45.22054" lon="6.21867">
        <ele>1630.14</ele>
        <time>2018-09-09T09:23:34Z</time>
      </trkpt>
      <trkpt lat="45.22062" lon="6.21895">
        <ele>1627.96</ele>
        <time>2018-09-09T09:23:36Z</time>
      </trkpt>
      <trkpt lat="45.22068" lon="6.21926">
        <ele>1625.94</ele>
        <time>2018-09-09T09:23:38Z</time>
      </trkpt>
      <trkpt lat="45.22073" lon="6.21955">
        <ele>1624.15</ele>
        <time>2018-09-09T09:23:40Z</time>
      </trkpt>
      <trkpt lat="45.22081" lon="6.21984">
        <ele>1621.47</ele>
        <time>2018-09-09T09:23:42Z</time>
      </trkpt>
      <trkpt lat="45.22094" lon="6.22008">
        <ele>1618.29</ele>
        <time>2018-09-09T09:23:44Z</time>
      </trkpt>
      <trkpt lat="45.22113" lon="6.22024">
        <ele>1616.18</ele>
        <time>2018-09-09T09:23:46Z</time>
      </trkpt>
      <trkpt lat="45.22132" lon="6.22036">
        <ele>1614.38</ele>
        <time>2018-09-09T09:23:48Z</time>
      </trkpt>
      <trkpt lat="45.22144" lon="6.2206">
        <ele>1610.58</ele>
        <time>2018-09-09T09:23:50Z</time>
      </trkpt>
      <trkpt lat="45.22142" lon="6.22091">
        <ele>1608.21</ele>
        <time>2018-09-09T09:23:52Z</time>
      </trkpt>
      <trkpt lat="45.22147" lon="6.22123">
        <ele>1605.47</ele>
        <time>2018-09-09T09:23:54Z</time>
      </trkpt>
      <trkpt lat="45.22159" lon="6.2215">
        <ele>1603.2</ele>
        <time>2018-09-09T09:23:56Z</time>
      </trkpt>
      <trkpt lat="45.22172" lon="6.22176">
        <ele>1600.26</ele>
        <time>2018-09-09T09:23:58Z</time>
      </trkpt>
      <trkpt lat="45.22186" lon="6.22201">
        <ele>1597.97</ele>
        <time>2018-09-09T09:24:00Z</time>
      </trkpt>
      <trkpt lat="45.22198" lon="6.22225">
        <ele>1595.45</ele>
        <time>2018-09-09T09:24:02Z</time>
      </trkpt>
      <trkpt lat="45.22206" lon="6.22254">
        <ele>1594.8</ele>
        <time>2018-09-09T09:24:04Z</time>
      </trkpt>
      <trkpt lat="45.22209" lon="6.22285">
        <ele>1592.23</ele>
        <time>2018-09-09T09:24:06Z</time>
      </trkpt>
      <trkpt lat="45.22211" lon="6.22316">
        <ele>1590.38</ele>
        <time>2018-09-09T09:24:08Z</time>
      </trkpt>
      <trkpt lat="45.22212" lon="6.22347">
        <ele>1589.1</ele>
        <time>2018-09-09T09:24:10Z</time>
      </trkpt>
      <trkpt lat="45.2221" lon="6.22373">
        <ele>1587.16</ele>
        <time>2018-09-09T09:24:12Z</time>
      </trkpt>
      <trkpt lat="45.22194" lon="6.22343">
        <ele>1587.03</ele>
        <time>2018-09-09T09:24:18Z</time>
      </trkpt>
      <trkpt lat="45.22192" lon="6.2231">
        <ele>1585.16</ele>
        <time>2018-09-09T09:24:20Z</time>
      </trkpt>
      <trkpt lat="45.22181" lon="6.22287">
        <ele>1583.17</ele>
        <time>2018-09-09T09:24:22Z</time>
      </trkpt>
      <trkpt lat="45.2216" lon="6.22279">
        <ele>1583.48</ele>
        <time>2018-09-09T09:24:24Z</time>
      </trkpt>
      <trkpt lat="45.22137" lon="6.22284">
        <ele>1583.72</ele>
        <time>2018-09-09T09:24:26Z</time>
      </trkpt>
      <trkpt lat="45.22115" lon="6.22298">
        <ele>1580.31</ele>
        <time>2018-09-09T09:24:28Z</time>
      </trkpt>
      <trkpt lat="45.22094" lon="6.22313">
        <ele>1579.09</ele>
        <time>2018-09-09T09:24:30Z</time>
      </trkpt>
      <trkpt lat="45.22075" lon="6.22326">
        <ele>1577.16</ele>
        <time>2018-09-09T09:24:32Z</time>
      </trkpt>
      <trkpt lat="45.22055" lon="6.22332">
        <ele>1574.47</ele>
        <time>2018-09-09T09:24:34Z</time>
      </trkpt>
      <trkpt lat="45.22037" lon="6.22333">
        <ele>1571.29</ele>
        <time>2018-09-09T09:24:36Z</time>
      </trkpt>
      <trkpt lat="45.2202" lon="6.22346">
        <ele>1569.78</ele>
        <time>2018-09-09T09:24:39Z</time>
      </trkpt>
      <trkpt lat="45.22027" lon="6.22374">
        <ele>1568.13</ele>
        <time>2018-09-09T09:24:42Z</time>
      </trkpt>
      <trkpt lat="45.22064" lon="6.22386">
        <ele>1567.78</ele>
        <time>2018-09-09T09:24:44Z</time>
      </trkpt>
      <trkpt lat="45.22088" lon="6.22398">
        <ele>1564.03</ele>
        <time>2018-09-09T09:24:46Z</time>
      </trkpt>
      <trkpt lat="45.22107" lon="6.22412">
        <ele>1561.46</ele>
        <time>2018-09-09T09:24:48Z</time>
      </trkpt>
      <trkpt lat="45.22112" lon="6.22448">
        <ele>1554.89</ele>
        <time>2018-09-09T09:24:51Z</time>
      </trkpt>
      <trkpt lat="45.22108" lon="6.22479">
        <ele>1552.23</ele>
        <time>2018-09-09T09:24:53Z</time>
      </trkpt>
      <trkpt lat="45.22104" lon="6.22515">
        <ele>1549.27</ele>
        <time>2018-09-09T09:24:55Z</time>
      </trkpt>
      <trkpt lat="45.22102" lon="6.22551">
        <ele>1547.18</ele>
        <time>2018-09-09T09:24:57Z</time>
      </trkpt>
      <trkpt lat="45.22103" lon="6.22584">
        <ele>1545.87</ele>
        <time>2018-09-09T09:24:59Z</time>
      </trkpt>
      <trkpt lat="45.22104" lon="6.22618">
        <ele>1544.14</ele>
        <time>2018-09-09T09:25:01Z</time>
      </trkpt>
      <trkpt lat="45.22109" lon="6.2265">
        <ele>1541.47</ele>
        <time>2018-09-09T09:25:03Z</time>
      </trkpt>
      <trkpt lat="45.22123" lon="6.22673">
        <ele>1539.2</ele>
        <time>2018-09-09T09:25:05Z</time>
      </trkpt>
      <trkpt lat="45.22134" lon="6.22695">
        <ele>1537.17</ele>
        <time>2018-09-09T09:25:07Z</time>
      </trkpt>
      <trkpt lat="45.22137" lon="6.22726">
        <ele>1535.17</ele>
        <time>2018-09-09T09:25:09Z</time>
      </trkpt>
      <trkpt lat="45.22139" lon="6.2276">
        <ele>1532.26</ele>
        <time>2018-09-09T09:25:11Z</time>
      </trkpt>
      <trkpt lat="45.2214" lon="6.22795">
        <ele>1529.27</ele>
        <time>2018-09-09T09:25:13Z</time>
      </trkpt>
      <trkpt lat="45.22141" lon="6.22831">
        <ele>1527.18</ele>
        <time>2018-09-09T09:25:15Z</time>
      </trkpt>
      <trkpt lat="45.22143" lon="6.22867">
        <ele>1525.17</ele>
        <time>2018-09-09T09:25:17Z</time>
      </trkpt>
      <trkpt lat="45.22143" lon="6.22901">
        <ele>1523.38</ele>
        <time>2018-09-09T09:25:19Z</time>
      </trkpt>
      <trkpt lat="45.22143" lon="6.22933">
        <ele>1521.19</ele>
        <time>2018-09-09T09:25:21Z</time>
      </trkpt>
      <trkpt lat="45.22141" lon="6.22964">
        <ele>1518.96</ele>
        <time>2018-09-09T09:25:23Z</time>
      </trkpt>
      <trkpt lat="45.22141" lon="6.22994">
        <ele>1517.15</ele>
        <time>2018-09-09T09:25:25Z</time>
      </trkpt>
      <trkpt lat="45.22141" lon="6.23023">
        <ele>1515.87</ele>
        <time>2018-09-09T09:25:27Z</time>
      </trkpt>
      <trkpt lat="45.22141" lon="6.23052">
        <ele>1514.14</ele>
        <time>2018-09-09T09:25:29Z</time>
      </trkpt>
      <trkpt lat="45.2214" lon="6.2308">
        <ele>1511.26</ele>
        <time>2018-09-09T09:25:31Z</time>
      </trkpt>
      <trkpt lat="45.22139" lon="6.23107">
        <ele>1510.79</ele>
        <time>2018-09-09T09:25:33Z</time>
      </trkpt>
      <trkpt lat="45.22138" lon="6.23134">
        <ele>1509.14</ele>
        <time>2018-09-09T09:25:35Z</time>
      </trkpt>
      <trkpt lat="45.22138" lon="6.23161">
        <ele>1508.08</ele>
        <time>2018-09-09T09:25:37Z</time>
      </trkpt>
      <trkpt lat="45.2214" lon="6.23187">
        <ele>1507.77</ele>
        <time>2018-09-09T09:25:39Z</time>
      </trkpt>
      <trkpt lat="45.22146" lon="6.23222">
        <ele>1506.83</ele>
        <time>2018-09-09T09:25:42Z</time>
      </trkpt>
      <trkpt lat="45.22152" lon="6.23249">
        <ele>1505.77</ele>
        <time>2018-09-09T09:25:45Z</time>
      </trkpt>
      <trkpt lat="45.22151" lon="6.23278">
        <ele>1504.84</ele>
        <time>2018-09-09T09:25:50Z</time>
      </trkpt>
      <trkpt lat="45.22144" lon="6.23306">
        <ele>1503.98</ele>
        <time>2018-09-09T09:25:54Z</time>
      </trkpt>
      <trkpt lat="45.22136" lon="6.23339">
        <ele>1504.02</ele>
        <time>2018-09-09T09:25:57Z</time>
      </trkpt>
      <trkpt lat="45.22127" lon="6.23362">
        <ele>1504.47</ele>
        <time>2018-09-09T09:25:59Z</time>
      </trkpt>
      <trkpt lat="45.2212" lon="6.23398">
        <ele>1504.73</ele>
        <time>2018-09-09T09:26:02Z</time>
      </trkpt>
      <trkpt lat="45.22112" lon="6.23434">
        <ele>1504.53</ele>
        <time>2018-09-09T09:26:05Z</time>
      </trkpt>
      <trkpt lat="45.22108" lon="6.2346">
        <ele>1504.02</ele>
        <time>2018-09-09T09:26:07Z</time>
      </trkpt>
      <trkpt lat="45.22105" lon="6.23487">
        <ele>1503.98</ele>
        <time>2018-09-09T09:26:09Z</time>
      </trkpt>
      <trkpt lat="45.22103" lon="6.23515">
        <ele>1504.46</ele>
        <time>2018-09-09T09:26:11Z</time>
      </trkpt>
      <trkpt lat="45.22102" lon="6.23542">
        <ele>1504.72</ele>
        <time>2018-09-09T09:26:13Z</time>
      </trkpt>
      <trkpt lat="45.22098" lon="6.23577">
        <ele>1504.74</ele>
        <time>2018-09-09T09:26:16Z</time>
      </trkpt>
      <trkpt lat="45.22092" lon="6.23613">
        <ele>1503.83</ele>
        <time>2018-09-09T09:26:19Z</time>
      </trkpt>
      <trkpt lat="45.22085" lon="6.23651">
        <ele>1502.77</ele>
        <time>2018-09-09T09:26:22Z</time>
      </trkpt>
      <trkpt lat="45.2208" lon="6.23678">
        <ele>1501.83</ele>
        <time>2018-09-09T09:26:24Z</time>
      </trkpt>
      <trkpt lat="45.22074" lon="6.23704">
        <ele>1500.84</ele>
        <time>2018-09-09T09:26:26Z</time>
      </trkpt>
      <trkpt lat="45.2206" lon="6.23735">
        <ele>1499.83</ele>
        <time>2018-09-09T09:26:29Z</time>
      </trkpt>
      <trkpt lat="45.22042" lon="6.23756">
        <ele>1499.74</ele>
        <time>2018-09-09T09:26:32Z</time>
      </trkpt>
      <trkpt lat="45.22027" lon="6.23778">
        <ele>1498.77</ele>
        <time>2018-09-09T09:26:35Z</time>
      </trkpt>
      <trkpt lat="45.22019" lon="6.23804">
        <ele>1498.53</ele>
        <time>2018-09-09T09:26:38Z</time>
      </trkpt>
      <trkpt lat="45.22018" lon="6.23841">
        <ele>1498.74</ele>
        <time>2018-09-09T09:26:41Z</time>
      </trkpt>
      <trkpt lat="45.22017" lon="6.2387">
        <ele>1498.04</ele>
        <time>2018-09-09T09:26:43Z</time>
      </trkpt>
      <trkpt lat="45.22015" lon="6.239">
        <ele>1497.77</ele>
        <time>2018-09-09T09:26:45Z</time>
      </trkpt>
      <trkpt lat="45.2201" lon="6.23929">
        <ele>1497.74</ele>
        <time>2018-09-09T09:26:47Z</time>
      </trkpt>
      <trkpt lat="45.22006" lon="6.23959">
        <ele>1496.83</ele>
        <time>2018-09-09T09:26:49Z</time>
      </trkpt>
      <trkpt lat="45.21995" lon="6.23985">
        <ele>1496.05</ele>
        <time>2018-09-09T09:26:51Z</time>
      </trkpt>
      <trkpt lat="45.21983" lon="6.2401">
        <ele>1494.86</ele>
        <time>2018-09-09T09:26:53Z</time>
      </trkpt>
      <trkpt lat="45.21971" lon="6.24037">
        <ele>1493.14</ele>
        <time>2018-09-09T09:26:55Z</time>
      </trkpt>
      <trkpt lat="45.21961" lon="6.24065">
        <ele>1492.08</ele>
        <time>2018-09-09T09:26:57Z</time>
      </trkpt>
      <trkpt lat="45.2195" lon="6.24096">
        <ele>1491.07</ele>
        <time>2018-09-09T09:26:59Z</time>
      </trkpt>
      <trkpt lat="45.21935" lon="6.24125">
        <ele>1489.86</ele>
        <time>2018-09-09T09:27:01Z</time>
      </trkpt>
      <trkpt lat="45.21913" lon="6.2415">
        <ele>1489.75</ele>
        <time>2018-09-09T09:27:03Z</time>
      </trkpt>
      <trkpt lat="45.21896" lon="6.24183">
        <ele>1487.43</ele>
        <time>2018-09-09T09:27:05Z</time>
      </trkpt>
      <trkpt lat="45.21882" lon="6.24222">
        <ele>1487.71</ele>
        <time>2018-09-09T09:27:07Z</time>
      </trkpt>
      <trkpt lat="45.21867" lon="6.24263">
        <ele>1487.04</ele>
        <time>2018-09-09T09:27:09Z</time>
      </trkpt>
      <trkpt lat="45.21852" lon="6.24304">
        <ele>1485.16</ele>
        <time>2018-09-09T09:27:11Z</time>
      </trkpt>
      <trkpt lat="45.21835" lon="6.24341">
        <ele>1484.78</ele>
        <time>2018-09-09T09:27:13Z</time>
      </trkpt>
      <trkpt lat="45.21815" lon="6.24369">
        <ele>1484.53</ele>
        <time>2018-09-09T09:27:15Z</time>
      </trkpt>
      <trkpt lat="45.21795" lon="6.24395">
        <ele>1483.81</ele>
        <time>2018-09-09T09:27:17Z</time>
      </trkpt>
      <trkpt lat="45.21779" lon="6.24426">
        <ele>1483.75</ele>
        <time>2018-09-09T09:27:19Z</time>
      </trkpt>
      <trkpt lat="45.21766" lon="6.24459">
        <ele>1483.04</ele>
        <time>2018-09-09T09:27:21Z</time>
      </trkpt>
      <trkpt lat="45.2176" lon="6.24493">
        <ele>1482.07</ele>
        <time>2018-09-09T09:27:23Z</time>
      </trkpt>
      <trkpt lat="45.21761" lon="6.24526">
        <ele>1481.77</ele>
        <time>2018-09-09T09:27:25Z</time>
      </trkpt>
      <trkpt lat="45.21762" lon="6.24561">
        <ele>1479.92</ele>
        <time>2018-09-09T09:27:27Z</time>
      </trkpt>
      <trkpt lat="45.21759" lon="6.24594">
        <ele>1479.76</ele>
        <time>2018-09-09T09:27:29Z</time>
      </trkpt>
      <trkpt lat="45.21741" lon="6.24619">
        <ele>1477.22</ele>
        <time>2018-09-09T09:27:31Z</time>
      </trkpt>
      <trkpt lat="45.21724" lon="6.24652">
        <ele>1476.08</ele>
        <time>2018-09-09T09:27:33Z</time>
      </trkpt>
      <trkpt lat="45.21705" lon="6.24687">
        <ele>1475.07</ele>
        <time>2018-09-09T09:27:35Z</time>
      </trkpt>
      <trkpt lat="45.21687" lon="6.24723">
        <ele>1473.16</ele>
        <time>2018-09-09T09:27:37Z</time>
      </trkpt>
      <trkpt lat="45.21668" lon="6.24758">
        <ele>1471.17</ele>
        <time>2018-09-09T09:27:39Z</time>
      </trkpt>
      <trkpt lat="45.21649" lon="6.24791">
        <ele>1470.57</ele>
        <time>2018-09-09T09:27:41Z</time>
      </trkpt>
      <trkpt lat="45.21626" lon="6.24817">
        <ele>1469.82</ele>
        <time>2018-09-09T09:27:43Z</time>
      </trkpt>
      <trkpt lat="45.21601" lon="6.24835">
        <ele>1469.75</ele>
        <time>2018-09-09T09:27:45Z</time>
      </trkpt>
      <trkpt lat="45.21576" lon="6.2485">
        <ele>1469.53</ele>
        <time>2018-09-09T09:27:47Z</time>
      </trkpt>
      <trkpt lat="45.21554" lon="6.24868">
        <ele>1468.81</ele>
        <time>2018-09-09T09:27:49Z</time>
      </trkpt>
      <trkpt lat="45.21534" lon="6.24894">
        <ele>1468.75</ele>
        <time>2018-09-09T09:27:51Z</time>
      </trkpt>
      <trkpt lat="45.21518" lon="6.24922">
        <ele>1467.13</ele>
        <time>2018-09-09T09:27:53Z</time>
      </trkpt>
      <trkpt lat="45.21508" lon="6.24952">
        <ele>1464.26</ele>
        <time>2018-09-09T09:27:55Z</time>
      </trkpt>
      <trkpt lat="45.21501" lon="6.24983">
        <ele>1463.09</ele>
        <time>2018-09-09T09:27:57Z</time>
      </trkpt>
      <trkpt lat="45.21499" lon="6.25019">
        <ele>1459.07</ele>
        <time>2018-09-09T09:27:59Z</time>
      </trkpt>
      <trkpt lat="45.21497" lon="6.25059">
        <ele>1456.89</ele>
        <time>2018-09-09T09:28:01Z</time>
      </trkpt>
      <trkpt lat="45.21496" lon="6.25103">
        <ele>1456.49</ele>
        <time>2018-09-09T09:28:03Z</time>
      </trkpt>
      <trkpt lat="45.21494" lon="6.25147">
        <ele>1454.14</ele>
        <time>2018-09-09T09:28:05Z</time>
      </trkpt>
      <trkpt lat="45.21487" lon="6.25187">
        <ele>1450.29</ele>
        <time>2018-09-09T09:28:07Z</time>
      </trkpt>
      <trkpt lat="45.21469" lon="6.25211">
        <ele>1447.91</ele>
        <time>2018-09-09T09:28:09Z</time>
      </trkpt>
      <trkpt lat="45.21444" lon="6.25219">
        <ele>1445.88</ele>
        <time>2018-09-09T09:28:11Z</time>
      </trkpt>
      <trkpt lat="45.21416" lon="6.25225">
        <ele>1445.48</ele>
        <time>2018-09-09T09:28:13Z</time>
      </trkpt>
      <trkpt lat="45.21387" lon="6.25232">
        <ele>1443.84</ele>
        <time>2018-09-09T09:28:15Z</time>
      </trkpt>
      <trkpt lat="45.21359" lon="6.25242">
        <ele>1442.78</ele>
        <time>2018-09-09T09:28:17Z</time>
      </trkpt>
      <trkpt lat="45.21332" lon="6.25252">
        <ele>1440.87</ele>
        <time>2018-09-09T09:28:19Z</time>
      </trkpt>
      <trkpt lat="45.21308" lon="6.25263">
        <ele>1438.87</ele>
        <time>2018-09-09T09:28:21Z</time>
      </trkpt>
      <trkpt lat="45.21289" lon="6.25287">
        <ele>1438.48</ele>
        <time>2018-09-09T09:28:23Z</time>
      </trkpt>
      <trkpt lat="45.21272" lon="6.25317">
        <ele>1436.63</ele>
        <time>2018-09-09T09:28:25Z</time>
      </trkpt>
      <trkpt lat="45.21255" lon="6.25348">
        <ele>1434.85</ele>
        <time>2018-09-09T09:28:27Z</time>
      </trkpt>
      <trkpt lat="45.21244" lon="6.25385">
        <ele>1432.87</ele>
        <time>2018-09-09T09:28:29Z</time>
      </trkpt>
      <trkpt lat="45.21235" lon="6.25427">
        <ele>1430.87</ele>
        <time>2018-09-09T09:28:31Z</time>
      </trkpt>
      <trkpt lat="45.2122" lon="6.25466">
        <ele>1427.96</ele>
        <time>2018-09-09T09:28:33Z</time>
      </trkpt>
      <trkpt lat="45.21203" lon="6.25503">
        <ele>1425.88</ele>
        <time>2018-09-09T09:28:35Z</time>
      </trkpt>
      <trkpt lat="45.21186" lon="6.25542">
        <ele>1422.96</ele>
        <time>2018-09-09T09:28:37Z</time>
      </trkpt>
      <trkpt lat="45.2117" lon="6.25581">
        <ele>1421.58</ele>
        <time>2018-09-09T09:28:39Z</time>
      </trkpt>
      <trkpt lat="45.21153" lon="6.2562">
        <ele>1420.76</ele>
        <time>2018-09-09T09:28:41Z</time>
      </trkpt>
      <trkpt lat="45.21137" lon="6.25658">
        <ele>1419.77</ele>
        <time>2018-09-09T09:28:43Z</time>
      </trkpt>
      <trkpt lat="45.21121" lon="6.25695">
        <ele>1419.47</ele>
        <time>2018-09-09T09:28:45Z</time>
      </trkpt>
      <trkpt lat="45.21103" lon="6.2573">
        <ele>1419.45</ele>
        <time>2018-09-09T09:28:47Z</time>
      </trkpt>
      <trkpt lat="45.21078" lon="6.25756">
        <ele>1418.54</ele>
        <time>2018-09-09T09:28:49Z</time>
      </trkpt>
      <trkpt lat="45.21049" lon="6.25773">
        <ele>1418.45</ele>
        <time>2018-09-09T09:28:51Z</time>
      </trkpt>
      <trkpt lat="45.2102" lon="6.25791">
        <ele>1417.54</ele>
        <time>2018-09-09T09:28:53Z</time>
      </trkpt>
      <trkpt lat="45.20996" lon="6.25819">
        <ele>1418.36</ele>
        <time>2018-09-09T09:28:55Z</time>
      </trkpt>
      <trkpt lat="45.20975" lon="6.25854">
        <ele>1417.74</ele>
        <time>2018-09-09T09:28:57Z</time>
      </trkpt>
      <trkpt lat="45.20956" lon="6.25889">
        <ele>1417.47</ele>
        <time>2018-09-09T09:28:59Z</time>
      </trkpt>
      <trkpt lat="45.2094" lon="6.25928">
        <ele>1418.36</ele>
        <time>2018-09-09T09:29:01Z</time>
      </trkpt>
      <trkpt lat="45.20925" lon="6.25968">
        <ele>1417.53</ele>
        <time>2018-09-09T09:29:03Z</time>
      </trkpt>
      <trkpt lat="45.2091" lon="6.26007">
        <ele>1417.45</ele>
        <time>2018-09-09T09:29:05Z</time>
      </trkpt>
      <trkpt lat="45.20896" lon="6.26048">
        <ele>1416.75</ele>
        <time>2018-09-09T09:29:07Z</time>
      </trkpt>
      <trkpt lat="45.20886" lon="6.2609">
        <ele>1415.56</ele>
        <time>2018-09-09T09:29:09Z</time>
      </trkpt>
      <trkpt lat="45.20875" lon="6.26133">
        <ele>1414.06</ele>
        <time>2018-09-09T09:29:11Z</time>
      </trkpt>
      <trkpt lat="45.20862" lon="6.26171">
        <ele>1412.1</ele>
        <time>2018-09-09T09:29:13Z</time>
      </trkpt>
      <trkpt lat="45.20841" lon="6.26207">
        <ele>1409.89</ele>
        <time>2018-09-09T09:29:15Z</time>
      </trkpt>
      <trkpt lat="45.20815" lon="6.26231">
        <ele>1408.79</ele>
        <time>2018-09-09T09:29:17Z</time>
      </trkpt>
      <trkpt lat="45.20788" lon="6.26255">
        <ele>1407.78</ele>
        <time>2018-09-09T09:29:19Z</time>
      </trkpt>
      <trkpt lat="45.20761" lon="6.2627">
        <ele>1406.56</ele>
        <time>2018-09-09T09:29:21Z</time>
      </trkpt>
      <trkpt lat="45.20736" lon="6.26281">
        <ele>1405.76</ele>
        <time>2018-09-09T09:29:23Z</time>
      </trkpt>
      <trkpt lat="45.20712" lon="6.26291">
        <ele>1404.77</ele>
        <time>2018-09-09T09:29:25Z</time>
      </trkpt>
      <trkpt lat="45.2069" lon="6.26302">
        <ele>1404.47</ele>
        <time>2018-09-09T09:29:27Z</time>
      </trkpt>
      <trkpt lat="45.20671" lon="6.26315">
        <ele>1404.24</ele>
        <time>2018-09-09T09:29:29Z</time>
      </trkpt>
      <trkpt lat="45.20652" lon="6.26335">
        <ele>1403.52</ele>
        <time>2018-09-09T09:29:31Z</time>
      </trkpt>
      <trkpt lat="45.20633" lon="6.26359">
        <ele>1402.75</ele>
        <time>2018-09-09T09:29:33Z</time>
      </trkpt>
      <trkpt lat="45.20616" lon="6.26382">
        <ele>1403.38</ele>
        <time>2018-09-09T09:29:35Z</time>
      </trkpt>
      <trkpt lat="45.20605" lon="6.26407">
        <ele>1402.53</ele>
        <time>2018-09-09T09:29:37Z</time>
      </trkpt>
      <trkpt lat="45.20596" lon="6.26434">
        <ele>1401.75</ele>
        <time>2018-09-09T09:29:39Z</time>
      </trkpt>
      <trkpt lat="45.20581" lon="6.26456">
        <ele>1399.86</ele>
        <time>2018-09-09T09:29:41Z</time>
      </trkpt>
      <trkpt lat="45.2056" lon="6.26475">
        <ele>1397.87</ele>
        <time>2018-09-09T09:29:43Z</time>
      </trkpt>
      <trkpt lat="45.20538" lon="6.26493">
        <ele>1397.48</ele>
        <time>2018-09-09T09:29:45Z</time>
      </trkpt>
      <trkpt lat="45.20517" lon="6.26511">
        <ele>1396.75</ele>
        <time>2018-09-09T09:29:47Z</time>
      </trkpt>
      <trkpt lat="45.20495" lon="6.26532">
        <ele>1397.17</ele>
        <time>2018-09-09T09:29:49Z</time>
      </trkpt>
      <trkpt lat="45.20473" lon="6.26553">
        <ele>1394.9</ele>
        <time>2018-09-09T09:29:51Z</time>
      </trkpt>
      <trkpt lat="45.20451" lon="6.26568">
        <ele>1393.58</ele>
        <time>2018-09-09T09:29:53Z</time>
      </trkpt>
      <trkpt lat="45.20429" lon="6.26574">
        <ele>1391.57</ele>
        <time>2018-09-09T09:29:56Z</time>
      </trkpt>
      <trkpt lat="45.20411" lon="6.26577">
        <ele>1391.35</ele>
        <time>2018-09-09T09:31:36Z</time>
      </trkpt>
      <trkpt lat="45.20392" lon="6.2659">
        <ele>1391.38</ele>
        <time>2018-09-09T09:31:39Z</time>
      </trkpt>
      <trkpt lat="45.20374" lon="6.2661">
        <ele>1389.56</ele>
        <time>2018-09-09T09:31:42Z</time>
      </trkpt>
      <trkpt lat="45.20355" lon="6.26635">
        <ele>1386.87</ele>
        <time>2018-09-09T09:31:45Z</time>
      </trkpt>
      <trkpt lat="45.20345" lon="6.26658">
        <ele>1385.57</ele>
        <time>2018-09-09T09:31:47Z</time>
      </trkpt>
      <trkpt lat="45.20335" lon="6.26688">
        <ele>1383.85</ele>
        <time>2018-09-09T09:31:49Z</time>
      </trkpt>
      <trkpt lat="45.20323" lon="6.26721">
        <ele>1382.78</ele>
        <time>2018-09-09T09:31:51Z</time>
      </trkpt>
      <trkpt lat="45.20308" lon="6.26751">
        <ele>1381.57</ele>
        <time>2018-09-09T09:31:53Z</time>
      </trkpt>
      <trkpt lat="45.2029" lon="6.26779">
        <ele>1378.94</ele>
        <time>2018-09-09T09:31:55Z</time>
      </trkpt>
      <trkpt lat="45.20271" lon="6.26804">
        <ele>1376.67</ele>
        <time>2018-09-09T09:31:57Z</time>
      </trkpt>
      <trkpt lat="45.20248" lon="6.26823">
        <ele>1375.56</ele>
        <time>2018-09-09T09:31:59Z</time>
      </trkpt>
      <trkpt lat="45.20229" lon="6.2685">
        <ele>1375.24</ele>
        <time>2018-09-09T09:32:01Z</time>
      </trkpt>
      <trkpt lat="45.2021" lon="6.26879">
        <ele>1373.82</ele>
        <time>2018-09-09T09:32:03Z</time>
      </trkpt>
      <trkpt lat="45.20189" lon="6.26904">
        <ele>1372.78</ele>
        <time>2018-09-09T09:32:05Z</time>
      </trkpt>
      <trkpt lat="45.20169" lon="6.26929">
        <ele>1370.86</ele>
        <time>2018-09-09T09:32:07Z</time>
      </trkpt>
      <trkpt lat="45.20157" lon="6.26967">
        <ele>1368.87</ele>
        <time>2018-09-09T09:32:09Z</time>
      </trkpt>
      <trkpt lat="45.20149" lon="6.27007">
        <ele>1365.96</ele>
        <time>2018-09-09T09:32:11Z</time>
      </trkpt>
      <trkpt lat="45.2014" lon="6.27045">
        <ele>1363.67</ele>
        <time>2018-09-09T09:32:13Z</time>
      </trkpt>
      <trkpt lat="45.20132" lon="6.2708">
        <ele>1361.86</ele>
        <time>2018-09-09T09:32:15Z</time>
      </trkpt>
      <trkpt lat="45.20125" lon="6.2711">
        <ele>1360.57</ele>
        <time>2018-09-09T09:32:17Z</time>
      </trkpt>
      <trkpt lat="45.2012" lon="6.27136">
        <ele>1358.54</ele>
        <time>2018-09-09T09:32:21Z</time>
      </trkpt>
      <trkpt lat="45.20117" lon="6.27166">
        <ele>1356.8</ele>
        <time>2018-09-09T09:34:29Z</time>
      </trkpt>
      <trkpt lat="45.20116" lon="6.27192">
        <ele>1356.48</ele>
        <time>2018-09-09T09:34:31Z</time>
      </trkpt>
      <trkpt lat="45.20111" lon="6.27221">
        <ele>1354.84</ele>
        <time>2018-09-09T09:34:33Z</time>
      </trkpt>
      <trkpt lat="45.201" lon="6.27248">
        <ele>1353.78</ele>
        <time>2018-09-09T09:34:35Z</time>
      </trkpt>
      <trkpt lat="45.20085" lon="6.27272">
        <ele>1352.57</ele>
        <time>2018-09-09T09:34:37Z</time>
      </trkpt>
      <trkpt lat="45.20075" lon="6.27297">
        <ele>1352.46</ele>
        <time>2018-09-09T09:34:39Z</time>
      </trkpt>
      <trkpt lat="45.20078" lon="6.27324">
        <ele>1351.75</ele>
        <time>2018-09-09T09:34:41Z</time>
      </trkpt>
      <trkpt lat="45.20092" lon="6.27346">
        <ele>1351.47</ele>
        <time>2018-09-09T09:34:43Z</time>
      </trkpt>
      <trkpt lat="45.20107" lon="6.2737">
        <ele>1351.45</ele>
        <time>2018-09-09T09:34:45Z</time>
      </trkpt>
      <trkpt lat="45.20116" lon="6.27399">
        <ele>1351.45</ele>
        <time>2018-09-09T09:34:47Z</time>
      </trkpt>
      <trkpt lat="45.20114" lon="6.2743">
        <ele>1351.45</ele>
        <time>2018-09-09T09:34:49Z</time>
      </trkpt>
      <trkpt lat="45.20104" lon="6.27459">
        <ele>1351.44</ele>
        <time>2018-09-09T09:34:51Z</time>
      </trkpt>
      <trkpt lat="45.20086" lon="6.27487">
        <ele>1351.44</ele>
        <time>2018-09-09T09:34:53Z</time>
      </trkpt>
      <trkpt lat="45.20069" lon="6.27514">
        <ele>1351.44</ele>
        <time>2018-09-09T09:34:55Z</time>
      </trkpt>
      <trkpt lat="45.20055" lon="6.2754">
        <ele>1351.44</ele>
        <time>2018-09-09T09:34:57Z</time>
      </trkpt>
      <trkpt lat="45.20041" lon="6.27567">
        <ele>1350.74</ele>
        <time>2018-09-09T09:34:59Z</time>
      </trkpt>
      <trkpt lat="45.20026" lon="6.27585">
        <ele>1349.77</ele>
        <time>2018-09-09T09:35:01Z</time>
      </trkpt>
      <trkpt lat="45.20006" lon="6.27598">
        <ele>1351.08</ele>
        <time>2018-09-09T09:35:03Z</time>
      </trkpt>
      <trkpt lat="45.19989" lon="6.27621">
        <ele>1350.5</ele>
        <time>2018-09-09T09:35:05Z</time>
      </trkpt>
      <trkpt lat="45.19971" lon="6.2765">
        <ele>1349.75</ele>
        <time>2018-09-09T09:35:07Z</time>
      </trkpt>
      <trkpt lat="45.19949" lon="6.27674">
        <ele>1348.56</ele>
        <time>2018-09-09T09:35:09Z</time>
      </trkpt>
      <trkpt lat="45.19929" lon="6.27698">
        <ele>1347.76</ele>
        <time>2018-09-09T09:35:11Z</time>
      </trkpt>
      <trkpt lat="45.19914" lon="6.27729">
        <ele>1346.77</ele>
        <time>2018-09-09T09:35:13Z</time>
      </trkpt>
      <trkpt lat="45.19902" lon="6.27762">
        <ele>1345.77</ele>
        <time>2018-09-09T09:35:15Z</time>
      </trkpt>
      <trkpt lat="45.19884" lon="6.27789">
        <ele>1343.86</ele>
        <time>2018-09-09T09:35:17Z</time>
      </trkpt>
      <trkpt lat="45.19857" lon="6.27812">
        <ele>1342.78</ele>
        <time>2018-09-09T09:35:19Z</time>
      </trkpt>
      <trkpt lat="45.19832" lon="6.27841">
        <ele>1340.87</ele>
        <time>2018-09-09T09:35:21Z</time>
      </trkpt>
      <trkpt lat="45.19816" lon="6.27877">
        <ele>1339.78</ele>
        <time>2018-09-09T09:35:23Z</time>
      </trkpt>
      <trkpt lat="45.19804" lon="6.27913">
        <ele>1337.17</ele>
        <time>2018-09-09T09:35:25Z</time>
      </trkpt>
      <trkpt lat="45.19786" lon="6.27943">
        <ele>1334.41</ele>
        <time>2018-09-09T09:35:27Z</time>
      </trkpt>
      <trkpt lat="45.19763" lon="6.2797">
        <ele>1332.62</ele>
        <time>2018-09-09T09:35:29Z</time>
      </trkpt>
      <trkpt lat="45.19736" lon="6.27987">
        <ele>1329.45</ele>
        <time>2018-09-09T09:35:31Z</time>
      </trkpt>
      <trkpt lat="45.19715" lon="6.2801">
        <ele>1326.93</ele>
        <time>2018-09-09T09:35:33Z</time>
      </trkpt>
      <trkpt lat="45.19702" lon="6.28043">
        <ele>1323.97</ele>
        <time>2018-09-09T09:35:35Z</time>
      </trkpt>
      <trkpt lat="45.19694" lon="6.28083">
        <ele>1320.27</ele>
        <time>2018-09-09T09:35:37Z</time>
      </trkpt>
      <trkpt lat="45.19682" lon="6.28126">
        <ele>1317.21</ele>
        <time>2018-09-09T09:35:39Z</time>
      </trkpt>
      <trkpt lat="45.19664" lon="6.28162">
        <ele>1314.2</ele>
        <time>2018-09-09T09:35:41Z</time>
      </trkpt>
      <trkpt lat="45.19646" lon="6.28187">
        <ele>1312.11</ele>
        <time>2018-09-09T09:35:43Z</time>
      </trkpt>
      <trkpt lat="45.19623" lon="6.28189">
        <ele>1309.58</ele>
        <time>2018-09-09T09:35:46Z</time>
      </trkpt>
      <trkpt lat="45.19606" lon="6.2817">
        <ele>1309.45</ele>
        <time>2018-09-09T09:35:49Z</time>
      </trkpt>
      <trkpt lat="45.19588" lon="6.28178">
        <ele>1308.75</ele>
        <time>2018-09-09T09:35:52Z</time>
      </trkpt>
      <trkpt lat="45.19576" lon="6.28198">
        <ele>1307.77</ele>
        <time>2018-09-09T09:35:54Z</time>
      </trkpt>
      <trkpt lat="45.19561" lon="6.28222">
        <ele>1305.86</ele>
        <time>2018-09-09T09:35:56Z</time>
      </trkpt>
      <trkpt lat="45.19546" lon="6.28249">
        <ele>1304.78</ele>
        <time>2018-09-09T09:35:58Z</time>
      </trkpt>
      <trkpt lat="45.19531" lon="6.28281">
        <ele>1301.26</ele>
        <time>2018-09-09T09:36:00Z</time>
      </trkpt>
      <trkpt lat="45.19514" lon="6.28311">
        <ele>1299.61</ele>
        <time>2018-09-09T09:36:02Z</time>
      </trkpt>
      <trkpt lat="45.19494" lon="6.28342">
        <ele>1297.85</ele>
        <time>2018-09-09T09:36:04Z</time>
      </trkpt>
      <trkpt lat="45.19474" lon="6.28372">
        <ele>1296.78</ele>
        <time>2018-09-09T09:36:06Z</time>
      </trkpt>
      <trkpt lat="45.1945" lon="6.28396">
        <ele>1295.08</ele>
        <time>2018-09-09T09:36:08Z</time>
      </trkpt>
      <trkpt lat="45.19422" lon="6.28415">
        <ele>1292.89</ele>
        <time>2018-09-09T09:36:10Z</time>
      </trkpt>
      <trkpt lat="45.19394" lon="6.28427">
        <ele>1291.58</ele>
        <time>2018-09-09T09:36:12Z</time>
      </trkpt>
      <trkpt lat="45.19367" lon="6.28445">
        <ele>1288.94</ele>
        <time>2018-09-09T09:36:14Z</time>
      </trkpt>
      <trkpt lat="45.19342" lon="6.2847">
        <ele>1286.88</ele>
        <time>2018-09-09T09:36:16Z</time>
      </trkpt>
      <trkpt lat="45.19318" lon="6.28499">
        <ele>1286.48</ele>
        <time>2018-09-09T09:36:18Z</time>
      </trkpt>
      <trkpt lat="45.19294" lon="6.28527">
        <ele>1285.75</ele>
        <time>2018-09-09T09:36:20Z</time>
      </trkpt>
      <trkpt lat="45.19272" lon="6.28554">
        <ele>1284.56</ele>
        <time>2018-09-09T09:36:22Z</time>
      </trkpt>
      <trkpt lat="45.19253" lon="6.28578">
        <ele>1284.46</ele>
        <time>2018-09-09T09:36:24Z</time>
      </trkpt>
      <trkpt lat="45.19243" lon="6.286">
        <ele>1283.54</ele>
        <time>2018-09-09T09:36:26Z</time>
      </trkpt>
      <trkpt lat="45.19254" lon="6.28623">
        <ele>1282.75</ele>
        <time>2018-09-09T09:36:28Z</time>
      </trkpt>
      <trkpt lat="45.19267" lon="6.28649">
        <ele>1281.56</ele>
        <time>2018-09-09T09:36:30Z</time>
      </trkpt>
      <trkpt lat="45.19274" lon="6.28683">
        <ele>1280.55</ele>
        <time>2018-09-09T09:36:32Z</time>
      </trkpt>
      <trkpt lat="45.1927" lon="6.28721">
        <ele>1278.84</ele>
        <time>2018-09-09T09:36:34Z</time>
      </trkpt>
      <trkpt lat="45.19254" lon="6.28753">
        <ele>1277.78</ele>
        <time>2018-09-09T09:36:36Z</time>
      </trkpt>
      <trkpt lat="45.19235" lon="6.28782">
        <ele>1275.87</ele>
        <time>2018-09-09T09:36:38Z</time>
      </trkpt>
      <trkpt lat="45.19222" lon="6.28817">
        <ele>1274.57</ele>
        <time>2018-09-09T09:36:40Z</time>
      </trkpt>
      <trkpt lat="45.19224" lon="6.28857">
        <ele>1272.85</ele>
        <time>2018-09-09T09:36:42Z</time>
      </trkpt>
      <trkpt lat="45.19224" lon="6.289">
        <ele>1270.87</ele>
        <time>2018-09-09T09:36:44Z</time>
      </trkpt>
      <trkpt lat="45.19222" lon="6.28934">
        <ele>1270.48</ele>
        <time>2018-09-09T09:36:46Z</time>
      </trkpt>
      <trkpt lat="45.19231" lon="6.28959">
        <ele>1269.75</ele>
        <time>2018-09-09T09:36:48Z</time>
      </trkpt>
      <trkpt lat="45.1925" lon="6.2898">
        <ele>1268.07</ele>
        <time>2018-09-09T09:36:50Z</time>
      </trkpt>
      <trkpt lat="45.1927" lon="6.29004">
        <ele>1266.8</ele>
        <time>2018-09-09T09:36:52Z</time>
      </trkpt>
      <trkpt lat="45.19284" lon="6.29035">
        <ele>1264.87</ele>
        <time>2018-09-09T09:36:54Z</time>
      </trkpt>
      <trkpt lat="45.19289" lon="6.29066">
        <ele>1262.66</ele>
        <time>2018-09-09T09:36:56Z</time>
      </trkpt>
      <trkpt lat="45.19278" lon="6.29097">
        <ele>1259.94</ele>
        <time>2018-09-09T09:36:58Z</time>
      </trkpt>
      <trkpt lat="45.19262" lon="6.29128">
        <ele>1259.7</ele>
        <time>2018-09-09T09:37:00Z</time>
      </trkpt>
      <trkpt lat="45.19249" lon="6.29164">
        <ele>1257.65</ele>
        <time>2018-09-09T09:37:02Z</time>
      </trkpt>
      <trkpt lat="45.19241" lon="6.29203">
        <ele>1256.76</ele>
        <time>2018-09-09T09:37:04Z</time>
      </trkpt>
      <trkpt lat="45.19235" lon="6.29243">
        <ele>1254.86</ele>
        <time>2018-09-09T09:37:06Z</time>
      </trkpt>
      <trkpt lat="45.19237" lon="6.2928">
        <ele>1252.87</ele>
        <time>2018-09-09T09:37:08Z</time>
      </trkpt>
      <trkpt lat="45.19251" lon="6.29312">
        <ele>1251.99</ele>
        <time>2018-09-09T09:37:10Z</time>
      </trkpt>
      <trkpt lat="45.19272" lon="6.29337">
        <ele>1251.7</ele>
        <time>2018-09-09T09:37:12Z</time>
      </trkpt>
      <trkpt lat="45.19289" lon="6.2937">
        <ele>1251.47</ele>
        <time>2018-09-09T09:37:14Z</time>
      </trkpt>
      <trkpt lat="45.19302" lon="6.29411">
        <ele>1249.84</ele>
        <time>2018-09-09T09:37:16Z</time>
      </trkpt>
      <trkpt lat="45.19316" lon="6.29449">
        <ele>1247.17</ele>
        <time>2018-09-09T09:37:18Z</time>
      </trkpt>
      <trkpt lat="45.19329" lon="6.29487">
        <ele>1244.9</ele>
        <time>2018-09-09T09:37:20Z</time>
      </trkpt>
      <trkpt lat="45.19336" lon="6.29529">
        <ele>1242.88</ele>
        <time>2018-09-09T09:37:22Z</time>
      </trkpt>
      <trkpt lat="45.19339" lon="6.29569">
        <ele>1241.57</ele>
        <time>2018-09-09T09:37:24Z</time>
      </trkpt>
      <trkpt lat="45.19344" lon="6.29611">
        <ele>1239.85</ele>
        <time>2018-09-09T09:37:26Z</time>
      </trkpt>
      <trkpt lat="45.19355" lon="6.29652">
        <ele>1238.78</ele>
        <time>2018-09-09T09:37:28Z</time>
      </trkpt>
      <trkpt lat="45.1937" lon="6.29691">
        <ele>1237.78</ele>
        <time>2018-09-09T09:37:30Z</time>
      </trkpt>
      <trkpt lat="45.19385" lon="6.2973">
        <ele>1236.56</ele>
        <time>2018-09-09T09:37:32Z</time>
      </trkpt>
      <trkpt lat="45.19408" lon="6.29762">
        <ele>1234.85</ele>
        <time>2018-09-09T09:37:34Z</time>
      </trkpt>
      <trkpt lat="45.19436" lon="6.29784">
        <ele>1233.57</ele>
        <time>2018-09-09T09:37:36Z</time>
      </trkpt>
      <trkpt lat="45.19467" lon="6.29805">
        <ele>1231.64</ele>
        <time>2018-09-09T09:37:38Z</time>
      </trkpt>
      <trkpt lat="45.19499" lon="6.29824">
        <ele>1230.55</ele>
        <time>2018-09-09T09:37:40Z</time>
      </trkpt>
      <trkpt lat="45.19516" lon="6.29831">
        <ele>1230.48</ele>
        <time>2018-09-09T09:37:41Z</time>
      </trkpt>
      <trkpt lat="45.19547" lon="6.29848">
        <ele>1230.45</ele>
        <time>2018-09-09T09:37:43Z</time>
      </trkpt>
      <trkpt lat="45.19574" lon="6.29865">
        <ele>1229.54</ele>
        <time>2018-09-09T09:37:45Z</time>
      </trkpt>
      <trkpt lat="45.19591" lon="6.29889">
        <ele>1229.45</ele>
        <time>2018-09-09T09:37:47Z</time>
      </trkpt>
      <trkpt lat="45.19599" lon="6.29922">
        <ele>1229.45</ele>
        <time>2018-09-09T09:37:49Z</time>
      </trkpt>
      <trkpt lat="45.19601" lon="6.29958">
        <ele>1228.75</ele>
        <time>2018-09-09T09:37:51Z</time>
      </trkpt>
      <trkpt lat="45.19605" lon="6.29999">
        <ele>1228.47</ele>
        <time>2018-09-09T09:37:53Z</time>
      </trkpt>
      <trkpt lat="45.19617" lon="6.30033">
        <ele>1226.84</ele>
        <time>2018-09-09T09:37:55Z</time>
      </trkpt>
      <trkpt lat="45.1963" lon="6.30052">
        <ele>1228.09</ele>
        <time>2018-09-09T09:37:57Z</time>
      </trkpt>
      <trkpt lat="45.19649" lon="6.30066">
        <ele>1227.71</ele>
        <time>2018-09-09T09:37:59Z</time>
      </trkpt>
      <trkpt lat="45.19665" lon="6.30087">
        <ele>1228.17</ele>
        <time>2018-09-09T09:38:01Z</time>
      </trkpt>
      <trkpt lat="45.19679" lon="6.30107">
        <ele>1228.42</ele>
        <time>2018-09-09T09:38:03Z</time>
      </trkpt>
      <trkpt lat="45.19686" lon="6.30133">
        <ele>1227.45</ele>
        <time>2018-09-09T09:38:07Z</time>
      </trkpt>
      <trkpt lat="45.19679" lon="6.30167">
        <ele>1226.75</ele>
        <time>2018-09-09T09:38:11Z</time>
      </trkpt>
      <trkpt lat="45.19688" lon="6.30192">
        <ele>1226.26</ele>
        <time>2018-09-09T09:38:13Z</time>
      </trkpt>
      <trkpt lat="45.19697" lon="6.30217">
        <ele>1226.43</ele>
        <time>2018-09-09T09:38:15Z</time>
      </trkpt>
      <trkpt lat="45.19699" lon="6.30253">
        <ele>1226.44</ele>
        <time>2018-09-09T09:38:17Z</time>
      </trkpt>
      <trkpt lat="45.19704" lon="6.30284">
        <ele>1226.65</ele>
        <time>2018-09-09T09:38:19Z</time>
      </trkpt>
      <trkpt lat="45.19707" lon="6.30313">
        <ele>1226.67</ele>
        <time>2018-09-09T09:38:21Z</time>
      </trkpt>
      <trkpt lat="45.19689" lon="6.30337">
        <ele>1225.48</ele>
        <time>2018-09-09T09:38:24Z</time>
      </trkpt>
      <trkpt lat="45.19668" lon="6.30327">
        <ele>1227.06</ele>
        <time>2018-09-09T09:38:26Z</time>
      </trkpt>
      <trkpt lat="45.19655" lon="6.30356">
        <ele>1226.03</ele>
        <time>2018-09-09T09:38:29Z</time>
      </trkpt>
      <trkpt lat="45.19656" lon="6.3039">
        <ele>1226.16</ele>
        <time>2018-09-09T09:38:32Z</time>
      </trkpt>
      <trkpt lat="45.1967" lon="6.30417">
        <ele>1228.94</ele>
        <time>2018-09-09T09:38:34Z</time>
      </trkpt>
      <trkpt lat="45.19689" lon="6.30438">
        <ele>1231.71</ele>
        <time>2018-09-09T09:38:36Z</time>
      </trkpt>
      <trkpt lat="45.1971" lon="6.30455">
        <ele>1233.78</ele>
        <time>2018-09-09T09:38:38Z</time>
      </trkpt>
      <trkpt lat="45.19732" lon="6.30477">
        <ele>1235.3</ele>
        <time>2018-09-09T09:38:40Z</time>
      </trkpt>
      <trkpt lat="45.1975" lon="6.30505">
        <ele>1236.34</ele>
        <time>2018-09-09T09:38:42Z</time>
      </trkpt>
      <trkpt lat="45.19769" lon="6.30536">
        <ele>1234.83</ele>
        <time>2018-09-09T09:38:44Z</time>
      </trkpt>
      <trkpt lat="45.19792" lon="6.30561">
        <ele>1237</ele>
        <time>2018-09-09T09:38:46Z</time>
      </trkpt>
      <trkpt lat="45.19818" lon="6.30588">
        <ele>1240.62</ele>
        <time>2018-09-09T09:38:48Z</time>
      </trkpt>
      <trkpt lat="45.19842" lon="6.30616">
        <ele>1243.89</ele>
        <time>2018-09-09T09:38:50Z</time>
      </trkpt>
      <trkpt lat="45.19863" lon="6.30642">
        <ele>1246.92</ele>
        <time>2018-09-09T09:38:52Z</time>
      </trkpt>
      <trkpt lat="45.19885" lon="6.30661">
        <ele>1249.01</ele>
        <time>2018-09-09T09:38:54Z</time>
      </trkpt>
      <trkpt lat="45.19908" lon="6.30668">
        <ele>1253.33</ele>
        <time>2018-09-09T09:38:56Z</time>
      </trkpt>
      <trkpt lat="45.19925" lon="6.30691">
        <ele>1257.56</ele>
        <time>2018-09-09T09:38:58Z</time>
      </trkpt>
      <trkpt lat="45.1993" lon="6.30724">
        <ele>1259.98</ele>
        <time>2018-09-09T09:39:00Z</time>
      </trkpt>
      <trkpt lat="45.1993" lon="6.30761">
        <ele>1261.1</ele>
        <time>2018-09-09T09:39:02Z</time>
      </trkpt>
      <trkpt lat="45.19911" lon="6.3079">
        <ele>1264.84</ele>
        <time>2018-09-09T09:39:04Z</time>
      </trkpt>
      <trkpt lat="45.19897" lon="6.30825">
        <ele>1268.61</ele>
        <time>2018-09-09T09:39:06Z</time>
      </trkpt>
      <trkpt lat="45.1989" lon="6.30865">
        <ele>1269.37</ele>
        <time>2018-09-09T09:39:08Z</time>
      </trkpt>
      <trkpt lat="45.19894" lon="6.30898">
        <ele>1271.75</ele>
        <time>2018-09-09T09:39:10Z</time>
      </trkpt>
      <trkpt lat="45.19904" lon="6.30927">
        <ele>1273.08</ele>
        <time>2018-09-09T09:39:12Z</time>
      </trkpt>
      <trkpt lat="45.19922" lon="6.30948">
        <ele>1273.41</ele>
        <time>2018-09-09T09:39:14Z</time>
      </trkpt>
      <trkpt lat="45.19943" lon="6.30952">
        <ele>1275.54</ele>
        <time>2018-09-09T09:39:15Z</time>
      </trkpt>
      <trkpt lat="45.19972" lon="6.30969">
        <ele>1281.4</ele>
        <time>2018-09-09T09:39:17Z</time>
      </trkpt>
      <trkpt lat="45.19987" lon="6.30996">
        <ele>1286.27</ele>
        <time>2018-09-09T09:39:19Z</time>
      </trkpt>
      <trkpt lat="45.20011" lon="6.31022">
        <ele>1288.95</ele>
        <time>2018-09-09T09:39:21Z</time>
      </trkpt>
      <trkpt lat="45.2004" lon="6.31036">
        <ele>1292.41</ele>
        <time>2018-09-09T09:39:23Z</time>
      </trkpt>
      <trkpt lat="45.20063" lon="6.31062">
        <ele>1296.57</ele>
        <time>2018-09-09T09:39:25Z</time>
      </trkpt>
      <trkpt lat="45.20087" lon="6.31092">
        <ele>1299.68</ele>
        <time>2018-09-09T09:39:27Z</time>
      </trkpt>
      <trkpt lat="45.20112" lon="6.31118">
        <ele>1303.81</ele>
        <time>2018-09-09T09:39:29Z</time>
      </trkpt>
      <trkpt lat="45.20136" lon="6.31138">
        <ele>1306.7</ele>
        <time>2018-09-09T09:39:31Z</time>
      </trkpt>
      <trkpt lat="45.20141" lon="6.31166">
        <ele>1312.28</ele>
        <time>2018-09-09T09:39:35Z</time>
      </trkpt>
      <trkpt lat="45.20122" lon="6.31188">
        <ele>1313.29</ele>
        <time>2018-09-09T09:39:38Z</time>
      </trkpt>
      <trkpt lat="45.20109" lon="6.31212">
        <ele>1314.13</ele>
        <time>2018-09-09T09:39:40Z</time>
      </trkpt>
      <trkpt lat="45.20118" lon="6.31247">
        <ele>1318.63</ele>
        <time>2018-09-09T09:39:43Z</time>
      </trkpt>
      <trkpt lat="45.20136" lon="6.31264">
        <ele>1320.98</ele>
        <time>2018-09-09T09:39:45Z</time>
      </trkpt>
      <trkpt lat="45.20148" lon="6.3129">
        <ele>1322.8</ele>
        <time>2018-09-09T09:39:47Z</time>
      </trkpt>
      <trkpt lat="45.20151" lon="6.31331">
        <ele>1324.09</ele>
        <time>2018-09-09T09:39:49Z</time>
      </trkpt>
      <trkpt lat="45.20149" lon="6.31369">
        <ele>1326.72</ele>
        <time>2018-09-09T09:39:51Z</time>
      </trkpt>
      <trkpt lat="45.20147" lon="6.31409">
        <ele>1327.38</ele>
        <time>2018-09-09T09:39:53Z</time>
      </trkpt>
      <trkpt lat="45.20154" lon="6.3145">
        <ele>1328.35</ele>
        <time>2018-09-09T09:39:55Z</time>
      </trkpt>
      <trkpt lat="45.20167" lon="6.31472">
        <ele>1328.42</ele>
        <time>2018-09-09T09:39:56Z</time>
      </trkpt>
      <trkpt lat="45.20185" lon="6.31512">
        <ele>1331.87</ele>
        <time>2018-09-09T09:39:58Z</time>
      </trkpt>
      <trkpt lat="45.20195" lon="6.31557">
        <ele>1334.91</ele>
        <time>2018-09-09T09:40:00Z</time>
      </trkpt>
      <trkpt lat="45.20198" lon="6.31607">
        <ele>1337.01</ele>
        <time>2018-09-09T09:40:02Z</time>
      </trkpt>
      <trkpt lat="45.20201" lon="6.31651">
        <ele>1339.23</ele>
        <time>2018-09-09T09:40:04Z</time>
      </trkpt>
      <trkpt lat="45.20205" lon="6.31693">
        <ele>1340.13</ele>
        <time>2018-09-09T09:40:06Z</time>
      </trkpt>
      <trkpt lat="45.20198" lon="6.31721">
        <ele>1344.34</ele>
        <time>2018-09-09T09:40:08Z</time>
      </trkpt>
      <trkpt lat="45.20182" lon="6.31743">
        <ele>1347.87</ele>
        <time>2018-09-09T09:40:10Z</time>
      </trkpt>
      <trkpt lat="45.20168" lon="6.31775">
        <ele>1349.09</ele>
        <time>2018-09-09T09:40:12Z</time>
      </trkpt>
      <trkpt lat="45.20168" lon="6.31813">
        <ele>1350.81</ele>
        <time>2018-09-09T09:40:14Z</time>
      </trkpt>
      <trkpt lat="45.20166" lon="6.31851">
        <ele>1353</ele>
        <time>2018-09-09T09:40:16Z</time>
      </trkpt>
      <trkpt lat="45.20163" lon="6.31889">
        <ele>1356.62</ele>
        <time>2018-09-09T09:40:18Z</time>
      </trkpt>
      <trkpt lat="45.20156" lon="6.31925">
        <ele>1358.98</ele>
        <time>2018-09-09T09:40:20Z</time>
      </trkpt>
      <trkpt lat="45.20143" lon="6.31955">
        <ele>1359.4</ele>
        <time>2018-09-09T09:40:22Z</time>
      </trkpt>
      <trkpt lat="45.2013" lon="6.31983">
        <ele>1361.75</ele>
        <time>2018-09-09T09:40:24Z</time>
      </trkpt>
      <trkpt lat="45.2011" lon="6.31984">
        <ele>1363.99</ele>
        <time>2018-09-09T09:40:26Z</time>
      </trkpt>
      <trkpt lat="45.20086" lon="6.31964">
        <ele>1364.4</ele>
        <time>2018-09-09T09:40:28Z</time>
      </trkpt>
      <trkpt lat="45.20065" lon="6.3195">
        <ele>1365.13</ele>
        <time>2018-09-09T09:40:29Z</time>
      </trkpt>
      <trkpt lat="45.20033" lon="6.31942">
        <ele>1366.33</ele>
        <time>2018-09-09T09:40:31Z</time>
      </trkpt>
      <trkpt lat="45.20009" lon="6.31953">
        <ele>1367.34</ele>
        <time>2018-09-09T09:40:33Z</time>
      </trkpt>
      <trkpt lat="45.19991" lon="6.31985">
        <ele>1369.75</ele>
        <time>2018-09-09T09:40:35Z</time>
      </trkpt>
      <trkpt lat="45.19987" lon="6.32026">
        <ele>1372.2</ele>
        <time>2018-09-09T09:40:37Z</time>
      </trkpt>
      <trkpt lat="45.19972" lon="6.3206">
        <ele>1373.12</ele>
        <time>2018-09-09T09:40:39Z</time>
      </trkpt>
      <trkpt lat="45.19947" lon="6.32071">
        <ele>1372.3</ele>
        <time>2018-09-09T09:40:41Z</time>
      </trkpt>
      <trkpt lat="45.19929" lon="6.32089">
        <ele>1374.25</ele>
        <time>2018-09-09T09:40:43Z</time>
      </trkpt>
      <trkpt lat="45.19907" lon="6.32097">
        <ele>1376.74</ele>
        <time>2018-09-09T09:40:45Z</time>
      </trkpt>
      <trkpt lat="45.19883" lon="6.3211">
        <ele>1379.48</ele>
        <time>2018-09-09T09:40:47Z</time>
      </trkpt>
      <trkpt lat="45.19861" lon="6.3213">
        <ele>1381.06</ele>
        <time>2018-09-09T09:40:49Z</time>
      </trkpt>
      <trkpt lat="45.19849" lon="6.3216">
        <ele>1382.81</ele>
        <time>2018-09-09T09:40:51Z</time>
      </trkpt>
      <trkpt lat="45.19846" lon="6.32199">
        <ele>1385.91</ele>
        <time>2018-09-09T09:40:53Z</time>
      </trkpt>
      <trkpt lat="45.19837" lon="6.32229">
        <ele>1387.31</ele>
        <time>2018-09-09T09:40:55Z</time>
      </trkpt>
      <trkpt lat="45.19818" lon="6.32248">
        <ele>1388.34</ele>
        <time>2018-09-09T09:40:57Z</time>
      </trkpt>
      <trkpt lat="45.19803" lon="6.32265">
        <ele>1389.81</ele>
        <time>2018-09-09T09:40:58Z</time>
      </trkpt>
      <trkpt lat="45.19783" lon="6.32298">
        <ele>1394.31</ele>
        <time>2018-09-09T09:41:00Z</time>
      </trkpt>
      <trkpt lat="45.19768" lon="6.32333">
        <ele>1399.26</ele>
        <time>2018-09-09T09:41:02Z</time>
      </trkpt>
      <trkpt lat="45.19759" lon="6.32369">
        <ele>1401.25</ele>
        <time>2018-09-09T09:41:04Z</time>
      </trkpt>
      <trkpt lat="45.19749" lon="6.32406">
        <ele>1403.04</ele>
        <time>2018-09-09T09:41:06Z</time>
      </trkpt>
      <trkpt lat="45.19739" lon="6.32444">
        <ele>1406.63</ele>
        <time>2018-09-09T09:41:08Z</time>
      </trkpt>
      <trkpt lat="45.19725" lon="6.32478">
        <ele>1409.68</ele>
        <time>2018-09-09T09:41:10Z</time>
      </trkpt>
      <trkpt lat="45.19705" lon="6.32508">
        <ele>1411.08</ele>
        <time>2018-09-09T09:41:12Z</time>
      </trkpt>
      <trkpt lat="45.19682" lon="6.32534">
        <ele>1413.02</ele>
        <time>2018-09-09T09:41:14Z</time>
      </trkpt>
      <trkpt lat="45.19657" lon="6.32563">
        <ele>1415.51</ele>
        <time>2018-09-09T09:41:16Z</time>
      </trkpt>
      <trkpt lat="45.19634" lon="6.32595">
        <ele>1417.97</ele>
        <time>2018-09-09T09:41:18Z</time>
      </trkpt>
      <trkpt lat="45.19613" lon="6.3263">
        <ele>1419.8</ele>
        <time>2018-09-09T09:41:20Z</time>
      </trkpt>
      <trkpt lat="45.19598" lon="6.32668">
        <ele>1422.7</ele>
        <time>2018-09-09T09:41:22Z</time>
      </trkpt>
      <trkpt lat="45.19587" lon="6.32704">
        <ele>1425.69</ele>
        <time>2018-09-09T09:41:24Z</time>
      </trkpt>
      <trkpt lat="45.1958" lon="6.32737">
        <ele>1428.2</ele>
        <time>2018-09-09T09:41:26Z</time>
      </trkpt>
      <trkpt lat="45.19586" lon="6.32769">
        <ele>1428.21</ele>
        <time>2018-09-09T09:41:28Z</time>
      </trkpt>
      <trkpt lat="45.19589" lon="6.32798">
        <ele>1430.73</ele>
        <time>2018-09-09T09:41:30Z</time>
      </trkpt>
      <trkpt lat="45.19597" lon="6.32826">
        <ele>1432.08</ele>
        <time>2018-09-09T09:41:32Z</time>
      </trkpt>
      <trkpt lat="45.19602" lon="6.32861">
        <ele>1433.68</ele>
        <time>2018-09-09T09:41:35Z</time>
      </trkpt>
      <trkpt lat="45.19596" lon="6.32892">
        <ele>1436.8</ele>
        <time>2018-09-09T09:41:38Z</time>
      </trkpt>
      <trkpt lat="45.19591" lon="6.3292">
        <ele>1438.4</ele>
        <time>2018-09-09T09:41:41Z</time>
      </trkpt>
      <trkpt lat="45.19594" lon="6.32946">
        <ele>1437.47</ele>
        <time>2018-09-09T09:41:44Z</time>
      </trkpt>
      <trkpt lat="45.19593" lon="6.32978">
        <ele>1437.74</ele>
        <time>2018-09-09T09:41:48Z</time>
      </trkpt>
      <trkpt lat="45.19587" lon="6.33005">
        <ele>1440.04</ele>
        <time>2018-09-09T09:41:51Z</time>
      </trkpt>
      <trkpt lat="45.19583" lon="6.33041">
        <ele>1441.13</ele>
        <time>2018-09-09T09:41:54Z</time>
      </trkpt>
      <trkpt lat="45.19578" lon="6.33068">
        <ele>1442.12</ele>
        <time>2018-09-09T09:41:56Z</time>
      </trkpt>
      <trkpt lat="45.19581" lon="6.33097">
        <ele>1443.33</ele>
        <time>2018-09-09T09:41:58Z</time>
      </trkpt>
      <trkpt lat="45.19591" lon="6.33124">
        <ele>1443.43</ele>
        <time>2018-09-09T09:42:00Z</time>
      </trkpt>
      <trkpt lat="45.19605" lon="6.3315">
        <ele>1442.74</ele>
        <time>2018-09-09T09:42:02Z</time>
      </trkpt>
      <trkpt lat="45.19621" lon="6.33179">
        <ele>1442.47</ele>
        <time>2018-09-09T09:42:04Z</time>
      </trkpt>
      <trkpt lat="45.19639" lon="6.33206">
        <ele>1442.45</ele>
        <time>2018-09-09T09:42:06Z</time>
      </trkpt>
      <trkpt lat="45.19662" lon="6.33227">
        <ele>1442.45</ele>
        <time>2018-09-09T09:42:08Z</time>
      </trkpt>
      <trkpt lat="45.19686" lon="6.33244">
        <ele>1443.15</ele>
        <time>2018-09-09T09:42:10Z</time>
      </trkpt>
      <trkpt lat="45.19711" lon="6.33263">
        <ele>1444.33</ele>
        <time>2018-09-09T09:42:12Z</time>
      </trkpt>
      <trkpt lat="45.19734" lon="6.33289">
        <ele>1445.13</ele>
        <time>2018-09-09T09:42:14Z</time>
      </trkpt>
      <trkpt lat="45.19756" lon="6.33315">
        <ele>1445.42</ele>
        <time>2018-09-09T09:42:16Z</time>
      </trkpt>
      <trkpt lat="45.19782" lon="6.33328">
        <ele>1447.05</ele>
        <time>2018-09-09T09:42:18Z</time>
      </trkpt>
      <trkpt lat="45.19809" lon="6.33325">
        <ele>1447.41</ele>
        <time>2018-09-09T09:42:20Z</time>
      </trkpt>
      <trkpt lat="45.19833" lon="6.33311">
        <ele>1448.35</ele>
        <time>2018-09-09T09:42:22Z</time>
      </trkpt>
      <trkpt lat="45.1986" lon="6.33309">
        <ele>1448.44</ele>
        <time>2018-09-09T09:42:24Z</time>
      </trkpt>
      <trkpt lat="45.19889" lon="6.33314">
        <ele>1449.84</ele>
        <time>2018-09-09T09:42:26Z</time>
      </trkpt>
      <trkpt lat="45.19917" lon="6.3333">
        <ele>1452.91</ele>
        <time>2018-09-09T09:42:28Z</time>
      </trkpt>
      <trkpt lat="45.19939" lon="6.33357">
        <ele>1455.01</ele>
        <time>2018-09-09T09:42:30Z</time>
      </trkpt>
      <trkpt lat="45.19959" lon="6.33385">
        <ele>1455.41</ele>
        <time>2018-09-09T09:42:32Z</time>
      </trkpt>
      <trkpt lat="45.19982" lon="6.33404">
        <ele>1456.35</ele>
        <time>2018-09-09T09:42:34Z</time>
      </trkpt>
      <trkpt lat="45.20007" lon="6.33414">
        <ele>1456.93</ele>
        <time>2018-09-09T09:42:36Z</time>
      </trkpt>
      <trkpt lat="45.20032" lon="6.33411">
        <ele>1459.5</ele>
        <time>2018-09-09T09:42:38Z</time>
      </trkpt>
      <trkpt lat="45.20053" lon="6.33399">
        <ele>1463.58</ele>
        <time>2018-09-09T09:42:40Z</time>
      </trkpt>
      <trkpt lat="45.2007" lon="6.33382">
        <ele>1465.07</ele>
        <time>2018-09-09T09:42:42Z</time>
      </trkpt>
      <trkpt lat="45.20088" lon="6.33372">
        <ele>1467.11</ele>
        <time>2018-09-09T09:42:45Z</time>
      </trkpt>
      <trkpt lat="45.20077" lon="6.33393">
        <ele>1470.32</ele>
        <time>2018-09-09T09:42:49Z</time>
      </trkpt>
      <trkpt lat="45.20061" lon="6.33412">
        <ele>1472.74</ele>
        <time>2018-09-09T09:42:51Z</time>
      </trkpt>
      <trkpt lat="45.2005" lon="6.33438">
        <ele>1477.3</ele>
        <time>2018-09-09T09:42:53Z</time>
      </trkpt>
      <trkpt lat="45.2004" lon="6.33467">
        <ele>1479.95</ele>
        <time>2018-09-09T09:42:55Z</time>
      </trkpt>
      <trkpt lat="45.20027" lon="6.33497">
        <ele>1482.01</ele>
        <time>2018-09-09T09:42:57Z</time>
      </trkpt>
      <trkpt lat="45.20021" lon="6.33528">
        <ele>1484.72</ele>
        <time>2018-09-09T09:42:59Z</time>
      </trkpt>
      <trkpt lat="45.20028" lon="6.33553">
        <ele>1485.43</ele>
        <time>2018-09-09T09:43:02Z</time>
      </trkpt>
      <trkpt lat="45.20043" lon="6.33532">
        <ele>1488.94</ele>
        <time>2018-09-09T09:43:05Z</time>
      </trkpt>
      <trkpt lat="45.20053" lon="6.33497">
        <ele>1491.04</ele>
        <time>2018-09-09T09:43:08Z</time>
      </trkpt>
      <trkpt lat="45.20069" lon="6.3348">
        <ele>1493.02</ele>
        <time>2018-09-09T09:43:10Z</time>
      </trkpt>
      <trkpt lat="45.20087" lon="6.33468">
        <ele>1493.41</ele>
        <time>2018-09-09T09:43:12Z</time>
      </trkpt>
      <trkpt lat="45.20107" lon="6.33466">
        <ele>1494.14</ele>
        <time>2018-09-09T09:43:14Z</time>
      </trkpt>
      <trkpt lat="45.20127" lon="6.33469">
        <ele>1496.03</ele>
        <time>2018-09-09T09:43:16Z</time>
      </trkpt>
      <trkpt lat="45.20148" lon="6.33473">
        <ele>1498.02</ele>
        <time>2018-09-09T09:43:18Z</time>
      </trkpt>
      <trkpt lat="45.20169" lon="6.33479">
        <ele>1498.41</ele>
        <time>2018-09-09T09:43:20Z</time>
      </trkpt>
      <trkpt lat="45.20185" lon="6.33501">
        <ele>1498.44</ele>
        <time>2018-09-09T09:43:22Z</time>
      </trkpt>
      <trkpt lat="45.20201" lon="6.33525">
        <ele>1499.14</ele>
        <time>2018-09-09T09:43:24Z</time>
      </trkpt>
      <trkpt lat="45.20221" lon="6.33539">
        <ele>1501.73</ele>
        <time>2018-09-09T09:43:26Z</time>
      </trkpt>
      <trkpt lat="45.2024" lon="6.33535">
        <ele>1503.08</ele>
        <time>2018-09-09T09:43:28Z</time>
      </trkpt>
      <trkpt lat="45.20255" lon="6.33517">
        <ele>1505.02</ele>
        <time>2018-09-09T09:43:30Z</time>
      </trkpt>
      <trkpt lat="45.20264" lon="6.33493">
        <ele>1506.32</ele>
        <time>2018-09-09T09:43:32Z</time>
      </trkpt>
      <trkpt lat="45.20272" lon="6.33469">
        <ele>1507.13</ele>
        <time>2018-09-09T09:43:34Z</time>
      </trkpt>
      <trkpt lat="45.20291" lon="6.33447">
        <ele>1510.02</ele>
        <time>2018-09-09T09:43:37Z</time>
      </trkpt>
      <trkpt lat="45.20315" lon="6.33464">
        <ele>1509.73</ele>
        <time>2018-09-09T09:43:40Z</time>
      </trkpt>
      <trkpt lat="45.20334" lon="6.33493">
        <ele>1511.08</ele>
        <time>2018-09-09T09:43:42Z</time>
      </trkpt>
      <trkpt lat="45.20359" lon="6.33498">
        <ele>1513.93</ele>
        <time>2018-09-09T09:43:44Z</time>
      </trkpt>
      <trkpt lat="45.20382" lon="6.33485">
        <ele>1516.01</ele>
        <time>2018-09-09T09:43:46Z</time>
      </trkpt>
      <trkpt lat="45.20403" lon="6.3347">
        <ele>1517.32</ele>
        <time>2018-09-09T09:43:48Z</time>
      </trkpt>
      <trkpt lat="45.20421" lon="6.33451">
        <ele>1519.32</ele>
        <time>2018-09-09T09:43:51Z</time>
      </trkpt>
      <trkpt lat="45.20421" lon="6.33482">
        <ele>1522.11</ele>
        <time>2018-09-09T09:43:55Z</time>
      </trkpt>
      <trkpt lat="45.20406" lon="6.33513">
        <ele>1523.32</ele>
        <time>2018-09-09T09:43:57Z</time>
      </trkpt>
      <trkpt lat="45.2039" lon="6.33548">
        <ele>1526.65</ele>
        <time>2018-09-09T09:43:59Z</time>
      </trkpt>
      <trkpt lat="45.20368" lon="6.33578">
        <ele>1530.59</ele>
        <time>2018-09-09T09:44:01Z</time>
      </trkpt>
      <trkpt lat="45.20341" lon="6.336">
        <ele>1532.98</ele>
        <time>2018-09-09T09:44:03Z</time>
      </trkpt>
      <trkpt lat="45.20314" lon="6.33615">
        <ele>1535.92</ele>
        <time>2018-09-09T09:44:05Z</time>
      </trkpt>
      <trkpt lat="45.20292" lon="6.33615">
        <ele>1538.92</ele>
        <time>2018-09-09T09:44:07Z</time>
      </trkpt>
      <trkpt lat="45.20277" lon="6.33632">
        <ele>1541.1</ele>
        <time>2018-09-09T09:44:10Z</time>
      </trkpt>
      <trkpt lat="45.20296" lon="6.33643">
        <ele>1543.81</ele>
        <time>2018-09-09T09:44:13Z</time>
      </trkpt>
      <trkpt lat="45.20322" lon="6.33652">
        <ele>1546.04</ele>
        <time>2018-09-09T09:44:16Z</time>
      </trkpt>
      <trkpt lat="45.20341" lon="6.33662">
        <ele>1548.93</ele>
        <time>2018-09-09T09:44:18Z</time>
      </trkpt>
      <trkpt lat="45.20364" lon="6.33664">
        <ele>1551.04</ele>
        <time>2018-09-09T09:44:21Z</time>
      </trkpt>
      <trkpt lat="45.20383" lon="6.33664">
        <ele>1552.27</ele>
        <time>2018-09-09T09:45:07Z</time>
      </trkpt>
      <trkpt lat="45.20406" lon="6.33669">
        <ele>1554.04</ele>
        <time>2018-09-09T09:45:09Z</time>
      </trkpt>
      <trkpt lat="45.20423" lon="6.33688">
        <ele>1556.72</ele>
        <time>2018-09-09T09:45:11Z</time>
      </trkpt>
      <trkpt lat="45.20442" lon="6.33711">
        <ele>1559.2</ele>
        <time>2018-09-09T09:45:13Z</time>
      </trkpt>
      <trkpt lat="45.20467" lon="6.3372">
        <ele>1561.73</ele>
        <time>2018-09-09T09:45:15Z</time>
      </trkpt>
      <trkpt lat="45.2049" lon="6.33716">
        <ele>1563.99</ele>
        <time>2018-09-09T09:45:17Z</time>
      </trkpt>
      <trkpt lat="45.2051" lon="6.33722">
        <ele>1566.22</ele>
        <time>2018-09-09T09:45:19Z</time>
      </trkpt>
      <trkpt lat="45.20526" lon="6.33741">
        <ele>1568.04</ele>
        <time>2018-09-09T09:45:21Z</time>
      </trkpt>
      <trkpt lat="45.20545" lon="6.33749">
        <ele>1570.93</ele>
        <time>2018-09-09T09:45:23Z</time>
      </trkpt>
      <trkpt lat="45.20563" lon="6.33747">
        <ele>1573.22</ele>
        <time>2018-09-09T09:45:25Z</time>
      </trkpt>
      <trkpt lat="45.20568" lon="6.33706">
        <ele>1575.94</ele>
        <time>2018-09-09T09:45:27Z</time>
      </trkpt>
      <trkpt lat="45.20572" lon="6.33668">
        <ele>1578.01</ele>
        <time>2018-09-09T09:45:29Z</time>
      </trkpt>
      <trkpt lat="45.20573" lon="6.33629">
        <ele>1579.32</ele>
        <time>2018-09-09T09:45:31Z</time>
      </trkpt>
      <trkpt lat="45.2058" lon="6.33598">
        <ele>1581.74</ele>
        <time>2018-09-09T09:45:33Z</time>
      </trkpt>
      <trkpt lat="45.20594" lon="6.33573">
        <ele>1583.29</ele>
        <time>2018-09-09T09:45:35Z</time>
      </trkpt>
      <trkpt lat="45.20602" lon="6.33546">
        <ele>1585.74</ele>
        <time>2018-09-09T09:45:37Z</time>
      </trkpt>
      <trkpt lat="45.20607" lon="6.33519">
        <ele>1587.08</ele>
        <time>2018-09-09T09:45:39Z</time>
      </trkpt>
      <trkpt lat="45.20631" lon="6.33507">
        <ele>1590.99</ele>
        <time>2018-09-09T09:45:42Z</time>
      </trkpt>
      <trkpt lat="45.20652" lon="6.33509">
        <ele>1593.01</ele>
        <time>2018-09-09T09:45:44Z</time>
      </trkpt>
      <trkpt lat="45.20673" lon="6.335">
        <ele>1594.81</ele>
        <time>2018-09-09T09:45:46Z</time>
      </trkpt>
      <trkpt lat="45.20686" lon="6.33475">
        <ele>1597.31</ele>
        <time>2018-09-09T09:45:49Z</time>
      </trkpt>
      <trkpt lat="45.2068" lon="6.3345">
        <ele>1599.35</ele>
        <time>2018-09-09T09:45:57Z</time>
      </trkpt>
      <trkpt lat="45.20695" lon="6.33427">
        <ele>1603.72</ele>
        <time>2018-09-09T09:46:01Z</time>
      </trkpt>
      <trkpt lat="45.20712" lon="6.33438">
        <ele>1605.08</ele>
        <time>2018-09-09T09:46:03Z</time>
      </trkpt>
      <trkpt lat="45.20731" lon="6.3345">
        <ele>1607.02</ele>
        <time>2018-09-09T09:46:05Z</time>
      </trkpt>
      <trkpt lat="45.20754" lon="6.33467">
        <ele>1609.02</ele>
        <time>2018-09-09T09:46:07Z</time>
      </trkpt>
      <trkpt lat="45.20777" lon="6.33483">
        <ele>1611.72</ele>
        <time>2018-09-09T09:46:09Z</time>
      </trkpt>
      <trkpt lat="45.20801" lon="6.335">
        <ele>1613.99</ele>
        <time>2018-09-09T09:46:11Z</time>
      </trkpt>
      <trkpt lat="45.20823" lon="6.3352">
        <ele>1616.71</ele>
        <time>2018-09-09T09:46:13Z</time>
      </trkpt>
      <trkpt lat="45.20845" lon="6.33545">
        <ele>1619.69</ele>
        <time>2018-09-09T09:46:15Z</time>
      </trkpt>
      <trkpt lat="45.20867" lon="6.33573">
        <ele>1621.99</ele>
        <time>2018-09-09T09:46:17Z</time>
      </trkpt>
      <trkpt lat="45.20888" lon="6.33602">
        <ele>1624.01</ele>
        <time>2018-09-09T09:46:19Z</time>
      </trkpt>
      <trkpt lat="45.20907" lon="6.33631">
        <ele>1626.02</ele>
        <time>2018-09-09T09:46:21Z</time>
      </trkpt>
      <trkpt lat="45.20924" lon="6.33657">
        <ele>1628.02</ele>
        <time>2018-09-09T09:46:23Z</time>
      </trkpt>
      <trkpt lat="45.20942" lon="6.33678">
        <ele>1629.11</ele>
        <time>2018-09-09T09:46:25Z</time>
      </trkpt>
      <trkpt lat="45.20962" lon="6.33689">
        <ele>1630.11</ele>
        <time>2018-09-09T09:46:27Z</time>
      </trkpt>
      <trkpt lat="45.20983" lon="6.33694">
        <ele>1631.12</ele>
        <time>2018-09-09T09:46:29Z</time>
      </trkpt>
      <trkpt lat="45.21004" lon="6.337">
        <ele>1631.42</ele>
        <time>2018-09-09T09:46:31Z</time>
      </trkpt>
      <trkpt lat="45.21023" lon="6.33708">
        <ele>1631.23</ele>
        <time>2018-09-09T09:46:33Z</time>
      </trkpt>
      <trkpt lat="45.21045" lon="6.33719">
        <ele>1632.14</ele>
        <time>2018-09-09T09:46:36Z</time>
      </trkpt>
      <trkpt lat="45.21065" lon="6.3373">
        <ele>1631.53</ele>
        <time>2018-09-09T09:46:40Z</time>
      </trkpt>
      <trkpt lat="45.21083" lon="6.33732">
        <ele>1631.15</ele>
        <time>2018-09-09T09:46:46Z</time>
      </trkpt>
      <trkpt lat="45.21101" lon="6.33752">
        <ele>1630.74</ele>
        <time>2018-09-09T09:47:57Z</time>
      </trkpt>
      <trkpt lat="45.21123" lon="6.33772">
        <ele>1629.54</ele>
        <time>2018-09-09T09:48:00Z</time>
      </trkpt>
      <trkpt lat="45.21141" lon="6.3379">
        <ele>1628.75</ele>
        <time>2018-09-09T09:48:02Z</time>
      </trkpt>
      <trkpt lat="45.21161" lon="6.3381">
        <ele>1629.87</ele>
        <time>2018-09-09T09:48:04Z</time>
      </trkpt>
      <trkpt lat="45.21183" lon="6.3383">
        <ele>1628.29</ele>
        <time>2018-09-09T09:48:06Z</time>
      </trkpt>
      <trkpt lat="45.21203" lon="6.33859">
        <ele>1624.09</ele>
        <time>2018-09-09T09:48:08Z</time>
      </trkpt>
      <trkpt lat="45.21221" lon="6.33887">
        <ele>1620.98</ele>
        <time>2018-09-09T09:48:10Z</time>
      </trkpt>
      <trkpt lat="45.2124" lon="6.33912">
        <ele>1617.27</ele>
        <time>2018-09-09T09:48:12Z</time>
      </trkpt>
      <trkpt lat="45.21259" lon="6.33936">
        <ele>1614.21</ele>
        <time>2018-09-09T09:48:14Z</time>
      </trkpt>
      <trkpt lat="45.21279" lon="6.33957">
        <ele>1612.11</ele>
        <time>2018-09-09T09:48:16Z</time>
      </trkpt>
      <trkpt lat="45.21299" lon="6.33982">
        <ele>1609.2</ele>
        <time>2018-09-09T09:48:18Z</time>
      </trkpt>
      <trkpt lat="45.21318" lon="6.34012">
        <ele>1606.9</ele>
        <time>2018-09-09T09:48:20Z</time>
      </trkpt>
      <trkpt lat="45.21335" lon="6.34043">
        <ele>1604.88</ele>
        <time>2018-09-09T09:48:22Z</time>
      </trkpt>
      <trkpt lat="45.2135" lon="6.34074">
        <ele>1601.96</ele>
        <time>2018-09-09T09:48:24Z</time>
      </trkpt>
      <trkpt lat="45.21365" lon="6.34104">
        <ele>1599.88</ele>
        <time>2018-09-09T09:48:26Z</time>
      </trkpt>
      <trkpt lat="45.2138" lon="6.34133">
        <ele>1597.17</ele>
        <time>2018-09-09T09:48:28Z</time>
      </trkpt>
      <trkpt lat="45.21393" lon="6.34168">
        <ele>1595.11</ele>
        <time>2018-09-09T09:48:30Z</time>
      </trkpt>
      <trkpt lat="45.21408" lon="6.342">
        <ele>1591.98</ele>
        <time>2018-09-09T09:48:32Z</time>
      </trkpt>
      <trkpt lat="45.21427" lon="6.34227">
        <ele>1590.58</ele>
        <time>2018-09-09T09:48:34Z</time>
      </trkpt>
      <trkpt lat="45.21444" lon="6.34255">
        <ele>1589.06</ele>
        <time>2018-09-09T09:48:36Z</time>
      </trkpt>
      <trkpt lat="45.21462" lon="6.34275">
        <ele>1585.28</ele>
        <time>2018-09-09T09:48:38Z</time>
      </trkpt>
      <trkpt lat="45.21486" lon="6.34279">
        <ele>1582.91</ele>
        <time>2018-09-09T09:48:40Z</time>
      </trkpt>
      <trkpt lat="45.21509" lon="6.3427">
        <ele>1580.88</ele>
        <time>2018-09-09T09:48:42Z</time>
      </trkpt>
      <trkpt lat="45.21529" lon="6.34269">
        <ele>1578.66</ele>
        <time>2018-09-09T09:48:44Z</time>
      </trkpt>
      <trkpt lat="45.21549" lon="6.34298">
        <ele>1574.96</ele>
        <time>2018-09-09T09:48:47Z</time>
      </trkpt>
      <trkpt lat="45.21561" lon="6.34331">
        <ele>1573.58</ele>
        <time>2018-09-09T09:48:49Z</time>
      </trkpt>
      <trkpt lat="45.21577" lon="6.34365">
        <ele>1570.24</ele>
        <time>2018-09-09T09:48:51Z</time>
      </trkpt>
      <trkpt lat="45.21597" lon="6.34391">
        <ele>1567.21</ele>
        <time>2018-09-09T09:48:53Z</time>
      </trkpt>
      <trkpt lat="45.21613" lon="6.3441">
        <ele>1564.69</ele>
        <time>2018-09-09T09:48:55Z</time>
      </trkpt>
      <trkpt lat="45.2163" lon="6.3439">
        <ele>1561.57</ele>
        <time>2018-09-09T09:48:59Z</time>
      </trkpt>
      <trkpt lat="45.21625" lon="6.34364">
        <ele>1560.55</ele>
        <time>2018-09-09T09:49:01Z</time>
      </trkpt>
      <trkpt lat="45.21622" lon="6.34329">
        <ele>1558.84</ele>
        <time>2018-09-09T09:49:03Z</time>
      </trkpt>
      <trkpt lat="45.21618" lon="6.34292">
        <ele>1556.17</ele>
        <time>2018-09-09T09:49:05Z</time>
      </trkpt>
      <trkpt lat="45.21611" lon="6.34255">
        <ele>1552.99</ele>
        <time>2018-09-09T09:49:07Z</time>
      </trkpt>
      <trkpt lat="45.21603" lon="6.34221">
        <ele>1549.97</ele>
        <time>2018-09-09T09:49:09Z</time>
      </trkpt>
      <trkpt lat="45.21604" lon="6.34186">
        <ele>1546.97</ele>
        <time>2018-09-09T09:49:11Z</time>
      </trkpt>
      <trkpt lat="45.21611" lon="6.34153">
        <ele>1544.88</ele>
        <time>2018-09-09T09:49:13Z</time>
      </trkpt>
      <trkpt lat="45.21616" lon="6.3412">
        <ele>1542.87</ele>
        <time>2018-09-09T09:49:15Z</time>
      </trkpt>
      <trkpt lat="45.21625" lon="6.34087">
        <ele>1540.87</ele>
        <time>2018-09-09T09:49:17Z</time>
      </trkpt>
      <trkpt lat="45.21639" lon="6.34055">
        <ele>1539.57</ele>
        <time>2018-09-09T09:49:19Z</time>
      </trkpt>
      <trkpt lat="45.21656" lon="6.34024">
        <ele>1537.64</ele>
        <time>2018-09-09T09:49:21Z</time>
      </trkpt>
      <trkpt lat="45.21671" lon="6.34001">
        <ele>1535.85</ele>
        <time>2018-09-09T09:49:23Z</time>
      </trkpt>
      <trkpt lat="45.21694" lon="6.34006">
        <ele>1533.85</ele>
        <time>2018-09-09T09:49:26Z</time>
      </trkpt>
      <trkpt lat="45.217" lon="6.34033">
        <ele>1531.87</ele>
        <time>2018-09-09T09:49:28Z</time>
      </trkpt>
      <trkpt lat="45.21699" lon="6.34066">
        <ele>1529.87</ele>
        <time>2018-09-09T09:49:30Z</time>
      </trkpt>
      <trkpt lat="45.21697" lon="6.34104">
        <ele>1527.87</ele>
        <time>2018-09-09T09:49:32Z</time>
      </trkpt>
      <trkpt lat="45.21698" lon="6.34133">
        <ele>1526.78</ele>
        <time>2018-09-09T09:49:34Z</time>
      </trkpt>
      <trkpt lat="45.21714" lon="6.34149">
        <ele>1526.45</ele>
        <time>2018-09-09T09:49:37Z</time>
      </trkpt>
      <trkpt lat="45.21736" lon="6.34139">
        <ele>1523.86</ele>
        <time>2018-09-09T09:49:40Z</time>
      </trkpt>
      <trkpt lat="45.21761" lon="6.34126">
        <ele>1521.85</ele>
        <time>2018-09-09T09:49:43Z</time>
      </trkpt>
      <trkpt lat="45.21777" lon="6.34114">
        <ele>1520.78</ele>
        <time>2018-09-09T09:49:45Z</time>
      </trkpt>
      <trkpt lat="45.21794" lon="6.34103">
        <ele>1520.48</ele>
        <time>2018-09-09T09:49:47Z</time>
      </trkpt>
      <trkpt lat="45.21817" lon="6.3409">
        <ele>1518.77</ele>
        <time>2018-09-09T09:49:50Z</time>
      </trkpt>
      <trkpt lat="45.21839" lon="6.34083">
        <ele>1518.39</ele>
        <time>2018-09-09T09:49:53Z</time>
      </trkpt>
      <trkpt lat="45.21852" lon="6.3406">
        <ele>1516.75</ele>
        <time>2018-09-09T09:49:57Z</time>
      </trkpt>
      <trkpt lat="45.21868" lon="6.34081">
        <ele>1517.36</ele>
        <time>2018-09-09T09:50:02Z</time>
      </trkpt>
      <trkpt lat="45.21867" lon="6.34112">
        <ele>1517.44</ele>
        <time>2018-09-09T09:50:06Z</time>
      </trkpt>
      <trkpt lat="45.21858" lon="6.34138">
        <ele>1519.39</ele>
        <time>2018-09-09T09:50:09Z</time>
      </trkpt>
      <trkpt lat="45.21861" lon="6.34172">
        <ele>1520.21</ele>
        <time>2018-09-09T09:50:12Z</time>
      </trkpt>
      <trkpt lat="45.21865" lon="6.3421">
        <ele>1520.44</ele>
        <time>2018-09-09T09:50:15Z</time>
      </trkpt>
      <trkpt lat="45.21869" lon="6.34238">
        <ele>1519.53</ele>
        <time>2018-09-09T09:50:17Z</time>
      </trkpt>
      <trkpt lat="45.21873" lon="6.34267">
        <ele>1519.45</ele>
        <time>2018-09-09T09:50:19Z</time>
      </trkpt>
      <trkpt lat="45.21877" lon="6.34297">
        <ele>1519.45</ele>
        <time>2018-09-09T09:50:21Z</time>
      </trkpt>
      <trkpt lat="45.21881" lon="6.34328">
        <ele>1519.45</ele>
        <time>2018-09-09T09:50:23Z</time>
      </trkpt>
      <trkpt lat="45.21886" lon="6.34359">
        <ele>1519.44</ele>
        <time>2018-09-09T09:50:25Z</time>
      </trkpt>
      <trkpt lat="45.2189" lon="6.34393">
        <ele>1518.54</ele>
        <time>2018-09-09T09:50:27Z</time>
      </trkpt>
      <trkpt lat="45.21891" lon="6.34429">
        <ele>1516.84</ele>
        <time>2018-09-09T09:50:29Z</time>
      </trkpt>
      <trkpt lat="45.21885" lon="6.3446">
        <ele>1515.08</ele>
        <time>2018-09-09T09:50:31Z</time>
      </trkpt>
      <trkpt lat="45.21868" lon="6.34487">
        <ele>1512.89</ele>
        <time>2018-09-09T09:50:33Z</time>
      </trkpt>
      <trkpt lat="45.21849" lon="6.34512">
        <ele>1510.18</ele>
        <time>2018-09-09T09:50:35Z</time>
      </trkpt>
      <trkpt lat="45.21832" lon="6.34544">
        <ele>1508.6</ele>
        <time>2018-09-09T09:50:37Z</time>
      </trkpt>
      <trkpt lat="45.21816" lon="6.34576">
        <ele>1507.55</ele>
        <time>2018-09-09T09:50:39Z</time>
      </trkpt>
      <trkpt lat="45.218" lon="6.34613">
        <ele>1506.54</ele>
        <time>2018-09-09T09:50:41Z</time>
      </trkpt>
      <trkpt lat="45.21791" lon="6.34655">
        <ele>1505.54</ele>
        <time>2018-09-09T09:50:43Z</time>
      </trkpt>
      <trkpt lat="45.21782" lon="6.347">
        <ele>1504.54</ele>
        <time>2018-09-09T09:50:45Z</time>
      </trkpt>
      <trkpt lat="45.21778" lon="6.3474">
        <ele>1504.45</ele>
        <time>2018-09-09T09:50:47Z</time>
      </trkpt>
      <trkpt lat="45.21777" lon="6.34779">
        <ele>1502.84</ele>
        <time>2018-09-09T09:50:49Z</time>
      </trkpt>
      <trkpt lat="45.21781" lon="6.34818">
        <ele>1501.57</ele>
        <time>2018-09-09T09:50:51Z</time>
      </trkpt>
      <trkpt lat="45.2179" lon="6.34859">
        <ele>1500.55</ele>
        <time>2018-09-09T09:50:53Z</time>
      </trkpt>
      <trkpt lat="45.21805" lon="6.34896">
        <ele>1500.45</ele>
        <time>2018-09-09T09:50:55Z</time>
      </trkpt>
      <trkpt lat="45.21824" lon="6.3493">
        <ele>1499.75</ele>
        <time>2018-09-09T09:50:57Z</time>
      </trkpt>
      <trkpt lat="45.21847" lon="6.34959">
        <ele>1499.47</ele>
        <time>2018-09-09T09:50:59Z</time>
      </trkpt>
      <trkpt lat="45.2187" lon="6.34983">
        <ele>1499.45</ele>
        <time>2018-09-09T09:51:01Z</time>
      </trkpt>
      <trkpt lat="45.21883" lon="6.35008">
        <ele>1499.45</ele>
        <time>2018-09-09T09:51:03Z</time>
      </trkpt>
      <trkpt lat="45.21881" lon="6.35037">
        <ele>1499.23</ele>
        <time>2018-09-09T09:51:05Z</time>
      </trkpt>
      <trkpt lat="45.21865" lon="6.35066">
        <ele>1497.82</ele>
        <time>2018-09-09T09:51:07Z</time>
      </trkpt>
      <trkpt lat="45.21844" lon="6.35094">
        <ele>1496.78</ele>
        <time>2018-09-09T09:51:09Z</time>
      </trkpt>
      <trkpt lat="45.21827" lon="6.35125">
        <ele>1495.78</ele>
        <time>2018-09-09T09:51:11Z</time>
      </trkpt>
      <trkpt lat="45.21819" lon="6.35162">
        <ele>1495.47</ele>
        <time>2018-09-09T09:51:13Z</time>
      </trkpt>
      <trkpt lat="45.21815" lon="6.35202">
        <ele>1495.45</ele>
        <time>2018-09-09T09:51:15Z</time>
      </trkpt>
      <trkpt lat="45.21811" lon="6.35241">
        <ele>1496.15</ele>
        <time>2018-09-09T09:51:17Z</time>
      </trkpt>
      <trkpt lat="45.21817" lon="6.35275">
        <ele>1497.12</ele>
        <time>2018-09-09T09:51:19Z</time>
      </trkpt>
      <trkpt lat="45.21838" lon="6.35299">
        <ele>1499.03</ele>
        <time>2018-09-09T09:51:21Z</time>
      </trkpt>
      <trkpt lat="45.21862" lon="6.35319">
        <ele>1499.41</ele>
        <time>2018-09-09T09:51:23Z</time>
      </trkpt>
      <trkpt lat="45.21888" lon="6.35342">
        <ele>1501.05</ele>
        <time>2018-09-09T09:51:25Z</time>
      </trkpt>
      <trkpt lat="45.21912" lon="6.35354">
        <ele>1501.41</ele>
        <time>2018-09-09T09:51:27Z</time>
      </trkpt>
      <trkpt lat="45.21935" lon="6.35348">
        <ele>1502.35</ele>
        <time>2018-09-09T09:51:29Z</time>
      </trkpt>
      <trkpt lat="45.21963" lon="6.35342">
        <ele>1501.74</ele>
        <time>2018-09-09T09:51:31Z</time>
      </trkpt>
      <trkpt lat="45.21995" lon="6.35344">
        <ele>1499.86</ele>
        <time>2018-09-09T09:51:33Z</time>
      </trkpt>
      <trkpt lat="45.22025" lon="6.3535">
        <ele>1496.75</ele>
        <time>2018-09-09T09:51:35Z</time>
      </trkpt>
      <trkpt lat="45.22053" lon="6.35358">
        <ele>1494.86</ele>
        <time>2018-09-09T09:51:37Z</time>
      </trkpt>
      <trkpt lat="45.22076" lon="6.35387">
        <ele>1491.96</ele>
        <time>2018-09-09T09:51:39Z</time>
      </trkpt>
      <trkpt lat="45.221" lon="6.35412">
        <ele>1489.39</ele>
        <time>2018-09-09T09:51:41Z</time>
      </trkpt>
      <trkpt lat="45.2212" lon="6.35436">
        <ele>1486.22</ele>
        <time>2018-09-09T09:51:43Z</time>
      </trkpt>
      <trkpt lat="45.22141" lon="6.35455">
        <ele>1482.29</ele>
        <time>2018-09-09T09:51:45Z</time>
      </trkpt>
      <trkpt lat="45.22168" lon="6.35461">
        <ele>1480.61</ele>
        <time>2018-09-09T09:51:47Z</time>
      </trkpt>
      <trkpt lat="45.222" lon="6.35463">
        <ele>1477.24</ele>
        <time>2018-09-09T09:51:49Z</time>
      </trkpt>
      <trkpt lat="45.22232" lon="6.35465">
        <ele>1474.21</ele>
        <time>2018-09-09T09:51:51Z</time>
      </trkpt>
      <trkpt lat="45.22263" lon="6.35467">
        <ele>1471.2</ele>
        <time>2018-09-09T09:51:53Z</time>
      </trkpt>
      <trkpt lat="45.22293" lon="6.35468">
        <ele>1468.9</ele>
        <time>2018-09-09T09:51:55Z</time>
      </trkpt>
      <trkpt lat="45.22323" lon="6.35468">
        <ele>1466.88</ele>
        <time>2018-09-09T09:51:57Z</time>
      </trkpt>
      <trkpt lat="45.22352" lon="6.35468">
        <ele>1463.26</ele>
        <time>2018-09-09T09:51:59Z</time>
      </trkpt>
      <trkpt lat="45.22382" lon="6.35472">
        <ele>1460.91</ele>
        <time>2018-09-09T09:52:01Z</time>
      </trkpt>
      <trkpt lat="45.22411" lon="6.35473">
        <ele>1460.49</ele>
        <time>2018-09-09T09:52:03Z</time>
      </trkpt>
      <trkpt lat="45.22436" lon="6.35467">
        <ele>1459.75</ele>
        <time>2018-09-09T09:52:05Z</time>
      </trkpt>
      <trkpt lat="45.22445" lon="6.35425">
        <ele>1457.16</ele>
        <time>2018-09-09T09:52:07Z</time>
      </trkpt>
      <trkpt lat="45.22466" lon="6.35409">
        <ele>1454.9</ele>
        <time>2018-09-09T09:52:09Z</time>
      </trkpt>
      <trkpt lat="45.22495" lon="6.35407">
        <ele>1452.18</ele>
        <time>2018-09-09T09:52:11Z</time>
      </trkpt>
      <trkpt lat="45.22525" lon="6.35402">
        <ele>1448.29</ele>
        <time>2018-09-09T09:52:13Z</time>
      </trkpt>
      <trkpt lat="45.22553" lon="6.35407">
        <ele>1445.91</ele>
        <time>2018-09-09T09:52:15Z</time>
      </trkpt>
      <trkpt lat="45.22578" lon="6.35428">
        <ele>1444.79</ele>
        <time>2018-09-09T09:52:17Z</time>
      </trkpt>
      <trkpt lat="45.22603" lon="6.35451">
        <ele>1442.87</ele>
        <time>2018-09-09T09:52:19Z</time>
      </trkpt>
      <trkpt lat="45.22625" lon="6.35477">
        <ele>1442.69</ele>
        <time>2018-09-09T09:52:21Z</time>
      </trkpt>
      <trkpt lat="45.22634" lon="6.35516">
        <ele>1441.77</ele>
        <time>2018-09-09T09:52:23Z</time>
      </trkpt>
      <trkpt lat="45.22644" lon="6.3555">
        <ele>1440.56</ele>
        <time>2018-09-09T09:52:25Z</time>
      </trkpt>
      <trkpt lat="45.22643" lon="6.35587">
        <ele>1438.36</ele>
        <time>2018-09-09T09:52:27Z</time>
      </trkpt>
      <trkpt lat="45.22639" lon="6.35624">
        <ele>1435.92</ele>
        <time>2018-09-09T09:52:29Z</time>
      </trkpt>
      <trkpt lat="45.22634" lon="6.35657">
        <ele>1432.97</ele>
        <time>2018-09-09T09:52:31Z</time>
      </trkpt>
      <trkpt lat="45.22626" lon="6.35687">
        <ele>1429.06</ele>
        <time>2018-09-09T09:52:33Z</time>
      </trkpt>
      <trkpt lat="45.22622" lon="6.35716">
        <ele>1426.89</ele>
        <time>2018-09-09T09:52:35Z</time>
      </trkpt>
      <trkpt lat="45.2263" lon="6.35741">
        <ele>1423.97</ele>
        <time>2018-09-09T09:52:37Z</time>
      </trkpt>
      <trkpt lat="45.22648" lon="6.35759">
        <ele>1421.88</ele>
        <time>2018-09-09T09:52:39Z</time>
      </trkpt>
      <trkpt lat="45.22671" lon="6.35774">
        <ele>1422.18</ele>
        <time>2018-09-09T09:52:41Z</time>
      </trkpt>
      <trkpt lat="45.22693" lon="6.35773">
        <ele>1424.94</ele>
        <time>2018-09-09T09:52:43Z</time>
      </trkpt>
      <trkpt lat="45.22712" lon="6.35749">
        <ele>1427.01</ele>
        <time>2018-09-09T09:52:45Z</time>
      </trkpt>
      <trkpt lat="45.22728" lon="6.35718">
        <ele>1426.71</ele>
        <time>2018-09-09T09:52:47Z</time>
      </trkpt>
      <trkpt lat="45.22743" lon="6.35685">
        <ele>1426.26</ele>
        <time>2018-09-09T09:52:49Z</time>
      </trkpt>
      <trkpt lat="45.2276" lon="6.35655">
        <ele>1426.43</ele>
        <time>2018-09-09T09:52:51Z</time>
      </trkpt>
      <trkpt lat="45.2278" lon="6.35632">
        <ele>1427.35</ele>
        <time>2018-09-09T09:52:53Z</time>
      </trkpt>
      <trkpt lat="45.22798" lon="6.35608">
        <ele>1426.53</ele>
        <time>2018-09-09T09:52:55Z</time>
      </trkpt>
      <trkpt lat="45.22817" lon="6.3559">
        <ele>1424.84</ele>
        <time>2018-09-09T09:52:57Z</time>
      </trkpt>
      <trkpt lat="45.22836" lon="6.3559">
        <ele>1423.78</ele>
        <time>2018-09-09T09:52:59Z</time>
      </trkpt>
      <trkpt lat="45.22856" lon="6.35603">
        <ele>1422.78</ele>
        <time>2018-09-09T09:53:01Z</time>
      </trkpt>
      <trkpt lat="45.22881" lon="6.35616">
        <ele>1421.56</ele>
        <time>2018-09-09T09:53:03Z</time>
      </trkpt>
      <trkpt lat="45.22907" lon="6.3562">
        <ele>1420.55</ele>
        <time>2018-09-09T09:53:05Z</time>
      </trkpt>
      <trkpt lat="45.22933" lon="6.35612">
        <ele>1421.36</ele>
        <time>2018-09-09T09:53:07Z</time>
      </trkpt>
      <trkpt lat="45.22963" lon="6.35605">
        <ele>1419.62</ele>
        <time>2018-09-09T09:53:09Z</time>
      </trkpt>
      <trkpt lat="45.22989" lon="6.35602">
        <ele>1416.94</ele>
        <time>2018-09-09T09:53:11Z</time>
      </trkpt>
      <trkpt lat="45.23009" lon="6.35598">
        <ele>1415.58</ele>
        <time>2018-09-09T09:53:13Z</time>
      </trkpt>
      <trkpt lat="45.23032" lon="6.35581">
        <ele>1414.48</ele>
        <time>2018-09-09T09:53:16Z</time>
      </trkpt>
      <trkpt lat="45.23049" lon="6.35562">
        <ele>1413.54</ele>
        <time>2018-09-09T09:53:18Z</time>
      </trkpt>
      <trkpt lat="45.23069" lon="6.35538">
        <ele>1411.63</ele>
        <time>2018-09-09T09:53:20Z</time>
      </trkpt>
      <trkpt lat="45.23088" lon="6.35508">
        <ele>1411.46</ele>
        <time>2018-09-09T09:53:22Z</time>
      </trkpt>
      <trkpt lat="45.23105" lon="6.35482">
        <ele>1412.36</ele>
        <time>2018-09-09T09:53:24Z</time>
      </trkpt>
      <trkpt lat="45.23122" lon="6.35468">
        <ele>1410.83</ele>
        <time>2018-09-09T09:53:26Z</time>
      </trkpt>
      <trkpt lat="45.23144" lon="6.35472">
        <ele>1409.36</ele>
        <time>2018-09-09T09:53:28Z</time>
      </trkpt>
      <trkpt lat="45.23166" lon="6.3549">
        <ele>1408.53</ele>
        <time>2018-09-09T09:53:30Z</time>
      </trkpt>
      <trkpt lat="45.23189" lon="6.35519">
        <ele>1406.84</ele>
        <time>2018-09-09T09:53:32Z</time>
      </trkpt>
      <trkpt lat="45.23209" lon="6.35553">
        <ele>1405.78</ele>
        <time>2018-09-09T09:53:34Z</time>
      </trkpt>
      <trkpt lat="45.23228" lon="6.3558">
        <ele>1403.87</ele>
        <time>2018-09-09T09:53:36Z</time>
      </trkpt>
      <trkpt lat="45.23242" lon="6.35604">
        <ele>1402.78</ele>
        <time>2018-09-09T09:53:38Z</time>
      </trkpt>
      <trkpt lat="45.23263" lon="6.35612">
        <ele>1401.75</ele>
        <time>2018-09-09T09:53:41Z</time>
      </trkpt>
      <trkpt lat="45.23274" lon="6.35591">
        <ele>1402.38</ele>
        <time>2018-09-09T09:53:43Z</time>
      </trkpt>
      <trkpt lat="45.23285" lon="6.35564">
        <ele>1401.04</ele>
        <time>2018-09-09T09:53:45Z</time>
      </trkpt>
      <trkpt lat="45.23305" lon="6.35539">
        <ele>1399.8</ele>
        <time>2018-09-09T09:53:47Z</time>
      </trkpt>
      <trkpt lat="45.2333" lon="6.35515">
        <ele>1397.87</ele>
        <time>2018-09-09T09:53:49Z</time>
      </trkpt>
      <trkpt lat="45.23358" lon="6.35492">
        <ele>1396.57</ele>
        <time>2018-09-09T09:53:51Z</time>
      </trkpt>
      <trkpt lat="45.23384" lon="6.35466">
        <ele>1393.94</ele>
        <time>2018-09-09T09:53:53Z</time>
      </trkpt>
      <trkpt lat="45.23405" lon="6.35435">
        <ele>1392.58</ele>
        <time>2018-09-09T09:53:55Z</time>
      </trkpt>
      <trkpt lat="45.23422" lon="6.35406">
        <ele>1390.85</ele>
        <time>2018-09-09T09:53:57Z</time>
      </trkpt>
      <trkpt lat="45.23445" lon="6.35386">
        <ele>1389.57</ele>
        <time>2018-09-09T09:53:59Z</time>
      </trkpt>
      <trkpt lat="45.23471" lon="6.35363">
        <ele>1386.73</ele>
        <time>2018-09-09T09:54:01Z</time>
      </trkpt>
      <trkpt lat="45.23494" lon="6.35331">
        <ele>1384.86</ele>
        <time>2018-09-09T09:54:03Z</time>
      </trkpt>
      <trkpt lat="45.23512" lon="6.35293">
        <ele>1382.87</ele>
        <time>2018-09-09T09:54:05Z</time>
      </trkpt>
      <trkpt lat="45.23524" lon="6.35249">
        <ele>1380.87</ele>
        <time>2018-09-09T09:54:07Z</time>
      </trkpt>
      <trkpt lat="45.23538" lon="6.35215">
        <ele>1379.78</ele>
        <time>2018-09-09T09:54:09Z</time>
      </trkpt>
      <trkpt lat="45.2356" lon="6.35195">
        <ele>1379.48</ele>
        <time>2018-09-09T09:54:11Z</time>
      </trkpt>
      <trkpt lat="45.23585" lon="6.35168">
        <ele>1381.06</ele>
        <time>2018-09-09T09:54:13Z</time>
      </trkpt>
      <trkpt lat="45.23612" lon="6.3514">
        <ele>1383.02</ele>
        <time>2018-09-09T09:54:15Z</time>
      </trkpt>
      <trkpt lat="45.23643" lon="6.35117">
        <ele>1383.41</ele>
        <time>2018-09-09T09:54:17Z</time>
      </trkpt>
      <trkpt lat="45.23674" lon="6.35096">
        <ele>1383.44</ele>
        <time>2018-09-09T09:54:19Z</time>
      </trkpt>
      <trkpt lat="45.23699" lon="6.35077">
        <ele>1383.44</ele>
        <time>2018-09-09T09:54:21Z</time>
      </trkpt>
      <trkpt lat="45.23723" lon="6.35061">
        <ele>1381.83</ele>
        <time>2018-09-09T09:54:23Z</time>
      </trkpt>
      <trkpt lat="45.2375" lon="6.35058">
        <ele>1379.87</ele>
        <time>2018-09-09T09:54:25Z</time>
      </trkpt>
      <trkpt lat="45.2378" lon="6.35067">
        <ele>1376.96</ele>
        <time>2018-09-09T09:54:27Z</time>
      </trkpt>
      <trkpt lat="45.23807" lon="6.35088">
        <ele>1374.88</ele>
        <time>2018-09-09T09:54:29Z</time>
      </trkpt>
      <trkpt lat="45.23835" lon="6.35113">
        <ele>1372.17</ele>
        <time>2018-09-09T09:54:31Z</time>
      </trkpt>
      <trkpt lat="45.23867" lon="6.35126">
        <ele>1370.6</ele>
        <time>2018-09-09T09:54:33Z</time>
      </trkpt>
      <trkpt lat="45.23902" lon="6.3513">
        <ele>1369.55</ele>
        <time>2018-09-09T09:54:35Z</time>
      </trkpt>
      <trkpt lat="45.2392" lon="6.35128">
        <ele>1368.08</ele>
        <time>2018-09-09T09:54:36Z</time>
      </trkpt>
      <trkpt lat="45.23939" lon="6.35125">
        <ele>1366.93</ele>
        <time>2018-09-09T09:54:37Z</time>
      </trkpt>
      <trkpt lat="45.23957" lon="6.3512">
        <ele>1365.89</ele>
        <time>2018-09-09T09:54:38Z</time>
      </trkpt>
      <trkpt lat="45.23991" lon="6.3511">
        <ele>1364.79</ele>
        <time>2018-09-09T09:54:40Z</time>
      </trkpt>
      <trkpt lat="45.24025" lon="6.35106">
        <ele>1364.48</ele>
        <time>2018-09-09T09:54:42Z</time>
      </trkpt>
      <trkpt lat="45.24058" lon="6.35112">
        <ele>1363.75</ele>
        <time>2018-09-09T09:54:44Z</time>
      </trkpt>
      <trkpt lat="45.24092" lon="6.35117">
        <ele>1363.47</ele>
        <time>2018-09-09T09:54:46Z</time>
      </trkpt>
      <trkpt lat="45.24126" lon="6.35125">
        <ele>1361.84</ele>
        <time>2018-09-09T09:54:48Z</time>
      </trkpt>
      <trkpt lat="45.24154" lon="6.35147">
        <ele>1361.48</ele>
        <time>2018-09-09T09:54:50Z</time>
      </trkpt>
      <trkpt lat="45.24179" lon="6.35173">
        <ele>1361.66</ele>
        <time>2018-09-09T09:54:52Z</time>
      </trkpt>
      <trkpt lat="45.24205" lon="6.35196">
        <ele>1360.76</ele>
        <time>2018-09-09T09:54:54Z</time>
      </trkpt>
      <trkpt lat="45.24236" lon="6.3521">
        <ele>1359.56</ele>
        <time>2018-09-09T09:54:56Z</time>
      </trkpt>
      <trkpt lat="45.24268" lon="6.3522">
        <ele>1360.16</ele>
        <time>2018-09-09T09:54:58Z</time>
      </trkpt>
      <trkpt lat="45.243" lon="6.3523">
        <ele>1361.33</ele>
        <time>2018-09-09T09:55:00Z</time>
      </trkpt>
      <trkpt lat="45.2433" lon="6.3524">
        <ele>1361.43</ele>
        <time>2018-09-09T09:55:02Z</time>
      </trkpt>
      <trkpt lat="45.24359" lon="6.35248">
        <ele>1362.14</ele>
        <time>2018-09-09T09:55:04Z</time>
      </trkpt>
      <trkpt lat="45.24384" lon="6.3525">
        <ele>1364.24</ele>
        <time>2018-09-09T09:55:06Z</time>
      </trkpt>
      <trkpt lat="45.24407" lon="6.35242">
        <ele>1365.34</ele>
        <time>2018-09-09T09:55:08Z</time>
      </trkpt>
      <trkpt lat="45.24427" lon="6.35226">
        <ele>1366.42</ele>
        <time>2018-09-09T09:55:11Z</time>
      </trkpt>
      <trkpt lat="45.24443" lon="6.35206">
        <ele>1367.35</ele>
        <time>2018-09-09T09:55:14Z</time>
      </trkpt>
      <trkpt lat="45.24462" lon="6.35179">
        <ele>1366.53</ele>
        <time>2018-09-09T09:55:17Z</time>
      </trkpt>
      <trkpt lat="45.24476" lon="6.35164">
        <ele>1365.54</ele>
        <time>2018-09-09T09:55:19Z</time>
      </trkpt>
      <trkpt lat="45.24496" lon="6.35145">
        <ele>1364.54</ele>
        <time>2018-09-09T09:55:22Z</time>
      </trkpt>
      <trkpt lat="45.24516" lon="6.35151">
        <ele>1364.45</ele>
        <time>2018-09-09T09:55:25Z</time>
      </trkpt>
      <trkpt lat="45.24538" lon="6.35173">
        <ele>1365.36</ele>
        <time>2018-09-09T09:55:28Z</time>
      </trkpt>
      <trkpt lat="45.24557" lon="6.35191">
        <ele>1365.44</ele>
        <time>2018-09-09T09:55:30Z</time>
      </trkpt>
      <trkpt lat="45.24576" lon="6.3521">
        <ele>1365.44</ele>
        <time>2018-09-09T09:55:32Z</time>
      </trkpt>
      <trkpt lat="45.24597" lon="6.35229">
        <ele>1363.83</ele>
        <time>2018-09-09T09:55:34Z</time>
      </trkpt>
      <trkpt lat="45.24619" lon="6.35247">
        <ele>1362.78</ele>
        <time>2018-09-09T09:55:36Z</time>
      </trkpt>
      <trkpt lat="45.24643" lon="6.35263">
        <ele>1361.78</ele>
        <time>2018-09-09T09:55:38Z</time>
      </trkpt>
      <trkpt lat="45.2467" lon="6.35273">
        <ele>1360.07</ele>
        <time>2018-09-09T09:55:40Z</time>
      </trkpt>
      <trkpt lat="45.24697" lon="6.35288">
        <ele>1356.98</ele>
        <time>2018-09-09T09:55:42Z</time>
      </trkpt>
      <trkpt lat="45.24723" lon="6.35307">
        <ele>1354.88</ele>
        <time>2018-09-09T09:55:44Z</time>
      </trkpt>
      <trkpt lat="45.24749" lon="6.35328">
        <ele>1351.96</ele>
        <time>2018-09-09T09:55:46Z</time>
      </trkpt>
      <trkpt lat="45.24775" lon="6.35348">
        <ele>1350.79</ele>
        <time>2018-09-09T09:55:48Z</time>
      </trkpt>
      <trkpt lat="45.24801" lon="6.35368">
        <ele>1349.08</ele>
        <time>2018-09-09T09:55:50Z</time>
      </trkpt>
      <trkpt lat="45.24827" lon="6.35387">
        <ele>1346.89</ele>
        <time>2018-09-09T09:55:52Z</time>
      </trkpt>
      <trkpt lat="45.24849" lon="6.35404">
        <ele>1345.58</ele>
        <time>2018-09-09T09:55:54Z</time>
      </trkpt>
      <trkpt lat="45.2486" lon="6.35439">
        <ele>1341.96</ele>
        <time>2018-09-09T09:55:57Z</time>
      </trkpt>
      <trkpt lat="45.24855" lon="6.35472">
        <ele>1338.27</ele>
        <time>2018-09-09T09:55:59Z</time>
      </trkpt>
      <trkpt lat="45.24853" lon="6.35512">
        <ele>1335.91</ele>
        <time>2018-09-09T09:56:01Z</time>
      </trkpt>
      <trkpt lat="45.24851" lon="6.35558">
        <ele>1333.67</ele>
        <time>2018-09-09T09:56:03Z</time>
      </trkpt>
      <trkpt lat="45.24848" lon="6.35604">
        <ele>1331.15</ele>
        <time>2018-09-09T09:56:05Z</time>
      </trkpt>
      <trkpt lat="45.24844" lon="6.3565">
        <ele>1329.81</ele>
        <time>2018-09-09T09:56:07Z</time>
      </trkpt>
      <trkpt lat="45.24842" lon="6.3569">
        <ele>1327.87</ele>
        <time>2018-09-09T09:56:09Z</time>
      </trkpt>
      <trkpt lat="45.24856" lon="6.35714">
        <ele>1326.48</ele>
        <time>2018-09-09T09:56:12Z</time>
      </trkpt>
      <trkpt lat="45.24876" lon="6.35689">
        <ele>1325.81</ele>
        <time>2018-09-09T09:56:15Z</time>
      </trkpt>
      <trkpt lat="45.24889" lon="6.35666">
        <ele>1323.87</ele>
        <time>2018-09-09T09:56:17Z</time>
      </trkpt>
      <trkpt lat="45.24909" lon="6.35658">
        <ele>1321.87</ele>
        <time>2018-09-09T09:56:19Z</time>
      </trkpt>
      <trkpt lat="45.24929" lon="6.35671">
        <ele>1322.6</ele>
        <time>2018-09-09T09:56:21Z</time>
      </trkpt>
      <trkpt lat="45.24952" lon="6.35666">
        <ele>1320.15</ele>
        <time>2018-09-09T09:56:23Z</time>
      </trkpt>
      <trkpt lat="45.2498" lon="6.35644">
        <ele>1317.2</ele>
        <time>2018-09-09T09:56:25Z</time>
      </trkpt>
      <trkpt lat="45.24996" lon="6.35631">
        <ele>1315.27</ele>
        <time>2018-09-09T09:56:26Z</time>
      </trkpt>
      <trkpt lat="45.25012" lon="6.35618">
        <ele>1314.75</ele>
        <time>2018-09-09T09:56:27Z</time>
      </trkpt>
      <trkpt lat="45.25043" lon="6.35594">
        <ele>1312.03</ele>
        <time>2018-09-09T09:56:29Z</time>
      </trkpt>
      <trkpt lat="45.25074" lon="6.35571">
        <ele>1310.67</ele>
        <time>2018-09-09T09:56:31Z</time>
      </trkpt>
      <trkpt lat="45.25108" lon="6.35558">
        <ele>1309.84</ele>
        <time>2018-09-09T09:56:33Z</time>
      </trkpt>
      <trkpt lat="45.25139" lon="6.35545">
        <ele>1308.16</ele>
        <time>2018-09-09T09:56:35Z</time>
      </trkpt>
      <trkpt lat="45.25171" lon="6.35531">
        <ele>1307.8</ele>
        <time>2018-09-09T09:56:37Z</time>
      </trkpt>
      <trkpt lat="45.25199" lon="6.35514">
        <ele>1305.94</ele>
        <time>2018-09-09T09:56:39Z</time>
      </trkpt>
      <trkpt lat="45.25232" lon="6.35508">
        <ele>1302.35</ele>
        <time>2018-09-09T09:56:41Z</time>
      </trkpt>
      <trkpt lat="45.25266" lon="6.3551">
        <ele>1300.9</ele>
        <time>2018-09-09T09:56:43Z</time>
      </trkpt>
      <trkpt lat="45.25297" lon="6.35514">
        <ele>1299.86</ele>
        <time>2018-09-09T09:56:45Z</time>
      </trkpt>
      <trkpt lat="45.25324" lon="6.35511">
        <ele>1298.16</ele>
        <time>2018-09-09T09:56:47Z</time>
      </trkpt>
      <trkpt lat="45.25343" lon="6.35515">
        <ele>1293.66</ele>
        <time>2018-09-09T09:56:50Z</time>
      </trkpt>
      <trkpt lat="45.25327" lon="6.35541">
        <ele>1291.65</ele>
        <time>2018-09-09T09:56:53Z</time>
      </trkpt>
      <trkpt lat="45.25295" lon="6.35547">
        <ele>1288.74</ele>
        <time>2018-09-09T09:56:55Z</time>
      </trkpt>
      <trkpt lat="45.25263" lon="6.35562">
        <ele>1285.12</ele>
        <time>2018-09-09T09:56:57Z</time>
      </trkpt>
      <trkpt lat="45.25233" lon="6.35579">
        <ele>1282.06</ele>
        <time>2018-09-09T09:56:59Z</time>
      </trkpt>
      <trkpt lat="45.25201" lon="6.35599">
        <ele>1280.67</ele>
        <time>2018-09-09T09:57:01Z</time>
      </trkpt>
      <trkpt lat="45.25185" lon="6.3561">
        <ele>1279.87</ele>
        <time>2018-09-09T09:57:02Z</time>
      </trkpt>
      <trkpt lat="45.25156" lon="6.35638">
        <ele>1275.85</ele>
        <time>2018-09-09T09:57:04Z</time>
      </trkpt>
      <trkpt lat="45.25131" lon="6.35671">
        <ele>1273.95</ele>
        <time>2018-09-09T09:57:06Z</time>
      </trkpt>
      <trkpt lat="45.25113" lon="6.35709">
        <ele>1271.05</ele>
        <time>2018-09-09T09:57:08Z</time>
      </trkpt>
      <trkpt lat="45.25098" lon="6.35753">
        <ele>1267.29</ele>
        <time>2018-09-09T09:57:10Z</time>
      </trkpt>
      <trkpt lat="45.25085" lon="6.35795">
        <ele>1264.08</ele>
        <time>2018-09-09T09:57:12Z</time>
      </trkpt>
      <trkpt lat="45.25086" lon="6.3584">
        <ele>1262.67</ele>
        <time>2018-09-09T09:57:14Z</time>
      </trkpt>
      <trkpt lat="45.25084" lon="6.35876">
        <ele>1261.14</ele>
        <time>2018-09-09T09:57:16Z</time>
      </trkpt>
      <trkpt lat="45.25094" lon="6.35845">
        <ele>1255.89</ele>
        <time>2018-09-09T09:57:23Z</time>
      </trkpt>
      <trkpt lat="45.25104" lon="6.35817">
        <ele>1253.46</ele>
        <time>2018-09-09T09:57:25Z</time>
      </trkpt>
      <trkpt lat="45.2512" lon="6.35789">
        <ele>1251</ele>
        <time>2018-09-09T09:57:27Z</time>
      </trkpt>
      <trkpt lat="45.25134" lon="6.35765">
        <ele>1248.75</ele>
        <time>2018-09-09T09:57:29Z</time>
      </trkpt>
      <trkpt lat="45.25138" lon="6.35791">
        <ele>1243.65</ele>
        <time>2018-09-09T09:57:36Z</time>
      </trkpt>
      <trkpt lat="45.25129" lon="6.35814">
        <ele>1241.93</ele>
        <time>2018-09-09T09:57:38Z</time>
      </trkpt>
      <trkpt lat="45.25123" lon="6.35847">
        <ele>1239.75</ele>
        <time>2018-09-09T09:57:40Z</time>
      </trkpt>
      <trkpt lat="45.25119" lon="6.35886">
        <ele>1239.55</ele>
        <time>2018-09-09T09:57:42Z</time>
      </trkpt>
      <trkpt lat="45.25121" lon="6.35917">
        <ele>1237.86</ele>
        <time>2018-09-09T09:57:45Z</time>
      </trkpt>
      <trkpt lat="45.25138" lon="6.35903">
        <ele>1233.26</ele>
        <time>2018-09-09T09:57:49Z</time>
      </trkpt>
      <trkpt lat="45.25145" lon="6.3586">
        <ele>1232.11</ele>
        <time>2018-09-09T09:57:51Z</time>
      </trkpt>
      <trkpt lat="45.25154" lon="6.35817">
        <ele>1231.58</ele>
        <time>2018-09-09T09:57:53Z</time>
      </trkpt>
      <trkpt lat="45.25167" lon="6.35787">
        <ele>1229.72</ele>
        <time>2018-09-09T09:57:55Z</time>
      </trkpt>
      <trkpt lat="45.25182" lon="6.35762">
        <ele>1226.89</ele>
        <time>2018-09-09T09:57:58Z</time>
      </trkpt>
      <trkpt lat="45.25186" lon="6.35793">
        <ele>1225.2</ele>
        <time>2018-09-09T09:58:01Z</time>
      </trkpt>
      <trkpt lat="45.25177" lon="6.35819">
        <ele>1222.28</ele>
        <time>2018-09-09T09:58:03Z</time>
      </trkpt>
      <trkpt lat="45.25179" lon="6.35847">
        <ele>1222.46</ele>
        <time>2018-09-09T09:58:04Z</time>
      </trkpt>
      <trkpt lat="45.25183" lon="6.35875">
        <ele>1221.81</ele>
        <time>2018-09-09T09:58:05Z</time>
      </trkpt>
      <trkpt lat="45.25181" lon="6.35915">
        <ele>1220.86</ele>
        <time>2018-09-09T09:58:07Z</time>
      </trkpt>
      <trkpt lat="45.25167" lon="6.35943">
        <ele>1218.95</ele>
        <time>2018-09-09T09:58:09Z</time>
      </trkpt>
      <trkpt lat="45.25182" lon="6.35919">
        <ele>1213.45</ele>
        <time>2018-09-09T09:58:15Z</time>
      </trkpt>
      <trkpt lat="45.25195" lon="6.35886">
        <ele>1211.7</ele>
        <time>2018-09-09T09:58:17Z</time>
      </trkpt>
      <trkpt lat="45.25211" lon="6.35855">
        <ele>1209.24</ele>
        <time>2018-09-09T09:58:19Z</time>
      </trkpt>
      <trkpt lat="45.25222" lon="6.35823">
        <ele>1207.89</ele>
        <time>2018-09-09T09:58:21Z</time>
      </trkpt>
      <trkpt lat="45.25252" lon="6.35818">
        <ele>1205.74</ele>
        <time>2018-09-09T09:58:23Z</time>
      </trkpt>
      <trkpt lat="45.2527" lon="6.35818">
        <ele>1205.59</ele>
        <time>2018-09-09T09:58:24Z</time>
      </trkpt>
      <trkpt lat="45.25301" lon="6.35806">
        <ele>1204.14</ele>
        <time>2018-09-09T09:58:26Z</time>
      </trkpt>
      <trkpt lat="45.25317" lon="6.35796">
        <ele>1205.11</ele>
        <time>2018-09-09T09:58:27Z</time>
      </trkpt>
      <trkpt lat="45.25336" lon="6.35787">
        <ele>1206.11</ele>
        <time>2018-09-09T09:58:28Z</time>
      </trkpt>
      <trkpt lat="45.25369" lon="6.35782">
        <ele>1206.49</ele>
        <time>2018-09-09T09:58:30Z</time>
      </trkpt>
      <trkpt lat="45.25403" lon="6.35784">
        <ele>1203.31</ele>
        <time>2018-09-09T09:58:32Z</time>
      </trkpt>
      <trkpt lat="45.25435" lon="6.3578">
        <ele>1202.6</ele>
        <time>2018-09-09T09:58:34Z</time>
      </trkpt>
      <trkpt lat="45.25462" lon="6.35775">
        <ele>1200.72</ele>
        <time>2018-09-09T09:58:36Z</time>
      </trkpt>
      <trkpt lat="45.25485" lon="6.35759">
        <ele>1198.73</ele>
        <time>2018-09-09T09:58:38Z</time>
      </trkpt>
      <trkpt lat="45.25505" lon="6.35755">
        <ele>1197.07</ele>
        <time>2018-09-09T09:58:41Z</time>
      </trkpt>
      <trkpt lat="45.25485" lon="6.35771">
        <ele>1192.18</ele>
        <time>2018-09-09T09:58:45Z</time>
      </trkpt>
      <trkpt lat="45.25467" lon="6.35794">
        <ele>1190.68</ele>
        <time>2018-09-09T09:58:47Z</time>
      </trkpt>
      <trkpt lat="45.25436" lon="6.35819">
        <ele>1188.72</ele>
        <time>2018-09-09T09:58:49Z</time>
      </trkpt>
      <trkpt lat="45.25407" lon="6.35832">
        <ele>1184.91</ele>
        <time>2018-09-09T09:58:51Z</time>
      </trkpt>
      <trkpt lat="45.25383" lon="6.35859">
        <ele>1181.34</ele>
        <time>2018-09-09T09:58:53Z</time>
      </trkpt>
      <trkpt lat="45.25357" lon="6.35888">
        <ele>1177.59</ele>
        <time>2018-09-09T09:58:55Z</time>
      </trkpt>
      <trkpt lat="45.25334" lon="6.35921">
        <ele>1175.02</ele>
        <time>2018-09-09T09:58:57Z</time>
      </trkpt>
      <trkpt lat="45.25319" lon="6.35954">
        <ele>1170.02</ele>
        <time>2018-09-09T09:58:59Z</time>
      </trkpt>
      <trkpt lat="45.25307" lon="6.35988">
        <ele>1168.67</ele>
        <time>2018-09-09T09:59:01Z</time>
      </trkpt>
      <trkpt lat="45.25292" lon="6.36022">
        <ele>1167.63</ele>
        <time>2018-09-09T09:59:03Z</time>
      </trkpt>
      <trkpt lat="45.25287" lon="6.36066">
        <ele>1164.04</ele>
        <time>2018-09-09T09:59:05Z</time>
      </trkpt>
      <trkpt lat="45.25285" lon="6.36107">
        <ele>1161.76</ele>
        <time>2018-09-09T09:59:07Z</time>
      </trkpt>
      <trkpt lat="45.25288" lon="6.36136">
        <ele>1159.65</ele>
        <time>2018-09-09T09:59:10Z</time>
      </trkpt>
      <trkpt lat="45.253" lon="6.36111">
        <ele>1156.25</ele>
        <time>2018-09-09T09:59:13Z</time>
      </trkpt>
      <trkpt lat="45.25303" lon="6.36075">
        <ele>1154.9</ele>
        <time>2018-09-09T09:59:15Z</time>
      </trkpt>
      <trkpt lat="45.25319" lon="6.36041">
        <ele>1153.86</ele>
        <time>2018-09-09T09:59:17Z</time>
      </trkpt>
      <trkpt lat="45.25342" lon="6.36013">
        <ele>1152.44</ele>
        <time>2018-09-09T09:59:19Z</time>
      </trkpt>
      <trkpt lat="45.25362" lon="6.35987">
        <ele>1148.39</ele>
        <time>2018-09-09T09:59:21Z</time>
      </trkpt>
      <trkpt lat="45.2538" lon="6.35968">
        <ele>1146.7</ele>
        <time>2018-09-09T09:59:23Z</time>
      </trkpt>
      <trkpt lat="45.25409" lon="6.35973">
        <ele>1144.24</ele>
        <time>2018-09-09T09:59:25Z</time>
      </trkpt>
      <trkpt lat="45.25434" lon="6.35971">
        <ele>1140.09</ele>
        <time>2018-09-09T09:59:27Z</time>
      </trkpt>
      <trkpt lat="45.25465" lon="6.3597">
        <ele>1136.36</ele>
        <time>2018-09-09T09:59:29Z</time>
      </trkpt>
      <trkpt lat="45.25494" lon="6.35959">
        <ele>1134.21</ele>
        <time>2018-09-09T09:59:31Z</time>
      </trkpt>
      <trkpt lat="45.25523" lon="6.35956">
        <ele>1129.46</ele>
        <time>2018-09-09T09:59:33Z</time>
      </trkpt>
      <trkpt lat="45.25546" lon="6.35944">
        <ele>1129.31</ele>
        <time>2018-09-09T09:59:35Z</time>
      </trkpt>
      <trkpt lat="45.25523" lon="6.35977">
        <ele>1126.22</ele>
        <time>2018-09-09T09:59:43Z</time>
      </trkpt>
      <trkpt lat="45.25494" lon="6.36008">
        <ele>1125.8</ele>
        <time>2018-09-09T09:59:45Z</time>
      </trkpt>
      <trkpt lat="45.25467" lon="6.36032">
        <ele>1124.86</ele>
        <time>2018-09-09T09:59:47Z</time>
      </trkpt>
      <trkpt lat="45.25447" lon="6.36048">
        <ele>1119.94</ele>
        <time>2018-09-09T09:59:49Z</time>
      </trkpt>
      <trkpt lat="45.25427" lon="6.36049">
        <ele>1119.57</ele>
        <time>2018-09-09T09:59:51Z</time>
      </trkpt>
      <trkpt lat="45.25408" lon="6.36064">
        <ele>1119.32</ele>
        <time>2018-09-09T09:59:53Z</time>
      </trkpt>
      <trkpt lat="45.25396" lon="6.36089">
        <ele>1119.3</ele>
        <time>2018-09-09T09:59:55Z</time>
      </trkpt>
      <trkpt lat="45.25411" lon="6.36121">
        <ele>1118.6</ele>
        <time>2018-09-09T09:59:57Z</time>
      </trkpt>
      <trkpt lat="45.25416" lon="6.36159">
        <ele>1118.33</ele>
        <time>2018-09-09T09:59:59Z</time>
      </trkpt>
      <trkpt lat="45.2541" lon="6.36195">
        <ele>1115.5</ele>
        <time>2018-09-09T10:00:01Z</time>
      </trkpt>
      <trkpt lat="45.25403" lon="6.36231">
        <ele>1113.22</ele>
        <time>2018-09-09T10:00:03Z</time>
      </trkpt>
      <trkpt lat="45.25387" lon="6.36261">
        <ele>1110.98</ele>
        <time>2018-09-09T10:00:05Z</time>
      </trkpt>
      <trkpt lat="45.25367" lon="6.36279">
        <ele>1112.39</ele>
        <time>2018-09-09T10:00:07Z</time>
      </trkpt>
      <trkpt lat="45.25351" lon="6.36297">
        <ele>1110.79</ele>
        <time>2018-09-09T10:00:10Z</time>
      </trkpt>
      <trkpt lat="45.25376" lon="6.36285">
        <ele>1111.25</ele>
        <time>2018-09-09T10:00:12Z</time>
      </trkpt>
      <trkpt lat="45.25407" lon="6.36266">
        <ele>1111.23</ele>
        <time>2018-09-09T10:00:14Z</time>
      </trkpt>
      <trkpt lat="45.2543" lon="6.3625">
        <ele>1108.28</ele>
        <time>2018-09-09T10:00:16Z</time>
      </trkpt>
      <trkpt lat="45.25447" lon="6.36233">
        <ele>1104.87</ele>
        <time>2018-09-09T10:00:18Z</time>
      </trkpt>
      <trkpt lat="45.25461" lon="6.36214">
        <ele>1103.86</ele>
        <time>2018-09-09T10:00:20Z</time>
      </trkpt>
      <trkpt lat="45.25459" lon="6.36181">
        <ele>1101.66</ele>
        <time>2018-09-09T10:00:23Z</time>
      </trkpt>
      <trkpt lat="45.25467" lon="6.36216">
        <ele>1097.11</ele>
        <time>2018-09-09T10:00:28Z</time>
      </trkpt>
      <trkpt lat="45.25456" lon="6.36241">
        <ele>1093.36</ele>
        <time>2018-09-09T10:00:30Z</time>
      </trkpt>
      <trkpt lat="45.25438" lon="6.36255">
        <ele>1089.98</ele>
        <time>2018-09-09T10:00:31Z</time>
      </trkpt>
      <trkpt lat="45.25421" lon="6.36292">
        <ele>1084.04</ele>
        <time>2018-09-09T10:00:33Z</time>
      </trkpt>
      <trkpt lat="45.25399" lon="6.36326">
        <ele>1079.45</ele>
        <time>2018-09-09T10:00:35Z</time>
      </trkpt>
      <trkpt lat="45.25384" lon="6.36352">
        <ele>1076.09</ele>
        <time>2018-09-09T10:00:37Z</time>
      </trkpt>
      <trkpt lat="45.25374" lon="6.36373">
        <ele>1074.67</ele>
        <time>2018-09-09T10:00:39Z</time>
      </trkpt>
      <trkpt lat="45.25397" lon="6.3637">
        <ele>1073.13</ele>
        <time>2018-09-09T10:00:42Z</time>
      </trkpt>
      <trkpt lat="45.25415" lon="6.36346">
        <ele>1073.29</ele>
        <time>2018-09-09T10:00:44Z</time>
      </trkpt>
      <trkpt lat="45.25435" lon="6.3632">
        <ele>1074.42</ele>
        <time>2018-09-09T10:00:46Z</time>
      </trkpt>
      <trkpt lat="45.25452" lon="6.36307">
        <ele>1072</ele>
        <time>2018-09-09T10:00:48Z</time>
      </trkpt>
      <trkpt lat="45.25442" lon="6.36339">
        <ele>1070.13</ele>
        <time>2018-09-09T10:00:54Z</time>
      </trkpt>
      <trkpt lat="45.25426" lon="6.36369">
        <ele>1066.36</ele>
        <time>2018-09-09T10:00:56Z</time>
      </trkpt>
      <trkpt lat="45.25414" lon="6.36393">
        <ele>1064.91</ele>
        <time>2018-09-09T10:00:58Z</time>
      </trkpt>
      <trkpt lat="45.25445" lon="6.3637">
        <ele>1066.13</ele>
        <time>2018-09-09T10:01:04Z</time>
      </trkpt>
      <trkpt lat="45.25464" lon="6.36353">
        <ele>1063.07</ele>
        <time>2018-09-09T10:01:06Z</time>
      </trkpt>
      <trkpt lat="45.25462" lon="6.36384">
        <ele>1061.47</ele>
        <time>2018-09-09T10:01:11Z</time>
      </trkpt>
      <trkpt lat="45.25451" lon="6.36414">
        <ele>1060.83</ele>
        <time>2018-09-09T10:01:13Z</time>
      </trkpt>
      <trkpt lat="45.25431" lon="6.36441">
        <ele>1057.13</ele>
        <time>2018-09-09T10:01:15Z</time>
      </trkpt>
      <trkpt lat="45.25413" lon="6.36463">
        <ele>1056.58</ele>
        <time>2018-09-09T10:01:17Z</time>
      </trkpt>
      <trkpt lat="45.25425" lon="6.36486">
        <ele>1053.95</ele>
        <time>2018-09-09T10:01:22Z</time>
      </trkpt>
      <trkpt lat="45.2544" lon="6.3647">
        <ele>1055.18</ele>
        <time>2018-09-09T10:01:24Z</time>
      </trkpt>
      <trkpt lat="45.25454" lon="6.36434">
        <ele>1052.63</ele>
        <time>2018-09-09T10:01:25Z</time>
      </trkpt>
      <trkpt lat="45.25478" lon="6.36399">
        <ele>1047.71</ele>
        <time>2018-09-09T10:01:27Z</time>
      </trkpt>
      <trkpt lat="45.25498" lon="6.36374">
        <ele>1045.73</ele>
        <time>2018-09-09T10:01:29Z</time>
      </trkpt>
      <trkpt lat="45.25514" lon="6.36352">
        <ele>1043.45</ele>
        <time>2018-09-09T10:01:31Z</time>
      </trkpt>
      <trkpt lat="45.25533" lon="6.36353">
        <ele>1041.7</ele>
        <time>2018-09-09T10:01:33Z</time>
      </trkpt>
      <trkpt lat="45.2552" lon="6.36385">
        <ele>1038.6</ele>
        <time>2018-09-09T10:01:36Z</time>
      </trkpt>
      <trkpt lat="45.25487" lon="6.36413">
        <ele>1035.53</ele>
        <time>2018-09-09T10:01:38Z</time>
      </trkpt>
      <trkpt lat="45.25472" lon="6.36449">
        <ele>1030.21</ele>
        <time>2018-09-09T10:01:40Z</time>
      </trkpt>
      <trkpt lat="45.25455" lon="6.36483">
        <ele>1027.98</ele>
        <time>2018-09-09T10:01:42Z</time>
      </trkpt>
      <trkpt lat="45.25438" lon="6.36511">
        <ele>1027.36</ele>
        <time>2018-09-09T10:01:44Z</time>
      </trkpt>
      <trkpt lat="45.25428" lon="6.36533">
        <ele>1026.82</ele>
        <time>2018-09-09T10:01:46Z</time>
      </trkpt>
      <trkpt lat="45.25451" lon="6.36522">
        <ele>1028.5</ele>
        <time>2018-09-09T10:01:50Z</time>
      </trkpt>
      <trkpt lat="45.25465" lon="6.36494">
        <ele>1025.72</ele>
        <time>2018-09-09T10:01:51Z</time>
      </trkpt>
      <trkpt lat="45.25484" lon="6.36469">
        <ele>1024.85</ele>
        <time>2018-09-09T10:01:53Z</time>
      </trkpt>
      <trkpt lat="45.25509" lon="6.36444">
        <ele>1024.07</ele>
        <time>2018-09-09T10:01:55Z</time>
      </trkpt>
      <trkpt lat="45.25533" lon="6.36419">
        <ele>1022.67</ele>
        <time>2018-09-09T10:01:57Z</time>
      </trkpt>
      <trkpt lat="45.25555" lon="6.36395">
        <ele>1022.54</ele>
        <time>2018-09-09T10:01:59Z</time>
      </trkpt>
      <trkpt lat="45.25573" lon="6.36376">
        <ele>1021.83</ele>
        <time>2018-09-09T10:02:01Z</time>
      </trkpt>
      <trkpt lat="45.25588" lon="6.36351">
        <ele>1021.28</ele>
        <time>2018-09-09T10:02:03Z</time>
      </trkpt>
      <trkpt lat="45.25598" lon="6.36325">
        <ele>1018.99</ele>
        <time>2018-09-09T10:02:05Z</time>
      </trkpt>
      <trkpt lat="45.25606" lon="6.36299">
        <ele>1018.57</ele>
        <time>2018-09-09T10:02:07Z</time>
      </trkpt>
      <trkpt lat="45.25604" lon="6.36339">
        <ele>1015.66</ele>
        <time>2018-09-09T10:02:12Z</time>
      </trkpt>
      <trkpt lat="45.25603" lon="6.36364">
        <ele>1016.27</ele>
        <time>2018-09-09T10:02:13Z</time>
      </trkpt>
      <trkpt lat="45.25591" lon="6.36397">
        <ele>1014.2</ele>
        <time>2018-09-09T10:02:15Z</time>
      </trkpt>
      <trkpt lat="45.25571" lon="6.36426">
        <ele>1010.58</ele>
        <time>2018-09-09T10:02:17Z</time>
      </trkpt>
      <trkpt lat="45.25556" lon="6.36464">
        <ele>1006.41</ele>
        <time>2018-09-09T10:02:19Z</time>
      </trkpt>
      <trkpt lat="45.25539" lon="6.36499">
        <ele>1004</ele>
        <time>2018-09-09T10:02:21Z</time>
      </trkpt>
      <trkpt lat="45.25524" lon="6.36532">
        <ele>1000.77</ele>
        <time>2018-09-09T10:02:23Z</time>
      </trkpt>
      <trkpt lat="45.2552" lon="6.36562">
        <ele>999.85</ele>
        <time>2018-09-09T10:02:25Z</time>
      </trkpt>
      <trkpt lat="45.25519" lon="6.36591">
        <ele>997.74</ele>
        <time>2018-09-09T10:02:27Z</time>
      </trkpt>
      <trkpt lat="45.25534" lon="6.36622">
        <ele>994.82</ele>
        <time>2018-09-09T10:02:29Z</time>
      </trkpt>
      <trkpt lat="45.25522" lon="6.36648">
        <ele>987.43</ele>
        <time>2018-09-09T10:02:32Z</time>
      </trkpt>
      <trkpt lat="45.25519" lon="6.36673">
        <ele>986.83</ele>
        <time>2018-09-09T10:02:36Z</time>
      </trkpt>
      <trkpt lat="45.25545" lon="6.36663">
        <ele>986.81</ele>
        <time>2018-09-09T10:02:39Z</time>
      </trkpt>
      <trkpt lat="45.25568" lon="6.36646">
        <ele>984.25</ele>
        <time>2018-09-09T10:02:41Z</time>
      </trkpt>
      <trkpt lat="45.25582" lon="6.36621">
        <ele>984.51</ele>
        <time>2018-09-09T10:02:43Z</time>
      </trkpt>
      <trkpt lat="45.25582" lon="6.36582">
        <ele>982.71</ele>
        <time>2018-09-09T10:02:45Z</time>
      </trkpt>
      <trkpt lat="45.25591" lon="6.36548">
        <ele>978.21</ele>
        <time>2018-09-09T10:02:47Z</time>
      </trkpt>
      <trkpt lat="45.25615" lon="6.36525">
        <ele>976.68</ele>
        <time>2018-09-09T10:02:49Z</time>
      </trkpt>
      <trkpt lat="45.2564" lon="6.36505">
        <ele>974.93</ele>
        <time>2018-09-09T10:02:51Z</time>
      </trkpt>
      <trkpt lat="45.25667" lon="6.36489">
        <ele>972.96</ele>
        <time>2018-09-09T10:02:53Z</time>
      </trkpt>
      <trkpt lat="45.25683" lon="6.3647">
        <ele>970.26</ele>
        <time>2018-09-09T10:02:55Z</time>
      </trkpt>
      <trkpt lat="45.25694" lon="6.36441">
        <ele>968.69</ele>
        <time>2018-09-09T10:02:57Z</time>
      </trkpt>
      <trkpt lat="45.25708" lon="6.36412">
        <ele>966.93</ele>
        <time>2018-09-09T10:02:59Z</time>
      </trkpt>
      <trkpt lat="45.25724" lon="6.36395">
        <ele>964.87</ele>
        <time>2018-09-09T10:03:02Z</time>
      </trkpt>
      <trkpt lat="45.25717" lon="6.3643">
        <ele>962.92</ele>
        <time>2018-09-09T10:03:06Z</time>
      </trkpt>
      <trkpt lat="45.25707" lon="6.36463">
        <ele>961.87</ele>
        <time>2018-09-09T10:03:08Z</time>
      </trkpt>
      <trkpt lat="45.25698" lon="6.36503">
        <ele>959.95</ele>
        <time>2018-09-09T10:03:10Z</time>
      </trkpt>
      <trkpt lat="45.2569" lon="6.36542">
        <ele>957.96</ele>
        <time>2018-09-09T10:03:12Z</time>
      </trkpt>
      <trkpt lat="45.2569" lon="6.36579">
        <ele>955.26</ele>
        <time>2018-09-09T10:03:14Z</time>
      </trkpt>
      <trkpt lat="45.257" lon="6.36612">
        <ele>953.69</ele>
        <time>2018-09-09T10:03:16Z</time>
      </trkpt>
      <trkpt lat="45.25714" lon="6.36629">
        <ele>951.93</ele>
        <time>2018-09-09T10:03:18Z</time>
      </trkpt>
      <trkpt lat="45.25733" lon="6.36621">
        <ele>949.66</ele>
        <time>2018-09-09T10:03:21Z</time>
      </trkpt>
      <trkpt lat="45.25741" lon="6.36587">
        <ele>945.34</ele>
        <time>2018-09-09T10:03:24Z</time>
      </trkpt>
      <trkpt lat="45.25763" lon="6.36565">
        <ele>944.06</ele>
        <time>2018-09-09T10:03:27Z</time>
      </trkpt>
      <trkpt lat="45.25771" lon="6.3654">
        <ele>943.58</ele>
        <time>2018-09-09T10:03:29Z</time>
      </trkpt>
      <trkpt lat="45.25776" lon="6.3651">
        <ele>939.77</ele>
        <time>2018-09-09T10:03:32Z</time>
      </trkpt>
      <trkpt lat="45.25785" lon="6.36535">
        <ele>935.75</ele>
        <time>2018-09-09T10:03:37Z</time>
      </trkpt>
      <trkpt lat="45.25787" lon="6.36573">
        <ele>933.73</ele>
        <time>2018-09-09T10:03:39Z</time>
      </trkpt>
      <trkpt lat="45.2581" lon="6.36586">
        <ele>932.42</ele>
        <time>2018-09-09T10:03:42Z</time>
      </trkpt>
      <trkpt lat="45.25821" lon="6.36566">
        <ele>930.92</ele>
        <time>2018-09-09T10:03:45Z</time>
      </trkpt>
      <trkpt lat="45.25814" lon="6.36531">
        <ele>932.18</ele>
        <time>2018-09-09T10:03:47Z</time>
      </trkpt>
      <trkpt lat="45.25818" lon="6.36494">
        <ele>932.29</ele>
        <time>2018-09-09T10:03:49Z</time>
      </trkpt>
      <trkpt lat="45.25827" lon="6.36471">
        <ele>930.2</ele>
        <time>2018-09-09T10:03:51Z</time>
      </trkpt>
      <trkpt lat="45.25848" lon="6.36473">
        <ele>929.82</ele>
        <time>2018-09-09T10:03:54Z</time>
      </trkpt>
      <trkpt lat="45.25866" lon="6.36484">
        <ele>929.56</ele>
        <time>2018-09-09T10:03:56Z</time>
      </trkpt>
      <trkpt lat="45.25882" lon="6.36466">
        <ele>928.13</ele>
        <time>2018-09-09T10:03:58Z</time>
      </trkpt>
      <trkpt lat="45.25903" lon="6.36439">
        <ele>926.19</ele>
        <time>2018-09-09T10:04:00Z</time>
      </trkpt>
      <trkpt lat="45.25928" lon="6.3641">
        <ele>923.77</ele>
        <time>2018-09-09T10:04:02Z</time>
      </trkpt>
      <trkpt lat="45.2595" lon="6.36382">
        <ele>921.94</ele>
        <time>2018-09-09T10:04:04Z</time>
      </trkpt>
      <trkpt lat="45.25973" lon="6.36353">
        <ele>919.26</ele>
        <time>2018-09-09T10:04:06Z</time>
      </trkpt>
      <trkpt lat="45.25993" lon="6.36326">
        <ele>915.59</ele>
        <time>2018-09-09T10:04:08Z</time>
      </trkpt>
      <trkpt lat="45.26022" lon="6.36315">
        <ele>909.8</ele>
        <time>2018-09-09T10:04:10Z</time>
      </trkpt>
      <trkpt lat="45.26046" lon="6.36301">
        <ele>907.94</ele>
        <time>2018-09-09T10:04:12Z</time>
      </trkpt>
      <trkpt lat="45.26064" lon="6.36285">
        <ele>907.82</ele>
        <time>2018-09-09T10:04:15Z</time>
      </trkpt>
      <trkpt lat="45.26054" lon="6.36315">
        <ele>905.63</ele>
        <time>2018-09-09T10:04:19Z</time>
      </trkpt>
      <trkpt lat="45.26031" lon="6.36335">
        <ele>903.93</ele>
        <time>2018-09-09T10:04:21Z</time>
      </trkpt>
      <trkpt lat="45.26012" lon="6.36359">
        <ele>901.96</ele>
        <time>2018-09-09T10:04:23Z</time>
      </trkpt>
      <trkpt lat="45.26" lon="6.36392">
        <ele>900.87</ele>
        <time>2018-09-09T10:04:25Z</time>
      </trkpt>
      <trkpt lat="45.25987" lon="6.3642">
        <ele>899.65</ele>
        <time>2018-09-09T10:04:27Z</time>
      </trkpt>
      <trkpt lat="45.25975" lon="6.36452">
        <ele>898.13</ele>
        <time>2018-09-09T10:04:30Z</time>
      </trkpt>
      <trkpt lat="45.25977" lon="6.3648">
        <ele>895.98</ele>
        <time>2018-09-09T10:04:32Z</time>
      </trkpt>
      <trkpt lat="45.25978" lon="6.36517">
        <ele>892.96</ele>
        <time>2018-09-09T10:04:35Z</time>
      </trkpt>
      <trkpt lat="45.25951" lon="6.36543">
        <ele>888.69</ele>
        <time>2018-09-09T10:04:38Z</time>
      </trkpt>
      <trkpt lat="45.25935" lon="6.36557">
        <ele>887.63</ele>
        <time>2018-09-09T10:04:40Z</time>
      </trkpt>
      <trkpt lat="45.25961" lon="6.36547">
        <ele>888.44</ele>
        <time>2018-09-09T10:04:45Z</time>
      </trkpt>
      <trkpt lat="45.25984" lon="6.36531">
        <ele>887.82</ele>
        <time>2018-09-09T10:04:47Z</time>
      </trkpt>
      <trkpt lat="45.26004" lon="6.3651">
        <ele>885.95</ele>
        <time>2018-09-09T10:04:49Z</time>
      </trkpt>
      <trkpt lat="45.26019" lon="6.36484">
        <ele>884.45</ele>
        <time>2018-09-09T10:04:51Z</time>
      </trkpt>
      <trkpt lat="45.26025" lon="6.36458">
        <ele>884.52</ele>
        <time>2018-09-09T10:04:53Z</time>
      </trkpt>
      <trkpt lat="45.26036" lon="6.36436">
        <ele>883.83</ele>
        <time>2018-09-09T10:04:55Z</time>
      </trkpt>
      <trkpt lat="45.26055" lon="6.36424">
        <ele>882.16</ele>
        <time>2018-09-09T10:04:57Z</time>
      </trkpt>
      <trkpt lat="45.26068" lon="6.36404">
        <ele>880.89</ele>
        <time>2018-09-09T10:04:59Z</time>
      </trkpt>
      <trkpt lat="45.26085" lon="6.36396">
        <ele>878.44</ele>
        <time>2018-09-09T10:05:02Z</time>
      </trkpt>
      <trkpt lat="45.26067" lon="6.36424">
        <ele>876.86</ele>
        <time>2018-09-09T10:05:05Z</time>
      </trkpt>
      <trkpt lat="45.26049" lon="6.36441">
        <ele>875.86</ele>
        <time>2018-09-09T10:05:07Z</time>
      </trkpt>
      <trkpt lat="45.26034" lon="6.36473">
        <ele>871.77</ele>
        <time>2018-09-09T10:05:10Z</time>
      </trkpt>
      <trkpt lat="45.26031" lon="6.36503">
        <ele>870.64</ele>
        <time>2018-09-09T10:05:12Z</time>
      </trkpt>
      <trkpt lat="45.26025" lon="6.36532">
        <ele>868.02</ele>
        <time>2018-09-09T10:05:14Z</time>
      </trkpt>
      <trkpt lat="45.26006" lon="6.36556">
        <ele>865.97</ele>
        <time>2018-09-09T10:05:16Z</time>
      </trkpt>
      <trkpt lat="45.25987" lon="6.36575">
        <ele>864.66</ele>
        <time>2018-09-09T10:05:18Z</time>
      </trkpt>
      <trkpt lat="45.25974" lon="6.36593">
        <ele>863.63</ele>
        <time>2018-09-09T10:05:20Z</time>
      </trkpt>
      <trkpt lat="45.26002" lon="6.36581">
        <ele>862.64</ele>
        <time>2018-09-09T10:05:24Z</time>
      </trkpt>
      <trkpt lat="45.26022" lon="6.36565">
        <ele>861.63</ele>
        <time>2018-09-09T10:05:26Z</time>
      </trkpt>
      <trkpt lat="45.2604" lon="6.36541">
        <ele>862.24</ele>
        <time>2018-09-09T10:05:28Z</time>
      </trkpt>
      <trkpt lat="45.26055" lon="6.36522">
        <ele>861.59</ele>
        <time>2018-09-09T10:05:30Z</time>
      </trkpt>
      <trkpt lat="45.26059" lon="6.36562">
        <ele>861.06</ele>
        <time>2018-09-09T10:05:35Z</time>
      </trkpt>
      <trkpt lat="45.26031" lon="6.36579">
        <ele>859.99</ele>
        <time>2018-09-09T10:05:36Z</time>
      </trkpt>
      <trkpt lat="45.26012" lon="6.36599">
        <ele>858.45</ele>
        <time>2018-09-09T10:05:38Z</time>
      </trkpt>
      <trkpt lat="45.26005" lon="6.36623">
        <ele>854.97</ele>
        <time>2018-09-09T10:05:41Z</time>
      </trkpt>
      <trkpt lat="45.26023" lon="6.36632">
        <ele>851.9</ele>
        <time>2018-09-09T10:05:44Z</time>
      </trkpt>
      <trkpt lat="45.26045" lon="6.36593">
        <ele>851.07</ele>
        <time>2018-09-09T10:05:46Z</time>
      </trkpt>
      <trkpt lat="45.26064" lon="6.36565">
        <ele>848.76</ele>
        <time>2018-09-09T10:05:48Z</time>
      </trkpt>
      <trkpt lat="45.26074" lon="6.36539">
        <ele>846.03</ele>
        <time>2018-09-09T10:05:50Z</time>
      </trkpt>
      <trkpt lat="45.26092" lon="6.3655">
        <ele>846.45</ele>
        <time>2018-09-09T10:05:54Z</time>
      </trkpt>
      <trkpt lat="45.26073" lon="6.36565">
        <ele>844</ele>
        <time>2018-09-09T10:05:56Z</time>
      </trkpt>
      <trkpt lat="45.26058" lon="6.36586">
        <ele>842.27</ele>
        <time>2018-09-09T10:05:57Z</time>
      </trkpt>
      <trkpt lat="45.26042" lon="6.36617">
        <ele>840.9</ele>
        <time>2018-09-09T10:05:59Z</time>
      </trkpt>
      <trkpt lat="45.26029" lon="6.36637">
        <ele>840.56</ele>
        <time>2018-09-09T10:06:01Z</time>
      </trkpt>
      <trkpt lat="45.26048" lon="6.36635">
        <ele>838.81</ele>
        <time>2018-09-09T10:06:07Z</time>
      </trkpt>
      <trkpt lat="45.26062" lon="6.36614">
        <ele>837.92</ele>
        <time>2018-09-09T10:06:08Z</time>
      </trkpt>
      <trkpt lat="45.26083" lon="6.36587">
        <ele>833.44</ele>
        <time>2018-09-09T10:06:10Z</time>
      </trkpt>
      <trkpt lat="45.26109" lon="6.36569">
        <ele>831</ele>
        <time>2018-09-09T10:06:12Z</time>
      </trkpt>
      <trkpt lat="45.26125" lon="6.36554">
        <ele>828.96</ele>
        <time>2018-09-09T10:06:14Z</time>
      </trkpt>
      <trkpt lat="45.26112" lon="6.36582">
        <ele>823.96</ele>
        <time>2018-09-09T10:06:20Z</time>
      </trkpt>
      <trkpt lat="45.26089" lon="6.36607">
        <ele>822.17</ele>
        <time>2018-09-09T10:06:22Z</time>
      </trkpt>
      <trkpt lat="45.26069" lon="6.36641">
        <ele>819.98</ele>
        <time>2018-09-09T10:06:24Z</time>
      </trkpt>
      <trkpt lat="45.26055" lon="6.3667">
        <ele>817.05</ele>
        <time>2018-09-09T10:06:26Z</time>
      </trkpt>
      <trkpt lat="45.26047" lon="6.36701">
        <ele>814.63</ele>
        <time>2018-09-09T10:06:30Z</time>
      </trkpt>
      <trkpt lat="45.2607" lon="6.36685">
        <ele>813.62</ele>
        <time>2018-09-09T10:06:33Z</time>
      </trkpt>
      <trkpt lat="45.26082" lon="6.36658">
        <ele>813.56</ele>
        <time>2018-09-09T10:06:34Z</time>
      </trkpt>
      <trkpt lat="45.26104" lon="6.36631">
        <ele>810.1</ele>
        <time>2018-09-09T10:06:36Z</time>
      </trkpt>
      <trkpt lat="45.2613" lon="6.36618">
        <ele>807.97</ele>
        <time>2018-09-09T10:06:38Z</time>
      </trkpt>
      <trkpt lat="45.26157" lon="6.36604">
        <ele>804.35</ele>
        <time>2018-09-09T10:06:40Z</time>
      </trkpt>
      <trkpt lat="45.26177" lon="6.36589">
        <ele>802.9</ele>
        <time>2018-09-09T10:06:42Z</time>
      </trkpt>
      <trkpt lat="45.26159" lon="6.36617">
        <ele>800.18</ele>
        <time>2018-09-09T10:06:49Z</time>
      </trkpt>
      <trkpt lat="45.26138" lon="6.36648">
        <ele>798.89</ele>
        <time>2018-09-09T10:06:51Z</time>
      </trkpt>
      <trkpt lat="45.26122" lon="6.36686">
        <ele>797.86</ele>
        <time>2018-09-09T10:06:53Z</time>
      </trkpt>
      <trkpt lat="45.26112" lon="6.36729">
        <ele>794.34</ele>
        <time>2018-09-09T10:06:55Z</time>
      </trkpt>
      <trkpt lat="45.26108" lon="6.36767">
        <ele>791.08</ele>
        <time>2018-09-09T10:06:57Z</time>
      </trkpt>
      <trkpt lat="45.2611" lon="6.36793">
        <ele>788.97</ele>
        <time>2018-09-09T10:06:59Z</time>
      </trkpt>
      <trkpt lat="45.2609" lon="6.36804">
        <ele>787.63</ele>
        <time>2018-09-09T10:07:02Z</time>
      </trkpt>
      <trkpt lat="45.26071" lon="6.368">
        <ele>785.93</ele>
        <time>2018-09-09T10:07:04Z</time>
      </trkpt>
      <trkpt lat="45.26063" lon="6.36824">
        <ele>783.63</ele>
        <time>2018-09-09T10:07:08Z</time>
      </trkpt>
      <trkpt lat="45.26081" lon="6.36824">
        <ele>783.56</ele>
        <time>2018-09-09T10:07:09Z</time>
      </trkpt>
      <trkpt lat="45.26105" lon="6.36832">
        <ele>781.22</ele>
        <time>2018-09-09T10:07:11Z</time>
      </trkpt>
      <trkpt lat="45.26132" lon="6.36837">
        <ele>778.98</ele>
        <time>2018-09-09T10:07:13Z</time>
      </trkpt>
      <trkpt lat="45.2615" lon="6.36828">
        <ele>778.57</ele>
        <time>2018-09-09T10:07:15Z</time>
      </trkpt>
      <trkpt lat="45.26168" lon="6.36799">
        <ele>776.92</ele>
        <time>2018-09-09T10:07:17Z</time>
      </trkpt>
      <trkpt lat="45.26189" lon="6.36765">
        <ele>773.14</ele>
        <time>2018-09-09T10:07:19Z</time>
      </trkpt>
      <trkpt lat="45.26203" lon="6.36739">
        <ele>770.77</ele>
        <time>2018-09-09T10:07:21Z</time>
      </trkpt>
      <trkpt lat="45.26209" lon="6.36764">
        <ele>767.33</ele>
        <time>2018-09-09T10:07:27Z</time>
      </trkpt>
      <trkpt lat="45.26202" lon="6.36809">
        <ele>763.38</ele>
        <time>2018-09-09T10:07:29Z</time>
      </trkpt>
      <trkpt lat="45.26197" lon="6.36836">
        <ele>761.49</ele>
        <time>2018-09-09T10:07:31Z</time>
      </trkpt>
      <trkpt lat="45.26192" lon="6.36862">
        <ele>760.54</ele>
        <time>2018-09-09T10:07:35Z</time>
      </trkpt>
      <trkpt lat="45.26174" lon="6.36874">
        <ele>761.32</ele>
        <time>2018-09-09T10:12:07Z</time>
      </trkpt>
      <trkpt lat="45.26156" lon="6.36882">
        <ele>757.71</ele>
        <time>2018-09-09T10:12:13Z</time>
      </trkpt>
      <trkpt lat="45.26134" lon="6.36894">
        <ele>756.63</ele>
        <time>2018-09-09T10:12:16Z</time>
      </trkpt>
      <trkpt lat="45.26116" lon="6.36903">
        <ele>755.63</ele>
        <time>2018-09-09T10:12:18Z</time>
      </trkpt>
      <trkpt lat="45.26096" lon="6.36906">
        <ele>753.72</ele>
        <time>2018-09-09T10:12:20Z</time>
      </trkpt>
      <trkpt lat="45.26076" lon="6.36894">
        <ele>752.64</ele>
        <time>2018-09-09T10:12:22Z</time>
      </trkpt>
      <trkpt lat="45.26056" lon="6.36877">
        <ele>752.54</ele>
        <time>2018-09-09T10:12:24Z</time>
      </trkpt>
      <trkpt lat="45.26038" lon="6.3686">
        <ele>751.83</ele>
        <time>2018-09-09T10:12:26Z</time>
      </trkpt>
      <trkpt lat="45.26017" lon="6.36846">
        <ele>750.57</ele>
        <time>2018-09-09T10:12:29Z</time>
      </trkpt>
      <trkpt lat="45.26004" lon="6.3687">
        <ele>751.44</ele>
        <time>2018-09-09T10:12:31Z</time>
      </trkpt>
      <trkpt lat="45.26005" lon="6.36904">
        <ele>752.43</ele>
        <time>2018-09-09T10:12:33Z</time>
      </trkpt>
      <trkpt lat="45.25983" lon="6.36924">
        <ele>749.39</ele>
        <time>2018-09-09T10:12:36Z</time>
      </trkpt>
      <trkpt lat="45.25957" lon="6.36934">
        <ele>748.61</ele>
        <time>2018-09-09T10:12:38Z</time>
      </trkpt>
      <trkpt lat="45.25932" lon="6.36956">
        <ele>746.02</ele>
        <time>2018-09-09T10:12:40Z</time>
      </trkpt>
      <trkpt lat="45.25909" lon="6.36978">
        <ele>742.35</ele>
        <time>2018-09-09T10:12:42Z</time>
      </trkpt>
      <trkpt lat="45.25884" lon="6.36993">
        <ele>738.39</ele>
        <time>2018-09-09T10:12:44Z</time>
      </trkpt>
      <trkpt lat="45.25864" lon="6.37016">
        <ele>736.7</ele>
        <time>2018-09-09T10:12:46Z</time>
      </trkpt>
      <trkpt lat="45.2585" lon="6.37045">
        <ele>734.94</ele>
        <time>2018-09-09T10:12:48Z</time>
      </trkpt>
      <trkpt lat="45.25858" lon="6.37085">
        <ele>733.66</ele>
        <time>2018-09-09T10:12:50Z</time>
      </trkpt>
      <trkpt lat="45.25857" lon="6.3712">
        <ele>733.54</ele>
        <time>2018-09-09T10:12:52Z</time>
      </trkpt>
      <trkpt lat="45.25839" lon="6.3714">
        <ele>734.23</ele>
        <time>2018-09-09T10:12:54Z</time>
      </trkpt>
      <trkpt lat="45.25816" lon="6.3716">
        <ele>731.98</ele>
        <time>2018-09-09T10:12:56Z</time>
      </trkpt>
      <trkpt lat="45.25803" lon="6.37181">
        <ele>730.87</ele>
        <time>2018-09-09T10:12:58Z</time>
      </trkpt>
      <trkpt lat="45.25797" lon="6.37217">
        <ele>727.62</ele>
        <time>2018-09-09T10:13:01Z</time>
      </trkpt>
      <trkpt lat="45.25819" lon="6.37249">
        <ele>727.54</ele>
        <time>2018-09-09T10:13:03Z</time>
      </trkpt>
      <trkpt lat="45.25818" lon="6.37278">
        <ele>723.4</ele>
        <time>2018-09-09T10:13:05Z</time>
      </trkpt>
      <trkpt lat="45.2581" lon="6.37309">
        <ele>720.09</ele>
        <time>2018-09-09T10:13:07Z</time>
      </trkpt>
      <trkpt lat="45.2581" lon="6.37342">
        <ele>717.66</ele>
        <time>2018-09-09T10:13:10Z</time>
      </trkpt>
      <trkpt lat="45.2583" lon="6.37336">
        <ele>715.92</ele>
        <time>2018-09-09T10:13:13Z</time>
      </trkpt>
      <trkpt lat="45.25839" lon="6.3731">
        <ele>717.05</ele>
        <time>2018-09-09T10:13:14Z</time>
      </trkpt>
      <trkpt lat="45.25858" lon="6.37282">
        <ele>715.67</ele>
        <time>2018-09-09T10:13:16Z</time>
      </trkpt>
      <trkpt lat="45.25877" lon="6.37253">
        <ele>714.63</ele>
        <time>2018-09-09T10:13:18Z</time>
      </trkpt>
      <trkpt lat="45.25896" lon="6.37227">
        <ele>710.83</ele>
        <time>2018-09-09T10:13:20Z</time>
      </trkpt>
      <trkpt lat="45.25919" lon="6.37207">
        <ele>707.13</ele>
        <time>2018-09-09T10:13:22Z</time>
      </trkpt>
      <trkpt lat="45.25937" lon="6.37188">
        <ele>705.67</ele>
        <time>2018-09-09T10:13:24Z</time>
      </trkpt>
      <trkpt lat="45.25941" lon="6.37158">
        <ele>703.02</ele>
        <time>2018-09-09T10:13:26Z</time>
      </trkpt>
      <trkpt lat="45.25956" lon="6.3714">
        <ele>700.97</ele>
        <time>2018-09-09T10:13:28Z</time>
      </trkpt>
      <trkpt lat="45.25976" lon="6.37128">
        <ele>698.96</ele>
        <time>2018-09-09T10:13:30Z</time>
      </trkpt>
      <trkpt lat="45.25993" lon="6.37099">
        <ele>696.75</ele>
        <time>2018-09-09T10:13:32Z</time>
      </trkpt>
      <trkpt lat="45.26008" lon="6.37074">
        <ele>695.64</ele>
        <time>2018-09-09T10:13:34Z</time>
      </trkpt>
      <trkpt lat="45.26015" lon="6.37097">
        <ele>693.71</ele>
        <time>2018-09-09T10:13:38Z</time>
      </trkpt>
      <trkpt lat="45.26015" lon="6.37124">
        <ele>691.94</ele>
        <time>2018-09-09T10:13:40Z</time>
      </trkpt>
      <trkpt lat="45.26019" lon="6.37158">
        <ele>690.17</ele>
        <time>2018-09-09T10:13:42Z</time>
      </trkpt>
      <trkpt lat="45.26017" lon="6.37189">
        <ele>687.98</ele>
        <time>2018-09-09T10:13:44Z</time>
      </trkpt>
      <trkpt lat="45.2601" lon="6.37216">
        <ele>685.96</ele>
        <time>2018-09-09T10:13:46Z</time>
      </trkpt>
      <trkpt lat="45.26029" lon="6.37215">
        <ele>680.87</ele>
        <time>2018-09-09T10:13:52Z</time>
      </trkpt>
      <trkpt lat="45.26039" lon="6.37193">
        <ele>679.65</ele>
        <time>2018-09-09T10:13:54Z</time>
      </trkpt>
      <trkpt lat="45.26055" lon="6.37181">
        <ele>678.62</ele>
        <time>2018-09-09T10:13:57Z</time>
      </trkpt>
      <trkpt lat="45.26057" lon="6.3721">
        <ele>675.95</ele>
        <time>2018-09-09T10:14:00Z</time>
      </trkpt>
      <trkpt lat="45.26063" lon="6.37245">
        <ele>674.84</ele>
        <time>2018-09-09T10:14:03Z</time>
      </trkpt>
      <trkpt lat="45.26079" lon="6.37275">
        <ele>672.93</ele>
        <time>2018-09-09T10:14:06Z</time>
      </trkpt>
      <trkpt lat="45.26078" lon="6.37303">
        <ele>672.57</ele>
        <time>2018-09-09T10:14:08Z</time>
      </trkpt>
      <trkpt lat="45.26075" lon="6.37332">
        <ele>672.53</ele>
        <time>2018-09-09T10:14:10Z</time>
      </trkpt>
      <trkpt lat="45.26067" lon="6.37358">
        <ele>671.83</ele>
        <time>2018-09-09T10:14:12Z</time>
      </trkpt>
      <trkpt lat="45.26056" lon="6.37383">
        <ele>671.56</ele>
        <time>2018-09-09T10:14:14Z</time>
      </trkpt>
      <trkpt lat="45.26044" lon="6.37407">
        <ele>671.53</ele>
        <time>2018-09-09T10:14:16Z</time>
      </trkpt>
      <trkpt lat="45.2603" lon="6.37425">
        <ele>670.83</ele>
        <time>2018-09-09T10:14:18Z</time>
      </trkpt>
      <trkpt lat="45.26009" lon="6.37431">
        <ele>669.86</ele>
        <time>2018-09-09T10:14:20Z</time>
      </trkpt>
      <trkpt lat="45.25987" lon="6.37434">
        <ele>667.95</ele>
        <time>2018-09-09T10:14:22Z</time>
      </trkpt>
      <trkpt lat="45.25964" lon="6.37442">
        <ele>666.87</ele>
        <time>2018-09-09T10:14:24Z</time>
      </trkpt>
      <trkpt lat="45.25947" lon="6.37463">
        <ele>664.95</ele>
        <time>2018-09-09T10:14:26Z</time>
      </trkpt>
      <trkpt lat="45.25938" lon="6.37495">
        <ele>662.96</ele>
        <time>2018-09-09T10:14:28Z</time>
      </trkpt>
      <trkpt lat="45.25929" lon="6.37526">
        <ele>660.96</ele>
        <time>2018-09-09T10:14:30Z</time>
      </trkpt>
      <trkpt lat="45.25919" lon="6.37552">
        <ele>659.66</ele>
        <time>2018-09-09T10:14:32Z</time>
      </trkpt>
      <trkpt lat="45.25918" lon="6.37581">
        <ele>657.86</ele>
        <time>2018-09-09T10:14:35Z</time>
      </trkpt>
      <trkpt lat="45.25939" lon="6.37578">
        <ele>655.92</ele>
        <time>2018-09-09T10:14:39Z</time>
      </trkpt>
      <trkpt lat="45.25954" lon="6.37564">
        <ele>654.66</ele>
        <time>2018-09-09T10:14:41Z</time>
      </trkpt>
      <trkpt lat="45.25973" lon="6.37548">
        <ele>652.93</ele>
        <time>2018-09-09T10:14:43Z</time>
      </trkpt>
      <trkpt lat="45.25997" lon="6.37543">
        <ele>651.87</ele>
        <time>2018-09-09T10:14:45Z</time>
      </trkpt>
      <trkpt lat="45.26022" lon="6.3755">
        <ele>649.04</ele>
        <time>2018-09-09T10:14:47Z</time>
      </trkpt>
      <trkpt lat="45.26052" lon="6.37558">
        <ele>646.27</ele>
        <time>2018-09-09T10:14:49Z</time>
      </trkpt>
      <trkpt lat="45.26082" lon="6.37554">
        <ele>643.99</ele>
        <time>2018-09-09T10:14:51Z</time>
      </trkpt>
      <trkpt lat="45.26111" lon="6.37537">
        <ele>641.96</ele>
        <time>2018-09-09T10:14:53Z</time>
      </trkpt>
      <trkpt lat="45.26138" lon="6.37519">
        <ele>639.05</ele>
        <time>2018-09-09T10:14:55Z</time>
      </trkpt>
      <trkpt lat="45.26161" lon="6.37499">
        <ele>636.97</ele>
        <time>2018-09-09T10:14:57Z</time>
      </trkpt>
      <trkpt lat="45.2618" lon="6.37492">
        <ele>634.87</ele>
        <time>2018-09-09T10:15:00Z</time>
      </trkpt>
      <trkpt lat="45.26165" lon="6.37523">
        <ele>631.87</ele>
        <time>2018-09-09T10:15:04Z</time>
      </trkpt>
      <trkpt lat="45.26146" lon="6.37547">
        <ele>630.16</ele>
        <time>2018-09-09T10:15:06Z</time>
      </trkpt>
      <trkpt lat="45.26129" lon="6.3758">
        <ele>628.19</ele>
        <time>2018-09-09T10:15:08Z</time>
      </trkpt>
      <trkpt lat="45.26113" lon="6.3762">
        <ele>626.68</ele>
        <time>2018-09-09T10:15:10Z</time>
      </trkpt>
      <trkpt lat="45.26099" lon="6.37659">
        <ele>624.93</ele>
        <time>2018-09-09T10:15:12Z</time>
      </trkpt>
      <trkpt lat="45.26092" lon="6.377">
        <ele>623.87</ele>
        <time>2018-09-09T10:15:14Z</time>
      </trkpt>
      <trkpt lat="45.26092" lon="6.37741">
        <ele>621.95</ele>
        <time>2018-09-09T10:15:16Z</time>
      </trkpt>
      <trkpt lat="45.26093" lon="6.37783">
        <ele>620.87</ele>
        <time>2018-09-09T10:15:18Z</time>
      </trkpt>
      <trkpt lat="45.26091" lon="6.37821">
        <ele>618.74</ele>
        <time>2018-09-09T10:15:20Z</time>
      </trkpt>
      <trkpt lat="45.26079" lon="6.3785">
        <ele>616.86</ele>
        <time>2018-09-09T10:15:23Z</time>
      </trkpt>
      <trkpt lat="45.26077" lon="6.37885">
        <ele>615.83</ele>
        <time>2018-09-09T10:15:27Z</time>
      </trkpt>
      <trkpt lat="45.26072" lon="6.37922">
        <ele>614.57</ele>
        <time>2018-09-09T10:15:30Z</time>
      </trkpt>
      <trkpt lat="45.26066" lon="6.3795">
        <ele>613.83</ele>
        <time>2018-09-09T10:15:32Z</time>
      </trkpt>
      <trkpt lat="45.26059" lon="6.37978">
        <ele>611.04</ele>
        <time>2018-09-09T10:15:34Z</time>
      </trkpt>
      <trkpt lat="45.26053" lon="6.38012">
        <ele>608.97</ele>
        <time>2018-09-09T10:15:36Z</time>
      </trkpt>
      <trkpt lat="45.2605" lon="6.38048">
        <ele>606.26</ele>
        <time>2018-09-09T10:15:38Z</time>
      </trkpt>
      <trkpt lat="45.26047" lon="6.38083">
        <ele>604.9</ele>
        <time>2018-09-09T10:15:40Z</time>
      </trkpt>
      <trkpt lat="45.26046" lon="6.38116">
        <ele>603.86</ele>
        <time>2018-09-09T10:15:42Z</time>
      </trkpt>
      <trkpt lat="45.26048" lon="6.38144">
        <ele>602.86</ele>
        <time>2018-09-09T10:15:44Z</time>
      </trkpt>
      <trkpt lat="45.26064" lon="6.38163">
        <ele>601.63</ele>
        <time>2018-09-09T10:15:47Z</time>
      </trkpt>
      <trkpt lat="45.26086" lon="6.38161">
        <ele>599.86</ele>
        <time>2018-09-09T10:15:50Z</time>
      </trkpt>
      <trkpt lat="45.26105" lon="6.38155">
        <ele>597.25</ele>
        <time>2018-09-09T10:15:52Z</time>
      </trkpt>
      <trkpt lat="45.26124" lon="6.3816">
        <ele>594.99</ele>
        <time>2018-09-09T10:15:54Z</time>
      </trkpt>
      <trkpt lat="45.26138" lon="6.38185">
        <ele>592.72</ele>
        <time>2018-09-09T10:15:57Z</time>
      </trkpt>
      <trkpt lat="45.26125" lon="6.3822">
        <ele>591.56</ele>
        <time>2018-09-09T10:16:00Z</time>
      </trkpt>
      <trkpt lat="45.2611" lon="6.38247">
        <ele>590.83</ele>
        <time>2018-09-09T10:16:02Z</time>
      </trkpt>
      <trkpt lat="45.26096" lon="6.38278">
        <ele>589.65</ele>
        <time>2018-09-09T10:16:04Z</time>
      </trkpt>
      <trkpt lat="45.26086" lon="6.38307">
        <ele>588.84</ele>
        <time>2018-09-09T10:16:06Z</time>
      </trkpt>
      <trkpt lat="45.26069" lon="6.38335">
        <ele>589.51</ele>
        <time>2018-09-09T10:16:09Z</time>
      </trkpt>
      <trkpt lat="45.2604" lon="6.38341">
        <ele>589.53</ele>
        <time>2018-09-09T10:16:12Z</time>
      </trkpt>
      <trkpt lat="45.26014" lon="6.38343">
        <ele>588.62</ele>
        <time>2018-09-09T10:16:14Z</time>
      </trkpt>
      <trkpt lat="45.25986" lon="6.38345">
        <ele>586.93</ele>
        <time>2018-09-09T10:16:16Z</time>
      </trkpt>
      <trkpt lat="45.25955" lon="6.38349">
        <ele>584.05</ele>
        <time>2018-09-09T10:16:18Z</time>
      </trkpt>
      <trkpt lat="45.25926" lon="6.38356">
        <ele>581.27</ele>
        <time>2018-09-09T10:16:20Z</time>
      </trkpt>
      <trkpt lat="45.25896" lon="6.38363">
        <ele>578.99</ele>
        <time>2018-09-09T10:16:22Z</time>
      </trkpt>
      <trkpt lat="45.25864" lon="6.38371">
        <ele>576.96</ele>
        <time>2018-09-09T10:16:24Z</time>
      </trkpt>
      <trkpt lat="45.25832" lon="6.38379">
        <ele>575.87</ele>
        <time>2018-09-09T10:16:26Z</time>
      </trkpt>
      <trkpt lat="45.25801" lon="6.38386">
        <ele>573.95</ele>
        <time>2018-09-09T10:16:28Z</time>
      </trkpt>
      <trkpt lat="45.2577" lon="6.38391">
        <ele>572.87</ele>
        <time>2018-09-09T10:16:30Z</time>
      </trkpt>
      <trkpt lat="45.2574" lon="6.38399">
        <ele>571.86</ele>
        <time>2018-09-09T10:16:32Z</time>
      </trkpt>
      <trkpt lat="45.25712" lon="6.38406">
        <ele>571.56</ele>
        <time>2018-09-09T10:16:34Z</time>
      </trkpt>
      <trkpt lat="45.25688" lon="6.38407">
        <ele>572.23</ele>
        <time>2018-09-09T10:16:36Z</time>
      </trkpt>
      <trkpt lat="45.25665" lon="6.38403">
        <ele>572.73</ele>
        <time>2018-09-09T10:16:39Z</time>
      </trkpt>
      <trkpt lat="45.25641" lon="6.38417">
        <ele>573.45</ele>
        <time>2018-09-09T10:16:42Z</time>
      </trkpt>
      <trkpt lat="45.2562" lon="6.38426">
        <ele>573.52</ele>
        <time>2018-09-09T10:16:44Z</time>
      </trkpt>
      <trkpt lat="45.25595" lon="6.38431">
        <ele>575.14</ele>
        <time>2018-09-09T10:16:46Z</time>
      </trkpt>
      <trkpt lat="45.25567" lon="6.38438">
        <ele>575.5</ele>
        <time>2018-09-09T10:16:48Z</time>
      </trkpt>
      <trkpt lat="45.25537" lon="6.38442">
        <ele>575.53</ele>
        <time>2018-09-09T10:16:50Z</time>
      </trkpt>
      <trkpt lat="45.25508" lon="6.38452">
        <ele>576.44</ele>
        <time>2018-09-09T10:16:52Z</time>
      </trkpt>
      <trkpt lat="45.25479" lon="6.38467">
        <ele>576.73</ele>
        <time>2018-09-09T10:16:54Z</time>
      </trkpt>
      <trkpt lat="45.25451" lon="6.38491">
        <ele>576.55</ele>
        <time>2018-09-09T10:16:56Z</time>
      </trkpt>
      <trkpt lat="45.25427" lon="6.38521">
        <ele>577.44</ele>
        <time>2018-09-09T10:16:58Z</time>
      </trkpt>
      <trkpt lat="45.25405" lon="6.38556">
        <ele>579.13</ele>
        <time>2018-09-09T10:17:00Z</time>
      </trkpt>
      <trkpt lat="45.25384" lon="6.38591">
        <ele>580.2</ele>
        <time>2018-09-09T10:17:02Z</time>
      </trkpt>
      <trkpt lat="45.25363" lon="6.38627">
        <ele>581.2</ele>
        <time>2018-09-09T10:17:04Z</time>
      </trkpt>
      <trkpt lat="45.25342" lon="6.38661">
        <ele>582.2</ele>
        <time>2018-09-09T10:17:06Z</time>
      </trkpt>
      <trkpt lat="45.25321" lon="6.38696">
        <ele>582.5</ele>
        <time>2018-09-09T10:17:08Z</time>
      </trkpt>
      <trkpt lat="45.253" lon="6.38731">
        <ele>583.44</ele>
        <time>2018-09-09T10:17:10Z</time>
      </trkpt>
      <trkpt lat="45.2528" lon="6.38766">
        <ele>583.52</ele>
        <time>2018-09-09T10:17:12Z</time>
      </trkpt>
      <trkpt lat="45.25258" lon="6.38801">
        <ele>585.14</ele>
        <time>2018-09-09T10:17:14Z</time>
      </trkpt>
      <trkpt lat="45.25237" lon="6.38838">
        <ele>586.2</ele>
        <time>2018-09-09T10:17:16Z</time>
      </trkpt>
      <trkpt lat="45.25216" lon="6.38872">
        <ele>588.11</ele>
        <time>2018-09-09T10:17:18Z</time>
      </trkpt>
      <trkpt lat="45.25196" lon="6.38901">
        <ele>588.28</ele>
        <time>2018-09-09T10:17:20Z</time>
      </trkpt>
      <trkpt lat="45.25177" lon="6.38919">
        <ele>587.6</ele>
        <time>2018-09-09T10:17:22Z</time>
      </trkpt>
      <trkpt lat="45.2515" lon="6.3892">
        <ele>588.24</ele>
        <time>2018-09-09T10:17:24Z</time>
      </trkpt>
      <trkpt lat="45.25124" lon="6.38933">
        <ele>590.11</ele>
        <time>2018-09-09T10:17:26Z</time>
      </trkpt>
      <trkpt lat="45.25099" lon="6.38954">
        <ele>592.8</ele>
        <time>2018-09-09T10:17:28Z</time>
      </trkpt>
      <trkpt lat="45.25077" lon="6.38979">
        <ele>595.99</ele>
        <time>2018-09-09T10:17:30Z</time>
      </trkpt>
      <trkpt lat="45.25059" lon="6.39009">
        <ele>599.7</ele>
        <time>2018-09-09T10:17:32Z</time>
      </trkpt>
      <trkpt lat="45.25045" lon="6.3904">
        <ele>602.07</ele>
        <time>2018-09-09T10:17:34Z</time>
      </trkpt>
      <trkpt lat="45.25039" lon="6.39071">
        <ele>605.01</ele>
        <time>2018-09-09T10:17:36Z</time>
      </trkpt>
      <trkpt lat="45.25026" lon="6.39097">
        <ele>607.09</ele>
        <time>2018-09-09T10:17:38Z</time>
      </trkpt>
      <trkpt lat="45.25015" lon="6.3913">
        <ele>609.1</ele>
        <time>2018-09-09T10:17:40Z</time>
      </trkpt>
      <trkpt lat="45.24999" lon="6.39163">
        <ele>612.65</ele>
        <time>2018-09-09T10:17:42Z</time>
      </trkpt>
      <trkpt lat="45.24983" lon="6.39195">
        <ele>614.98</ele>
        <time>2018-09-09T10:17:44Z</time>
      </trkpt>
      <trkpt lat="45.2497" lon="6.39218">
        <ele>618.62</ele>
        <time>2018-09-09T10:17:46Z</time>
      </trkpt>
      <trkpt lat="45.24953" lon="6.39237">
        <ele>619.42</ele>
        <time>2018-09-09T10:17:49Z</time>
      </trkpt>
      <trkpt lat="45.24953" lon="6.39211">
        <ele>620.84</ele>
        <time>2018-09-09T10:17:50Z</time>
      </trkpt>
      <trkpt lat="45.24948" lon="6.39184">
        <ele>624.82</ele>
        <time>2018-09-09T10:17:52Z</time>
      </trkpt>
      <trkpt lat="45.24934" lon="6.39153">
        <ele>627.7</ele>
        <time>2018-09-09T10:17:54Z</time>
      </trkpt>
      <trkpt lat="45.24913" lon="6.39122">
        <ele>630.69</ele>
        <time>2018-09-09T10:17:56Z</time>
      </trkpt>
      <trkpt lat="45.24893" lon="6.39092">
        <ele>632.78</ele>
        <time>2018-09-09T10:17:58Z</time>
      </trkpt>
      <trkpt lat="45.24878" lon="6.39071">
        <ele>634.99</ele>
        <time>2018-09-09T10:18:00Z</time>
      </trkpt>
      <trkpt lat="45.24859" lon="6.39064">
        <ele>635.19</ele>
        <time>2018-09-09T10:18:02Z</time>
      </trkpt>
      <trkpt lat="45.24859" lon="6.39102">
        <ele>635.42</ele>
        <time>2018-09-09T10:18:04Z</time>
      </trkpt>
      <trkpt lat="45.24863" lon="6.39142">
        <ele>638.87</ele>
        <time>2018-09-09T10:18:06Z</time>
      </trkpt>
      <trkpt lat="45.24857" lon="6.39184">
        <ele>641</ele>
        <time>2018-09-09T10:18:08Z</time>
      </trkpt>
      <trkpt lat="45.24847" lon="6.39221">
        <ele>644.84</ele>
        <time>2018-09-09T10:18:10Z</time>
      </trkpt>
      <trkpt lat="45.24825" lon="6.39254">
        <ele>647.7</ele>
        <time>2018-09-09T10:18:12Z</time>
      </trkpt>
      <trkpt lat="45.24807" lon="6.39296">
        <ele>653.21</ele>
        <time>2018-09-09T10:18:14Z</time>
      </trkpt>
      <trkpt lat="45.24788" lon="6.39335">
        <ele>656.15</ele>
        <time>2018-09-09T10:18:16Z</time>
      </trkpt>
      <trkpt lat="45.24768" lon="6.39374">
        <ele>657.82</ele>
        <time>2018-09-09T10:18:18Z</time>
      </trkpt>
      <trkpt lat="45.24754" lon="6.39419">
        <ele>659.3</ele>
        <time>2018-09-09T10:18:20Z</time>
      </trkpt>
      <trkpt lat="45.24744" lon="6.39458">
        <ele>659.22</ele>
        <time>2018-09-09T10:18:22Z</time>
      </trkpt>
      <trkpt lat="45.24748" lon="6.39499">
        <ele>660.12</ele>
        <time>2018-09-09T10:18:24Z</time>
      </trkpt>
      <trkpt lat="45.24756" lon="6.39543">
        <ele>660.42</ele>
        <time>2018-09-09T10:18:26Z</time>
      </trkpt>
      <trkpt lat="45.24755" lon="6.3959">
        <ele>661.14</ele>
        <time>2018-09-09T10:18:28Z</time>
      </trkpt>
      <trkpt lat="45.24749" lon="6.39634">
        <ele>663.73</ele>
        <time>2018-09-09T10:18:30Z</time>
      </trkpt>
      <trkpt lat="45.24745" lon="6.39671">
        <ele>664.38</ele>
        <time>2018-09-09T10:18:32Z</time>
      </trkpt>
      <trkpt lat="45.24738" lon="6.39706">
        <ele>663.74</ele>
        <time>2018-09-09T10:18:34Z</time>
      </trkpt>
      <trkpt lat="45.2472" lon="6.3973">
        <ele>663.47</ele>
        <time>2018-09-09T10:18:36Z</time>
      </trkpt>
      <trkpt lat="45.24701" lon="6.39751">
        <ele>663.45</ele>
        <time>2018-09-09T10:18:38Z</time>
      </trkpt>
      <trkpt lat="45.24691" lon="6.39775">
        <ele>662.54</ele>
        <time>2018-09-09T10:18:40Z</time>
      </trkpt>
      <trkpt lat="45.24699" lon="6.39807">
        <ele>663.36</ele>
        <time>2018-09-09T10:18:42Z</time>
      </trkpt>
      <trkpt lat="45.24709" lon="6.39828">
        <ele>665.05</ele>
        <time>2018-09-09T10:18:44Z</time>
      </trkpt>
      <trkpt lat="45.24741" lon="6.39842">
        <ele>666.77</ele>
        <time>2018-09-09T10:18:47Z</time>
      </trkpt>
      <trkpt lat="45.24753" lon="6.39863">
        <ele>670.39</ele>
        <time>2018-09-09T10:18:49Z</time>
      </trkpt>
      <trkpt lat="45.24757" lon="6.39893">
        <ele>672.96</ele>
        <time>2018-09-09T10:18:51Z</time>
      </trkpt>
      <trkpt lat="45.2476" lon="6.39927">
        <ele>675.71</ele>
        <time>2018-09-09T10:18:53Z</time>
      </trkpt>
      <trkpt lat="45.24762" lon="6.39961">
        <ele>678.2</ele>
        <time>2018-09-09T10:18:55Z</time>
      </trkpt>
      <trkpt lat="45.24757" lon="6.39993">
        <ele>680.73</ele>
        <time>2018-09-09T10:18:57Z</time>
      </trkpt>
      <trkpt lat="45.24749" lon="6.40027">
        <ele>684.98</ele>
        <time>2018-09-09T10:19:00Z</time>
      </trkpt>
      <trkpt lat="45.24746" lon="6.40058">
        <ele>686.41</ele>
        <time>2018-09-09T10:19:03Z</time>
      </trkpt>
      <trkpt lat="45.24739" lon="6.40085">
        <ele>685.74</ele>
        <time>2018-09-09T10:19:06Z</time>
      </trkpt>
      <trkpt lat="45.24734" lon="6.40117">
        <ele>685.45</ele>
        <time>2018-09-09T10:19:09Z</time>
      </trkpt>
      <trkpt lat="45.2473" lon="6.40147">
        <ele>685.45</ele>
        <time>2018-09-09T10:19:11Z</time>
      </trkpt>
      <trkpt lat="45.24726" lon="6.40177">
        <ele>683.84</ele>
        <time>2018-09-09T10:19:13Z</time>
      </trkpt>
      <trkpt lat="45.24724" lon="6.40206">
        <ele>683.48</ele>
        <time>2018-09-09T10:19:15Z</time>
      </trkpt>
      <trkpt lat="45.24714" lon="6.40237">
        <ele>682.52</ele>
        <time>2018-09-09T10:19:19Z</time>
      </trkpt>
      <trkpt lat="45.24702" lon="6.4027">
        <ele>681.54</ele>
        <time>2018-09-09T10:19:22Z</time>
      </trkpt>
      <trkpt lat="45.2469" lon="6.40298">
        <ele>681.45</ele>
        <time>2018-09-09T10:19:25Z</time>
      </trkpt>
      <trkpt lat="45.24676" lon="6.40325">
        <ele>681.45</ele>
        <time>2018-09-09T10:19:28Z</time>
      </trkpt>
      <trkpt lat="45.2466" lon="6.40353">
        <ele>680.47</ele>
        <time>2018-09-09T10:19:31Z</time>
      </trkpt>
      <trkpt lat="45.24646" lon="6.4038">
        <ele>678.84</ele>
        <time>2018-09-09T10:19:34Z</time>
      </trkpt>
      <trkpt lat="45.24631" lon="6.4041">
        <ele>677.76</ele>
        <time>2018-09-09T10:19:37Z</time>
      </trkpt>
      <trkpt lat="45.24619" lon="6.4043">
        <ele>677.47</ele>
        <time>2018-09-09T10:19:39Z</time>
      </trkpt>
      <trkpt lat="45.24604" lon="6.40456">
        <ele>677.45</ele>
        <time>2018-09-09T10:19:42Z</time>
      </trkpt>
      <trkpt lat="45.24589" lon="6.40488">
        <ele>676.47</ele>
        <time>2018-09-09T10:19:45Z</time>
      </trkpt>
      <trkpt lat="45.24579" lon="6.40511">
        <ele>677.15</ele>
        <time>2018-09-09T10:19:47Z</time>
      </trkpt>
      <trkpt lat="45.24571" lon="6.40534">
        <ele>678.12</ele>
        <time>2018-09-09T10:19:49Z</time>
      </trkpt>
      <trkpt lat="45.24563" lon="6.40558">
        <ele>679.33</ele>
        <time>2018-09-09T10:19:51Z</time>
      </trkpt>
      <trkpt lat="45.24551" lon="6.40591">
        <ele>680.41</ele>
        <time>2018-09-09T10:19:54Z</time>
      </trkpt>
      <trkpt lat="45.24542" lon="6.40615">
        <ele>680.74</ele>
        <time>2018-09-09T10:19:58Z</time>
      </trkpt>
      <trkpt lat="45.24545" lon="6.40656">
        <ele>679.69</ele>
        <time>2018-09-09T10:20:01Z</time>
      </trkpt>
      <trkpt lat="45.24541" lon="6.407">
        <ele>677.86</ele>
        <time>2018-09-09T10:20:03Z</time>
      </trkpt>
      <trkpt lat="45.24536" lon="6.40726">
        <ele>677.57</ele>
        <time>2018-09-09T10:20:04Z</time>
      </trkpt>
      <trkpt lat="45.24528" lon="6.40752">
        <ele>677.48</ele>
        <time>2018-09-09T10:20:05Z</time>
      </trkpt>
      <trkpt lat="45.24519" lon="6.40778">
        <ele>676.76</ele>
        <time>2018-09-09T10:20:06Z</time>
      </trkpt>
      <trkpt lat="45.24507" lon="6.40803">
        <ele>675.14</ele>
        <time>2018-09-09T10:20:07Z</time>
      </trkpt>
      <trkpt lat="45.24494" lon="6.40824">
        <ele>673.25</ele>
        <time>2018-09-09T10:20:08Z</time>
      </trkpt>
      <trkpt lat="45.24475" lon="6.40867">
        <ele>671.82</ele>
        <time>2018-09-09T10:20:10Z</time>
      </trkpt>
      <trkpt lat="45.2447" lon="6.40893">
        <ele>671.56</ele>
        <time>2018-09-09T10:20:11Z</time>
      </trkpt>
      <trkpt lat="45.24464" lon="6.40921">
        <ele>670.78</ele>
        <time>2018-09-09T10:20:12Z</time>
      </trkpt>
      <trkpt lat="45.2446" lon="6.4095">
        <ele>668.45</ele>
        <time>2018-09-09T10:20:13Z</time>
      </trkpt>
      <trkpt lat="45.24455" lon="6.4098">
        <ele>667.74</ele>
        <time>2018-09-09T10:20:14Z</time>
      </trkpt>
      <trkpt lat="45.2445" lon="6.4101">
        <ele>666.84</ele>
        <time>2018-09-09T10:20:15Z</time>
      </trkpt>
      <trkpt lat="45.24446" lon="6.41039">
        <ele>665.86</ele>
        <time>2018-09-09T10:20:16Z</time>
      </trkpt>
      <trkpt lat="45.24442" lon="6.41068">
        <ele>663.47</ele>
        <time>2018-09-09T10:20:17Z</time>
      </trkpt>
      <trkpt lat="45.24439" lon="6.41098">
        <ele>662.05</ele>
        <time>2018-09-09T10:20:18Z</time>
      </trkpt>
      <trkpt lat="45.24436" lon="6.41127">
        <ele>660.93</ele>
        <time>2018-09-09T10:20:19Z</time>
      </trkpt>
      <trkpt lat="45.24434" lon="6.41154">
        <ele>659.89</ele>
        <time>2018-09-09T10:20:20Z</time>
      </trkpt>
      <trkpt lat="45.24435" lon="6.41181">
        <ele>658.88</ele>
        <time>2018-09-09T10:20:21Z</time>
      </trkpt>
      <trkpt lat="45.24439" lon="6.41207">
        <ele>658.58</ele>
        <time>2018-09-09T10:20:22Z</time>
      </trkpt>
      <trkpt lat="45.24446" lon="6.41231">
        <ele>657.78</ele>
        <time>2018-09-09T10:20:23Z</time>
      </trkpt>
      <trkpt lat="45.24458" lon="6.41268">
        <ele>654.26</ele>
        <time>2018-09-09T10:20:25Z</time>
      </trkpt>
      <trkpt lat="45.24461" lon="6.41309">
        <ele>653.31</ele>
        <time>2018-09-09T10:20:27Z</time>
      </trkpt>
      <trkpt lat="45.24467" lon="6.41346">
        <ele>652.52</ele>
        <time>2018-09-09T10:20:29Z</time>
      </trkpt>
      <trkpt lat="45.24486" lon="6.41377">
        <ele>650.84</ele>
        <time>2018-09-09T10:20:31Z</time>
      </trkpt>
      <trkpt lat="45.24508" lon="6.41404">
        <ele>650.48</ele>
        <time>2018-09-09T10:20:33Z</time>
      </trkpt>
      <trkpt lat="45.24529" lon="6.41414">
        <ele>650.46</ele>
        <time>2018-09-09T10:20:34Z</time>
      </trkpt>
      <trkpt lat="45.2456" lon="6.41433">
        <ele>649.75</ele>
        <time>2018-09-09T10:20:36Z</time>
      </trkpt>
      <trkpt lat="45.24588" lon="6.41448">
        <ele>647.65</ele>
        <time>2018-09-09T10:20:38Z</time>
      </trkpt>
      <trkpt lat="45.24609" lon="6.41457">
        <ele>646.55</ele>
        <time>2018-09-09T10:20:40Z</time>
      </trkpt>
      <trkpt lat="45.24627" lon="6.41441">
        <ele>644.77</ele>
        <time>2018-09-09T10:20:43Z</time>
      </trkpt>
      <trkpt lat="45.24637" lon="6.41415">
        <ele>643.77</ele>
        <time>2018-09-09T10:20:45Z</time>
      </trkpt>
      <trkpt lat="45.24647" lon="6.41384">
        <ele>642.56</ele>
        <time>2018-09-09T10:20:47Z</time>
      </trkpt>
      <trkpt lat="45.24659" lon="6.41349">
        <ele>641.55</ele>
        <time>2018-09-09T10:20:49Z</time>
      </trkpt>
      <trkpt lat="45.24666" lon="6.41312">
        <ele>639.84</ele>
        <time>2018-09-09T10:20:51Z</time>
      </trkpt>
      <trkpt lat="45.24677" lon="6.41273">
        <ele>638.78</ele>
        <time>2018-09-09T10:20:53Z</time>
      </trkpt>
      <trkpt lat="45.2469" lon="6.41236">
        <ele>636.87</ele>
        <time>2018-09-09T10:20:55Z</time>
      </trkpt>
      <trkpt lat="45.24702" lon="6.41201">
        <ele>635.78</ele>
        <time>2018-09-09T10:20:57Z</time>
      </trkpt>
      <trkpt lat="45.24713" lon="6.41171">
        <ele>635.48</ele>
        <time>2018-09-09T10:20:59Z</time>
      </trkpt>
      <trkpt lat="45.24731" lon="6.41151">
        <ele>632.86</ele>
        <time>2018-09-09T10:21:02Z</time>
      </trkpt>
      <trkpt lat="45.24753" lon="6.41166">
        <ele>633.37</ele>
        <time>2018-09-09T10:21:05Z</time>
      </trkpt>
      <trkpt lat="45.2476" lon="6.41196">
        <ele>633.44</ele>
        <time>2018-09-09T10:21:08Z</time>
      </trkpt>
      <trkpt lat="45.2475" lon="6.41222">
        <ele>634.14</ele>
        <time>2018-09-09T10:21:10Z</time>
      </trkpt>
      <trkpt lat="45.24733" lon="6.41259">
        <ele>635.12</ele>
        <time>2018-09-09T10:21:12Z</time>
      </trkpt>
      <trkpt lat="45.24717" lon="6.41298">
        <ele>637.03</ele>
        <time>2018-09-09T10:21:14Z</time>
      </trkpt>
      <trkpt lat="45.247" lon="6.41334">
        <ele>638.11</ele>
        <time>2018-09-09T10:21:16Z</time>
      </trkpt>
      <trkpt lat="45.2469" lon="6.41362">
        <ele>639.11</ele>
        <time>2018-09-09T10:21:18Z</time>
      </trkpt>
      <trkpt lat="45.24697" lon="6.41387">
        <ele>640.41</ele>
        <time>2018-09-09T10:21:21Z</time>
      </trkpt>
      <trkpt lat="45.24716" lon="6.41387">
        <ele>642.05</ele>
        <time>2018-09-09T10:21:23Z</time>
      </trkpt>
      <trkpt lat="45.24746" lon="6.41376">
        <ele>641.5</ele>
        <time>2018-09-09T10:21:25Z</time>
      </trkpt>
      <trkpt lat="45.24776" lon="6.41368">
        <ele>640.54</ele>
        <time>2018-09-09T10:21:27Z</time>
      </trkpt>
      <trkpt lat="45.24806" lon="6.41358">
        <ele>639.54</ele>
        <time>2018-09-09T10:21:29Z</time>
      </trkpt>
      <trkpt lat="45.24832" lon="6.41346">
        <ele>641.06</ele>
        <time>2018-09-09T10:21:31Z</time>
      </trkpt>
      <trkpt lat="45.24856" lon="6.41324">
        <ele>641.41</ele>
        <time>2018-09-09T10:21:33Z</time>
      </trkpt>
      <trkpt lat="45.24867" lon="6.41303">
        <ele>641.43</ele>
        <time>2018-09-09T10:21:34Z</time>
      </trkpt>
      <trkpt lat="45.2488" lon="6.41256">
        <ele>641.44</ele>
        <time>2018-09-09T10:21:36Z</time>
      </trkpt>
      <trkpt lat="45.24885" lon="6.41212">
        <ele>643.05</ele>
        <time>2018-09-09T10:21:38Z</time>
      </trkpt>
      <trkpt lat="45.24892" lon="6.41182">
        <ele>644.32</ele>
        <time>2018-09-09T10:21:40Z</time>
      </trkpt>
      <trkpt lat="45.24901" lon="6.41159">
        <ele>645.34</ele>
        <time>2018-09-09T10:21:42Z</time>
      </trkpt>
      <trkpt lat="45.24911" lon="6.41136">
        <ele>645.65</ele>
        <time>2018-09-09T10:21:44Z</time>
      </trkpt>
      <trkpt lat="45.24927" lon="6.4111">
        <ele>646.16</ele>
        <time>2018-09-09T10:21:46Z</time>
      </trkpt>
      <trkpt lat="45.24948" lon="6.41086">
        <ele>646.42</ele>
        <time>2018-09-09T10:21:48Z</time>
      </trkpt>
      <trkpt lat="45.2497" lon="6.41067">
        <ele>647.35</ele>
        <time>2018-09-09T10:21:50Z</time>
      </trkpt>
      <trkpt lat="45.24995" lon="6.41052">
        <ele>646.04</ele>
        <time>2018-09-09T10:21:52Z</time>
      </trkpt>
      <trkpt lat="45.25019" lon="6.41041">
        <ele>645.58</ele>
        <time>2018-09-09T10:21:54Z</time>
      </trkpt>
      <trkpt lat="45.25041" lon="6.41031">
        <ele>647.15</ele>
        <time>2018-09-09T10:21:56Z</time>
      </trkpt>
      <trkpt lat="45.25063" lon="6.41019">
        <ele>647.5</ele>
        <time>2018-09-09T10:21:58Z</time>
      </trkpt>
      <trkpt lat="45.25086" lon="6.41009">
        <ele>648.44</ele>
        <time>2018-09-09T10:22:00Z</time>
      </trkpt>
      <trkpt lat="45.25109" lon="6.41001">
        <ele>648.52</ele>
        <time>2018-09-09T10:22:02Z</time>
      </trkpt>
      <trkpt lat="45.25128" lon="6.40993">
        <ele>648.53</ele>
        <time>2018-09-09T10:22:04Z</time>
      </trkpt>
      <trkpt lat="45.2515" lon="6.40982">
        <ele>648.53</ele>
        <time>2018-09-09T10:22:07Z</time>
      </trkpt>
      <trkpt lat="45.25152" lon="6.40953">
        <ele>647.83</ele>
        <time>2018-09-09T10:22:10Z</time>
      </trkpt>
      <trkpt lat="45.2515" lon="6.40927">
        <ele>648.26</ele>
        <time>2018-09-09T10:22:12Z</time>
      </trkpt>
      <trkpt lat="45.25159" lon="6.40902">
        <ele>648.3</ele>
        <time>2018-09-09T10:22:14Z</time>
      </trkpt>
      <trkpt lat="45.25179" lon="6.40887">
        <ele>650.12</ele>
        <time>2018-09-09T10:22:16Z</time>
      </trkpt>
      <trkpt lat="45.252" lon="6.40872">
        <ele>650.49</ele>
        <time>2018-09-09T10:22:18Z</time>
      </trkpt>
      <trkpt lat="45.25217" lon="6.4086">
        <ele>651.44</ele>
        <time>2018-09-09T10:22:20Z</time>
      </trkpt>
      <trkpt lat="45.25236" lon="6.40867">
        <ele>651.53</ele>
        <time>2018-09-09T10:22:23Z</time>
      </trkpt>
      <trkpt lat="45.25239" lon="6.409">
        <ele>653.41</ele>
        <time>2018-09-09T10:22:26Z</time>
      </trkpt>
      <trkpt lat="45.2523" lon="6.40944">
        <ele>654.43</ele>
        <time>2018-09-09T10:22:28Z</time>
      </trkpt>
      <trkpt lat="45.25219" lon="6.40976">
        <ele>654.5</ele>
        <time>2018-09-09T10:22:29Z</time>
      </trkpt>
      <trkpt lat="45.25211" lon="6.41005">
        <ele>654.52</ele>
        <time>2018-09-09T10:22:30Z</time>
      </trkpt>
      <trkpt lat="45.25202" lon="6.41035">
        <ele>655.93</ele>
        <time>2018-09-09T10:22:31Z</time>
      </trkpt>
      <trkpt lat="45.25191" lon="6.41066">
        <ele>657.05</ele>
        <time>2018-09-09T10:22:32Z</time>
      </trkpt>
      <trkpt lat="45.2518" lon="6.41098">
        <ele>657.39</ele>
        <time>2018-09-09T10:22:33Z</time>
      </trkpt>
      <trkpt lat="45.25168" lon="6.41128">
        <ele>658.89</ele>
        <time>2018-09-09T10:22:34Z</time>
      </trkpt>
      <trkpt lat="45.25154" lon="6.41156">
        <ele>660.04</ele>
        <time>2018-09-09T10:22:35Z</time>
      </trkpt>
      <trkpt lat="45.25141" lon="6.41182">
        <ele>661.08</ele>
        <time>2018-09-09T10:22:36Z</time>
      </trkpt>
      <trkpt lat="45.25129" lon="6.41209">
        <ele>661.4</ele>
        <time>2018-09-09T10:22:37Z</time>
      </trkpt>
      <trkpt lat="45.25116" lon="6.41236">
        <ele>662.19</ele>
        <time>2018-09-09T10:22:38Z</time>
      </trkpt>
      <trkpt lat="45.25103" lon="6.41262">
        <ele>663.13</ele>
        <time>2018-09-09T10:22:39Z</time>
      </trkpt>
      <trkpt lat="45.25091" lon="6.41288">
        <ele>662.71</ele>
        <time>2018-09-09T10:22:40Z</time>
      </trkpt>
      <trkpt lat="45.25078" lon="6.41315">
        <ele>663.98</ele>
        <time>2018-09-09T10:22:41Z</time>
      </trkpt>
      <trkpt lat="45.25065" lon="6.41341">
        <ele>665.07</ele>
        <time>2018-09-09T10:22:42Z</time>
      </trkpt>
      <trkpt lat="45.25051" lon="6.41368">
        <ele>666.09</ele>
        <time>2018-09-09T10:22:43Z</time>
      </trkpt>
      <trkpt lat="45.25038" lon="6.41395">
        <ele>666.4</ele>
        <time>2018-09-09T10:22:44Z</time>
      </trkpt>
      <trkpt lat="45.25026" lon="6.41422">
        <ele>666.49</ele>
        <time>2018-09-09T10:22:45Z</time>
      </trkpt>
      <trkpt lat="45.25013" lon="6.4145">
        <ele>667.92</ele>
        <time>2018-09-09T10:22:46Z</time>
      </trkpt>
      <trkpt lat="45.25" lon="6.41477">
        <ele>667.59</ele>
        <time>2018-09-09T10:22:47Z</time>
      </trkpt>
      <trkpt lat="45.24987" lon="6.41505">
        <ele>668.19</ele>
        <time>2018-09-09T10:22:48Z</time>
      </trkpt>
      <trkpt lat="45.24974" lon="6.41531">
        <ele>669.07</ele>
        <time>2018-09-09T10:22:49Z</time>
      </trkpt>
      <trkpt lat="45.24962" lon="6.41557">
        <ele>669.33</ele>
        <time>2018-09-09T10:22:50Z</time>
      </trkpt>
      <trkpt lat="45.24949" lon="6.41583">
        <ele>670.11</ele>
        <time>2018-09-09T10:22:51Z</time>
      </trkpt>
      <trkpt lat="45.24937" lon="6.4161">
        <ele>670.34</ele>
        <time>2018-09-09T10:22:52Z</time>
      </trkpt>
      <trkpt lat="45.24925" lon="6.41635">
        <ele>671.11</ele>
        <time>2018-09-09T10:22:53Z</time>
      </trkpt>
      <trkpt lat="45.24913" lon="6.41659">
        <ele>672.05</ele>
        <time>2018-09-09T10:22:54Z</time>
      </trkpt>
      <trkpt lat="45.24901" lon="6.41684">
        <ele>672.33</ele>
        <time>2018-09-09T10:22:55Z</time>
      </trkpt>
      <trkpt lat="45.2489" lon="6.41708">
        <ele>673.11</ele>
        <time>2018-09-09T10:22:56Z</time>
      </trkpt>
      <trkpt lat="45.24878" lon="6.41732">
        <ele>674.04</ele>
        <time>2018-09-09T10:22:57Z</time>
      </trkpt>
      <trkpt lat="45.24866" lon="6.41756">
        <ele>674.32</ele>
        <time>2018-09-09T10:22:58Z</time>
      </trkpt>
      <trkpt lat="45.24856" lon="6.41781">
        <ele>675.11</ele>
        <time>2018-09-09T10:22:59Z</time>
      </trkpt>
      <trkpt lat="45.24847" lon="6.41807">
        <ele>675.34</ele>
        <time>2018-09-09T10:23:00Z</time>
      </trkpt>
      <trkpt lat="45.24836" lon="6.41833">
        <ele>675.41</ele>
        <time>2018-09-09T10:23:01Z</time>
      </trkpt>
      <trkpt lat="45.24827" lon="6.41859">
        <ele>675.44</ele>
        <time>2018-09-09T10:23:02Z</time>
      </trkpt>
      <trkpt lat="45.24819" lon="6.41886">
        <ele>676.14</ele>
        <time>2018-09-09T10:23:03Z</time>
      </trkpt>
      <trkpt lat="45.2481" lon="6.41913">
        <ele>676.35</ele>
        <time>2018-09-09T10:23:04Z</time>
      </trkpt>
      <trkpt lat="45.24802" lon="6.4194">
        <ele>676.42</ele>
        <time>2018-09-09T10:23:05Z</time>
      </trkpt>
      <trkpt lat="45.24794" lon="6.41967">
        <ele>676.44</ele>
        <time>2018-09-09T10:23:06Z</time>
      </trkpt>
      <trkpt lat="45.24786" lon="6.41995">
        <ele>677.14</ele>
        <time>2018-09-09T10:23:07Z</time>
      </trkpt>
      <trkpt lat="45.24778" lon="6.42023">
        <ele>678.05</ele>
        <time>2018-09-09T10:23:08Z</time>
      </trkpt>
      <trkpt lat="45.2477" lon="6.42051">
        <ele>678.33</ele>
        <time>2018-09-09T10:23:09Z</time>
      </trkpt>
      <trkpt lat="45.24761" lon="6.4208">
        <ele>678.41</ele>
        <time>2018-09-09T10:23:10Z</time>
      </trkpt>
      <trkpt lat="45.24753" lon="6.42108">
        <ele>677.73</ele>
        <time>2018-09-09T10:23:11Z</time>
      </trkpt>
      <trkpt lat="45.24745" lon="6.42137">
        <ele>678.23</ele>
        <time>2018-09-09T10:23:12Z</time>
      </trkpt>
      <trkpt lat="45.24737" lon="6.42165">
        <ele>678.38</ele>
        <time>2018-09-09T10:23:13Z</time>
      </trkpt>
      <trkpt lat="45.24729" lon="6.42193">
        <ele>678.43</ele>
        <time>2018-09-09T10:23:14Z</time>
      </trkpt>
      <trkpt lat="45.2472" lon="6.42221">
        <ele>679.14</ele>
        <time>2018-09-09T10:23:15Z</time>
      </trkpt>
      <trkpt lat="45.24712" lon="6.42249">
        <ele>679.35</ele>
        <time>2018-09-09T10:23:16Z</time>
      </trkpt>
      <trkpt lat="45.24704" lon="6.42277">
        <ele>679.42</ele>
        <time>2018-09-09T10:23:17Z</time>
      </trkpt>
      <trkpt lat="45.24696" lon="6.42305">
        <ele>678.74</ele>
        <time>2018-09-09T10:23:18Z</time>
      </trkpt>
      <trkpt lat="45.24688" lon="6.42333">
        <ele>678.53</ele>
        <time>2018-09-09T10:23:19Z</time>
      </trkpt>
      <trkpt lat="45.2468" lon="6.42361">
        <ele>679.17</ele>
        <time>2018-09-09T10:23:20Z</time>
      </trkpt>
      <trkpt lat="45.24671" lon="6.42389">
        <ele>679.36</ele>
        <time>2018-09-09T10:23:21Z</time>
      </trkpt>
      <trkpt lat="45.24663" lon="6.42417">
        <ele>678.72</ele>
        <time>2018-09-09T10:23:22Z</time>
      </trkpt>
      <trkpt lat="45.24656" lon="6.42445">
        <ele>679.23</ele>
        <time>2018-09-09T10:23:23Z</time>
      </trkpt>
      <trkpt lat="45.24648" lon="6.42473">
        <ele>679.38</ele>
        <time>2018-09-09T10:23:24Z</time>
      </trkpt>
      <trkpt lat="45.24639" lon="6.42501">
        <ele>679.43</ele>
        <time>2018-09-09T10:23:25Z</time>
      </trkpt>
      <trkpt lat="45.24631" lon="6.4253">
        <ele>679.44</ele>
        <time>2018-09-09T10:23:26Z</time>
      </trkpt>
      <trkpt lat="45.24622" lon="6.42559">
        <ele>679.44</ele>
        <time>2018-09-09T10:23:27Z</time>
      </trkpt>
      <trkpt lat="45.24613" lon="6.42588">
        <ele>679.44</ele>
        <time>2018-09-09T10:23:28Z</time>
      </trkpt>
      <trkpt lat="45.24605" lon="6.42616">
        <ele>678.04</ele>
        <time>2018-09-09T10:23:29Z</time>
      </trkpt>
      <trkpt lat="45.24597" lon="6.42646">
        <ele>677.62</ele>
        <time>2018-09-09T10:23:30Z</time>
      </trkpt>
      <trkpt lat="45.24589" lon="6.42673">
        <ele>678.2</ele>
        <time>2018-09-09T10:23:31Z</time>
      </trkpt>
      <trkpt lat="45.2458" lon="6.42701">
        <ele>678.37</ele>
        <time>2018-09-09T10:23:32Z</time>
      </trkpt>
      <trkpt lat="45.24572" lon="6.42729">
        <ele>679.12</ele>
        <time>2018-09-09T10:23:33Z</time>
      </trkpt>
      <trkpt lat="45.24563" lon="6.42757">
        <ele>679.35</ele>
        <time>2018-09-09T10:23:34Z</time>
      </trkpt>
      <trkpt lat="45.24555" lon="6.42787">
        <ele>678.72</ele>
        <time>2018-09-09T10:23:35Z</time>
      </trkpt>
      <trkpt lat="45.24547" lon="6.42815">
        <ele>678.53</ele>
        <time>2018-09-09T10:23:36Z</time>
      </trkpt>
      <trkpt lat="45.24539" lon="6.42843">
        <ele>679.17</ele>
        <time>2018-09-09T10:23:37Z</time>
      </trkpt>
      <trkpt lat="45.2453" lon="6.42869">
        <ele>679.36</ele>
        <time>2018-09-09T10:23:38Z</time>
      </trkpt>
      <trkpt lat="45.24521" lon="6.42897">
        <ele>679.42</ele>
        <time>2018-09-09T10:23:39Z</time>
      </trkpt>
      <trkpt lat="45.24511" lon="6.42924">
        <ele>679.44</ele>
        <time>2018-09-09T10:23:40Z</time>
      </trkpt>
      <trkpt lat="45.245" lon="6.4295">
        <ele>680.14</ele>
        <time>2018-09-09T10:23:41Z</time>
      </trkpt>
      <trkpt lat="45.24489" lon="6.42976">
        <ele>680.35</ele>
        <time>2018-09-09T10:23:42Z</time>
      </trkpt>
      <trkpt lat="45.24479" lon="6.43002">
        <ele>680.42</ele>
        <time>2018-09-09T10:23:43Z</time>
      </trkpt>
      <trkpt lat="45.24467" lon="6.43027">
        <ele>680.44</ele>
        <time>2018-09-09T10:23:44Z</time>
      </trkpt>
      <trkpt lat="45.24455" lon="6.43051">
        <ele>680.44</ele>
        <time>2018-09-09T10:23:45Z</time>
      </trkpt>
      <trkpt lat="45.24442" lon="6.43074">
        <ele>681.14</ele>
        <time>2018-09-09T10:23:46Z</time>
      </trkpt>
      <trkpt lat="45.24429" lon="6.43097">
        <ele>681.35</ele>
        <time>2018-09-09T10:23:47Z</time>
      </trkpt>
      <trkpt lat="45.24415" lon="6.4312">
        <ele>681.42</ele>
        <time>2018-09-09T10:23:48Z</time>
      </trkpt>
      <trkpt lat="45.24402" lon="6.43141">
        <ele>681.44</ele>
        <time>2018-09-09T10:23:49Z</time>
      </trkpt>
      <trkpt lat="45.24387" lon="6.43162">
        <ele>681.44</ele>
        <time>2018-09-09T10:23:50Z</time>
      </trkpt>
      <trkpt lat="45.24372" lon="6.43182">
        <ele>681.44</ele>
        <time>2018-09-09T10:23:51Z</time>
      </trkpt>
      <trkpt lat="45.24356" lon="6.43201">
        <ele>681.44</ele>
        <time>2018-09-09T10:23:52Z</time>
      </trkpt>
      <trkpt lat="45.2434" lon="6.4322">
        <ele>680.74</ele>
        <time>2018-09-09T10:23:53Z</time>
      </trkpt>
      <trkpt lat="45.24323" lon="6.43238">
        <ele>679.83</ele>
        <time>2018-09-09T10:23:54Z</time>
      </trkpt>
      <trkpt lat="45.24306" lon="6.43255">
        <ele>679.56</ele>
        <time>2018-09-09T10:23:55Z</time>
      </trkpt>
      <trkpt lat="45.24289" lon="6.4327">
        <ele>678.78</ele>
        <time>2018-09-09T10:23:56Z</time>
      </trkpt>
      <trkpt lat="45.24271" lon="6.43285">
        <ele>677.85</ele>
        <time>2018-09-09T10:23:57Z</time>
      </trkpt>
      <trkpt lat="45.24254" lon="6.433">
        <ele>677.57</ele>
        <time>2018-09-09T10:23:58Z</time>
      </trkpt>
      <trkpt lat="45.24237" lon="6.43315">
        <ele>677.48</ele>
        <time>2018-09-09T10:23:59Z</time>
      </trkpt>
      <trkpt lat="45.2422" lon="6.43331">
        <ele>677.46</ele>
        <time>2018-09-09T10:24:00Z</time>
      </trkpt>
      <trkpt lat="45.24202" lon="6.43346">
        <ele>677.45</ele>
        <time>2018-09-09T10:24:01Z</time>
      </trkpt>
      <trkpt lat="45.24185" lon="6.43361">
        <ele>677.45</ele>
        <time>2018-09-09T10:24:02Z</time>
      </trkpt>
      <trkpt lat="45.24169" lon="6.43377">
        <ele>677.45</ele>
        <time>2018-09-09T10:24:03Z</time>
      </trkpt>
      <trkpt lat="45.24152" lon="6.43393">
        <ele>677.45</ele>
        <time>2018-09-09T10:24:04Z</time>
      </trkpt>
      <trkpt lat="45.24136" lon="6.43408">
        <ele>677.45</ele>
        <time>2018-09-09T10:24:05Z</time>
      </trkpt>
      <trkpt lat="45.2412" lon="6.43424">
        <ele>677.45</ele>
        <time>2018-09-09T10:24:06Z</time>
      </trkpt>
      <trkpt lat="45.24103" lon="6.43439">
        <ele>677.45</ele>
        <time>2018-09-09T10:24:07Z</time>
      </trkpt>
      <trkpt lat="45.24087" lon="6.43454">
        <ele>677.45</ele>
        <time>2018-09-09T10:24:08Z</time>
      </trkpt>
      <trkpt lat="45.24071" lon="6.4347">
        <ele>677.45</ele>
        <time>2018-09-09T10:24:09Z</time>
      </trkpt>
      <trkpt lat="45.24055" lon="6.43485">
        <ele>678.15</ele>
        <time>2018-09-09T10:24:10Z</time>
      </trkpt>
      <trkpt lat="45.24038" lon="6.43501">
        <ele>677.66</ele>
        <time>2018-09-09T10:24:11Z</time>
      </trkpt>
      <trkpt lat="45.24021" lon="6.43516">
        <ele>678.21</ele>
        <time>2018-09-09T10:24:12Z</time>
      </trkpt>
      <trkpt lat="45.24004" lon="6.43532">
        <ele>677.67</ele>
        <time>2018-09-09T10:24:13Z</time>
      </trkpt>
      <trkpt lat="45.23988" lon="6.43548">
        <ele>677.51</ele>
        <time>2018-09-09T10:24:14Z</time>
      </trkpt>
      <trkpt lat="45.23971" lon="6.43564">
        <ele>677.47</ele>
        <time>2018-09-09T10:24:15Z</time>
      </trkpt>
      <trkpt lat="45.23954" lon="6.43579">
        <ele>677.45</ele>
        <time>2018-09-09T10:24:16Z</time>
      </trkpt>
      <trkpt lat="45.23935" lon="6.43593">
        <ele>677.45</ele>
        <time>2018-09-09T10:24:17Z</time>
      </trkpt>
      <trkpt lat="45.23916" lon="6.43605">
        <ele>677.45</ele>
        <time>2018-09-09T10:24:18Z</time>
      </trkpt>
      <trkpt lat="45.23897" lon="6.43614">
        <ele>677.45</ele>
        <time>2018-09-09T10:24:19Z</time>
      </trkpt>
      <trkpt lat="45.23878" lon="6.43623">
        <ele>678.15</ele>
        <time>2018-09-09T10:24:20Z</time>
      </trkpt>
      <trkpt lat="45.23858" lon="6.4363">
        <ele>679.05</ele>
        <time>2018-09-09T10:24:21Z</time>
      </trkpt>
      <trkpt lat="45.23839" lon="6.43638">
        <ele>679.33</ele>
        <time>2018-09-09T10:24:22Z</time>
      </trkpt>
      <trkpt lat="45.23822" lon="6.43647">
        <ele>679.41</ele>
        <time>2018-09-09T10:24:23Z</time>
      </trkpt>
      <trkpt lat="45.23803" lon="6.43657">
        <ele>680.13</ele>
        <time>2018-09-09T10:24:24Z</time>
      </trkpt>
      <trkpt lat="45.23784" lon="6.43667">
        <ele>681.05</ele>
        <time>2018-09-09T10:24:25Z</time>
      </trkpt>
      <trkpt lat="45.23767" lon="6.4368">
        <ele>680.63</ele>
        <time>2018-09-09T10:24:26Z</time>
      </trkpt>
      <trkpt lat="45.23751" lon="6.43694">
        <ele>681.2</ele>
        <time>2018-09-09T10:24:27Z</time>
      </trkpt>
      <trkpt lat="45.23735" lon="6.43711">
        <ele>681.37</ele>
        <time>2018-09-09T10:24:28Z</time>
      </trkpt>
      <trkpt lat="45.23721" lon="6.4373">
        <ele>681.42</ele>
        <time>2018-09-09T10:24:29Z</time>
      </trkpt>
      <trkpt lat="45.23709" lon="6.43751">
        <ele>681.44</ele>
        <time>2018-09-09T10:24:30Z</time>
      </trkpt>
      <trkpt lat="45.23698" lon="6.43774">
        <ele>682.14</ele>
        <time>2018-09-09T10:24:31Z</time>
      </trkpt>
      <trkpt lat="45.23689" lon="6.43799">
        <ele>682.35</ele>
        <time>2018-09-09T10:24:32Z</time>
      </trkpt>
      <trkpt lat="45.23681" lon="6.43825">
        <ele>681.72</ele>
        <time>2018-09-09T10:24:33Z</time>
      </trkpt>
      <trkpt lat="45.23673" lon="6.43852">
        <ele>680.13</ele>
        <time>2018-09-09T10:24:34Z</time>
      </trkpt>
      <trkpt lat="45.23667" lon="6.4388">
        <ele>678.25</ele>
        <time>2018-09-09T10:24:35Z</time>
      </trkpt>
      <trkpt lat="45.23663" lon="6.43908">
        <ele>677.69</ele>
        <time>2018-09-09T10:24:36Z</time>
      </trkpt>
      <trkpt lat="45.23659" lon="6.43935">
        <ele>678.92</ele>
        <time>2018-09-09T10:24:37Z</time>
      </trkpt>
      <trkpt lat="45.23655" lon="6.43964">
        <ele>680.69</ele>
        <time>2018-09-09T10:24:38Z</time>
      </trkpt>
      <trkpt lat="45.23651" lon="6.43992">
        <ele>681.22</ele>
        <time>2018-09-09T10:24:39Z</time>
      </trkpt>
      <trkpt lat="45.23646" lon="6.44019">
        <ele>682.78</ele>
        <time>2018-09-09T10:24:40Z</time>
      </trkpt>
      <trkpt lat="45.23641" lon="6.44045">
        <ele>683.24</ele>
        <time>2018-09-09T10:24:41Z</time>
      </trkpt>
      <trkpt lat="45.23636" lon="6.44071">
        <ele>684.08</ele>
        <time>2018-09-09T10:24:42Z</time>
      </trkpt>
      <trkpt lat="45.2363" lon="6.44096">
        <ele>685.04</ele>
        <time>2018-09-09T10:24:43Z</time>
      </trkpt>
      <trkpt lat="45.23617" lon="6.44144">
        <ele>686.11</ele>
        <time>2018-09-09T10:24:45Z</time>
      </trkpt>
      <trkpt lat="45.23609" lon="6.44167">
        <ele>686.34</ele>
        <time>2018-09-09T10:24:46Z</time>
      </trkpt>
      <trkpt lat="45.23599" lon="6.4419">
        <ele>687.11</ele>
        <time>2018-09-09T10:24:47Z</time>
      </trkpt>
      <trkpt lat="45.23588" lon="6.44212">
        <ele>687.35</ele>
        <time>2018-09-09T10:24:48Z</time>
      </trkpt>
      <trkpt lat="45.23576" lon="6.44234">
        <ele>686.72</ele>
        <time>2018-09-09T10:24:49Z</time>
      </trkpt>
      <trkpt lat="45.23562" lon="6.44255">
        <ele>687.23</ele>
        <time>2018-09-09T10:24:50Z</time>
      </trkpt>
      <trkpt lat="45.23549" lon="6.44275">
        <ele>687.38</ele>
        <time>2018-09-09T10:24:51Z</time>
      </trkpt>
      <trkpt lat="45.23534" lon="6.44293">
        <ele>686.73</ele>
        <time>2018-09-09T10:24:52Z</time>
      </trkpt>
      <trkpt lat="45.23518" lon="6.4431">
        <ele>687.23</ele>
        <time>2018-09-09T10:24:53Z</time>
      </trkpt>
      <trkpt lat="45.23502" lon="6.44327">
        <ele>686.68</ele>
        <time>2018-09-09T10:24:54Z</time>
      </trkpt>
      <trkpt lat="45.23486" lon="6.44342">
        <ele>687.22</ele>
        <time>2018-09-09T10:24:55Z</time>
      </trkpt>
      <trkpt lat="45.23469" lon="6.44357">
        <ele>687.38</ele>
        <time>2018-09-09T10:24:56Z</time>
      </trkpt>
      <trkpt lat="45.23452" lon="6.44371">
        <ele>687.42</ele>
        <time>2018-09-09T10:24:57Z</time>
      </trkpt>
      <trkpt lat="45.23435" lon="6.44386">
        <ele>687.44</ele>
        <time>2018-09-09T10:24:58Z</time>
      </trkpt>
      <trkpt lat="45.23418" lon="6.44401">
        <ele>687.44</ele>
        <time>2018-09-09T10:24:59Z</time>
      </trkpt>
      <trkpt lat="45.23402" lon="6.44416">
        <ele>687.44</ele>
        <time>2018-09-09T10:25:00Z</time>
      </trkpt>
      <trkpt lat="45.23385" lon="6.44431">
        <ele>687.44</ele>
        <time>2018-09-09T10:25:01Z</time>
      </trkpt>
      <trkpt lat="45.23368" lon="6.44447">
        <ele>687.44</ele>
        <time>2018-09-09T10:25:02Z</time>
      </trkpt>
      <trkpt lat="45.23351" lon="6.44463">
        <ele>687.45</ele>
        <time>2018-09-09T10:25:03Z</time>
      </trkpt>
      <trkpt lat="45.23335" lon="6.44479">
        <ele>687.45</ele>
        <time>2018-09-09T10:25:04Z</time>
      </trkpt>
      <trkpt lat="45.23318" lon="6.44495">
        <ele>687.45</ele>
        <time>2018-09-09T10:25:05Z</time>
      </trkpt>
      <trkpt lat="45.23302" lon="6.44512">
        <ele>687.45</ele>
        <time>2018-09-09T10:25:06Z</time>
      </trkpt>
      <trkpt lat="45.23286" lon="6.44529">
        <ele>686.74</ele>
        <time>2018-09-09T10:25:07Z</time>
      </trkpt>
      <trkpt lat="45.2327" lon="6.44546">
        <ele>686.53</ele>
        <time>2018-09-09T10:25:08Z</time>
      </trkpt>
      <trkpt lat="45.23254" lon="6.44564">
        <ele>686.47</ele>
        <time>2018-09-09T10:25:09Z</time>
      </trkpt>
      <trkpt lat="45.23238" lon="6.44581">
        <ele>686.45</ele>
        <time>2018-09-09T10:25:10Z</time>
      </trkpt>
      <trkpt lat="45.23223" lon="6.446">
        <ele>687.15</ele>
        <time>2018-09-09T10:25:11Z</time>
      </trkpt>
      <trkpt lat="45.23209" lon="6.44619">
        <ele>687.36</ele>
        <time>2018-09-09T10:25:12Z</time>
      </trkpt>
      <trkpt lat="45.23195" lon="6.44639">
        <ele>687.42</ele>
        <time>2018-09-09T10:25:13Z</time>
      </trkpt>
      <trkpt lat="45.23182" lon="6.44659">
        <ele>688.14</ele>
        <time>2018-09-09T10:25:14Z</time>
      </trkpt>
      <trkpt lat="45.23169" lon="6.4468">
        <ele>688.35</ele>
        <time>2018-09-09T10:25:15Z</time>
      </trkpt>
      <trkpt lat="45.23156" lon="6.447">
        <ele>689.12</ele>
        <time>2018-09-09T10:25:16Z</time>
      </trkpt>
      <trkpt lat="45.23142" lon="6.4472">
        <ele>688.65</ele>
        <time>2018-09-09T10:25:17Z</time>
      </trkpt>
      <trkpt lat="45.2313" lon="6.4474">
        <ele>689.21</ele>
        <time>2018-09-09T10:25:18Z</time>
      </trkpt>
      <trkpt lat="45.23118" lon="6.44761">
        <ele>689.37</ele>
        <time>2018-09-09T10:25:19Z</time>
      </trkpt>
      <trkpt lat="45.23104" lon="6.4478">
        <ele>688.72</ele>
        <time>2018-09-09T10:25:20Z</time>
      </trkpt>
      <trkpt lat="45.23091" lon="6.448">
        <ele>687.83</ele>
        <time>2018-09-09T10:25:21Z</time>
      </trkpt>
      <trkpt lat="45.23077" lon="6.44819">
        <ele>688.26</ele>
        <time>2018-09-09T10:25:22Z</time>
      </trkpt>
      <trkpt lat="45.23064" lon="6.44837">
        <ele>688.39</ele>
        <time>2018-09-09T10:25:23Z</time>
      </trkpt>
      <trkpt lat="45.23051" lon="6.44855">
        <ele>689.13</ele>
        <time>2018-09-09T10:25:24Z</time>
      </trkpt>
      <trkpt lat="45.23035" lon="6.44872">
        <ele>689.35</ele>
        <time>2018-09-09T10:25:25Z</time>
      </trkpt>
      <trkpt lat="45.2302" lon="6.44888">
        <ele>690.12</ele>
        <time>2018-09-09T10:25:26Z</time>
      </trkpt>
      <trkpt lat="45.23004" lon="6.44904">
        <ele>689.65</ele>
        <time>2018-09-09T10:25:27Z</time>
      </trkpt>
      <trkpt lat="45.22985" lon="6.44916">
        <ele>690.21</ele>
        <time>2018-09-09T10:25:28Z</time>
      </trkpt>
      <trkpt lat="45.22968" lon="6.44928">
        <ele>691.07</ele>
        <time>2018-09-09T10:25:29Z</time>
      </trkpt>
      <trkpt lat="45.22935" lon="6.44948">
        <ele>690.71</ele>
        <time>2018-09-09T10:25:31Z</time>
      </trkpt>
      <trkpt lat="45.22918" lon="6.44957">
        <ele>691.92</ele>
        <time>2018-09-09T10:25:32Z</time>
      </trkpt>
      <trkpt lat="45.229" lon="6.44967">
        <ele>692.99</ele>
        <time>2018-09-09T10:25:33Z</time>
      </trkpt>
      <trkpt lat="45.22882" lon="6.44976">
        <ele>692.61</ele>
        <time>2018-09-09T10:25:34Z</time>
      </trkpt>
      <trkpt lat="45.22864" lon="6.44984">
        <ele>693.19</ele>
        <time>2018-09-09T10:25:35Z</time>
      </trkpt>
      <trkpt lat="45.22844" lon="6.44992">
        <ele>692.67</ele>
        <time>2018-09-09T10:25:36Z</time>
      </trkpt>
      <trkpt lat="45.22824" lon="6.44997">
        <ele>691.81</ele>
        <time>2018-09-09T10:25:37Z</time>
      </trkpt>
      <trkpt lat="45.22806" lon="6.45002">
        <ele>690.86</ele>
        <time>2018-09-09T10:25:38Z</time>
      </trkpt>
      <trkpt lat="45.22788" lon="6.45008">
        <ele>689.87</ele>
        <time>2018-09-09T10:25:39Z</time>
      </trkpt>
      <trkpt lat="45.22769" lon="6.45013">
        <ele>690.27</ele>
        <time>2018-09-09T10:25:40Z</time>
      </trkpt>
      <trkpt lat="45.2275" lon="6.45018">
        <ele>689.69</ele>
        <time>2018-09-09T10:25:41Z</time>
      </trkpt>
      <trkpt lat="45.22731" lon="6.45021">
        <ele>689.52</ele>
        <time>2018-09-09T10:25:42Z</time>
      </trkpt>
      <trkpt lat="45.22713" lon="6.45024">
        <ele>689.47</ele>
        <time>2018-09-09T10:25:43Z</time>
      </trkpt>
      <trkpt lat="45.22693" lon="6.45025">
        <ele>689.45</ele>
        <time>2018-09-09T10:25:44Z</time>
      </trkpt>
      <trkpt lat="45.22674" lon="6.45027">
        <ele>689.45</ele>
        <time>2018-09-09T10:25:45Z</time>
      </trkpt>
      <trkpt lat="45.22655" lon="6.4503">
        <ele>689.45</ele>
        <time>2018-09-09T10:25:46Z</time>
      </trkpt>
      <trkpt lat="45.22636" lon="6.45032">
        <ele>690.15</ele>
        <time>2018-09-09T10:25:47Z</time>
      </trkpt>
      <trkpt lat="45.22617" lon="6.45034">
        <ele>690.36</ele>
        <time>2018-09-09T10:25:48Z</time>
      </trkpt>
      <trkpt lat="45.22598" lon="6.45036">
        <ele>691.12</ele>
        <time>2018-09-09T10:25:49Z</time>
      </trkpt>
      <trkpt lat="45.22579" lon="6.45038">
        <ele>692.05</ele>
        <time>2018-09-09T10:25:50Z</time>
      </trkpt>
      <trkpt lat="45.2256" lon="6.4504">
        <ele>693.03</ele>
        <time>2018-09-09T10:25:51Z</time>
      </trkpt>
      <trkpt lat="45.22541" lon="6.45041">
        <ele>693.32</ele>
        <time>2018-09-09T10:25:52Z</time>
      </trkpt>
      <trkpt lat="45.2252" lon="6.45042">
        <ele>694.11</ele>
        <time>2018-09-09T10:25:53Z</time>
      </trkpt>
      <trkpt lat="45.225" lon="6.45044">
        <ele>694.34</ele>
        <time>2018-09-09T10:25:54Z</time>
      </trkpt>
      <trkpt lat="45.22481" lon="6.45046">
        <ele>694.41</ele>
        <time>2018-09-09T10:25:55Z</time>
      </trkpt>
      <trkpt lat="45.22462" lon="6.45048">
        <ele>695.14</ele>
        <time>2018-09-09T10:25:56Z</time>
      </trkpt>
      <trkpt lat="45.22442" lon="6.45052">
        <ele>695.35</ele>
        <time>2018-09-09T10:25:57Z</time>
      </trkpt>
      <trkpt lat="45.22423" lon="6.45058">
        <ele>696.12</ele>
        <time>2018-09-09T10:25:58Z</time>
      </trkpt>
      <trkpt lat="45.22405" lon="6.45064">
        <ele>696.35</ele>
        <time>2018-09-09T10:25:59Z</time>
      </trkpt>
      <trkpt lat="45.22386" lon="6.45072">
        <ele>697.12</ele>
        <time>2018-09-09T10:26:00Z</time>
      </trkpt>
      <trkpt lat="45.22368" lon="6.4508">
        <ele>697.35</ele>
        <time>2018-09-09T10:26:01Z</time>
      </trkpt>
      <trkpt lat="45.2235" lon="6.45089">
        <ele>698.12</ele>
        <time>2018-09-09T10:26:02Z</time>
      </trkpt>
      <trkpt lat="45.22332" lon="6.451">
        <ele>698.35</ele>
        <time>2018-09-09T10:26:03Z</time>
      </trkpt>
      <trkpt lat="45.22316" lon="6.45113">
        <ele>699.12</ele>
        <time>2018-09-09T10:26:04Z</time>
      </trkpt>
      <trkpt lat="45.223" lon="6.45129">
        <ele>700.05</ele>
        <time>2018-09-09T10:26:05Z</time>
      </trkpt>
      <trkpt lat="45.22288" lon="6.4515">
        <ele>700.33</ele>
        <time>2018-09-09T10:26:06Z</time>
      </trkpt>
      <trkpt lat="45.22277" lon="6.4517">
        <ele>699.71</ele>
        <time>2018-09-09T10:26:07Z</time>
      </trkpt>
      <trkpt lat="45.22265" lon="6.45192">
        <ele>699.52</ele>
        <time>2018-09-09T10:26:08Z</time>
      </trkpt>
      <trkpt lat="45.22257" lon="6.45218">
        <ele>700.17</ele>
        <time>2018-09-09T10:26:09Z</time>
      </trkpt>
      <trkpt lat="45.2225" lon="6.45244">
        <ele>699.66</ele>
        <time>2018-09-09T10:26:10Z</time>
      </trkpt>
      <trkpt lat="45.2224" lon="6.45267">
        <ele>699.51</ele>
        <time>2018-09-09T10:26:11Z</time>
      </trkpt>
      <trkpt lat="45.22229" lon="6.45289">
        <ele>698.76</ele>
        <time>2018-09-09T10:26:12Z</time>
      </trkpt>
      <trkpt lat="45.22218" lon="6.45309">
        <ele>697.84</ele>
        <time>2018-09-09T10:26:13Z</time>
      </trkpt>
      <trkpt lat="45.22195" lon="6.45347">
        <ele>697.48</ele>
        <time>2018-09-09T10:26:15Z</time>
      </trkpt>
      <trkpt lat="45.22172" lon="6.45385">
        <ele>697.45</ele>
        <time>2018-09-09T10:26:17Z</time>
      </trkpt>
      <trkpt lat="45.2215" lon="6.45423">
        <ele>698.36</ele>
        <time>2018-09-09T10:26:19Z</time>
      </trkpt>
      <trkpt lat="45.22128" lon="6.45463">
        <ele>698.44</ele>
        <time>2018-09-09T10:26:21Z</time>
      </trkpt>
      <trkpt lat="45.22118" lon="6.45484">
        <ele>698.44</ele>
        <time>2018-09-09T10:26:22Z</time>
      </trkpt>
      <trkpt lat="45.22101" lon="6.4553">
        <ele>699.14</ele>
        <time>2018-09-09T10:26:24Z</time>
      </trkpt>
      <trkpt lat="45.22089" lon="6.45577">
        <ele>698.72</ele>
        <time>2018-09-09T10:26:26Z</time>
      </trkpt>
      <trkpt lat="45.22086" lon="6.45605">
        <ele>697.13</ele>
        <time>2018-09-09T10:26:27Z</time>
      </trkpt>
      <trkpt lat="45.22079" lon="6.45651">
        <ele>696.51</ele>
        <time>2018-09-09T10:26:29Z</time>
      </trkpt>
      <trkpt lat="45.22075" lon="6.45695">
        <ele>696.45</ele>
        <time>2018-09-09T10:26:31Z</time>
      </trkpt>
      <trkpt lat="45.22071" lon="6.45738">
        <ele>696.45</ele>
        <time>2018-09-09T10:26:33Z</time>
      </trkpt>
      <trkpt lat="45.22067" lon="6.4578">
        <ele>697.36</ele>
        <time>2018-09-09T10:26:35Z</time>
      </trkpt>
      <trkpt lat="45.22062" lon="6.45822">
        <ele>698.35</ele>
        <time>2018-09-09T10:26:37Z</time>
      </trkpt>
      <trkpt lat="45.22058" lon="6.45864">
        <ele>699.14</ele>
        <time>2018-09-09T10:26:39Z</time>
      </trkpt>
      <trkpt lat="45.22053" lon="6.45906">
        <ele>700.12</ele>
        <time>2018-09-09T10:26:41Z</time>
      </trkpt>
      <trkpt lat="45.22049" lon="6.45948">
        <ele>701.33</ele>
        <time>2018-09-09T10:26:43Z</time>
      </trkpt>
      <trkpt lat="45.22047" lon="6.4599">
        <ele>703.25</ele>
        <time>2018-09-09T10:26:45Z</time>
      </trkpt>
      <trkpt lat="45.22045" lon="6.4603">
        <ele>704.34</ele>
        <time>2018-09-09T10:26:47Z</time>
      </trkpt>
      <trkpt lat="45.2204" lon="6.46068">
        <ele>705.35</ele>
        <time>2018-09-09T10:26:49Z</time>
      </trkpt>
      <trkpt lat="45.22032" lon="6.46108">
        <ele>705.44</ele>
        <time>2018-09-09T10:26:51Z</time>
      </trkpt>
      <trkpt lat="45.22024" lon="6.46149">
        <ele>706.14</ele>
        <time>2018-09-09T10:26:53Z</time>
      </trkpt>
      <trkpt lat="45.22017" lon="6.4619">
        <ele>707.33</ele>
        <time>2018-09-09T10:26:55Z</time>
      </trkpt>
      <trkpt lat="45.2201" lon="6.46231">
        <ele>708.13</ele>
        <time>2018-09-09T10:26:57Z</time>
      </trkpt>
      <trkpt lat="45.22004" lon="6.46274">
        <ele>709.12</ele>
        <time>2018-09-09T10:26:59Z</time>
      </trkpt>
      <trkpt lat="45.21999" lon="6.46317">
        <ele>710.33</ele>
        <time>2018-09-09T10:27:01Z</time>
      </trkpt>
      <trkpt lat="45.21995" lon="6.46357">
        <ele>710.64</ele>
        <time>2018-09-09T10:27:03Z</time>
      </trkpt>
      <trkpt lat="45.21992" lon="6.46394">
        <ele>711.16</ele>
        <time>2018-09-09T10:27:05Z</time>
      </trkpt>
      <trkpt lat="45.21989" lon="6.46427">
        <ele>711.42</ele>
        <time>2018-09-09T10:27:07Z</time>
      </trkpt>
      <trkpt lat="45.21984" lon="6.46456">
        <ele>712.35</ele>
        <time>2018-09-09T10:27:09Z</time>
      </trkpt>
      <trkpt lat="45.21975" lon="6.46479">
        <ele>712.65</ele>
        <time>2018-09-09T10:27:11Z</time>
      </trkpt>
      <trkpt lat="45.21975" lon="6.46508">
        <ele>712.45</ele>
        <time>2018-09-09T10:27:14Z</time>
      </trkpt>
      <trkpt lat="45.21976" lon="6.46539">
        <ele>711.47</ele>
        <time>2018-09-09T10:27:17Z</time>
      </trkpt>
      <trkpt lat="45.21973" lon="6.46564">
        <ele>712.15</ele>
        <time>2018-09-09T10:27:19Z</time>
      </trkpt>
      <trkpt lat="45.21971" lon="6.46591">
        <ele>713.12</ele>
        <time>2018-09-09T10:27:21Z</time>
      </trkpt>
      <trkpt lat="45.2197" lon="6.46619">
        <ele>712.72</ele>
        <time>2018-09-09T10:27:23Z</time>
      </trkpt>
      <trkpt lat="45.21964" lon="6.46652">
        <ele>713.38</ele>
        <time>2018-09-09T10:27:25Z</time>
      </trkpt>
      <trkpt lat="45.2196" lon="6.46689">
        <ele>713.44</ele>
        <time>2018-09-09T10:27:27Z</time>
      </trkpt>
      <trkpt lat="45.21957" lon="6.46728">
        <ele>713.44</ele>
        <time>2018-09-09T10:27:29Z</time>
      </trkpt>
      <trkpt lat="45.21953" lon="6.46765">
        <ele>714.35</ele>
        <time>2018-09-09T10:27:31Z</time>
      </trkpt>
      <trkpt lat="45.21949" lon="6.468">
        <ele>714.44</ele>
        <time>2018-09-09T10:27:33Z</time>
      </trkpt>
      <trkpt lat="45.21946" lon="6.46835">
        <ele>714.44</ele>
        <time>2018-09-09T10:27:35Z</time>
      </trkpt>
      <trkpt lat="45.21942" lon="6.4687">
        <ele>716.05</ele>
        <time>2018-09-09T10:27:37Z</time>
      </trkpt>
      <trkpt lat="45.21935" lon="6.46903">
        <ele>717.32</ele>
        <time>2018-09-09T10:27:39Z</time>
      </trkpt>
      <trkpt lat="45.21921" lon="6.46932">
        <ele>717.43</ele>
        <time>2018-09-09T10:27:41Z</time>
      </trkpt>
      <trkpt lat="45.21906" lon="6.46958">
        <ele>717.44</ele>
        <time>2018-09-09T10:27:43Z</time>
      </trkpt>
      <trkpt lat="45.21892" lon="6.46985">
        <ele>717.44</ele>
        <time>2018-09-09T10:27:45Z</time>
      </trkpt>
      <trkpt lat="45.21876" lon="6.47011">
        <ele>717.45</ele>
        <time>2018-09-09T10:27:47Z</time>
      </trkpt>
      <trkpt lat="45.21858" lon="6.47036">
        <ele>717.45</ele>
        <time>2018-09-09T10:27:49Z</time>
      </trkpt>
      <trkpt lat="45.21841" lon="6.4706">
        <ele>718.15</ele>
        <time>2018-09-09T10:27:51Z</time>
      </trkpt>
      <trkpt lat="45.21822" lon="6.47083">
        <ele>718.42</ele>
        <time>2018-09-09T10:27:53Z</time>
      </trkpt>
      <trkpt lat="45.21806" lon="6.47107">
        <ele>718.44</ele>
        <time>2018-09-09T10:27:55Z</time>
      </trkpt>
      <trkpt lat="45.21785" lon="6.4713">
        <ele>718.65</ele>
        <time>2018-09-09T10:27:57Z</time>
      </trkpt>
      <trkpt lat="45.21767" lon="6.47148">
        <ele>719.16</ele>
        <time>2018-09-09T10:27:59Z</time>
      </trkpt>
      <trkpt lat="45.21755" lon="6.4717">
        <ele>719.42</ele>
        <time>2018-09-09T10:28:01Z</time>
      </trkpt>
      <trkpt lat="45.21744" lon="6.47195">
        <ele>720.14</ele>
        <time>2018-09-09T10:28:03Z</time>
      </trkpt>
      <trkpt lat="45.21732" lon="6.4722">
        <ele>720.42</ele>
        <time>2018-09-09T10:28:05Z</time>
      </trkpt>
      <trkpt lat="45.21718" lon="6.47244">
        <ele>720.23</ele>
        <time>2018-09-09T10:28:07Z</time>
      </trkpt>
      <trkpt lat="45.21704" lon="6.47268">
        <ele>721.34</ele>
        <time>2018-09-09T10:28:09Z</time>
      </trkpt>
      <trkpt lat="45.21689" lon="6.47291">
        <ele>722.14</ele>
        <time>2018-09-09T10:28:11Z</time>
      </trkpt>
      <trkpt lat="45.21674" lon="6.47314">
        <ele>722.42</ele>
        <time>2018-09-09T10:28:13Z</time>
      </trkpt>
      <trkpt lat="45.21659" lon="6.47339">
        <ele>722.65</ele>
        <time>2018-09-09T10:28:15Z</time>
      </trkpt>
      <trkpt lat="45.21646" lon="6.47362">
        <ele>721.76</ele>
        <time>2018-09-09T10:28:17Z</time>
      </trkpt>
      <trkpt lat="45.21634" lon="6.47382">
        <ele>721.47</ele>
        <time>2018-09-09T10:28:19Z</time>
      </trkpt>
      <trkpt lat="45.2162" lon="6.47409">
        <ele>721.45</ele>
        <time>2018-09-09T10:28:22Z</time>
      </trkpt>
      <trkpt lat="45.21606" lon="6.47434">
        <ele>722.15</ele>
        <time>2018-09-09T10:28:25Z</time>
      </trkpt>
      <trkpt lat="45.21593" lon="6.47459">
        <ele>724.05</ele>
        <time>2018-09-09T10:28:29Z</time>
      </trkpt>
      <trkpt lat="45.2158" lon="6.47479">
        <ele>724.74</ele>
        <time>2018-09-09T10:28:45Z</time>
      </trkpt>
      <trkpt lat="45.21563" lon="6.47504">
        <ele>723.48</ele>
        <time>2018-09-09T10:28:48Z</time>
      </trkpt>
      <trkpt lat="45.21547" lon="6.47523">
        <ele>722.54</ele>
        <time>2018-09-09T10:28:50Z</time>
      </trkpt>
      <trkpt lat="45.21531" lon="6.47543">
        <ele>721.54</ele>
        <time>2018-09-09T10:28:52Z</time>
      </trkpt>
      <trkpt lat="45.21514" lon="6.47565">
        <ele>721.45</ele>
        <time>2018-09-09T10:28:54Z</time>
      </trkpt>
      <trkpt lat="45.21497" lon="6.47587">
        <ele>721.45</ele>
        <time>2018-09-09T10:28:56Z</time>
      </trkpt>
      <trkpt lat="45.2148" lon="6.47609">
        <ele>720.33</ele>
        <time>2018-09-09T10:28:58Z</time>
      </trkpt>
      <trkpt lat="45.21462" lon="6.47632">
        <ele>721.34</ele>
        <time>2018-09-09T10:29:00Z</time>
      </trkpt>
      <trkpt lat="45.21441" lon="6.47651">
        <ele>722.35</ele>
        <time>2018-09-09T10:29:02Z</time>
      </trkpt>
      <trkpt lat="45.21419" lon="6.47667">
        <ele>723.14</ele>
        <time>2018-09-09T10:29:04Z</time>
      </trkpt>
      <trkpt lat="45.21399" lon="6.47685">
        <ele>722.51</ele>
        <time>2018-09-09T10:29:06Z</time>
      </trkpt>
      <trkpt lat="45.21378" lon="6.47703">
        <ele>722.24</ele>
        <time>2018-09-09T10:29:08Z</time>
      </trkpt>
      <trkpt lat="45.21355" lon="6.47719">
        <ele>723.83</ele>
        <time>2018-09-09T10:29:10Z</time>
      </trkpt>
      <trkpt lat="45.21333" lon="6.47734">
        <ele>724.39</ele>
        <time>2018-09-09T10:29:12Z</time>
      </trkpt>
      <trkpt lat="45.2131" lon="6.47749">
        <ele>724.23</ele>
        <time>2018-09-09T10:29:14Z</time>
      </trkpt>
      <trkpt lat="45.21288" lon="6.47766">
        <ele>721.91</ele>
        <time>2018-09-09T10:29:16Z</time>
      </trkpt>
      <trkpt lat="45.21264" lon="6.47782">
        <ele>721.49</ele>
        <time>2018-09-09T10:29:18Z</time>
      </trkpt>
      <trkpt lat="45.2124" lon="6.47797">
        <ele>720.75</ele>
        <time>2018-09-09T10:29:20Z</time>
      </trkpt>
      <trkpt lat="45.21214" lon="6.47814">
        <ele>719.77</ele>
        <time>2018-09-09T10:29:22Z</time>
      </trkpt>
      <trkpt lat="45.21188" lon="6.47831">
        <ele>720.38</ele>
        <time>2018-09-09T10:29:24Z</time>
      </trkpt>
      <trkpt lat="45.21161" lon="6.47849">
        <ele>721.35</ele>
        <time>2018-09-09T10:29:26Z</time>
      </trkpt>
      <trkpt lat="45.21134" lon="6.47866">
        <ele>722.14</ele>
        <time>2018-09-09T10:29:28Z</time>
      </trkpt>
      <trkpt lat="45.21105" lon="6.47884">
        <ele>722.63</ele>
        <time>2018-09-09T10:29:30Z</time>
      </trkpt>
      <trkpt lat="45.21079" lon="6.47905">
        <ele>722.67</ele>
        <time>2018-09-09T10:29:32Z</time>
      </trkpt>
      <trkpt lat="45.21052" lon="6.47927">
        <ele>724.08</ele>
        <time>2018-09-09T10:29:34Z</time>
      </trkpt>
      <trkpt lat="45.21034" lon="6.47957">
        <ele>725.81</ele>
        <time>2018-09-09T10:29:36Z</time>
      </trkpt>
      <trkpt lat="45.21025" lon="6.47995">
        <ele>727.09</ele>
        <time>2018-09-09T10:29:38Z</time>
      </trkpt>
      <trkpt lat="45.21028" lon="6.48044">
        <ele>729.02</ele>
        <time>2018-09-09T10:29:40Z</time>
      </trkpt>
      <trkpt lat="45.21034" lon="6.4807">
        <ele>730.72</ele>
        <time>2018-09-09T10:29:41Z</time>
      </trkpt>
      <trkpt lat="45.2104" lon="6.48098">
        <ele>731.23</ele>
        <time>2018-09-09T10:29:42Z</time>
      </trkpt>
      <trkpt lat="45.21047" lon="6.48126">
        <ele>732.08</ele>
        <time>2018-09-09T10:29:43Z</time>
      </trkpt>
      <trkpt lat="45.21054" lon="6.48155">
        <ele>733.04</ele>
        <time>2018-09-09T10:29:44Z</time>
      </trkpt>
      <trkpt lat="45.21059" lon="6.48183">
        <ele>733.32</ele>
        <time>2018-09-09T10:29:45Z</time>
      </trkpt>
      <trkpt lat="45.21064" lon="6.48212">
        <ele>734.11</ele>
        <time>2018-09-09T10:29:46Z</time>
      </trkpt>
      <trkpt lat="45.21068" lon="6.4824">
        <ele>735.04</ele>
        <time>2018-09-09T10:29:47Z</time>
      </trkpt>
      <trkpt lat="45.2107" lon="6.48269">
        <ele>736.02</ele>
        <time>2018-09-09T10:29:48Z</time>
      </trkpt>
      <trkpt lat="45.21071" lon="6.48298">
        <ele>737.02</ele>
        <time>2018-09-09T10:29:49Z</time>
      </trkpt>
      <trkpt lat="45.21072" lon="6.48326">
        <ele>738.02</ele>
        <time>2018-09-09T10:29:50Z</time>
      </trkpt>
      <trkpt lat="45.21073" lon="6.48355">
        <ele>739.02</ele>
        <time>2018-09-09T10:29:51Z</time>
      </trkpt>
      <trkpt lat="45.21075" lon="6.48382">
        <ele>740.02</ele>
        <time>2018-09-09T10:29:52Z</time>
      </trkpt>
      <trkpt lat="45.21076" lon="6.4841">
        <ele>741.02</ele>
        <time>2018-09-09T10:29:53Z</time>
      </trkpt>
      <trkpt lat="45.21075" lon="6.48438">
        <ele>742.72</ele>
        <time>2018-09-09T10:29:54Z</time>
      </trkpt>
      <trkpt lat="45.21073" lon="6.48466">
        <ele>743.93</ele>
        <time>2018-09-09T10:29:55Z</time>
      </trkpt>
      <trkpt lat="45.21068" lon="6.48493">
        <ele>744.99</ele>
        <time>2018-09-09T10:29:56Z</time>
      </trkpt>
      <trkpt lat="45.21062" lon="6.4852">
        <ele>745.31</ele>
        <time>2018-09-09T10:29:57Z</time>
      </trkpt>
      <trkpt lat="45.21053" lon="6.48545">
        <ele>746.1</ele>
        <time>2018-09-09T10:29:58Z</time>
      </trkpt>
      <trkpt lat="45.21044" lon="6.48572">
        <ele>746.34</ele>
        <time>2018-09-09T10:29:59Z</time>
      </trkpt>
      <trkpt lat="45.21035" lon="6.48598">
        <ele>746.41</ele>
        <time>2018-09-09T10:30:00Z</time>
      </trkpt>
      <trkpt lat="45.21027" lon="6.48625">
        <ele>747.14</ele>
        <time>2018-09-09T10:30:01Z</time>
      </trkpt>
      <trkpt lat="45.2102" lon="6.48651">
        <ele>748.05</ele>
        <time>2018-09-09T10:30:02Z</time>
      </trkpt>
      <trkpt lat="45.21017" lon="6.4868">
        <ele>748.33</ele>
        <time>2018-09-09T10:30:03Z</time>
      </trkpt>
      <trkpt lat="45.21015" lon="6.48709">
        <ele>749.11</ele>
        <time>2018-09-09T10:30:04Z</time>
      </trkpt>
      <trkpt lat="45.21016" lon="6.48738">
        <ele>750.04</ele>
        <time>2018-09-09T10:30:05Z</time>
      </trkpt>
      <trkpt lat="45.21017" lon="6.48766">
        <ele>750.32</ele>
        <time>2018-09-09T10:30:06Z</time>
      </trkpt>
      <trkpt lat="45.21019" lon="6.48794">
        <ele>750.41</ele>
        <time>2018-09-09T10:30:07Z</time>
      </trkpt>
      <trkpt lat="45.21021" lon="6.48822">
        <ele>750.43</ele>
        <time>2018-09-09T10:30:08Z</time>
      </trkpt>
      <trkpt lat="45.21024" lon="6.4885">
        <ele>750.44</ele>
        <time>2018-09-09T10:30:09Z</time>
      </trkpt>
      <trkpt lat="45.21028" lon="6.48877">
        <ele>750.44</ele>
        <time>2018-09-09T10:30:10Z</time>
      </trkpt>
      <trkpt lat="45.21033" lon="6.48905">
        <ele>750.44</ele>
        <time>2018-09-09T10:30:11Z</time>
      </trkpt>
      <trkpt lat="45.21039" lon="6.48932">
        <ele>750.44</ele>
        <time>2018-09-09T10:30:12Z</time>
      </trkpt>
      <trkpt lat="45.21044" lon="6.4896">
        <ele>750.44</ele>
        <time>2018-09-09T10:30:13Z</time>
      </trkpt>
      <trkpt lat="45.21049" lon="6.48986">
        <ele>750.45</ele>
        <time>2018-09-09T10:30:14Z</time>
      </trkpt>
      <trkpt lat="45.21056" lon="6.49014">
        <ele>751.15</ele>
        <time>2018-09-09T10:30:15Z</time>
      </trkpt>
      <trkpt lat="45.21062" lon="6.49042">
        <ele>751.35</ele>
        <time>2018-09-09T10:30:16Z</time>
      </trkpt>
      <trkpt lat="45.21068" lon="6.4907">
        <ele>752.82</ele>
        <time>2018-09-09T10:30:17Z</time>
      </trkpt>
      <trkpt lat="45.21071" lon="6.49098">
        <ele>753.26</ele>
        <time>2018-09-09T10:30:18Z</time>
      </trkpt>
      <trkpt lat="45.21073" lon="6.49127">
        <ele>754.09</ele>
        <time>2018-09-09T10:30:19Z</time>
      </trkpt>
      <trkpt lat="45.21075" lon="6.49155">
        <ele>754.34</ele>
        <time>2018-09-09T10:30:20Z</time>
      </trkpt>
      <trkpt lat="45.21076" lon="6.49184">
        <ele>755.11</ele>
        <time>2018-09-09T10:30:21Z</time>
      </trkpt>
      <trkpt lat="45.21076" lon="6.49213">
        <ele>756.05</ele>
        <time>2018-09-09T10:30:22Z</time>
      </trkpt>
      <trkpt lat="45.21076" lon="6.49241">
        <ele>757.03</ele>
        <time>2018-09-09T10:30:23Z</time>
      </trkpt>
      <trkpt lat="45.21077" lon="6.4927">
        <ele>758.02</ele>
        <time>2018-09-09T10:30:24Z</time>
      </trkpt>
      <trkpt lat="45.21079" lon="6.49299">
        <ele>759.02</ele>
        <time>2018-09-09T10:30:25Z</time>
      </trkpt>
      <trkpt lat="45.2108" lon="6.49327">
        <ele>760.02</ele>
        <time>2018-09-09T10:30:26Z</time>
      </trkpt>
      <trkpt lat="45.2108" lon="6.49356">
        <ele>760.32</ele>
        <time>2018-09-09T10:30:27Z</time>
      </trkpt>
      <trkpt lat="45.2108" lon="6.49385">
        <ele>761.11</ele>
        <time>2018-09-09T10:30:28Z</time>
      </trkpt>
      <trkpt lat="45.21081" lon="6.49414">
        <ele>761.34</ele>
        <time>2018-09-09T10:30:29Z</time>
      </trkpt>
      <trkpt lat="45.21081" lon="6.49443">
        <ele>762.11</ele>
        <time>2018-09-09T10:30:30Z</time>
      </trkpt>
      <trkpt lat="45.21083" lon="6.49472">
        <ele>763.05</ele>
        <time>2018-09-09T10:30:31Z</time>
      </trkpt>
      <trkpt lat="45.21084" lon="6.49502">
        <ele>764.03</ele>
        <time>2018-09-09T10:30:32Z</time>
      </trkpt>
      <trkpt lat="45.21086" lon="6.49531">
        <ele>765.02</ele>
        <time>2018-09-09T10:30:33Z</time>
      </trkpt>
      <trkpt lat="45.21086" lon="6.49559">
        <ele>766.02</ele>
        <time>2018-09-09T10:30:34Z</time>
      </trkpt>
      <trkpt lat="45.21087" lon="6.49588">
        <ele>767.02</ele>
        <time>2018-09-09T10:30:35Z</time>
      </trkpt>
      <trkpt lat="45.21088" lon="6.49616">
        <ele>768.02</ele>
        <time>2018-09-09T10:30:36Z</time>
      </trkpt>
      <trkpt lat="45.21088" lon="6.49644">
        <ele>768.32</ele>
        <time>2018-09-09T10:30:37Z</time>
      </trkpt>
      <trkpt lat="45.21088" lon="6.49672">
        <ele>769.11</ele>
        <time>2018-09-09T10:30:38Z</time>
      </trkpt>
      <trkpt lat="45.21088" lon="6.49699">
        <ele>769.34</ele>
        <time>2018-09-09T10:30:39Z</time>
      </trkpt>
      <trkpt lat="45.21089" lon="6.49727">
        <ele>769.41</ele>
        <time>2018-09-09T10:30:40Z</time>
      </trkpt>
      <trkpt lat="45.2109" lon="6.49756">
        <ele>770.14</ele>
        <time>2018-09-09T10:30:41Z</time>
      </trkpt>
      <trkpt lat="45.21091" lon="6.49784">
        <ele>771.05</ele>
        <time>2018-09-09T10:30:42Z</time>
      </trkpt>
      <trkpt lat="45.21092" lon="6.49812">
        <ele>772.03</ele>
        <time>2018-09-09T10:30:43Z</time>
      </trkpt>
      <trkpt lat="45.21093" lon="6.4984">
        <ele>772.32</ele>
        <time>2018-09-09T10:30:44Z</time>
      </trkpt>
      <trkpt lat="45.21094" lon="6.49868">
        <ele>773.11</ele>
        <time>2018-09-09T10:30:45Z</time>
      </trkpt>
      <trkpt lat="45.21095" lon="6.49896">
        <ele>774.04</ele>
        <time>2018-09-09T10:30:46Z</time>
      </trkpt>
      <trkpt lat="45.21097" lon="6.49925">
        <ele>774.32</ele>
        <time>2018-09-09T10:30:47Z</time>
      </trkpt>
      <trkpt lat="45.21098" lon="6.49953">
        <ele>775.11</ele>
        <time>2018-09-09T10:30:48Z</time>
      </trkpt>
      <trkpt lat="45.211" lon="6.49982">
        <ele>775.34</ele>
        <time>2018-09-09T10:30:49Z</time>
      </trkpt>
      <trkpt lat="45.21101" lon="6.50012">
        <ele>776.11</ele>
        <time>2018-09-09T10:30:50Z</time>
      </trkpt>
      <trkpt lat="45.21103" lon="6.50041">
        <ele>777.05</ele>
        <time>2018-09-09T10:30:51Z</time>
      </trkpt>
      <trkpt lat="45.21105" lon="6.5007">
        <ele>777.33</ele>
        <time>2018-09-09T10:30:52Z</time>
      </trkpt>
      <trkpt lat="45.21106" lon="6.501">
        <ele>778.11</ele>
        <time>2018-09-09T10:30:53Z</time>
      </trkpt>
      <trkpt lat="45.21108" lon="6.50129">
        <ele>779.04</ele>
        <time>2018-09-09T10:30:54Z</time>
      </trkpt>
      <trkpt lat="45.21109" lon="6.50159">
        <ele>780.02</ele>
        <time>2018-09-09T10:30:55Z</time>
      </trkpt>
      <trkpt lat="45.2111" lon="6.50189">
        <ele>781.02</ele>
        <time>2018-09-09T10:30:56Z</time>
      </trkpt>
      <trkpt lat="45.21111" lon="6.50219">
        <ele>782.02</ele>
        <time>2018-09-09T10:30:57Z</time>
      </trkpt>
      <trkpt lat="45.21112" lon="6.50249">
        <ele>783.02</ele>
        <time>2018-09-09T10:30:58Z</time>
      </trkpt>
      <trkpt lat="45.21114" lon="6.50278">
        <ele>783.32</ele>
        <time>2018-09-09T10:30:59Z</time>
      </trkpt>
      <trkpt lat="45.21116" lon="6.50309">
        <ele>783.41</ele>
        <time>2018-09-09T10:31:00Z</time>
      </trkpt>
      <trkpt lat="45.21117" lon="6.50339">
        <ele>784.13</ele>
        <time>2018-09-09T10:31:01Z</time>
      </trkpt>
      <trkpt lat="45.21119" lon="6.5037">
        <ele>785.05</ele>
        <time>2018-09-09T10:31:02Z</time>
      </trkpt>
      <trkpt lat="45.21121" lon="6.50401">
        <ele>786.03</ele>
        <time>2018-09-09T10:31:03Z</time>
      </trkpt>
      <trkpt lat="45.21123" lon="6.50431">
        <ele>786.32</ele>
        <time>2018-09-09T10:31:04Z</time>
      </trkpt>
      <trkpt lat="45.21125" lon="6.50462">
        <ele>786.41</ele>
        <time>2018-09-09T10:31:05Z</time>
      </trkpt>
      <trkpt lat="45.21126" lon="6.50493">
        <ele>787.13</ele>
        <time>2018-09-09T10:31:06Z</time>
      </trkpt>
      <trkpt lat="45.21127" lon="6.50524">
        <ele>787.35</ele>
        <time>2018-09-09T10:31:07Z</time>
      </trkpt>
      <trkpt lat="45.21127" lon="6.50554">
        <ele>788.12</ele>
        <time>2018-09-09T10:31:08Z</time>
      </trkpt>
      <trkpt lat="45.21126" lon="6.50586">
        <ele>789.05</ele>
        <time>2018-09-09T10:31:09Z</time>
      </trkpt>
      <trkpt lat="45.21126" lon="6.50617">
        <ele>790.03</ele>
        <time>2018-09-09T10:31:10Z</time>
      </trkpt>
      <trkpt lat="45.21125" lon="6.50648">
        <ele>791.02</ele>
        <time>2018-09-09T10:31:11Z</time>
      </trkpt>
      <trkpt lat="45.21124" lon="6.50678">
        <ele>792.02</ele>
        <time>2018-09-09T10:31:12Z</time>
      </trkpt>
      <trkpt lat="45.21125" lon="6.5071">
        <ele>793.02</ele>
        <time>2018-09-09T10:31:13Z</time>
      </trkpt>
      <trkpt lat="45.21124" lon="6.5074">
        <ele>794.02</ele>
        <time>2018-09-09T10:31:14Z</time>
      </trkpt>
      <trkpt lat="45.21124" lon="6.5077">
        <ele>795.02</ele>
        <time>2018-09-09T10:31:15Z</time>
      </trkpt>
      <trkpt lat="45.21123" lon="6.50799">
        <ele>796.02</ele>
        <time>2018-09-09T10:31:16Z</time>
      </trkpt>
      <trkpt lat="45.21122" lon="6.50828">
        <ele>797.02</ele>
        <time>2018-09-09T10:31:17Z</time>
      </trkpt>
      <trkpt lat="45.2112" lon="6.50856">
        <ele>798.02</ele>
        <time>2018-09-09T10:31:18Z</time>
      </trkpt>
      <trkpt lat="45.21118" lon="6.50884">
        <ele>799.72</ele>
        <time>2018-09-09T10:31:19Z</time>
      </trkpt>
      <trkpt lat="45.21116" lon="6.50912">
        <ele>800.93</ele>
        <time>2018-09-09T10:31:20Z</time>
      </trkpt>
      <trkpt lat="45.21113" lon="6.5094">
        <ele>802.69</ele>
        <time>2018-09-09T10:31:21Z</time>
      </trkpt>
      <trkpt lat="45.21107" lon="6.50968">
        <ele>803.92</ele>
        <time>2018-09-09T10:31:22Z</time>
      </trkpt>
      <trkpt lat="45.21102" lon="6.50995">
        <ele>804.99</ele>
        <time>2018-09-09T10:31:23Z</time>
      </trkpt>
      <trkpt lat="45.21095" lon="6.51021">
        <ele>806.71</ele>
        <time>2018-09-09T10:31:24Z</time>
      </trkpt>
      <trkpt lat="45.21087" lon="6.51047">
        <ele>807.92</ele>
        <time>2018-09-09T10:31:25Z</time>
      </trkpt>
      <trkpt lat="45.21079" lon="6.51073">
        <ele>808.99</ele>
        <time>2018-09-09T10:31:26Z</time>
      </trkpt>
      <trkpt lat="45.21069" lon="6.51099">
        <ele>810.71</ele>
        <time>2018-09-09T10:31:27Z</time>
      </trkpt>
      <trkpt lat="45.2106" lon="6.51125">
        <ele>811.92</ele>
        <time>2018-09-09T10:31:28Z</time>
      </trkpt>
      <trkpt lat="45.21051" lon="6.51152">
        <ele>813.69</ele>
        <time>2018-09-09T10:31:29Z</time>
      </trkpt>
      <trkpt lat="45.21042" lon="6.51179">
        <ele>814.92</ele>
        <time>2018-09-09T10:31:30Z</time>
      </trkpt>
      <trkpt lat="45.21034" lon="6.51205">
        <ele>816.69</ele>
        <time>2018-09-09T10:31:31Z</time>
      </trkpt>
      <trkpt lat="45.21025" lon="6.51231">
        <ele>817.92</ele>
        <time>2018-09-09T10:31:32Z</time>
      </trkpt>
      <trkpt lat="45.21017" lon="6.51259">
        <ele>818.99</ele>
        <time>2018-09-09T10:31:33Z</time>
      </trkpt>
      <trkpt lat="45.2101" lon="6.51286">
        <ele>820.01</ele>
        <time>2018-09-09T10:31:34Z</time>
      </trkpt>
      <trkpt lat="45.21007" lon="6.51315">
        <ele>821.01</ele>
        <time>2018-09-09T10:31:35Z</time>
      </trkpt>
      <trkpt lat="45.21004" lon="6.51343">
        <ele>822.02</ele>
        <time>2018-09-09T10:31:36Z</time>
      </trkpt>
      <trkpt lat="45.21001" lon="6.51372">
        <ele>822.32</ele>
        <time>2018-09-09T10:31:37Z</time>
      </trkpt>
      <trkpt lat="45.20998" lon="6.51401">
        <ele>823.11</ele>
        <time>2018-09-09T10:31:38Z</time>
      </trkpt>
      <trkpt lat="45.20996" lon="6.51429">
        <ele>823.34</ele>
        <time>2018-09-09T10:31:39Z</time>
      </trkpt>
      <trkpt lat="45.20993" lon="6.51458">
        <ele>823.41</ele>
        <time>2018-09-09T10:31:40Z</time>
      </trkpt>
      <trkpt lat="45.20989" lon="6.51486">
        <ele>824.84</ele>
        <time>2018-09-09T10:31:41Z</time>
      </trkpt>
      <trkpt lat="45.20985" lon="6.51514">
        <ele>825.26</ele>
        <time>2018-09-09T10:31:42Z</time>
      </trkpt>
      <trkpt lat="45.20981" lon="6.51543">
        <ele>826.09</ele>
        <time>2018-09-09T10:31:43Z</time>
      </trkpt>
      <trkpt lat="45.20975" lon="6.5157">
        <ele>827.04</ele>
        <time>2018-09-09T10:31:44Z</time>
      </trkpt>
      <trkpt lat="45.20968" lon="6.51598">
        <ele>827.32</ele>
        <time>2018-09-09T10:31:45Z</time>
      </trkpt>
      <trkpt lat="45.20959" lon="6.51624">
        <ele>828.11</ele>
        <time>2018-09-09T10:31:46Z</time>
      </trkpt>
      <trkpt lat="45.2095" lon="6.51648">
        <ele>828.34</ele>
        <time>2018-09-09T10:31:47Z</time>
      </trkpt>
      <trkpt lat="45.20935" lon="6.51692">
        <ele>829.14</ele>
        <time>2018-09-09T10:31:49Z</time>
      </trkpt>
      <trkpt lat="45.20926" lon="6.51736">
        <ele>829.42</ele>
        <time>2018-09-09T10:31:51Z</time>
      </trkpt>
      <trkpt lat="45.2093" lon="6.5178">
        <ele>829.44</ele>
        <time>2018-09-09T10:31:53Z</time>
      </trkpt>
      <trkpt lat="45.20929" lon="6.51828">
        <ele>830.14</ele>
        <time>2018-09-09T10:31:55Z</time>
      </trkpt>
      <trkpt lat="45.2092" lon="6.51877">
        <ele>830.42</ele>
        <time>2018-09-09T10:31:57Z</time>
      </trkpt>
      <trkpt lat="45.20912" lon="6.51902">
        <ele>830.44</ele>
        <time>2018-09-09T10:31:58Z</time>
      </trkpt>
      <trkpt lat="45.20901" lon="6.51926">
        <ele>830.44</ele>
        <time>2018-09-09T10:31:59Z</time>
      </trkpt>
      <trkpt lat="45.2089" lon="6.5195">
        <ele>831.14</ele>
        <time>2018-09-09T10:32:00Z</time>
      </trkpt>
      <trkpt lat="45.20879" lon="6.51975">
        <ele>832.05</ele>
        <time>2018-09-09T10:32:01Z</time>
      </trkpt>
      <trkpt lat="45.20867" lon="6.51999">
        <ele>832.33</ele>
        <time>2018-09-09T10:32:02Z</time>
      </trkpt>
      <trkpt lat="45.20856" lon="6.52023">
        <ele>832.41</ele>
        <time>2018-09-09T10:32:03Z</time>
      </trkpt>
      <trkpt lat="45.20846" lon="6.52047">
        <ele>832.43</ele>
        <time>2018-09-09T10:32:04Z</time>
      </trkpt>
      <trkpt lat="45.20836" lon="6.52072">
        <ele>832.44</ele>
        <time>2018-09-09T10:32:05Z</time>
      </trkpt>
      <trkpt lat="45.20828" lon="6.52098">
        <ele>832.44</ele>
        <time>2018-09-09T10:32:06Z</time>
      </trkpt>
      <trkpt lat="45.20821" lon="6.52124">
        <ele>832.44</ele>
        <time>2018-09-09T10:32:07Z</time>
      </trkpt>
      <trkpt lat="45.20815" lon="6.52151">
        <ele>832.44</ele>
        <time>2018-09-09T10:32:08Z</time>
      </trkpt>
      <trkpt lat="45.20812" lon="6.5218">
        <ele>833.14</ele>
        <time>2018-09-09T10:32:09Z</time>
      </trkpt>
      <trkpt lat="45.20808" lon="6.52207">
        <ele>834.05</ele>
        <time>2018-09-09T10:32:10Z</time>
      </trkpt>
      <trkpt lat="45.20804" lon="6.52236">
        <ele>834.33</ele>
        <time>2018-09-09T10:32:11Z</time>
      </trkpt>
      <trkpt lat="45.20801" lon="6.52265">
        <ele>834.41</ele>
        <time>2018-09-09T10:32:12Z</time>
      </trkpt>
      <trkpt lat="45.20797" lon="6.52292">
        <ele>834.43</ele>
        <time>2018-09-09T10:32:13Z</time>
      </trkpt>
      <trkpt lat="45.20793" lon="6.5232">
        <ele>834.44</ele>
        <time>2018-09-09T10:32:14Z</time>
      </trkpt>
      <trkpt lat="45.2079" lon="6.52349">
        <ele>834.44</ele>
        <time>2018-09-09T10:32:15Z</time>
      </trkpt>
      <trkpt lat="45.20786" lon="6.52376">
        <ele>834.44</ele>
        <time>2018-09-09T10:32:16Z</time>
      </trkpt>
      <trkpt lat="45.20782" lon="6.52404">
        <ele>835.14</ele>
        <time>2018-09-09T10:32:17Z</time>
      </trkpt>
      <trkpt lat="45.20778" lon="6.52431">
        <ele>835.35</ele>
        <time>2018-09-09T10:32:18Z</time>
      </trkpt>
      <trkpt lat="45.20774" lon="6.52459">
        <ele>835.42</ele>
        <time>2018-09-09T10:32:19Z</time>
      </trkpt>
      <trkpt lat="45.2077" lon="6.52486">
        <ele>835.44</ele>
        <time>2018-09-09T10:32:20Z</time>
      </trkpt>
      <trkpt lat="45.20766" lon="6.52514">
        <ele>835.44</ele>
        <time>2018-09-09T10:32:21Z</time>
      </trkpt>
      <trkpt lat="45.20762" lon="6.52542">
        <ele>836.14</ele>
        <time>2018-09-09T10:32:22Z</time>
      </trkpt>
      <trkpt lat="45.20761" lon="6.52569">
        <ele>835.65</ele>
        <time>2018-09-09T10:32:23Z</time>
      </trkpt>
      <trkpt lat="45.20761" lon="6.52597">
        <ele>835.51</ele>
        <time>2018-09-09T10:32:24Z</time>
      </trkpt>
      <trkpt lat="45.20763" lon="6.52624">
        <ele>836.16</ele>
        <time>2018-09-09T10:32:25Z</time>
      </trkpt>
      <trkpt lat="45.20764" lon="6.52651">
        <ele>836.36</ele>
        <time>2018-09-09T10:32:26Z</time>
      </trkpt>
      <trkpt lat="45.20766" lon="6.52679">
        <ele>836.42</ele>
        <time>2018-09-09T10:32:27Z</time>
      </trkpt>
      <trkpt lat="45.20768" lon="6.52707">
        <ele>837.14</ele>
        <time>2018-09-09T10:32:28Z</time>
      </trkpt>
      <trkpt lat="45.20769" lon="6.52735">
        <ele>837.35</ele>
        <time>2018-09-09T10:32:29Z</time>
      </trkpt>
      <trkpt lat="45.2077" lon="6.52762">
        <ele>837.42</ele>
        <time>2018-09-09T10:32:30Z</time>
      </trkpt>
      <trkpt lat="45.20772" lon="6.52789">
        <ele>837.44</ele>
        <time>2018-09-09T10:32:31Z</time>
      </trkpt>
      <trkpt lat="45.20773" lon="6.52817">
        <ele>838.14</ele>
        <time>2018-09-09T10:32:32Z</time>
      </trkpt>
      <trkpt lat="45.20775" lon="6.52845">
        <ele>838.35</ele>
        <time>2018-09-09T10:32:33Z</time>
      </trkpt>
      <trkpt lat="45.20776" lon="6.52873">
        <ele>839.12</ele>
        <time>2018-09-09T10:32:34Z</time>
      </trkpt>
      <trkpt lat="45.20777" lon="6.52901">
        <ele>839.35</ele>
        <time>2018-09-09T10:32:35Z</time>
      </trkpt>
      <trkpt lat="45.20779" lon="6.52929">
        <ele>840.12</ele>
        <time>2018-09-09T10:32:36Z</time>
      </trkpt>
      <trkpt lat="45.20781" lon="6.52956">
        <ele>841.05</ele>
        <time>2018-09-09T10:32:37Z</time>
      </trkpt>
      <trkpt lat="45.20782" lon="6.52983">
        <ele>841.33</ele>
        <time>2018-09-09T10:32:38Z</time>
      </trkpt>
      <trkpt lat="45.20782" lon="6.53011">
        <ele>842.11</ele>
        <time>2018-09-09T10:32:39Z</time>
      </trkpt>
      <trkpt lat="45.20781" lon="6.53039">
        <ele>842.34</ele>
        <time>2018-09-09T10:32:40Z</time>
      </trkpt>
      <trkpt lat="45.20779" lon="6.53066">
        <ele>843.11</ele>
        <time>2018-09-09T10:32:41Z</time>
      </trkpt>
      <trkpt lat="45.20775" lon="6.53093">
        <ele>843.35</ele>
        <time>2018-09-09T10:32:42Z</time>
      </trkpt>
      <trkpt lat="45.20769" lon="6.5312">
        <ele>843.42</ele>
        <time>2018-09-09T10:32:43Z</time>
      </trkpt>
      <trkpt lat="45.20764" lon="6.53146">
        <ele>844.14</ele>
        <time>2018-09-09T10:32:44Z</time>
      </trkpt>
      <trkpt lat="45.20757" lon="6.53173">
        <ele>844.35</ele>
        <time>2018-09-09T10:32:45Z</time>
      </trkpt>
      <trkpt lat="45.20753" lon="6.53199">
        <ele>845.12</ele>
        <time>2018-09-09T10:32:46Z</time>
      </trkpt>
      <trkpt lat="45.20753" lon="6.53251">
        <ele>846.12</ele>
        <time>2018-09-09T10:32:48Z</time>
      </trkpt>
      <trkpt lat="45.20755" lon="6.53279">
        <ele>846.35</ele>
        <time>2018-09-09T10:32:49Z</time>
      </trkpt>
      <trkpt lat="45.20756" lon="6.53306">
        <ele>847.12</ele>
        <time>2018-09-09T10:32:50Z</time>
      </trkpt>
      <trkpt lat="45.20758" lon="6.53335">
        <ele>847.35</ele>
        <time>2018-09-09T10:32:51Z</time>
      </trkpt>
      <trkpt lat="45.20759" lon="6.53363">
        <ele>847.42</ele>
        <time>2018-09-09T10:32:52Z</time>
      </trkpt>
      <trkpt lat="45.2076" lon="6.53392">
        <ele>847.44</ele>
        <time>2018-09-09T10:32:53Z</time>
      </trkpt>
      <trkpt lat="45.20761" lon="6.53419">
        <ele>847.44</ele>
        <time>2018-09-09T10:32:54Z</time>
      </trkpt>
      <trkpt lat="45.20763" lon="6.53446">
        <ele>847.44</ele>
        <time>2018-09-09T10:32:55Z</time>
      </trkpt>
      <trkpt lat="45.20765" lon="6.53474">
        <ele>847.44</ele>
        <time>2018-09-09T10:32:56Z</time>
      </trkpt>
      <trkpt lat="45.20767" lon="6.53503">
        <ele>848.14</ele>
        <time>2018-09-09T10:32:57Z</time>
      </trkpt>
      <trkpt lat="45.20768" lon="6.53531">
        <ele>849.76</ele>
        <time>2018-09-09T10:32:58Z</time>
      </trkpt>
      <trkpt lat="45.20767" lon="6.53559">
        <ele>850.94</ele>
        <time>2018-09-09T10:32:59Z</time>
      </trkpt>
      <trkpt lat="45.20765" lon="6.53587">
        <ele>852.69</ele>
        <time>2018-09-09T10:33:00Z</time>
      </trkpt>
      <trkpt lat="45.20762" lon="6.53615">
        <ele>853.92</ele>
        <time>2018-09-09T10:33:01Z</time>
      </trkpt>
      <trkpt lat="45.20756" lon="6.53642">
        <ele>854.99</ele>
        <time>2018-09-09T10:33:02Z</time>
      </trkpt>
      <trkpt lat="45.20752" lon="6.53669">
        <ele>856.01</ele>
        <time>2018-09-09T10:33:03Z</time>
      </trkpt>
      <trkpt lat="45.20747" lon="6.53697">
        <ele>856.31</ele>
        <time>2018-09-09T10:33:04Z</time>
      </trkpt>
      <trkpt lat="45.20743" lon="6.53725">
        <ele>856.41</ele>
        <time>2018-09-09T10:33:05Z</time>
      </trkpt>
      <trkpt lat="45.20738" lon="6.53752">
        <ele>857.13</ele>
        <time>2018-09-09T10:33:06Z</time>
      </trkpt>
      <trkpt lat="45.20733" lon="6.5378">
        <ele>858.05</ele>
        <time>2018-09-09T10:33:07Z</time>
      </trkpt>
      <trkpt lat="45.20728" lon="6.53808">
        <ele>859.03</ele>
        <time>2018-09-09T10:33:08Z</time>
      </trkpt>
      <trkpt lat="45.20723" lon="6.53836">
        <ele>860.02</ele>
        <time>2018-09-09T10:33:09Z</time>
      </trkpt>
      <trkpt lat="45.20717" lon="6.53863">
        <ele>860.32</ele>
        <time>2018-09-09T10:33:10Z</time>
      </trkpt>
      <trkpt lat="45.20711" lon="6.5389">
        <ele>861.81</ele>
        <time>2018-09-09T10:33:11Z</time>
      </trkpt>
      <trkpt lat="45.20707" lon="6.53917">
        <ele>861.55</ele>
        <time>2018-09-09T10:33:12Z</time>
      </trkpt>
      <trkpt lat="45.20706" lon="6.53945">
        <ele>861.48</ele>
        <time>2018-09-09T10:33:13Z</time>
      </trkpt>
      <trkpt lat="45.20707" lon="6.53973">
        <ele>862.15</ele>
        <time>2018-09-09T10:33:14Z</time>
      </trkpt>
      <trkpt lat="45.20709" lon="6.54003">
        <ele>863.06</ele>
        <time>2018-09-09T10:33:15Z</time>
      </trkpt>
      <trkpt lat="45.20711" lon="6.54031">
        <ele>863.33</ele>
        <time>2018-09-09T10:33:16Z</time>
      </trkpt>
      <trkpt lat="45.20712" lon="6.54059">
        <ele>864.11</ele>
        <time>2018-09-09T10:33:17Z</time>
      </trkpt>
      <trkpt lat="45.20712" lon="6.54087">
        <ele>864.34</ele>
        <time>2018-09-09T10:33:18Z</time>
      </trkpt>
      <trkpt lat="45.2071" lon="6.54115">
        <ele>865.11</ele>
        <time>2018-09-09T10:33:19Z</time>
      </trkpt>
      <trkpt lat="45.20707" lon="6.54142">
        <ele>865.35</ele>
        <time>2018-09-09T10:33:20Z</time>
      </trkpt>
      <trkpt lat="45.20704" lon="6.54168">
        <ele>866.12</ele>
        <time>2018-09-09T10:33:21Z</time>
      </trkpt>
      <trkpt lat="45.20702" lon="6.54194">
        <ele>867.05</ele>
        <time>2018-09-09T10:33:22Z</time>
      </trkpt>
      <trkpt lat="45.20704" lon="6.54245">
        <ele>868.32</ele>
        <time>2018-09-09T10:33:24Z</time>
      </trkpt>
      <trkpt lat="45.20711" lon="6.54293">
        <ele>870.25</ele>
        <time>2018-09-09T10:33:26Z</time>
      </trkpt>
      <trkpt lat="45.20721" lon="6.5434">
        <ele>871.13</ele>
        <time>2018-09-09T10:33:28Z</time>
      </trkpt>
      <trkpt lat="45.2073" lon="6.54386">
        <ele>871.42</ele>
        <time>2018-09-09T10:33:30Z</time>
      </trkpt>
      <trkpt lat="45.20739" lon="6.54432">
        <ele>873.05</ele>
        <time>2018-09-09T10:33:32Z</time>
      </trkpt>
      <trkpt lat="45.20746" lon="6.5448">
        <ele>875.02</ele>
        <time>2018-09-09T10:33:34Z</time>
      </trkpt>
      <trkpt lat="45.20748" lon="6.5453">
        <ele>876.32</ele>
        <time>2018-09-09T10:33:36Z</time>
      </trkpt>
      <trkpt lat="45.20748" lon="6.54555">
        <ele>877.11</ele>
        <time>2018-09-09T10:33:37Z</time>
      </trkpt>
      <trkpt lat="45.20747" lon="6.54606">
        <ele>878.11</ele>
        <time>2018-09-09T10:33:39Z</time>
      </trkpt>
      <trkpt lat="45.20746" lon="6.54632">
        <ele>879.05</ele>
        <time>2018-09-09T10:33:40Z</time>
      </trkpt>
      <trkpt lat="45.20744" lon="6.54684">
        <ele>879.41</ele>
        <time>2018-09-09T10:33:42Z</time>
      </trkpt>
      <trkpt lat="45.20743" lon="6.5471">
        <ele>880.13</ele>
        <time>2018-09-09T10:33:43Z</time>
      </trkpt>
      <trkpt lat="45.20742" lon="6.54737">
        <ele>880.35</ele>
        <time>2018-09-09T10:33:44Z</time>
      </trkpt>
      <trkpt lat="45.2074" lon="6.54763">
        <ele>880.42</ele>
        <time>2018-09-09T10:33:45Z</time>
      </trkpt>
      <trkpt lat="45.20738" lon="6.54789">
        <ele>881.14</ele>
        <time>2018-09-09T10:33:46Z</time>
      </trkpt>
      <trkpt lat="45.20737" lon="6.54816">
        <ele>881.35</ele>
        <time>2018-09-09T10:33:47Z</time>
      </trkpt>
      <trkpt lat="45.20734" lon="6.54843">
        <ele>882.12</ele>
        <time>2018-09-09T10:33:48Z</time>
      </trkpt>
      <trkpt lat="45.20732" lon="6.54868">
        <ele>882.35</ele>
        <time>2018-09-09T10:33:49Z</time>
      </trkpt>
      <trkpt lat="45.20731" lon="6.54895">
        <ele>882.42</ele>
        <time>2018-09-09T10:33:50Z</time>
      </trkpt>
      <trkpt lat="45.20729" lon="6.5492">
        <ele>883.14</ele>
        <time>2018-09-09T10:33:51Z</time>
      </trkpt>
      <trkpt lat="45.20726" lon="6.54946">
        <ele>883.35</ele>
        <time>2018-09-09T10:33:52Z</time>
      </trkpt>
      <trkpt lat="45.20721" lon="6.54971">
        <ele>884.12</ele>
        <time>2018-09-09T10:33:53Z</time>
      </trkpt>
      <trkpt lat="45.20711" lon="6.55009">
        <ele>886.94</ele>
        <time>2018-09-09T10:33:55Z</time>
      </trkpt>
      <trkpt lat="45.20709" lon="6.55049">
        <ele>888.1</ele>
        <time>2018-09-09T10:33:57Z</time>
      </trkpt>
      <trkpt lat="45.20712" lon="6.55093">
        <ele>887.5</ele>
        <time>2018-09-09T10:33:59Z</time>
      </trkpt>
      <trkpt lat="45.2071" lon="6.55119">
        <ele>888.16</ele>
        <time>2018-09-09T10:34:00Z</time>
      </trkpt>
      <trkpt lat="45.20707" lon="6.55148">
        <ele>888.36</ele>
        <time>2018-09-09T10:34:01Z</time>
      </trkpt>
      <trkpt lat="45.20703" lon="6.5518">
        <ele>889.12</ele>
        <time>2018-09-09T10:34:02Z</time>
      </trkpt>
      <trkpt lat="45.20698" lon="6.55213">
        <ele>889.35</ele>
        <time>2018-09-09T10:34:03Z</time>
      </trkpt>
      <trkpt lat="45.20694" lon="6.55247">
        <ele>890.12</ele>
        <time>2018-09-09T10:34:04Z</time>
      </trkpt>
      <trkpt lat="45.20689" lon="6.55281">
        <ele>890.35</ele>
        <time>2018-09-09T10:34:05Z</time>
      </trkpt>
      <trkpt lat="45.20684" lon="6.55317">
        <ele>890.42</ele>
        <time>2018-09-09T10:34:06Z</time>
      </trkpt>
      <trkpt lat="45.2068" lon="6.55351">
        <ele>891.14</ele>
        <time>2018-09-09T10:34:07Z</time>
      </trkpt>
      <trkpt lat="45.20676" lon="6.55384">
        <ele>892.05</ele>
        <time>2018-09-09T10:34:08Z</time>
      </trkpt>
      <trkpt lat="45.20672" lon="6.55417">
        <ele>893.03</ele>
        <time>2018-09-09T10:34:09Z</time>
      </trkpt>
      <trkpt lat="45.20668" lon="6.5545">
        <ele>894.72</ele>
        <time>2018-09-09T10:34:10Z</time>
      </trkpt>
      <trkpt lat="45.20664" lon="6.55483">
        <ele>896.63</ele>
        <time>2018-09-09T10:34:11Z</time>
      </trkpt>
      <trkpt lat="45.20663" lon="6.55515">
        <ele>897.9</ele>
        <time>2018-09-09T10:34:12Z</time>
      </trkpt>
      <trkpt lat="45.20664" lon="6.55546">
        <ele>899.68</ele>
        <time>2018-09-09T10:34:13Z</time>
      </trkpt>
      <trkpt lat="45.20667" lon="6.55578">
        <ele>901.62</ele>
        <time>2018-09-09T10:34:14Z</time>
      </trkpt>
      <trkpt lat="45.20671" lon="6.55608">
        <ele>902.9</ele>
        <time>2018-09-09T10:34:15Z</time>
      </trkpt>
      <trkpt lat="45.20678" lon="6.55639">
        <ele>903.98</ele>
        <time>2018-09-09T10:34:16Z</time>
      </trkpt>
      <trkpt lat="45.20684" lon="6.5567">
        <ele>904.31</ele>
        <time>2018-09-09T10:34:17Z</time>
      </trkpt>
      <trkpt lat="45.20691" lon="6.55701">
        <ele>905.1</ele>
        <time>2018-09-09T10:34:18Z</time>
      </trkpt>
      <trkpt lat="45.20697" lon="6.55732">
        <ele>906.04</ele>
        <time>2018-09-09T10:34:19Z</time>
      </trkpt>
      <trkpt lat="45.20702" lon="6.55762">
        <ele>907.72</ele>
        <time>2018-09-09T10:34:20Z</time>
      </trkpt>
      <trkpt lat="45.20705" lon="6.55793">
        <ele>908.23</ele>
        <time>2018-09-09T10:34:21Z</time>
      </trkpt>
      <trkpt lat="45.20704" lon="6.55822">
        <ele>909.78</ele>
        <time>2018-09-09T10:34:22Z</time>
      </trkpt>
      <trkpt lat="45.20702" lon="6.55852">
        <ele>910.25</ele>
        <time>2018-09-09T10:34:23Z</time>
      </trkpt>
      <trkpt lat="45.20698" lon="6.5588">
        <ele>911.09</ele>
        <time>2018-09-09T10:34:24Z</time>
      </trkpt>
      <trkpt lat="45.20693" lon="6.55908">
        <ele>911.34</ele>
        <time>2018-09-09T10:34:25Z</time>
      </trkpt>
      <trkpt lat="45.20688" lon="6.55937">
        <ele>911.41</ele>
        <time>2018-09-09T10:34:26Z</time>
      </trkpt>
      <trkpt lat="45.20685" lon="6.55967">
        <ele>911.44</ele>
        <time>2018-09-09T10:34:27Z</time>
      </trkpt>
      <trkpt lat="45.20684" lon="6.55997">
        <ele>911.44</ele>
        <time>2018-09-09T10:34:28Z</time>
      </trkpt>
      <trkpt lat="45.20684" lon="6.56025">
        <ele>912.14</ele>
        <time>2018-09-09T10:34:29Z</time>
      </trkpt>
      <trkpt lat="45.20685" lon="6.56053">
        <ele>912.35</ele>
        <time>2018-09-09T10:34:30Z</time>
      </trkpt>
      <trkpt lat="45.20698" lon="6.56081">
        <ele>913.12</ele>
        <time>2018-09-09T10:34:31Z</time>
      </trkpt>
      <trkpt lat="45.20706" lon="6.56108">
        <ele>914.05</ele>
        <time>2018-09-09T10:34:32Z</time>
      </trkpt>
      <trkpt lat="45.2071" lon="6.56136">
        <ele>913.63</ele>
        <time>2018-09-09T10:34:33Z</time>
      </trkpt>
      <trkpt lat="45.20713" lon="6.56166">
        <ele>914.2</ele>
        <time>2018-09-09T10:34:34Z</time>
      </trkpt>
      <trkpt lat="45.20715" lon="6.56193">
        <ele>914.37</ele>
        <time>2018-09-09T10:34:35Z</time>
      </trkpt>
      <trkpt lat="45.20719" lon="6.5622">
        <ele>915.12</ele>
        <time>2018-09-09T10:34:36Z</time>
      </trkpt>
      <trkpt lat="45.20722" lon="6.56246">
        <ele>916.05</ele>
        <time>2018-09-09T10:34:37Z</time>
      </trkpt>
      <trkpt lat="45.20729" lon="6.56272">
        <ele>916.33</ele>
        <time>2018-09-09T10:34:38Z</time>
      </trkpt>
      <trkpt lat="45.20735" lon="6.56299">
        <ele>917.11</ele>
        <time>2018-09-09T10:34:39Z</time>
      </trkpt>
      <trkpt lat="45.20741" lon="6.56327">
        <ele>916.64</ele>
        <time>2018-09-09T10:34:40Z</time>
      </trkpt>
      <trkpt lat="45.20744" lon="6.56355">
        <ele>917.2</ele>
        <time>2018-09-09T10:34:41Z</time>
      </trkpt>
      <trkpt lat="45.20745" lon="6.56383">
        <ele>917.37</ele>
        <time>2018-09-09T10:34:42Z</time>
      </trkpt>
      <trkpt lat="45.20742" lon="6.5641">
        <ele>918.12</ele>
        <time>2018-09-09T10:34:43Z</time>
      </trkpt>
      <trkpt lat="45.20738" lon="6.56436">
        <ele>919.05</ele>
        <time>2018-09-09T10:34:44Z</time>
      </trkpt>
      <trkpt lat="45.20733" lon="6.56462">
        <ele>919.33</ele>
        <time>2018-09-09T10:34:45Z</time>
      </trkpt>
      <trkpt lat="45.20725" lon="6.56487">
        <ele>919.41</ele>
        <time>2018-09-09T10:34:46Z</time>
      </trkpt>
      <trkpt lat="45.20717" lon="6.56513">
        <ele>920.13</ele>
        <time>2018-09-09T10:34:47Z</time>
      </trkpt>
      <trkpt lat="45.20709" lon="6.56539">
        <ele>920.35</ele>
        <time>2018-09-09T10:34:48Z</time>
      </trkpt>
      <trkpt lat="45.20705" lon="6.56565">
        <ele>921.12</ele>
        <time>2018-09-09T10:34:49Z</time>
      </trkpt>
      <trkpt lat="45.20703" lon="6.56593">
        <ele>921.35</ele>
        <time>2018-09-09T10:34:50Z</time>
      </trkpt>
      <trkpt lat="45.20702" lon="6.56621">
        <ele>922.12</ele>
        <time>2018-09-09T10:34:51Z</time>
      </trkpt>
      <trkpt lat="45.20702" lon="6.56649">
        <ele>922.35</ele>
        <time>2018-09-09T10:34:52Z</time>
      </trkpt>
      <trkpt lat="45.20702" lon="6.56678">
        <ele>922.42</ele>
        <time>2018-09-09T10:34:53Z</time>
      </trkpt>
      <trkpt lat="45.20702" lon="6.56706">
        <ele>923.14</ele>
        <time>2018-09-09T10:34:54Z</time>
      </trkpt>
      <trkpt lat="45.20701" lon="6.56736">
        <ele>923.35</ele>
        <time>2018-09-09T10:34:55Z</time>
      </trkpt>
      <trkpt lat="45.20699" lon="6.56766">
        <ele>924.12</ele>
        <time>2018-09-09T10:34:56Z</time>
      </trkpt>
      <trkpt lat="45.20696" lon="6.56795">
        <ele>924.35</ele>
        <time>2018-09-09T10:34:57Z</time>
      </trkpt>
      <trkpt lat="45.20692" lon="6.56825">
        <ele>925.12</ele>
        <time>2018-09-09T10:34:58Z</time>
      </trkpt>
      <trkpt lat="45.20689" lon="6.56854">
        <ele>925.35</ele>
        <time>2018-09-09T10:34:59Z</time>
      </trkpt>
      <trkpt lat="45.20684" lon="6.56883">
        <ele>926.12</ele>
        <time>2018-09-09T10:35:00Z</time>
      </trkpt>
      <trkpt lat="45.2068" lon="6.56913">
        <ele>926.35</ele>
        <time>2018-09-09T10:35:01Z</time>
      </trkpt>
      <trkpt lat="45.20675" lon="6.56942">
        <ele>926.42</ele>
        <time>2018-09-09T10:35:02Z</time>
      </trkpt>
      <trkpt lat="45.20671" lon="6.5697">
        <ele>926.44</ele>
        <time>2018-09-09T10:35:03Z</time>
      </trkpt>
      <trkpt lat="45.20666" lon="6.57">
        <ele>926.44</ele>
        <time>2018-09-09T10:35:04Z</time>
      </trkpt>
      <trkpt lat="45.20661" lon="6.57028">
        <ele>927.14</ele>
        <time>2018-09-09T10:35:05Z</time>
      </trkpt>
      <trkpt lat="45.20656" lon="6.57057">
        <ele>927.35</ele>
        <time>2018-09-09T10:35:06Z</time>
      </trkpt>
      <trkpt lat="45.20651" lon="6.57086">
        <ele>927.42</ele>
        <time>2018-09-09T10:35:07Z</time>
      </trkpt>
      <trkpt lat="45.20647" lon="6.57114">
        <ele>927.44</ele>
        <time>2018-09-09T10:35:08Z</time>
      </trkpt>
      <trkpt lat="45.20642" lon="6.57143">
        <ele>927.44</ele>
        <time>2018-09-09T10:35:09Z</time>
      </trkpt>
      <trkpt lat="45.20637" lon="6.57171">
        <ele>927.44</ele>
        <time>2018-09-09T10:35:10Z</time>
      </trkpt>
      <trkpt lat="45.20633" lon="6.572">
        <ele>927.44</ele>
        <time>2018-09-09T10:35:11Z</time>
      </trkpt>
      <trkpt lat="45.20629" lon="6.57228">
        <ele>927.44</ele>
        <time>2018-09-09T10:35:12Z</time>
      </trkpt>
      <trkpt lat="45.20624" lon="6.57255">
        <ele>926.74</ele>
        <time>2018-09-09T10:35:13Z</time>
      </trkpt>
      <trkpt lat="45.2062" lon="6.57283">
        <ele>926.53</ele>
        <time>2018-09-09T10:35:14Z</time>
      </trkpt>
      <trkpt lat="45.20615" lon="6.57311">
        <ele>926.47</ele>
        <time>2018-09-09T10:35:15Z</time>
      </trkpt>
      <trkpt lat="45.20611" lon="6.5734">
        <ele>926.45</ele>
        <time>2018-09-09T10:35:16Z</time>
      </trkpt>
      <trkpt lat="45.20607" lon="6.57368">
        <ele>927.15</ele>
        <time>2018-09-09T10:35:17Z</time>
      </trkpt>
      <trkpt lat="45.20602" lon="6.57396">
        <ele>927.36</ele>
        <time>2018-09-09T10:35:18Z</time>
      </trkpt>
      <trkpt lat="45.20599" lon="6.57425">
        <ele>927.42</ele>
        <time>2018-09-09T10:35:19Z</time>
      </trkpt>
      <trkpt lat="45.20594" lon="6.57452">
        <ele>927.44</ele>
        <time>2018-09-09T10:35:20Z</time>
      </trkpt>
      <trkpt lat="45.20589" lon="6.57479">
        <ele>927.44</ele>
        <time>2018-09-09T10:35:21Z</time>
      </trkpt>
      <trkpt lat="45.20585" lon="6.57507">
        <ele>927.44</ele>
        <time>2018-09-09T10:35:22Z</time>
      </trkpt>
      <trkpt lat="45.2058" lon="6.57535">
        <ele>928.14</ele>
        <time>2018-09-09T10:35:23Z</time>
      </trkpt>
      <trkpt lat="45.20576" lon="6.57563">
        <ele>928.35</ele>
        <time>2018-09-09T10:35:24Z</time>
      </trkpt>
      <trkpt lat="45.20571" lon="6.57591">
        <ele>928.42</ele>
        <time>2018-09-09T10:35:25Z</time>
      </trkpt>
      <trkpt lat="45.20566" lon="6.57619">
        <ele>928.44</ele>
        <time>2018-09-09T10:35:26Z</time>
      </trkpt>
      <trkpt lat="45.20561" lon="6.57647">
        <ele>929.14</ele>
        <time>2018-09-09T10:35:27Z</time>
      </trkpt>
      <trkpt lat="45.20556" lon="6.57675">
        <ele>929.35</ele>
        <time>2018-09-09T10:35:28Z</time>
      </trkpt>
      <trkpt lat="45.20552" lon="6.57703">
        <ele>929.42</ele>
        <time>2018-09-09T10:35:29Z</time>
      </trkpt>
      <trkpt lat="45.20547" lon="6.57731">
        <ele>929.44</ele>
        <time>2018-09-09T10:35:30Z</time>
      </trkpt>
      <trkpt lat="45.20542" lon="6.5776">
        <ele>929.44</ele>
        <time>2018-09-09T10:35:31Z</time>
      </trkpt>
      <trkpt lat="45.20537" lon="6.57789">
        <ele>929.44</ele>
        <time>2018-09-09T10:35:32Z</time>
      </trkpt>
      <trkpt lat="45.20532" lon="6.57817">
        <ele>929.44</ele>
        <time>2018-09-09T10:35:33Z</time>
      </trkpt>
      <trkpt lat="45.20527" lon="6.57846">
        <ele>930.14</ele>
        <time>2018-09-09T10:35:34Z</time>
      </trkpt>
      <trkpt lat="45.20522" lon="6.57875">
        <ele>929.65</ele>
        <time>2018-09-09T10:35:35Z</time>
      </trkpt>
      <trkpt lat="45.20516" lon="6.57902">
        <ele>929.51</ele>
        <time>2018-09-09T10:35:36Z</time>
      </trkpt>
      <trkpt lat="45.20509" lon="6.5793">
        <ele>929.46</ele>
        <time>2018-09-09T10:35:37Z</time>
      </trkpt>
      <trkpt lat="45.20501" lon="6.57956">
        <ele>929.45</ele>
        <time>2018-09-09T10:35:38Z</time>
      </trkpt>
      <trkpt lat="45.20493" lon="6.57982">
        <ele>929.45</ele>
        <time>2018-09-09T10:35:39Z</time>
      </trkpt>
      <trkpt lat="45.20485" lon="6.58007">
        <ele>929.45</ele>
        <time>2018-09-09T10:35:40Z</time>
      </trkpt>
      <trkpt lat="45.20476" lon="6.58032">
        <ele>930.15</ele>
        <time>2018-09-09T10:35:41Z</time>
      </trkpt>
      <trkpt lat="45.20466" lon="6.58057">
        <ele>931.06</ele>
        <time>2018-09-09T10:35:42Z</time>
      </trkpt>
      <trkpt lat="45.20456" lon="6.58081">
        <ele>931.33</ele>
        <time>2018-09-09T10:35:43Z</time>
      </trkpt>
      <trkpt lat="45.20446" lon="6.58106">
        <ele>932.11</ele>
        <time>2018-09-09T10:35:44Z</time>
      </trkpt>
      <trkpt lat="45.20437" lon="6.58131">
        <ele>932.34</ele>
        <time>2018-09-09T10:35:45Z</time>
      </trkpt>
      <trkpt lat="45.20427" lon="6.58156">
        <ele>932.41</ele>
        <time>2018-09-09T10:35:46Z</time>
      </trkpt>
      <trkpt lat="45.20417" lon="6.58182">
        <ele>933.14</ele>
        <time>2018-09-09T10:35:47Z</time>
      </trkpt>
      <trkpt lat="45.20407" lon="6.58207">
        <ele>934.05</ele>
        <time>2018-09-09T10:35:48Z</time>
      </trkpt>
      <trkpt lat="45.20397" lon="6.58231">
        <ele>934.33</ele>
        <time>2018-09-09T10:35:49Z</time>
      </trkpt>
      <trkpt lat="45.20387" lon="6.58256">
        <ele>934.41</ele>
        <time>2018-09-09T10:35:50Z</time>
      </trkpt>
      <trkpt lat="45.20376" lon="6.58281">
        <ele>935.13</ele>
        <time>2018-09-09T10:35:51Z</time>
      </trkpt>
      <trkpt lat="45.20366" lon="6.58307">
        <ele>936.05</ele>
        <time>2018-09-09T10:35:52Z</time>
      </trkpt>
      <trkpt lat="45.20357" lon="6.58332">
        <ele>937.03</ele>
        <time>2018-09-09T10:35:53Z</time>
      </trkpt>
      <trkpt lat="45.20347" lon="6.58359">
        <ele>938.02</ele>
        <time>2018-09-09T10:35:54Z</time>
      </trkpt>
      <trkpt lat="45.20339" lon="6.58386">
        <ele>938.32</ele>
        <time>2018-09-09T10:35:55Z</time>
      </trkpt>
      <trkpt lat="45.20332" lon="6.58413">
        <ele>938.41</ele>
        <time>2018-09-09T10:35:56Z</time>
      </trkpt>
      <trkpt lat="45.20324" lon="6.58442">
        <ele>938.43</ele>
        <time>2018-09-09T10:35:57Z</time>
      </trkpt>
      <trkpt lat="45.20317" lon="6.58469">
        <ele>939.14</ele>
        <time>2018-09-09T10:35:58Z</time>
      </trkpt>
      <trkpt lat="45.2031" lon="6.58496">
        <ele>939.35</ele>
        <time>2018-09-09T10:35:59Z</time>
      </trkpt>
      <trkpt lat="45.20303" lon="6.58523">
        <ele>940.12</ele>
        <time>2018-09-09T10:36:00Z</time>
      </trkpt>
      <trkpt lat="45.20297" lon="6.58551">
        <ele>940.35</ele>
        <time>2018-09-09T10:36:01Z</time>
      </trkpt>
      <trkpt lat="45.2029" lon="6.58578">
        <ele>940.42</ele>
        <time>2018-09-09T10:36:02Z</time>
      </trkpt>
      <trkpt lat="45.20283" lon="6.58605">
        <ele>940.44</ele>
        <time>2018-09-09T10:36:03Z</time>
      </trkpt>
      <trkpt lat="45.20276" lon="6.58632">
        <ele>941.14</ele>
        <time>2018-09-09T10:36:04Z</time>
      </trkpt>
      <trkpt lat="45.20269" lon="6.58658">
        <ele>941.35</ele>
        <time>2018-09-09T10:36:05Z</time>
      </trkpt>
      <trkpt lat="45.20261" lon="6.58684">
        <ele>941.42</ele>
        <time>2018-09-09T10:36:06Z</time>
      </trkpt>
      <trkpt lat="45.20253" lon="6.58709">
        <ele>941.44</ele>
        <time>2018-09-09T10:36:07Z</time>
      </trkpt>
      <trkpt lat="45.20243" lon="6.58733">
        <ele>942.84</ele>
        <time>2018-09-09T10:36:08Z</time>
      </trkpt>
      <trkpt lat="45.20232" lon="6.58757">
        <ele>943.96</ele>
        <time>2018-09-09T10:36:09Z</time>
      </trkpt>
      <trkpt lat="45.20221" lon="6.5878">
        <ele>945</ele>
        <time>2018-09-09T10:36:10Z</time>
      </trkpt>
      <trkpt lat="45.20209" lon="6.58804">
        <ele>946.71</ele>
        <time>2018-09-09T10:36:11Z</time>
      </trkpt>
      <trkpt lat="45.20198" lon="6.58828">
        <ele>947.93</ele>
        <time>2018-09-09T10:36:12Z</time>
      </trkpt>
      <trkpt lat="45.20189" lon="6.58854">
        <ele>948.99</ele>
        <time>2018-09-09T10:36:13Z</time>
      </trkpt>
      <trkpt lat="45.20181" lon="6.58881">
        <ele>950.01</ele>
        <time>2018-09-09T10:36:14Z</time>
      </trkpt>
      <trkpt lat="45.20175" lon="6.58909">
        <ele>951.71</ele>
        <time>2018-09-09T10:36:15Z</time>
      </trkpt>
      <trkpt lat="45.20171" lon="6.58938">
        <ele>952.23</ele>
        <time>2018-09-09T10:36:16Z</time>
      </trkpt>
      <trkpt lat="45.20167" lon="6.58966">
        <ele>953.08</ele>
        <time>2018-09-09T10:36:17Z</time>
      </trkpt>
      <trkpt lat="45.20164" lon="6.58995">
        <ele>954.04</ele>
        <time>2018-09-09T10:36:18Z</time>
      </trkpt>
      <trkpt lat="45.20161" lon="6.59024">
        <ele>954.32</ele>
        <time>2018-09-09T10:36:19Z</time>
      </trkpt>
      <trkpt lat="45.20158" lon="6.59053">
        <ele>954.41</ele>
        <time>2018-09-09T10:36:20Z</time>
      </trkpt>
      <trkpt lat="45.20155" lon="6.59081">
        <ele>954.43</ele>
        <time>2018-09-09T10:36:21Z</time>
      </trkpt>
      <trkpt lat="45.20152" lon="6.59108">
        <ele>954.44</ele>
        <time>2018-09-09T10:36:22Z</time>
      </trkpt>
      <trkpt lat="45.20149" lon="6.59134">
        <ele>955.14</ele>
        <time>2018-09-09T10:36:23Z</time>
      </trkpt>
      <trkpt lat="45.20145" lon="6.5916">
        <ele>954.65</ele>
        <time>2018-09-09T10:36:24Z</time>
      </trkpt>
      <trkpt lat="45.2014" lon="6.59184">
        <ele>955.21</ele>
        <time>2018-09-09T10:36:25Z</time>
      </trkpt>
      <trkpt lat="45.20131" lon="6.59226">
        <ele>954.51</ele>
        <time>2018-09-09T10:36:27Z</time>
      </trkpt>
      <trkpt lat="45.20122" lon="6.59252">
        <ele>954.45</ele>
        <time>2018-09-09T10:36:29Z</time>
      </trkpt>
      <trkpt lat="45.20116" lon="6.59283">
        <ele>956.45</ele>
        <time>2018-09-09T10:36:57Z</time>
      </trkpt>
      <trkpt lat="45.20117" lon="6.5931">
        <ele>955.33</ele>
        <time>2018-09-09T10:37:00Z</time>
      </trkpt>
      <trkpt lat="45.20125" lon="6.59335">
        <ele>951.74</ele>
        <time>2018-09-09T10:37:39Z</time>
      </trkpt>
      <trkpt lat="45.20116" lon="6.59309">
        <ele>948.51</ele>
        <time>2018-09-09T10:37:55Z</time>
      </trkpt>
      <trkpt lat="45.20102" lon="6.59326">
        <ele>949.57</ele>
        <time>2018-09-09T10:38:00Z</time>
      </trkpt>
      <trkpt lat="45.20094" lon="6.59349">
        <ele>950.16</ele>
        <time>2018-09-09T10:38:02Z</time>
      </trkpt>
      <trkpt lat="45.20085" lon="6.59372">
        <ele>951.12</ele>
        <time>2018-09-09T10:38:04Z</time>
      </trkpt>
      <trkpt lat="45.20078" lon="6.59396">
        <ele>952.33</ele>
        <time>2018-09-09T10:38:06Z</time>
      </trkpt>
      <trkpt lat="45.20069" lon="6.5942">
        <ele>952.43</ele>
        <time>2018-09-09T10:38:08Z</time>
      </trkpt>
      <trkpt lat="45.20063" lon="6.59446">
        <ele>953.14</ele>
        <time>2018-09-09T10:38:11Z</time>
      </trkpt>
      <trkpt lat="45.20054" lon="6.59471">
        <ele>953.06</ele>
        <time>2018-09-09T10:38:37Z</time>
      </trkpt>
      <trkpt lat="45.20045" lon="6.59495">
        <ele>952.5</ele>
        <time>2018-09-09T10:38:39Z</time>
      </trkpt>
      <trkpt lat="45.20032" lon="6.59538">
        <ele>954.97</ele>
        <time>2018-09-09T10:38:41Z</time>
      </trkpt>
      <trkpt lat="45.20024" lon="6.59586">
        <ele>956.1</ele>
        <time>2018-09-09T10:38:43Z</time>
      </trkpt>
      <trkpt lat="45.20021" lon="6.59613">
        <ele>955.64</ele>
        <time>2018-09-09T10:38:44Z</time>
      </trkpt>
      <trkpt lat="45.20019" lon="6.59639">
        <ele>956.9</ele>
        <time>2018-09-09T10:38:45Z</time>
      </trkpt>
      <trkpt lat="45.20017" lon="6.59665">
        <ele>957.28</ele>
        <time>2018-09-09T10:38:46Z</time>
      </trkpt>
      <trkpt lat="45.20017" lon="6.59691">
        <ele>957.4</ele>
        <time>2018-09-09T10:38:47Z</time>
      </trkpt>
      <trkpt lat="45.20019" lon="6.59717">
        <ele>958.13</ele>
        <time>2018-09-09T10:38:48Z</time>
      </trkpt>
      <trkpt lat="45.20022" lon="6.59743">
        <ele>959.05</ele>
        <time>2018-09-09T10:38:49Z</time>
      </trkpt>
      <trkpt lat="45.20026" lon="6.59793">
        <ele>960.11</ele>
        <time>2018-09-09T10:38:51Z</time>
      </trkpt>
      <trkpt lat="45.20024" lon="6.59819">
        <ele>961.04</ele>
        <time>2018-09-09T10:38:52Z</time>
      </trkpt>
      <trkpt lat="45.20022" lon="6.59845">
        <ele>962.02</ele>
        <time>2018-09-09T10:38:53Z</time>
      </trkpt>
      <trkpt lat="45.20018" lon="6.59873">
        <ele>962.32</ele>
        <time>2018-09-09T10:38:54Z</time>
      </trkpt>
      <trkpt lat="45.20011" lon="6.59899">
        <ele>963.11</ele>
        <time>2018-09-09T10:38:55Z</time>
      </trkpt>
      <trkpt lat="45.20004" lon="6.59925">
        <ele>964.04</ele>
        <time>2018-09-09T10:38:56Z</time>
      </trkpt>
      <trkpt lat="45.19994" lon="6.5995">
        <ele>964.32</ele>
        <time>2018-09-09T10:38:57Z</time>
      </trkpt>
      <trkpt lat="45.1998" lon="6.59973">
        <ele>965.11</ele>
        <time>2018-09-09T10:38:58Z</time>
      </trkpt>
      <trkpt lat="45.19967" lon="6.59996">
        <ele>966.04</ele>
        <time>2018-09-09T10:38:59Z</time>
      </trkpt>
      <trkpt lat="45.19953" lon="6.60018">
        <ele>966.32</ele>
        <time>2018-09-09T10:39:00Z</time>
      </trkpt>
      <trkpt lat="45.19938" lon="6.60041">
        <ele>966.41</ele>
        <time>2018-09-09T10:39:01Z</time>
      </trkpt>
      <trkpt lat="45.19925" lon="6.60065">
        <ele>966.43</ele>
        <time>2018-09-09T10:39:02Z</time>
      </trkpt>
      <trkpt lat="45.19912" lon="6.6009">
        <ele>967.14</ele>
        <time>2018-09-09T10:39:03Z</time>
      </trkpt>
      <trkpt lat="45.19899" lon="6.60114">
        <ele>967.35</ele>
        <time>2018-09-09T10:39:04Z</time>
      </trkpt>
      <trkpt lat="45.19889" lon="6.6014">
        <ele>968.12</ele>
        <time>2018-09-09T10:39:05Z</time>
      </trkpt>
      <trkpt lat="45.19882" lon="6.60168">
        <ele>970.45</ele>
        <time>2018-09-09T10:39:06Z</time>
      </trkpt>
      <trkpt lat="45.19877" lon="6.60195">
        <ele>971.15</ele>
        <time>2018-09-09T10:39:07Z</time>
      </trkpt>
      <trkpt lat="45.19873" lon="6.60224">
        <ele>972.06</ele>
        <time>2018-09-09T10:39:08Z</time>
      </trkpt>
      <trkpt lat="45.1987" lon="6.60254">
        <ele>973.03</ele>
        <time>2018-09-09T10:39:09Z</time>
      </trkpt>
      <trkpt lat="45.19869" lon="6.60282">
        <ele>973.32</ele>
        <time>2018-09-09T10:39:10Z</time>
      </trkpt>
      <trkpt lat="45.19872" lon="6.60311">
        <ele>973.41</ele>
        <time>2018-09-09T10:39:11Z</time>
      </trkpt>
      <trkpt lat="45.19887" lon="6.60339">
        <ele>974.83</ele>
        <time>2018-09-09T10:39:12Z</time>
      </trkpt>
      <trkpt lat="45.19892" lon="6.60367">
        <ele>975.96</ele>
        <time>2018-09-09T10:39:13Z</time>
      </trkpt>
      <trkpt lat="45.19895" lon="6.60396">
        <ele>977</ele>
        <time>2018-09-09T10:39:14Z</time>
      </trkpt>
      <trkpt lat="45.19896" lon="6.60425">
        <ele>978.01</ele>
        <time>2018-09-09T10:39:15Z</time>
      </trkpt>
      <trkpt lat="45.19896" lon="6.60454">
        <ele>978.31</ele>
        <time>2018-09-09T10:39:16Z</time>
      </trkpt>
      <trkpt lat="45.19897" lon="6.60483">
        <ele>979.11</ele>
        <time>2018-09-09T10:39:17Z</time>
      </trkpt>
      <trkpt lat="45.19898" lon="6.60512">
        <ele>980.04</ele>
        <time>2018-09-09T10:39:18Z</time>
      </trkpt>
      <trkpt lat="45.19899" lon="6.60542">
        <ele>981.02</ele>
        <time>2018-09-09T10:39:19Z</time>
      </trkpt>
      <trkpt lat="45.199" lon="6.60571">
        <ele>981.32</ele>
        <time>2018-09-09T10:39:20Z</time>
      </trkpt>
      <trkpt lat="45.19901" lon="6.60601">
        <ele>982.11</ele>
        <time>2018-09-09T10:39:21Z</time>
      </trkpt>
      <trkpt lat="45.19902" lon="6.60632">
        <ele>983.04</ele>
        <time>2018-09-09T10:39:22Z</time>
      </trkpt>
      <trkpt lat="45.19901" lon="6.60661">
        <ele>984.02</ele>
        <time>2018-09-09T10:39:23Z</time>
      </trkpt>
      <trkpt lat="45.199" lon="6.60691">
        <ele>984.32</ele>
        <time>2018-09-09T10:39:24Z</time>
      </trkpt>
      <trkpt lat="45.19897" lon="6.60722">
        <ele>984.41</ele>
        <time>2018-09-09T10:39:25Z</time>
      </trkpt>
      <trkpt lat="45.19893" lon="6.60751">
        <ele>985.13</ele>
        <time>2018-09-09T10:39:26Z</time>
      </trkpt>
      <trkpt lat="45.1989" lon="6.60781">
        <ele>986.05</ele>
        <time>2018-09-09T10:39:27Z</time>
      </trkpt>
      <trkpt lat="45.19887" lon="6.6081">
        <ele>986.33</ele>
        <time>2018-09-09T10:39:28Z</time>
      </trkpt>
      <trkpt lat="45.19884" lon="6.60839">
        <ele>987.11</ele>
        <time>2018-09-09T10:39:29Z</time>
      </trkpt>
      <trkpt lat="45.19881" lon="6.60869">
        <ele>988.04</ele>
        <time>2018-09-09T10:39:30Z</time>
      </trkpt>
      <trkpt lat="45.19878" lon="6.60898">
        <ele>989.02</ele>
        <time>2018-09-09T10:39:31Z</time>
      </trkpt>
      <trkpt lat="45.19875" lon="6.60928">
        <ele>990.02</ele>
        <time>2018-09-09T10:39:32Z</time>
      </trkpt>
      <trkpt lat="45.19872" lon="6.60957">
        <ele>991.02</ele>
        <time>2018-09-09T10:39:33Z</time>
      </trkpt>
      <trkpt lat="45.1987" lon="6.60985">
        <ele>992.02</ele>
        <time>2018-09-09T10:39:34Z</time>
      </trkpt>
      <trkpt lat="45.19869" lon="6.61014">
        <ele>993.02</ele>
        <time>2018-09-09T10:39:35Z</time>
      </trkpt>
      <trkpt lat="45.19867" lon="6.61043">
        <ele>994.02</ele>
        <time>2018-09-09T10:39:36Z</time>
      </trkpt>
      <trkpt lat="45.19867" lon="6.61072">
        <ele>995.02</ele>
        <time>2018-09-09T10:39:37Z</time>
      </trkpt>
      <trkpt lat="45.19866" lon="6.611">
        <ele>996.02</ele>
        <time>2018-09-09T10:39:38Z</time>
      </trkpt>
      <trkpt lat="45.19866" lon="6.61129">
        <ele>997.02</ele>
        <time>2018-09-09T10:39:39Z</time>
      </trkpt>
      <trkpt lat="45.19866" lon="6.61157">
        <ele>998.02</ele>
        <time>2018-09-09T10:39:40Z</time>
      </trkpt>
      <trkpt lat="45.19864" lon="6.61184">
        <ele>999.02</ele>
        <time>2018-09-09T10:39:41Z</time>
      </trkpt>
      <trkpt lat="45.19862" lon="6.61211">
        <ele>1000.02</ele>
        <time>2018-09-09T10:39:42Z</time>
      </trkpt>
      <trkpt lat="45.19858" lon="6.61237">
        <ele>1000.32</ele>
        <time>2018-09-09T10:39:43Z</time>
      </trkpt>
      <trkpt lat="45.19852" lon="6.61261">
        <ele>1001.11</ele>
        <time>2018-09-09T10:39:44Z</time>
      </trkpt>
      <trkpt lat="45.19837" lon="6.61305">
        <ele>1003.02</ele>
        <time>2018-09-09T10:39:46Z</time>
      </trkpt>
      <trkpt lat="45.19821" lon="6.61345">
        <ele>1005.02</ele>
        <time>2018-09-09T10:39:48Z</time>
      </trkpt>
      <trkpt lat="45.19803" lon="6.61391">
        <ele>1006.11</ele>
        <time>2018-09-09T10:39:50Z</time>
      </trkpt>
      <trkpt lat="45.19794" lon="6.61417">
        <ele>1007.04</ele>
        <time>2018-09-09T10:39:51Z</time>
      </trkpt>
      <trkpt lat="45.19785" lon="6.61448">
        <ele>1008.72</ele>
        <time>2018-09-09T10:39:52Z</time>
      </trkpt>
      <trkpt lat="45.19777" lon="6.61481">
        <ele>1009.93</ele>
        <time>2018-09-09T10:39:53Z</time>
      </trkpt>
      <trkpt lat="45.19769" lon="6.61513">
        <ele>1011.69</ele>
        <time>2018-09-09T10:39:54Z</time>
      </trkpt>
      <trkpt lat="45.19761" lon="6.61542">
        <ele>1012.92</ele>
        <time>2018-09-09T10:39:55Z</time>
      </trkpt>
      <trkpt lat="45.19754" lon="6.61568">
        <ele>1013.99</ele>
        <time>2018-09-09T10:39:56Z</time>
      </trkpt>
      <trkpt lat="45.19745" lon="6.61593">
        <ele>1014.31</ele>
        <time>2018-09-09T10:39:57Z</time>
      </trkpt>
      <trkpt lat="45.19734" lon="6.61616">
        <ele>1015.8</ele>
        <time>2018-09-09T10:39:58Z</time>
      </trkpt>
      <trkpt lat="45.19721" lon="6.61639">
        <ele>1016.25</ele>
        <time>2018-09-09T10:39:59Z</time>
      </trkpt>
      <trkpt lat="45.19707" lon="6.61662">
        <ele>1017.79</ele>
        <time>2018-09-09T10:40:00Z</time>
      </trkpt>
      <trkpt lat="45.19692" lon="6.61685">
        <ele>1018.95</ele>
        <time>2018-09-09T10:40:01Z</time>
      </trkpt>
      <trkpt lat="45.19677" lon="6.61708">
        <ele>1020</ele>
        <time>2018-09-09T10:40:02Z</time>
      </trkpt>
      <trkpt lat="45.19663" lon="6.61731">
        <ele>1020.31</ele>
        <time>2018-09-09T10:40:03Z</time>
      </trkpt>
      <trkpt lat="45.19649" lon="6.61753">
        <ele>1020.4</ele>
        <time>2018-09-09T10:40:04Z</time>
      </trkpt>
      <trkpt lat="45.19636" lon="6.61774">
        <ele>1020.43</ele>
        <time>2018-09-09T10:40:05Z</time>
      </trkpt>
      <trkpt lat="45.19625" lon="6.61796">
        <ele>1020.44</ele>
        <time>2018-09-09T10:40:06Z</time>
      </trkpt>
      <trkpt lat="45.19618" lon="6.61843">
        <ele>1022.26</ele>
        <time>2018-09-09T10:40:08Z</time>
      </trkpt>
      <trkpt lat="45.19613" lon="6.61891">
        <ele>1021.73</ele>
        <time>2018-09-09T10:40:10Z</time>
      </trkpt>
      <trkpt lat="45.19608" lon="6.61939">
        <ele>1023.08</ele>
        <time>2018-09-09T10:40:12Z</time>
      </trkpt>
      <trkpt lat="45.19608" lon="6.61987">
        <ele>1023.41</ele>
        <time>2018-09-09T10:40:14Z</time>
      </trkpt>
      <trkpt lat="45.19614" lon="6.62029">
        <ele>1024.14</ele>
        <time>2018-09-09T10:40:16Z</time>
      </trkpt>
      <trkpt lat="45.19621" lon="6.62064">
        <ele>1024.42</ele>
        <time>2018-09-09T10:40:18Z</time>
      </trkpt>
      <trkpt lat="45.19621" lon="6.62098">
        <ele>1024.65</ele>
        <time>2018-09-09T10:40:21Z</time>
      </trkpt>
      <trkpt lat="45.19606" lon="6.62125">
        <ele>1024.45</ele>
        <time>2018-09-09T10:40:24Z</time>
      </trkpt>
      <trkpt lat="45.19591" lon="6.62155">
        <ele>1025.36</ele>
        <time>2018-09-09T10:40:26Z</time>
      </trkpt>
      <trkpt lat="45.19581" lon="6.62196">
        <ele>1027.96</ele>
        <time>2018-09-09T10:40:28Z</time>
      </trkpt>
      <trkpt lat="45.1957" lon="6.62244">
        <ele>1030.01</ele>
        <time>2018-09-09T10:40:30Z</time>
      </trkpt>
      <trkpt lat="45.19563" lon="6.6227">
        <ele>1031.71</ele>
        <time>2018-09-09T10:40:31Z</time>
      </trkpt>
      <trkpt lat="45.19556" lon="6.62297">
        <ele>1032.93</ele>
        <time>2018-09-09T10:40:32Z</time>
      </trkpt>
      <trkpt lat="45.1955" lon="6.62325">
        <ele>1033.99</ele>
        <time>2018-09-09T10:40:33Z</time>
      </trkpt>
      <trkpt lat="45.19546" lon="6.62352">
        <ele>1035.01</ele>
        <time>2018-09-09T10:40:34Z</time>
      </trkpt>
      <trkpt lat="45.19542" lon="6.6238">
        <ele>1036.01</ele>
        <time>2018-09-09T10:40:35Z</time>
      </trkpt>
      <trkpt lat="45.1954" lon="6.62407">
        <ele>1036.32</ele>
        <time>2018-09-09T10:40:36Z</time>
      </trkpt>
      <trkpt lat="45.19536" lon="6.62435">
        <ele>1035.71</ele>
        <time>2018-09-09T10:40:37Z</time>
      </trkpt>
      <trkpt lat="45.19533" lon="6.62462">
        <ele>1035.52</ele>
        <time>2018-09-09T10:40:38Z</time>
      </trkpt>
      <trkpt lat="45.1953" lon="6.62489">
        <ele>1035.47</ele>
        <time>2018-09-09T10:40:39Z</time>
      </trkpt>
      <trkpt lat="45.19527" lon="6.62515">
        <ele>1035.45</ele>
        <time>2018-09-09T10:40:40Z</time>
      </trkpt>
      <trkpt lat="45.19523" lon="6.62542">
        <ele>1034.75</ele>
        <time>2018-09-09T10:40:41Z</time>
      </trkpt>
      <trkpt lat="45.19519" lon="6.62568">
        <ele>1034.54</ele>
        <time>2018-09-09T10:40:42Z</time>
      </trkpt>
      <trkpt lat="45.19512" lon="6.62617">
        <ele>1035.36</ele>
        <time>2018-09-09T10:40:44Z</time>
      </trkpt>
      <trkpt lat="45.19503" lon="6.6266">
        <ele>1034.74</ele>
        <time>2018-09-09T10:40:46Z</time>
      </trkpt>
      <trkpt lat="45.19495" lon="6.62697">
        <ele>1034.68</ele>
        <time>2018-09-09T10:40:48Z</time>
      </trkpt>
      <trkpt lat="45.19489" lon="6.62723">
        <ele>1035.17</ele>
        <time>2018-09-09T10:40:50Z</time>
      </trkpt>
      <trkpt lat="45.19483" lon="6.62748">
        <ele>1036.44</ele>
        <time>2018-09-09T10:40:57Z</time>
      </trkpt>
      <trkpt lat="45.19477" lon="6.62774">
        <ele>1037.42</ele>
        <time>2018-09-09T10:41:00Z</time>
      </trkpt>
      <trkpt lat="45.19469" lon="6.628">
        <ele>1037.44</ele>
        <time>2018-09-09T10:41:02Z</time>
      </trkpt>
      <trkpt lat="45.19463" lon="6.62831">
        <ele>1037.44</ele>
        <time>2018-09-09T10:41:04Z</time>
      </trkpt>
      <trkpt lat="45.19455" lon="6.62865">
        <ele>1038.35</ele>
        <time>2018-09-09T10:41:06Z</time>
      </trkpt>
      <trkpt lat="45.19445" lon="6.62897">
        <ele>1038.44</ele>
        <time>2018-09-09T10:41:08Z</time>
      </trkpt>
      <trkpt lat="45.19433" lon="6.62919">
        <ele>1038.65</ele>
        <time>2018-09-09T10:41:10Z</time>
      </trkpt>
      <trkpt lat="45.19426" lon="6.62948">
        <ele>1038.25</ele>
        <time>2018-09-09T10:41:12Z</time>
      </trkpt>
      <trkpt lat="45.19417" lon="6.62985">
        <ele>1038.43</ele>
        <time>2018-09-09T10:41:14Z</time>
      </trkpt>
      <trkpt lat="45.19409" lon="6.63027">
        <ele>1040.75</ele>
        <time>2018-09-09T10:41:16Z</time>
      </trkpt>
      <trkpt lat="45.19399" lon="6.63075">
        <ele>1042.08</ele>
        <time>2018-09-09T10:41:18Z</time>
      </trkpt>
      <trkpt lat="45.19393" lon="6.63102">
        <ele>1043.04</ele>
        <time>2018-09-09T10:41:19Z</time>
      </trkpt>
      <trkpt lat="45.19385" lon="6.6313">
        <ele>1044.02</ele>
        <time>2018-09-09T10:41:20Z</time>
      </trkpt>
      <trkpt lat="45.19377" lon="6.63157">
        <ele>1044.32</ele>
        <time>2018-09-09T10:41:21Z</time>
      </trkpt>
      <trkpt lat="45.19369" lon="6.63184">
        <ele>1045.11</ele>
        <time>2018-09-09T10:41:22Z</time>
      </trkpt>
      <trkpt lat="45.19361" lon="6.63212">
        <ele>1045.34</ele>
        <time>2018-09-09T10:41:23Z</time>
      </trkpt>
      <trkpt lat="45.19354" lon="6.63241">
        <ele>1046.11</ele>
        <time>2018-09-09T10:41:24Z</time>
      </trkpt>
      <trkpt lat="45.19348" lon="6.63271">
        <ele>1046.35</ele>
        <time>2018-09-09T10:41:25Z</time>
      </trkpt>
      <trkpt lat="45.19342" lon="6.63301">
        <ele>1047.12</ele>
        <time>2018-09-09T10:41:26Z</time>
      </trkpt>
      <trkpt lat="45.19336" lon="6.63333">
        <ele>1046.65</ele>
        <time>2018-09-09T10:41:27Z</time>
      </trkpt>
      <trkpt lat="45.19331" lon="6.63364">
        <ele>1047.21</ele>
        <time>2018-09-09T10:41:28Z</time>
      </trkpt>
      <trkpt lat="45.19327" lon="6.63395">
        <ele>1047.37</ele>
        <time>2018-09-09T10:41:29Z</time>
      </trkpt>
      <trkpt lat="45.19321" lon="6.63426">
        <ele>1048.12</ele>
        <time>2018-09-09T10:41:30Z</time>
      </trkpt>
      <trkpt lat="45.19317" lon="6.63456">
        <ele>1048.35</ele>
        <time>2018-09-09T10:41:31Z</time>
      </trkpt>
      <trkpt lat="45.19312" lon="6.63487">
        <ele>1047.72</ele>
        <time>2018-09-09T10:41:32Z</time>
      </trkpt>
      <trkpt lat="45.19307" lon="6.63518">
        <ele>1047.53</ele>
        <time>2018-09-09T10:41:33Z</time>
      </trkpt>
      <trkpt lat="45.19302" lon="6.6355">
        <ele>1047.47</ele>
        <time>2018-09-09T10:41:34Z</time>
      </trkpt>
      <trkpt lat="45.19297" lon="6.63581">
        <ele>1047.45</ele>
        <time>2018-09-09T10:41:35Z</time>
      </trkpt>
      <trkpt lat="45.19292" lon="6.63613">
        <ele>1048.15</ele>
        <time>2018-09-09T10:41:36Z</time>
      </trkpt>
      <trkpt lat="45.19285" lon="6.63644">
        <ele>1048.36</ele>
        <time>2018-09-09T10:41:37Z</time>
      </trkpt>
      <trkpt lat="45.19279" lon="6.63674">
        <ele>1048.42</ele>
        <time>2018-09-09T10:41:38Z</time>
      </trkpt>
      <trkpt lat="45.19272" lon="6.63703">
        <ele>1048.44</ele>
        <time>2018-09-09T10:41:39Z</time>
      </trkpt>
      <trkpt lat="45.19264" lon="6.63731">
        <ele>1049.14</ele>
        <time>2018-09-09T10:41:40Z</time>
      </trkpt>
      <trkpt lat="45.19255" lon="6.63757">
        <ele>1049.35</ele>
        <time>2018-09-09T10:41:41Z</time>
      </trkpt>
      <trkpt lat="45.19244" lon="6.63783">
        <ele>1049.42</ele>
        <time>2018-09-09T10:41:42Z</time>
      </trkpt>
      <trkpt lat="45.19232" lon="6.63807">
        <ele>1050.14</ele>
        <time>2018-09-09T10:41:43Z</time>
      </trkpt>
      <trkpt lat="45.19218" lon="6.63831">
        <ele>1050.35</ele>
        <time>2018-09-09T10:41:44Z</time>
      </trkpt>
      <trkpt lat="45.19203" lon="6.63854">
        <ele>1050.42</ele>
        <time>2018-09-09T10:41:45Z</time>
      </trkpt>
      <trkpt lat="45.19188" lon="6.63876">
        <ele>1050.44</ele>
        <time>2018-09-09T10:41:46Z</time>
      </trkpt>
      <trkpt lat="45.19172" lon="6.63897">
        <ele>1050.44</ele>
        <time>2018-09-09T10:41:47Z</time>
      </trkpt>
      <trkpt lat="45.19156" lon="6.63918">
        <ele>1051.14</ele>
        <time>2018-09-09T10:41:48Z</time>
      </trkpt>
      <trkpt lat="45.1914" lon="6.63939">
        <ele>1051.35</ele>
        <time>2018-09-09T10:41:49Z</time>
      </trkpt>
      <trkpt lat="45.19126" lon="6.63961">
        <ele>1051.42</ele>
        <time>2018-09-09T10:41:50Z</time>
      </trkpt>
      <trkpt lat="45.19111" lon="6.63983">
        <ele>1051.44</ele>
        <time>2018-09-09T10:41:51Z</time>
      </trkpt>
      <trkpt lat="45.19098" lon="6.64006">
        <ele>1052.14</ele>
        <time>2018-09-09T10:41:52Z</time>
      </trkpt>
      <trkpt lat="45.19089" lon="6.64031">
        <ele>1052.35</ele>
        <time>2018-09-09T10:41:53Z</time>
      </trkpt>
      <trkpt lat="45.19079" lon="6.64057">
        <ele>1051.72</ele>
        <time>2018-09-09T10:41:54Z</time>
      </trkpt>
      <trkpt lat="45.19074" lon="6.64084">
        <ele>1052.93</ele>
        <time>2018-09-09T10:41:55Z</time>
      </trkpt>
      <trkpt lat="45.1907" lon="6.64112">
        <ele>1053.29</ele>
        <time>2018-09-09T10:41:56Z</time>
      </trkpt>
      <trkpt lat="45.19068" lon="6.64139">
        <ele>1054.1</ele>
        <time>2018-09-09T10:41:57Z</time>
      </trkpt>
      <trkpt lat="45.19067" lon="6.64166">
        <ele>1053.64</ele>
        <time>2018-09-09T10:41:58Z</time>
      </trkpt>
      <trkpt lat="45.19066" lon="6.64193">
        <ele>1052.8</ele>
        <time>2018-09-09T10:41:59Z</time>
      </trkpt>
      <trkpt lat="45.19066" lon="6.6422">
        <ele>1053.25</ele>
        <time>2018-09-09T10:42:00Z</time>
      </trkpt>
      <trkpt lat="45.19064" lon="6.64245">
        <ele>1052.69</ele>
        <time>2018-09-09T10:42:01Z</time>
      </trkpt>
      <trkpt lat="45.19063" lon="6.64272">
        <ele>1052.52</ele>
        <time>2018-09-09T10:42:02Z</time>
      </trkpt>
      <trkpt lat="45.19062" lon="6.64299">
        <ele>1052.47</ele>
        <time>2018-09-09T10:42:03Z</time>
      </trkpt>
      <trkpt lat="45.1906" lon="6.64325">
        <ele>1052.45</ele>
        <time>2018-09-09T10:42:04Z</time>
      </trkpt>
      <trkpt lat="45.1906" lon="6.64352">
        <ele>1052.45</ele>
        <time>2018-09-09T10:42:05Z</time>
      </trkpt>
      <trkpt lat="45.1906" lon="6.64378">
        <ele>1051.75</ele>
        <time>2018-09-09T10:42:06Z</time>
      </trkpt>
      <trkpt lat="45.19061" lon="6.64404">
        <ele>1052.24</ele>
        <time>2018-09-09T10:42:07Z</time>
      </trkpt>
      <trkpt lat="45.19062" lon="6.64429">
        <ele>1052.38</ele>
        <time>2018-09-09T10:42:08Z</time>
      </trkpt>
      <trkpt lat="45.19068" lon="6.64478">
        <ele>1052.44</ele>
        <time>2018-09-09T10:42:10Z</time>
      </trkpt>
      <trkpt lat="45.19077" lon="6.64524">
        <ele>1053.35</ele>
        <time>2018-09-09T10:42:12Z</time>
      </trkpt>
      <trkpt lat="45.19085" lon="6.64567">
        <ele>1054.35</ele>
        <time>2018-09-09T10:42:14Z</time>
      </trkpt>
      <trkpt lat="45.19093" lon="6.6461">
        <ele>1054.44</ele>
        <time>2018-09-09T10:42:16Z</time>
      </trkpt>
      <trkpt lat="45.191" lon="6.6465">
        <ele>1054.44</ele>
        <time>2018-09-09T10:42:18Z</time>
      </trkpt>
      <trkpt lat="45.1911" lon="6.64686">
        <ele>1055.35</ele>
        <time>2018-09-09T10:42:20Z</time>
      </trkpt>
      <trkpt lat="45.19116" lon="6.6472">
        <ele>1056.14</ele>
        <time>2018-09-09T10:42:22Z</time>
      </trkpt>
      <trkpt lat="45.19125" lon="6.64754">
        <ele>1055.72</ele>
        <time>2018-09-09T10:42:24Z</time>
      </trkpt>
      <trkpt lat="45.1913" lon="6.64791">
        <ele>1056.38</ele>
        <time>2018-09-09T10:42:26Z</time>
      </trkpt>
      <trkpt lat="45.19134" lon="6.64828">
        <ele>1056.44</ele>
        <time>2018-09-09T10:42:28Z</time>
      </trkpt>
      <trkpt lat="45.19141" lon="6.64867">
        <ele>1056.44</ele>
        <time>2018-09-09T10:42:30Z</time>
      </trkpt>
      <trkpt lat="45.19147" lon="6.64904">
        <ele>1057.35</ele>
        <time>2018-09-09T10:42:32Z</time>
      </trkpt>
      <trkpt lat="45.19154" lon="6.64939">
        <ele>1057.44</ele>
        <time>2018-09-09T10:42:34Z</time>
      </trkpt>
      <trkpt lat="45.19161" lon="6.64973">
        <ele>1058.14</ele>
        <time>2018-09-09T10:42:36Z</time>
      </trkpt>
      <trkpt lat="45.19167" lon="6.65005">
        <ele>1058.21</ele>
        <time>2018-09-09T10:42:38Z</time>
      </trkpt>
      <trkpt lat="45.19173" lon="6.65034">
        <ele>1058.42</ele>
        <time>2018-09-09T10:42:40Z</time>
      </trkpt>
      <trkpt lat="45.19178" lon="6.65062">
        <ele>1058.44</ele>
        <time>2018-09-09T10:42:42Z</time>
      </trkpt>
      <trkpt lat="45.19182" lon="6.65088">
        <ele>1059.35</ele>
        <time>2018-09-09T10:42:44Z</time>
      </trkpt>
      <trkpt lat="45.19186" lon="6.65113">
        <ele>1059.23</ele>
        <time>2018-09-09T10:42:46Z</time>
      </trkpt>
      <trkpt lat="45.1919" lon="6.65139">
        <ele>1058.73</ele>
        <time>2018-09-09T10:42:48Z</time>
      </trkpt>
      <trkpt lat="45.19196" lon="6.65166">
        <ele>1059.17</ele>
        <time>2018-09-09T10:42:50Z</time>
      </trkpt>
      <trkpt lat="45.192" lon="6.65196">
        <ele>1058.51</ele>
        <time>2018-09-09T10:42:52Z</time>
      </trkpt>
      <trkpt lat="45.19206" lon="6.65227">
        <ele>1059.15</ele>
        <time>2018-09-09T10:42:54Z</time>
      </trkpt>
      <trkpt lat="45.19212" lon="6.65259">
        <ele>1059.42</ele>
        <time>2018-09-09T10:42:56Z</time>
      </trkpt>
      <trkpt lat="45.19219" lon="6.65292">
        <ele>1059.44</ele>
        <time>2018-09-09T10:42:58Z</time>
      </trkpt>
      <trkpt lat="45.19226" lon="6.65327">
        <ele>1060.35</ele>
        <time>2018-09-09T10:43:00Z</time>
      </trkpt>
      <trkpt lat="45.19232" lon="6.6536">
        <ele>1060.44</ele>
        <time>2018-09-09T10:43:02Z</time>
      </trkpt>
      <trkpt lat="45.19237" lon="6.65393">
        <ele>1060.44</ele>
        <time>2018-09-09T10:43:04Z</time>
      </trkpt>
      <trkpt lat="45.19244" lon="6.65427">
        <ele>1061.35</ele>
        <time>2018-09-09T10:43:06Z</time>
      </trkpt>
      <trkpt lat="45.19252" lon="6.65458">
        <ele>1061.44</ele>
        <time>2018-09-09T10:43:08Z</time>
      </trkpt>
      <trkpt lat="45.19257" lon="6.65488">
        <ele>1061.44</ele>
        <time>2018-09-09T10:43:10Z</time>
      </trkpt>
      <trkpt lat="45.19264" lon="6.65519">
        <ele>1061.65</ele>
        <time>2018-09-09T10:43:12Z</time>
      </trkpt>
      <trkpt lat="45.19271" lon="6.65552">
        <ele>1061.67</ele>
        <time>2018-09-09T10:43:14Z</time>
      </trkpt>
      <trkpt lat="45.19278" lon="6.65585">
        <ele>1061.68</ele>
        <time>2018-09-09T10:43:16Z</time>
      </trkpt>
      <trkpt lat="45.19285" lon="6.65617">
        <ele>1062.38</ele>
        <time>2018-09-09T10:43:18Z</time>
      </trkpt>
      <trkpt lat="45.19295" lon="6.65649">
        <ele>1062.44</ele>
        <time>2018-09-09T10:43:20Z</time>
      </trkpt>
      <trkpt lat="45.19305" lon="6.65679">
        <ele>1062.44</ele>
        <time>2018-09-09T10:43:22Z</time>
      </trkpt>
      <trkpt lat="45.19316" lon="6.65709">
        <ele>1062.44</ele>
        <time>2018-09-09T10:43:24Z</time>
      </trkpt>
      <trkpt lat="45.19324" lon="6.65739">
        <ele>1062.44</ele>
        <time>2018-09-09T10:43:26Z</time>
      </trkpt>
      <trkpt lat="45.19333" lon="6.65768">
        <ele>1063.15</ele>
        <time>2018-09-09T10:43:28Z</time>
      </trkpt>
      <trkpt lat="45.19343" lon="6.65797">
        <ele>1063.42</ele>
        <time>2018-09-09T10:43:30Z</time>
      </trkpt>
      <trkpt lat="45.19353" lon="6.65824">
        <ele>1063.44</ele>
        <time>2018-09-09T10:43:32Z</time>
      </trkpt>
      <trkpt lat="45.19364" lon="6.65848">
        <ele>1064.14</ele>
        <time>2018-09-09T10:43:34Z</time>
      </trkpt>
      <trkpt lat="45.19375" lon="6.65872">
        <ele>1064.42</ele>
        <time>2018-09-09T10:43:36Z</time>
      </trkpt>
      <trkpt lat="45.19386" lon="6.65898">
        <ele>1064.44</ele>
        <time>2018-09-09T10:43:38Z</time>
      </trkpt>
      <trkpt lat="45.19397" lon="6.65923">
        <ele>1063.74</ele>
        <time>2018-09-09T10:43:40Z</time>
      </trkpt>
      <trkpt lat="45.19408" lon="6.65946">
        <ele>1062.56</ele>
        <time>2018-09-09T10:43:42Z</time>
      </trkpt>
      <trkpt lat="45.19423" lon="6.65971">
        <ele>1061.76</ele>
        <time>2018-09-09T10:43:44Z</time>
      </trkpt>
      <trkpt lat="45.19439" lon="6.65996">
        <ele>1060.56</ele>
        <time>2018-09-09T10:43:46Z</time>
      </trkpt>
      <trkpt lat="45.19457" lon="6.66022">
        <ele>1059.76</ele>
        <time>2018-09-09T10:43:48Z</time>
      </trkpt>
      <trkpt lat="45.19475" lon="6.66046">
        <ele>1059.47</ele>
        <time>2018-09-09T10:43:50Z</time>
      </trkpt>
      <trkpt lat="45.19495" lon="6.66071">
        <ele>1058.54</ele>
        <time>2018-09-09T10:43:52Z</time>
      </trkpt>
      <trkpt lat="45.19515" lon="6.66095">
        <ele>1057.54</ele>
        <time>2018-09-09T10:43:54Z</time>
      </trkpt>
      <trkpt lat="45.19533" lon="6.66121">
        <ele>1058.15</ele>
        <time>2018-09-09T10:43:56Z</time>
      </trkpt>
      <trkpt lat="45.19549" lon="6.66146">
        <ele>1058.42</ele>
        <time>2018-09-09T10:43:58Z</time>
      </trkpt>
      <trkpt lat="45.19565" lon="6.66171">
        <ele>1058.44</ele>
        <time>2018-09-09T10:44:00Z</time>
      </trkpt>
      <trkpt lat="45.19584" lon="6.66196">
        <ele>1058.44</ele>
        <time>2018-09-09T10:44:02Z</time>
      </trkpt>
      <trkpt lat="45.19602" lon="6.66219">
        <ele>1060.05</ele>
        <time>2018-09-09T10:44:04Z</time>
      </trkpt>
      <trkpt lat="45.19621" lon="6.66242">
        <ele>1060.41</ele>
        <time>2018-09-09T10:44:06Z</time>
      </trkpt>
      <trkpt lat="45.19639" lon="6.66265">
        <ele>1060.44</ele>
        <time>2018-09-09T10:44:08Z</time>
      </trkpt>
      <trkpt lat="45.19655" lon="6.66288">
        <ele>1059.74</ele>
        <time>2018-09-09T10:44:10Z</time>
      </trkpt>
      <trkpt lat="45.1967" lon="6.66316">
        <ele>1059.68</ele>
        <time>2018-09-09T10:44:12Z</time>
      </trkpt>
      <trkpt lat="45.19687" lon="6.66342">
        <ele>1059.26</ele>
        <time>2018-09-09T10:44:14Z</time>
      </trkpt>
      <trkpt lat="45.19705" lon="6.66368">
        <ele>1060.13</ele>
        <time>2018-09-09T10:44:16Z</time>
      </trkpt>
      <trkpt lat="45.19723" lon="6.66392">
        <ele>1061.33</ele>
        <time>2018-09-09T10:44:18Z</time>
      </trkpt>
      <trkpt lat="45.19743" lon="6.66417">
        <ele>1061.43</ele>
        <time>2018-09-09T10:44:20Z</time>
      </trkpt>
      <trkpt lat="45.19764" lon="6.66442">
        <ele>1061.44</ele>
        <time>2018-09-09T10:44:22Z</time>
      </trkpt>
      <trkpt lat="45.19785" lon="6.66469">
        <ele>1062.14</ele>
        <time>2018-09-09T10:44:24Z</time>
      </trkpt>
      <trkpt lat="45.19805" lon="6.66501">
        <ele>1064.03</ele>
        <time>2018-09-09T10:44:26Z</time>
      </trkpt>
      <trkpt lat="45.1982" lon="6.66537">
        <ele>1065.11</ele>
        <time>2018-09-09T10:44:28Z</time>
      </trkpt>
      <trkpt lat="45.19831" lon="6.66576">
        <ele>1066.11</ele>
        <time>2018-09-09T10:44:30Z</time>
      </trkpt>
      <trkpt lat="45.19842" lon="6.66612">
        <ele>1066.42</ele>
        <time>2018-09-09T10:44:32Z</time>
      </trkpt>
      <trkpt lat="45.19852" lon="6.66647">
        <ele>1067.14</ele>
        <time>2018-09-09T10:44:34Z</time>
      </trkpt>
      <trkpt lat="45.19863" lon="6.66681">
        <ele>1066.72</ele>
        <time>2018-09-09T10:44:36Z</time>
      </trkpt>
      <trkpt lat="45.19877" lon="6.66713">
        <ele>1066.47</ele>
        <time>2018-09-09T10:44:38Z</time>
      </trkpt>
      <trkpt lat="45.19895" lon="6.66739">
        <ele>1064.84</ele>
        <time>2018-09-09T10:44:40Z</time>
      </trkpt>
      <trkpt lat="45.19916" lon="6.66762">
        <ele>1063.78</ele>
        <time>2018-09-09T10:44:42Z</time>
      </trkpt>
      <trkpt lat="45.19938" lon="6.66784">
        <ele>1062.78</ele>
        <time>2018-09-09T10:44:44Z</time>
      </trkpt>
      <trkpt lat="45.19958" lon="6.66805">
        <ele>1062.47</ele>
        <time>2018-09-09T10:44:46Z</time>
      </trkpt>
      <trkpt lat="45.19975" lon="6.66822">
        <ele>1062.45</ele>
        <time>2018-09-09T10:44:48Z</time>
      </trkpt>
      <trkpt lat="45.19984" lon="6.66852">
        <ele>1063.36</ele>
        <time>2018-09-09T10:44:51Z</time>
      </trkpt>
      <trkpt lat="45.20001" lon="6.66863">
        <ele>1062.74</ele>
        <time>2018-09-09T10:44:54Z</time>
      </trkpt>
      <trkpt lat="45.20019" lon="6.66867">
        <ele>1062.47</ele>
        <time>2018-09-09T10:44:56Z</time>
      </trkpt>
      <trkpt lat="45.2004" lon="6.66882">
        <ele>1061.75</ele>
        <time>2018-09-09T10:44:58Z</time>
      </trkpt>
      <trkpt lat="45.20059" lon="6.66901">
        <ele>1061.47</ele>
        <time>2018-09-09T10:45:00Z</time>
      </trkpt>
      <trkpt lat="45.20079" lon="6.66922">
        <ele>1060.54</ele>
        <time>2018-09-09T10:45:02Z</time>
      </trkpt>
      <trkpt lat="45.20101" lon="6.66946">
        <ele>1060.45</ele>
        <time>2018-09-09T10:45:04Z</time>
      </trkpt>
      <trkpt lat="45.20122" lon="6.6697">
        <ele>1061.36</ele>
        <time>2018-09-09T10:45:06Z</time>
      </trkpt>
      <trkpt lat="45.20144" lon="6.66994">
        <ele>1061.65</ele>
        <time>2018-09-09T10:45:08Z</time>
      </trkpt>
      <trkpt lat="45.20166" lon="6.67019">
        <ele>1061.46</ele>
        <time>2018-09-09T10:45:10Z</time>
      </trkpt>
      <trkpt lat="45.20185" lon="6.67044">
        <ele>1061.45</ele>
        <time>2018-09-09T10:45:12Z</time>
      </trkpt>
      <trkpt lat="45.20201" lon="6.67067">
        <ele>1061.45</ele>
        <time>2018-09-09T10:45:14Z</time>
      </trkpt>
      <trkpt lat="45.20216" lon="6.6709">
        <ele>1061.45</ele>
        <time>2018-09-09T10:45:16Z</time>
      </trkpt>
      <trkpt lat="45.20224" lon="6.67115">
        <ele>1062.35</ele>
        <time>2018-09-09T10:45:18Z</time>
      </trkpt>
      <trkpt lat="45.20244" lon="6.67136">
        <ele>1061.26</ele>
        <time>2018-09-09T10:45:21Z</time>
      </trkpt>
      <trkpt lat="45.2026" lon="6.67156">
        <ele>1062.13</ele>
        <time>2018-09-09T10:45:23Z</time>
      </trkpt>
      <trkpt lat="45.20276" lon="6.67184">
        <ele>1062.21</ele>
        <time>2018-09-09T10:45:25Z</time>
      </trkpt>
      <trkpt lat="45.20293" lon="6.67216">
        <ele>1062.21</ele>
        <time>2018-09-09T10:45:27Z</time>
      </trkpt>
      <trkpt lat="45.2031" lon="6.6725">
        <ele>1063.12</ele>
        <time>2018-09-09T10:45:29Z</time>
      </trkpt>
      <trkpt lat="45.20328" lon="6.67286">
        <ele>1064.12</ele>
        <time>2018-09-09T10:45:31Z</time>
      </trkpt>
      <trkpt lat="45.20345" lon="6.67323">
        <ele>1065.12</ele>
        <time>2018-09-09T10:45:33Z</time>
      </trkpt>
      <trkpt lat="45.2036" lon="6.67363">
        <ele>1066.33</ele>
        <time>2018-09-09T10:45:35Z</time>
      </trkpt>
      <trkpt lat="45.20374" lon="6.67406">
        <ele>1068.04</ele>
        <time>2018-09-09T10:45:37Z</time>
      </trkpt>
      <trkpt lat="45.20386" lon="6.67447">
        <ele>1071.63</ele>
        <time>2018-09-09T10:45:39Z</time>
      </trkpt>
      <trkpt lat="45.20399" lon="6.67488">
        <ele>1073.98</ele>
        <time>2018-09-09T10:45:41Z</time>
      </trkpt>
      <trkpt lat="45.20411" lon="6.67532">
        <ele>1076.71</ele>
        <time>2018-09-09T10:45:43Z</time>
      </trkpt>
      <trkpt lat="45.20423" lon="6.67578">
        <ele>1078.99</ele>
        <time>2018-09-09T10:45:45Z</time>
      </trkpt>
      <trkpt lat="45.20435" lon="6.67624">
        <ele>1081.92</ele>
        <time>2018-09-09T10:45:47Z</time>
      </trkpt>
      <trkpt lat="45.20442" lon="6.67648">
        <ele>1083.69</ele>
        <time>2018-09-09T10:45:48Z</time>
      </trkpt>
      <trkpt lat="45.20449" lon="6.67672">
        <ele>1084.92</ele>
        <time>2018-09-09T10:45:49Z</time>
      </trkpt>
      <trkpt lat="45.20463" lon="6.67718">
        <ele>1087.92</ele>
        <time>2018-09-09T10:45:51Z</time>
      </trkpt>
      <trkpt lat="45.20473" lon="6.67762">
        <ele>1091.62</ele>
        <time>2018-09-09T10:45:53Z</time>
      </trkpt>
      <trkpt lat="45.20479" lon="6.67805">
        <ele>1093.98</ele>
        <time>2018-09-09T10:45:55Z</time>
      </trkpt>
      <trkpt lat="45.20484" lon="6.67846">
        <ele>1095.31</ele>
        <time>2018-09-09T10:45:57Z</time>
      </trkpt>
      <trkpt lat="45.20481" lon="6.67893">
        <ele>1097.04</ele>
        <time>2018-09-09T10:45:59Z</time>
      </trkpt>
      <trkpt lat="45.20475" lon="6.67942">
        <ele>1099.02</ele>
        <time>2018-09-09T10:46:01Z</time>
      </trkpt>
      <trkpt lat="45.20471" lon="6.67967">
        <ele>1100.02</ele>
        <time>2018-09-09T10:46:02Z</time>
      </trkpt>
      <trkpt lat="45.20463" lon="6.68017">
        <ele>1101.81</ele>
        <time>2018-09-09T10:46:04Z</time>
      </trkpt>
      <trkpt lat="45.20454" lon="6.68067">
        <ele>1104.7</ele>
        <time>2018-09-09T10:46:06Z</time>
      </trkpt>
      <trkpt lat="45.20449" lon="6.68092">
        <ele>1105.92</ele>
        <time>2018-09-09T10:46:07Z</time>
      </trkpt>
      <trkpt lat="45.20445" lon="6.68117">
        <ele>1106.99</ele>
        <time>2018-09-09T10:46:08Z</time>
      </trkpt>
      <trkpt lat="45.20441" lon="6.68143">
        <ele>1108.01</ele>
        <time>2018-09-09T10:46:09Z</time>
      </trkpt>
      <trkpt lat="45.20437" lon="6.68169">
        <ele>1109.01</ele>
        <time>2018-09-09T10:46:10Z</time>
      </trkpt>
      <trkpt lat="45.20433" lon="6.68195">
        <ele>1110.72</ele>
        <time>2018-09-09T10:46:11Z</time>
      </trkpt>
      <trkpt lat="45.20428" lon="6.68222">
        <ele>1111.93</ele>
        <time>2018-09-09T10:46:12Z</time>
      </trkpt>
      <trkpt lat="45.20424" lon="6.68248">
        <ele>1112.99</ele>
        <time>2018-09-09T10:46:13Z</time>
      </trkpt>
      <trkpt lat="45.2042" lon="6.68275">
        <ele>1114.71</ele>
        <time>2018-09-09T10:46:14Z</time>
      </trkpt>
      <trkpt lat="45.20417" lon="6.68302">
        <ele>1115.92</ele>
        <time>2018-09-09T10:46:15Z</time>
      </trkpt>
      <trkpt lat="45.20416" lon="6.6833">
        <ele>1116.99</ele>
        <time>2018-09-09T10:46:16Z</time>
      </trkpt>
      <trkpt lat="45.20418" lon="6.68357">
        <ele>1118.01</ele>
        <time>2018-09-09T10:46:17Z</time>
      </trkpt>
      <trkpt lat="45.20422" lon="6.68385">
        <ele>1118.31</ele>
        <time>2018-09-09T10:46:18Z</time>
      </trkpt>
      <trkpt lat="45.20431" lon="6.68413">
        <ele>1119.81</ele>
        <time>2018-09-09T10:46:19Z</time>
      </trkpt>
      <trkpt lat="45.20442" lon="6.6844">
        <ele>1120.95</ele>
        <time>2018-09-09T10:46:20Z</time>
      </trkpt>
      <trkpt lat="45.20452" lon="6.68469">
        <ele>1122</ele>
        <time>2018-09-09T10:46:21Z</time>
      </trkpt>
      <trkpt lat="45.20464" lon="6.68499">
        <ele>1123.01</ele>
        <time>2018-09-09T10:46:22Z</time>
      </trkpt>
      <trkpt lat="45.20477" lon="6.68528">
        <ele>1124.01</ele>
        <time>2018-09-09T10:46:23Z</time>
      </trkpt>
      <trkpt lat="45.2049" lon="6.68557">
        <ele>1125.02</ele>
        <time>2018-09-09T10:46:24Z</time>
      </trkpt>
      <trkpt lat="45.20502" lon="6.68585">
        <ele>1126.02</ele>
        <time>2018-09-09T10:46:25Z</time>
      </trkpt>
      <trkpt lat="45.20516" lon="6.68614">
        <ele>1127.02</ele>
        <time>2018-09-09T10:46:26Z</time>
      </trkpt>
      <trkpt lat="45.20527" lon="6.68641">
        <ele>1128.02</ele>
        <time>2018-09-09T10:46:27Z</time>
      </trkpt>
      <trkpt lat="45.20539" lon="6.68669">
        <ele>1129.02</ele>
        <time>2018-09-09T10:46:28Z</time>
      </trkpt>
      <trkpt lat="45.20546" lon="6.68698">
        <ele>1130.02</ele>
        <time>2018-09-09T10:46:29Z</time>
      </trkpt>
      <trkpt lat="45.20552" lon="6.68727">
        <ele>1131.72</ele>
        <time>2018-09-09T10:46:30Z</time>
      </trkpt>
      <trkpt lat="45.20557" lon="6.68754">
        <ele>1132.23</ele>
        <time>2018-09-09T10:46:31Z</time>
      </trkpt>
      <trkpt lat="45.20566" lon="6.68781">
        <ele>1133.08</ele>
        <time>2018-09-09T10:46:32Z</time>
      </trkpt>
      <trkpt lat="45.20576" lon="6.68805">
        <ele>1134.74</ele>
        <time>2018-09-09T10:46:33Z</time>
      </trkpt>
      <trkpt lat="45.20585" lon="6.68829">
        <ele>1135.93</ele>
        <time>2018-09-09T10:46:34Z</time>
      </trkpt>
      <trkpt lat="45.20594" lon="6.68852">
        <ele>1136.99</ele>
        <time>2018-09-09T10:46:35Z</time>
      </trkpt>
      <trkpt lat="45.20605" lon="6.68877">
        <ele>1138.01</ele>
        <time>2018-09-09T10:46:36Z</time>
      </trkpt>
      <trkpt lat="45.20613" lon="6.68903">
        <ele>1139.71</ele>
        <time>2018-09-09T10:46:37Z</time>
      </trkpt>
      <trkpt lat="45.20622" lon="6.68932">
        <ele>1141.63</ele>
        <time>2018-09-09T10:46:38Z</time>
      </trkpt>
      <trkpt lat="45.20631" lon="6.6896">
        <ele>1142.9</ele>
        <time>2018-09-09T10:46:39Z</time>
      </trkpt>
      <trkpt lat="45.2064" lon="6.68989">
        <ele>1143.98</ele>
        <time>2018-09-09T10:46:40Z</time>
      </trkpt>
      <trkpt lat="45.20649" lon="6.69017">
        <ele>1145.71</ele>
        <time>2018-09-09T10:46:41Z</time>
      </trkpt>
      <trkpt lat="45.20659" lon="6.69047">
        <ele>1146.92</ele>
        <time>2018-09-09T10:46:42Z</time>
      </trkpt>
      <trkpt lat="45.20666" lon="6.69077">
        <ele>1148.69</ele>
        <time>2018-09-09T10:46:43Z</time>
      </trkpt>
      <trkpt lat="45.20672" lon="6.69108">
        <ele>1149.92</ele>
        <time>2018-09-09T10:46:44Z</time>
      </trkpt>
      <trkpt lat="45.20676" lon="6.6914">
        <ele>1150.99</ele>
        <time>2018-09-09T10:46:45Z</time>
      </trkpt>
      <trkpt lat="45.20682" lon="6.6917">
        <ele>1152.71</ele>
        <time>2018-09-09T10:46:46Z</time>
      </trkpt>
      <trkpt lat="45.20689" lon="6.692">
        <ele>1153.92</ele>
        <time>2018-09-09T10:46:47Z</time>
      </trkpt>
      <trkpt lat="45.20702" lon="6.69227">
        <ele>1155.69</ele>
        <time>2018-09-09T10:46:48Z</time>
      </trkpt>
      <trkpt lat="45.20712" lon="6.69254">
        <ele>1156.92</ele>
        <time>2018-09-09T10:46:49Z</time>
      </trkpt>
      <trkpt lat="45.2072" lon="6.69282">
        <ele>1158.69</ele>
        <time>2018-09-09T10:46:50Z</time>
      </trkpt>
      <trkpt lat="45.20727" lon="6.69309">
        <ele>1159.92</ele>
        <time>2018-09-09T10:46:51Z</time>
      </trkpt>
      <trkpt lat="45.20736" lon="6.69333">
        <ele>1160.99</ele>
        <time>2018-09-09T10:46:52Z</time>
      </trkpt>
      <trkpt lat="45.20749" lon="6.69352">
        <ele>1162.71</ele>
        <time>2018-09-09T10:46:53Z</time>
      </trkpt>
      <trkpt lat="45.20772" lon="6.69381">
        <ele>1165.9</ele>
        <time>2018-09-09T10:46:55Z</time>
      </trkpt>
      <trkpt lat="45.20771" lon="6.69415">
        <ele>1167.8</ele>
        <time>2018-09-09T10:46:57Z</time>
      </trkpt>
      <trkpt lat="45.2075" lon="6.69449">
        <ele>1170.7</ele>
        <time>2018-09-09T10:46:59Z</time>
      </trkpt>
      <trkpt lat="45.20735" lon="6.69468">
        <ele>1171.92</ele>
        <time>2018-09-09T10:47:00Z</time>
      </trkpt>
      <trkpt lat="45.20718" lon="6.69489">
        <ele>1173.69</ele>
        <time>2018-09-09T10:47:01Z</time>
      </trkpt>
      <trkpt lat="45.207" lon="6.69509">
        <ele>1175.62</ele>
        <time>2018-09-09T10:47:02Z</time>
      </trkpt>
      <trkpt lat="45.20683" lon="6.69525">
        <ele>1176.9</ele>
        <time>2018-09-09T10:47:03Z</time>
      </trkpt>
      <trkpt lat="45.20666" lon="6.69539">
        <ele>1177.98</ele>
        <time>2018-09-09T10:47:04Z</time>
      </trkpt>
      <trkpt lat="45.20651" lon="6.69554">
        <ele>1178.31</ele>
        <time>2018-09-09T10:47:05Z</time>
      </trkpt>
      <trkpt lat="45.20635" lon="6.69569">
        <ele>1178.4</ele>
        <time>2018-09-09T10:47:06Z</time>
      </trkpt>
      <trkpt lat="45.20627" lon="6.69595">
        <ele>1180.53</ele>
        <time>2018-09-09T10:47:07Z</time>
      </trkpt>
      <trkpt lat="45.20618" lon="6.6962">
        <ele>1181.17</ele>
        <time>2018-09-09T10:47:08Z</time>
      </trkpt>
      <trkpt lat="45.20609" lon="6.6965">
        <ele>1182.06</ele>
        <time>2018-09-09T10:47:09Z</time>
      </trkpt>
      <trkpt lat="45.20612" lon="6.69685">
        <ele>1184.43</ele>
        <time>2018-09-09T10:47:10Z</time>
      </trkpt>
      <trkpt lat="45.20608" lon="6.69719">
        <ele>1186.54</ele>
        <time>2018-09-09T10:47:11Z</time>
      </trkpt>
      <trkpt lat="45.20605" lon="6.69754">
        <ele>1187.87</ele>
        <time>2018-09-09T10:47:12Z</time>
      </trkpt>
      <trkpt lat="45.20601" lon="6.69788">
        <ele>1188.97</ele>
        <time>2018-09-09T10:47:13Z</time>
      </trkpt>
      <trkpt lat="45.20598" lon="6.69821">
        <ele>1190.7</ele>
        <time>2018-09-09T10:47:14Z</time>
      </trkpt>
      <trkpt lat="45.20596" lon="6.69856">
        <ele>1191.92</ele>
        <time>2018-09-09T10:47:15Z</time>
      </trkpt>
      <trkpt lat="45.20595" lon="6.69892">
        <ele>1192.29</ele>
        <time>2018-09-09T10:47:16Z</time>
      </trkpt>
      <trkpt lat="45.20594" lon="6.69927">
        <ele>1193.1</ele>
        <time>2018-09-09T10:47:17Z</time>
      </trkpt>
      <trkpt lat="45.20592" lon="6.69962">
        <ele>1194.04</ele>
        <time>2018-09-09T10:47:18Z</time>
      </trkpt>
      <trkpt lat="45.20589" lon="6.69997">
        <ele>1194.32</ele>
        <time>2018-09-09T10:47:19Z</time>
      </trkpt>
      <trkpt lat="45.20585" lon="6.7003">
        <ele>1195.81</ele>
        <time>2018-09-09T10:47:20Z</time>
      </trkpt>
      <trkpt lat="45.20582" lon="6.70064">
        <ele>1196.25</ele>
        <time>2018-09-09T10:47:21Z</time>
      </trkpt>
      <trkpt lat="45.20578" lon="6.70096">
        <ele>1197.09</ele>
        <time>2018-09-09T10:47:22Z</time>
      </trkpt>
      <trkpt lat="45.20575" lon="6.70129">
        <ele>1198.04</ele>
        <time>2018-09-09T10:47:23Z</time>
      </trkpt>
      <trkpt lat="45.20573" lon="6.70161">
        <ele>1198.32</ele>
        <time>2018-09-09T10:47:24Z</time>
      </trkpt>
      <trkpt lat="45.20573" lon="6.70191">
        <ele>1199.11</ele>
        <time>2018-09-09T10:47:25Z</time>
      </trkpt>
      <trkpt lat="45.20575" lon="6.70222">
        <ele>1199.34</ele>
        <time>2018-09-09T10:47:26Z</time>
      </trkpt>
      <trkpt lat="45.20579" lon="6.70251">
        <ele>1200.11</ele>
        <time>2018-09-09T10:47:27Z</time>
      </trkpt>
      <trkpt lat="45.20583" lon="6.70279">
        <ele>1199.65</ele>
        <time>2018-09-09T10:47:28Z</time>
      </trkpt>
      <trkpt lat="45.20584" lon="6.70305">
        <ele>1200.21</ele>
        <time>2018-09-09T10:47:29Z</time>
      </trkpt>
      <trkpt lat="45.20575" lon="6.70353">
        <ele>1201.33</ele>
        <time>2018-09-09T10:47:31Z</time>
      </trkpt>
      <trkpt lat="45.20567" lon="6.70379">
        <ele>1202.11</ele>
        <time>2018-09-09T10:47:32Z</time>
      </trkpt>
      <trkpt lat="45.20561" lon="6.70405">
        <ele>1202.34</ele>
        <time>2018-09-09T10:47:33Z</time>
      </trkpt>
      <trkpt lat="45.20557" lon="6.70431">
        <ele>1202.42</ele>
        <time>2018-09-09T10:47:34Z</time>
      </trkpt>
      <trkpt lat="45.20561" lon="6.70457">
        <ele>1203.14</ele>
        <time>2018-09-09T10:47:35Z</time>
      </trkpt>
      <trkpt lat="45.2056" lon="6.705">
        <ele>1204.12</ele>
        <time>2018-09-09T10:47:37Z</time>
      </trkpt>
      <trkpt lat="45.2056" lon="6.70528">
        <ele>1205.33</ele>
        <time>2018-09-09T10:47:39Z</time>
      </trkpt>
      <trkpt lat="45.20578" lon="6.70551">
        <ele>1205.43</ele>
        <time>2018-09-09T10:47:41Z</time>
      </trkpt>
      <trkpt lat="45.20598" lon="6.70586">
        <ele>1205.44</ele>
        <time>2018-09-09T10:47:43Z</time>
      </trkpt>
      <trkpt lat="45.20616" lon="6.70624">
        <ele>1206.35</ele>
        <time>2018-09-09T10:47:45Z</time>
      </trkpt>
      <trkpt lat="45.20634" lon="6.7066">
        <ele>1207.14</ele>
        <time>2018-09-09T10:47:47Z</time>
      </trkpt>
      <trkpt lat="45.20652" lon="6.70698">
        <ele>1208.12</ele>
        <time>2018-09-09T10:47:49Z</time>
      </trkpt>
      <trkpt lat="45.20667" lon="6.70739">
        <ele>1209.12</ele>
        <time>2018-09-09T10:47:51Z</time>
      </trkpt>
      <trkpt lat="45.20679" lon="6.70782">
        <ele>1210.12</ele>
        <time>2018-09-09T10:47:53Z</time>
      </trkpt>
      <trkpt lat="45.20693" lon="6.70826">
        <ele>1212.03</ele>
        <time>2018-09-09T10:47:55Z</time>
      </trkpt>
      <trkpt lat="45.20701" lon="6.70871">
        <ele>1213.32</ele>
        <time>2018-09-09T10:47:57Z</time>
      </trkpt>
      <trkpt lat="45.20699" lon="6.70918">
        <ele>1214.34</ele>
        <time>2018-09-09T10:47:59Z</time>
      </trkpt>
      <trkpt lat="45.20693" lon="6.70963">
        <ele>1216.05</ele>
        <time>2018-09-09T10:48:01Z</time>
      </trkpt>
      <trkpt lat="45.20696" lon="6.71011">
        <ele>1216.41</ele>
        <time>2018-09-09T10:48:03Z</time>
      </trkpt>
      <trkpt lat="45.20704" lon="6.7106">
        <ele>1217.35</ele>
        <time>2018-09-09T10:48:05Z</time>
      </trkpt>
      <trkpt lat="45.20707" lon="6.71085">
        <ele>1217.42</ele>
        <time>2018-09-09T10:48:06Z</time>
      </trkpt>
      <trkpt lat="45.2071" lon="6.71135">
        <ele>1218.14</ele>
        <time>2018-09-09T10:48:08Z</time>
      </trkpt>
      <trkpt lat="45.20707" lon="6.71185">
        <ele>1218.42</ele>
        <time>2018-09-09T10:48:10Z</time>
      </trkpt>
      <trkpt lat="45.20707" lon="6.71211">
        <ele>1219.14</ele>
        <time>2018-09-09T10:48:11Z</time>
      </trkpt>
      <trkpt lat="45.20709" lon="6.71237">
        <ele>1220.05</ele>
        <time>2018-09-09T10:48:12Z</time>
      </trkpt>
      <trkpt lat="45.20713" lon="6.71263">
        <ele>1220.33</ele>
        <time>2018-09-09T10:48:13Z</time>
      </trkpt>
      <trkpt lat="45.20717" lon="6.71289">
        <ele>1220.41</ele>
        <time>2018-09-09T10:48:14Z</time>
      </trkpt>
      <trkpt lat="45.20731" lon="6.71311">
        <ele>1220.43</ele>
        <time>2018-09-09T10:48:15Z</time>
      </trkpt>
      <trkpt lat="45.20742" lon="6.71335">
        <ele>1221.14</ele>
        <time>2018-09-09T10:48:16Z</time>
      </trkpt>
      <trkpt lat="45.20751" lon="6.7136">
        <ele>1220.65</ele>
        <time>2018-09-09T10:48:17Z</time>
      </trkpt>
      <trkpt lat="45.20756" lon="6.71386">
        <ele>1221.21</ele>
        <time>2018-09-09T10:48:18Z</time>
      </trkpt>
      <trkpt lat="45.20756" lon="6.71413">
        <ele>1221.37</ele>
        <time>2018-09-09T10:48:19Z</time>
      </trkpt>
      <trkpt lat="45.20753" lon="6.71441">
        <ele>1222.12</ele>
        <time>2018-09-09T10:48:20Z</time>
      </trkpt>
      <trkpt lat="45.20747" lon="6.7147">
        <ele>1222.35</ele>
        <time>2018-09-09T10:48:21Z</time>
      </trkpt>
      <trkpt lat="45.2074" lon="6.71499">
        <ele>1222.42</ele>
        <time>2018-09-09T10:48:22Z</time>
      </trkpt>
      <trkpt lat="45.20732" lon="6.71528">
        <ele>1222.44</ele>
        <time>2018-09-09T10:48:23Z</time>
      </trkpt>
      <trkpt lat="45.20726" lon="6.71554">
        <ele>1223.14</ele>
        <time>2018-09-09T10:48:24Z</time>
      </trkpt>
      <trkpt lat="45.20718" lon="6.71603">
        <ele>1223.63</ele>
        <time>2018-09-09T10:48:26Z</time>
      </trkpt>
      <trkpt lat="45.20727" lon="6.7163">
        <ele>1224.2</ele>
        <time>2018-09-09T10:48:27Z</time>
      </trkpt>
      <trkpt lat="45.20736" lon="6.71655">
        <ele>1224.37</ele>
        <time>2018-09-09T10:48:28Z</time>
      </trkpt>
      <trkpt lat="45.20746" lon="6.71678">
        <ele>1224.42</ele>
        <time>2018-09-09T10:48:29Z</time>
      </trkpt>
      <trkpt lat="45.20757" lon="6.71699">
        <ele>1224.44</ele>
        <time>2018-09-09T10:48:30Z</time>
      </trkpt>
      <trkpt lat="45.20786" lon="6.71723">
        <ele>1224.44</ele>
        <time>2018-09-09T10:48:32Z</time>
      </trkpt>
      <trkpt lat="45.20806" lon="6.71733">
        <ele>1224.44</ele>
        <time>2018-09-09T10:48:33Z</time>
      </trkpt>
      <trkpt lat="45.20832" lon="6.71743">
        <ele>1223.74</ele>
        <time>2018-09-09T10:48:34Z</time>
      </trkpt>
      <trkpt lat="45.20851" lon="6.71755">
        <ele>1224.23</ele>
        <time>2018-09-09T10:48:35Z</time>
      </trkpt>
      <trkpt lat="45.2087" lon="6.71768">
        <ele>1225.08</ele>
        <time>2018-09-09T10:48:36Z</time>
      </trkpt>
      <trkpt lat="45.20888" lon="6.71783">
        <ele>1225.34</ele>
        <time>2018-09-09T10:48:37Z</time>
      </trkpt>
      <trkpt lat="45.20906" lon="6.71798">
        <ele>1226.11</ele>
        <time>2018-09-09T10:48:38Z</time>
      </trkpt>
      <trkpt lat="45.20924" lon="6.71814">
        <ele>1227.05</ele>
        <time>2018-09-09T10:48:39Z</time>
      </trkpt>
      <trkpt lat="45.20942" lon="6.71832">
        <ele>1227.33</ele>
        <time>2018-09-09T10:48:40Z</time>
      </trkpt>
      <trkpt lat="45.2096" lon="6.7185">
        <ele>1228.11</ele>
        <time>2018-09-09T10:48:41Z</time>
      </trkpt>
      <trkpt lat="45.20974" lon="6.71868">
        <ele>1228.34</ele>
        <time>2018-09-09T10:48:42Z</time>
      </trkpt>
      <trkpt lat="45.20986" lon="6.71888">
        <ele>1229.11</ele>
        <time>2018-09-09T10:48:43Z</time>
      </trkpt>
      <trkpt lat="45.20994" lon="6.71912">
        <ele>1230.05</ele>
        <time>2018-09-09T10:48:44Z</time>
      </trkpt>
      <trkpt lat="45.21" lon="6.7194">
        <ele>1230.33</ele>
        <time>2018-09-09T10:48:45Z</time>
      </trkpt>
      <trkpt lat="45.21006" lon="6.71967">
        <ele>1230.41</ele>
        <time>2018-09-09T10:48:46Z</time>
      </trkpt>
      <trkpt lat="45.21013" lon="6.72014">
        <ele>1231.35</ele>
        <time>2018-09-09T10:48:48Z</time>
      </trkpt>
      <trkpt lat="45.21" lon="6.72037">
        <ele>1232.12</ele>
        <time>2018-09-09T10:48:49Z</time>
      </trkpt>
      <trkpt lat="45.21" lon="6.72064">
        <ele>1233.05</ele>
        <time>2018-09-09T10:48:50Z</time>
      </trkpt>
      <trkpt lat="45.21003" lon="6.72091">
        <ele>1233.33</ele>
        <time>2018-09-09T10:48:51Z</time>
      </trkpt>
      <trkpt lat="45.2101" lon="6.72121">
        <ele>1233.41</ele>
        <time>2018-09-09T10:48:52Z</time>
      </trkpt>
      <trkpt lat="45.21021" lon="6.72151">
        <ele>1234.13</ele>
        <time>2018-09-09T10:48:53Z</time>
      </trkpt>
      <trkpt lat="45.21031" lon="6.72181">
        <ele>1235.05</ele>
        <time>2018-09-09T10:48:54Z</time>
      </trkpt>
      <trkpt lat="45.2104" lon="6.72211">
        <ele>1235.33</ele>
        <time>2018-09-09T10:48:55Z</time>
      </trkpt>
      <trkpt lat="45.2105" lon="6.72241">
        <ele>1236.11</ele>
        <time>2018-09-09T10:48:56Z</time>
      </trkpt>
      <trkpt lat="45.2106" lon="6.7227">
        <ele>1236.34</ele>
        <time>2018-09-09T10:48:57Z</time>
      </trkpt>
      <trkpt lat="45.2107" lon="6.72299">
        <ele>1236.41</ele>
        <time>2018-09-09T10:48:58Z</time>
      </trkpt>
      <trkpt lat="45.21078" lon="6.72327">
        <ele>1236.44</ele>
        <time>2018-09-09T10:48:59Z</time>
      </trkpt>
      <trkpt lat="45.21086" lon="6.72354">
        <ele>1237.14</ele>
        <time>2018-09-09T10:49:00Z</time>
      </trkpt>
      <trkpt lat="45.21092" lon="6.7238">
        <ele>1237.35</ele>
        <time>2018-09-09T10:49:01Z</time>
      </trkpt>
      <trkpt lat="45.21081" lon="6.7243">
        <ele>1237.44</ele>
        <time>2018-09-09T10:49:03Z</time>
      </trkpt>
      <trkpt lat="45.21051" lon="6.72455">
        <ele>1238.14</ele>
        <time>2018-09-09T10:49:04Z</time>
      </trkpt>
      <trkpt lat="45.21039" lon="6.72483">
        <ele>1238.35</ele>
        <time>2018-09-09T10:49:05Z</time>
      </trkpt>
      <trkpt lat="45.21025" lon="6.72512">
        <ele>1239.82</ele>
        <time>2018-09-09T10:49:06Z</time>
      </trkpt>
      <trkpt lat="45.21013" lon="6.7254">
        <ele>1240.26</ele>
        <time>2018-09-09T10:49:07Z</time>
      </trkpt>
      <trkpt lat="45.21" lon="6.72568">
        <ele>1240.39</ele>
        <time>2018-09-09T10:49:08Z</time>
      </trkpt>
      <trkpt lat="45.20987" lon="6.72592">
        <ele>1241.13</ele>
        <time>2018-09-09T10:49:09Z</time>
      </trkpt>
      <trkpt lat="45.20971" lon="6.72612">
        <ele>1241.35</ele>
        <time>2018-09-09T10:49:10Z</time>
      </trkpt>
      <trkpt lat="45.20953" lon="6.72629">
        <ele>1242.12</ele>
        <time>2018-09-09T10:49:11Z</time>
      </trkpt>
      <trkpt lat="45.20937" lon="6.72649">
        <ele>1242.35</ele>
        <time>2018-09-09T10:49:12Z</time>
      </trkpt>
      <trkpt lat="45.20924" lon="6.72669">
        <ele>1242.42</ele>
        <time>2018-09-09T10:49:13Z</time>
      </trkpt>
      <trkpt lat="45.20914" lon="6.7269">
        <ele>1243.14</ele>
        <time>2018-09-09T10:49:14Z</time>
      </trkpt>
      <trkpt lat="45.20906" lon="6.72717">
        <ele>1244.75</ele>
        <time>2018-09-09T10:49:15Z</time>
      </trkpt>
      <trkpt lat="45.20901" lon="6.72742">
        <ele>1244.54</ele>
        <time>2018-09-09T10:49:16Z</time>
      </trkpt>
      <trkpt lat="45.20911" lon="6.72776">
        <ele>1245.87</ele>
        <time>2018-09-09T10:49:17Z</time>
      </trkpt>
      <trkpt lat="45.20909" lon="6.72808">
        <ele>1246.97</ele>
        <time>2018-09-09T10:49:18Z</time>
      </trkpt>
      <trkpt lat="45.20904" lon="6.72841">
        <ele>1247.3</ele>
        <time>2018-09-09T10:49:19Z</time>
      </trkpt>
      <trkpt lat="45.209" lon="6.72872">
        <ele>1248.1</ele>
        <time>2018-09-09T10:49:20Z</time>
      </trkpt>
      <trkpt lat="45.20896" lon="6.72904">
        <ele>1249.04</ele>
        <time>2018-09-09T10:49:21Z</time>
      </trkpt>
      <trkpt lat="45.20894" lon="6.72934">
        <ele>1250.02</ele>
        <time>2018-09-09T10:49:22Z</time>
      </trkpt>
      <trkpt lat="45.20894" lon="6.72965">
        <ele>1249.62</ele>
        <time>2018-09-09T10:49:23Z</time>
      </trkpt>
      <trkpt lat="45.20893" lon="6.72996">
        <ele>1250.2</ele>
        <time>2018-09-09T10:49:24Z</time>
      </trkpt>
      <trkpt lat="45.20893" lon="6.73026">
        <ele>1251.07</ele>
        <time>2018-09-09T10:49:25Z</time>
      </trkpt>
      <trkpt lat="45.20893" lon="6.73056">
        <ele>1250.63</ele>
        <time>2018-09-09T10:49:26Z</time>
      </trkpt>
      <trkpt lat="45.20893" lon="6.73085">
        <ele>1251.2</ele>
        <time>2018-09-09T10:49:27Z</time>
      </trkpt>
      <trkpt lat="45.20892" lon="6.73114">
        <ele>1251.37</ele>
        <time>2018-09-09T10:49:28Z</time>
      </trkpt>
      <trkpt lat="45.2089" lon="6.73144">
        <ele>1250.72</ele>
        <time>2018-09-09T10:49:29Z</time>
      </trkpt>
      <trkpt lat="45.20883" lon="6.73172">
        <ele>1251.23</ele>
        <time>2018-09-09T10:49:30Z</time>
      </trkpt>
      <trkpt lat="45.20876" lon="6.73199">
        <ele>1251.38</ele>
        <time>2018-09-09T10:49:31Z</time>
      </trkpt>
      <trkpt lat="45.20869" lon="6.73227">
        <ele>1252.13</ele>
        <time>2018-09-09T10:49:32Z</time>
      </trkpt>
      <trkpt lat="45.2086" lon="6.73253">
        <ele>1253.05</ele>
        <time>2018-09-09T10:49:33Z</time>
      </trkpt>
      <trkpt lat="45.2085" lon="6.73278">
        <ele>1253.33</ele>
        <time>2018-09-09T10:49:34Z</time>
      </trkpt>
      <trkpt lat="45.2084" lon="6.733">
        <ele>1253.41</ele>
        <time>2018-09-09T10:49:35Z</time>
      </trkpt>
      <trkpt lat="45.20812" lon="6.73328">
        <ele>1255.05</ele>
        <time>2018-09-09T10:49:37Z</time>
      </trkpt>
      <trkpt lat="45.2078" lon="6.73354">
        <ele>1256.32</ele>
        <time>2018-09-09T10:49:39Z</time>
      </trkpt>
      <trkpt lat="45.20764" lon="6.73368">
        <ele>1256.41</ele>
        <time>2018-09-09T10:49:40Z</time>
      </trkpt>
      <trkpt lat="45.20749" lon="6.73385">
        <ele>1256.43</ele>
        <time>2018-09-09T10:49:41Z</time>
      </trkpt>
      <trkpt lat="45.20723" lon="6.73418">
        <ele>1256.65</ele>
        <time>2018-09-09T10:49:43Z</time>
      </trkpt>
      <trkpt lat="45.20695" lon="6.73442">
        <ele>1257.37</ele>
        <time>2018-09-09T10:49:45Z</time>
      </trkpt>
      <trkpt lat="45.20675" lon="6.73444">
        <ele>1257.42</ele>
        <time>2018-09-09T10:49:46Z</time>
      </trkpt>
      <trkpt lat="45.20652" lon="6.7346">
        <ele>1259.26</ele>
        <time>2018-09-09T10:49:48Z</time>
      </trkpt>
      <trkpt lat="45.2063" lon="6.73482">
        <ele>1260.34</ele>
        <time>2018-09-09T10:49:50Z</time>
      </trkpt>
      <trkpt lat="45.20636" lon="6.73507">
        <ele>1256.44</ele>
        <time>2018-09-09T10:50:35Z</time>
      </trkpt>
      <trkpt lat="45.20646" lon="6.73542">
        <ele>1256.51</ele>
        <time>2018-09-09T10:50:38Z</time>
      </trkpt>
      <trkpt lat="45.20661" lon="6.73565">
        <ele>1257.15</ele>
        <time>2018-09-09T10:50:40Z</time>
      </trkpt>
      <trkpt lat="45.20682" lon="6.73578">
        <ele>1258.33</ele>
        <time>2018-09-09T10:50:42Z</time>
      </trkpt>
      <trkpt lat="45.20705" lon="6.73587">
        <ele>1257.73</ele>
        <time>2018-09-09T10:50:44Z</time>
      </trkpt>
      <trkpt lat="45.20725" lon="6.73599">
        <ele>1257.47</ele>
        <time>2018-09-09T10:50:46Z</time>
      </trkpt>
      <trkpt lat="45.20746" lon="6.73622">
        <ele>1258.36</ele>
        <time>2018-09-09T10:50:49Z</time>
      </trkpt>
      <trkpt lat="45.20756" lon="6.73646">
        <ele>1258.44</ele>
        <time>2018-09-09T10:50:51Z</time>
      </trkpt>
      <trkpt lat="45.20765" lon="6.73669">
        <ele>1257.53</ele>
        <time>2018-09-09T10:50:53Z</time>
      </trkpt>
      <trkpt lat="45.20776" lon="6.73696">
        <ele>1256.54</ele>
        <time>2018-09-09T10:50:56Z</time>
      </trkpt>
      <trkpt lat="45.20787" lon="6.73719">
        <ele>1255.75</ele>
        <time>2018-09-09T10:50:59Z</time>
      </trkpt>
      <trkpt lat="45.208" lon="6.7375">
        <ele>1255.45</ele>
        <time>2018-09-09T10:51:02Z</time>
      </trkpt>
      <trkpt lat="45.20809" lon="6.73774">
        <ele>1254.54</ele>
        <time>2018-09-09T10:51:04Z</time>
      </trkpt>
      <trkpt lat="45.20819" lon="6.73798">
        <ele>1254.45</ele>
        <time>2018-09-09T10:51:06Z</time>
      </trkpt>
      <trkpt lat="45.20828" lon="6.73826">
        <ele>1253.54</ele>
        <time>2018-09-09T10:51:08Z</time>
      </trkpt>
      <trkpt lat="45.20838" lon="6.73857">
        <ele>1253.45</ele>
        <time>2018-09-09T10:51:10Z</time>
      </trkpt>
      <trkpt lat="45.20846" lon="6.73888">
        <ele>1252.54</ele>
        <time>2018-09-09T10:51:12Z</time>
      </trkpt>
      <trkpt lat="45.20854" lon="6.73911">
        <ele>1255.44</ele>
        <time>2018-09-09T10:51:54Z</time>
      </trkpt>
      <trkpt lat="45.20864" lon="6.73949">
        <ele>1255.65</ele>
        <time>2018-09-09T10:51:56Z</time>
      </trkpt>
      <trkpt lat="45.20875" lon="6.73994">
        <ele>1254.76</ele>
        <time>2018-09-09T10:51:58Z</time>
      </trkpt>
      <trkpt lat="45.20891" lon="6.74037">
        <ele>1253.56</ele>
        <time>2018-09-09T10:52:00Z</time>
      </trkpt>
      <trkpt lat="45.20914" lon="6.7407">
        <ele>1252.55</ele>
        <time>2018-09-09T10:52:02Z</time>
      </trkpt>
      <trkpt lat="45.20939" lon="6.74086">
        <ele>1251.54</ele>
        <time>2018-09-09T10:52:04Z</time>
      </trkpt>
      <trkpt lat="45.20968" lon="6.74106">
        <ele>1248.93</ele>
        <time>2018-09-09T10:52:06Z</time>
      </trkpt>
      <trkpt lat="45.20998" lon="6.74137">
        <ele>1248.49</ele>
        <time>2018-09-09T10:52:08Z</time>
      </trkpt>
      <trkpt lat="45.21012" lon="6.74161">
        <ele>1248.46</ele>
        <time>2018-09-09T10:52:09Z</time>
      </trkpt>
      <trkpt lat="45.2102" lon="6.74192">
        <ele>1247.75</ele>
        <time>2018-09-09T10:52:10Z</time>
      </trkpt>
      <trkpt lat="45.21032" lon="6.74218">
        <ele>1246.84</ele>
        <time>2018-09-09T10:52:11Z</time>
      </trkpt>
      <trkpt lat="45.21045" lon="6.74241">
        <ele>1246.56</ele>
        <time>2018-09-09T10:52:12Z</time>
      </trkpt>
      <trkpt lat="45.21066" lon="6.74284">
        <ele>1246.46</ele>
        <time>2018-09-09T10:52:14Z</time>
      </trkpt>
      <trkpt lat="45.21069" lon="6.74314">
        <ele>1245.05</ele>
        <time>2018-09-09T10:52:15Z</time>
      </trkpt>
      <trkpt lat="45.21077" lon="6.74343">
        <ele>1244.63</ele>
        <time>2018-09-09T10:52:16Z</time>
      </trkpt>
      <trkpt lat="45.21084" lon="6.74373">
        <ele>1243.8</ele>
        <time>2018-09-09T10:52:17Z</time>
      </trkpt>
      <trkpt lat="45.21087" lon="6.74403">
        <ele>1243.55</ele>
        <time>2018-09-09T10:52:18Z</time>
      </trkpt>
      <trkpt lat="45.21092" lon="6.74431">
        <ele>1242.78</ele>
        <time>2018-09-09T10:52:19Z</time>
      </trkpt>
      <trkpt lat="45.211" lon="6.74458">
        <ele>1242.54</ele>
        <time>2018-09-09T10:52:20Z</time>
      </trkpt>
      <trkpt lat="45.21112" lon="6.74485">
        <ele>1242.47</ele>
        <time>2018-09-09T10:52:21Z</time>
      </trkpt>
      <trkpt lat="45.21124" lon="6.74513">
        <ele>1241.75</ele>
        <time>2018-09-09T10:52:22Z</time>
      </trkpt>
      <trkpt lat="45.21132" lon="6.74541">
        <ele>1241.54</ele>
        <time>2018-09-09T10:52:23Z</time>
      </trkpt>
      <trkpt lat="45.2114" lon="6.74568">
        <ele>1241.47</ele>
        <time>2018-09-09T10:52:24Z</time>
      </trkpt>
      <trkpt lat="45.2115" lon="6.74592">
        <ele>1240.75</ele>
        <time>2018-09-09T10:52:25Z</time>
      </trkpt>
      <trkpt lat="45.21163" lon="6.74611">
        <ele>1239.84</ele>
        <time>2018-09-09T10:52:26Z</time>
      </trkpt>
      <trkpt lat="45.21193" lon="6.74634">
        <ele>1238.08</ele>
        <time>2018-09-09T10:52:28Z</time>
      </trkpt>
      <trkpt lat="45.21228" lon="6.74642">
        <ele>1235.89</ele>
        <time>2018-09-09T10:52:30Z</time>
      </trkpt>
      <trkpt lat="45.21259" lon="6.7466">
        <ele>1232.97</ele>
        <time>2018-09-09T10:52:32Z</time>
      </trkpt>
      <trkpt lat="45.21277" lon="6.74678">
        <ele>1232.6</ele>
        <time>2018-09-09T10:52:33Z</time>
      </trkpt>
      <trkpt lat="45.21295" lon="6.74704">
        <ele>1232.49</ele>
        <time>2018-09-09T10:52:34Z</time>
      </trkpt>
      <trkpt lat="45.21311" lon="6.74727">
        <ele>1231.76</ele>
        <time>2018-09-09T10:52:35Z</time>
      </trkpt>
      <trkpt lat="45.21326" lon="6.74751">
        <ele>1232.94</ele>
        <time>2018-09-09T10:52:36Z</time>
      </trkpt>
      <trkpt lat="45.21341" lon="6.7478">
        <ele>1233.29</ele>
        <time>2018-09-09T10:52:37Z</time>
      </trkpt>
      <trkpt lat="45.21354" lon="6.74811">
        <ele>1234.1</ele>
        <time>2018-09-09T10:52:38Z</time>
      </trkpt>
      <trkpt lat="45.21364" lon="6.7484">
        <ele>1232.94</ele>
        <time>2018-09-09T10:52:39Z</time>
      </trkpt>
      <trkpt lat="45.21376" lon="6.74865">
        <ele>1231.19</ele>
        <time>2018-09-09T10:52:40Z</time>
      </trkpt>
      <trkpt lat="45.2139" lon="6.74886">
        <ele>1230.67</ele>
        <time>2018-09-09T10:52:41Z</time>
      </trkpt>
      <trkpt lat="45.21408" lon="6.749">
        <ele>1230.51</ele>
        <time>2018-09-09T10:52:42Z</time>
      </trkpt>
      <trkpt lat="45.21429" lon="6.74914">
        <ele>1230.47</ele>
        <time>2018-09-09T10:52:43Z</time>
      </trkpt>
      <trkpt lat="45.21443" lon="6.74939">
        <ele>1229.05</ele>
        <time>2018-09-09T10:52:44Z</time>
      </trkpt>
      <trkpt lat="45.21457" lon="6.74961">
        <ele>1227.93</ele>
        <time>2018-09-09T10:52:45Z</time>
      </trkpt>
      <trkpt lat="45.21468" lon="6.74993">
        <ele>1226.89</ele>
        <time>2018-09-09T10:52:46Z</time>
      </trkpt>
      <trkpt lat="45.21476" lon="6.75023">
        <ele>1227.16</ele>
        <time>2018-09-09T10:52:47Z</time>
      </trkpt>
      <trkpt lat="45.21483" lon="6.75054">
        <ele>1227.24</ele>
        <time>2018-09-09T10:52:48Z</time>
      </trkpt>
      <trkpt lat="45.21491" lon="6.75085">
        <ele>1227.26</ele>
        <time>2018-09-09T10:52:49Z</time>
      </trkpt>
      <trkpt lat="45.21493" lon="6.75119">
        <ele>1226.57</ele>
        <time>2018-09-09T10:52:50Z</time>
      </trkpt>
      <trkpt lat="45.21483" lon="6.75144">
        <ele>1227.06</ele>
        <time>2018-09-09T10:52:51Z</time>
      </trkpt>
      <trkpt lat="45.21483" lon="6.75172">
        <ele>1226.51</ele>
        <time>2018-09-09T10:52:52Z</time>
      </trkpt>
      <trkpt lat="45.21489" lon="6.752">
        <ele>1224.94</ele>
        <time>2018-09-09T10:52:53Z</time>
      </trkpt>
      <trkpt lat="45.21494" lon="6.75227">
        <ele>1224.47</ele>
        <time>2018-09-09T10:52:54Z</time>
      </trkpt>
      <trkpt lat="45.2151" lon="6.75251">
        <ele>1223.63</ele>
        <time>2018-09-09T10:52:55Z</time>
      </trkpt>
      <trkpt lat="45.21526" lon="6.75271">
        <ele>1223.38</ele>
        <time>2018-09-09T10:52:56Z</time>
      </trkpt>
      <trkpt lat="45.21544" lon="6.7529">
        <ele>1223.3</ele>
        <time>2018-09-09T10:52:57Z</time>
      </trkpt>
      <trkpt lat="45.21564" lon="6.75306">
        <ele>1222.58</ele>
        <time>2018-09-09T10:52:58Z</time>
      </trkpt>
      <trkpt lat="45.21583" lon="6.75321">
        <ele>1223.06</ele>
        <time>2018-09-09T10:52:59Z</time>
      </trkpt>
      <trkpt lat="45.21601" lon="6.75331">
        <ele>1222.51</ele>
        <time>2018-09-09T10:53:00Z</time>
      </trkpt>
      <trkpt lat="45.21622" lon="6.75336">
        <ele>1222.34</ele>
        <time>2018-09-09T10:53:01Z</time>
      </trkpt>
      <trkpt lat="45.2164" lon="6.75341">
        <ele>1221.59</ele>
        <time>2018-09-09T10:53:02Z</time>
      </trkpt>
      <trkpt lat="45.21671" lon="6.75362">
        <ele>1220.39</ele>
        <time>2018-09-09T10:53:04Z</time>
      </trkpt>
      <trkpt lat="45.21686" lon="6.7538">
        <ele>1220.31</ele>
        <time>2018-09-09T10:53:05Z</time>
      </trkpt>
      <trkpt lat="45.21695" lon="6.75409">
        <ele>1218.18</ele>
        <time>2018-09-09T10:53:06Z</time>
      </trkpt>
      <trkpt lat="45.21704" lon="6.75443">
        <ele>1216.84</ele>
        <time>2018-09-09T10:53:07Z</time>
      </trkpt>
      <trkpt lat="45.21717" lon="6.7547">
        <ele>1215.04</ele>
        <time>2018-09-09T10:53:08Z</time>
      </trkpt>
      <trkpt lat="45.21737" lon="6.75495">
        <ele>1214.5</ele>
        <time>2018-09-09T10:53:09Z</time>
      </trkpt>
      <trkpt lat="45.21757" lon="6.75519">
        <ele>1214.34</ele>
        <time>2018-09-09T10:53:10Z</time>
      </trkpt>
      <trkpt lat="45.21778" lon="6.75547">
        <ele>1214.29</ele>
        <time>2018-09-09T10:53:11Z</time>
      </trkpt>
      <trkpt lat="45.21796" lon="6.75574">
        <ele>1213.58</ele>
        <time>2018-09-09T10:53:12Z</time>
      </trkpt>
      <trkpt lat="45.21815" lon="6.75602">
        <ele>1213.36</ele>
        <time>2018-09-09T10:53:13Z</time>
      </trkpt>
      <trkpt lat="45.21832" lon="6.75631">
        <ele>1212.6</ele>
        <time>2018-09-09T10:53:14Z</time>
      </trkpt>
      <trkpt lat="45.21849" lon="6.75662">
        <ele>1212.37</ele>
        <time>2018-09-09T10:53:15Z</time>
      </trkpt>
      <trkpt lat="45.21866" lon="6.75692">
        <ele>1211.6</ele>
        <time>2018-09-09T10:53:16Z</time>
      </trkpt>
      <trkpt lat="45.21882" lon="6.75722">
        <ele>1211.37</ele>
        <time>2018-09-09T10:53:17Z</time>
      </trkpt>
      <trkpt lat="45.21896" lon="6.7575">
        <ele>1210.6</ele>
        <time>2018-09-09T10:53:18Z</time>
      </trkpt>
      <trkpt lat="45.21904" lon="6.75781">
        <ele>1211.07</ele>
        <time>2018-09-09T10:53:19Z</time>
      </trkpt>
      <trkpt lat="45.21914" lon="6.75812">
        <ele>1211.21</ele>
        <time>2018-09-09T10:53:20Z</time>
      </trkpt>
      <trkpt lat="45.21918" lon="6.7585">
        <ele>1211.25</ele>
        <time>2018-09-09T10:53:21Z</time>
      </trkpt>
      <trkpt lat="45.21917" lon="6.75891">
        <ele>1211.27</ele>
        <time>2018-09-09T10:53:22Z</time>
      </trkpt>
      <trkpt lat="45.21919" lon="6.7593">
        <ele>1210.57</ele>
        <time>2018-09-09T10:53:23Z</time>
      </trkpt>
      <trkpt lat="45.21919" lon="6.75967">
        <ele>1210.36</ele>
        <time>2018-09-09T10:53:24Z</time>
      </trkpt>
      <trkpt lat="45.21922" lon="6.76001">
        <ele>1208.9</ele>
        <time>2018-09-09T10:53:25Z</time>
      </trkpt>
      <trkpt lat="45.21926" lon="6.76035">
        <ele>1208.46</ele>
        <time>2018-09-09T10:53:26Z</time>
      </trkpt>
      <trkpt lat="45.2193" lon="6.76067">
        <ele>1208.33</ele>
        <time>2018-09-09T10:53:27Z</time>
      </trkpt>
      <trkpt lat="45.21946" lon="6.76092">
        <ele>1206.89</ele>
        <time>2018-09-09T10:53:28Z</time>
      </trkpt>
      <trkpt lat="45.21959" lon="6.76115">
        <ele>1206.46</ele>
        <time>2018-09-09T10:53:29Z</time>
      </trkpt>
      <trkpt lat="45.21977" lon="6.76133">
        <ele>1205.63</ele>
        <time>2018-09-09T10:53:30Z</time>
      </trkpt>
      <trkpt lat="45.21997" lon="6.76148">
        <ele>1204.68</ele>
        <time>2018-09-09T10:53:31Z</time>
      </trkpt>
      <trkpt lat="45.2202" lon="6.76161">
        <ele>1203.69</ele>
        <time>2018-09-09T10:53:32Z</time>
      </trkpt>
      <trkpt lat="45.22044" lon="6.76172">
        <ele>1202.7</ele>
        <time>2018-09-09T10:53:33Z</time>
      </trkpt>
      <trkpt lat="45.22069" lon="6.76181">
        <ele>1202.4</ele>
        <time>2018-09-09T10:53:34Z</time>
      </trkpt>
      <trkpt lat="45.22095" lon="6.7619">
        <ele>1202.31</ele>
        <time>2018-09-09T10:53:35Z</time>
      </trkpt>
      <trkpt lat="45.22121" lon="6.76198">
        <ele>1202.28</ele>
        <time>2018-09-09T10:53:36Z</time>
      </trkpt>
      <trkpt lat="45.22147" lon="6.76206">
        <ele>1201.57</ele>
        <time>2018-09-09T10:53:37Z</time>
      </trkpt>
      <trkpt lat="45.22173" lon="6.76213">
        <ele>1201.36</ele>
        <time>2018-09-09T10:53:38Z</time>
      </trkpt>
      <trkpt lat="45.22199" lon="6.76219">
        <ele>1200.6</ele>
        <time>2018-09-09T10:53:39Z</time>
      </trkpt>
      <trkpt lat="45.22226" lon="6.76223">
        <ele>1201.07</ele>
        <time>2018-09-09T10:53:40Z</time>
      </trkpt>
      <trkpt lat="45.22252" lon="6.76228">
        <ele>1200.51</ele>
        <time>2018-09-09T10:53:41Z</time>
      </trkpt>
      <trkpt lat="45.22276" lon="6.76234">
        <ele>1200.34</ele>
        <time>2018-09-09T10:53:42Z</time>
      </trkpt>
      <trkpt lat="45.22299" lon="6.76239">
        <ele>1200.99</ele>
        <time>2018-09-09T10:53:43Z</time>
      </trkpt>
      <trkpt lat="45.22321" lon="6.76247">
        <ele>1201.89</ele>
        <time>2018-09-09T10:53:44Z</time>
      </trkpt>
      <trkpt lat="45.2234" lon="6.7626">
        <ele>1202.16</ele>
        <time>2018-09-09T10:53:45Z</time>
      </trkpt>
      <trkpt lat="45.22355" lon="6.76277">
        <ele>1202.24</ele>
        <time>2018-09-09T10:53:46Z</time>
      </trkpt>
      <trkpt lat="45.22367" lon="6.76298">
        <ele>1201.56</ele>
        <time>2018-09-09T10:53:47Z</time>
      </trkpt>
      <trkpt lat="45.22378" lon="6.76319">
        <ele>1202.06</ele>
        <time>2018-09-09T10:53:48Z</time>
      </trkpt>
      <trkpt lat="45.22387" lon="6.76347">
        <ele>1202.21</ele>
        <time>2018-09-09T10:53:49Z</time>
      </trkpt>
      <trkpt lat="45.22389" lon="6.76382">
        <ele>1202.95</ele>
        <time>2018-09-09T10:53:50Z</time>
      </trkpt>
      <trkpt lat="45.22395" lon="6.76417">
        <ele>1203.88</ele>
        <time>2018-09-09T10:53:51Z</time>
      </trkpt>
      <trkpt lat="45.22402" lon="6.76454">
        <ele>1204.15</ele>
        <time>2018-09-09T10:53:52Z</time>
      </trkpt>
      <trkpt lat="45.2241" lon="6.76488">
        <ele>1204.24</ele>
        <time>2018-09-09T10:53:53Z</time>
      </trkpt>
      <trkpt lat="45.22422" lon="6.7652">
        <ele>1204.96</ele>
        <time>2018-09-09T10:53:54Z</time>
      </trkpt>
      <trkpt lat="45.22437" lon="6.76551">
        <ele>1204.48</ele>
        <time>2018-09-09T10:53:55Z</time>
      </trkpt>
      <trkpt lat="45.22451" lon="6.7658">
        <ele>1204.33</ele>
        <time>2018-09-09T10:53:56Z</time>
      </trkpt>
      <trkpt lat="45.22465" lon="6.7661">
        <ele>1204.99</ele>
        <time>2018-09-09T10:53:57Z</time>
      </trkpt>
      <trkpt lat="45.2248" lon="6.7664">
        <ele>1205.19</ele>
        <time>2018-09-09T10:53:58Z</time>
      </trkpt>
      <trkpt lat="45.22493" lon="6.76672">
        <ele>1205.25</ele>
        <time>2018-09-09T10:53:59Z</time>
      </trkpt>
      <trkpt lat="45.22503" lon="6.76705">
        <ele>1205.26</ele>
        <time>2018-09-09T10:54:00Z</time>
      </trkpt>
      <trkpt lat="45.22513" lon="6.76738">
        <ele>1205.97</ele>
        <time>2018-09-09T10:54:01Z</time>
      </trkpt>
      <trkpt lat="45.22521" lon="6.76772">
        <ele>1206.88</ele>
        <time>2018-09-09T10:54:02Z</time>
      </trkpt>
      <trkpt lat="45.22529" lon="6.76805">
        <ele>1207.85</ele>
        <time>2018-09-09T10:54:03Z</time>
      </trkpt>
      <trkpt lat="45.22536" lon="6.76839">
        <ele>1208.85</ele>
        <time>2018-09-09T10:54:04Z</time>
      </trkpt>
      <trkpt lat="45.22543" lon="6.76872">
        <ele>1209.84</ele>
        <time>2018-09-09T10:54:05Z</time>
      </trkpt>
      <trkpt lat="45.22551" lon="6.76904">
        <ele>1211.54</ele>
        <time>2018-09-09T10:54:06Z</time>
      </trkpt>
      <trkpt lat="45.22558" lon="6.76937">
        <ele>1212.75</ele>
        <time>2018-09-09T10:54:07Z</time>
      </trkpt>
      <trkpt lat="45.22566" lon="6.7697">
        <ele>1213.12</ele>
        <time>2018-09-09T10:54:08Z</time>
      </trkpt>
      <trkpt lat="45.22573" lon="6.77003">
        <ele>1214.62</ele>
        <time>2018-09-09T10:54:09Z</time>
      </trkpt>
      <trkpt lat="45.2258" lon="6.77036">
        <ele>1215.78</ele>
        <time>2018-09-09T10:54:10Z</time>
      </trkpt>
      <trkpt lat="45.22587" lon="6.77069">
        <ele>1216.12</ele>
        <time>2018-09-09T10:54:11Z</time>
      </trkpt>
      <trkpt lat="45.22595" lon="6.77103">
        <ele>1216.93</ele>
        <time>2018-09-09T10:54:12Z</time>
      </trkpt>
      <trkpt lat="45.22602" lon="6.77136">
        <ele>1217.87</ele>
        <time>2018-09-09T10:54:13Z</time>
      </trkpt>
      <trkpt lat="45.2261" lon="6.77169">
        <ele>1218.85</ele>
        <time>2018-09-09T10:54:14Z</time>
      </trkpt>
      <trkpt lat="45.22617" lon="6.77201">
        <ele>1219.14</ele>
        <time>2018-09-09T10:54:15Z</time>
      </trkpt>
      <trkpt lat="45.22624" lon="6.77233">
        <ele>1220.63</ele>
        <time>2018-09-09T10:54:16Z</time>
      </trkpt>
      <trkpt lat="45.22631" lon="6.77264">
        <ele>1221.78</ele>
        <time>2018-09-09T10:54:17Z</time>
      </trkpt>
      <trkpt lat="45.22638" lon="6.77292">
        <ele>1222.12</ele>
        <time>2018-09-09T10:54:18Z</time>
      </trkpt>
      <trkpt lat="45.22647" lon="6.77318">
        <ele>1222.93</ele>
        <time>2018-09-09T10:54:19Z</time>
      </trkpt>
      <trkpt lat="45.22657" lon="6.77345">
        <ele>1223.87</ele>
        <time>2018-09-09T10:54:20Z</time>
      </trkpt>
      <trkpt lat="45.22668" lon="6.77369">
        <ele>1224.15</ele>
        <time>2018-09-09T10:54:21Z</time>
      </trkpt>
      <trkpt lat="45.22679" lon="6.77391">
        <ele>1224.23</ele>
        <time>2018-09-09T10:54:22Z</time>
      </trkpt>
      <trkpt lat="45.22697" lon="6.7743">
        <ele>1225.18</ele>
        <time>2018-09-09T10:54:24Z</time>
      </trkpt>
      <trkpt lat="45.22714" lon="6.77463">
        <ele>1226.17</ele>
        <time>2018-09-09T10:54:26Z</time>
      </trkpt>
      <trkpt lat="45.22729" lon="6.77493">
        <ele>1226.05</ele>
        <time>2018-09-09T10:54:28Z</time>
      </trkpt>
      <trkpt lat="45.22742" lon="6.77526">
        <ele>1225.34</ele>
        <time>2018-09-09T10:54:30Z</time>
      </trkpt>
      <trkpt lat="45.22755" lon="6.77554">
        <ele>1225.28</ele>
        <time>2018-09-09T10:54:32Z</time>
      </trkpt>
      <trkpt lat="45.22769" lon="6.77571">
        <ele>1223.3</ele>
        <time>2018-09-09T10:54:41Z</time>
      </trkpt>
      <trkpt lat="45.22757" lon="6.77542">
        <ele>1223.27</ele>
        <time>2018-09-09T10:54:46Z</time>
      </trkpt>
      <trkpt lat="45.22744" lon="6.77516">
        <ele>1223.27</ele>
        <time>2018-09-09T10:54:48Z</time>
      </trkpt>
      <trkpt lat="45.22732" lon="6.77491">
        <ele>1223.97</ele>
        <time>2018-09-09T10:54:50Z</time>
      </trkpt>
      <trkpt lat="45.22717" lon="6.77466">
        <ele>1224.26</ele>
        <time>2018-09-09T10:54:53Z</time>
      </trkpt>
      <trkpt lat="45.22701" lon="6.77447">
        <ele>1223.28</ele>
        <time>2018-09-09T10:54:57Z</time>
      </trkpt>
      <trkpt lat="45.22689" lon="6.77467">
        <ele>1224.18</ele>
        <time>2018-09-09T10:55:02Z</time>
      </trkpt>
      <trkpt lat="45.22711" lon="6.77463">
        <ele>1221.58</ele>
        <time>2018-09-09T10:55:36Z</time>
      </trkpt>
      <trkpt lat="45.22729" lon="6.77495">
        <ele>1223.16</ele>
        <time>2018-09-09T10:55:39Z</time>
      </trkpt>
      <trkpt lat="45.22745" lon="6.77527">
        <ele>1223.26</ele>
        <time>2018-09-09T10:55:41Z</time>
      </trkpt>
      <trkpt lat="45.22761" lon="6.7756">
        <ele>1223.27</ele>
        <time>2018-09-09T10:55:43Z</time>
      </trkpt>
      <trkpt lat="45.22779" lon="6.77596">
        <ele>1223.27</ele>
        <time>2018-09-09T10:55:45Z</time>
      </trkpt>
      <trkpt lat="45.22797" lon="6.77632">
        <ele>1222.36</ele>
        <time>2018-09-09T10:55:47Z</time>
      </trkpt>
      <trkpt lat="45.22815" lon="6.7767">
        <ele>1222.28</ele>
        <time>2018-09-09T10:55:49Z</time>
      </trkpt>
      <trkpt lat="45.22833" lon="6.77706">
        <ele>1223.18</ele>
        <time>2018-09-09T10:55:51Z</time>
      </trkpt>
      <trkpt lat="45.22852" lon="6.77741">
        <ele>1223.05</ele>
        <time>2018-09-09T10:55:53Z</time>
      </trkpt>
      <trkpt lat="45.2287" lon="6.77779">
        <ele>1222.55</ele>
        <time>2018-09-09T10:55:55Z</time>
      </trkpt>
      <trkpt lat="45.22891" lon="6.77816">
        <ele>1221.6</ele>
        <time>2018-09-09T10:55:57Z</time>
      </trkpt>
      <trkpt lat="45.22909" lon="6.77855">
        <ele>1219.69</ele>
        <time>2018-09-09T10:55:59Z</time>
      </trkpt>
      <trkpt lat="45.22928" lon="6.77894">
        <ele>1219.52</ele>
        <time>2018-09-09T10:56:01Z</time>
      </trkpt>
      <trkpt lat="45.22947" lon="6.77933">
        <ele>1219.99</ele>
        <time>2018-09-09T10:56:03Z</time>
      </trkpt>
      <trkpt lat="45.22967" lon="6.77973">
        <ele>1220.25</ele>
        <time>2018-09-09T10:56:05Z</time>
      </trkpt>
      <trkpt lat="45.22987" lon="6.78013">
        <ele>1219.57</ele>
        <time>2018-09-09T10:56:07Z</time>
      </trkpt>
      <trkpt lat="45.23006" lon="6.78051">
        <ele>1220</ele>
        <time>2018-09-09T10:56:09Z</time>
      </trkpt>
      <trkpt lat="45.23024" lon="6.7809">
        <ele>1219.55</ele>
        <time>2018-09-09T10:56:11Z</time>
      </trkpt>
      <trkpt lat="45.23044" lon="6.78123">
        <ele>1219.3</ele>
        <time>2018-09-09T10:56:13Z</time>
      </trkpt>
      <trkpt lat="45.23063" lon="6.78151">
        <ele>1219.27</ele>
        <time>2018-09-09T10:56:15Z</time>
      </trkpt>
      <trkpt lat="45.23078" lon="6.78181">
        <ele>1219.27</ele>
        <time>2018-09-09T10:56:17Z</time>
      </trkpt>
      <trkpt lat="45.23088" lon="6.78209">
        <ele>1219.27</ele>
        <time>2018-09-09T10:56:19Z</time>
      </trkpt>
      <trkpt lat="45.23099" lon="6.78234">
        <ele>1219.97</ele>
        <time>2018-09-09T10:56:21Z</time>
      </trkpt>
      <trkpt lat="45.23114" lon="6.78261">
        <ele>1220.24</ele>
        <time>2018-09-09T10:56:23Z</time>
      </trkpt>
      <trkpt lat="45.23129" lon="6.78296">
        <ele>1219.36</ele>
        <time>2018-09-09T10:56:25Z</time>
      </trkpt>
      <trkpt lat="45.23144" lon="6.78329">
        <ele>1219.28</ele>
        <time>2018-09-09T10:56:27Z</time>
      </trkpt>
      <trkpt lat="45.23157" lon="6.7836">
        <ele>1219.27</ele>
        <time>2018-09-09T10:56:29Z</time>
      </trkpt>
      <trkpt lat="45.23172" lon="6.78389">
        <ele>1219.27</ele>
        <time>2018-09-09T10:56:31Z</time>
      </trkpt>
      <trkpt lat="45.23186" lon="6.78417">
        <ele>1219.27</ele>
        <time>2018-09-09T10:56:33Z</time>
      </trkpt>
      <trkpt lat="45.23198" lon="6.78444">
        <ele>1219.27</ele>
        <time>2018-09-09T10:56:35Z</time>
      </trkpt>
      <trkpt lat="45.23209" lon="6.78467">
        <ele>1220.18</ele>
        <time>2018-09-09T10:56:37Z</time>
      </trkpt>
      <trkpt lat="45.2322" lon="6.78488">
        <ele>1220.26</ele>
        <time>2018-09-09T10:56:39Z</time>
      </trkpt>
      <trkpt lat="45.23233" lon="6.78513">
        <ele>1219.36</ele>
        <time>2018-09-09T10:56:41Z</time>
      </trkpt>
      <trkpt lat="45.23248" lon="6.78542">
        <ele>1219.28</ele>
        <time>2018-09-09T10:56:43Z</time>
      </trkpt>
      <trkpt lat="45.23264" lon="6.78571">
        <ele>1219.27</ele>
        <time>2018-09-09T10:56:45Z</time>
      </trkpt>
      <trkpt lat="45.23281" lon="6.78597">
        <ele>1220.18</ele>
        <time>2018-09-09T10:56:47Z</time>
      </trkpt>
      <trkpt lat="45.23299" lon="6.78623">
        <ele>1220.26</ele>
        <time>2018-09-09T10:56:49Z</time>
      </trkpt>
      <trkpt lat="45.23321" lon="6.78649">
        <ele>1221.18</ele>
        <time>2018-09-09T10:56:51Z</time>
      </trkpt>
      <trkpt lat="45.23348" lon="6.78677">
        <ele>1221.26</ele>
        <time>2018-09-09T10:56:53Z</time>
      </trkpt>
      <trkpt lat="45.23378" lon="6.78704">
        <ele>1221.27</ele>
        <time>2018-09-09T10:56:55Z</time>
      </trkpt>
      <trkpt lat="45.23395" lon="6.78718">
        <ele>1221.97</ele>
        <time>2018-09-09T10:56:56Z</time>
      </trkpt>
      <trkpt lat="45.23412" lon="6.78731">
        <ele>1222.18</ele>
        <time>2018-09-09T10:56:57Z</time>
      </trkpt>
      <trkpt lat="45.23429" lon="6.78743">
        <ele>1222.24</ele>
        <time>2018-09-09T10:56:58Z</time>
      </trkpt>
      <trkpt lat="45.23448" lon="6.78755">
        <ele>1222.26</ele>
        <time>2018-09-09T10:56:59Z</time>
      </trkpt>
      <trkpt lat="45.23467" lon="6.78768">
        <ele>1222.27</ele>
        <time>2018-09-09T10:57:00Z</time>
      </trkpt>
      <trkpt lat="45.23486" lon="6.78781">
        <ele>1222.97</ele>
        <time>2018-09-09T10:57:01Z</time>
      </trkpt>
      <trkpt lat="45.23505" lon="6.78794">
        <ele>1223.18</ele>
        <time>2018-09-09T10:57:02Z</time>
      </trkpt>
      <trkpt lat="45.23525" lon="6.78807">
        <ele>1223.24</ele>
        <time>2018-09-09T10:57:03Z</time>
      </trkpt>
      <trkpt lat="45.23546" lon="6.78821">
        <ele>1223.26</ele>
        <time>2018-09-09T10:57:04Z</time>
      </trkpt>
      <trkpt lat="45.23566" lon="6.78835">
        <ele>1223.27</ele>
        <time>2018-09-09T10:57:05Z</time>
      </trkpt>
      <trkpt lat="45.23587" lon="6.7885">
        <ele>1223.27</ele>
        <time>2018-09-09T10:57:06Z</time>
      </trkpt>
      <trkpt lat="45.23608" lon="6.78865">
        <ele>1223.27</ele>
        <time>2018-09-09T10:57:07Z</time>
      </trkpt>
      <trkpt lat="45.23629" lon="6.78881">
        <ele>1223.97</ele>
        <time>2018-09-09T10:57:08Z</time>
      </trkpt>
      <trkpt lat="45.23649" lon="6.78898">
        <ele>1224.18</ele>
        <time>2018-09-09T10:57:09Z</time>
      </trkpt>
      <trkpt lat="45.23668" lon="6.78915">
        <ele>1224.24</ele>
        <time>2018-09-09T10:57:10Z</time>
      </trkpt>
      <trkpt lat="45.23687" lon="6.78934">
        <ele>1224.96</ele>
        <time>2018-09-09T10:57:11Z</time>
      </trkpt>
      <trkpt lat="45.23705" lon="6.78953">
        <ele>1225.18</ele>
        <time>2018-09-09T10:57:12Z</time>
      </trkpt>
      <trkpt lat="45.23724" lon="6.78973">
        <ele>1225.24</ele>
        <time>2018-09-09T10:57:13Z</time>
      </trkpt>
      <trkpt lat="45.23743" lon="6.78992">
        <ele>1225.96</ele>
        <time>2018-09-09T10:57:14Z</time>
      </trkpt>
      <trkpt lat="45.23763" lon="6.79012">
        <ele>1226.18</ele>
        <time>2018-09-09T10:57:15Z</time>
      </trkpt>
      <trkpt lat="45.23783" lon="6.79033">
        <ele>1226.24</ele>
        <time>2018-09-09T10:57:16Z</time>
      </trkpt>
      <trkpt lat="45.23803" lon="6.79054">
        <ele>1226.26</ele>
        <time>2018-09-09T10:57:17Z</time>
      </trkpt>
      <trkpt lat="45.23823" lon="6.79075">
        <ele>1226.27</ele>
        <time>2018-09-09T10:57:18Z</time>
      </trkpt>
      <trkpt lat="45.23846" lon="6.79098">
        <ele>1226.27</ele>
        <time>2018-09-09T10:57:19Z</time>
      </trkpt>
      <trkpt lat="45.23869" lon="6.79122">
        <ele>1226.27</ele>
        <time>2018-09-09T10:57:20Z</time>
      </trkpt>
      <trkpt lat="45.23893" lon="6.79147">
        <ele>1226.27</ele>
        <time>2018-09-09T10:57:21Z</time>
      </trkpt>
      <trkpt lat="45.23918" lon="6.79172">
        <ele>1226.27</ele>
        <time>2018-09-09T10:57:22Z</time>
      </trkpt>
      <trkpt lat="45.23942" lon="6.79196">
        <ele>1226.97</ele>
        <time>2018-09-09T10:57:23Z</time>
      </trkpt>
      <trkpt lat="45.23965" lon="6.79219">
        <ele>1227.18</ele>
        <time>2018-09-09T10:57:24Z</time>
      </trkpt>
      <trkpt lat="45.23987" lon="6.79242">
        <ele>1227.24</ele>
        <time>2018-09-09T10:57:25Z</time>
      </trkpt>
      <trkpt lat="45.24009" lon="6.79261">
        <ele>1227.26</ele>
        <time>2018-09-09T10:57:26Z</time>
      </trkpt>
      <trkpt lat="45.24031" lon="6.79278">
        <ele>1227.27</ele>
        <time>2018-09-09T10:57:27Z</time>
      </trkpt>
      <trkpt lat="45.24055" lon="6.79289">
        <ele>1227.97</ele>
        <time>2018-09-09T10:57:28Z</time>
      </trkpt>
      <trkpt lat="45.2408" lon="6.79296">
        <ele>1228.18</ele>
        <time>2018-09-09T10:57:29Z</time>
      </trkpt>
      <trkpt lat="45.24106" lon="6.79297">
        <ele>1228.94</ele>
        <time>2018-09-09T10:57:30Z</time>
      </trkpt>
      <trkpt lat="45.2413" lon="6.79293">
        <ele>1229.17</ele>
        <time>2018-09-09T10:57:31Z</time>
      </trkpt>
      <trkpt lat="45.24155" lon="6.79285">
        <ele>1229.24</ele>
        <time>2018-09-09T10:57:32Z</time>
      </trkpt>
      <trkpt lat="45.2418" lon="6.79274">
        <ele>1229.96</ele>
        <time>2018-09-09T10:57:33Z</time>
      </trkpt>
      <trkpt lat="45.24204" lon="6.79262">
        <ele>1230.88</ele>
        <time>2018-09-09T10:57:34Z</time>
      </trkpt>
      <trkpt lat="45.24227" lon="6.79252">
        <ele>1231.15</ele>
        <time>2018-09-09T10:57:35Z</time>
      </trkpt>
      <trkpt lat="45.24249" lon="6.79242">
        <ele>1231.94</ele>
        <time>2018-09-09T10:57:36Z</time>
      </trkpt>
      <trkpt lat="45.24273" lon="6.79237">
        <ele>1232.17</ele>
        <time>2018-09-09T10:57:37Z</time>
      </trkpt>
      <trkpt lat="45.24296" lon="6.79233">
        <ele>1232.24</ele>
        <time>2018-09-09T10:57:38Z</time>
      </trkpt>
      <trkpt lat="45.2432" lon="6.79233">
        <ele>1232.26</ele>
        <time>2018-09-09T10:57:39Z</time>
      </trkpt>
      <trkpt lat="45.24345" lon="6.79237">
        <ele>1232.27</ele>
        <time>2018-09-09T10:57:40Z</time>
      </trkpt>
      <trkpt lat="45.24369" lon="6.79249">
        <ele>1232.97</ele>
        <time>2018-09-09T10:57:41Z</time>
      </trkpt>
      <trkpt lat="45.24389" lon="6.79267">
        <ele>1233.88</ele>
        <time>2018-09-09T10:57:42Z</time>
      </trkpt>
      <trkpt lat="45.2441" lon="6.79289">
        <ele>1234.15</ele>
        <time>2018-09-09T10:57:43Z</time>
      </trkpt>
      <trkpt lat="45.24428" lon="6.79312">
        <ele>1234.24</ele>
        <time>2018-09-09T10:57:44Z</time>
      </trkpt>
      <trkpt lat="45.24442" lon="6.79345">
        <ele>1234.96</ele>
        <time>2018-09-09T10:57:45Z</time>
      </trkpt>
      <trkpt lat="45.24448" lon="6.7938">
        <ele>1235.88</ele>
        <time>2018-09-09T10:57:46Z</time>
      </trkpt>
      <trkpt lat="45.24461" lon="6.79408">
        <ele>1236.15</ele>
        <time>2018-09-09T10:57:47Z</time>
      </trkpt>
      <trkpt lat="45.24472" lon="6.79438">
        <ele>1236.94</ele>
        <time>2018-09-09T10:57:48Z</time>
      </trkpt>
      <trkpt lat="45.24482" lon="6.79469">
        <ele>1236.47</ele>
        <time>2018-09-09T10:57:49Z</time>
      </trkpt>
      <trkpt lat="45.24494" lon="6.79498">
        <ele>1236.33</ele>
        <time>2018-09-09T10:57:50Z</time>
      </trkpt>
      <trkpt lat="45.24504" lon="6.79527">
        <ele>1236.99</ele>
        <time>2018-09-09T10:57:51Z</time>
      </trkpt>
      <trkpt lat="45.24516" lon="6.79556">
        <ele>1237.19</ele>
        <time>2018-09-09T10:57:52Z</time>
      </trkpt>
      <trkpt lat="45.24528" lon="6.79582">
        <ele>1237.95</ele>
        <time>2018-09-09T10:57:53Z</time>
      </trkpt>
      <trkpt lat="45.24538" lon="6.79606">
        <ele>1238.17</ele>
        <time>2018-09-09T10:57:54Z</time>
      </trkpt>
      <trkpt lat="45.2455" lon="6.79626">
        <ele>1238.94</ele>
        <time>2018-09-09T10:57:55Z</time>
      </trkpt>
      <trkpt lat="45.24566" lon="6.79642">
        <ele>1240.57</ele>
        <time>2018-09-09T10:57:56Z</time>
      </trkpt>
      <trkpt lat="45.2458" lon="6.79659">
        <ele>1241.06</ele>
        <time>2018-09-09T10:57:57Z</time>
      </trkpt>
      <trkpt lat="45.24595" lon="6.79674">
        <ele>1241.21</ele>
        <time>2018-09-09T10:57:58Z</time>
      </trkpt>
      <trkpt lat="45.24613" lon="6.79686">
        <ele>1241.25</ele>
        <time>2018-09-09T10:57:59Z</time>
      </trkpt>
      <trkpt lat="45.24632" lon="6.79695">
        <ele>1241.27</ele>
        <time>2018-09-09T10:58:00Z</time>
      </trkpt>
      <trkpt lat="45.24653" lon="6.79703">
        <ele>1241.27</ele>
        <time>2018-09-09T10:58:01Z</time>
      </trkpt>
      <trkpt lat="45.24679" lon="6.79709">
        <ele>1241.97</ele>
        <time>2018-09-09T10:58:02Z</time>
      </trkpt>
      <trkpt lat="45.24703" lon="6.79717">
        <ele>1242.88</ele>
        <time>2018-09-09T10:58:03Z</time>
      </trkpt>
      <trkpt lat="45.24725" lon="6.79725">
        <ele>1243.15</ele>
        <time>2018-09-09T10:58:04Z</time>
      </trkpt>
      <trkpt lat="45.24747" lon="6.79733">
        <ele>1243.94</ele>
        <time>2018-09-09T10:58:05Z</time>
      </trkpt>
      <trkpt lat="45.24769" lon="6.79741">
        <ele>1244.17</ele>
        <time>2018-09-09T10:58:06Z</time>
      </trkpt>
      <trkpt lat="45.24792" lon="6.79748">
        <ele>1244.94</ele>
        <time>2018-09-09T10:58:07Z</time>
      </trkpt>
      <trkpt lat="45.24815" lon="6.79755">
        <ele>1245.87</ele>
        <time>2018-09-09T10:58:08Z</time>
      </trkpt>
      <trkpt lat="45.24838" lon="6.79763">
        <ele>1246.15</ele>
        <time>2018-09-09T10:58:09Z</time>
      </trkpt>
      <trkpt lat="45.24862" lon="6.7977">
        <ele>1246.94</ele>
        <time>2018-09-09T10:58:10Z</time>
      </trkpt>
      <trkpt lat="45.24886" lon="6.79777">
        <ele>1247.17</ele>
        <time>2018-09-09T10:58:11Z</time>
      </trkpt>
      <trkpt lat="45.2491" lon="6.79785">
        <ele>1247.94</ele>
        <time>2018-09-09T10:58:12Z</time>
      </trkpt>
      <trkpt lat="45.24933" lon="6.79792">
        <ele>1248.17</ele>
        <time>2018-09-09T10:58:13Z</time>
      </trkpt>
      <trkpt lat="45.24956" lon="6.79799">
        <ele>1248.24</ele>
        <time>2018-09-09T10:58:14Z</time>
      </trkpt>
      <trkpt lat="45.2498" lon="6.79804">
        <ele>1248.26</ele>
        <time>2018-09-09T10:58:15Z</time>
      </trkpt>
      <trkpt lat="45.25004" lon="6.79806">
        <ele>1248.79</ele>
        <time>2018-09-09T10:58:16Z</time>
      </trkpt>
      <trkpt lat="45.25028" lon="6.79804">
        <ele>1248.95</ele>
        <time>2018-09-09T10:58:17Z</time>
      </trkpt>
      <trkpt lat="45.25051" lon="6.79799">
        <ele>1249.69</ele>
        <time>2018-09-09T10:58:18Z</time>
      </trkpt>
      <trkpt lat="45.25073" lon="6.7979">
        <ele>1249.92</ele>
        <time>2018-09-09T10:58:19Z</time>
      </trkpt>
      <trkpt lat="45.25096" lon="6.79778">
        <ele>1249.29</ele>
        <time>2018-09-09T10:58:20Z</time>
      </trkpt>
      <trkpt lat="45.25117" lon="6.79764">
        <ele>1248.4</ele>
        <time>2018-09-09T10:58:21Z</time>
      </trkpt>
      <trkpt lat="45.25138" lon="6.79749">
        <ele>1248.13</ele>
        <time>2018-09-09T10:58:22Z</time>
      </trkpt>
      <trkpt lat="45.2516" lon="6.79732">
        <ele>1248.05</ele>
        <time>2018-09-09T10:58:23Z</time>
      </trkpt>
      <trkpt lat="45.25181" lon="6.79717">
        <ele>1248.03</ele>
        <time>2018-09-09T10:58:24Z</time>
      </trkpt>
      <trkpt lat="45.25202" lon="6.79702">
        <ele>1248.72</ele>
        <time>2018-09-09T10:58:25Z</time>
      </trkpt>
      <trkpt lat="45.25223" lon="6.7969">
        <ele>1248.93</ele>
        <time>2018-09-09T10:58:26Z</time>
      </trkpt>
      <trkpt lat="45.25246" lon="6.7968">
        <ele>1248.99</ele>
        <time>2018-09-09T10:58:27Z</time>
      </trkpt>
      <trkpt lat="45.25268" lon="6.79674">
        <ele>1249.01</ele>
        <time>2018-09-09T10:58:28Z</time>
      </trkpt>
      <trkpt lat="45.25291" lon="6.79669">
        <ele>1248.31</ele>
        <time>2018-09-09T10:58:29Z</time>
      </trkpt>
      <trkpt lat="45.25314" lon="6.79668">
        <ele>1248.1</ele>
        <time>2018-09-09T10:58:30Z</time>
      </trkpt>
      <trkpt lat="45.25337" lon="6.7967">
        <ele>1248.74</ele>
        <time>2018-09-09T10:58:31Z</time>
      </trkpt>
      <trkpt lat="45.25361" lon="6.79672">
        <ele>1248.93</ele>
        <time>2018-09-09T10:58:32Z</time>
      </trkpt>
      <trkpt lat="45.25383" lon="6.79678">
        <ele>1248.99</ele>
        <time>2018-09-09T10:58:33Z</time>
      </trkpt>
      <trkpt lat="45.25405" lon="6.79685">
        <ele>1249.71</ele>
        <time>2018-09-09T10:58:34Z</time>
      </trkpt>
      <trkpt lat="45.25424" lon="6.79704">
        <ele>1249.92</ele>
        <time>2018-09-09T10:58:35Z</time>
      </trkpt>
      <trkpt lat="45.25445" lon="6.79717">
        <ele>1250.69</ele>
        <time>2018-09-09T10:58:36Z</time>
      </trkpt>
      <trkpt lat="45.25465" lon="6.79732">
        <ele>1250.92</ele>
        <time>2018-09-09T10:58:37Z</time>
      </trkpt>
      <trkpt lat="45.25485" lon="6.79747">
        <ele>1250.99</ele>
        <time>2018-09-09T10:58:38Z</time>
      </trkpt>
      <trkpt lat="45.25505" lon="6.79763">
        <ele>1251.71</ele>
        <time>2018-09-09T10:58:39Z</time>
      </trkpt>
      <trkpt lat="45.25525" lon="6.7978">
        <ele>1251.92</ele>
        <time>2018-09-09T10:58:40Z</time>
      </trkpt>
      <trkpt lat="45.25545" lon="6.79795">
        <ele>1251.29</ele>
        <time>2018-09-09T10:58:41Z</time>
      </trkpt>
      <trkpt lat="45.25565" lon="6.79811">
        <ele>1251.1</ele>
        <time>2018-09-09T10:58:42Z</time>
      </trkpt>
      <trkpt lat="45.25586" lon="6.79826">
        <ele>1252.44</ele>
        <time>2018-09-09T10:58:43Z</time>
      </trkpt>
      <trkpt lat="45.25606" lon="6.79842">
        <ele>1252.14</ele>
        <time>2018-09-09T10:58:44Z</time>
      </trkpt>
      <trkpt lat="45.25626" lon="6.79857">
        <ele>1252.05</ele>
        <time>2018-09-09T10:58:45Z</time>
      </trkpt>
      <trkpt lat="45.25646" lon="6.79873">
        <ele>1251.33</ele>
        <time>2018-09-09T10:58:46Z</time>
      </trkpt>
      <trkpt lat="45.25667" lon="6.79888">
        <ele>1251.81</ele>
        <time>2018-09-09T10:58:47Z</time>
      </trkpt>
      <trkpt lat="45.25687" lon="6.79904">
        <ele>1251.95</ele>
        <time>2018-09-09T10:58:48Z</time>
      </trkpt>
      <trkpt lat="45.25708" lon="6.7992">
        <ele>1252</ele>
        <time>2018-09-09T10:58:49Z</time>
      </trkpt>
      <trkpt lat="45.25728" lon="6.79936">
        <ele>1252.71</ele>
        <time>2018-09-09T10:58:50Z</time>
      </trkpt>
      <trkpt lat="45.25748" lon="6.79951">
        <ele>1252.92</ele>
        <time>2018-09-09T10:58:51Z</time>
      </trkpt>
      <trkpt lat="45.25768" lon="6.79967">
        <ele>1252.99</ele>
        <time>2018-09-09T10:58:52Z</time>
      </trkpt>
      <trkpt lat="45.25789" lon="6.79981">
        <ele>1252.31</ele>
        <time>2018-09-09T10:58:53Z</time>
      </trkpt>
      <trkpt lat="45.2581" lon="6.79994">
        <ele>1252.8</ele>
        <time>2018-09-09T10:58:54Z</time>
      </trkpt>
      <trkpt lat="45.25831" lon="6.80007">
        <ele>1252.95</ele>
        <time>2018-09-09T10:58:55Z</time>
      </trkpt>
      <trkpt lat="45.25853" lon="6.8002">
        <ele>1252.3</ele>
        <time>2018-09-09T10:58:56Z</time>
      </trkpt>
      <trkpt lat="45.25875" lon="6.80031">
        <ele>1252.1</ele>
        <time>2018-09-09T10:58:57Z</time>
      </trkpt>
      <trkpt lat="45.25898" lon="6.80042">
        <ele>1252.04</ele>
        <time>2018-09-09T10:58:58Z</time>
      </trkpt>
      <trkpt lat="45.2592" lon="6.8005">
        <ele>1252.02</ele>
        <time>2018-09-09T10:58:59Z</time>
      </trkpt>
      <trkpt lat="45.25942" lon="6.8006">
        <ele>1252.02</ele>
        <time>2018-09-09T10:59:00Z</time>
      </trkpt>
      <trkpt lat="45.25964" lon="6.8007">
        <ele>1252.02</ele>
        <time>2018-09-09T10:59:01Z</time>
      </trkpt>
      <trkpt lat="45.25986" lon="6.80077">
        <ele>1252.02</ele>
        <time>2018-09-09T10:59:02Z</time>
      </trkpt>
      <trkpt lat="45.26008" lon="6.80085">
        <ele>1252.72</ele>
        <time>2018-09-09T10:59:03Z</time>
      </trkpt>
      <trkpt lat="45.26029" lon="6.80092">
        <ele>1252.93</ele>
        <time>2018-09-09T10:59:04Z</time>
      </trkpt>
      <trkpt lat="45.26049" lon="6.801">
        <ele>1253.69</ele>
        <time>2018-09-09T10:59:05Z</time>
      </trkpt>
      <trkpt lat="45.26069" lon="6.80109">
        <ele>1254.62</ele>
        <time>2018-09-09T10:59:06Z</time>
      </trkpt>
      <trkpt lat="45.26088" lon="6.8012">
        <ele>1254.9</ele>
        <time>2018-09-09T10:59:07Z</time>
      </trkpt>
      <trkpt lat="45.26107" lon="6.80134">
        <ele>1255.68</ele>
        <time>2018-09-09T10:59:08Z</time>
      </trkpt>
      <trkpt lat="45.26123" lon="6.8015">
        <ele>1255.91</ele>
        <time>2018-09-09T10:59:09Z</time>
      </trkpt>
      <trkpt lat="45.26139" lon="6.80168">
        <ele>1256.68</ele>
        <time>2018-09-09T10:59:10Z</time>
      </trkpt>
      <trkpt lat="45.26153" lon="6.80188">
        <ele>1256.92</ele>
        <time>2018-09-09T10:59:11Z</time>
      </trkpt>
      <trkpt lat="45.26166" lon="6.80209">
        <ele>1257.69</ele>
        <time>2018-09-09T10:59:12Z</time>
      </trkpt>
      <trkpt lat="45.26178" lon="6.80233">
        <ele>1258.62</ele>
        <time>2018-09-09T10:59:13Z</time>
      </trkpt>
      <trkpt lat="45.26189" lon="6.80259">
        <ele>1258.9</ele>
        <time>2018-09-09T10:59:14Z</time>
      </trkpt>
      <trkpt lat="45.26197" lon="6.80286">
        <ele>1259.68</ele>
        <time>2018-09-09T10:59:15Z</time>
      </trkpt>
      <trkpt lat="45.26204" lon="6.80315">
        <ele>1260.61</ele>
        <time>2018-09-09T10:59:16Z</time>
      </trkpt>
      <trkpt lat="45.2621" lon="6.80344">
        <ele>1261.59</ele>
        <time>2018-09-09T10:59:17Z</time>
      </trkpt>
      <trkpt lat="45.26216" lon="6.80373">
        <ele>1261.19</ele>
        <time>2018-09-09T10:59:18Z</time>
      </trkpt>
      <trkpt lat="45.26222" lon="6.80403">
        <ele>1261.77</ele>
        <time>2018-09-09T10:59:19Z</time>
      </trkpt>
      <trkpt lat="45.26229" lon="6.80432">
        <ele>1261.94</ele>
        <time>2018-09-09T10:59:20Z</time>
      </trkpt>
      <trkpt lat="45.26235" lon="6.80461">
        <ele>1262.69</ele>
        <time>2018-09-09T10:59:21Z</time>
      </trkpt>
      <trkpt lat="45.26241" lon="6.8049">
        <ele>1263.62</ele>
        <time>2018-09-09T10:59:22Z</time>
      </trkpt>
      <trkpt lat="45.26245" lon="6.80519">
        <ele>1263.9</ele>
        <time>2018-09-09T10:59:23Z</time>
      </trkpt>
      <trkpt lat="45.26247" lon="6.80549">
        <ele>1263.98</ele>
        <time>2018-09-09T10:59:24Z</time>
      </trkpt>
      <trkpt lat="45.26246" lon="6.80578">
        <ele>1264.7</ele>
        <time>2018-09-09T10:59:25Z</time>
      </trkpt>
      <trkpt lat="45.26243" lon="6.80606">
        <ele>1264.92</ele>
        <time>2018-09-09T10:59:26Z</time>
      </trkpt>
      <trkpt lat="45.2624" lon="6.80631">
        <ele>1264.99</ele>
        <time>2018-09-09T10:59:27Z</time>
      </trkpt>
      <trkpt lat="45.26237" lon="6.80679">
        <ele>1265.01</ele>
        <time>2018-09-09T10:59:29Z</time>
      </trkpt>
      <trkpt lat="45.26241" lon="6.80721">
        <ele>1265.71</ele>
        <time>2018-09-09T10:59:31Z</time>
      </trkpt>
      <trkpt lat="45.26252" lon="6.80764">
        <ele>1266.69</ele>
        <time>2018-09-09T10:59:33Z</time>
      </trkpt>
      <trkpt lat="45.26258" lon="6.80807">
        <ele>1266.99</ele>
        <time>2018-09-09T10:59:35Z</time>
      </trkpt>
      <trkpt lat="45.26258" lon="6.80852">
        <ele>1267.01</ele>
        <time>2018-09-09T10:59:37Z</time>
      </trkpt>
      <trkpt lat="45.26261" lon="6.80895">
        <ele>1267.22</ele>
        <time>2018-09-09T10:59:39Z</time>
      </trkpt>
      <trkpt lat="45.26272" lon="6.80933">
        <ele>1267.73</ele>
        <time>2018-09-09T10:59:41Z</time>
      </trkpt>
      <trkpt lat="45.26285" lon="6.80968">
        <ele>1267.99</ele>
        <time>2018-09-09T10:59:43Z</time>
      </trkpt>
      <trkpt lat="45.26295" lon="6.81002">
        <ele>1268.92</ele>
        <time>2018-09-09T10:59:45Z</time>
      </trkpt>
      <trkpt lat="45.26306" lon="6.81032">
        <ele>1269.01</ele>
        <time>2018-09-09T10:59:47Z</time>
      </trkpt>
      <trkpt lat="45.26313" lon="6.81061">
        <ele>1269.01</ele>
        <time>2018-09-09T10:59:50Z</time>
      </trkpt>
      <trkpt lat="45.26328" lon="6.81086">
        <ele>1268.33</ele>
        <time>2018-09-09T11:00:26Z</time>
      </trkpt>
      <trkpt lat="45.26341" lon="6.81105">
        <ele>1268.74</ele>
        <time>2018-09-09T11:00:28Z</time>
      </trkpt>
      <trkpt lat="45.2636" lon="6.81125">
        <ele>1268.99</ele>
        <time>2018-09-09T11:00:30Z</time>
      </trkpt>
      <trkpt lat="45.26386" lon="6.81144">
        <ele>1269.71</ele>
        <time>2018-09-09T11:00:32Z</time>
      </trkpt>
      <trkpt lat="45.26415" lon="6.81166">
        <ele>1269.99</ele>
        <time>2018-09-09T11:00:34Z</time>
      </trkpt>
      <trkpt lat="45.26444" lon="6.81188">
        <ele>1270.01</ele>
        <time>2018-09-09T11:00:36Z</time>
      </trkpt>
      <trkpt lat="45.26474" lon="6.8121">
        <ele>1270.01</ele>
        <time>2018-09-09T11:00:38Z</time>
      </trkpt>
      <trkpt lat="45.2649" lon="6.81223">
        <ele>1270.01</ele>
        <time>2018-09-09T11:00:39Z</time>
      </trkpt>
      <trkpt lat="45.26522" lon="6.81247">
        <ele>1270.02</ele>
        <time>2018-09-09T11:00:41Z</time>
      </trkpt>
      <trkpt lat="45.26538" lon="6.8126">
        <ele>1270.02</ele>
        <time>2018-09-09T11:00:42Z</time>
      </trkpt>
      <trkpt lat="45.2657" lon="6.81285">
        <ele>1270.93</ele>
        <time>2018-09-09T11:00:44Z</time>
      </trkpt>
      <trkpt lat="45.26587" lon="6.81299">
        <ele>1270.99</ele>
        <time>2018-09-09T11:00:45Z</time>
      </trkpt>
      <trkpt lat="45.26604" lon="6.81312">
        <ele>1271.01</ele>
        <time>2018-09-09T11:00:46Z</time>
      </trkpt>
      <trkpt lat="45.26622" lon="6.81325">
        <ele>1271.71</ele>
        <time>2018-09-09T11:00:47Z</time>
      </trkpt>
      <trkpt lat="45.26641" lon="6.81338">
        <ele>1271.92</ele>
        <time>2018-09-09T11:00:48Z</time>
      </trkpt>
      <trkpt lat="45.2666" lon="6.81351">
        <ele>1271.99</ele>
        <time>2018-09-09T11:00:49Z</time>
      </trkpt>
      <trkpt lat="45.26679" lon="6.81364">
        <ele>1272.71</ele>
        <time>2018-09-09T11:00:50Z</time>
      </trkpt>
      <trkpt lat="45.26698" lon="6.81377">
        <ele>1272.92</ele>
        <time>2018-09-09T11:00:51Z</time>
      </trkpt>
      <trkpt lat="45.26716" lon="6.81392">
        <ele>1272.99</ele>
        <time>2018-09-09T11:00:52Z</time>
      </trkpt>
      <trkpt lat="45.26735" lon="6.81406">
        <ele>1273.01</ele>
        <time>2018-09-09T11:00:53Z</time>
      </trkpt>
      <trkpt lat="45.26753" lon="6.8142">
        <ele>1273.71</ele>
        <time>2018-09-09T11:00:54Z</time>
      </trkpt>
      <trkpt lat="45.26771" lon="6.81433">
        <ele>1273.92</ele>
        <time>2018-09-09T11:00:55Z</time>
      </trkpt>
      <trkpt lat="45.26787" lon="6.81446">
        <ele>1274.69</ele>
        <time>2018-09-09T11:00:56Z</time>
      </trkpt>
      <trkpt lat="45.26804" lon="6.81457">
        <ele>1274.92</ele>
        <time>2018-09-09T11:00:57Z</time>
      </trkpt>
      <trkpt lat="45.26821" lon="6.81467">
        <ele>1275.69</ele>
        <time>2018-09-09T11:00:58Z</time>
      </trkpt>
      <trkpt lat="45.26854" lon="6.81476">
        <ele>1275.99</ele>
        <time>2018-09-09T11:01:00Z</time>
      </trkpt>
      <trkpt lat="45.26888" lon="6.81473">
        <ele>1276.01</ele>
        <time>2018-09-09T11:01:02Z</time>
      </trkpt>
      <trkpt lat="45.2692" lon="6.81455">
        <ele>1276.01</ele>
        <time>2018-09-09T11:01:04Z</time>
      </trkpt>
      <trkpt lat="45.26936" lon="6.81444">
        <ele>1276.01</ele>
        <time>2018-09-09T11:01:05Z</time>
      </trkpt>
      <trkpt lat="45.26953" lon="6.81432">
        <ele>1276.02</ele>
        <time>2018-09-09T11:01:06Z</time>
      </trkpt>
      <trkpt lat="45.26971" lon="6.8142">
        <ele>1276.02</ele>
        <time>2018-09-09T11:01:07Z</time>
      </trkpt>
      <trkpt lat="45.26989" lon="6.81408">
        <ele>1276.71</ele>
        <time>2018-09-09T11:01:08Z</time>
      </trkpt>
      <trkpt lat="45.27008" lon="6.81396">
        <ele>1276.93</ele>
        <time>2018-09-09T11:01:09Z</time>
      </trkpt>
      <trkpt lat="45.27027" lon="6.81385">
        <ele>1276.99</ele>
        <time>2018-09-09T11:01:10Z</time>
      </trkpt>
      <trkpt lat="45.27047" lon="6.81376">
        <ele>1277.01</ele>
        <time>2018-09-09T11:01:11Z</time>
      </trkpt>
      <trkpt lat="45.27068" lon="6.81369">
        <ele>1277.01</ele>
        <time>2018-09-09T11:01:12Z</time>
      </trkpt>
      <trkpt lat="45.27087" lon="6.81371">
        <ele>1277.71</ele>
        <time>2018-09-09T11:01:13Z</time>
      </trkpt>
      <trkpt lat="45.27107" lon="6.81374">
        <ele>1277.22</ele>
        <time>2018-09-09T11:01:14Z</time>
      </trkpt>
      <trkpt lat="45.27125" lon="6.81382">
        <ele>1277.78</ele>
        <time>2018-09-09T11:01:15Z</time>
      </trkpt>
      <trkpt lat="45.27141" lon="6.81392">
        <ele>1277.94</ele>
        <time>2018-09-09T11:01:16Z</time>
      </trkpt>
      <trkpt lat="45.27158" lon="6.81404">
        <ele>1278.69</ele>
        <time>2018-09-09T11:01:17Z</time>
      </trkpt>
      <trkpt lat="45.27175" lon="6.81416">
        <ele>1278.92</ele>
        <time>2018-09-09T11:01:18Z</time>
      </trkpt>
      <trkpt lat="45.27193" lon="6.81427">
        <ele>1278.99</ele>
        <time>2018-09-09T11:01:19Z</time>
      </trkpt>
      <trkpt lat="45.27211" lon="6.81437">
        <ele>1279.71</ele>
        <time>2018-09-09T11:01:20Z</time>
      </trkpt>
      <trkpt lat="45.27229" lon="6.81444">
        <ele>1279.92</ele>
        <time>2018-09-09T11:01:21Z</time>
      </trkpt>
      <trkpt lat="45.27264" lon="6.81441">
        <ele>1281.62</ele>
        <time>2018-09-09T11:01:23Z</time>
      </trkpt>
      <trkpt lat="45.27295" lon="6.81416">
        <ele>1281.98</ele>
        <time>2018-09-09T11:01:25Z</time>
      </trkpt>
      <trkpt lat="45.27308" lon="6.81395">
        <ele>1282.7</ele>
        <time>2018-09-09T11:01:26Z</time>
      </trkpt>
      <trkpt lat="45.27321" lon="6.81374">
        <ele>1282.92</ele>
        <time>2018-09-09T11:01:27Z</time>
      </trkpt>
      <trkpt lat="45.27334" lon="6.81353">
        <ele>1282.99</ele>
        <time>2018-09-09T11:01:28Z</time>
      </trkpt>
      <trkpt lat="45.27348" lon="6.81334">
        <ele>1283.01</ele>
        <time>2018-09-09T11:01:29Z</time>
      </trkpt>
      <trkpt lat="45.27362" lon="6.81316">
        <ele>1283.01</ele>
        <time>2018-09-09T11:01:30Z</time>
      </trkpt>
      <trkpt lat="45.27379" lon="6.81306">
        <ele>1283.01</ele>
        <time>2018-09-09T11:01:31Z</time>
      </trkpt>
      <trkpt lat="45.27396" lon="6.81297">
        <ele>1283.71</ele>
        <time>2018-09-09T11:01:32Z</time>
      </trkpt>
      <trkpt lat="45.27429" lon="6.81286">
        <ele>1283.99</ele>
        <time>2018-09-09T11:01:34Z</time>
      </trkpt>
      <trkpt lat="45.27462" lon="6.81286">
        <ele>1283.31</ele>
        <time>2018-09-09T11:01:36Z</time>
      </trkpt>
      <trkpt lat="45.27491" lon="6.81305">
        <ele>1283.04</ele>
        <time>2018-09-09T11:01:38Z</time>
      </trkpt>
      <trkpt lat="45.27516" lon="6.81319">
        <ele>1282.32</ele>
        <time>2018-09-09T11:01:40Z</time>
      </trkpt>
      <trkpt lat="45.27539" lon="6.81335">
        <ele>1283.65</ele>
        <time>2018-09-09T11:01:42Z</time>
      </trkpt>
      <trkpt lat="45.27559" lon="6.81349">
        <ele>1283.28</ele>
        <time>2018-09-09T11:01:44Z</time>
      </trkpt>
      <trkpt lat="45.27582" lon="6.81362">
        <ele>1283.95</ele>
        <time>2018-09-09T11:01:46Z</time>
      </trkpt>
      <trkpt lat="45.27606" lon="6.81373">
        <ele>1284.01</ele>
        <time>2018-09-09T11:01:48Z</time>
      </trkpt>
      <trkpt lat="45.2763" lon="6.81389">
        <ele>1284.71</ele>
        <time>2018-09-09T11:01:50Z</time>
      </trkpt>
      <trkpt lat="45.27653" lon="6.81405">
        <ele>1284.99</ele>
        <time>2018-09-09T11:01:52Z</time>
      </trkpt>
      <trkpt lat="45.27676" lon="6.81417">
        <ele>1286.62</ele>
        <time>2018-09-09T11:01:54Z</time>
      </trkpt>
      <trkpt lat="45.27695" lon="6.8143">
        <ele>1287.89</ele>
        <time>2018-09-09T11:01:56Z</time>
      </trkpt>
      <trkpt lat="45.27709" lon="6.81456">
        <ele>1288.01</ele>
        <time>2018-09-09T11:01:59Z</time>
      </trkpt>
      <trkpt lat="45.27706" lon="6.81486">
        <ele>1288.01</ele>
        <time>2018-09-09T11:02:02Z</time>
      </trkpt>
      <trkpt lat="45.27699" lon="6.81518">
        <ele>1288.02</ele>
        <time>2018-09-09T11:02:05Z</time>
      </trkpt>
      <trkpt lat="45.27693" lon="6.81554">
        <ele>1288.99</ele>
        <time>2018-09-09T11:02:08Z</time>
      </trkpt>
      <trkpt lat="45.27689" lon="6.8158">
        <ele>1289.71</ele>
        <time>2018-09-09T11:02:10Z</time>
      </trkpt>
      <trkpt lat="45.27684" lon="6.81606">
        <ele>1289.78</ele>
        <time>2018-09-09T11:02:12Z</time>
      </trkpt>
      <trkpt lat="45.27682" lon="6.81632">
        <ele>1289.99</ele>
        <time>2018-09-09T11:02:14Z</time>
      </trkpt>
      <trkpt lat="45.27679" lon="6.81666">
        <ele>1291.69</ele>
        <time>2018-09-09T11:02:17Z</time>
      </trkpt>
      <trkpt lat="45.27679" lon="6.81696">
        <ele>1292.98</ele>
        <time>2018-09-09T11:02:20Z</time>
      </trkpt>
      <trkpt lat="45.27692" lon="6.81724">
        <ele>1295.6</ele>
        <time>2018-09-09T11:02:23Z</time>
      </trkpt>
      <trkpt lat="45.27716" lon="6.81734">
        <ele>1298.59</ele>
        <time>2018-09-09T11:02:26Z</time>
      </trkpt>
      <trkpt lat="45.27741" lon="6.81727">
        <ele>1299.7</ele>
        <time>2018-09-09T11:02:29Z</time>
      </trkpt>
      <trkpt lat="45.27759" lon="6.8172">
        <ele>1301.6</ele>
        <time>2018-09-09T11:02:31Z</time>
      </trkpt>
      <trkpt lat="45.27779" lon="6.81712">
        <ele>1302.68</ele>
        <time>2018-09-09T11:02:33Z</time>
      </trkpt>
      <trkpt lat="45.27802" lon="6.81704">
        <ele>1303.89</ele>
        <time>2018-09-09T11:02:35Z</time>
      </trkpt>
      <trkpt lat="45.27828" lon="6.81695">
        <ele>1304.91</ele>
        <time>2018-09-09T11:02:37Z</time>
      </trkpt>
      <trkpt lat="45.27857" lon="6.81685">
        <ele>1307.53</ele>
        <time>2018-09-09T11:02:39Z</time>
      </trkpt>
      <trkpt lat="45.2789" lon="6.81677">
        <ele>1309.58</ele>
        <time>2018-09-09T11:02:41Z</time>
      </trkpt>
      <trkpt lat="45.27909" lon="6.81672">
        <ele>1311.28</ele>
        <time>2018-09-09T11:02:42Z</time>
      </trkpt>
      <trkpt lat="45.2793" lon="6.81666">
        <ele>1312.5</ele>
        <time>2018-09-09T11:02:43Z</time>
      </trkpt>
      <trkpt lat="45.27952" lon="6.8166">
        <ele>1314.26</ele>
        <time>2018-09-09T11:02:44Z</time>
      </trkpt>
      <trkpt lat="45.27976" lon="6.81655">
        <ele>1315.49</ele>
        <time>2018-09-09T11:02:45Z</time>
      </trkpt>
      <trkpt lat="45.28" lon="6.8165">
        <ele>1316.56</ele>
        <time>2018-09-09T11:02:46Z</time>
      </trkpt>
      <trkpt lat="45.28025" lon="6.81644">
        <ele>1318.28</ele>
        <time>2018-09-09T11:02:47Z</time>
      </trkpt>
      <trkpt lat="45.28047" lon="6.81636">
        <ele>1320.89</ele>
        <time>2018-09-09T11:02:48Z</time>
      </trkpt>
      <trkpt lat="45.28068" lon="6.8163">
        <ele>1322.38</ele>
        <time>2018-09-09T11:02:49Z</time>
      </trkpt>
      <trkpt lat="45.28087" lon="6.81624">
        <ele>1323.52</ele>
        <time>2018-09-09T11:02:50Z</time>
      </trkpt>
      <trkpt lat="45.28116" lon="6.81615">
        <ele>1325.37</ele>
        <time>2018-09-09T11:02:52Z</time>
      </trkpt>
      <trkpt lat="45.28134" lon="6.81627">
        <ele>1326.21</ele>
        <time>2018-09-09T11:02:55Z</time>
      </trkpt>
      <trkpt lat="45.28127" lon="6.8165">
        <ele>1325.38</ele>
        <time>2018-09-09T11:02:58Z</time>
      </trkpt>
      <trkpt lat="45.28099" lon="6.81662">
        <ele>1324.14</ele>
        <time>2018-09-09T11:03:00Z</time>
      </trkpt>
      <trkpt lat="45.28076" lon="6.8167">
        <ele>1326.15</ele>
        <time>2018-09-09T11:03:01Z</time>
      </trkpt>
      <trkpt lat="45.28058" lon="6.8168">
        <ele>1327.46</ele>
        <time>2018-09-09T11:03:02Z</time>
      </trkpt>
      <trkpt lat="45.28041" lon="6.81692">
        <ele>1329.25</ele>
        <time>2018-09-09T11:03:03Z</time>
      </trkpt>
      <trkpt lat="45.28024" lon="6.81705">
        <ele>1331.18</ele>
        <time>2018-09-09T11:03:04Z</time>
      </trkpt>
      <trkpt lat="45.28006" lon="6.81716">
        <ele>1333.17</ele>
        <time>2018-09-09T11:03:05Z</time>
      </trkpt>
      <trkpt lat="45.27988" lon="6.81728">
        <ele>1335.16</ele>
        <time>2018-09-09T11:03:06Z</time>
      </trkpt>
      <trkpt lat="45.2797" lon="6.81741">
        <ele>1337.16</ele>
        <time>2018-09-09T11:03:07Z</time>
      </trkpt>
      <trkpt lat="45.27953" lon="6.81753">
        <ele>1339.16</ele>
        <time>2018-09-09T11:03:08Z</time>
      </trkpt>
      <trkpt lat="45.27936" lon="6.81767">
        <ele>1341.16</ele>
        <time>2018-09-09T11:03:09Z</time>
      </trkpt>
      <trkpt lat="45.27919" lon="6.81782">
        <ele>1343.86</ele>
        <time>2018-09-09T11:03:10Z</time>
      </trkpt>
      <trkpt lat="45.27904" lon="6.81799">
        <ele>1346.07</ele>
        <time>2018-09-09T11:03:11Z</time>
      </trkpt>
      <trkpt lat="45.27891" lon="6.8182">
        <ele>1347.43</ele>
        <time>2018-09-09T11:03:12Z</time>
      </trkpt>
      <trkpt lat="45.27875" lon="6.81863">
        <ele>1350.69</ele>
        <time>2018-09-09T11:03:14Z</time>
      </trkpt>
      <trkpt lat="45.2788" lon="6.81889">
        <ele>1353.02</ele>
        <time>2018-09-09T11:03:15Z</time>
      </trkpt>
      <trkpt lat="45.27886" lon="6.81915">
        <ele>1355.82</ele>
        <time>2018-09-09T11:03:16Z</time>
      </trkpt>
      <trkpt lat="45.27893" lon="6.81942">
        <ele>1358.06</ele>
        <time>2018-09-09T11:03:17Z</time>
      </trkpt>
      <trkpt lat="45.27902" lon="6.81968">
        <ele>1359.43</ele>
        <time>2018-09-09T11:03:18Z</time>
      </trkpt>
      <trkpt lat="45.27914" lon="6.81993">
        <ele>1361.94</ele>
        <time>2018-09-09T11:03:19Z</time>
      </trkpt>
      <trkpt lat="45.27925" lon="6.82016">
        <ele>1363.39</ele>
        <time>2018-09-09T11:03:20Z</time>
      </trkpt>
      <trkpt lat="45.2794" lon="6.82039">
        <ele>1365.93</ele>
        <time>2018-09-09T11:03:21Z</time>
      </trkpt>
      <trkpt lat="45.27955" lon="6.82061">
        <ele>1368.79</ele>
        <time>2018-09-09T11:03:22Z</time>
      </trkpt>
      <trkpt lat="45.27969" lon="6.82084">
        <ele>1371.05</ele>
        <time>2018-09-09T11:03:23Z</time>
      </trkpt>
      <trkpt lat="45.27984" lon="6.82106">
        <ele>1373.12</ele>
        <time>2018-09-09T11:03:24Z</time>
      </trkpt>
      <trkpt lat="45.27998" lon="6.8213">
        <ele>1375.15</ele>
        <time>2018-09-09T11:03:25Z</time>
      </trkpt>
      <trkpt lat="45.28013" lon="6.82153">
        <ele>1377.15</ele>
        <time>2018-09-09T11:03:26Z</time>
      </trkpt>
      <trkpt lat="45.28027" lon="6.82176">
        <ele>1378.46</ele>
        <time>2018-09-09T11:03:27Z</time>
      </trkpt>
      <trkpt lat="45.2804" lon="6.82201">
        <ele>1380.25</ele>
        <time>2018-09-09T11:03:28Z</time>
      </trkpt>
      <trkpt lat="45.28051" lon="6.82228">
        <ele>1381.48</ele>
        <time>2018-09-09T11:03:29Z</time>
      </trkpt>
      <trkpt lat="45.28062" lon="6.82256">
        <ele>1381.86</ele>
        <time>2018-09-09T11:03:30Z</time>
      </trkpt>
      <trkpt lat="45.28073" lon="6.82283">
        <ele>1384.07</ele>
        <time>2018-09-09T11:03:31Z</time>
      </trkpt>
      <trkpt lat="45.28084" lon="6.82311">
        <ele>1384.73</ele>
        <time>2018-09-09T11:03:32Z</time>
      </trkpt>
      <trkpt lat="45.28095" lon="6.8234">
        <ele>1385.63</ele>
        <time>2018-09-09T11:03:33Z</time>
      </trkpt>
      <trkpt lat="45.28105" lon="6.82369">
        <ele>1386.6</ele>
        <time>2018-09-09T11:03:34Z</time>
      </trkpt>
      <trkpt lat="45.28116" lon="6.82399">
        <ele>1387.59</ele>
        <time>2018-09-09T11:03:35Z</time>
      </trkpt>
      <trkpt lat="45.28127" lon="6.82429">
        <ele>1387.89</ele>
        <time>2018-09-09T11:03:36Z</time>
      </trkpt>
      <trkpt lat="45.28138" lon="6.82459">
        <ele>1387.98</ele>
        <time>2018-09-09T11:03:37Z</time>
      </trkpt>
      <trkpt lat="45.28149" lon="6.8249">
        <ele>1388.7</ele>
        <time>2018-09-09T11:03:38Z</time>
      </trkpt>
      <trkpt lat="45.2816" lon="6.82522">
        <ele>1389.62</ele>
        <time>2018-09-09T11:03:39Z</time>
      </trkpt>
      <trkpt lat="45.28171" lon="6.82552">
        <ele>1389.2</ele>
        <time>2018-09-09T11:03:40Z</time>
      </trkpt>
      <trkpt lat="45.28182" lon="6.82584">
        <ele>1389.07</ele>
        <time>2018-09-09T11:03:41Z</time>
      </trkpt>
      <trkpt lat="45.28193" lon="6.82615">
        <ele>1389.03</ele>
        <time>2018-09-09T11:03:42Z</time>
      </trkpt>
      <trkpt lat="45.28204" lon="6.82645">
        <ele>1388.32</ele>
        <time>2018-09-09T11:03:43Z</time>
      </trkpt>
      <trkpt lat="45.28215" lon="6.82674">
        <ele>1388.11</ele>
        <time>2018-09-09T11:03:44Z</time>
      </trkpt>
      <trkpt lat="45.28226" lon="6.827">
        <ele>1388.04</ele>
        <time>2018-09-09T11:03:45Z</time>
      </trkpt>
      <trkpt lat="45.28239" lon="6.82724">
        <ele>1388.02</ele>
        <time>2018-09-09T11:03:46Z</time>
      </trkpt>
      <trkpt lat="45.28254" lon="6.82746">
        <ele>1388.02</ele>
        <time>2018-09-09T11:03:47Z</time>
      </trkpt>
      <trkpt lat="45.28268" lon="6.82768">
        <ele>1388.02</ele>
        <time>2018-09-09T11:03:48Z</time>
      </trkpt>
      <trkpt lat="45.28282" lon="6.82791">
        <ele>1388.02</ele>
        <time>2018-09-09T11:03:49Z</time>
      </trkpt>
      <trkpt lat="45.28294" lon="6.82817">
        <ele>1387.32</ele>
        <time>2018-09-09T11:03:50Z</time>
      </trkpt>
      <trkpt lat="45.28303" lon="6.82845">
        <ele>1386.41</ele>
        <time>2018-09-09T11:03:51Z</time>
      </trkpt>
      <trkpt lat="45.28312" lon="6.82874">
        <ele>1386.13</ele>
        <time>2018-09-09T11:03:52Z</time>
      </trkpt>
      <trkpt lat="45.28319" lon="6.82904">
        <ele>1385.35</ele>
        <time>2018-09-09T11:03:53Z</time>
      </trkpt>
      <trkpt lat="45.28326" lon="6.82933">
        <ele>1384.42</ele>
        <time>2018-09-09T11:03:54Z</time>
      </trkpt>
      <trkpt lat="45.28334" lon="6.82963">
        <ele>1384.14</ele>
        <time>2018-09-09T11:03:55Z</time>
      </trkpt>
      <trkpt lat="45.28343" lon="6.82991">
        <ele>1383.35</ele>
        <time>2018-09-09T11:03:56Z</time>
      </trkpt>
      <trkpt lat="45.28353" lon="6.83018">
        <ele>1382.42</ele>
        <time>2018-09-09T11:03:57Z</time>
      </trkpt>
      <trkpt lat="45.28363" lon="6.83047">
        <ele>1381.44</ele>
        <time>2018-09-09T11:03:58Z</time>
      </trkpt>
      <trkpt lat="45.28372" lon="6.83075">
        <ele>1380.44</ele>
        <time>2018-09-09T11:03:59Z</time>
      </trkpt>
      <trkpt lat="45.2838" lon="6.83105">
        <ele>1379.44</ele>
        <time>2018-09-09T11:04:00Z</time>
      </trkpt>
      <trkpt lat="45.28387" lon="6.83135">
        <ele>1378.44</ele>
        <time>2018-09-09T11:04:01Z</time>
      </trkpt>
      <trkpt lat="45.28394" lon="6.83166">
        <ele>1377.44</ele>
        <time>2018-09-09T11:04:02Z</time>
      </trkpt>
      <trkpt lat="45.284" lon="6.83197">
        <ele>1376.44</ele>
        <time>2018-09-09T11:04:03Z</time>
      </trkpt>
      <trkpt lat="45.28408" lon="6.83229">
        <ele>1376.14</ele>
        <time>2018-09-09T11:04:04Z</time>
      </trkpt>
      <trkpt lat="45.28415" lon="6.83261">
        <ele>1375.35</ele>
        <time>2018-09-09T11:04:05Z</time>
      </trkpt>
      <trkpt lat="45.28422" lon="6.83293">
        <ele>1374.42</ele>
        <time>2018-09-09T11:04:06Z</time>
      </trkpt>
      <trkpt lat="45.28431" lon="6.83325">
        <ele>1373.44</ele>
        <time>2018-09-09T11:04:07Z</time>
      </trkpt>
      <trkpt lat="45.28441" lon="6.83358">
        <ele>1372.44</ele>
        <time>2018-09-09T11:04:08Z</time>
      </trkpt>
      <trkpt lat="45.28451" lon="6.83391">
        <ele>1372.14</ele>
        <time>2018-09-09T11:04:09Z</time>
      </trkpt>
      <trkpt lat="45.2846" lon="6.83423">
        <ele>1371.35</ele>
        <time>2018-09-09T11:04:10Z</time>
      </trkpt>
      <trkpt lat="45.28469" lon="6.83455">
        <ele>1371.12</ele>
        <time>2018-09-09T11:04:11Z</time>
      </trkpt>
      <trkpt lat="45.28477" lon="6.83486">
        <ele>1370.35</ele>
        <time>2018-09-09T11:04:12Z</time>
      </trkpt>
      <trkpt lat="45.28486" lon="6.83517">
        <ele>1369.41</ele>
        <time>2018-09-09T11:04:13Z</time>
      </trkpt>
      <trkpt lat="45.28495" lon="6.83548">
        <ele>1368.43</ele>
        <time>2018-09-09T11:04:14Z</time>
      </trkpt>
      <trkpt lat="45.28504" lon="6.83579">
        <ele>1367.44</ele>
        <time>2018-09-09T11:04:15Z</time>
      </trkpt>
      <trkpt lat="45.28512" lon="6.8361">
        <ele>1366.44</ele>
        <time>2018-09-09T11:04:16Z</time>
      </trkpt>
      <trkpt lat="45.28516" lon="6.83642">
        <ele>1366.14</ele>
        <time>2018-09-09T11:04:17Z</time>
      </trkpt>
      <trkpt lat="45.28519" lon="6.83674">
        <ele>1365.35</ele>
        <time>2018-09-09T11:04:18Z</time>
      </trkpt>
      <trkpt lat="45.2852" lon="6.83706">
        <ele>1364.42</ele>
        <time>2018-09-09T11:04:19Z</time>
      </trkpt>
      <trkpt lat="45.28522" lon="6.83738">
        <ele>1364.14</ele>
        <time>2018-09-09T11:04:20Z</time>
      </trkpt>
      <trkpt lat="45.28526" lon="6.8377">
        <ele>1363.35</ele>
        <time>2018-09-09T11:04:21Z</time>
      </trkpt>
      <trkpt lat="45.28531" lon="6.83801">
        <ele>1362.42</ele>
        <time>2018-09-09T11:04:22Z</time>
      </trkpt>
      <trkpt lat="45.28536" lon="6.83832">
        <ele>1362.14</ele>
        <time>2018-09-09T11:04:23Z</time>
      </trkpt>
      <trkpt lat="45.28541" lon="6.83863">
        <ele>1361.35</ele>
        <time>2018-09-09T11:04:24Z</time>
      </trkpt>
      <trkpt lat="45.28545" lon="6.83896">
        <ele>1361.12</ele>
        <time>2018-09-09T11:04:25Z</time>
      </trkpt>
      <trkpt lat="45.28546" lon="6.83928">
        <ele>1360.35</ele>
        <time>2018-09-09T11:04:26Z</time>
      </trkpt>
      <trkpt lat="45.28548" lon="6.8396">
        <ele>1360.11</ele>
        <time>2018-09-09T11:04:27Z</time>
      </trkpt>
      <trkpt lat="45.2855" lon="6.83992">
        <ele>1359.34</ele>
        <time>2018-09-09T11:04:28Z</time>
      </trkpt>
      <trkpt lat="45.28551" lon="6.84024">
        <ele>1359.11</ele>
        <time>2018-09-09T11:04:29Z</time>
      </trkpt>
      <trkpt lat="45.28553" lon="6.84055">
        <ele>1358.34</ele>
        <time>2018-09-09T11:04:30Z</time>
      </trkpt>
      <trkpt lat="45.28555" lon="6.84086">
        <ele>1358.11</ele>
        <time>2018-09-09T11:04:31Z</time>
      </trkpt>
      <trkpt lat="45.28558" lon="6.84118">
        <ele>1357.34</ele>
        <time>2018-09-09T11:04:32Z</time>
      </trkpt>
      <trkpt lat="45.28562" lon="6.8415">
        <ele>1357.11</ele>
        <time>2018-09-09T11:04:33Z</time>
      </trkpt>
      <trkpt lat="45.28566" lon="6.84181">
        <ele>1357.04</ele>
        <time>2018-09-09T11:04:34Z</time>
      </trkpt>
      <trkpt lat="45.2857" lon="6.84211">
        <ele>1357.02</ele>
        <time>2018-09-09T11:04:35Z</time>
      </trkpt>
      <trkpt lat="45.28573" lon="6.84243">
        <ele>1357.02</ele>
        <time>2018-09-09T11:04:36Z</time>
      </trkpt>
      <trkpt lat="45.28577" lon="6.84273">
        <ele>1357.02</ele>
        <time>2018-09-09T11:04:37Z</time>
      </trkpt>
      <trkpt lat="45.28581" lon="6.84305">
        <ele>1357.02</ele>
        <time>2018-09-09T11:04:38Z</time>
      </trkpt>
      <trkpt lat="45.28585" lon="6.84336">
        <ele>1357.02</ele>
        <time>2018-09-09T11:04:39Z</time>
      </trkpt>
      <trkpt lat="45.28589" lon="6.84368">
        <ele>1357.02</ele>
        <time>2018-09-09T11:04:40Z</time>
      </trkpt>
      <trkpt lat="45.28593" lon="6.844">
        <ele>1357.02</ele>
        <time>2018-09-09T11:04:41Z</time>
      </trkpt>
      <trkpt lat="45.28597" lon="6.84431">
        <ele>1357.71</ele>
        <time>2018-09-09T11:04:42Z</time>
      </trkpt>
      <trkpt lat="45.28601" lon="6.84462">
        <ele>1357.93</ele>
        <time>2018-09-09T11:04:43Z</time>
      </trkpt>
      <trkpt lat="45.28605" lon="6.84493">
        <ele>1357.99</ele>
        <time>2018-09-09T11:04:44Z</time>
      </trkpt>
      <trkpt lat="45.28609" lon="6.84524">
        <ele>1358.01</ele>
        <time>2018-09-09T11:04:45Z</time>
      </trkpt>
      <trkpt lat="45.28612" lon="6.84555">
        <ele>1358.01</ele>
        <time>2018-09-09T11:04:46Z</time>
      </trkpt>
      <trkpt lat="45.28612" lon="6.84587">
        <ele>1358.01</ele>
        <time>2018-09-09T11:04:47Z</time>
      </trkpt>
      <trkpt lat="45.2861" lon="6.84617">
        <ele>1358.01</ele>
        <time>2018-09-09T11:04:48Z</time>
      </trkpt>
      <trkpt lat="45.28607" lon="6.84647">
        <ele>1358.71</ele>
        <time>2018-09-09T11:04:49Z</time>
      </trkpt>
      <trkpt lat="45.28604" lon="6.84678">
        <ele>1358.92</ele>
        <time>2018-09-09T11:04:50Z</time>
      </trkpt>
      <trkpt lat="45.286" lon="6.84709">
        <ele>1358.99</ele>
        <time>2018-09-09T11:04:51Z</time>
      </trkpt>
      <trkpt lat="45.28597" lon="6.8474">
        <ele>1359.71</ele>
        <time>2018-09-09T11:04:52Z</time>
      </trkpt>
      <trkpt lat="45.28594" lon="6.8477">
        <ele>1359.92</ele>
        <time>2018-09-09T11:04:53Z</time>
      </trkpt>
      <trkpt lat="45.28591" lon="6.848">
        <ele>1359.99</ele>
        <time>2018-09-09T11:04:54Z</time>
      </trkpt>
      <trkpt lat="45.28589" lon="6.8483">
        <ele>1360.71</ele>
        <time>2018-09-09T11:04:55Z</time>
      </trkpt>
      <trkpt lat="45.28588" lon="6.8486">
        <ele>1360.92</ele>
        <time>2018-09-09T11:04:56Z</time>
      </trkpt>
      <trkpt lat="45.28588" lon="6.8489">
        <ele>1360.99</ele>
        <time>2018-09-09T11:04:57Z</time>
      </trkpt>
      <trkpt lat="45.2859" lon="6.8492">
        <ele>1361.71</ele>
        <time>2018-09-09T11:04:58Z</time>
      </trkpt>
      <trkpt lat="45.28594" lon="6.84951">
        <ele>1361.92</ele>
        <time>2018-09-09T11:04:59Z</time>
      </trkpt>
      <trkpt lat="45.28597" lon="6.84981">
        <ele>1361.29</ele>
        <time>2018-09-09T11:05:00Z</time>
      </trkpt>
      <trkpt lat="45.286" lon="6.8501">
        <ele>1361.1</ele>
        <time>2018-09-09T11:05:01Z</time>
      </trkpt>
      <trkpt lat="45.28602" lon="6.85039">
        <ele>1361.74</ele>
        <time>2018-09-09T11:05:02Z</time>
      </trkpt>
      <trkpt lat="45.28604" lon="6.85069">
        <ele>1361.93</ele>
        <time>2018-09-09T11:05:03Z</time>
      </trkpt>
      <trkpt lat="45.28605" lon="6.85098">
        <ele>1362.69</ele>
        <time>2018-09-09T11:05:04Z</time>
      </trkpt>
      <trkpt lat="45.28606" lon="6.85127">
        <ele>1362.92</ele>
        <time>2018-09-09T11:05:05Z</time>
      </trkpt>
      <trkpt lat="45.28609" lon="6.85157">
        <ele>1362.99</ele>
        <time>2018-09-09T11:05:06Z</time>
      </trkpt>
      <trkpt lat="45.2861" lon="6.85186">
        <ele>1363.01</ele>
        <time>2018-09-09T11:05:07Z</time>
      </trkpt>
      <trkpt lat="45.28611" lon="6.85216">
        <ele>1363.71</ele>
        <time>2018-09-09T11:05:08Z</time>
      </trkpt>
      <trkpt lat="45.28612" lon="6.85245">
        <ele>1363.92</ele>
        <time>2018-09-09T11:05:09Z</time>
      </trkpt>
      <trkpt lat="45.28613" lon="6.85273">
        <ele>1363.99</ele>
        <time>2018-09-09T11:05:10Z</time>
      </trkpt>
      <trkpt lat="45.28615" lon="6.85303">
        <ele>1364.71</ele>
        <time>2018-09-09T11:05:11Z</time>
      </trkpt>
      <trkpt lat="45.28615" lon="6.8533">
        <ele>1364.92</ele>
        <time>2018-09-09T11:05:12Z</time>
      </trkpt>
      <trkpt lat="45.28616" lon="6.85358">
        <ele>1364.99</ele>
        <time>2018-09-09T11:05:13Z</time>
      </trkpt>
      <trkpt lat="45.28615" lon="6.85386">
        <ele>1365.01</ele>
        <time>2018-09-09T11:05:14Z</time>
      </trkpt>
      <trkpt lat="45.28614" lon="6.85413">
        <ele>1365.71</ele>
        <time>2018-09-09T11:05:15Z</time>
      </trkpt>
      <trkpt lat="45.28611" lon="6.8544">
        <ele>1365.92</ele>
        <time>2018-09-09T11:05:16Z</time>
      </trkpt>
      <trkpt lat="45.28607" lon="6.85468">
        <ele>1365.99</ele>
        <time>2018-09-09T11:05:17Z</time>
      </trkpt>
      <trkpt lat="45.28604" lon="6.85495">
        <ele>1366.01</ele>
        <time>2018-09-09T11:05:18Z</time>
      </trkpt>
      <trkpt lat="45.28598" lon="6.85523">
        <ele>1366.71</ele>
        <time>2018-09-09T11:05:19Z</time>
      </trkpt>
      <trkpt lat="45.28592" lon="6.85549">
        <ele>1366.92</ele>
        <time>2018-09-09T11:05:20Z</time>
      </trkpt>
      <trkpt lat="45.28587" lon="6.85576">
        <ele>1366.99</ele>
        <time>2018-09-09T11:05:21Z</time>
      </trkpt>
      <trkpt lat="45.28583" lon="6.85601">
        <ele>1367.71</ele>
        <time>2018-09-09T11:05:22Z</time>
      </trkpt>
      <trkpt lat="45.2858" lon="6.85628">
        <ele>1367.92</ele>
        <time>2018-09-09T11:05:23Z</time>
      </trkpt>
      <trkpt lat="45.28579" lon="6.85655">
        <ele>1367.99</ele>
        <time>2018-09-09T11:05:24Z</time>
      </trkpt>
      <trkpt lat="45.28579" lon="6.85682">
        <ele>1368.01</ele>
        <time>2018-09-09T11:05:25Z</time>
      </trkpt>
      <trkpt lat="45.28579" lon="6.85709">
        <ele>1368.01</ele>
        <time>2018-09-09T11:05:26Z</time>
      </trkpt>
      <trkpt lat="45.2858" lon="6.85736">
        <ele>1368.01</ele>
        <time>2018-09-09T11:05:27Z</time>
      </trkpt>
      <trkpt lat="45.2858" lon="6.85763">
        <ele>1368.01</ele>
        <time>2018-09-09T11:05:28Z</time>
      </trkpt>
      <trkpt lat="45.2858" lon="6.8579">
        <ele>1368.01</ele>
        <time>2018-09-09T11:05:29Z</time>
      </trkpt>
      <trkpt lat="45.28581" lon="6.85816">
        <ele>1368.02</ele>
        <time>2018-09-09T11:05:30Z</time>
      </trkpt>
      <trkpt lat="45.28581" lon="6.85842">
        <ele>1368.71</ele>
        <time>2018-09-09T11:05:31Z</time>
      </trkpt>
      <trkpt lat="45.28581" lon="6.85868">
        <ele>1368.93</ele>
        <time>2018-09-09T11:05:32Z</time>
      </trkpt>
      <trkpt lat="45.28581" lon="6.85919">
        <ele>1369.71</ele>
        <time>2018-09-09T11:05:34Z</time>
      </trkpt>
      <trkpt lat="45.28581" lon="6.85946">
        <ele>1369.92</ele>
        <time>2018-09-09T11:05:35Z</time>
      </trkpt>
      <trkpt lat="45.28581" lon="6.85972">
        <ele>1369.99</ele>
        <time>2018-09-09T11:05:36Z</time>
      </trkpt>
      <trkpt lat="45.28579" lon="6.85999">
        <ele>1370.01</ele>
        <time>2018-09-09T11:05:37Z</time>
      </trkpt>
      <trkpt lat="45.28576" lon="6.86025">
        <ele>1370.71</ele>
        <time>2018-09-09T11:05:38Z</time>
      </trkpt>
      <trkpt lat="45.28572" lon="6.86052">
        <ele>1370.92</ele>
        <time>2018-09-09T11:05:39Z</time>
      </trkpt>
      <trkpt lat="45.28567" lon="6.86078">
        <ele>1370.99</ele>
        <time>2018-09-09T11:05:40Z</time>
      </trkpt>
      <trkpt lat="45.28561" lon="6.86107">
        <ele>1371.01</ele>
        <time>2018-09-09T11:05:41Z</time>
      </trkpt>
      <trkpt lat="45.28554" lon="6.86137">
        <ele>1371.71</ele>
        <time>2018-09-09T11:05:42Z</time>
      </trkpt>
      <trkpt lat="45.28545" lon="6.86168">
        <ele>1371.92</ele>
        <time>2018-09-09T11:05:43Z</time>
      </trkpt>
      <trkpt lat="45.28534" lon="6.86196">
        <ele>1371.99</ele>
        <time>2018-09-09T11:05:44Z</time>
      </trkpt>
      <trkpt lat="45.28523" lon="6.86224">
        <ele>1372.01</ele>
        <time>2018-09-09T11:05:45Z</time>
      </trkpt>
      <trkpt lat="45.28513" lon="6.86252">
        <ele>1372.01</ele>
        <time>2018-09-09T11:05:46Z</time>
      </trkpt>
      <trkpt lat="45.28505" lon="6.8628">
        <ele>1372.01</ele>
        <time>2018-09-09T11:05:47Z</time>
      </trkpt>
      <trkpt lat="45.28499" lon="6.86309">
        <ele>1372.71</ele>
        <time>2018-09-09T11:05:48Z</time>
      </trkpt>
      <trkpt lat="45.28495" lon="6.86338">
        <ele>1372.92</ele>
        <time>2018-09-09T11:05:49Z</time>
      </trkpt>
      <trkpt lat="45.28491" lon="6.86367">
        <ele>1373.69</ele>
        <time>2018-09-09T11:05:50Z</time>
      </trkpt>
      <trkpt lat="45.28488" lon="6.86397">
        <ele>1374.62</ele>
        <time>2018-09-09T11:05:51Z</time>
      </trkpt>
      <trkpt lat="45.28484" lon="6.86425">
        <ele>1374.2</ele>
        <time>2018-09-09T11:05:52Z</time>
      </trkpt>
      <trkpt lat="45.28481" lon="6.86454">
        <ele>1374.07</ele>
        <time>2018-09-09T11:05:53Z</time>
      </trkpt>
      <trkpt lat="45.28478" lon="6.86483">
        <ele>1374.03</ele>
        <time>2018-09-09T11:05:54Z</time>
      </trkpt>
      <trkpt lat="45.28473" lon="6.86511">
        <ele>1374.72</ele>
        <time>2018-09-09T11:05:55Z</time>
      </trkpt>
      <trkpt lat="45.28469" lon="6.86539">
        <ele>1374.93</ele>
        <time>2018-09-09T11:05:56Z</time>
      </trkpt>
      <trkpt lat="45.28466" lon="6.86568">
        <ele>1375.69</ele>
        <time>2018-09-09T11:05:57Z</time>
      </trkpt>
      <trkpt lat="45.28462" lon="6.86597">
        <ele>1375.22</ele>
        <time>2018-09-09T11:05:58Z</time>
      </trkpt>
      <trkpt lat="45.28458" lon="6.86627">
        <ele>1375.08</ele>
        <time>2018-09-09T11:05:59Z</time>
      </trkpt>
      <trkpt lat="45.28455" lon="6.86657">
        <ele>1375.03</ele>
        <time>2018-09-09T11:06:00Z</time>
      </trkpt>
      <trkpt lat="45.28451" lon="6.86686">
        <ele>1375.72</ele>
        <time>2018-09-09T11:06:01Z</time>
      </trkpt>
      <trkpt lat="45.28447" lon="6.86715">
        <ele>1375.93</ele>
        <time>2018-09-09T11:06:02Z</time>
      </trkpt>
      <trkpt lat="45.28443" lon="6.86745">
        <ele>1375.99</ele>
        <time>2018-09-09T11:06:03Z</time>
      </trkpt>
      <trkpt lat="45.28439" lon="6.86774">
        <ele>1376.71</ele>
        <time>2018-09-09T11:06:04Z</time>
      </trkpt>
      <trkpt lat="45.28435" lon="6.86804">
        <ele>1377.62</ele>
        <time>2018-09-09T11:06:05Z</time>
      </trkpt>
      <trkpt lat="45.28431" lon="6.86833">
        <ele>1377.9</ele>
        <time>2018-09-09T11:06:06Z</time>
      </trkpt>
      <trkpt lat="45.28427" lon="6.86862">
        <ele>1378.68</ele>
        <time>2018-09-09T11:06:07Z</time>
      </trkpt>
      <trkpt lat="45.28425" lon="6.8689">
        <ele>1379.61</ele>
        <time>2018-09-09T11:06:08Z</time>
      </trkpt>
      <trkpt lat="45.28424" lon="6.86917">
        <ele>1379.89</ele>
        <time>2018-09-09T11:06:09Z</time>
      </trkpt>
      <trkpt lat="45.28423" lon="6.86945">
        <ele>1380.68</ele>
        <time>2018-09-09T11:06:10Z</time>
      </trkpt>
      <trkpt lat="45.28423" lon="6.86972">
        <ele>1381.61</ele>
        <time>2018-09-09T11:06:11Z</time>
      </trkpt>
      <trkpt lat="45.28425" lon="6.86998">
        <ele>1381.89</ele>
        <time>2018-09-09T11:06:12Z</time>
      </trkpt>
      <trkpt lat="45.28428" lon="6.87024">
        <ele>1382.68</ele>
        <time>2018-09-09T11:06:13Z</time>
      </trkpt>
      <trkpt lat="45.28436" lon="6.87071">
        <ele>1383.68</ele>
        <time>2018-09-09T11:06:15Z</time>
      </trkpt>
      <trkpt lat="45.28446" lon="6.87111">
        <ele>1383.99</ele>
        <time>2018-09-09T11:06:17Z</time>
      </trkpt>
      <trkpt lat="45.28455" lon="6.87147">
        <ele>1384.92</ele>
        <time>2018-09-09T11:06:19Z</time>
      </trkpt>
      <trkpt lat="45.28459" lon="6.87179">
        <ele>1385.92</ele>
        <time>2018-09-09T11:06:21Z</time>
      </trkpt>
      <trkpt lat="45.28461" lon="6.87211">
        <ele>1386.92</ele>
        <time>2018-09-09T11:06:23Z</time>
      </trkpt>
      <trkpt lat="45.28462" lon="6.87236">
        <ele>1387.22</ele>
        <time>2018-09-09T11:06:25Z</time>
      </trkpt>
      <trkpt lat="45.28474" lon="6.87255">
        <ele>1387.72</ele>
        <time>2018-09-09T11:06:28Z</time>
      </trkpt>
      <trkpt lat="45.28492" lon="6.87273">
        <ele>1388.01</ele>
        <time>2018-09-09T11:06:31Z</time>
      </trkpt>
      <trkpt lat="45.28498" lon="6.87297">
        <ele>1388.01</ele>
        <time>2018-09-09T11:06:33Z</time>
      </trkpt>
      <trkpt lat="45.28504" lon="6.87323">
        <ele>1388.92</ele>
        <time>2018-09-09T11:06:35Z</time>
      </trkpt>
      <trkpt lat="45.2851" lon="6.87348">
        <ele>1389.01</ele>
        <time>2018-09-09T11:06:37Z</time>
      </trkpt>
      <trkpt lat="45.28516" lon="6.87373">
        <ele>1389.71</ele>
        <time>2018-09-09T11:06:39Z</time>
      </trkpt>
      <trkpt lat="45.28522" lon="6.874">
        <ele>1389.99</ele>
        <time>2018-09-09T11:06:41Z</time>
      </trkpt>
      <trkpt lat="45.28526" lon="6.8743">
        <ele>1390.92</ele>
        <time>2018-09-09T11:06:43Z</time>
      </trkpt>
      <trkpt lat="45.28531" lon="6.87461">
        <ele>1391.92</ele>
        <time>2018-09-09T11:06:45Z</time>
      </trkpt>
      <trkpt lat="45.28534" lon="6.87494">
        <ele>1393.62</ele>
        <time>2018-09-09T11:06:47Z</time>
      </trkpt>
      <trkpt lat="45.28536" lon="6.87527">
        <ele>1393.77</ele>
        <time>2018-09-09T11:06:49Z</time>
      </trkpt>
      <trkpt lat="45.28536" lon="6.87561">
        <ele>1393.99</ele>
        <time>2018-09-09T11:06:51Z</time>
      </trkpt>
      <trkpt lat="45.28532" lon="6.87594">
        <ele>1394.01</ele>
        <time>2018-09-09T11:06:53Z</time>
      </trkpt>
      <trkpt lat="45.28528" lon="6.87625">
        <ele>1394.01</ele>
        <time>2018-09-09T11:06:55Z</time>
      </trkpt>
      <trkpt lat="45.28524" lon="6.87657">
        <ele>1394.02</ele>
        <time>2018-09-09T11:06:57Z</time>
      </trkpt>
      <trkpt lat="45.28522" lon="6.87688">
        <ele>1394.71</ele>
        <time>2018-09-09T11:06:59Z</time>
      </trkpt>
      <trkpt lat="45.28522" lon="6.87719">
        <ele>1394.08</ele>
        <time>2018-09-09T11:07:01Z</time>
      </trkpt>
      <trkpt lat="45.28524" lon="6.87748">
        <ele>1394.02</ele>
        <time>2018-09-09T11:07:03Z</time>
      </trkpt>
      <trkpt lat="45.28527" lon="6.87775">
        <ele>1394.72</ele>
        <time>2018-09-09T11:07:05Z</time>
      </trkpt>
      <trkpt lat="45.28528" lon="6.87805">
        <ele>1394.99</ele>
        <time>2018-09-09T11:07:07Z</time>
      </trkpt>
      <trkpt lat="45.28527" lon="6.87836">
        <ele>1395.71</ele>
        <time>2018-09-09T11:07:09Z</time>
      </trkpt>
      <trkpt lat="45.28528" lon="6.8787">
        <ele>1395.99</ele>
        <time>2018-09-09T11:07:11Z</time>
      </trkpt>
      <trkpt lat="45.28529" lon="6.87905">
        <ele>1396.01</ele>
        <time>2018-09-09T11:07:13Z</time>
      </trkpt>
      <trkpt lat="45.2853" lon="6.8794">
        <ele>1396.92</ele>
        <time>2018-09-09T11:07:15Z</time>
      </trkpt>
      <trkpt lat="45.28533" lon="6.87976">
        <ele>1397.01</ele>
        <time>2018-09-09T11:07:17Z</time>
      </trkpt>
      <trkpt lat="45.28537" lon="6.88012">
        <ele>1397.01</ele>
        <time>2018-09-09T11:07:19Z</time>
      </trkpt>
      <trkpt lat="45.28541" lon="6.88048">
        <ele>1397.92</ele>
        <time>2018-09-09T11:07:21Z</time>
      </trkpt>
      <trkpt lat="45.28544" lon="6.88083">
        <ele>1398.71</ele>
        <time>2018-09-09T11:07:23Z</time>
      </trkpt>
      <trkpt lat="45.28548" lon="6.88118">
        <ele>1398.99</ele>
        <time>2018-09-09T11:07:25Z</time>
      </trkpt>
      <trkpt lat="45.28551" lon="6.88154">
        <ele>1399.01</ele>
        <time>2018-09-09T11:07:27Z</time>
      </trkpt>
      <trkpt lat="45.28553" lon="6.8819">
        <ele>1399.92</ele>
        <time>2018-09-09T11:07:29Z</time>
      </trkpt>
      <trkpt lat="45.28556" lon="6.88227">
        <ele>1400.01</ele>
        <time>2018-09-09T11:07:31Z</time>
      </trkpt>
      <trkpt lat="45.28559" lon="6.88261">
        <ele>1400.71</ele>
        <time>2018-09-09T11:07:33Z</time>
      </trkpt>
      <trkpt lat="45.28558" lon="6.88297">
        <ele>1400.99</ele>
        <time>2018-09-09T11:07:35Z</time>
      </trkpt>
      <trkpt lat="45.28559" lon="6.88336">
        <ele>1401.92</ele>
        <time>2018-09-09T11:07:37Z</time>
      </trkpt>
      <trkpt lat="45.2856" lon="6.88373">
        <ele>1402.01</ele>
        <time>2018-09-09T11:07:39Z</time>
      </trkpt>
      <trkpt lat="45.28561" lon="6.88406">
        <ele>1402.71</ele>
        <time>2018-09-09T11:07:41Z</time>
      </trkpt>
      <trkpt lat="45.28566" lon="6.88431">
        <ele>1402.99</ele>
        <time>2018-09-09T11:07:43Z</time>
      </trkpt>
      <trkpt lat="45.28571" lon="6.88457">
        <ele>1403.01</ele>
        <time>2018-09-09T11:07:45Z</time>
      </trkpt>
      <trkpt lat="45.28574" lon="6.88486">
        <ele>1403.92</ele>
        <time>2018-09-09T11:07:47Z</time>
      </trkpt>
      <trkpt lat="45.28577" lon="6.88515">
        <ele>1404.01</ele>
        <time>2018-09-09T11:07:49Z</time>
      </trkpt>
      <trkpt lat="45.28579" lon="6.88545">
        <ele>1404.71</ele>
        <time>2018-09-09T11:07:51Z</time>
      </trkpt>
      <trkpt lat="45.28581" lon="6.88575">
        <ele>1404.99</ele>
        <time>2018-09-09T11:07:53Z</time>
      </trkpt>
      <trkpt lat="45.28584" lon="6.88605">
        <ele>1405.92</ele>
        <time>2018-09-09T11:07:55Z</time>
      </trkpt>
      <trkpt lat="45.28587" lon="6.88633">
        <ele>1406.71</ele>
        <time>2018-09-09T11:07:57Z</time>
      </trkpt>
      <trkpt lat="45.28589" lon="6.88662">
        <ele>1407.9</ele>
        <time>2018-09-09T11:07:59Z</time>
      </trkpt>
      <trkpt lat="45.28592" lon="6.88693">
        <ele>1408</ele>
        <time>2018-09-09T11:08:01Z</time>
      </trkpt>
      <trkpt lat="45.28595" lon="6.88723">
        <ele>1408.71</ele>
        <time>2018-09-09T11:08:03Z</time>
      </trkpt>
      <trkpt lat="45.28598" lon="6.88754">
        <ele>1408.08</ele>
        <time>2018-09-09T11:08:05Z</time>
      </trkpt>
      <trkpt lat="45.28601" lon="6.88785">
        <ele>1408.72</ele>
        <time>2018-09-09T11:08:07Z</time>
      </trkpt>
      <trkpt lat="45.28603" lon="6.88817">
        <ele>1409.69</ele>
        <time>2018-09-09T11:08:09Z</time>
      </trkpt>
      <trkpt lat="45.28606" lon="6.88852">
        <ele>1410.69</ele>
        <time>2018-09-09T11:08:11Z</time>
      </trkpt>
      <trkpt lat="45.28608" lon="6.88888">
        <ele>1411.9</ele>
        <time>2018-09-09T11:08:13Z</time>
      </trkpt>
      <trkpt lat="45.28611" lon="6.88924">
        <ele>1413.61</ele>
        <time>2018-09-09T11:08:15Z</time>
      </trkpt>
      <trkpt lat="45.28614" lon="6.88959">
        <ele>1414.89</ele>
        <time>2018-09-09T11:08:17Z</time>
      </trkpt>
      <trkpt lat="45.28617" lon="6.89">
        <ele>1415.7</ele>
        <time>2018-09-09T11:08:19Z</time>
      </trkpt>
      <trkpt lat="45.28619" lon="6.89044">
        <ele>1416.69</ele>
        <time>2018-09-09T11:08:21Z</time>
      </trkpt>
      <trkpt lat="45.28622" lon="6.89089">
        <ele>1417.69</ele>
        <time>2018-09-09T11:08:23Z</time>
      </trkpt>
      <trkpt lat="45.28625" lon="6.89135">
        <ele>1418.69</ele>
        <time>2018-09-09T11:08:25Z</time>
      </trkpt>
      <trkpt lat="45.28627" lon="6.89183">
        <ele>1420.6</ele>
        <time>2018-09-09T11:08:27Z</time>
      </trkpt>
      <trkpt lat="45.28631" lon="6.89234">
        <ele>1421.68</ele>
        <time>2018-09-09T11:08:29Z</time>
      </trkpt>
      <trkpt lat="45.28632" lon="6.8926">
        <ele>1421.91</ele>
        <time>2018-09-09T11:08:30Z</time>
      </trkpt>
      <trkpt lat="45.28634" lon="6.89287">
        <ele>1422.68</ele>
        <time>2018-09-09T11:08:31Z</time>
      </trkpt>
      <trkpt lat="45.28636" lon="6.89313">
        <ele>1422.92</ele>
        <time>2018-09-09T11:08:32Z</time>
      </trkpt>
      <trkpt lat="45.28637" lon="6.89339">
        <ele>1423.69</ele>
        <time>2018-09-09T11:08:33Z</time>
      </trkpt>
      <trkpt lat="45.28637" lon="6.89366">
        <ele>1423.92</ele>
        <time>2018-09-09T11:08:34Z</time>
      </trkpt>
      <trkpt lat="45.28636" lon="6.89392">
        <ele>1423.99</ele>
        <time>2018-09-09T11:08:35Z</time>
      </trkpt>
      <trkpt lat="45.28635" lon="6.89418">
        <ele>1424.01</ele>
        <time>2018-09-09T11:08:36Z</time>
      </trkpt>
      <trkpt lat="45.28634" lon="6.89444">
        <ele>1424.71</ele>
        <time>2018-09-09T11:08:37Z</time>
      </trkpt>
      <trkpt lat="45.28633" lon="6.8947">
        <ele>1424.92</ele>
        <time>2018-09-09T11:08:38Z</time>
      </trkpt>
      <trkpt lat="45.28633" lon="6.89495">
        <ele>1424.99</ele>
        <time>2018-09-09T11:08:39Z</time>
      </trkpt>
      <trkpt lat="45.28631" lon="6.89546">
        <ele>1425.71</ele>
        <time>2018-09-09T11:08:41Z</time>
      </trkpt>
      <trkpt lat="45.28628" lon="6.89596">
        <ele>1427.6</ele>
        <time>2018-09-09T11:08:43Z</time>
      </trkpt>
      <trkpt lat="45.28627" lon="6.89623">
        <ele>1427.89</ele>
        <time>2018-09-09T11:08:44Z</time>
      </trkpt>
      <trkpt lat="45.28625" lon="6.89649">
        <ele>1428.68</ele>
        <time>2018-09-09T11:08:45Z</time>
      </trkpt>
      <trkpt lat="45.28624" lon="6.89675">
        <ele>1429.61</ele>
        <time>2018-09-09T11:08:46Z</time>
      </trkpt>
      <trkpt lat="45.28623" lon="6.89701">
        <ele>1430.59</ele>
        <time>2018-09-09T11:08:47Z</time>
      </trkpt>
      <trkpt lat="45.28628" lon="6.8975">
        <ele>1431.68</ele>
        <time>2018-09-09T11:08:49Z</time>
      </trkpt>
      <trkpt lat="45.28639" lon="6.89798">
        <ele>1431.98</ele>
        <time>2018-09-09T11:08:51Z</time>
      </trkpt>
      <trkpt lat="45.28656" lon="6.89843">
        <ele>1432.01</ele>
        <time>2018-09-09T11:08:53Z</time>
      </trkpt>
      <trkpt lat="45.28676" lon="6.89887">
        <ele>1432.71</ele>
        <time>2018-09-09T11:08:55Z</time>
      </trkpt>
      <trkpt lat="45.28685" lon="6.8991">
        <ele>1432.92</ele>
        <time>2018-09-09T11:08:56Z</time>
      </trkpt>
      <trkpt lat="45.28693" lon="6.89934">
        <ele>1432.99</ele>
        <time>2018-09-09T11:08:57Z</time>
      </trkpt>
      <trkpt lat="45.28701" lon="6.89958">
        <ele>1433.71</ele>
        <time>2018-09-09T11:08:58Z</time>
      </trkpt>
      <trkpt lat="45.28707" lon="6.89983">
        <ele>1433.92</ele>
        <time>2018-09-09T11:08:59Z</time>
      </trkpt>
      <trkpt lat="45.28713" lon="6.90008">
        <ele>1434.69</ele>
        <time>2018-09-09T11:09:00Z</time>
      </trkpt>
      <trkpt lat="45.2872" lon="6.90033">
        <ele>1434.92</ele>
        <time>2018-09-09T11:09:01Z</time>
      </trkpt>
      <trkpt lat="45.28726" lon="6.90058">
        <ele>1435.69</ele>
        <time>2018-09-09T11:09:02Z</time>
      </trkpt>
      <trkpt lat="45.28732" lon="6.90082">
        <ele>1436.62</ele>
        <time>2018-09-09T11:09:03Z</time>
      </trkpt>
      <trkpt lat="45.28738" lon="6.90107">
        <ele>1437.6</ele>
        <time>2018-09-09T11:09:04Z</time>
      </trkpt>
      <trkpt lat="45.28755" lon="6.90152">
        <ele>1438.89</ele>
        <time>2018-09-09T11:09:06Z</time>
      </trkpt>
      <trkpt lat="45.28766" lon="6.90172">
        <ele>1439.68</ele>
        <time>2018-09-09T11:09:07Z</time>
      </trkpt>
      <trkpt lat="45.28787" lon="6.90202">
        <ele>1440.19</ele>
        <time>2018-09-09T11:09:09Z</time>
      </trkpt>
      <trkpt lat="45.28806" lon="6.90216">
        <ele>1440.03</ele>
        <time>2018-09-09T11:09:11Z</time>
      </trkpt>
      <trkpt lat="45.2882" lon="6.90241">
        <ele>1440.93</ele>
        <time>2018-09-09T11:09:14Z</time>
      </trkpt>
      <trkpt lat="45.28836" lon="6.90264">
        <ele>1441.92</ele>
        <time>2018-09-09T11:09:17Z</time>
      </trkpt>
      <trkpt lat="45.28851" lon="6.90294">
        <ele>1443.9</ele>
        <time>2018-09-09T11:09:20Z</time>
      </trkpt>
      <trkpt lat="45.28865" lon="6.90327">
        <ele>1444.98</ele>
        <time>2018-09-09T11:09:23Z</time>
      </trkpt>
      <trkpt lat="45.28876" lon="6.90355">
        <ele>1446.9</ele>
        <time>2018-09-09T11:09:26Z</time>
      </trkpt>
      <trkpt lat="45.28887" lon="6.90381">
        <ele>1448.62</ele>
        <time>2018-09-09T11:09:29Z</time>
      </trkpt>
      <trkpt lat="45.28899" lon="6.90409">
        <ele>1449.7</ele>
        <time>2018-09-09T11:09:32Z</time>
      </trkpt>
      <trkpt lat="45.28909" lon="6.90434">
        <ele>1451.68</ele>
        <time>2018-09-09T11:09:35Z</time>
      </trkpt>
      <trkpt lat="45.2892" lon="6.90458">
        <ele>1453.62</ele>
        <time>2018-09-09T11:09:38Z</time>
      </trkpt>
      <trkpt lat="45.28931" lon="6.90486">
        <ele>1454.98</ele>
        <time>2018-09-09T11:09:41Z</time>
      </trkpt>
      <trkpt lat="45.2894" lon="6.90509">
        <ele>1455.92</ele>
        <time>2018-09-09T11:09:43Z</time>
      </trkpt>
      <trkpt lat="45.28953" lon="6.90534">
        <ele>1457.62</ele>
        <time>2018-09-09T11:09:45Z</time>
      </trkpt>
      <trkpt lat="45.28969" lon="6.90562">
        <ele>1459.59</ele>
        <time>2018-09-09T11:09:47Z</time>
      </trkpt>
      <trkpt lat="45.28987" lon="6.90591">
        <ele>1459.98</ele>
        <time>2018-09-09T11:09:49Z</time>
      </trkpt>
      <trkpt lat="45.29006" lon="6.90618">
        <ele>1461.62</ele>
        <time>2018-09-09T11:09:51Z</time>
      </trkpt>
      <trkpt lat="45.29024" lon="6.9065">
        <ele>1461.98</ele>
        <time>2018-09-09T11:09:53Z</time>
      </trkpt>
      <trkpt lat="45.29036" lon="6.9069">
        <ele>1462.01</ele>
        <time>2018-09-09T11:09:55Z</time>
      </trkpt>
      <trkpt lat="45.29041" lon="6.90738">
        <ele>1462.22</ele>
        <time>2018-09-09T11:09:57Z</time>
      </trkpt>
      <trkpt lat="45.29041" lon="6.90786">
        <ele>1462.94</ele>
        <time>2018-09-09T11:09:59Z</time>
      </trkpt>
      <trkpt lat="45.29041" lon="6.90837">
        <ele>1463.71</ele>
        <time>2018-09-09T11:10:01Z</time>
      </trkpt>
      <trkpt lat="45.29042" lon="6.90887">
        <ele>1463.99</ele>
        <time>2018-09-09T11:10:03Z</time>
      </trkpt>
      <trkpt lat="45.29043" lon="6.90936">
        <ele>1464.01</ele>
        <time>2018-09-09T11:10:05Z</time>
      </trkpt>
      <trkpt lat="45.29042" lon="6.90984">
        <ele>1464.71</ele>
        <time>2018-09-09T11:10:07Z</time>
      </trkpt>
      <trkpt lat="45.29042" lon="6.91031">
        <ele>1464.99</ele>
        <time>2018-09-09T11:10:09Z</time>
      </trkpt>
      <trkpt lat="45.29041" lon="6.91076">
        <ele>1465.01</ele>
        <time>2018-09-09T11:10:11Z</time>
      </trkpt>
      <trkpt lat="45.29042" lon="6.91118">
        <ele>1464.1</ele>
        <time>2018-09-09T11:10:13Z</time>
      </trkpt>
      <trkpt lat="45.29041" lon="6.91155">
        <ele>1463.11</ele>
        <time>2018-09-09T11:10:15Z</time>
      </trkpt>
      <trkpt lat="45.29042" lon="6.91188">
        <ele>1463.02</ele>
        <time>2018-09-09T11:10:17Z</time>
      </trkpt>
      <trkpt lat="45.29043" lon="6.91217">
        <ele>1463.02</ele>
        <time>2018-09-09T11:10:19Z</time>
      </trkpt>
      <trkpt lat="45.29042" lon="6.91244">
        <ele>1463.02</ele>
        <time>2018-09-09T11:10:21Z</time>
      </trkpt>
      <trkpt lat="45.2904" lon="6.91272">
        <ele>1463.02</ele>
        <time>2018-09-09T11:10:24Z</time>
      </trkpt>
      <trkpt lat="45.29034" lon="6.91298">
        <ele>1463.02</ele>
        <time>2018-09-09T11:10:27Z</time>
      </trkpt>
      <trkpt lat="45.29033" lon="6.91325">
        <ele>1463.02</ele>
        <time>2018-09-09T11:10:29Z</time>
      </trkpt>
      <trkpt lat="45.29038" lon="6.91355">
        <ele>1463.02</ele>
        <time>2018-09-09T11:10:31Z</time>
      </trkpt>
      <trkpt lat="45.2905" lon="6.91387">
        <ele>1463.02</ele>
        <time>2018-09-09T11:10:33Z</time>
      </trkpt>
      <trkpt lat="45.29067" lon="6.91416">
        <ele>1463.71</ele>
        <time>2018-09-09T11:10:35Z</time>
      </trkpt>
      <trkpt lat="45.29085" lon="6.91445">
        <ele>1464.69</ele>
        <time>2018-09-09T11:10:37Z</time>
      </trkpt>
      <trkpt lat="45.29104" lon="6.91473">
        <ele>1465.69</ele>
        <time>2018-09-09T11:10:39Z</time>
      </trkpt>
      <trkpt lat="45.29121" lon="6.91502">
        <ele>1466.69</ele>
        <time>2018-09-09T11:10:41Z</time>
      </trkpt>
      <trkpt lat="45.29132" lon="6.91536">
        <ele>1467.69</ele>
        <time>2018-09-09T11:10:43Z</time>
      </trkpt>
      <trkpt lat="45.29142" lon="6.91573">
        <ele>1468.9</ele>
        <time>2018-09-09T11:10:45Z</time>
      </trkpt>
      <trkpt lat="45.29146" lon="6.9161">
        <ele>1470.61</ele>
        <time>2018-09-09T11:10:47Z</time>
      </trkpt>
      <trkpt lat="45.29146" lon="6.9165">
        <ele>1470.98</ele>
        <time>2018-09-09T11:10:49Z</time>
      </trkpt>
      <trkpt lat="45.2915" lon="6.91691">
        <ele>1471.71</ele>
        <time>2018-09-09T11:10:51Z</time>
      </trkpt>
      <trkpt lat="45.29151" lon="6.91732">
        <ele>1471.78</ele>
        <time>2018-09-09T11:10:53Z</time>
      </trkpt>
      <trkpt lat="45.29151" lon="6.91774">
        <ele>1472.69</ele>
        <time>2018-09-09T11:10:55Z</time>
      </trkpt>
      <trkpt lat="45.29152" lon="6.91815">
        <ele>1473.9</ele>
        <time>2018-09-09T11:10:57Z</time>
      </trkpt>
      <trkpt lat="45.29157" lon="6.91855">
        <ele>1476.52</ele>
        <time>2018-09-09T11:10:59Z</time>
      </trkpt>
      <trkpt lat="45.29165" lon="6.91896">
        <ele>1479.49</ele>
        <time>2018-09-09T11:11:01Z</time>
      </trkpt>
      <trkpt lat="45.29178" lon="6.91933">
        <ele>1482.28</ele>
        <time>2018-09-09T11:11:03Z</time>
      </trkpt>
      <trkpt lat="45.29195" lon="6.91968">
        <ele>1485.47</ele>
        <time>2018-09-09T11:11:05Z</time>
      </trkpt>
      <trkpt lat="45.29216" lon="6.92">
        <ele>1488.49</ele>
        <time>2018-09-09T11:11:07Z</time>
      </trkpt>
      <trkpt lat="45.29243" lon="6.9203">
        <ele>1492.89</ele>
        <time>2018-09-09T11:11:09Z</time>
      </trkpt>
      <trkpt lat="45.29265" lon="6.92062">
        <ele>1496.43</ele>
        <time>2018-09-09T11:11:11Z</time>
      </trkpt>
      <trkpt lat="45.29283" lon="6.92098">
        <ele>1500.18</ele>
        <time>2018-09-09T11:11:13Z</time>
      </trkpt>
      <trkpt lat="45.29301" lon="6.92138">
        <ele>1504.16</ele>
        <time>2018-09-09T11:11:15Z</time>
      </trkpt>
      <trkpt lat="45.29313" lon="6.92181">
        <ele>1507.46</ele>
        <time>2018-09-09T11:11:17Z</time>
      </trkpt>
      <trkpt lat="45.2932" lon="6.9222">
        <ele>1510.48</ele>
        <time>2018-09-09T11:11:19Z</time>
      </trkpt>
      <trkpt lat="45.29333" lon="6.92245">
        <ele>1512.58</ele>
        <time>2018-09-09T11:11:21Z</time>
      </trkpt>
      <trkpt lat="45.29355" lon="6.92249">
        <ele>1513.89</ele>
        <time>2018-09-09T11:11:23Z</time>
      </trkpt>
      <trkpt lat="45.29371" lon="6.92276">
        <ele>1516.66</ele>
        <time>2018-09-09T11:11:26Z</time>
      </trkpt>
      <trkpt lat="45.29362" lon="6.92304">
        <ele>1519.29</ele>
        <time>2018-09-09T11:11:28Z</time>
      </trkpt>
      <trkpt lat="45.29347" lon="6.92338">
        <ele>1522.26</ele>
        <time>2018-09-09T11:11:30Z</time>
      </trkpt>
      <trkpt lat="45.29336" lon="6.92375">
        <ele>1524.56</ele>
        <time>2018-09-09T11:11:32Z</time>
      </trkpt>
      <trkpt lat="45.29341" lon="6.9241">
        <ele>1527.28</ele>
        <time>2018-09-09T11:11:34Z</time>
      </trkpt>
      <trkpt lat="45.29362" lon="6.92438">
        <ele>1531.17</ele>
        <time>2018-09-09T11:11:36Z</time>
      </trkpt>
      <trkpt lat="45.29387" lon="6.92451">
        <ele>1533.34</ele>
        <time>2018-09-09T11:11:38Z</time>
      </trkpt>
      <trkpt lat="45.29411" lon="6.9245">
        <ele>1534.65</ele>
        <time>2018-09-09T11:11:40Z</time>
      </trkpt>
      <trkpt lat="45.29416" lon="6.92486">
        <ele>1539.26</ele>
        <time>2018-09-09T11:11:43Z</time>
      </trkpt>
      <trkpt lat="45.29419" lon="6.92524">
        <ele>1542.47</ele>
        <time>2018-09-09T11:11:45Z</time>
      </trkpt>
      <trkpt lat="45.29421" lon="6.92568">
        <ele>1544.79</ele>
        <time>2018-09-09T11:11:47Z</time>
      </trkpt>
      <trkpt lat="45.29411" lon="6.92607">
        <ele>1548.7</ele>
        <time>2018-09-09T11:11:49Z</time>
      </trkpt>
      <trkpt lat="45.29412" lon="6.92641">
        <ele>1551.51</ele>
        <time>2018-09-09T11:11:51Z</time>
      </trkpt>
      <trkpt lat="45.29422" lon="6.92667">
        <ele>1552.88</ele>
        <time>2018-09-09T11:11:53Z</time>
      </trkpt>
      <trkpt lat="45.29442" lon="6.92656">
        <ele>1555.77</ele>
        <time>2018-09-09T11:11:54Z</time>
      </trkpt>
      <trkpt lat="45.29463" lon="6.9265">
        <ele>1558.51</ele>
        <time>2018-09-09T11:11:56Z</time>
      </trkpt>
      <trkpt lat="45.29477" lon="6.92667">
        <ele>1560.58</ele>
        <time>2018-09-09T11:11:58Z</time>
      </trkpt>
      <trkpt lat="45.29484" lon="6.92701">
        <ele>1563.29</ele>
        <time>2018-09-09T11:12:00Z</time>
      </trkpt>
      <trkpt lat="45.29486" lon="6.92737">
        <ele>1565.56</ele>
        <time>2018-09-09T11:12:02Z</time>
      </trkpt>
      <trkpt lat="45.29466" lon="6.92768">
        <ele>1568.07</ele>
        <time>2018-09-09T11:12:04Z</time>
      </trkpt>
      <trkpt lat="45.2945" lon="6.92806">
        <ele>1572.15</ele>
        <time>2018-09-09T11:12:06Z</time>
      </trkpt>
      <trkpt lat="45.2943" lon="6.92839">
        <ele>1576.16</ele>
        <time>2018-09-09T11:12:08Z</time>
      </trkpt>
      <trkpt lat="45.29409" lon="6.92869">
        <ele>1580.16</ele>
        <time>2018-09-09T11:12:10Z</time>
      </trkpt>
      <trkpt lat="45.29388" lon="6.92901">
        <ele>1584.16</ele>
        <time>2018-09-09T11:12:12Z</time>
      </trkpt>
      <trkpt lat="45.29373" lon="6.92939">
        <ele>1587.46</ele>
        <time>2018-09-09T11:12:14Z</time>
      </trkpt>
      <trkpt lat="45.29368" lon="6.92983">
        <ele>1591.18</ele>
        <time>2018-09-09T11:12:16Z</time>
      </trkpt>
      <trkpt lat="45.29372" lon="6.93031">
        <ele>1595.16</ele>
        <time>2018-09-09T11:12:18Z</time>
      </trkpt>
      <trkpt lat="45.29377" lon="6.93077">
        <ele>1597.34</ele>
        <time>2018-09-09T11:12:20Z</time>
      </trkpt>
      <trkpt lat="45.29385" lon="6.93121">
        <ele>1599.56</ele>
        <time>2018-09-09T11:12:22Z</time>
      </trkpt>
      <trkpt lat="45.29398" lon="6.93166">
        <ele>1602.49</ele>
        <time>2018-09-09T11:12:24Z</time>
      </trkpt>
      <trkpt lat="45.29412" lon="6.93204">
        <ele>1604.58</ele>
        <time>2018-09-09T11:12:26Z</time>
      </trkpt>
      <trkpt lat="45.29425" lon="6.93236">
        <ele>1606.59</ele>
        <time>2018-09-09T11:12:28Z</time>
      </trkpt>
      <trkpt lat="45.29435" lon="6.93259">
        <ele>1608.59</ele>
        <time>2018-09-09T11:12:30Z</time>
      </trkpt>
      <trkpt lat="45.29444" lon="6.93284">
        <ele>1610.89</ele>
        <time>2018-09-09T11:12:33Z</time>
      </trkpt>
      <trkpt lat="45.2946" lon="6.93311">
        <ele>1613.62</ele>
        <time>2018-09-09T11:12:37Z</time>
      </trkpt>
      <trkpt lat="45.29472" lon="6.93334">
        <ele>1615.59</ele>
        <time>2018-09-09T11:12:39Z</time>
      </trkpt>
      <trkpt lat="45.29491" lon="6.93361">
        <ele>1618.5</ele>
        <time>2018-09-09T11:12:41Z</time>
      </trkpt>
      <trkpt lat="45.29512" lon="6.93385">
        <ele>1620.58</ele>
        <time>2018-09-09T11:12:43Z</time>
      </trkpt>
      <trkpt lat="45.29537" lon="6.93408">
        <ele>1623.5</ele>
        <time>2018-09-09T11:12:45Z</time>
      </trkpt>
      <trkpt lat="45.29562" lon="6.93429">
        <ele>1626.28</ele>
        <time>2018-09-09T11:12:47Z</time>
      </trkpt>
      <trkpt lat="45.2959" lon="6.93442">
        <ele>1629.26</ele>
        <time>2018-09-09T11:12:49Z</time>
      </trkpt>
      <trkpt lat="45.29618" lon="6.93434">
        <ele>1632.26</ele>
        <time>2018-09-09T11:12:51Z</time>
      </trkpt>
      <trkpt lat="45.29642" lon="6.9341">
        <ele>1634.56</ele>
        <time>2018-09-09T11:12:53Z</time>
      </trkpt>
      <trkpt lat="45.29662" lon="6.93378">
        <ele>1636.58</ele>
        <time>2018-09-09T11:12:55Z</time>
      </trkpt>
      <trkpt lat="45.29683" lon="6.93348">
        <ele>1638.59</ele>
        <time>2018-09-09T11:12:57Z</time>
      </trkpt>
      <trkpt lat="45.29709" lon="6.93327">
        <ele>1640.59</ele>
        <time>2018-09-09T11:12:59Z</time>
      </trkpt>
      <trkpt lat="45.29738" lon="6.93324">
        <ele>1642.59</ele>
        <time>2018-09-09T11:13:01Z</time>
      </trkpt>
      <trkpt lat="45.29767" lon="6.93344">
        <ele>1644.59</ele>
        <time>2018-09-09T11:13:03Z</time>
      </trkpt>
      <trkpt lat="45.29787" lon="6.93377">
        <ele>1646.59</ele>
        <time>2018-09-09T11:13:05Z</time>
      </trkpt>
      <trkpt lat="45.29796" lon="6.93421">
        <ele>1648.59</ele>
        <time>2018-09-09T11:13:07Z</time>
      </trkpt>
      <trkpt lat="45.29795" lon="6.9347">
        <ele>1650.38</ele>
        <time>2018-09-09T11:13:09Z</time>
      </trkpt>
      <trkpt lat="45.29786" lon="6.93515">
        <ele>1651.87</ele>
        <time>2018-09-09T11:13:11Z</time>
      </trkpt>
      <trkpt lat="45.29771" lon="6.93549">
        <ele>1653.61</ele>
        <time>2018-09-09T11:13:13Z</time>
      </trkpt>
      <trkpt lat="45.29747" lon="6.93569">
        <ele>1655.59</ele>
        <time>2018-09-09T11:13:15Z</time>
      </trkpt>
      <trkpt lat="45.29718" lon="6.93579">
        <ele>1657.59</ele>
        <time>2018-09-09T11:13:17Z</time>
      </trkpt>
      <trkpt lat="45.29694" lon="6.93596">
        <ele>1658.89</ele>
        <time>2018-09-09T11:13:19Z</time>
      </trkpt>
      <trkpt lat="45.29684" lon="6.93625">
        <ele>1659.91</ele>
        <time>2018-09-09T11:13:21Z</time>
      </trkpt>
      <trkpt lat="45.29691" lon="6.93659">
        <ele>1661.62</ele>
        <time>2018-09-09T11:13:23Z</time>
      </trkpt>
      <trkpt lat="45.2971" lon="6.93684">
        <ele>1662.89</ele>
        <time>2018-09-09T11:13:25Z</time>
      </trkpt>
      <trkpt lat="45.29732" lon="6.93695">
        <ele>1663</ele>
        <time>2018-09-09T11:13:27Z</time>
      </trkpt>
      <trkpt lat="45.29764" lon="6.93682">
        <ele>1663.01</ele>
        <time>2018-09-09T11:13:29Z</time>
      </trkpt>
      <trkpt lat="45.29774" lon="6.93651">
        <ele>1664.41</ele>
        <time>2018-09-09T11:13:30Z</time>
      </trkpt>
      <trkpt lat="45.29789" lon="6.93633">
        <ele>1666.23</ele>
        <time>2018-09-09T11:13:31Z</time>
      </trkpt>
      <trkpt lat="45.29807" lon="6.93625">
        <ele>1667.48</ele>
        <time>2018-09-09T11:13:32Z</time>
      </trkpt>
      <trkpt lat="45.29838" lon="6.93603">
        <ele>1670.49</ele>
        <time>2018-09-09T11:13:34Z</time>
      </trkpt>
      <trkpt lat="45.29862" lon="6.93572">
        <ele>1674.19</ele>
        <time>2018-09-09T11:13:36Z</time>
      </trkpt>
      <trkpt lat="45.29885" lon="6.93548">
        <ele>1677.25</ele>
        <time>2018-09-09T11:13:38Z</time>
      </trkpt>
      <trkpt lat="45.2991" lon="6.93537">
        <ele>1679.56</ele>
        <time>2018-09-09T11:13:40Z</time>
      </trkpt>
      <trkpt lat="45.29934" lon="6.93551">
        <ele>1681.58</ele>
        <time>2018-09-09T11:13:42Z</time>
      </trkpt>
      <trkpt lat="45.29948" lon="6.93585">
        <ele>1683.59</ele>
        <time>2018-09-09T11:13:44Z</time>
      </trkpt>
      <trkpt lat="45.29958" lon="6.93629">
        <ele>1686.5</ele>
        <time>2018-09-09T11:13:46Z</time>
      </trkpt>
      <trkpt lat="45.29969" lon="6.93676">
        <ele>1689.28</ele>
        <time>2018-09-09T11:13:48Z</time>
      </trkpt>
      <trkpt lat="45.29979" lon="6.93725">
        <ele>1692.47</ele>
        <time>2018-09-09T11:13:50Z</time>
      </trkpt>
      <trkpt lat="45.29982" lon="6.93774">
        <ele>1695.28</ele>
        <time>2018-09-09T11:13:52Z</time>
      </trkpt>
      <trkpt lat="45.29973" lon="6.93821">
        <ele>1698.26</ele>
        <time>2018-09-09T11:13:54Z</time>
      </trkpt>
      <trkpt lat="45.29968" lon="6.93846">
        <ele>1699.49</ele>
        <time>2018-09-09T11:13:55Z</time>
      </trkpt>
      <trkpt lat="45.29952" lon="6.93891">
        <ele>1702.49</ele>
        <time>2018-09-09T11:13:57Z</time>
      </trkpt>
      <trkpt lat="45.29945" lon="6.93914">
        <ele>1703.56</ele>
        <time>2018-09-09T11:13:58Z</time>
      </trkpt>
      <trkpt lat="45.29929" lon="6.9396">
        <ele>1706.28</ele>
        <time>2018-09-09T11:14:00Z</time>
      </trkpt>
      <trkpt lat="45.29921" lon="6.94006">
        <ele>1707.65</ele>
        <time>2018-09-09T11:14:02Z</time>
      </trkpt>
      <trkpt lat="45.29929" lon="6.94052">
        <ele>1708.89</ele>
        <time>2018-09-09T11:14:04Z</time>
      </trkpt>
      <trkpt lat="45.29952" lon="6.94092">
        <ele>1710.61</ele>
        <time>2018-09-09T11:14:06Z</time>
      </trkpt>
      <trkpt lat="45.29967" lon="6.94111">
        <ele>1711.59</ele>
        <time>2018-09-09T11:14:07Z</time>
      </trkpt>
      <trkpt lat="45.29981" lon="6.9413">
        <ele>1711.89</ele>
        <time>2018-09-09T11:14:08Z</time>
      </trkpt>
      <trkpt lat="45.29996" lon="6.94149">
        <ele>1712.68</ele>
        <time>2018-09-09T11:14:09Z</time>
      </trkpt>
      <trkpt lat="45.3001" lon="6.94166">
        <ele>1714.31</ele>
        <time>2018-09-09T11:14:10Z</time>
      </trkpt>
      <trkpt lat="45.30024" lon="6.94185">
        <ele>1715.5</ele>
        <time>2018-09-09T11:14:11Z</time>
      </trkpt>
      <trkpt lat="45.30037" lon="6.94206">
        <ele>1715.86</ele>
        <time>2018-09-09T11:14:12Z</time>
      </trkpt>
      <trkpt lat="45.30048" lon="6.94229">
        <ele>1716.67</ele>
        <time>2018-09-09T11:14:13Z</time>
      </trkpt>
      <trkpt lat="45.30064" lon="6.94275">
        <ele>1717.89</ele>
        <time>2018-09-09T11:14:15Z</time>
      </trkpt>
      <trkpt lat="45.3007" lon="6.943">
        <ele>1718.68</ele>
        <time>2018-09-09T11:14:16Z</time>
      </trkpt>
      <trkpt lat="45.30075" lon="6.94326">
        <ele>1720.31</ele>
        <time>2018-09-09T11:14:17Z</time>
      </trkpt>
      <trkpt lat="45.30079" lon="6.94353">
        <ele>1721.5</ele>
        <time>2018-09-09T11:14:18Z</time>
      </trkpt>
      <trkpt lat="45.3008" lon="6.94381">
        <ele>1723.26</ele>
        <time>2018-09-09T11:14:19Z</time>
      </trkpt>
      <trkpt lat="45.30081" lon="6.94409">
        <ele>1723.79</ele>
        <time>2018-09-09T11:14:20Z</time>
      </trkpt>
      <trkpt lat="45.30083" lon="6.94439">
        <ele>1724.65</ele>
        <time>2018-09-09T11:14:21Z</time>
      </trkpt>
      <trkpt lat="45.30085" lon="6.94469">
        <ele>1726.3</ele>
        <time>2018-09-09T11:14:22Z</time>
      </trkpt>
      <trkpt lat="45.30086" lon="6.94498">
        <ele>1727.5</ele>
        <time>2018-09-09T11:14:23Z</time>
      </trkpt>
      <trkpt lat="45.30088" lon="6.94528">
        <ele>1728.56</ele>
        <time>2018-09-09T11:14:24Z</time>
      </trkpt>
      <trkpt lat="45.30089" lon="6.94557">
        <ele>1729.58</ele>
        <time>2018-09-09T11:14:25Z</time>
      </trkpt>
      <trkpt lat="45.30089" lon="6.94587">
        <ele>1729.88</ele>
        <time>2018-09-09T11:14:26Z</time>
      </trkpt>
      <trkpt lat="45.30088" lon="6.94617">
        <ele>1729.98</ele>
        <time>2018-09-09T11:14:27Z</time>
      </trkpt>
      <trkpt lat="45.30085" lon="6.94646">
        <ele>1730.7</ele>
        <time>2018-09-09T11:14:28Z</time>
      </trkpt>
      <trkpt lat="45.3008" lon="6.94675">
        <ele>1732.32</ele>
        <time>2018-09-09T11:14:29Z</time>
      </trkpt>
      <trkpt lat="45.30073" lon="6.94704">
        <ele>1732.81</ele>
        <time>2018-09-09T11:14:30Z</time>
      </trkpt>
      <trkpt lat="45.30067" lon="6.9473">
        <ele>1733.65</ele>
        <time>2018-09-09T11:14:31Z</time>
      </trkpt>
      <trkpt lat="45.3006" lon="6.94757">
        <ele>1735.31</ele>
        <time>2018-09-09T11:14:32Z</time>
      </trkpt>
      <trkpt lat="45.30052" lon="6.94783">
        <ele>1737.2</ele>
        <time>2018-09-09T11:14:33Z</time>
      </trkpt>
      <trkpt lat="45.30043" lon="6.94807">
        <ele>1737.77</ele>
        <time>2018-09-09T11:14:34Z</time>
      </trkpt>
      <trkpt lat="45.30033" lon="6.94832">
        <ele>1738.64</ele>
        <time>2018-09-09T11:14:35Z</time>
      </trkpt>
      <trkpt lat="45.30024" lon="6.94857">
        <ele>1740.3</ele>
        <time>2018-09-09T11:14:36Z</time>
      </trkpt>
      <trkpt lat="45.30017" lon="6.94881">
        <ele>1741.5</ele>
        <time>2018-09-09T11:14:37Z</time>
      </trkpt>
      <trkpt lat="45.30005" lon="6.94927">
        <ele>1741.27</ele>
        <time>2018-09-09T11:14:39Z</time>
      </trkpt>
      <trkpt lat="45.30007" lon="6.94973">
        <ele>1739.22</ele>
        <time>2018-09-09T11:14:41Z</time>
      </trkpt>
      <trkpt lat="45.30017" lon="6.95024">
        <ele>1738.33</ele>
        <time>2018-09-09T11:14:43Z</time>
      </trkpt>
      <trkpt lat="45.30023" lon="6.95053">
        <ele>1736.71</ele>
        <time>2018-09-09T11:14:44Z</time>
      </trkpt>
      <trkpt lat="45.30029" lon="6.9508">
        <ele>1735.52</ele>
        <time>2018-09-09T11:14:45Z</time>
      </trkpt>
      <trkpt lat="45.30035" lon="6.95108">
        <ele>1735.17</ele>
        <time>2018-09-09T11:14:46Z</time>
      </trkpt>
      <trkpt lat="45.30042" lon="6.95136">
        <ele>1735.06</ele>
        <time>2018-09-09T11:14:47Z</time>
      </trkpt>
      <trkpt lat="45.30049" lon="6.95164">
        <ele>1735.03</ele>
        <time>2018-09-09T11:14:48Z</time>
      </trkpt>
      <trkpt lat="45.30054" lon="6.95192">
        <ele>1734.32</ele>
        <time>2018-09-09T11:14:49Z</time>
      </trkpt>
      <trkpt lat="45.30061" lon="6.95218">
        <ele>1734.11</ele>
        <time>2018-09-09T11:14:50Z</time>
      </trkpt>
      <trkpt lat="45.30066" lon="6.95244">
        <ele>1733.34</ele>
        <time>2018-09-09T11:14:51Z</time>
      </trkpt>
      <trkpt lat="45.30081" lon="6.95285">
        <ele>1730.52</ele>
        <time>2018-09-09T11:14:53Z</time>
      </trkpt>
      <trkpt lat="45.30107" lon="6.95309">
        <ele>1727.75</ele>
        <time>2018-09-09T11:14:55Z</time>
      </trkpt>
      <trkpt lat="45.30143" lon="6.9531">
        <ele>1723.86</ele>
        <time>2018-09-09T11:14:57Z</time>
      </trkpt>
      <trkpt lat="45.30161" lon="6.95304">
        <ele>1722.57</ele>
        <time>2018-09-09T11:14:58Z</time>
      </trkpt>
      <trkpt lat="45.30181" lon="6.95298">
        <ele>1720.78</ele>
        <time>2018-09-09T11:14:59Z</time>
      </trkpt>
      <trkpt lat="45.30199" lon="6.95295">
        <ele>1718.84</ele>
        <time>2018-09-09T11:15:00Z</time>
      </trkpt>
      <trkpt lat="45.30231" lon="6.95303">
        <ele>1716.48</ele>
        <time>2018-09-09T11:15:02Z</time>
      </trkpt>
      <trkpt lat="45.30259" lon="6.95329">
        <ele>1715.36</ele>
        <time>2018-09-09T11:15:04Z</time>
      </trkpt>
      <trkpt lat="45.30272" lon="6.95348">
        <ele>1715.12</ele>
        <time>2018-09-09T11:15:05Z</time>
      </trkpt>
      <trkpt lat="45.30276" lon="6.95409">
        <ele>1712.92</ele>
        <time>2018-09-09T11:15:07Z</time>
      </trkpt>
      <trkpt lat="45.3028" lon="6.95438">
        <ele>1711.59</ele>
        <time>2018-09-09T11:15:08Z</time>
      </trkpt>
      <trkpt lat="45.30285" lon="6.95467">
        <ele>1711.19</ele>
        <time>2018-09-09T11:15:09Z</time>
      </trkpt>
      <trkpt lat="45.30289" lon="6.95494">
        <ele>1709.67</ele>
        <time>2018-09-09T11:15:10Z</time>
      </trkpt>
      <trkpt lat="45.30296" lon="6.95518">
        <ele>1709.21</ele>
        <time>2018-09-09T11:15:11Z</time>
      </trkpt>
      <trkpt lat="45.30306" lon="6.95542">
        <ele>1707.67</ele>
        <time>2018-09-09T11:15:12Z</time>
      </trkpt>
      <trkpt lat="45.30317" lon="6.95564">
        <ele>1706.51</ele>
        <time>2018-09-09T11:15:13Z</time>
      </trkpt>
      <trkpt lat="45.3033" lon="6.95584">
        <ele>1704.76</ele>
        <time>2018-09-09T11:15:14Z</time>
      </trkpt>
      <trkpt lat="45.30345" lon="6.95602">
        <ele>1703.54</ele>
        <time>2018-09-09T11:15:15Z</time>
      </trkpt>
      <trkpt lat="45.30363" lon="6.95616">
        <ele>1703.17</ele>
        <time>2018-09-09T11:15:16Z</time>
      </trkpt>
      <trkpt lat="45.30382" lon="6.95627">
        <ele>1702.36</ele>
        <time>2018-09-09T11:15:17Z</time>
      </trkpt>
      <trkpt lat="45.30402" lon="6.95637">
        <ele>1700.72</ele>
        <time>2018-09-09T11:15:18Z</time>
      </trkpt>
      <trkpt lat="45.30422" lon="6.95645">
        <ele>1698.83</ele>
        <time>2018-09-09T11:15:19Z</time>
      </trkpt>
      <trkpt lat="45.30441" lon="6.95654">
        <ele>1697.56</ele>
        <time>2018-09-09T11:15:20Z</time>
      </trkpt>
      <trkpt lat="45.3046" lon="6.95663">
        <ele>1695.78</ele>
        <time>2018-09-09T11:15:21Z</time>
      </trkpt>
      <trkpt lat="45.30479" lon="6.95673">
        <ele>1693.84</ele>
        <time>2018-09-09T11:15:22Z</time>
      </trkpt>
      <trkpt lat="45.30497" lon="6.95683">
        <ele>1692.56</ele>
        <time>2018-09-09T11:15:23Z</time>
      </trkpt>
      <trkpt lat="45.30515" lon="6.95696">
        <ele>1691.48</ele>
        <time>2018-09-09T11:15:24Z</time>
      </trkpt>
      <trkpt lat="45.30531" lon="6.95711">
        <ele>1689.75</ele>
        <time>2018-09-09T11:15:25Z</time>
      </trkpt>
      <trkpt lat="45.30548" lon="6.95729">
        <ele>1687.84</ele>
        <time>2018-09-09T11:15:26Z</time>
      </trkpt>
      <trkpt lat="45.30563" lon="6.9575">
        <ele>1686.56</ele>
        <time>2018-09-09T11:15:27Z</time>
      </trkpt>
      <trkpt lat="45.30577" lon="6.95773">
        <ele>1685.48</ele>
        <time>2018-09-09T11:15:28Z</time>
      </trkpt>
      <trkpt lat="45.3059" lon="6.95798">
        <ele>1684.45</ele>
        <time>2018-09-09T11:15:29Z</time>
      </trkpt>
      <trkpt lat="45.306" lon="6.95825">
        <ele>1684.15</ele>
        <time>2018-09-09T11:15:30Z</time>
      </trkpt>
      <trkpt lat="45.30609" lon="6.95853">
        <ele>1682.65</ele>
        <time>2018-09-09T11:15:31Z</time>
      </trkpt>
      <trkpt lat="45.30617" lon="6.95882">
        <ele>1682.21</ele>
        <time>2018-09-09T11:15:32Z</time>
      </trkpt>
      <trkpt lat="45.30625" lon="6.95913">
        <ele>1681.37</ele>
        <time>2018-09-09T11:15:33Z</time>
      </trkpt>
      <trkpt lat="45.30631" lon="6.95943">
        <ele>1680.42</ele>
        <time>2018-09-09T11:15:34Z</time>
      </trkpt>
      <trkpt lat="45.30636" lon="6.95973">
        <ele>1680.14</ele>
        <time>2018-09-09T11:15:35Z</time>
      </trkpt>
      <trkpt lat="45.30641" lon="6.96001">
        <ele>1680.05</ele>
        <time>2018-09-09T11:15:36Z</time>
      </trkpt>
      <trkpt lat="45.30645" lon="6.96028">
        <ele>1680.03</ele>
        <time>2018-09-09T11:15:37Z</time>
      </trkpt>
      <trkpt lat="45.30647" lon="6.96056">
        <ele>1679.32</ele>
        <time>2018-09-09T11:15:38Z</time>
      </trkpt>
      <trkpt lat="45.30647" lon="6.96084">
        <ele>1679.11</ele>
        <time>2018-09-09T11:15:39Z</time>
      </trkpt>
      <trkpt lat="45.30645" lon="6.96113">
        <ele>1678.34</ele>
        <time>2018-09-09T11:15:40Z</time>
      </trkpt>
      <trkpt lat="45.30642" lon="6.96143">
        <ele>1678.11</ele>
        <time>2018-09-09T11:15:41Z</time>
      </trkpt>
      <trkpt lat="45.3064" lon="6.96172">
        <ele>1677.34</ele>
        <time>2018-09-09T11:15:42Z</time>
      </trkpt>
      <trkpt lat="45.30638" lon="6.96202">
        <ele>1676.41</ele>
        <time>2018-09-09T11:15:43Z</time>
      </trkpt>
      <trkpt lat="45.30637" lon="6.96231">
        <ele>1676.13</ele>
        <time>2018-09-09T11:15:44Z</time>
      </trkpt>
      <trkpt lat="45.30635" lon="6.96261">
        <ele>1676.05</ele>
        <time>2018-09-09T11:15:45Z</time>
      </trkpt>
      <trkpt lat="45.30632" lon="6.96291">
        <ele>1674.63</ele>
        <time>2018-09-09T11:15:46Z</time>
      </trkpt>
      <trkpt lat="45.3063" lon="6.9632">
        <ele>1674.2</ele>
        <time>2018-09-09T11:15:47Z</time>
      </trkpt>
      <trkpt lat="45.30629" lon="6.9635">
        <ele>1674.07</ele>
        <time>2018-09-09T11:15:48Z</time>
      </trkpt>
      <trkpt lat="45.30629" lon="6.96378">
        <ele>1673.33</ele>
        <time>2018-09-09T11:15:49Z</time>
      </trkpt>
      <trkpt lat="45.3063" lon="6.96408">
        <ele>1673.81</ele>
        <time>2018-09-09T11:15:50Z</time>
      </trkpt>
      <trkpt lat="45.30631" lon="6.96437">
        <ele>1673.25</ele>
        <time>2018-09-09T11:15:51Z</time>
      </trkpt>
      <trkpt lat="45.30632" lon="6.96467">
        <ele>1673.79</ele>
        <time>2018-09-09T11:15:52Z</time>
      </trkpt>
      <trkpt lat="45.30632" lon="6.96497">
        <ele>1673.95</ele>
        <time>2018-09-09T11:15:53Z</time>
      </trkpt>
      <trkpt lat="45.30634" lon="6.96526">
        <ele>1673.99</ele>
        <time>2018-09-09T11:15:54Z</time>
      </trkpt>
      <trkpt lat="45.30635" lon="6.96555">
        <ele>1674.01</ele>
        <time>2018-09-09T11:15:55Z</time>
      </trkpt>
      <trkpt lat="45.30636" lon="6.96584">
        <ele>1674.01</ele>
        <time>2018-09-09T11:15:56Z</time>
      </trkpt>
      <trkpt lat="45.30639" lon="6.96614">
        <ele>1674.01</ele>
        <time>2018-09-09T11:15:57Z</time>
      </trkpt>
      <trkpt lat="45.30641" lon="6.96642">
        <ele>1674.01</ele>
        <time>2018-09-09T11:15:58Z</time>
      </trkpt>
      <trkpt lat="45.30644" lon="6.96671">
        <ele>1674.71</ele>
        <time>2018-09-09T11:15:59Z</time>
      </trkpt>
      <trkpt lat="45.30649" lon="6.96699">
        <ele>1674.22</ele>
        <time>2018-09-09T11:16:00Z</time>
      </trkpt>
      <trkpt lat="45.30654" lon="6.96728">
        <ele>1674.78</ele>
        <time>2018-09-09T11:16:01Z</time>
      </trkpt>
      <trkpt lat="45.30661" lon="6.96756">
        <ele>1674.94</ele>
        <time>2018-09-09T11:16:02Z</time>
      </trkpt>
      <trkpt lat="45.30669" lon="6.96783">
        <ele>1674.99</ele>
        <time>2018-09-09T11:16:03Z</time>
      </trkpt>
      <trkpt lat="45.30678" lon="6.96809">
        <ele>1675.01</ele>
        <time>2018-09-09T11:16:04Z</time>
      </trkpt>
      <trkpt lat="45.30688" lon="6.96836">
        <ele>1675.01</ele>
        <time>2018-09-09T11:16:05Z</time>
      </trkpt>
      <trkpt lat="45.30699" lon="6.96863">
        <ele>1675.71</ele>
        <time>2018-09-09T11:16:06Z</time>
      </trkpt>
      <trkpt lat="45.30711" lon="6.96889">
        <ele>1675.92</ele>
        <time>2018-09-09T11:16:07Z</time>
      </trkpt>
      <trkpt lat="45.30724" lon="6.96914">
        <ele>1675.99</ele>
        <time>2018-09-09T11:16:08Z</time>
      </trkpt>
      <trkpt lat="45.30738" lon="6.9694">
        <ele>1676.01</ele>
        <time>2018-09-09T11:16:09Z</time>
      </trkpt>
      <trkpt lat="45.30752" lon="6.96964">
        <ele>1676.01</ele>
        <time>2018-09-09T11:16:10Z</time>
      </trkpt>
      <trkpt lat="45.30766" lon="6.96988">
        <ele>1676.01</ele>
        <time>2018-09-09T11:16:11Z</time>
      </trkpt>
      <trkpt lat="45.3078" lon="6.97012">
        <ele>1676.01</ele>
        <time>2018-09-09T11:16:12Z</time>
      </trkpt>
      <trkpt lat="45.30794" lon="6.97035">
        <ele>1676.01</ele>
        <time>2018-09-09T11:16:13Z</time>
      </trkpt>
      <trkpt lat="45.30807" lon="6.97058">
        <ele>1676.71</ele>
        <time>2018-09-09T11:16:14Z</time>
      </trkpt>
      <trkpt lat="45.30821" lon="6.97081">
        <ele>1677.62</ele>
        <time>2018-09-09T11:16:15Z</time>
      </trkpt>
      <trkpt lat="45.30833" lon="6.97104">
        <ele>1678.6</ele>
        <time>2018-09-09T11:16:16Z</time>
      </trkpt>
      <trkpt lat="45.30846" lon="6.97126">
        <ele>1679.59</ele>
        <time>2018-09-09T11:16:17Z</time>
      </trkpt>
      <trkpt lat="45.30859" lon="6.9715">
        <ele>1679.89</ele>
        <time>2018-09-09T11:16:18Z</time>
      </trkpt>
      <trkpt lat="45.30872" lon="6.97173">
        <ele>1679.98</ele>
        <time>2018-09-09T11:16:19Z</time>
      </trkpt>
      <trkpt lat="45.30881" lon="6.97198">
        <ele>1680.7</ele>
        <time>2018-09-09T11:16:20Z</time>
      </trkpt>
      <trkpt lat="45.30888" lon="6.97224">
        <ele>1680.92</ele>
        <time>2018-09-09T11:16:21Z</time>
      </trkpt>
      <trkpt lat="45.30894" lon="6.9725">
        <ele>1681.69</ele>
        <time>2018-09-09T11:16:22Z</time>
      </trkpt>
      <trkpt lat="45.30897" lon="6.97275">
        <ele>1681.92</ele>
        <time>2018-09-09T11:16:23Z</time>
      </trkpt>
      <trkpt lat="45.30899" lon="6.97301">
        <ele>1681.99</ele>
        <time>2018-09-09T11:16:24Z</time>
      </trkpt>
      <trkpt lat="45.30898" lon="6.97349">
        <ele>1682.92</ele>
        <time>2018-09-09T11:16:26Z</time>
      </trkpt>
      <trkpt lat="45.30889" lon="6.97398">
        <ele>1682.31</ele>
        <time>2018-09-09T11:16:28Z</time>
      </trkpt>
      <trkpt lat="45.30877" lon="6.97444">
        <ele>1682.95</ele>
        <time>2018-09-09T11:16:30Z</time>
      </trkpt>
      <trkpt lat="45.30866" lon="6.97488">
        <ele>1683.01</ele>
        <time>2018-09-09T11:16:32Z</time>
      </trkpt>
      <trkpt lat="45.30852" lon="6.97531">
        <ele>1683.71</ele>
        <time>2018-09-09T11:16:34Z</time>
      </trkpt>
      <trkpt lat="45.30841" lon="6.9757">
        <ele>1684.69</ele>
        <time>2018-09-09T11:16:36Z</time>
      </trkpt>
      <trkpt lat="45.30835" lon="6.97608">
        <ele>1686.6</ele>
        <time>2018-09-09T11:16:38Z</time>
      </trkpt>
      <trkpt lat="45.30836" lon="6.97633">
        <ele>1686.98</ele>
        <time>2018-09-09T11:16:40Z</time>
      </trkpt>
      <trkpt lat="45.30853" lon="6.97646">
        <ele>1686.31</ele>
        <time>2018-09-09T11:16:42Z</time>
      </trkpt>
      <trkpt lat="45.30868" lon="6.97668">
        <ele>1686.04</ele>
        <time>2018-09-09T11:16:44Z</time>
      </trkpt>
      <trkpt lat="45.30882" lon="6.97695">
        <ele>1686.02</ele>
        <time>2018-09-09T11:16:46Z</time>
      </trkpt>
      <trkpt lat="45.30899" lon="6.97723">
        <ele>1686.93</ele>
        <time>2018-09-09T11:16:48Z</time>
      </trkpt>
      <trkpt lat="45.30919" lon="6.9776">
        <ele>1687.92</ele>
        <time>2018-09-09T11:16:50Z</time>
      </trkpt>
      <trkpt lat="45.30933" lon="6.97782">
        <ele>1687.99</ele>
        <time>2018-09-09T11:16:51Z</time>
      </trkpt>
      <trkpt lat="45.30946" lon="6.97803">
        <ele>1688.01</ele>
        <time>2018-09-09T11:16:52Z</time>
      </trkpt>
      <trkpt lat="45.3096" lon="6.97826">
        <ele>1687.31</ele>
        <time>2018-09-09T11:16:53Z</time>
      </trkpt>
      <trkpt lat="45.30974" lon="6.97849">
        <ele>1687.8</ele>
        <time>2018-09-09T11:16:54Z</time>
      </trkpt>
      <trkpt lat="45.30988" lon="6.97873">
        <ele>1688.65</ele>
        <time>2018-09-09T11:16:55Z</time>
      </trkpt>
      <trkpt lat="45.31003" lon="6.97897">
        <ele>1689.61</ele>
        <time>2018-09-09T11:16:56Z</time>
      </trkpt>
      <trkpt lat="45.31019" lon="6.97921">
        <ele>1689.89</ele>
        <time>2018-09-09T11:16:57Z</time>
      </trkpt>
      <trkpt lat="45.31034" lon="6.97946">
        <ele>1690.68</ele>
        <time>2018-09-09T11:16:58Z</time>
      </trkpt>
      <trkpt lat="45.31049" lon="6.9797">
        <ele>1691.61</ele>
        <time>2018-09-09T11:16:59Z</time>
      </trkpt>
      <trkpt lat="45.31064" lon="6.97993">
        <ele>1691.89</ele>
        <time>2018-09-09T11:17:00Z</time>
      </trkpt>
      <trkpt lat="45.31078" lon="6.98016">
        <ele>1692.68</ele>
        <time>2018-09-09T11:17:01Z</time>
      </trkpt>
      <trkpt lat="45.31094" lon="6.98038">
        <ele>1692.91</ele>
        <time>2018-09-09T11:17:02Z</time>
      </trkpt>
      <trkpt lat="45.31111" lon="6.98059">
        <ele>1693.68</ele>
        <time>2018-09-09T11:17:03Z</time>
      </trkpt>
      <trkpt lat="45.3113" lon="6.98079">
        <ele>1694.62</ele>
        <time>2018-09-09T11:17:04Z</time>
      </trkpt>
      <trkpt lat="45.31149" lon="6.98097">
        <ele>1694.9</ele>
        <time>2018-09-09T11:17:05Z</time>
      </trkpt>
      <trkpt lat="45.31169" lon="6.98115">
        <ele>1694.98</ele>
        <time>2018-09-09T11:17:06Z</time>
      </trkpt>
      <trkpt lat="45.31188" lon="6.98133">
        <ele>1695</ele>
        <time>2018-09-09T11:17:07Z</time>
      </trkpt>
      <trkpt lat="45.31211" lon="6.9815">
        <ele>1694.31</ele>
        <time>2018-09-09T11:17:08Z</time>
      </trkpt>
      <trkpt lat="45.31236" lon="6.98166">
        <ele>1694.8</ele>
        <time>2018-09-09T11:17:09Z</time>
      </trkpt>
      <trkpt lat="45.31263" lon="6.98181">
        <ele>1695.65</ele>
        <time>2018-09-09T11:17:10Z</time>
      </trkpt>
      <trkpt lat="45.31291" lon="6.98196">
        <ele>1695.91</ele>
        <time>2018-09-09T11:17:11Z</time>
      </trkpt>
      <trkpt lat="45.31319" lon="6.98211">
        <ele>1696.68</ele>
        <time>2018-09-09T11:17:12Z</time>
      </trkpt>
      <trkpt lat="45.31347" lon="6.98226">
        <ele>1696.92</ele>
        <time>2018-09-09T11:17:13Z</time>
      </trkpt>
      <trkpt lat="45.31374" lon="6.9824">
        <ele>1697.69</ele>
        <time>2018-09-09T11:17:14Z</time>
      </trkpt>
      <trkpt lat="45.31399" lon="6.98253">
        <ele>1698.62</ele>
        <time>2018-09-09T11:17:15Z</time>
      </trkpt>
      <trkpt lat="45.31423" lon="6.98266">
        <ele>1698.9</ele>
        <time>2018-09-09T11:17:16Z</time>
      </trkpt>
      <trkpt lat="45.31446" lon="6.98279">
        <ele>1699.68</ele>
        <time>2018-09-09T11:17:17Z</time>
      </trkpt>
      <trkpt lat="45.31468" lon="6.98292">
        <ele>1700.61</ele>
        <time>2018-09-09T11:17:18Z</time>
      </trkpt>
      <trkpt lat="45.31487" lon="6.98307">
        <ele>1700.89</ele>
        <time>2018-09-09T11:17:19Z</time>
      </trkpt>
      <trkpt lat="45.31506" lon="6.98323">
        <ele>1700.98</ele>
        <time>2018-09-09T11:17:20Z</time>
      </trkpt>
      <trkpt lat="45.31525" lon="6.98338">
        <ele>1701</ele>
        <time>2018-09-09T11:17:21Z</time>
      </trkpt>
      <trkpt lat="45.31542" lon="6.98355">
        <ele>1701.01</ele>
        <time>2018-09-09T11:17:22Z</time>
      </trkpt>
      <trkpt lat="45.31559" lon="6.98369">
        <ele>1701.01</ele>
        <time>2018-09-09T11:17:23Z</time>
      </trkpt>
      <trkpt lat="45.31576" lon="6.98384">
        <ele>1701.71</ele>
        <time>2018-09-09T11:17:24Z</time>
      </trkpt>
      <trkpt lat="45.31592" lon="6.98399">
        <ele>1702.62</ele>
        <time>2018-09-09T11:17:25Z</time>
      </trkpt>
      <trkpt lat="45.31609" lon="6.98414">
        <ele>1702.9</ele>
        <time>2018-09-09T11:17:26Z</time>
      </trkpt>
      <trkpt lat="45.31626" lon="6.98429">
        <ele>1702.98</ele>
        <time>2018-09-09T11:17:27Z</time>
      </trkpt>
      <trkpt lat="45.31643" lon="6.98445">
        <ele>1703</ele>
        <time>2018-09-09T11:17:28Z</time>
      </trkpt>
      <trkpt lat="45.31661" lon="6.98461">
        <ele>1703.01</ele>
        <time>2018-09-09T11:17:29Z</time>
      </trkpt>
      <trkpt lat="45.31678" lon="6.98478">
        <ele>1703.01</ele>
        <time>2018-09-09T11:17:30Z</time>
      </trkpt>
      <trkpt lat="45.31695" lon="6.98496">
        <ele>1703.01</ele>
        <time>2018-09-09T11:17:31Z</time>
      </trkpt>
      <trkpt lat="45.31712" lon="6.98515">
        <ele>1702.31</ele>
        <time>2018-09-09T11:17:32Z</time>
      </trkpt>
      <trkpt lat="45.31728" lon="6.98535">
        <ele>1702.1</ele>
        <time>2018-09-09T11:17:33Z</time>
      </trkpt>
      <trkpt lat="45.31744" lon="6.98557">
        <ele>1702.04</ele>
        <time>2018-09-09T11:17:34Z</time>
      </trkpt>
      <trkpt lat="45.31759" lon="6.9858">
        <ele>1701.32</ele>
        <time>2018-09-09T11:17:35Z</time>
      </trkpt>
      <trkpt lat="45.31771" lon="6.98605">
        <ele>1701.11</ele>
        <time>2018-09-09T11:17:36Z</time>
      </trkpt>
      <trkpt lat="45.31784" lon="6.9863">
        <ele>1700.34</ele>
        <time>2018-09-09T11:17:37Z</time>
      </trkpt>
      <trkpt lat="45.31795" lon="6.98654">
        <ele>1700.81</ele>
        <time>2018-09-09T11:17:38Z</time>
      </trkpt>
      <trkpt lat="45.31806" lon="6.98678">
        <ele>1700.95</ele>
        <time>2018-09-09T11:17:39Z</time>
      </trkpt>
      <trkpt lat="45.31816" lon="6.98702">
        <ele>1701</ele>
        <time>2018-09-09T11:17:40Z</time>
      </trkpt>
      <trkpt lat="45.31825" lon="6.98728">
        <ele>1701.71</ele>
        <time>2018-09-09T11:17:41Z</time>
      </trkpt>
      <trkpt lat="45.31833" lon="6.98754">
        <ele>1701.92</ele>
        <time>2018-09-09T11:17:42Z</time>
      </trkpt>
      <trkpt lat="45.31841" lon="6.98781">
        <ele>1701.99</ele>
        <time>2018-09-09T11:17:43Z</time>
      </trkpt>
      <trkpt lat="45.31849" lon="6.98807">
        <ele>1702.01</ele>
        <time>2018-09-09T11:17:44Z</time>
      </trkpt>
      <trkpt lat="45.31856" lon="6.98832">
        <ele>1702.01</ele>
        <time>2018-09-09T11:17:45Z</time>
      </trkpt>
      <trkpt lat="45.31864" lon="6.98856">
        <ele>1702.01</ele>
        <time>2018-09-09T11:17:46Z</time>
      </trkpt>
      <trkpt lat="45.31871" lon="6.9888">
        <ele>1702.01</ele>
        <time>2018-09-09T11:17:47Z</time>
      </trkpt>
      <trkpt lat="45.31885" lon="6.98924">
        <ele>1702.02</ele>
        <time>2018-09-09T11:17:49Z</time>
      </trkpt>
      <trkpt lat="45.31896" lon="6.98962">
        <ele>1701.31</ele>
        <time>2018-09-09T11:17:51Z</time>
      </trkpt>
      <trkpt lat="45.31907" lon="6.98996">
        <ele>1700.13</ele>
        <time>2018-09-09T11:17:53Z</time>
      </trkpt>
      <trkpt lat="45.31917" lon="6.99027">
        <ele>1700.94</ele>
        <time>2018-09-09T11:17:55Z</time>
      </trkpt>
      <trkpt lat="45.31924" lon="6.99056">
        <ele>1701.01</ele>
        <time>2018-09-09T11:17:57Z</time>
      </trkpt>
      <trkpt lat="45.31929" lon="6.99083">
        <ele>1700.1</ele>
        <time>2018-09-09T11:17:59Z</time>
      </trkpt>
      <trkpt lat="45.31937" lon="6.99108">
        <ele>1700.02</ele>
        <time>2018-09-09T11:18:01Z</time>
      </trkpt>
      <trkpt lat="45.31946" lon="6.99136">
        <ele>1700.72</ele>
        <time>2018-09-09T11:18:03Z</time>
      </trkpt>
      <trkpt lat="45.31954" lon="6.99163">
        <ele>1700.99</ele>
        <time>2018-09-09T11:18:05Z</time>
      </trkpt>
      <trkpt lat="45.31961" lon="6.99192">
        <ele>1701.01</ele>
        <time>2018-09-09T11:18:07Z</time>
      </trkpt>
      <trkpt lat="45.31966" lon="6.9922">
        <ele>1701.92</ele>
        <time>2018-09-09T11:18:09Z</time>
      </trkpt>
      <trkpt lat="45.31976" lon="6.99246">
        <ele>1702.01</ele>
        <time>2018-09-09T11:18:11Z</time>
      </trkpt>
      <trkpt lat="45.31986" lon="6.99274">
        <ele>1703.62</ele>
        <time>2018-09-09T11:18:13Z</time>
      </trkpt>
      <trkpt lat="45.31994" lon="6.99302">
        <ele>1703.98</ele>
        <time>2018-09-09T11:18:15Z</time>
      </trkpt>
      <trkpt lat="45.32003" lon="6.99329">
        <ele>1704.71</ele>
        <time>2018-09-09T11:18:17Z</time>
      </trkpt>
      <trkpt lat="45.32014" lon="6.99354">
        <ele>1705.69</ele>
        <time>2018-09-09T11:18:19Z</time>
      </trkpt>
      <trkpt lat="45.32022" lon="6.9938">
        <ele>1707.6</ele>
        <time>2018-09-09T11:18:21Z</time>
      </trkpt>
      <trkpt lat="45.32029" lon="6.99407">
        <ele>1708.89</ele>
        <time>2018-09-09T11:18:23Z</time>
      </trkpt>
      <trkpt lat="45.32037" lon="6.99433">
        <ele>1709</ele>
        <time>2018-09-09T11:18:25Z</time>
      </trkpt>
      <trkpt lat="45.3205" lon="6.99456">
        <ele>1709.01</ele>
        <time>2018-09-09T11:18:27Z</time>
      </trkpt>
      <trkpt lat="45.32066" lon="6.99477">
        <ele>1710.62</ele>
        <time>2018-09-09T11:18:29Z</time>
      </trkpt>
      <trkpt lat="45.32081" lon="6.99496">
        <ele>1710.28</ele>
        <time>2018-09-09T11:18:31Z</time>
      </trkpt>
      <trkpt lat="45.32096" lon="6.99512">
        <ele>1710.04</ele>
        <time>2018-09-09T11:18:33Z</time>
      </trkpt>
      <trkpt lat="45.32113" lon="6.9953">
        <ele>1712.89</ele>
        <time>2018-09-09T11:18:37Z</time>
      </trkpt>
      <trkpt lat="45.32126" lon="6.99548">
        <ele>1711.32</ele>
        <time>2018-09-09T11:18:41Z</time>
      </trkpt>
      <trkpt lat="45.3211" lon="6.99527">
        <ele>1712.5</ele>
        <time>2018-09-09T11:19:06Z</time>
      </trkpt>
      <trkpt lat="45.32091" lon="6.99502">
        <ele>1712.3</ele>
        <time>2018-09-09T11:19:09Z</time>
      </trkpt>
      <trkpt lat="45.32072" lon="6.99478">
        <ele>1711.11</ele>
        <time>2018-09-09T11:19:12Z</time>
      </trkpt>
      <trkpt lat="45.32055" lon="6.99456">
        <ele>1711.02</ele>
        <time>2018-09-09T11:19:15Z</time>
      </trkpt>
      <trkpt lat="45.32041" lon="6.99433">
        <ele>1711.8</ele>
        <time>2018-09-09T11:19:19Z</time>
      </trkpt>
      <trkpt lat="45.32032" lon="6.9941">
        <ele>1711.78</ele>
        <time>2018-09-09T11:19:26Z</time>
      </trkpt>
      <trkpt lat="45.32041" lon="6.99441">
        <ele>1715</ele>
        <time>2018-09-09T11:52:50Z</time>
      </trkpt>
      <trkpt lat="45.32056" lon="6.99462">
        <ele>1715.92</ele>
        <time>2018-09-09T11:52:53Z</time>
      </trkpt>
      <trkpt lat="45.32073" lon="6.99483">
        <ele>1715.1</ele>
        <time>2018-09-09T11:52:56Z</time>
      </trkpt>
      <trkpt lat="45.3209" lon="6.99504">
        <ele>1714.04</ele>
        <time>2018-09-09T11:52:59Z</time>
      </trkpt>
      <trkpt lat="45.32108" lon="6.99527">
        <ele>1713.32</ele>
        <time>2018-09-09T11:53:02Z</time>
      </trkpt>
      <trkpt lat="45.32127" lon="6.99548">
        <ele>1713.02</ele>
        <time>2018-09-09T11:53:05Z</time>
      </trkpt>
      <trkpt lat="45.32144" lon="6.99572">
        <ele>1713.02</ele>
        <time>2018-09-09T11:53:08Z</time>
      </trkpt>
      <trkpt lat="45.32162" lon="6.99597">
        <ele>1713.02</ele>
        <time>2018-09-09T11:53:11Z</time>
      </trkpt>
      <trkpt lat="45.32178" lon="6.99619">
        <ele>1712.95</ele>
        <time>2018-09-09T11:53:14Z</time>
      </trkpt>
      <trkpt lat="45.32192" lon="6.99644">
        <ele>1714.62</ele>
        <time>2018-09-09T11:53:17Z</time>
      </trkpt>
      <trkpt lat="45.32205" lon="6.99676">
        <ele>1715.91</ele>
        <time>2018-09-09T11:53:20Z</time>
      </trkpt>
      <trkpt lat="45.32216" lon="6.99712">
        <ele>1717.9</ele>
        <time>2018-09-09T11:53:23Z</time>
      </trkpt>
      <trkpt lat="45.32223" lon="6.99738">
        <ele>1718.7</ele>
        <time>2018-09-09T11:53:25Z</time>
      </trkpt>
      <trkpt lat="45.32232" lon="6.99765">
        <ele>1718.99</ele>
        <time>2018-09-09T11:53:27Z</time>
      </trkpt>
      <trkpt lat="45.32242" lon="6.99793">
        <ele>1719.71</ele>
        <time>2018-09-09T11:53:29Z</time>
      </trkpt>
      <trkpt lat="45.32252" lon="6.99821">
        <ele>1719.99</ele>
        <time>2018-09-09T11:53:31Z</time>
      </trkpt>
      <trkpt lat="45.32265" lon="6.9985">
        <ele>1720.71</ele>
        <time>2018-09-09T11:53:33Z</time>
      </trkpt>
      <trkpt lat="45.32278" lon="6.99879">
        <ele>1720.99</ele>
        <time>2018-09-09T11:53:35Z</time>
      </trkpt>
      <trkpt lat="45.32291" lon="6.99907">
        <ele>1721.92</ele>
        <time>2018-09-09T11:53:37Z</time>
      </trkpt>
      <trkpt lat="45.32302" lon="6.99934">
        <ele>1722.71</ele>
        <time>2018-09-09T11:53:39Z</time>
      </trkpt>
      <trkpt lat="45.32314" lon="6.99961">
        <ele>1723.69</ele>
        <time>2018-09-09T11:53:41Z</time>
      </trkpt>
      <trkpt lat="45.32325" lon="6.99987">
        <ele>1725.39</ele>
        <time>2018-09-09T11:53:43Z</time>
      </trkpt>
      <trkpt lat="45.32335" lon="7.0001">
        <ele>1726.66</ele>
        <time>2018-09-09T11:53:45Z</time>
      </trkpt>
      <trkpt lat="45.32342" lon="7.00035">
        <ele>1728.59</ele>
        <time>2018-09-09T11:53:47Z</time>
      </trkpt>
      <trkpt lat="45.32344" lon="7.00062">
        <ele>1729.68</ele>
        <time>2018-09-09T11:53:49Z</time>
      </trkpt>
      <trkpt lat="45.32345" lon="7.00091">
        <ele>1731.59</ele>
        <time>2018-09-09T11:53:51Z</time>
      </trkpt>
      <trkpt lat="45.32346" lon="7.0012">
        <ele>1733.59</ele>
        <time>2018-09-09T11:53:53Z</time>
      </trkpt>
      <trkpt lat="45.32346" lon="7.00148">
        <ele>1734.91</ele>
        <time>2018-09-09T11:53:56Z</time>
      </trkpt>
      <trkpt lat="45.32355" lon="7.00173">
        <ele>1735.04</ele>
        <time>2018-09-09T11:54:01Z</time>
      </trkpt>
      <trkpt lat="45.32374" lon="7.00192">
        <ele>1734.74</ele>
        <time>2018-09-09T11:54:04Z</time>
      </trkpt>
      <trkpt lat="45.32392" lon="7.00207">
        <ele>1734.99</ele>
        <time>2018-09-09T11:54:06Z</time>
      </trkpt>
      <trkpt lat="45.32414" lon="7.00227">
        <ele>1734.31</ele>
        <time>2018-09-09T11:54:08Z</time>
      </trkpt>
      <trkpt lat="45.3244" lon="7.00251">
        <ele>1734.04</ele>
        <time>2018-09-09T11:54:10Z</time>
      </trkpt>
      <trkpt lat="45.32455" lon="7.00265">
        <ele>1734.72</ele>
        <time>2018-09-09T11:54:11Z</time>
      </trkpt>
      <trkpt lat="45.32471" lon="7.00283">
        <ele>1734.93</ele>
        <time>2018-09-09T11:54:12Z</time>
      </trkpt>
      <trkpt lat="45.3249" lon="7.00301">
        <ele>1735.69</ele>
        <time>2018-09-09T11:54:13Z</time>
      </trkpt>
      <trkpt lat="45.32509" lon="7.00321">
        <ele>1735.92</ele>
        <time>2018-09-09T11:54:14Z</time>
      </trkpt>
      <trkpt lat="45.32528" lon="7.00345">
        <ele>1735.99</ele>
        <time>2018-09-09T11:54:15Z</time>
      </trkpt>
      <trkpt lat="45.32547" lon="7.00368">
        <ele>1736.01</ele>
        <time>2018-09-09T11:54:16Z</time>
      </trkpt>
      <trkpt lat="45.32564" lon="7.00392">
        <ele>1736.71</ele>
        <time>2018-09-09T11:54:17Z</time>
      </trkpt>
      <trkpt lat="45.3258" lon="7.00419">
        <ele>1736.92</ele>
        <time>2018-09-09T11:54:18Z</time>
      </trkpt>
      <trkpt lat="45.32596" lon="7.00445">
        <ele>1736.99</ele>
        <time>2018-09-09T11:54:19Z</time>
      </trkpt>
      <trkpt lat="45.32611" lon="7.00471">
        <ele>1737.01</ele>
        <time>2018-09-09T11:54:20Z</time>
      </trkpt>
      <trkpt lat="45.32623" lon="7.00498">
        <ele>1737.01</ele>
        <time>2018-09-09T11:54:21Z</time>
      </trkpt>
      <trkpt lat="45.32635" lon="7.00525">
        <ele>1737.01</ele>
        <time>2018-09-09T11:54:22Z</time>
      </trkpt>
      <trkpt lat="45.32648" lon="7.00551">
        <ele>1737.71</ele>
        <time>2018-09-09T11:54:23Z</time>
      </trkpt>
      <trkpt lat="45.3266" lon="7.00577">
        <ele>1737.92</ele>
        <time>2018-09-09T11:54:24Z</time>
      </trkpt>
      <trkpt lat="45.32673" lon="7.00603">
        <ele>1737.29</ele>
        <time>2018-09-09T11:54:25Z</time>
      </trkpt>
      <trkpt lat="45.32685" lon="7.00628">
        <ele>1736.4</ele>
        <time>2018-09-09T11:54:26Z</time>
      </trkpt>
      <trkpt lat="45.32698" lon="7.00653">
        <ele>1735.43</ele>
        <time>2018-09-09T11:54:27Z</time>
      </trkpt>
      <trkpt lat="45.3271" lon="7.00677">
        <ele>1735.14</ele>
        <time>2018-09-09T11:54:28Z</time>
      </trkpt>
      <trkpt lat="45.32722" lon="7.00702">
        <ele>1735.05</ele>
        <time>2018-09-09T11:54:29Z</time>
      </trkpt>
      <trkpt lat="45.32735" lon="7.00726">
        <ele>1735.03</ele>
        <time>2018-09-09T11:54:30Z</time>
      </trkpt>
      <trkpt lat="45.32747" lon="7.0075">
        <ele>1735.02</ele>
        <time>2018-09-09T11:54:31Z</time>
      </trkpt>
      <trkpt lat="45.32758" lon="7.00775">
        <ele>1735.02</ele>
        <time>2018-09-09T11:54:32Z</time>
      </trkpt>
      <trkpt lat="45.32771" lon="7.008">
        <ele>1735.72</ele>
        <time>2018-09-09T11:54:33Z</time>
      </trkpt>
      <trkpt lat="45.32783" lon="7.00824">
        <ele>1735.93</ele>
        <time>2018-09-09T11:54:34Z</time>
      </trkpt>
      <trkpt lat="45.32795" lon="7.00848">
        <ele>1736.69</ele>
        <time>2018-09-09T11:54:35Z</time>
      </trkpt>
      <trkpt lat="45.32807" lon="7.00872">
        <ele>1736.92</ele>
        <time>2018-09-09T11:54:36Z</time>
      </trkpt>
      <trkpt lat="45.32818" lon="7.00896">
        <ele>1736.99</ele>
        <time>2018-09-09T11:54:37Z</time>
      </trkpt>
      <trkpt lat="45.32829" lon="7.0092">
        <ele>1737.01</ele>
        <time>2018-09-09T11:54:38Z</time>
      </trkpt>
      <trkpt lat="45.32841" lon="7.00943">
        <ele>1737.71</ele>
        <time>2018-09-09T11:54:39Z</time>
      </trkpt>
      <trkpt lat="45.32852" lon="7.00966">
        <ele>1737.92</ele>
        <time>2018-09-09T11:54:40Z</time>
      </trkpt>
      <trkpt lat="45.32864" lon="7.00987">
        <ele>1737.99</ele>
        <time>2018-09-09T11:54:41Z</time>
      </trkpt>
      <trkpt lat="45.32875" lon="7.01008">
        <ele>1738.01</ele>
        <time>2018-09-09T11:54:42Z</time>
      </trkpt>
      <trkpt lat="45.32894" lon="7.0105">
        <ele>1738.22</ele>
        <time>2018-09-09T11:54:44Z</time>
      </trkpt>
      <trkpt lat="45.32914" lon="7.0109">
        <ele>1738.94</ele>
        <time>2018-09-09T11:54:46Z</time>
      </trkpt>
      <trkpt lat="45.32932" lon="7.01134">
        <ele>1739.71</ele>
        <time>2018-09-09T11:54:48Z</time>
      </trkpt>
      <trkpt lat="45.3294" lon="7.01158">
        <ele>1739.92</ele>
        <time>2018-09-09T11:54:49Z</time>
      </trkpt>
      <trkpt lat="45.32947" lon="7.01183">
        <ele>1739.99</ele>
        <time>2018-09-09T11:54:50Z</time>
      </trkpt>
      <trkpt lat="45.32953" lon="7.01208">
        <ele>1740.01</ele>
        <time>2018-09-09T11:54:51Z</time>
      </trkpt>
      <trkpt lat="45.32961" lon="7.01234">
        <ele>1740.71</ele>
        <time>2018-09-09T11:54:52Z</time>
      </trkpt>
      <trkpt lat="45.32969" lon="7.01259">
        <ele>1740.92</ele>
        <time>2018-09-09T11:54:53Z</time>
      </trkpt>
      <trkpt lat="45.32977" lon="7.01285">
        <ele>1741.69</ele>
        <time>2018-09-09T11:54:54Z</time>
      </trkpt>
      <trkpt lat="45.32984" lon="7.0131">
        <ele>1741.92</ele>
        <time>2018-09-09T11:54:55Z</time>
      </trkpt>
      <trkpt lat="45.32992" lon="7.01336">
        <ele>1742.69</ele>
        <time>2018-09-09T11:54:56Z</time>
      </trkpt>
      <trkpt lat="45.33" lon="7.0136">
        <ele>1742.92</ele>
        <time>2018-09-09T11:54:57Z</time>
      </trkpt>
      <trkpt lat="45.33008" lon="7.01383">
        <ele>1742.99</ele>
        <time>2018-09-09T11:54:58Z</time>
      </trkpt>
      <trkpt lat="45.33017" lon="7.01405">
        <ele>1743.01</ele>
        <time>2018-09-09T11:54:59Z</time>
      </trkpt>
      <trkpt lat="45.33027" lon="7.01427">
        <ele>1743.01</ele>
        <time>2018-09-09T11:55:00Z</time>
      </trkpt>
      <trkpt lat="45.33038" lon="7.01448">
        <ele>1742.31</ele>
        <time>2018-09-09T11:55:01Z</time>
      </trkpt>
      <trkpt lat="45.3305" lon="7.01468">
        <ele>1740.7</ele>
        <time>2018-09-09T11:55:02Z</time>
      </trkpt>
      <trkpt lat="45.33062" lon="7.01487">
        <ele>1739.52</ele>
        <time>2018-09-09T11:55:03Z</time>
      </trkpt>
      <trkpt lat="45.33074" lon="7.01507">
        <ele>1738.47</ele>
        <time>2018-09-09T11:55:04Z</time>
      </trkpt>
      <trkpt lat="45.33087" lon="7.01526">
        <ele>1737.45</ele>
        <time>2018-09-09T11:55:05Z</time>
      </trkpt>
      <trkpt lat="45.33111" lon="7.01563">
        <ele>1736.14</ele>
        <time>2018-09-09T11:55:07Z</time>
      </trkpt>
      <trkpt lat="45.3313" lon="7.01595">
        <ele>1736.03</ele>
        <time>2018-09-09T11:55:09Z</time>
      </trkpt>
      <trkpt lat="45.3315" lon="7.01626">
        <ele>1736.02</ele>
        <time>2018-09-09T11:55:11Z</time>
      </trkpt>
      <trkpt lat="45.33172" lon="7.01657">
        <ele>1736.02</ele>
        <time>2018-09-09T11:55:13Z</time>
      </trkpt>
      <trkpt lat="45.332" lon="7.01683">
        <ele>1736.71</ele>
        <time>2018-09-09T11:55:15Z</time>
      </trkpt>
      <trkpt lat="45.33229" lon="7.01714">
        <ele>1736.99</ele>
        <time>2018-09-09T11:55:17Z</time>
      </trkpt>
      <trkpt lat="45.33245" lon="7.0173">
        <ele>1737.01</ele>
        <time>2018-09-09T11:55:18Z</time>
      </trkpt>
      <trkpt lat="45.33261" lon="7.01746">
        <ele>1737.01</ele>
        <time>2018-09-09T11:55:19Z</time>
      </trkpt>
      <trkpt lat="45.33277" lon="7.01763">
        <ele>1737.01</ele>
        <time>2018-09-09T11:55:20Z</time>
      </trkpt>
      <trkpt lat="45.33294" lon="7.01781">
        <ele>1737.71</ele>
        <time>2018-09-09T11:55:21Z</time>
      </trkpt>
      <trkpt lat="45.33311" lon="7.01798">
        <ele>1737.92</ele>
        <time>2018-09-09T11:55:22Z</time>
      </trkpt>
      <trkpt lat="45.33327" lon="7.01815">
        <ele>1737.99</ele>
        <time>2018-09-09T11:55:23Z</time>
      </trkpt>
      <trkpt lat="45.33344" lon="7.01832">
        <ele>1738.01</ele>
        <time>2018-09-09T11:55:24Z</time>
      </trkpt>
      <trkpt lat="45.33361" lon="7.01849">
        <ele>1738.01</ele>
        <time>2018-09-09T11:55:25Z</time>
      </trkpt>
      <trkpt lat="45.33378" lon="7.01865">
        <ele>1738.01</ele>
        <time>2018-09-09T11:55:26Z</time>
      </trkpt>
      <trkpt lat="45.33395" lon="7.01882">
        <ele>1738.01</ele>
        <time>2018-09-09T11:55:27Z</time>
      </trkpt>
      <trkpt lat="45.33412" lon="7.019">
        <ele>1738.71</ele>
        <time>2018-09-09T11:55:28Z</time>
      </trkpt>
      <trkpt lat="45.33429" lon="7.01917">
        <ele>1738.22</ele>
        <time>2018-09-09T11:55:29Z</time>
      </trkpt>
      <trkpt lat="45.33446" lon="7.01934">
        <ele>1738.08</ele>
        <time>2018-09-09T11:55:30Z</time>
      </trkpt>
      <trkpt lat="45.33463" lon="7.01952">
        <ele>1738.03</ele>
        <time>2018-09-09T11:55:31Z</time>
      </trkpt>
      <trkpt lat="45.33481" lon="7.0197">
        <ele>1738.72</ele>
        <time>2018-09-09T11:55:32Z</time>
      </trkpt>
      <trkpt lat="45.33499" lon="7.01987">
        <ele>1738.93</ele>
        <time>2018-09-09T11:55:33Z</time>
      </trkpt>
      <trkpt lat="45.33517" lon="7.02005">
        <ele>1738.99</ele>
        <time>2018-09-09T11:55:34Z</time>
      </trkpt>
      <trkpt lat="45.33535" lon="7.02023">
        <ele>1739.01</ele>
        <time>2018-09-09T11:55:35Z</time>
      </trkpt>
      <trkpt lat="45.33552" lon="7.0204">
        <ele>1739.71</ele>
        <time>2018-09-09T11:55:36Z</time>
      </trkpt>
      <trkpt lat="45.33569" lon="7.02058">
        <ele>1739.92</ele>
        <time>2018-09-09T11:55:37Z</time>
      </trkpt>
      <trkpt lat="45.33586" lon="7.02075">
        <ele>1740.69</ele>
        <time>2018-09-09T11:55:38Z</time>
      </trkpt>
      <trkpt lat="45.33603" lon="7.02092">
        <ele>1740.92</ele>
        <time>2018-09-09T11:55:39Z</time>
      </trkpt>
      <trkpt lat="45.3362" lon="7.02109">
        <ele>1740.99</ele>
        <time>2018-09-09T11:55:40Z</time>
      </trkpt>
      <trkpt lat="45.33636" lon="7.02126">
        <ele>1740.31</ele>
        <time>2018-09-09T11:55:41Z</time>
      </trkpt>
      <trkpt lat="45.33653" lon="7.02143">
        <ele>1740.1</ele>
        <time>2018-09-09T11:55:42Z</time>
      </trkpt>
      <trkpt lat="45.3367" lon="7.02161">
        <ele>1740.04</ele>
        <time>2018-09-09T11:55:43Z</time>
      </trkpt>
      <trkpt lat="45.33688" lon="7.02179">
        <ele>1740.02</ele>
        <time>2018-09-09T11:55:44Z</time>
      </trkpt>
      <trkpt lat="45.33705" lon="7.02197">
        <ele>1740.72</ele>
        <time>2018-09-09T11:55:45Z</time>
      </trkpt>
      <trkpt lat="45.33722" lon="7.02215">
        <ele>1740.93</ele>
        <time>2018-09-09T11:55:46Z</time>
      </trkpt>
      <trkpt lat="45.3374" lon="7.02233">
        <ele>1740.99</ele>
        <time>2018-09-09T11:55:47Z</time>
      </trkpt>
      <trkpt lat="45.33758" lon="7.0225">
        <ele>1741.71</ele>
        <time>2018-09-09T11:55:48Z</time>
      </trkpt>
      <trkpt lat="45.33775" lon="7.02268">
        <ele>1741.92</ele>
        <time>2018-09-09T11:55:49Z</time>
      </trkpt>
      <trkpt lat="45.33793" lon="7.02286">
        <ele>1742.69</ele>
        <time>2018-09-09T11:55:50Z</time>
      </trkpt>
      <trkpt lat="45.3381" lon="7.02303">
        <ele>1742.92</ele>
        <time>2018-09-09T11:55:51Z</time>
      </trkpt>
      <trkpt lat="45.33827" lon="7.02321">
        <ele>1743.69</ele>
        <time>2018-09-09T11:55:52Z</time>
      </trkpt>
      <trkpt lat="45.33844" lon="7.02338">
        <ele>1743.92</ele>
        <time>2018-09-09T11:55:53Z</time>
      </trkpt>
      <trkpt lat="45.3386" lon="7.02354">
        <ele>1743.99</ele>
        <time>2018-09-09T11:55:54Z</time>
      </trkpt>
      <trkpt lat="45.33876" lon="7.02371">
        <ele>1744.71</ele>
        <time>2018-09-09T11:55:55Z</time>
      </trkpt>
      <trkpt lat="45.33892" lon="7.0239">
        <ele>1744.92</ele>
        <time>2018-09-09T11:55:56Z</time>
      </trkpt>
      <trkpt lat="45.33908" lon="7.02409">
        <ele>1745.69</ele>
        <time>2018-09-09T11:55:57Z</time>
      </trkpt>
      <trkpt lat="45.33923" lon="7.02428">
        <ele>1745.92</ele>
        <time>2018-09-09T11:55:58Z</time>
      </trkpt>
      <trkpt lat="45.33938" lon="7.02448">
        <ele>1746.69</ele>
        <time>2018-09-09T11:55:59Z</time>
      </trkpt>
      <trkpt lat="45.33952" lon="7.02468">
        <ele>1747.62</ele>
        <time>2018-09-09T11:56:00Z</time>
      </trkpt>
      <trkpt lat="45.33966" lon="7.02489">
        <ele>1747.9</ele>
        <time>2018-09-09T11:56:01Z</time>
      </trkpt>
      <trkpt lat="45.3398" lon="7.02509">
        <ele>1747.98</ele>
        <time>2018-09-09T11:56:02Z</time>
      </trkpt>
      <trkpt lat="45.33995" lon="7.02528">
        <ele>1748.7</ele>
        <time>2018-09-09T11:56:03Z</time>
      </trkpt>
      <trkpt lat="45.34009" lon="7.02547">
        <ele>1748.92</ele>
        <time>2018-09-09T11:56:04Z</time>
      </trkpt>
      <trkpt lat="45.34025" lon="7.02564">
        <ele>1748.99</ele>
        <time>2018-09-09T11:56:05Z</time>
      </trkpt>
      <trkpt lat="45.3404" lon="7.0258">
        <ele>1749.01</ele>
        <time>2018-09-09T11:56:06Z</time>
      </trkpt>
      <trkpt lat="45.34057" lon="7.02596">
        <ele>1749.01</ele>
        <time>2018-09-09T11:56:07Z</time>
      </trkpt>
      <trkpt lat="45.34075" lon="7.0261">
        <ele>1749.71</ele>
        <time>2018-09-09T11:56:08Z</time>
      </trkpt>
      <trkpt lat="45.34093" lon="7.02623">
        <ele>1749.92</ele>
        <time>2018-09-09T11:56:09Z</time>
      </trkpt>
      <trkpt lat="45.34111" lon="7.02635">
        <ele>1749.99</ele>
        <time>2018-09-09T11:56:10Z</time>
      </trkpt>
      <trkpt lat="45.34129" lon="7.02649">
        <ele>1750.01</ele>
        <time>2018-09-09T11:56:11Z</time>
      </trkpt>
      <trkpt lat="45.34147" lon="7.02663">
        <ele>1748.61</ele>
        <time>2018-09-09T11:56:12Z</time>
      </trkpt>
      <trkpt lat="45.34165" lon="7.02676">
        <ele>1748.19</ele>
        <time>2018-09-09T11:56:13Z</time>
      </trkpt>
      <trkpt lat="45.34183" lon="7.02689">
        <ele>1748.07</ele>
        <time>2018-09-09T11:56:14Z</time>
      </trkpt>
      <trkpt lat="45.34201" lon="7.02702">
        <ele>1748.03</ele>
        <time>2018-09-09T11:56:15Z</time>
      </trkpt>
      <trkpt lat="45.34219" lon="7.02715">
        <ele>1748.02</ele>
        <time>2018-09-09T11:56:16Z</time>
      </trkpt>
      <trkpt lat="45.34237" lon="7.02728">
        <ele>1748.02</ele>
        <time>2018-09-09T11:56:17Z</time>
      </trkpt>
      <trkpt lat="45.34255" lon="7.02741">
        <ele>1748.72</ele>
        <time>2018-09-09T11:56:18Z</time>
      </trkpt>
      <trkpt lat="45.34272" lon="7.02755">
        <ele>1748.93</ele>
        <time>2018-09-09T11:56:19Z</time>
      </trkpt>
      <trkpt lat="45.3429" lon="7.02768">
        <ele>1748.99</ele>
        <time>2018-09-09T11:56:20Z</time>
      </trkpt>
      <trkpt lat="45.34308" lon="7.02781">
        <ele>1749.01</ele>
        <time>2018-09-09T11:56:21Z</time>
      </trkpt>
      <trkpt lat="45.34326" lon="7.02794">
        <ele>1749.01</ele>
        <time>2018-09-09T11:56:22Z</time>
      </trkpt>
      <trkpt lat="45.34343" lon="7.02806">
        <ele>1749.01</ele>
        <time>2018-09-09T11:56:23Z</time>
      </trkpt>
      <trkpt lat="45.3436" lon="7.02818">
        <ele>1749.01</ele>
        <time>2018-09-09T11:56:24Z</time>
      </trkpt>
      <trkpt lat="45.34377" lon="7.02829">
        <ele>1749.01</ele>
        <time>2018-09-09T11:56:25Z</time>
      </trkpt>
      <trkpt lat="45.34394" lon="7.02838">
        <ele>1749.02</ele>
        <time>2018-09-09T11:56:26Z</time>
      </trkpt>
      <trkpt lat="45.34411" lon="7.02847">
        <ele>1749.02</ele>
        <time>2018-09-09T11:56:27Z</time>
      </trkpt>
      <trkpt lat="45.34428" lon="7.02855">
        <ele>1749.02</ele>
        <time>2018-09-09T11:56:28Z</time>
      </trkpt>
      <trkpt lat="45.34446" lon="7.02863">
        <ele>1749.71</ele>
        <time>2018-09-09T11:56:29Z</time>
      </trkpt>
      <trkpt lat="45.34464" lon="7.0287">
        <ele>1749.93</ele>
        <time>2018-09-09T11:56:30Z</time>
      </trkpt>
      <trkpt lat="45.34481" lon="7.02877">
        <ele>1749.99</ele>
        <time>2018-09-09T11:56:31Z</time>
      </trkpt>
      <trkpt lat="45.34499" lon="7.02885">
        <ele>1750.01</ele>
        <time>2018-09-09T11:56:32Z</time>
      </trkpt>
      <trkpt lat="45.34517" lon="7.02892">
        <ele>1750.71</ele>
        <time>2018-09-09T11:56:33Z</time>
      </trkpt>
      <trkpt lat="45.34536" lon="7.029">
        <ele>1750.92</ele>
        <time>2018-09-09T11:56:34Z</time>
      </trkpt>
      <trkpt lat="45.34555" lon="7.02908">
        <ele>1750.99</ele>
        <time>2018-09-09T11:56:35Z</time>
      </trkpt>
      <trkpt lat="45.34574" lon="7.02915">
        <ele>1751.01</ele>
        <time>2018-09-09T11:56:36Z</time>
      </trkpt>
      <trkpt lat="45.34594" lon="7.02924">
        <ele>1751.01</ele>
        <time>2018-09-09T11:56:37Z</time>
      </trkpt>
      <trkpt lat="45.34614" lon="7.02931">
        <ele>1751.01</ele>
        <time>2018-09-09T11:56:38Z</time>
      </trkpt>
      <trkpt lat="45.34634" lon="7.02938">
        <ele>1751.01</ele>
        <time>2018-09-09T11:56:39Z</time>
      </trkpt>
      <trkpt lat="45.34654" lon="7.02944">
        <ele>1751.71</ele>
        <time>2018-09-09T11:56:40Z</time>
      </trkpt>
      <trkpt lat="45.34674" lon="7.0295">
        <ele>1751.92</ele>
        <time>2018-09-09T11:56:41Z</time>
      </trkpt>
      <trkpt lat="45.34694" lon="7.02954">
        <ele>1751.29</ele>
        <time>2018-09-09T11:56:42Z</time>
      </trkpt>
      <trkpt lat="45.34715" lon="7.02957">
        <ele>1750.4</ele>
        <time>2018-09-09T11:56:43Z</time>
      </trkpt>
      <trkpt lat="45.34736" lon="7.0296">
        <ele>1750.13</ele>
        <time>2018-09-09T11:56:44Z</time>
      </trkpt>
      <trkpt lat="45.34758" lon="7.02962">
        <ele>1750.05</ele>
        <time>2018-09-09T11:56:45Z</time>
      </trkpt>
      <trkpt lat="45.34779" lon="7.02964">
        <ele>1750.03</ele>
        <time>2018-09-09T11:56:46Z</time>
      </trkpt>
      <trkpt lat="45.348" lon="7.02966">
        <ele>1750.02</ele>
        <time>2018-09-09T11:56:47Z</time>
      </trkpt>
      <trkpt lat="45.34822" lon="7.02968">
        <ele>1750.02</ele>
        <time>2018-09-09T11:56:48Z</time>
      </trkpt>
      <trkpt lat="45.34843" lon="7.02971">
        <ele>1750.72</ele>
        <time>2018-09-09T11:56:49Z</time>
      </trkpt>
      <trkpt lat="45.34865" lon="7.02973">
        <ele>1750.23</ele>
        <time>2018-09-09T11:56:50Z</time>
      </trkpt>
      <trkpt lat="45.34886" lon="7.02975">
        <ele>1750.08</ele>
        <time>2018-09-09T11:56:51Z</time>
      </trkpt>
      <trkpt lat="45.34907" lon="7.02977">
        <ele>1750.73</ele>
        <time>2018-09-09T11:56:52Z</time>
      </trkpt>
      <trkpt lat="45.34929" lon="7.0298">
        <ele>1750.23</ele>
        <time>2018-09-09T11:56:53Z</time>
      </trkpt>
      <trkpt lat="45.3495" lon="7.02984">
        <ele>1750.78</ele>
        <time>2018-09-09T11:56:54Z</time>
      </trkpt>
      <trkpt lat="45.34971" lon="7.02989">
        <ele>1750.94</ele>
        <time>2018-09-09T11:56:55Z</time>
      </trkpt>
      <trkpt lat="45.34992" lon="7.02993">
        <ele>1750.99</ele>
        <time>2018-09-09T11:56:56Z</time>
      </trkpt>
      <trkpt lat="45.35012" lon="7.02996">
        <ele>1751.01</ele>
        <time>2018-09-09T11:56:57Z</time>
      </trkpt>
      <trkpt lat="45.35032" lon="7.02999">
        <ele>1751.01</ele>
        <time>2018-09-09T11:56:58Z</time>
      </trkpt>
      <trkpt lat="45.35053" lon="7.03002">
        <ele>1751.71</ele>
        <time>2018-09-09T11:56:59Z</time>
      </trkpt>
      <trkpt lat="45.35074" lon="7.03006">
        <ele>1751.92</ele>
        <time>2018-09-09T11:57:00Z</time>
      </trkpt>
      <trkpt lat="45.35094" lon="7.03009">
        <ele>1751.99</ele>
        <time>2018-09-09T11:57:01Z</time>
      </trkpt>
      <trkpt lat="45.35115" lon="7.03013">
        <ele>1752.01</ele>
        <time>2018-09-09T11:57:02Z</time>
      </trkpt>
      <trkpt lat="45.35135" lon="7.03016">
        <ele>1752.01</ele>
        <time>2018-09-09T11:57:03Z</time>
      </trkpt>
      <trkpt lat="45.35155" lon="7.03018">
        <ele>1752.01</ele>
        <time>2018-09-09T11:57:04Z</time>
      </trkpt>
      <trkpt lat="45.35174" lon="7.03019">
        <ele>1752.01</ele>
        <time>2018-09-09T11:57:05Z</time>
      </trkpt>
      <trkpt lat="45.35194" lon="7.03019">
        <ele>1752.01</ele>
        <time>2018-09-09T11:57:06Z</time>
      </trkpt>
      <trkpt lat="45.35215" lon="7.03018">
        <ele>1752.71</ele>
        <time>2018-09-09T11:57:07Z</time>
      </trkpt>
      <trkpt lat="45.35235" lon="7.03016">
        <ele>1753.62</ele>
        <time>2018-09-09T11:57:08Z</time>
      </trkpt>
      <trkpt lat="45.35255" lon="7.03013">
        <ele>1753.9</ele>
        <time>2018-09-09T11:57:09Z</time>
      </trkpt>
      <trkpt lat="45.35276" lon="7.0301">
        <ele>1753.98</ele>
        <time>2018-09-09T11:57:10Z</time>
      </trkpt>
      <trkpt lat="45.35296" lon="7.03007">
        <ele>1754</ele>
        <time>2018-09-09T11:57:11Z</time>
      </trkpt>
      <trkpt lat="45.35316" lon="7.03003">
        <ele>1754.71</ele>
        <time>2018-09-09T11:57:12Z</time>
      </trkpt>
      <trkpt lat="45.35337" lon="7.02999">
        <ele>1754.92</ele>
        <time>2018-09-09T11:57:13Z</time>
      </trkpt>
      <trkpt lat="45.35357" lon="7.02996">
        <ele>1754.99</ele>
        <time>2018-09-09T11:57:14Z</time>
      </trkpt>
      <trkpt lat="45.35377" lon="7.02991">
        <ele>1755.71</ele>
        <time>2018-09-09T11:57:15Z</time>
      </trkpt>
      <trkpt lat="45.35397" lon="7.02986">
        <ele>1756.62</ele>
        <time>2018-09-09T11:57:16Z</time>
      </trkpt>
      <trkpt lat="45.35417" lon="7.02982">
        <ele>1757.6</ele>
        <time>2018-09-09T11:57:17Z</time>
      </trkpt>
      <trkpt lat="45.35438" lon="7.02979">
        <ele>1758.59</ele>
        <time>2018-09-09T11:57:18Z</time>
      </trkpt>
      <trkpt lat="45.35458" lon="7.02975">
        <ele>1758.89</ele>
        <time>2018-09-09T11:57:19Z</time>
      </trkpt>
      <trkpt lat="45.35479" lon="7.02974">
        <ele>1758.28</ele>
        <time>2018-09-09T11:57:20Z</time>
      </trkpt>
      <trkpt lat="45.35499" lon="7.02972">
        <ele>1758.79</ele>
        <time>2018-09-09T11:57:21Z</time>
      </trkpt>
      <trkpt lat="45.3552" lon="7.0297">
        <ele>1758.95</ele>
        <time>2018-09-09T11:57:22Z</time>
      </trkpt>
      <trkpt lat="45.35541" lon="7.02968">
        <ele>1759</ele>
        <time>2018-09-09T11:57:23Z</time>
      </trkpt>
      <trkpt lat="45.35561" lon="7.02964">
        <ele>1759.01</ele>
        <time>2018-09-09T11:57:24Z</time>
      </trkpt>
      <trkpt lat="45.35582" lon="7.02962">
        <ele>1758.31</ele>
        <time>2018-09-09T11:57:25Z</time>
      </trkpt>
      <trkpt lat="45.35603" lon="7.02961">
        <ele>1758.1</ele>
        <time>2018-09-09T11:57:26Z</time>
      </trkpt>
      <trkpt lat="45.35623" lon="7.02963">
        <ele>1758.74</ele>
        <time>2018-09-09T11:57:27Z</time>
      </trkpt>
      <trkpt lat="45.35643" lon="7.0297">
        <ele>1758.93</ele>
        <time>2018-09-09T11:57:28Z</time>
      </trkpt>
      <trkpt lat="45.35662" lon="7.02979">
        <ele>1758.29</ele>
        <time>2018-09-09T11:57:29Z</time>
      </trkpt>
      <trkpt lat="45.35681" lon="7.0299">
        <ele>1758.8</ele>
        <time>2018-09-09T11:57:30Z</time>
      </trkpt>
      <trkpt lat="45.35699" lon="7.03004">
        <ele>1758.95</ele>
        <time>2018-09-09T11:57:31Z</time>
      </trkpt>
      <trkpt lat="45.35716" lon="7.0302">
        <ele>1759</ele>
        <time>2018-09-09T11:57:32Z</time>
      </trkpt>
      <trkpt lat="45.35733" lon="7.03037">
        <ele>1759.01</ele>
        <time>2018-09-09T11:57:33Z</time>
      </trkpt>
      <trkpt lat="45.3575" lon="7.03054">
        <ele>1759.71</ele>
        <time>2018-09-09T11:57:34Z</time>
      </trkpt>
      <trkpt lat="45.35767" lon="7.03068">
        <ele>1759.92</ele>
        <time>2018-09-09T11:57:35Z</time>
      </trkpt>
      <trkpt lat="45.35785" lon="7.03081">
        <ele>1760.69</ele>
        <time>2018-09-09T11:57:36Z</time>
      </trkpt>
      <trkpt lat="45.35804" lon="7.03093">
        <ele>1760.92</ele>
        <time>2018-09-09T11:57:37Z</time>
      </trkpt>
      <trkpt lat="45.35823" lon="7.03104">
        <ele>1761.69</ele>
        <time>2018-09-09T11:57:38Z</time>
      </trkpt>
      <trkpt lat="45.35841" lon="7.03116">
        <ele>1761.92</ele>
        <time>2018-09-09T11:57:39Z</time>
      </trkpt>
      <trkpt lat="45.3586" lon="7.03127">
        <ele>1761.29</ele>
        <time>2018-09-09T11:57:40Z</time>
      </trkpt>
      <trkpt lat="45.35878" lon="7.03139">
        <ele>1761.1</ele>
        <time>2018-09-09T11:57:41Z</time>
      </trkpt>
      <trkpt lat="45.35897" lon="7.03151">
        <ele>1761.74</ele>
        <time>2018-09-09T11:57:42Z</time>
      </trkpt>
      <trkpt lat="45.35915" lon="7.03164">
        <ele>1761.93</ele>
        <time>2018-09-09T11:57:43Z</time>
      </trkpt>
      <trkpt lat="45.35933" lon="7.03175">
        <ele>1761.99</ele>
        <time>2018-09-09T11:57:44Z</time>
      </trkpt>
      <trkpt lat="45.35952" lon="7.03187">
        <ele>1762.01</ele>
        <time>2018-09-09T11:57:45Z</time>
      </trkpt>
      <trkpt lat="45.35971" lon="7.032">
        <ele>1762.01</ele>
        <time>2018-09-09T11:57:46Z</time>
      </trkpt>
      <trkpt lat="45.35988" lon="7.03215">
        <ele>1762.01</ele>
        <time>2018-09-09T11:57:47Z</time>
      </trkpt>
      <trkpt lat="45.36005" lon="7.03233">
        <ele>1762.71</ele>
        <time>2018-09-09T11:57:48Z</time>
      </trkpt>
      <trkpt lat="45.36021" lon="7.03251">
        <ele>1763.62</ele>
        <time>2018-09-09T11:57:49Z</time>
      </trkpt>
      <trkpt lat="45.36037" lon="7.03269">
        <ele>1763.9</ele>
        <time>2018-09-09T11:57:50Z</time>
      </trkpt>
      <trkpt lat="45.36053" lon="7.03286">
        <ele>1763.98</ele>
        <time>2018-09-09T11:57:51Z</time>
      </trkpt>
      <trkpt lat="45.3607" lon="7.03304">
        <ele>1764.7</ele>
        <time>2018-09-09T11:57:52Z</time>
      </trkpt>
      <trkpt lat="45.36085" lon="7.03321">
        <ele>1765.62</ele>
        <time>2018-09-09T11:57:53Z</time>
      </trkpt>
      <trkpt lat="45.36102" lon="7.03339">
        <ele>1766.6</ele>
        <time>2018-09-09T11:57:54Z</time>
      </trkpt>
      <trkpt lat="45.36117" lon="7.03356">
        <ele>1767.59</ele>
        <time>2018-09-09T11:57:55Z</time>
      </trkpt>
      <trkpt lat="45.36133" lon="7.03373">
        <ele>1767.89</ele>
        <time>2018-09-09T11:57:56Z</time>
      </trkpt>
      <trkpt lat="45.36149" lon="7.03389">
        <ele>1768.68</ele>
        <time>2018-09-09T11:57:57Z</time>
      </trkpt>
      <trkpt lat="45.36164" lon="7.03406">
        <ele>1768.91</ele>
        <time>2018-09-09T11:57:58Z</time>
      </trkpt>
      <trkpt lat="45.3618" lon="7.03422">
        <ele>1769.68</ele>
        <time>2018-09-09T11:57:59Z</time>
      </trkpt>
      <trkpt lat="45.36196" lon="7.03438">
        <ele>1769.92</ele>
        <time>2018-09-09T11:58:00Z</time>
      </trkpt>
      <trkpt lat="45.36213" lon="7.03452">
        <ele>1769.99</ele>
        <time>2018-09-09T11:58:01Z</time>
      </trkpt>
      <trkpt lat="45.3623" lon="7.03465">
        <ele>1770.71</ele>
        <time>2018-09-09T11:58:02Z</time>
      </trkpt>
      <trkpt lat="45.36247" lon="7.03478">
        <ele>1770.92</ele>
        <time>2018-09-09T11:58:03Z</time>
      </trkpt>
      <trkpt lat="45.36264" lon="7.03492">
        <ele>1770.99</ele>
        <time>2018-09-09T11:58:04Z</time>
      </trkpt>
      <trkpt lat="45.36279" lon="7.03508">
        <ele>1771.71</ele>
        <time>2018-09-09T11:58:05Z</time>
      </trkpt>
      <trkpt lat="45.36295" lon="7.03525">
        <ele>1771.92</ele>
        <time>2018-09-09T11:58:06Z</time>
      </trkpt>
      <trkpt lat="45.36309" lon="7.03544">
        <ele>1772.69</ele>
        <time>2018-09-09T11:58:07Z</time>
      </trkpt>
      <trkpt lat="45.36324" lon="7.03563">
        <ele>1772.92</ele>
        <time>2018-09-09T11:58:08Z</time>
      </trkpt>
      <trkpt lat="45.36338" lon="7.03584">
        <ele>1772.99</ele>
        <time>2018-09-09T11:58:09Z</time>
      </trkpt>
      <trkpt lat="45.36352" lon="7.03606">
        <ele>1773.71</ele>
        <time>2018-09-09T11:58:10Z</time>
      </trkpt>
      <trkpt lat="45.36367" lon="7.03627">
        <ele>1774.62</ele>
        <time>2018-09-09T11:58:11Z</time>
      </trkpt>
      <trkpt lat="45.36382" lon="7.03647">
        <ele>1774.9</ele>
        <time>2018-09-09T11:58:12Z</time>
      </trkpt>
      <trkpt lat="45.36398" lon="7.03667">
        <ele>1774.98</ele>
        <time>2018-09-09T11:58:13Z</time>
      </trkpt>
      <trkpt lat="45.36414" lon="7.03685">
        <ele>1774.3</ele>
        <time>2018-09-09T11:58:14Z</time>
      </trkpt>
      <trkpt lat="45.36432" lon="7.03703">
        <ele>1774.8</ele>
        <time>2018-09-09T11:58:15Z</time>
      </trkpt>
      <trkpt lat="45.36448" lon="7.0372">
        <ele>1774.25</ele>
        <time>2018-09-09T11:58:16Z</time>
      </trkpt>
      <trkpt lat="45.36466" lon="7.03738">
        <ele>1774.09</ele>
        <time>2018-09-09T11:58:17Z</time>
      </trkpt>
      <trkpt lat="45.36482" lon="7.03755">
        <ele>1774.04</ele>
        <time>2018-09-09T11:58:18Z</time>
      </trkpt>
      <trkpt lat="45.36498" lon="7.03772">
        <ele>1774.02</ele>
        <time>2018-09-09T11:58:19Z</time>
      </trkpt>
      <trkpt lat="45.36515" lon="7.03789">
        <ele>1774.02</ele>
        <time>2018-09-09T11:58:20Z</time>
      </trkpt>
      <trkpt lat="45.3653" lon="7.03805">
        <ele>1774.02</ele>
        <time>2018-09-09T11:58:21Z</time>
      </trkpt>
      <trkpt lat="45.36547" lon="7.03821">
        <ele>1774.02</ele>
        <time>2018-09-09T11:58:22Z</time>
      </trkpt>
      <trkpt lat="45.36563" lon="7.03838">
        <ele>1774.72</ele>
        <time>2018-09-09T11:58:23Z</time>
      </trkpt>
      <trkpt lat="45.36579" lon="7.03854">
        <ele>1775.62</ele>
        <time>2018-09-09T11:58:24Z</time>
      </trkpt>
      <trkpt lat="45.36595" lon="7.0387">
        <ele>1775.9</ele>
        <time>2018-09-09T11:58:25Z</time>
      </trkpt>
      <trkpt lat="45.3661" lon="7.03885">
        <ele>1775.98</ele>
        <time>2018-09-09T11:58:26Z</time>
      </trkpt>
      <trkpt lat="45.36626" lon="7.039">
        <ele>1776.7</ele>
        <time>2018-09-09T11:58:27Z</time>
      </trkpt>
      <trkpt lat="45.36642" lon="7.03915">
        <ele>1777.62</ele>
        <time>2018-09-09T11:58:28Z</time>
      </trkpt>
      <trkpt lat="45.36657" lon="7.0393">
        <ele>1777.9</ele>
        <time>2018-09-09T11:58:29Z</time>
      </trkpt>
      <trkpt lat="45.36672" lon="7.03946">
        <ele>1778.68</ele>
        <time>2018-09-09T11:58:30Z</time>
      </trkpt>
      <trkpt lat="45.36687" lon="7.03961">
        <ele>1778.91</ele>
        <time>2018-09-09T11:58:31Z</time>
      </trkpt>
      <trkpt lat="45.36702" lon="7.03976">
        <ele>1779.68</ele>
        <time>2018-09-09T11:58:32Z</time>
      </trkpt>
      <trkpt lat="45.36717" lon="7.03993">
        <ele>1779.92</ele>
        <time>2018-09-09T11:58:33Z</time>
      </trkpt>
      <trkpt lat="45.36731" lon="7.0401">
        <ele>1780.69</ele>
        <time>2018-09-09T11:58:34Z</time>
      </trkpt>
      <trkpt lat="45.36745" lon="7.04028">
        <ele>1780.92</ele>
        <time>2018-09-09T11:58:35Z</time>
      </trkpt>
      <trkpt lat="45.36759" lon="7.04046">
        <ele>1780.99</ele>
        <time>2018-09-09T11:58:36Z</time>
      </trkpt>
      <trkpt lat="45.36773" lon="7.04065">
        <ele>1781.01</ele>
        <time>2018-09-09T11:58:37Z</time>
      </trkpt>
      <trkpt lat="45.36787" lon="7.04084">
        <ele>1781.71</ele>
        <time>2018-09-09T11:58:38Z</time>
      </trkpt>
      <trkpt lat="45.36801" lon="7.04103">
        <ele>1781.92</ele>
        <time>2018-09-09T11:58:39Z</time>
      </trkpt>
      <trkpt lat="45.36816" lon="7.04122">
        <ele>1782.69</ele>
        <time>2018-09-09T11:58:40Z</time>
      </trkpt>
      <trkpt lat="45.3683" lon="7.04141">
        <ele>1782.92</ele>
        <time>2018-09-09T11:58:41Z</time>
      </trkpt>
      <trkpt lat="45.36844" lon="7.0416">
        <ele>1782.99</ele>
        <time>2018-09-09T11:58:42Z</time>
      </trkpt>
      <trkpt lat="45.36858" lon="7.04179">
        <ele>1783.01</ele>
        <time>2018-09-09T11:58:43Z</time>
      </trkpt>
      <trkpt lat="45.36872" lon="7.04197">
        <ele>1783.71</ele>
        <time>2018-09-09T11:58:44Z</time>
      </trkpt>
      <trkpt lat="45.36886" lon="7.04216">
        <ele>1783.92</ele>
        <time>2018-09-09T11:58:45Z</time>
      </trkpt>
      <trkpt lat="45.369" lon="7.04235">
        <ele>1783.99</ele>
        <time>2018-09-09T11:58:46Z</time>
      </trkpt>
      <trkpt lat="45.36913" lon="7.04255">
        <ele>1784.01</ele>
        <time>2018-09-09T11:58:47Z</time>
      </trkpt>
      <trkpt lat="45.36926" lon="7.04276">
        <ele>1784.01</ele>
        <time>2018-09-09T11:58:48Z</time>
      </trkpt>
      <trkpt lat="45.36936" lon="7.04299">
        <ele>1784.01</ele>
        <time>2018-09-09T11:58:49Z</time>
      </trkpt>
      <trkpt lat="45.36945" lon="7.04324">
        <ele>1784.71</ele>
        <time>2018-09-09T11:58:50Z</time>
      </trkpt>
      <trkpt lat="45.36953" lon="7.04349">
        <ele>1784.92</ele>
        <time>2018-09-09T11:58:51Z</time>
      </trkpt>
      <trkpt lat="45.3696" lon="7.04375">
        <ele>1784.99</ele>
        <time>2018-09-09T11:58:52Z</time>
      </trkpt>
      <trkpt lat="45.36967" lon="7.04401">
        <ele>1785.01</ele>
        <time>2018-09-09T11:58:53Z</time>
      </trkpt>
      <trkpt lat="45.36975" lon="7.04426">
        <ele>1785.01</ele>
        <time>2018-09-09T11:58:54Z</time>
      </trkpt>
      <trkpt lat="45.36982" lon="7.0445">
        <ele>1785.01</ele>
        <time>2018-09-09T11:58:55Z</time>
      </trkpt>
      <trkpt lat="45.36989" lon="7.04475">
        <ele>1785.01</ele>
        <time>2018-09-09T11:58:56Z</time>
      </trkpt>
      <trkpt lat="45.36995" lon="7.045">
        <ele>1785.71</ele>
        <time>2018-09-09T11:58:57Z</time>
      </trkpt>
      <trkpt lat="45.37002" lon="7.04524">
        <ele>1785.92</ele>
        <time>2018-09-09T11:58:58Z</time>
      </trkpt>
      <trkpt lat="45.37009" lon="7.04547">
        <ele>1785.99</ele>
        <time>2018-09-09T11:58:59Z</time>
      </trkpt>
      <trkpt lat="45.37016" lon="7.04571">
        <ele>1786.71</ele>
        <time>2018-09-09T11:59:00Z</time>
      </trkpt>
      <trkpt lat="45.3703" lon="7.04618">
        <ele>1786.99</ele>
        <time>2018-09-09T11:59:02Z</time>
      </trkpt>
      <trkpt lat="45.37043" lon="7.04661">
        <ele>1787.92</ele>
        <time>2018-09-09T11:59:04Z</time>
      </trkpt>
      <trkpt lat="45.37057" lon="7.04697">
        <ele>1788.01</ele>
        <time>2018-09-09T11:59:06Z</time>
      </trkpt>
      <trkpt lat="45.37071" lon="7.04732">
        <ele>1788.71</ele>
        <time>2018-09-09T11:59:08Z</time>
      </trkpt>
      <trkpt lat="45.37086" lon="7.04767">
        <ele>1788.99</ele>
        <time>2018-09-09T11:59:10Z</time>
      </trkpt>
      <trkpt lat="45.37101" lon="7.04802">
        <ele>1789.92</ele>
        <time>2018-09-09T11:59:12Z</time>
      </trkpt>
      <trkpt lat="45.37116" lon="7.04839">
        <ele>1790.01</ele>
        <time>2018-09-09T11:59:14Z</time>
      </trkpt>
      <trkpt lat="45.37132" lon="7.04876">
        <ele>1790.92</ele>
        <time>2018-09-09T11:59:16Z</time>
      </trkpt>
      <trkpt lat="45.37148" lon="7.04914">
        <ele>1790.8</ele>
        <time>2018-09-09T11:59:18Z</time>
      </trkpt>
      <trkpt lat="45.37164" lon="7.04953">
        <ele>1791.7</ele>
        <time>2018-09-09T11:59:20Z</time>
      </trkpt>
      <trkpt lat="45.37181" lon="7.04993">
        <ele>1792.69</ele>
        <time>2018-09-09T11:59:22Z</time>
      </trkpt>
      <trkpt lat="45.37199" lon="7.05033">
        <ele>1793.9</ele>
        <time>2018-09-09T11:59:24Z</time>
      </trkpt>
      <trkpt lat="45.37219" lon="7.05073">
        <ele>1795.61</ele>
        <time>2018-09-09T11:59:26Z</time>
      </trkpt>
      <trkpt lat="45.37236" lon="7.05113">
        <ele>1797.59</ele>
        <time>2018-09-09T11:59:28Z</time>
      </trkpt>
      <trkpt lat="45.37256" lon="7.05154">
        <ele>1799.59</ele>
        <time>2018-09-09T11:59:30Z</time>
      </trkpt>
      <trkpt lat="45.37275" lon="7.05195">
        <ele>1801.38</ele>
        <time>2018-09-09T11:59:32Z</time>
      </trkpt>
      <trkpt lat="45.37293" lon="7.05234">
        <ele>1801.05</ele>
        <time>2018-09-09T11:59:34Z</time>
      </trkpt>
      <trkpt lat="45.37312" lon="7.05264">
        <ele>1802.63</ele>
        <time>2018-09-09T11:59:36Z</time>
      </trkpt>
      <trkpt lat="45.37335" lon="7.05283">
        <ele>1804.59</ele>
        <time>2018-09-09T11:59:38Z</time>
      </trkpt>
      <trkpt lat="45.3736" lon="7.05287">
        <ele>1805.89</ele>
        <time>2018-09-09T11:59:40Z</time>
      </trkpt>
      <trkpt lat="45.37383" lon="7.05281">
        <ele>1807.61</ele>
        <time>2018-09-09T11:59:42Z</time>
      </trkpt>
      <trkpt lat="45.37403" lon="7.05263">
        <ele>1809.59</ele>
        <time>2018-09-09T11:59:44Z</time>
      </trkpt>
      <trkpt lat="45.37418" lon="7.05236">
        <ele>1810.89</ele>
        <time>2018-09-09T11:59:46Z</time>
      </trkpt>
      <trkpt lat="45.37429" lon="7.05199">
        <ele>1812.61</ele>
        <time>2018-09-09T11:59:48Z</time>
      </trkpt>
      <trkpt lat="45.37431" lon="7.05155">
        <ele>1814.59</ele>
        <time>2018-09-09T11:59:50Z</time>
      </trkpt>
      <trkpt lat="45.37429" lon="7.05102">
        <ele>1817.5</ele>
        <time>2018-09-09T11:59:52Z</time>
      </trkpt>
      <trkpt lat="45.37425" lon="7.05072">
        <ele>1819.26</ele>
        <time>2018-09-09T11:59:53Z</time>
      </trkpt>
      <trkpt lat="45.3742" lon="7.0504">
        <ele>1821.89</ele>
        <time>2018-09-09T11:59:54Z</time>
      </trkpt>
      <trkpt lat="45.37414" lon="7.05007">
        <ele>1824.08</ele>
        <time>2018-09-09T11:59:55Z</time>
      </trkpt>
      <trkpt lat="45.37409" lon="7.04974">
        <ele>1826.83</ele>
        <time>2018-09-09T11:59:56Z</time>
      </trkpt>
      <trkpt lat="45.37404" lon="7.04942">
        <ele>1829.06</ele>
        <time>2018-09-09T11:59:57Z</time>
      </trkpt>
      <trkpt lat="45.374" lon="7.04911">
        <ele>1831.13</ele>
        <time>2018-09-09T11:59:58Z</time>
      </trkpt>
      <trkpt lat="45.37394" lon="7.04884">
        <ele>1833.15</ele>
        <time>2018-09-09T11:59:59Z</time>
      </trkpt>
      <trkpt lat="45.37388" lon="7.04856">
        <ele>1835.16</ele>
        <time>2018-09-09T12:00:00Z</time>
      </trkpt>
      <trkpt lat="45.37382" lon="7.04829">
        <ele>1837.86</ele>
        <time>2018-09-09T12:00:01Z</time>
      </trkpt>
      <trkpt lat="45.37376" lon="7.04801">
        <ele>1840.07</ele>
        <time>2018-09-09T12:00:02Z</time>
      </trkpt>
      <trkpt lat="45.37374" lon="7.04773">
        <ele>1842.13</ele>
        <time>2018-09-09T12:00:03Z</time>
      </trkpt>
      <trkpt lat="45.37371" lon="7.04748">
        <ele>1843.45</ele>
        <time>2018-09-09T12:00:04Z</time>
      </trkpt>
      <trkpt lat="45.37367" lon="7.04722">
        <ele>1845.25</ele>
        <time>2018-09-09T12:00:05Z</time>
      </trkpt>
      <trkpt lat="45.37364" lon="7.04696">
        <ele>1846.48</ele>
        <time>2018-09-09T12:00:06Z</time>
      </trkpt>
      <trkpt lat="45.37363" lon="7.04669">
        <ele>1847.56</ele>
        <time>2018-09-09T12:00:07Z</time>
      </trkpt>
      <trkpt lat="45.37363" lon="7.04641">
        <ele>1849.28</ele>
        <time>2018-09-09T12:00:08Z</time>
      </trkpt>
      <trkpt lat="45.37363" lon="7.04615">
        <ele>1851.19</ele>
        <time>2018-09-09T12:00:09Z</time>
      </trkpt>
      <trkpt lat="45.37366" lon="7.04567">
        <ele>1853.34</ele>
        <time>2018-09-09T12:00:11Z</time>
      </trkpt>
      <trkpt lat="45.37372" lon="7.0452">
        <ele>1856.26</ele>
        <time>2018-09-09T12:00:13Z</time>
      </trkpt>
      <trkpt lat="45.37373" lon="7.04494">
        <ele>1858.19</ele>
        <time>2018-09-09T12:00:14Z</time>
      </trkpt>
      <trkpt lat="45.37372" lon="7.04467">
        <ele>1859.47</ele>
        <time>2018-09-09T12:00:15Z</time>
      </trkpt>
      <trkpt lat="45.37369" lon="7.0444">
        <ele>1861.25</ele>
        <time>2018-09-09T12:00:16Z</time>
      </trkpt>
      <trkpt lat="45.37364" lon="7.04413">
        <ele>1863.19</ele>
        <time>2018-09-09T12:00:17Z</time>
      </trkpt>
      <trkpt lat="45.37359" lon="7.04386">
        <ele>1865.17</ele>
        <time>2018-09-09T12:00:18Z</time>
      </trkpt>
      <trkpt lat="45.37353" lon="7.04359">
        <ele>1866.46</ele>
        <time>2018-09-09T12:00:19Z</time>
      </trkpt>
      <trkpt lat="45.37349" lon="7.04332">
        <ele>1868.25</ele>
        <time>2018-09-09T12:00:20Z</time>
      </trkpt>
      <trkpt lat="45.37345" lon="7.04304">
        <ele>1870.19</ele>
        <time>2018-09-09T12:00:21Z</time>
      </trkpt>
      <trkpt lat="45.3734" lon="7.04277">
        <ele>1872.17</ele>
        <time>2018-09-09T12:00:22Z</time>
      </trkpt>
      <trkpt lat="45.37335" lon="7.04251">
        <ele>1873.46</ele>
        <time>2018-09-09T12:00:23Z</time>
      </trkpt>
      <trkpt lat="45.37329" lon="7.04224">
        <ele>1875.25</ele>
        <time>2018-09-09T12:00:24Z</time>
      </trkpt>
      <trkpt lat="45.37322" lon="7.04198">
        <ele>1877.19</ele>
        <time>2018-09-09T12:00:25Z</time>
      </trkpt>
      <trkpt lat="45.37315" lon="7.04173">
        <ele>1879.17</ele>
        <time>2018-09-09T12:00:26Z</time>
      </trkpt>
      <trkpt lat="45.37309" lon="7.04147">
        <ele>1881.16</ele>
        <time>2018-09-09T12:00:27Z</time>
      </trkpt>
      <trkpt lat="45.37302" lon="7.04122">
        <ele>1882.46</ele>
        <time>2018-09-09T12:00:28Z</time>
      </trkpt>
      <trkpt lat="45.37296" lon="7.04098">
        <ele>1884.25</ele>
        <time>2018-09-09T12:00:29Z</time>
      </trkpt>
      <trkpt lat="45.37291" lon="7.04073">
        <ele>1885.48</ele>
        <time>2018-09-09T12:00:30Z</time>
      </trkpt>
      <trkpt lat="45.37279" lon="7.04023">
        <ele>1888.49</ele>
        <time>2018-09-09T12:00:32Z</time>
      </trkpt>
      <trkpt lat="45.37273" lon="7.03998">
        <ele>1890.26</ele>
        <time>2018-09-09T12:00:33Z</time>
      </trkpt>
      <trkpt lat="45.37267" lon="7.03973">
        <ele>1892.19</ele>
        <time>2018-09-09T12:00:34Z</time>
      </trkpt>
      <trkpt lat="45.37256" lon="7.03928">
        <ele>1896.16</ele>
        <time>2018-09-09T12:00:36Z</time>
      </trkpt>
      <trkpt lat="45.37245" lon="7.03886">
        <ele>1898.55</ele>
        <time>2018-09-09T12:00:38Z</time>
      </trkpt>
      <trkpt lat="45.37228" lon="7.0385">
        <ele>1902.4</ele>
        <time>2018-09-09T12:00:40Z</time>
      </trkpt>
      <trkpt lat="45.37218" lon="7.03812">
        <ele>1904.57</ele>
        <time>2018-09-09T12:00:42Z</time>
      </trkpt>
      <trkpt lat="45.37211" lon="7.03765">
        <ele>1907.49</ele>
        <time>2018-09-09T12:00:44Z</time>
      </trkpt>
      <trkpt lat="45.37206" lon="7.0374">
        <ele>1909.26</ele>
        <time>2018-09-09T12:00:45Z</time>
      </trkpt>
      <trkpt lat="45.37203" lon="7.03691">
        <ele>1912.26</ele>
        <time>2018-09-09T12:00:47Z</time>
      </trkpt>
      <trkpt lat="45.372" lon="7.03665">
        <ele>1913.49</ele>
        <time>2018-09-09T12:00:48Z</time>
      </trkpt>
      <trkpt lat="45.37196" lon="7.03639">
        <ele>1915.26</ele>
        <time>2018-09-09T12:00:49Z</time>
      </trkpt>
      <trkpt lat="45.37191" lon="7.0359">
        <ele>1919.17</ele>
        <time>2018-09-09T12:00:51Z</time>
      </trkpt>
      <trkpt lat="45.37186" lon="7.03542">
        <ele>1922.46</ele>
        <time>2018-09-09T12:00:53Z</time>
      </trkpt>
      <trkpt lat="45.37172" lon="7.03497">
        <ele>1923.66</ele>
        <time>2018-09-09T12:00:55Z</time>
      </trkpt>
      <trkpt lat="45.37148" lon="7.03461">
        <ele>1926.08</ele>
        <time>2018-09-09T12:00:57Z</time>
      </trkpt>
      <trkpt lat="45.37135" lon="7.03441">
        <ele>1928.14</ele>
        <time>2018-09-09T12:00:58Z</time>
      </trkpt>
      <trkpt lat="45.37114" lon="7.03402">
        <ele>1932.16</ele>
        <time>2018-09-09T12:01:00Z</time>
      </trkpt>
      <trkpt lat="45.37095" lon="7.03359">
        <ele>1936.16</ele>
        <time>2018-09-09T12:01:02Z</time>
      </trkpt>
      <trkpt lat="45.3708" lon="7.03315">
        <ele>1940.16</ele>
        <time>2018-09-09T12:01:04Z</time>
      </trkpt>
      <trkpt lat="45.3706" lon="7.03282">
        <ele>1942.34</ele>
        <time>2018-09-09T12:01:06Z</time>
      </trkpt>
      <trkpt lat="45.37036" lon="7.0326">
        <ele>1946.17</ele>
        <time>2018-09-09T12:01:08Z</time>
      </trkpt>
      <trkpt lat="45.37015" lon="7.03241">
        <ele>1948.34</ele>
        <time>2018-09-09T12:01:10Z</time>
      </trkpt>
      <trkpt lat="45.37001" lon="7.03221">
        <ele>1950.56</ele>
        <time>2018-09-09T12:01:12Z</time>
      </trkpt>
      <trkpt lat="45.36986" lon="7.03203">
        <ele>1951.88</ele>
        <time>2018-09-09T12:01:14Z</time>
      </trkpt>
      <trkpt lat="45.3697" lon="7.03181">
        <ele>1953.89</ele>
        <time>2018-09-09T12:01:17Z</time>
      </trkpt>
      <trkpt lat="45.36989" lon="7.03182">
        <ele>1958.19</ele>
        <time>2018-09-09T12:01:26Z</time>
      </trkpt>
      <trkpt lat="45.3701" lon="7.03204">
        <ele>1959.69</ele>
        <time>2018-09-09T12:01:29Z</time>
      </trkpt>
      <trkpt lat="45.37032" lon="7.0322">
        <ele>1963.29</ele>
        <time>2018-09-09T12:01:32Z</time>
      </trkpt>
      <trkpt lat="45.37056" lon="7.03224">
        <ele>1966.58</ele>
        <time>2018-09-09T12:01:35Z</time>
      </trkpt>
      <trkpt lat="45.37075" lon="7.03227">
        <ele>1968.38</ele>
        <time>2018-09-09T12:01:37Z</time>
      </trkpt>
      <trkpt lat="45.37098" lon="7.03238">
        <ele>1969.87</ele>
        <time>2018-09-09T12:01:39Z</time>
      </trkpt>
      <trkpt lat="45.37118" lon="7.03261">
        <ele>1972.52</ele>
        <time>2018-09-09T12:01:41Z</time>
      </trkpt>
      <trkpt lat="45.3713" lon="7.03286">
        <ele>1974.58</ele>
        <time>2018-09-09T12:01:43Z</time>
      </trkpt>
      <trkpt lat="45.37142" lon="7.03306">
        <ele>1975.89</ele>
        <time>2018-09-09T12:01:45Z</time>
      </trkpt>
      <trkpt lat="45.37162" lon="7.03322">
        <ele>1977.61</ele>
        <time>2018-09-09T12:01:47Z</time>
      </trkpt>
      <trkpt lat="45.3719" lon="7.03339">
        <ele>1980.29</ele>
        <time>2018-09-09T12:01:49Z</time>
      </trkpt>
      <trkpt lat="45.37218" lon="7.03357">
        <ele>1983.26</ele>
        <time>2018-09-09T12:01:51Z</time>
      </trkpt>
      <trkpt lat="45.37243" lon="7.0338">
        <ele>1986.26</ele>
        <time>2018-09-09T12:01:53Z</time>
      </trkpt>
      <trkpt lat="45.37259" lon="7.03404">
        <ele>1988.56</ele>
        <time>2018-09-09T12:01:55Z</time>
      </trkpt>
      <trkpt lat="45.37275" lon="7.03422">
        <ele>1991.71</ele>
        <time>2018-09-09T12:02:16Z</time>
      </trkpt>
      <trkpt lat="45.37293" lon="7.03445">
        <ele>1992.92</ele>
        <time>2018-09-09T12:02:19Z</time>
      </trkpt>
      <trkpt lat="45.37309" lon="7.03468">
        <ele>1993.71</ele>
        <time>2018-09-09T12:02:21Z</time>
      </trkpt>
      <trkpt lat="45.37324" lon="7.03497">
        <ele>1996.51</ele>
        <time>2018-09-09T12:02:23Z</time>
      </trkpt>
      <trkpt lat="45.37328" lon="7.03531">
        <ele>1998.58</ele>
        <time>2018-09-09T12:02:25Z</time>
      </trkpt>
      <trkpt lat="45.37329" lon="7.03558">
        <ele>2001.29</ele>
        <time>2018-09-09T12:02:27Z</time>
      </trkpt>
      <trkpt lat="45.37345" lon="7.03595">
        <ele>2003.61</ele>
        <time>2018-09-09T12:02:30Z</time>
      </trkpt>
      <trkpt lat="45.37355" lon="7.03627">
        <ele>2006.5</ele>
        <time>2018-09-09T12:02:32Z</time>
      </trkpt>
      <trkpt lat="45.37355" lon="7.03658">
        <ele>2009.49</ele>
        <time>2018-09-09T12:02:34Z</time>
      </trkpt>
      <trkpt lat="45.37363" lon="7.03688">
        <ele>2012.79</ele>
        <time>2018-09-09T12:02:37Z</time>
      </trkpt>
      <trkpt lat="45.37381" lon="7.03713">
        <ele>2015.59</ele>
        <time>2018-09-09T12:02:40Z</time>
      </trkpt>
      <trkpt lat="45.3739" lon="7.03736">
        <ele>2017.59</ele>
        <time>2018-09-09T12:02:42Z</time>
      </trkpt>
      <trkpt lat="45.37401" lon="7.03762">
        <ele>2019.8</ele>
        <time>2018-09-09T12:02:44Z</time>
      </trkpt>
      <trkpt lat="45.37417" lon="7.03796">
        <ele>2022.31</ele>
        <time>2018-09-09T12:02:46Z</time>
      </trkpt>
      <trkpt lat="45.37433" lon="7.03838">
        <ele>2024.56</ele>
        <time>2018-09-09T12:02:48Z</time>
      </trkpt>
      <trkpt lat="45.37442" lon="7.03861">
        <ele>2026.98</ele>
        <time>2018-09-09T12:02:49Z</time>
      </trkpt>
      <trkpt lat="45.37451" lon="7.03883">
        <ele>2029.1</ele>
        <time>2018-09-09T12:02:50Z</time>
      </trkpt>
      <trkpt lat="45.37467" lon="7.03928">
        <ele>2032.24</ele>
        <time>2018-09-09T12:02:52Z</time>
      </trkpt>
      <trkpt lat="45.37485" lon="7.0397">
        <ele>2035.47</ele>
        <time>2018-09-09T12:02:54Z</time>
      </trkpt>
      <trkpt lat="45.37504" lon="7.04011">
        <ele>2037.58</ele>
        <time>2018-09-09T12:02:56Z</time>
      </trkpt>
      <trkpt lat="45.37521" lon="7.0405">
        <ele>2041.2</ele>
        <time>2018-09-09T12:02:58Z</time>
      </trkpt>
      <trkpt lat="45.37535" lon="7.04094">
        <ele>2043.55</ele>
        <time>2018-09-09T12:03:00Z</time>
      </trkpt>
      <trkpt lat="45.37546" lon="7.0414">
        <ele>2046.49</ele>
        <time>2018-09-09T12:03:02Z</time>
      </trkpt>
      <trkpt lat="45.3756" lon="7.04185">
        <ele>2049.49</ele>
        <time>2018-09-09T12:03:04Z</time>
      </trkpt>
      <trkpt lat="45.37569" lon="7.04208">
        <ele>2051.26</ele>
        <time>2018-09-09T12:03:05Z</time>
      </trkpt>
      <trkpt lat="45.37576" lon="7.04232">
        <ele>2053.19</ele>
        <time>2018-09-09T12:03:06Z</time>
      </trkpt>
      <trkpt lat="45.37585" lon="7.04255">
        <ele>2054.47</ele>
        <time>2018-09-09T12:03:07Z</time>
      </trkpt>
      <trkpt lat="45.37602" lon="7.04295">
        <ele>2057.49</ele>
        <time>2018-09-09T12:03:09Z</time>
      </trkpt>
      <trkpt lat="45.37609" lon="7.04335">
        <ele>2060.28</ele>
        <time>2018-09-09T12:03:11Z</time>
      </trkpt>
      <trkpt lat="45.37621" lon="7.04375">
        <ele>2063.26</ele>
        <time>2018-09-09T12:03:13Z</time>
      </trkpt>
      <trkpt lat="45.37637" lon="7.04416">
        <ele>2066.47</ele>
        <time>2018-09-09T12:03:15Z</time>
      </trkpt>
      <trkpt lat="45.3765" lon="7.04453">
        <ele>2070.19</ele>
        <time>2018-09-09T12:03:17Z</time>
      </trkpt>
      <trkpt lat="45.37658" lon="7.04479">
        <ele>2072.88</ele>
        <time>2018-09-09T12:03:20Z</time>
      </trkpt>
      <trkpt lat="45.37676" lon="7.04505">
        <ele>2074.69</ele>
        <time>2018-09-09T12:03:35Z</time>
      </trkpt>
      <trkpt lat="45.37688" lon="7.04531">
        <ele>2075.69</ele>
        <time>2018-09-09T12:03:37Z</time>
      </trkpt>
      <trkpt lat="45.37695" lon="7.04565">
        <ele>2078.3</ele>
        <time>2018-09-09T12:03:39Z</time>
      </trkpt>
      <trkpt lat="45.37703" lon="7.04601">
        <ele>2080.56</ele>
        <time>2018-09-09T12:03:41Z</time>
      </trkpt>
      <trkpt lat="45.37713" lon="7.04636">
        <ele>2083.49</ele>
        <time>2018-09-09T12:03:43Z</time>
      </trkpt>
      <trkpt lat="45.37726" lon="7.04671">
        <ele>2086.49</ele>
        <time>2018-09-09T12:03:45Z</time>
      </trkpt>
      <trkpt lat="45.37735" lon="7.04708">
        <ele>2089.28</ele>
        <time>2018-09-09T12:03:47Z</time>
      </trkpt>
      <trkpt lat="45.37745" lon="7.04743">
        <ele>2091.35</ele>
        <time>2018-09-09T12:03:49Z</time>
      </trkpt>
      <trkpt lat="45.3776" lon="7.04774">
        <ele>2093.56</ele>
        <time>2018-09-09T12:03:51Z</time>
      </trkpt>
      <trkpt lat="45.37774" lon="7.04807">
        <ele>2095.79</ele>
        <time>2018-09-09T12:03:53Z</time>
      </trkpt>
      <trkpt lat="45.37786" lon="7.04841">
        <ele>2099.43</ele>
        <time>2018-09-09T12:03:55Z</time>
      </trkpt>
      <trkpt lat="45.37807" lon="7.04869">
        <ele>2101.78</ele>
        <time>2018-09-09T12:03:57Z</time>
      </trkpt>
      <trkpt lat="45.37829" lon="7.049">
        <ele>2105.21</ele>
        <time>2018-09-09T12:03:59Z</time>
      </trkpt>
      <trkpt lat="45.37851" lon="7.04931">
        <ele>2108.25</ele>
        <time>2018-09-09T12:04:01Z</time>
      </trkpt>
      <trkpt lat="45.3787" lon="7.04961">
        <ele>2110.56</ele>
        <time>2018-09-09T12:04:03Z</time>
      </trkpt>
      <trkpt lat="45.37891" lon="7.04982">
        <ele>2112.58</ele>
        <time>2018-09-09T12:04:05Z</time>
      </trkpt>
      <trkpt lat="45.37912" lon="7.04997">
        <ele>2114.59</ele>
        <time>2018-09-09T12:04:07Z</time>
      </trkpt>
      <trkpt lat="45.37935" lon="7.05006">
        <ele>2116.8</ele>
        <time>2018-09-09T12:04:09Z</time>
      </trkpt>
      <trkpt lat="45.37958" lon="7.05012">
        <ele>2117.91</ele>
        <time>2018-09-09T12:04:11Z</time>
      </trkpt>
      <trkpt lat="45.37982" lon="7.05015">
        <ele>2118.92</ele>
        <time>2018-09-09T12:04:13Z</time>
      </trkpt>
      <trkpt lat="45.38009" lon="7.05007">
        <ele>2119.71</ele>
        <time>2018-09-09T12:04:15Z</time>
      </trkpt>
      <trkpt lat="45.38031" lon="7.04999">
        <ele>2119.99</ele>
        <time>2018-09-09T12:04:17Z</time>
      </trkpt>
      <trkpt lat="45.38051" lon="7.04995">
        <ele>2120.71</ele>
        <time>2018-09-09T12:04:19Z</time>
      </trkpt>
      <trkpt lat="45.3807" lon="7.04983">
        <ele>2120.08</ele>
        <time>2018-09-09T12:04:21Z</time>
      </trkpt>
      <trkpt lat="45.38081" lon="7.0496">
        <ele>2119.32</ele>
        <time>2018-09-09T12:04:23Z</time>
      </trkpt>
      <trkpt lat="45.38083" lon="7.04925">
        <ele>2119.95</ele>
        <time>2018-09-09T12:04:25Z</time>
      </trkpt>
      <trkpt lat="45.381" lon="7.04894">
        <ele>2120.71</ele>
        <time>2018-09-09T12:04:27Z</time>
      </trkpt>
      <trkpt lat="45.38119" lon="7.04862">
        <ele>2120.99</ele>
        <time>2018-09-09T12:04:29Z</time>
      </trkpt>
      <trkpt lat="45.38127" lon="7.04831">
        <ele>2120.8</ele>
        <time>2018-09-09T12:04:31Z</time>
      </trkpt>
      <trkpt lat="45.3813" lon="7.04788">
        <ele>2120.09</ele>
        <time>2018-09-09T12:04:33Z</time>
      </trkpt>
      <trkpt lat="45.3814" lon="7.04744">
        <ele>2120.93</ele>
        <time>2018-09-09T12:04:35Z</time>
      </trkpt>
      <trkpt lat="45.38154" lon="7.04705">
        <ele>2122.41</ele>
        <time>2018-09-09T12:04:37Z</time>
      </trkpt>
      <trkpt lat="45.38171" lon="7.04674">
        <ele>2122.96</ele>
        <time>2018-09-09T12:04:39Z</time>
      </trkpt>
      <trkpt lat="45.38204" lon="7.04655">
        <ele>2123.71</ele>
        <time>2018-09-09T12:04:41Z</time>
      </trkpt>
      <trkpt lat="45.38236" lon="7.04639">
        <ele>2125.6</ele>
        <time>2018-09-09T12:04:43Z</time>
      </trkpt>
      <trkpt lat="45.38262" lon="7.04622">
        <ele>2126.89</ele>
        <time>2018-09-09T12:04:45Z</time>
      </trkpt>
      <trkpt lat="45.38287" lon="7.04598">
        <ele>2127.7</ele>
        <time>2018-09-09T12:04:47Z</time>
      </trkpt>
      <trkpt lat="45.38289" lon="7.04567">
        <ele>2127.92</ele>
        <time>2018-09-09T12:04:48Z</time>
      </trkpt>
      <trkpt lat="45.38308" lon="7.04525">
        <ele>2128.71</ele>
        <time>2018-09-09T12:04:50Z</time>
      </trkpt>
      <trkpt lat="45.3832" lon="7.04505">
        <ele>2128.92</ele>
        <time>2018-09-09T12:04:51Z</time>
      </trkpt>
      <trkpt lat="45.38346" lon="7.04473">
        <ele>2129.71</ele>
        <time>2018-09-09T12:04:53Z</time>
      </trkpt>
      <trkpt lat="45.3837" lon="7.04437">
        <ele>2129.99</ele>
        <time>2018-09-09T12:04:55Z</time>
      </trkpt>
      <trkpt lat="45.3839" lon="7.04397">
        <ele>2130.92</ele>
        <time>2018-09-09T12:04:57Z</time>
      </trkpt>
      <trkpt lat="45.38408" lon="7.04359">
        <ele>2131.92</ele>
        <time>2018-09-09T12:04:59Z</time>
      </trkpt>
      <trkpt lat="45.38426" lon="7.04327">
        <ele>2132.71</ele>
        <time>2018-09-09T12:05:01Z</time>
      </trkpt>
      <trkpt lat="45.38441" lon="7.04302">
        <ele>2133.9</ele>
        <time>2018-09-09T12:05:03Z</time>
      </trkpt>
      <trkpt lat="45.38455" lon="7.04279">
        <ele>2135.61</ele>
        <time>2018-09-09T12:05:05Z</time>
      </trkpt>
      <trkpt lat="45.38472" lon="7.04265">
        <ele>2135.98</ele>
        <time>2018-09-09T12:05:07Z</time>
      </trkpt>
      <trkpt lat="45.38491" lon="7.0427">
        <ele>2136.71</ele>
        <time>2018-09-09T12:05:09Z</time>
      </trkpt>
      <trkpt lat="45.38511" lon="7.04281">
        <ele>2137.69</ele>
        <time>2018-09-09T12:05:11Z</time>
      </trkpt>
      <trkpt lat="45.38531" lon="7.04295">
        <ele>2137.99</ele>
        <time>2018-09-09T12:05:13Z</time>
      </trkpt>
      <trkpt lat="45.38546" lon="7.04323">
        <ele>2138.92</ele>
        <time>2018-09-09T12:05:15Z</time>
      </trkpt>
      <trkpt lat="45.38547" lon="7.04361">
        <ele>2140.41</ele>
        <time>2018-09-09T12:05:17Z</time>
      </trkpt>
      <trkpt lat="45.38541" lon="7.04399">
        <ele>2142.36</ele>
        <time>2018-09-09T12:05:19Z</time>
      </trkpt>
      <trkpt lat="45.38536" lon="7.04436">
        <ele>2142.75</ele>
        <time>2018-09-09T12:05:21Z</time>
      </trkpt>
      <trkpt lat="45.38532" lon="7.04472">
        <ele>2145.3</ele>
        <time>2018-09-09T12:05:23Z</time>
      </trkpt>
      <trkpt lat="45.38526" lon="7.04504">
        <ele>2148.26</ele>
        <time>2018-09-09T12:05:25Z</time>
      </trkpt>
      <trkpt lat="45.38518" lon="7.04533">
        <ele>2150.56</ele>
        <time>2018-09-09T12:05:27Z</time>
      </trkpt>
      <trkpt lat="45.38507" lon="7.04556">
        <ele>2153.28</ele>
        <time>2018-09-09T12:05:29Z</time>
      </trkpt>
      <trkpt lat="45.38496" lon="7.0458">
        <ele>2154.98</ele>
        <time>2018-09-09T12:05:33Z</time>
      </trkpt>
      <trkpt lat="45.38511" lon="7.04606">
        <ele>2155.93</ele>
        <time>2018-09-09T12:05:54Z</time>
      </trkpt>
      <trkpt lat="45.38532" lon="7.04605">
        <ele>2157.62</ele>
        <time>2018-09-09T12:05:56Z</time>
      </trkpt>
      <trkpt lat="45.38557" lon="7.04594">
        <ele>2159.59</ele>
        <time>2018-09-09T12:05:58Z</time>
      </trkpt>
      <trkpt lat="45.38584" lon="7.04573">
        <ele>2162.5</ele>
        <time>2018-09-09T12:06:00Z</time>
      </trkpt>
      <trkpt lat="45.38602" lon="7.04538">
        <ele>2164.79</ele>
        <time>2018-09-09T12:06:02Z</time>
      </trkpt>
      <trkpt lat="45.38625" lon="7.04508">
        <ele>2165.2</ele>
        <time>2018-09-09T12:06:04Z</time>
      </trkpt>
      <trkpt lat="45.38646" lon="7.04496">
        <ele>2166.47</ele>
        <time>2018-09-09T12:06:05Z</time>
      </trkpt>
      <trkpt lat="45.38665" lon="7.04486">
        <ele>2169.65</ele>
        <time>2018-09-09T12:06:06Z</time>
      </trkpt>
      <trkpt lat="45.38683" lon="7.04474">
        <ele>2172.01</ele>
        <time>2018-09-09T12:06:07Z</time>
      </trkpt>
      <trkpt lat="45.38699" lon="7.04459">
        <ele>2174.11</ele>
        <time>2018-09-09T12:06:08Z</time>
      </trkpt>
      <trkpt lat="45.38714" lon="7.04442">
        <ele>2175.44</ele>
        <time>2018-09-09T12:06:09Z</time>
      </trkpt>
      <trkpt lat="45.3873" lon="7.04428">
        <ele>2177.94</ele>
        <time>2018-09-09T12:06:10Z</time>
      </trkpt>
      <trkpt lat="45.38747" lon="7.04414">
        <ele>2179.39</ele>
        <time>2018-09-09T12:06:11Z</time>
      </trkpt>
      <trkpt lat="45.38766" lon="7.04404">
        <ele>2181.23</ele>
        <time>2018-09-09T12:06:12Z</time>
      </trkpt>
      <trkpt lat="45.38785" lon="7.04392">
        <ele>2183.18</ele>
        <time>2018-09-09T12:06:13Z</time>
      </trkpt>
      <trkpt lat="45.38802" lon="7.04379">
        <ele>2184.46</ele>
        <time>2018-09-09T12:06:14Z</time>
      </trkpt>
      <trkpt lat="45.3882" lon="7.04364">
        <ele>2186.25</ele>
        <time>2018-09-09T12:06:15Z</time>
      </trkpt>
      <trkpt lat="45.38837" lon="7.04351">
        <ele>2188.19</ele>
        <time>2018-09-09T12:06:16Z</time>
      </trkpt>
      <trkpt lat="45.38854" lon="7.04336">
        <ele>2190.87</ele>
        <time>2018-09-09T12:06:17Z</time>
      </trkpt>
      <trkpt lat="45.38871" lon="7.04322">
        <ele>2193.07</ele>
        <time>2018-09-09T12:06:18Z</time>
      </trkpt>
      <trkpt lat="45.38886" lon="7.04307">
        <ele>2195.13</ele>
        <time>2018-09-09T12:06:19Z</time>
      </trkpt>
      <trkpt lat="45.38902" lon="7.04292">
        <ele>2197.15</ele>
        <time>2018-09-09T12:06:20Z</time>
      </trkpt>
      <trkpt lat="45.38933" lon="7.04267">
        <ele>2200.46</ele>
        <time>2018-09-09T12:06:22Z</time>
      </trkpt>
      <trkpt lat="45.38967" lon="7.04246">
        <ele>2202.78</ele>
        <time>2018-09-09T12:06:24Z</time>
      </trkpt>
      <trkpt lat="45.38983" lon="7.04234">
        <ele>2204.35</ele>
        <time>2018-09-09T12:06:25Z</time>
      </trkpt>
      <trkpt lat="45.39012" lon="7.04207">
        <ele>2206.35</ele>
        <time>2018-09-09T12:06:27Z</time>
      </trkpt>
      <trkpt lat="45.39045" lon="7.0419">
        <ele>2210.88</ele>
        <time>2018-09-09T12:06:29Z</time>
      </trkpt>
      <trkpt lat="45.39064" lon="7.04185">
        <ele>2213.07</ele>
        <time>2018-09-09T12:06:30Z</time>
      </trkpt>
      <trkpt lat="45.39083" lon="7.04179">
        <ele>2215.83</ele>
        <time>2018-09-09T12:06:31Z</time>
      </trkpt>
      <trkpt lat="45.39103" lon="7.04173">
        <ele>2218.76</ele>
        <time>2018-09-09T12:06:32Z</time>
      </trkpt>
      <trkpt lat="45.39124" lon="7.04167">
        <ele>2221.74</ele>
        <time>2018-09-09T12:06:33Z</time>
      </trkpt>
      <trkpt lat="45.39145" lon="7.0416">
        <ele>2224.03</ele>
        <time>2018-09-09T12:06:34Z</time>
      </trkpt>
      <trkpt lat="45.39165" lon="7.04153">
        <ele>2226.12</ele>
        <time>2018-09-09T12:06:35Z</time>
      </trkpt>
      <trkpt lat="45.39186" lon="7.04145">
        <ele>2227.45</ele>
        <time>2018-09-09T12:06:36Z</time>
      </trkpt>
      <trkpt lat="45.39207" lon="7.04137">
        <ele>2228.54</ele>
        <time>2018-09-09T12:06:37Z</time>
      </trkpt>
      <trkpt lat="45.39225" lon="7.04129">
        <ele>2230.97</ele>
        <time>2018-09-09T12:06:38Z</time>
      </trkpt>
      <trkpt lat="45.39244" lon="7.04121">
        <ele>2232.4</ele>
        <time>2018-09-09T12:06:39Z</time>
      </trkpt>
      <trkpt lat="45.39274" lon="7.04106">
        <ele>2235.27</ele>
        <time>2018-09-09T12:06:41Z</time>
      </trkpt>
      <trkpt lat="45.39297" lon="7.04089">
        <ele>2239.17</ele>
        <time>2018-09-09T12:06:43Z</time>
      </trkpt>
      <trkpt lat="45.39314" lon="7.04066">
        <ele>2240.64</ele>
        <time>2018-09-09T12:06:45Z</time>
      </trkpt>
      <trkpt lat="45.39326" lon="7.04039">
        <ele>2241.68</ele>
        <time>2018-09-09T12:06:47Z</time>
      </trkpt>
      <trkpt lat="45.39345" lon="7.04025">
        <ele>2244.5</ele>
        <time>2018-09-09T12:06:49Z</time>
      </trkpt>
      <trkpt lat="45.39373" lon="7.04018">
        <ele>2247.28</ele>
        <time>2018-09-09T12:06:51Z</time>
      </trkpt>
      <trkpt lat="45.39405" lon="7.04011">
        <ele>2250.26</ele>
        <time>2018-09-09T12:06:53Z</time>
      </trkpt>
      <trkpt lat="45.39441" lon="7.04003">
        <ele>2253.26</ele>
        <time>2018-09-09T12:06:55Z</time>
      </trkpt>
      <trkpt lat="45.3946" lon="7.04">
        <ele>2254.49</ele>
        <time>2018-09-09T12:06:56Z</time>
      </trkpt>
      <trkpt lat="45.39479" lon="7.03998">
        <ele>2256.26</ele>
        <time>2018-09-09T12:06:57Z</time>
      </trkpt>
      <trkpt lat="45.39498" lon="7.03994">
        <ele>2257.49</ele>
        <time>2018-09-09T12:06:58Z</time>
      </trkpt>
      <trkpt lat="45.39517" lon="7.03989">
        <ele>2258.56</ele>
        <time>2018-09-09T12:06:59Z</time>
      </trkpt>
      <trkpt lat="45.39535" lon="7.03984">
        <ele>2259.58</ele>
        <time>2018-09-09T12:07:00Z</time>
      </trkpt>
      <trkpt lat="45.39569" lon="7.0397">
        <ele>2260.68</ele>
        <time>2018-09-09T12:07:02Z</time>
      </trkpt>
      <trkpt lat="45.396" lon="7.03954">
        <ele>2264.41</ele>
        <time>2018-09-09T12:07:04Z</time>
      </trkpt>
      <trkpt lat="45.39631" lon="7.03945">
        <ele>2267.27</ele>
        <time>2018-09-09T12:07:06Z</time>
      </trkpt>
      <trkpt lat="45.39657" lon="7.03943">
        <ele>2269.56</ele>
        <time>2018-09-09T12:07:08Z</time>
      </trkpt>
      <trkpt lat="45.39676" lon="7.03947">
        <ele>2269.97</ele>
        <time>2018-09-09T12:07:10Z</time>
      </trkpt>
      <trkpt lat="45.39663" lon="7.03971">
        <ele>2271.83</ele>
        <time>2018-09-09T12:07:13Z</time>
      </trkpt>
      <trkpt lat="45.39643" lon="7.03975">
        <ele>2272.7</ele>
        <time>2018-09-09T12:07:15Z</time>
      </trkpt>
      <trkpt lat="45.39619" lon="7.03983">
        <ele>2273.9</ele>
        <time>2018-09-09T12:07:17Z</time>
      </trkpt>
      <trkpt lat="45.39591" lon="7.04">
        <ele>2274.91</ele>
        <time>2018-09-09T12:07:19Z</time>
      </trkpt>
      <trkpt lat="45.39562" lon="7.04018">
        <ele>2276.62</ele>
        <time>2018-09-09T12:07:21Z</time>
      </trkpt>
      <trkpt lat="45.39531" lon="7.04036">
        <ele>2278.38</ele>
        <time>2018-09-09T12:07:23Z</time>
      </trkpt>
      <trkpt lat="45.39502" lon="7.04056">
        <ele>2280.57</ele>
        <time>2018-09-09T12:07:25Z</time>
      </trkpt>
      <trkpt lat="45.39474" lon="7.04078">
        <ele>2282.58</ele>
        <time>2018-09-09T12:07:27Z</time>
      </trkpt>
      <trkpt lat="45.39447" lon="7.04102">
        <ele>2285.99</ele>
        <time>2018-09-09T12:07:29Z</time>
      </trkpt>
      <trkpt lat="45.3942" lon="7.04127">
        <ele>2289.44</ele>
        <time>2018-09-09T12:07:31Z</time>
      </trkpt>
      <trkpt lat="45.39395" lon="7.04153">
        <ele>2293.18</ele>
        <time>2018-09-09T12:07:33Z</time>
      </trkpt>
      <trkpt lat="45.3937" lon="7.04178">
        <ele>2297.16</ele>
        <time>2018-09-09T12:07:35Z</time>
      </trkpt>
      <trkpt lat="45.39344" lon="7.04204">
        <ele>2301.16</ele>
        <time>2018-09-09T12:07:37Z</time>
      </trkpt>
      <trkpt lat="45.39321" lon="7.04229">
        <ele>2304.46</ele>
        <time>2018-09-09T12:07:39Z</time>
      </trkpt>
      <trkpt lat="45.39302" lon="7.04251">
        <ele>2307.48</ele>
        <time>2018-09-09T12:07:41Z</time>
      </trkpt>
      <trkpt lat="45.39285" lon="7.04273">
        <ele>2310.49</ele>
        <time>2018-09-09T12:07:43Z</time>
      </trkpt>
      <trkpt lat="45.39262" lon="7.04298">
        <ele>2314.19</ele>
        <time>2018-09-09T12:07:45Z</time>
      </trkpt>
      <trkpt lat="45.39234" lon="7.04321">
        <ele>2318.16</ele>
        <time>2018-09-09T12:07:47Z</time>
      </trkpt>
      <trkpt lat="45.39207" lon="7.04343">
        <ele>2322.16</ele>
        <time>2018-09-09T12:07:49Z</time>
      </trkpt>
      <trkpt lat="45.39182" lon="7.04363">
        <ele>2324.55</ele>
        <time>2018-09-09T12:07:51Z</time>
      </trkpt>
      <trkpt lat="45.39164" lon="7.04397">
        <ele>2329.1</ele>
        <time>2018-09-09T12:07:53Z</time>
      </trkpt>
      <trkpt lat="45.39141" lon="7.04427">
        <ele>2332.94</ele>
        <time>2018-09-09T12:07:55Z</time>
      </trkpt>
      <trkpt lat="45.39117" lon="7.04455">
        <ele>2336.23</ele>
        <time>2018-09-09T12:07:57Z</time>
      </trkpt>
      <trkpt lat="45.39096" lon="7.0449">
        <ele>2340.86</ele>
        <time>2018-09-09T12:07:59Z</time>
      </trkpt>
      <trkpt lat="45.39075" lon="7.04525">
        <ele>2345.13</ele>
        <time>2018-09-09T12:08:01Z</time>
      </trkpt>
      <trkpt lat="45.39053" lon="7.04559">
        <ele>2349.25</ele>
        <time>2018-09-09T12:08:03Z</time>
      </trkpt>
      <trkpt lat="45.39028" lon="7.0459">
        <ele>2353.87</ele>
        <time>2018-09-09T12:08:05Z</time>
      </trkpt>
      <trkpt lat="45.39006" lon="7.04624">
        <ele>2358.13</ele>
        <time>2018-09-09T12:08:07Z</time>
      </trkpt>
      <trkpt lat="45.38985" lon="7.04656">
        <ele>2362.16</ele>
        <time>2018-09-09T12:08:09Z</time>
      </trkpt>
      <trkpt lat="45.38967" lon="7.04679">
        <ele>2364.55</ele>
        <time>2018-09-09T12:08:11Z</time>
      </trkpt>
      <trkpt lat="45.38955" lon="7.04699">
        <ele>2369.01</ele>
        <time>2018-09-09T12:08:34Z</time>
      </trkpt>
      <trkpt lat="45.38965" lon="7.04721">
        <ele>2370.92</ele>
        <time>2018-09-09T12:08:38Z</time>
      </trkpt>
      <trkpt lat="45.38985" lon="7.04742">
        <ele>2371.99</ele>
        <time>2018-09-09T12:08:41Z</time>
      </trkpt>
      <trkpt lat="45.39004" lon="7.04752">
        <ele>2372.92</ele>
        <time>2018-09-09T12:08:43Z</time>
      </trkpt>
      <trkpt lat="45.39028" lon="7.04754">
        <ele>2374.62</ele>
        <time>2018-09-09T12:08:45Z</time>
      </trkpt>
      <trkpt lat="45.39056" lon="7.04737">
        <ele>2375.68</ele>
        <time>2018-09-09T12:08:47Z</time>
      </trkpt>
      <trkpt lat="45.39068" lon="7.04716">
        <ele>2378.01</ele>
        <time>2018-09-09T12:08:48Z</time>
      </trkpt>
      <trkpt lat="45.39091" lon="7.04679">
        <ele>2381.44</ele>
        <time>2018-09-09T12:08:50Z</time>
      </trkpt>
      <trkpt lat="45.39112" lon="7.04649">
        <ele>2385.39</ele>
        <time>2018-09-09T12:08:52Z</time>
      </trkpt>
      <trkpt lat="45.39136" lon="7.04626">
        <ele>2387.57</ele>
        <time>2018-09-09T12:08:54Z</time>
      </trkpt>
      <trkpt lat="45.39164" lon="7.04614">
        <ele>2390.07</ele>
        <time>2018-09-09T12:08:56Z</time>
      </trkpt>
      <trkpt lat="45.39191" lon="7.04607">
        <ele>2393.94</ele>
        <time>2018-09-09T12:08:58Z</time>
      </trkpt>
      <trkpt lat="45.39215" lon="7.04586">
        <ele>2396.53</ele>
        <time>2018-09-09T12:09:00Z</time>
      </trkpt>
      <trkpt lat="45.39235" lon="7.04555">
        <ele>2398.37</ele>
        <time>2018-09-09T12:09:02Z</time>
      </trkpt>
      <trkpt lat="45.39256" lon="7.04532">
        <ele>2400.36</ele>
        <time>2018-09-09T12:09:04Z</time>
      </trkpt>
      <trkpt lat="45.39283" lon="7.04515">
        <ele>2404.18</ele>
        <time>2018-09-09T12:09:06Z</time>
      </trkpt>
      <trkpt lat="45.39314" lon="7.04488">
        <ele>2407.25</ele>
        <time>2018-09-09T12:09:08Z</time>
      </trkpt>
      <trkpt lat="45.3934" lon="7.04456">
        <ele>2410.47</ele>
        <time>2018-09-09T12:09:10Z</time>
      </trkpt>
      <trkpt lat="45.3937" lon="7.04434">
        <ele>2414.19</ele>
        <time>2018-09-09T12:09:12Z</time>
      </trkpt>
      <trkpt lat="45.39402" lon="7.04415">
        <ele>2417.46</ele>
        <time>2018-09-09T12:09:14Z</time>
      </trkpt>
      <trkpt lat="45.39433" lon="7.04408">
        <ele>2421.19</ele>
        <time>2018-09-09T12:09:16Z</time>
      </trkpt>
      <trkpt lat="45.39462" lon="7.04393">
        <ele>2423.55</ele>
        <time>2018-09-09T12:09:18Z</time>
      </trkpt>
      <trkpt lat="45.39489" lon="7.0437">
        <ele>2424.88</ele>
        <time>2018-09-09T12:09:20Z</time>
      </trkpt>
      <trkpt lat="45.39512" lon="7.04336">
        <ele>2427.1</ele>
        <time>2018-09-09T12:09:22Z</time>
      </trkpt>
      <trkpt lat="45.39533" lon="7.04304">
        <ele>2431.15</ele>
        <time>2018-09-09T12:09:24Z</time>
      </trkpt>
      <trkpt lat="45.39556" lon="7.04281">
        <ele>2434.25</ele>
        <time>2018-09-09T12:09:26Z</time>
      </trkpt>
      <trkpt lat="45.39586" lon="7.04271">
        <ele>2438.17</ele>
        <time>2018-09-09T12:09:28Z</time>
      </trkpt>
      <trkpt lat="45.3962" lon="7.04264">
        <ele>2440.55</ele>
        <time>2018-09-09T12:09:30Z</time>
      </trkpt>
      <trkpt lat="45.39654" lon="7.04261">
        <ele>2444.4</ele>
        <time>2018-09-09T12:09:32Z</time>
      </trkpt>
      <trkpt lat="45.3969" lon="7.04265">
        <ele>2448.18</ele>
        <time>2018-09-09T12:09:34Z</time>
      </trkpt>
      <trkpt lat="45.39708" lon="7.04269">
        <ele>2449.46</ele>
        <time>2018-09-09T12:09:35Z</time>
      </trkpt>
      <trkpt lat="45.39743" lon="7.04284">
        <ele>2453.4</ele>
        <time>2018-09-09T12:09:37Z</time>
      </trkpt>
      <trkpt lat="45.3976" lon="7.04295">
        <ele>2455.23</ele>
        <time>2018-09-09T12:09:38Z</time>
      </trkpt>
      <trkpt lat="45.39777" lon="7.04305">
        <ele>2457.18</ele>
        <time>2018-09-09T12:09:39Z</time>
      </trkpt>
      <trkpt lat="45.39809" lon="7.04316">
        <ele>2461.16</ele>
        <time>2018-09-09T12:09:41Z</time>
      </trkpt>
      <trkpt lat="45.39839" lon="7.04324">
        <ele>2463.55</ele>
        <time>2018-09-09T12:09:43Z</time>
      </trkpt>
      <trkpt lat="45.39864" lon="7.04336">
        <ele>2466.49</ele>
        <time>2018-09-09T12:09:45Z</time>
      </trkpt>
      <trkpt lat="45.39889" lon="7.04345">
        <ele>2468.58</ele>
        <time>2018-09-09T12:09:47Z</time>
      </trkpt>
      <trkpt lat="45.39915" lon="7.04345">
        <ele>2470.59</ele>
        <time>2018-09-09T12:09:49Z</time>
      </trkpt>
      <trkpt lat="45.3994" lon="7.0433">
        <ele>2471.89</ele>
        <time>2018-09-09T12:09:51Z</time>
      </trkpt>
      <trkpt lat="45.39963" lon="7.04297">
        <ele>2472.7</ele>
        <time>2018-09-09T12:09:53Z</time>
      </trkpt>
      <trkpt lat="45.39982" lon="7.04265">
        <ele>2473.9</ele>
        <time>2018-09-09T12:09:55Z</time>
      </trkpt>
      <trkpt lat="45.40007" lon="7.04247">
        <ele>2474.7</ele>
        <time>2018-09-09T12:09:57Z</time>
      </trkpt>
      <trkpt lat="45.40035" lon="7.04228">
        <ele>2476.6</ele>
        <time>2018-09-09T12:09:59Z</time>
      </trkpt>
      <trkpt lat="45.40053" lon="7.0419">
        <ele>2477.89</ele>
        <time>2018-09-09T12:10:01Z</time>
      </trkpt>
      <trkpt lat="45.40065" lon="7.04143">
        <ele>2478.7</ele>
        <time>2018-09-09T12:10:03Z</time>
      </trkpt>
      <trkpt lat="45.40065" lon="7.04115">
        <ele>2478.92</ele>
        <time>2018-09-09T12:10:04Z</time>
      </trkpt>
      <trkpt lat="45.40067" lon="7.04089">
        <ele>2479.69</ele>
        <time>2018-09-09T12:10:05Z</time>
      </trkpt>
      <trkpt lat="45.40072" lon="7.04064">
        <ele>2479.92</ele>
        <time>2018-09-09T12:10:06Z</time>
      </trkpt>
      <trkpt lat="45.40081" lon="7.0402">
        <ele>2481.62</ele>
        <time>2018-09-09T12:10:08Z</time>
      </trkpt>
      <trkpt lat="45.40087" lon="7.03981">
        <ele>2482.89</ele>
        <time>2018-09-09T12:10:10Z</time>
      </trkpt>
      <trkpt lat="45.40099" lon="7.03949">
        <ele>2483</ele>
        <time>2018-09-09T12:10:12Z</time>
      </trkpt>
      <trkpt lat="45.40102" lon="7.0391">
        <ele>2483.71</ele>
        <time>2018-09-09T12:10:14Z</time>
      </trkpt>
      <trkpt lat="45.40103" lon="7.03879">
        <ele>2485.6</ele>
        <time>2018-09-09T12:10:16Z</time>
      </trkpt>
      <trkpt lat="45.40114" lon="7.03848">
        <ele>2486.68</ele>
        <time>2018-09-09T12:10:18Z</time>
      </trkpt>
      <trkpt lat="45.40124" lon="7.03813">
        <ele>2487.68</ele>
        <time>2018-09-09T12:10:20Z</time>
      </trkpt>
      <trkpt lat="45.4014" lon="7.03786">
        <ele>2487.08</ele>
        <time>2018-09-09T12:10:22Z</time>
      </trkpt>
      <trkpt lat="45.40155" lon="7.03767">
        <ele>2488.84</ele>
        <time>2018-09-09T12:10:24Z</time>
      </trkpt>
      <trkpt lat="45.40168" lon="7.03747">
        <ele>2489.91</ele>
        <time>2018-09-09T12:10:26Z</time>
      </trkpt>
      <trkpt lat="45.40158" lon="7.03663">
        <ele>2489.98</ele>
        <time>2018-09-09T12:10:30Z</time>
      </trkpt>
      <trkpt lat="45.40157" lon="7.03628">
        <ele>2492.53</ele>
        <time>2018-09-09T12:10:32Z</time>
      </trkpt>
      <trkpt lat="45.40173" lon="7.03604">
        <ele>2493.91</ele>
        <time>2018-09-09T12:10:35Z</time>
      </trkpt>
      <trkpt lat="45.40192" lon="7.03588">
        <ele>2496.32</ele>
        <time>2018-09-09T12:10:37Z</time>
      </trkpt>
      <trkpt lat="45.40215" lon="7.03566">
        <ele>2496.95</ele>
        <time>2018-09-09T12:10:39Z</time>
      </trkpt>
      <trkpt lat="45.4024" lon="7.0354">
        <ele>2497.92</ele>
        <time>2018-09-09T12:10:41Z</time>
      </trkpt>
      <trkpt lat="45.40258" lon="7.03507">
        <ele>2498.92</ele>
        <time>2018-09-09T12:10:43Z</time>
      </trkpt>
      <trkpt lat="45.40268" lon="7.03464">
        <ele>2499.92</ele>
        <time>2018-09-09T12:10:45Z</time>
      </trkpt>
      <trkpt lat="45.40279" lon="7.03417">
        <ele>2500.92</ele>
        <time>2018-09-09T12:10:47Z</time>
      </trkpt>
      <trkpt lat="45.40291" lon="7.03374">
        <ele>2501.01</ele>
        <time>2018-09-09T12:10:49Z</time>
      </trkpt>
      <trkpt lat="45.40303" lon="7.03334">
        <ele>2501.71</ele>
        <time>2018-09-09T12:10:51Z</time>
      </trkpt>
      <trkpt lat="45.40321" lon="7.033">
        <ele>2502.69</ele>
        <time>2018-09-09T12:10:53Z</time>
      </trkpt>
      <trkpt lat="45.40346" lon="7.03272">
        <ele>2503.9</ele>
        <time>2018-09-09T12:10:55Z</time>
      </trkpt>
      <trkpt lat="45.40375" lon="7.03248">
        <ele>2505.61</ele>
        <time>2018-09-09T12:10:57Z</time>
      </trkpt>
      <trkpt lat="45.40404" lon="7.03225">
        <ele>2506.68</ele>
        <time>2018-09-09T12:10:59Z</time>
      </trkpt>
      <trkpt lat="45.40431" lon="7.03212">
        <ele>2508.8</ele>
        <time>2018-09-09T12:11:01Z</time>
      </trkpt>
      <trkpt lat="45.40452" lon="7.03182">
        <ele>2511.52</ele>
        <time>2018-09-09T12:11:03Z</time>
      </trkpt>
      <trkpt lat="45.4047" lon="7.03145">
        <ele>2515.89</ele>
        <time>2018-09-09T12:11:05Z</time>
      </trkpt>
      <trkpt lat="45.40483" lon="7.03106">
        <ele>2517.61</ele>
        <time>2018-09-09T12:11:07Z</time>
      </trkpt>
      <trkpt lat="45.40478" lon="7.03069">
        <ele>2520.5</ele>
        <time>2018-09-09T12:11:09Z</time>
      </trkpt>
      <trkpt lat="45.40477" lon="7.03038">
        <ele>2521.88</ele>
        <time>2018-09-09T12:11:11Z</time>
      </trkpt>
      <trkpt lat="45.40487" lon="7.0301">
        <ele>2522.91</ele>
        <time>2018-09-09T12:11:13Z</time>
      </trkpt>
      <trkpt lat="45.40508" lon="7.0298">
        <ele>2523.01</ele>
        <time>2018-09-09T12:11:15Z</time>
      </trkpt>
      <trkpt lat="45.40528" lon="7.0295">
        <ele>2523.71</ele>
        <time>2018-09-09T12:11:17Z</time>
      </trkpt>
      <trkpt lat="45.40552" lon="7.02926">
        <ele>2524.69</ele>
        <time>2018-09-09T12:11:19Z</time>
      </trkpt>
      <trkpt lat="45.40577" lon="7.0291">
        <ele>2525.69</ele>
        <time>2018-09-09T12:11:21Z</time>
      </trkpt>
      <trkpt lat="45.40596" lon="7.02895">
        <ele>2528.3</ele>
        <time>2018-09-09T12:11:23Z</time>
      </trkpt>
      <trkpt lat="45.40609" lon="7.02871">
        <ele>2527.34</ele>
        <time>2018-09-09T12:11:25Z</time>
      </trkpt>
      <trkpt lat="45.40621" lon="7.0284">
        <ele>2527.74</ele>
        <time>2018-09-09T12:11:27Z</time>
      </trkpt>
      <trkpt lat="45.40633" lon="7.02811">
        <ele>2528.9</ele>
        <time>2018-09-09T12:11:29Z</time>
      </trkpt>
      <trkpt lat="45.40646" lon="7.02789">
        <ele>2529.91</ele>
        <time>2018-09-09T12:11:31Z</time>
      </trkpt>
      <trkpt lat="45.40669" lon="7.02774">
        <ele>2532.6</ele>
        <time>2018-09-09T12:11:34Z</time>
      </trkpt>
      <trkpt lat="45.40694" lon="7.0277">
        <ele>2533.7</ele>
        <time>2018-09-09T12:11:37Z</time>
      </trkpt>
      <trkpt lat="45.40715" lon="7.02774">
        <ele>2534.9</ele>
        <time>2018-09-09T12:11:39Z</time>
      </trkpt>
      <trkpt lat="45.40737" lon="7.02781">
        <ele>2537.31</ele>
        <time>2018-09-09T12:11:41Z</time>
      </trkpt>
      <trkpt lat="45.40765" lon="7.0278">
        <ele>2539.35</ele>
        <time>2018-09-09T12:11:43Z</time>
      </trkpt>
      <trkpt lat="45.40796" lon="7.02778">
        <ele>2542.27</ele>
        <time>2018-09-09T12:11:45Z</time>
      </trkpt>
      <trkpt lat="45.40824" lon="7.02786">
        <ele>2545.26</ele>
        <time>2018-09-09T12:11:47Z</time>
      </trkpt>
      <trkpt lat="45.40852" lon="7.02796">
        <ele>2548.47</ele>
        <time>2018-09-09T12:11:49Z</time>
      </trkpt>
      <trkpt lat="45.40883" lon="7.02797">
        <ele>2551.28</ele>
        <time>2018-09-09T12:11:51Z</time>
      </trkpt>
      <trkpt lat="45.40913" lon="7.02775">
        <ele>2555.17</ele>
        <time>2018-09-09T12:11:53Z</time>
      </trkpt>
      <trkpt lat="45.40942" lon="7.02758">
        <ele>2558.25</ele>
        <time>2018-09-09T12:11:55Z</time>
      </trkpt>
      <trkpt lat="45.40973" lon="7.02758">
        <ele>2561.47</ele>
        <time>2018-09-09T12:11:57Z</time>
      </trkpt>
      <trkpt lat="45.41003" lon="7.02771">
        <ele>2566.31</ele>
        <time>2018-09-09T12:11:59Z</time>
      </trkpt>
      <trkpt lat="45.4103" lon="7.02796">
        <ele>2570.38</ele>
        <time>2018-09-09T12:12:01Z</time>
      </trkpt>
      <trkpt lat="45.41054" lon="7.02827">
        <ele>2573.48</ele>
        <time>2018-09-09T12:12:03Z</time>
      </trkpt>
      <trkpt lat="45.41078" lon="7.02859">
        <ele>2578.1</ele>
        <time>2018-09-09T12:12:05Z</time>
      </trkpt>
      <trkpt lat="45.41104" lon="7.0289">
        <ele>2581.45</ele>
        <time>2018-09-09T12:12:07Z</time>
      </trkpt>
      <trkpt lat="45.41132" lon="7.02914">
        <ele>2585.88</ele>
        <time>2018-09-09T12:12:09Z</time>
      </trkpt>
      <trkpt lat="45.41165" lon="7.02928">
        <ele>2590.13</ele>
        <time>2018-09-09T12:12:11Z</time>
      </trkpt>
      <trkpt lat="45.41198" lon="7.02944">
        <ele>2594.16</ele>
        <time>2018-09-09T12:12:13Z</time>
      </trkpt>
      <trkpt lat="45.41232" lon="7.02962">
        <ele>2598.16</ele>
        <time>2018-09-09T12:12:15Z</time>
      </trkpt>
      <trkpt lat="45.41249" lon="7.02972">
        <ele>2600.16</ele>
        <time>2018-09-09T12:12:16Z</time>
      </trkpt>
      <trkpt lat="45.4128" lon="7.02996">
        <ele>2604.16</ele>
        <time>2018-09-09T12:12:18Z</time>
      </trkpt>
      <trkpt lat="45.41296" lon="7.0301">
        <ele>2606.86</ele>
        <time>2018-09-09T12:12:19Z</time>
      </trkpt>
      <trkpt lat="45.41311" lon="7.03024">
        <ele>2609.07</ele>
        <time>2018-09-09T12:12:20Z</time>
      </trkpt>
      <trkpt lat="45.41325" lon="7.0304">
        <ele>2611.13</ele>
        <time>2018-09-09T12:12:21Z</time>
      </trkpt>
      <trkpt lat="45.41338" lon="7.03059">
        <ele>2613.15</ele>
        <time>2018-09-09T12:12:22Z</time>
      </trkpt>
      <trkpt lat="45.41362" lon="7.03098">
        <ele>2617.16</ele>
        <time>2018-09-09T12:12:24Z</time>
      </trkpt>
      <trkpt lat="45.41373" lon="7.03119">
        <ele>2619.16</ele>
        <time>2018-09-09T12:12:25Z</time>
      </trkpt>
      <trkpt lat="45.41384" lon="7.0314">
        <ele>2621.16</ele>
        <time>2018-09-09T12:12:26Z</time>
      </trkpt>
      <trkpt lat="45.41396" lon="7.03161">
        <ele>2623.16</ele>
        <time>2018-09-09T12:12:27Z</time>
      </trkpt>
      <trkpt lat="45.41408" lon="7.03181">
        <ele>2625.16</ele>
        <time>2018-09-09T12:12:28Z</time>
      </trkpt>
      <trkpt lat="45.4142" lon="7.03201">
        <ele>2627.86</ele>
        <time>2018-09-09T12:12:29Z</time>
      </trkpt>
      <trkpt lat="45.41444" lon="7.03237">
        <ele>2631.22</ele>
        <time>2018-09-09T12:12:31Z</time>
      </trkpt>
      <trkpt lat="45.41473" lon="7.03263">
        <ele>2635.16</ele>
        <time>2018-09-09T12:12:33Z</time>
      </trkpt>
      <trkpt lat="45.41502" lon="7.03284">
        <ele>2639.37</ele>
        <time>2018-09-09T12:12:35Z</time>
      </trkpt>
      <trkpt lat="45.41527" lon="7.03309">
        <ele>2642.48</ele>
        <time>2018-09-09T12:12:37Z</time>
      </trkpt>
      <trkpt lat="45.41543" lon="7.03335">
        <ele>2645.49</ele>
        <time>2018-09-09T12:12:39Z</time>
      </trkpt>
      <trkpt lat="45.41564" lon="7.03355">
        <ele>2648.28</ele>
        <time>2018-09-09T12:12:41Z</time>
      </trkpt>
      <trkpt lat="45.41592" lon="7.03375">
        <ele>2652.17</ele>
        <time>2018-09-09T12:12:43Z</time>
      </trkpt>
      <trkpt lat="45.41624" lon="7.03393">
        <ele>2655.46</ele>
        <time>2018-09-09T12:12:45Z</time>
      </trkpt>
      <trkpt lat="45.41658" lon="7.0341">
        <ele>2658.48</ele>
        <time>2018-09-09T12:12:47Z</time>
      </trkpt>
      <trkpt lat="45.41685" lon="7.03441">
        <ele>2661.28</ele>
        <time>2018-09-09T12:12:49Z</time>
      </trkpt>
      <trkpt lat="45.41708" lon="7.03477">
        <ele>2665.38</ele>
        <time>2018-09-09T12:12:51Z</time>
      </trkpt>
      <trkpt lat="45.41737" lon="7.03502">
        <ele>2669.39</ele>
        <time>2018-09-09T12:12:53Z</time>
      </trkpt>
      <trkpt lat="45.41771" lon="7.03514">
        <ele>2672.48</ele>
        <time>2018-09-09T12:12:55Z</time>
      </trkpt>
      <trkpt lat="45.41807" lon="7.03519">
        <ele>2675.49</ele>
        <time>2018-09-09T12:12:57Z</time>
      </trkpt>
      <trkpt lat="45.41824" lon="7.03533">
        <ele>2678.66</ele>
        <time>2018-09-09T12:12:58Z</time>
      </trkpt>
      <trkpt lat="45.41841" lon="7.03547">
        <ele>2681.01</ele>
        <time>2018-09-09T12:12:59Z</time>
      </trkpt>
      <trkpt lat="45.41857" lon="7.03562">
        <ele>2682.41</ele>
        <time>2018-09-09T12:13:00Z</time>
      </trkpt>
      <trkpt lat="45.41871" lon="7.03578">
        <ele>2684.93</ele>
        <time>2018-09-09T12:13:01Z</time>
      </trkpt>
      <trkpt lat="45.41886" lon="7.03594">
        <ele>2687.09</ele>
        <time>2018-09-09T12:13:02Z</time>
      </trkpt>
      <trkpt lat="45.419" lon="7.03609">
        <ele>2688.44</ele>
        <time>2018-09-09T12:13:03Z</time>
      </trkpt>
      <trkpt lat="45.41929" lon="7.03633">
        <ele>2692.18</ele>
        <time>2018-09-09T12:13:05Z</time>
      </trkpt>
      <trkpt lat="45.41961" lon="7.0365">
        <ele>2696.86</ele>
        <time>2018-09-09T12:13:07Z</time>
      </trkpt>
      <trkpt lat="45.41993" lon="7.0367">
        <ele>2701.34</ele>
        <time>2018-09-09T12:13:09Z</time>
      </trkpt>
      <trkpt lat="45.42021" lon="7.03699">
        <ele>2704.47</ele>
        <time>2018-09-09T12:13:11Z</time>
      </trkpt>
      <trkpt lat="45.42041" lon="7.0373">
        <ele>2707.49</ele>
        <time>2018-09-09T12:13:13Z</time>
      </trkpt>
      <trkpt lat="45.42057" lon="7.03756">
        <ele>2708.88</ele>
        <time>2018-09-09T12:13:15Z</time>
      </trkpt>
      <trkpt lat="45.4208" lon="7.03757">
        <ele>2709.35</ele>
        <time>2018-09-09T12:13:18Z</time>
      </trkpt>
      <trkpt lat="45.42066" lon="7.03729">
        <ele>2710.51</ele>
        <time>2018-09-09T12:13:19Z</time>
      </trkpt>
      <trkpt lat="45.42047" lon="7.03698">
        <ele>2712.58</ele>
        <time>2018-09-09T12:13:21Z</time>
      </trkpt>
      <trkpt lat="45.42021" lon="7.03667">
        <ele>2714.59</ele>
        <time>2018-09-09T12:13:23Z</time>
      </trkpt>
      <trkpt lat="45.41994" lon="7.03634">
        <ele>2717.5</ele>
        <time>2018-09-09T12:13:25Z</time>
      </trkpt>
      <trkpt lat="45.41981" lon="7.03615">
        <ele>2718.56</ele>
        <time>2018-09-09T12:13:26Z</time>
      </trkpt>
      <trkpt lat="45.41968" lon="7.03595">
        <ele>2720.28</ele>
        <time>2018-09-09T12:13:27Z</time>
      </trkpt>
      <trkpt lat="45.41955" lon="7.03574">
        <ele>2722.89</ele>
        <time>2018-09-09T12:13:28Z</time>
      </trkpt>
      <trkpt lat="45.41942" lon="7.03553">
        <ele>2725.08</ele>
        <time>2018-09-09T12:13:29Z</time>
      </trkpt>
      <trkpt lat="45.41921" lon="7.03517">
        <ele>2729.15</ele>
        <time>2018-09-09T12:13:31Z</time>
      </trkpt>
      <trkpt lat="45.41906" lon="7.03477">
        <ele>2731.55</ele>
        <time>2018-09-09T12:13:33Z</time>
      </trkpt>
      <trkpt lat="45.41898" lon="7.03427">
        <ele>2735.4</ele>
        <time>2018-09-09T12:13:35Z</time>
      </trkpt>
      <trkpt lat="45.41895" lon="7.034">
        <ele>2737.23</ele>
        <time>2018-09-09T12:13:36Z</time>
      </trkpt>
      <trkpt lat="45.41891" lon="7.03373">
        <ele>2738.48</ele>
        <time>2018-09-09T12:13:37Z</time>
      </trkpt>
      <trkpt lat="45.41888" lon="7.03346">
        <ele>2739.55</ele>
        <time>2018-09-09T12:13:38Z</time>
      </trkpt>
      <trkpt lat="45.41878" lon="7.03299">
        <ele>2742.28</ele>
        <time>2018-09-09T12:13:40Z</time>
      </trkpt>
      <trkpt lat="45.41855" lon="7.03268">
        <ele>2746.87</ele>
        <time>2018-09-09T12:13:42Z</time>
      </trkpt>
      <trkpt lat="45.41821" lon="7.03247">
        <ele>2750.43</ele>
        <time>2018-09-09T12:13:44Z</time>
      </trkpt>
      <trkpt lat="45.41803" lon="7.03233">
        <ele>2752.24</ele>
        <time>2018-09-09T12:13:45Z</time>
      </trkpt>
      <trkpt lat="45.41787" lon="7.03219">
        <ele>2754.18</ele>
        <time>2018-09-09T12:13:46Z</time>
      </trkpt>
      <trkpt lat="45.4177" lon="7.03208">
        <ele>2756.17</ele>
        <time>2018-09-09T12:13:47Z</time>
      </trkpt>
      <trkpt lat="45.41752" lon="7.03201">
        <ele>2757.46</ele>
        <time>2018-09-09T12:13:48Z</time>
      </trkpt>
      <trkpt lat="45.41722" lon="7.03192">
        <ele>2759.57</ele>
        <time>2018-09-09T12:13:50Z</time>
      </trkpt>
      <trkpt lat="45.41701" lon="7.03174">
        <ele>2761.8</ele>
        <time>2018-09-09T12:13:52Z</time>
      </trkpt>
      <trkpt lat="45.41696" lon="7.03143">
        <ele>2761.95</ele>
        <time>2018-09-09T12:13:55Z</time>
      </trkpt>
      <trkpt lat="45.417" lon="7.03116">
        <ele>2762.92</ele>
        <time>2018-09-09T12:13:57Z</time>
      </trkpt>
      <trkpt lat="45.41711" lon="7.03087">
        <ele>2762.31</ele>
        <time>2018-09-09T12:14:00Z</time>
      </trkpt>
      <trkpt lat="45.41721" lon="7.03062">
        <ele>2761.1</ele>
        <time>2018-09-09T12:14:23Z</time>
      </trkpt>
      <trkpt lat="45.41739" lon="7.03064">
        <ele>2762.41</ele>
        <time>2018-09-09T12:21:47Z</time>
      </trkpt>
      <trkpt lat="45.41757" lon="7.03057">
        <ele>2761.05</ele>
        <time>2018-09-09T12:21:50Z</time>
      </trkpt>
      <trkpt lat="45.41779" lon="7.03052">
        <ele>2759.34</ele>
        <time>2018-09-09T12:21:53Z</time>
      </trkpt>
      <trkpt lat="45.41804" lon="7.03044">
        <ele>2757.41</ele>
        <time>2018-09-09T12:21:56Z</time>
      </trkpt>
      <trkpt lat="45.41828" lon="7.0303">
        <ele>2755.14</ele>
        <time>2018-09-09T12:21:59Z</time>
      </trkpt>
      <trkpt lat="45.41842" lon="7.03011">
        <ele>2753.21</ele>
        <time>2018-09-09T12:22:01Z</time>
      </trkpt>
      <trkpt lat="45.41854" lon="7.02992">
        <ele>2751.42</ele>
        <time>2018-09-09T12:22:03Z</time>
      </trkpt>
      <trkpt lat="45.41874" lon="7.02971">
        <ele>2748.44</ele>
        <time>2018-09-09T12:22:06Z</time>
      </trkpt>
      <trkpt lat="45.41897" lon="7.02972">
        <ele>2746.42</ele>
        <time>2018-09-09T12:22:09Z</time>
      </trkpt>
      <trkpt lat="45.41915" lon="7.02992">
        <ele>2743.23</ele>
        <time>2018-09-09T12:22:12Z</time>
      </trkpt>
      <trkpt lat="45.41928" lon="7.03016">
        <ele>2742.32</ele>
        <time>2018-09-09T12:22:15Z</time>
      </trkpt>
      <trkpt lat="45.41941" lon="7.02999">
        <ele>2740.32</ele>
        <time>2018-09-09T12:22:20Z</time>
      </trkpt>
      <trkpt lat="45.41932" lon="7.02967">
        <ele>2738.35</ele>
        <time>2018-09-09T12:22:23Z</time>
      </trkpt>
      <trkpt lat="45.41922" lon="7.02943">
        <ele>2735.74</ele>
        <time>2018-09-09T12:22:25Z</time>
      </trkpt>
      <trkpt lat="45.41912" lon="7.0292">
        <ele>2734.38</ele>
        <time>2018-09-09T12:22:27Z</time>
      </trkpt>
      <trkpt lat="45.41893" lon="7.029">
        <ele>2732.35</ele>
        <time>2018-09-09T12:22:30Z</time>
      </trkpt>
      <trkpt lat="45.41874" lon="7.02894">
        <ele>2732.02</ele>
        <time>2018-09-09T12:22:33Z</time>
      </trkpt>
      <trkpt lat="45.41889" lon="7.02874">
        <ele>2731.04</ele>
        <time>2018-09-09T12:22:36Z</time>
      </trkpt>
      <trkpt lat="45.41912" lon="7.02877">
        <ele>2728.92</ele>
        <time>2018-09-09T12:22:38Z</time>
      </trkpt>
      <trkpt lat="45.41937" lon="7.02881">
        <ele>2726.49</ele>
        <time>2018-09-09T12:22:40Z</time>
      </trkpt>
      <trkpt lat="45.41964" lon="7.02884">
        <ele>2724.45</ele>
        <time>2018-09-09T12:22:42Z</time>
      </trkpt>
      <trkpt lat="45.4199" lon="7.02888">
        <ele>2721.53</ele>
        <time>2018-09-09T12:22:44Z</time>
      </trkpt>
      <trkpt lat="45.42015" lon="7.02886">
        <ele>2718.75</ele>
        <time>2018-09-09T12:22:46Z</time>
      </trkpt>
      <trkpt lat="45.42037" lon="7.0287">
        <ele>2717.38</ele>
        <time>2018-09-09T12:22:48Z</time>
      </trkpt>
      <trkpt lat="45.42056" lon="7.02839">
        <ele>2715.23</ele>
        <time>2018-09-09T12:22:50Z</time>
      </trkpt>
      <trkpt lat="45.42069" lon="7.02804">
        <ele>2713.42</ele>
        <time>2018-09-09T12:22:52Z</time>
      </trkpt>
      <trkpt lat="45.4208" lon="7.02772">
        <ele>2711.23</ele>
        <time>2018-09-09T12:22:54Z</time>
      </trkpt>
      <trkpt lat="45.42092" lon="7.0275">
        <ele>2708.72</ele>
        <time>2018-09-09T12:22:56Z</time>
      </trkpt>
      <trkpt lat="45.42117" lon="7.02751">
        <ele>2706.15</ele>
        <time>2018-09-09T12:22:59Z</time>
      </trkpt>
      <trkpt lat="45.42133" lon="7.0277">
        <ele>2704.42</ele>
        <time>2018-09-09T12:23:01Z</time>
      </trkpt>
      <trkpt lat="45.42151" lon="7.02794">
        <ele>2703.35</ele>
        <time>2018-09-09T12:23:03Z</time>
      </trkpt>
      <trkpt lat="45.4217" lon="7.0282">
        <ele>2700.74</ele>
        <time>2018-09-09T12:23:05Z</time>
      </trkpt>
      <trkpt lat="45.42191" lon="7.02847">
        <ele>2697.56</ele>
        <time>2018-09-09T12:23:07Z</time>
      </trkpt>
      <trkpt lat="45.42212" lon="7.02872">
        <ele>2695.45</ele>
        <time>2018-09-09T12:23:09Z</time>
      </trkpt>
      <trkpt lat="45.42234" lon="7.02883">
        <ele>2693.44</ele>
        <time>2018-09-09T12:23:11Z</time>
      </trkpt>
      <trkpt lat="45.42252" lon="7.02874">
        <ele>2689.83</ele>
        <time>2018-09-09T12:23:13Z</time>
      </trkpt>
      <trkpt lat="45.42268" lon="7.02854">
        <ele>2688.18</ele>
        <time>2018-09-09T12:23:15Z</time>
      </trkpt>
      <trkpt lat="45.42282" lon="7.02833">
        <ele>2686.42</ele>
        <time>2018-09-09T12:23:17Z</time>
      </trkpt>
      <trkpt lat="45.42295" lon="7.02813">
        <ele>2684.44</ele>
        <time>2018-09-09T12:23:19Z</time>
      </trkpt>
      <trkpt lat="45.42307" lon="7.02793">
        <ele>2684.05</ele>
        <time>2018-09-09T12:23:21Z</time>
      </trkpt>
      <trkpt lat="45.42316" lon="7.02771">
        <ele>2680.01</ele>
        <time>2018-09-09T12:24:02Z</time>
      </trkpt>
      <trkpt lat="45.42326" lon="7.02746">
        <ele>2679.04</ele>
        <time>2018-09-09T12:24:05Z</time>
      </trkpt>
      <trkpt lat="45.42336" lon="7.02721">
        <ele>2677.41</ele>
        <time>2018-09-09T12:24:07Z</time>
      </trkpt>
      <trkpt lat="45.42344" lon="7.02695">
        <ele>2675.44</ele>
        <time>2018-09-09T12:24:09Z</time>
      </trkpt>
      <trkpt lat="45.42345" lon="7.0267">
        <ele>2674.35</ele>
        <time>2018-09-09T12:24:11Z</time>
      </trkpt>
      <trkpt lat="45.42341" lon="7.02642">
        <ele>2671.74</ele>
        <time>2018-09-09T12:24:13Z</time>
      </trkpt>
      <trkpt lat="45.42341" lon="7.02609">
        <ele>2670.38</ele>
        <time>2018-09-09T12:24:15Z</time>
      </trkpt>
      <trkpt lat="45.4235" lon="7.02575">
        <ele>2667.53</ele>
        <time>2018-09-09T12:24:17Z</time>
      </trkpt>
      <trkpt lat="45.42361" lon="7.02538">
        <ele>2666.36</ele>
        <time>2018-09-09T12:24:19Z</time>
      </trkpt>
      <trkpt lat="45.42371" lon="7.02496">
        <ele>2663.53</ele>
        <time>2018-09-09T12:24:21Z</time>
      </trkpt>
      <trkpt lat="45.4237" lon="7.02449">
        <ele>2660.75</ele>
        <time>2018-09-09T12:24:23Z</time>
      </trkpt>
      <trkpt lat="45.42363" lon="7.02401">
        <ele>2657.77</ele>
        <time>2018-09-09T12:24:25Z</time>
      </trkpt>
      <trkpt lat="45.42363" lon="7.02356">
        <ele>2655.47</ele>
        <time>2018-09-09T12:24:27Z</time>
      </trkpt>
      <trkpt lat="45.42378" lon="7.02316">
        <ele>2652.75</ele>
        <time>2018-09-09T12:24:29Z</time>
      </trkpt>
      <trkpt lat="45.42401" lon="7.02287">
        <ele>2650.68</ele>
        <time>2018-09-09T12:24:31Z</time>
      </trkpt>
      <trkpt lat="45.42435" lon="7.0228">
        <ele>2648.46</ele>
        <time>2018-09-09T12:24:33Z</time>
      </trkpt>
      <trkpt lat="45.4247" lon="7.02273">
        <ele>2646.45</ele>
        <time>2018-09-09T12:24:35Z</time>
      </trkpt>
      <trkpt lat="45.42505" lon="7.02269">
        <ele>2643.53</ele>
        <time>2018-09-09T12:24:37Z</time>
      </trkpt>
      <trkpt lat="45.4254" lon="7.02268">
        <ele>2641.45</ele>
        <time>2018-09-09T12:24:39Z</time>
      </trkpt>
      <trkpt lat="45.42572" lon="7.02271">
        <ele>2638.53</ele>
        <time>2018-09-09T12:24:41Z</time>
      </trkpt>
      <trkpt lat="45.426" lon="7.02266">
        <ele>2635.75</ele>
        <time>2018-09-09T12:24:43Z</time>
      </trkpt>
      <trkpt lat="45.42628" lon="7.02251">
        <ele>2632.77</ele>
        <time>2018-09-09T12:24:45Z</time>
      </trkpt>
      <trkpt lat="45.42655" lon="7.02227">
        <ele>2629.56</ele>
        <time>2018-09-09T12:24:47Z</time>
      </trkpt>
      <trkpt lat="45.42685" lon="7.02207">
        <ele>2626.54</ele>
        <time>2018-09-09T12:24:49Z</time>
      </trkpt>
      <trkpt lat="45.42718" lon="7.02191">
        <ele>2624.45</ele>
        <time>2018-09-09T12:24:51Z</time>
      </trkpt>
      <trkpt lat="45.42736" lon="7.02183">
        <ele>2622.75</ele>
        <time>2018-09-09T12:24:52Z</time>
      </trkpt>
      <trkpt lat="45.4277" lon="7.02168">
        <ele>2621.17</ele>
        <time>2018-09-09T12:24:54Z</time>
      </trkpt>
      <trkpt lat="45.42803" lon="7.02153">
        <ele>2619.42</ele>
        <time>2018-09-09T12:24:56Z</time>
      </trkpt>
      <trkpt lat="45.42834" lon="7.02139">
        <ele>2617.44</ele>
        <time>2018-09-09T12:24:58Z</time>
      </trkpt>
      <trkpt lat="45.42864" lon="7.02126">
        <ele>2614.53</ele>
        <time>2018-09-09T12:25:00Z</time>
      </trkpt>
      <trkpt lat="45.42889" lon="7.02112">
        <ele>2611.54</ele>
        <time>2018-09-09T12:25:02Z</time>
      </trkpt>
      <trkpt lat="45.42907" lon="7.02089">
        <ele>2610.36</ele>
        <time>2018-09-09T12:25:04Z</time>
      </trkpt>
      <trkpt lat="45.42926" lon="7.0206">
        <ele>2608.44</ele>
        <time>2018-09-09T12:25:06Z</time>
      </trkpt>
      <trkpt lat="45.42948" lon="7.02031">
        <ele>2606.44</ele>
        <time>2018-09-09T12:25:08Z</time>
      </trkpt>
      <trkpt lat="45.42971" lon="7.02001">
        <ele>2605.35</ele>
        <time>2018-09-09T12:25:10Z</time>
      </trkpt>
      <trkpt lat="45.42993" lon="7.01971">
        <ele>2603.44</ele>
        <time>2018-09-09T12:25:12Z</time>
      </trkpt>
      <trkpt lat="45.43015" lon="7.01939">
        <ele>2599.83</ele>
        <time>2018-09-09T12:25:14Z</time>
      </trkpt>
      <trkpt lat="45.43038" lon="7.01912">
        <ele>2597.48</ele>
        <time>2018-09-09T12:25:16Z</time>
      </trkpt>
      <trkpt lat="45.43065" lon="7.0189">
        <ele>2596.15</ele>
        <time>2018-09-09T12:25:18Z</time>
      </trkpt>
      <trkpt lat="45.43093" lon="7.01872">
        <ele>2594.42</ele>
        <time>2018-09-09T12:25:20Z</time>
      </trkpt>
      <trkpt lat="45.4312" lon="7.01855">
        <ele>2593.35</ele>
        <time>2018-09-09T12:25:22Z</time>
      </trkpt>
      <trkpt lat="45.43147" lon="7.0184">
        <ele>2592.14</ele>
        <time>2018-09-09T12:25:24Z</time>
      </trkpt>
      <trkpt lat="45.4317" lon="7.01827">
        <ele>2590.42</ele>
        <time>2018-09-09T12:25:26Z</time>
      </trkpt>
      <trkpt lat="45.43193" lon="7.0181">
        <ele>2588.44</ele>
        <time>2018-09-09T12:25:28Z</time>
      </trkpt>
      <trkpt lat="45.43217" lon="7.01788">
        <ele>2586.44</ele>
        <time>2018-09-09T12:25:30Z</time>
      </trkpt>
      <trkpt lat="45.4324" lon="7.01766">
        <ele>2584.44</ele>
        <time>2018-09-09T12:25:32Z</time>
      </trkpt>
      <trkpt lat="45.43262" lon="7.01745">
        <ele>2583.35</ele>
        <time>2018-09-09T12:25:34Z</time>
      </trkpt>
      <trkpt lat="45.43283" lon="7.01727">
        <ele>2581.65</ele>
        <time>2018-09-09T12:25:36Z</time>
      </trkpt>
      <trkpt lat="45.433" lon="7.01703">
        <ele>2579.46</ele>
        <time>2018-09-09T12:25:38Z</time>
      </trkpt>
      <trkpt lat="45.43314" lon="7.01672">
        <ele>2578.36</ele>
        <time>2018-09-09T12:25:40Z</time>
      </trkpt>
      <trkpt lat="45.4333" lon="7.01639">
        <ele>2575.74</ele>
        <time>2018-09-09T12:25:42Z</time>
      </trkpt>
      <trkpt lat="45.43346" lon="7.01604">
        <ele>2573.68</ele>
        <time>2018-09-09T12:25:44Z</time>
      </trkpt>
      <trkpt lat="45.43363" lon="7.01568">
        <ele>2572.16</ele>
        <time>2018-09-09T12:25:46Z</time>
      </trkpt>
      <trkpt lat="45.43381" lon="7.01534">
        <ele>2569.72</ele>
        <time>2018-09-09T12:25:48Z</time>
      </trkpt>
      <trkpt lat="45.43403" lon="7.01506">
        <ele>2568.17</ele>
        <time>2018-09-09T12:25:50Z</time>
      </trkpt>
      <trkpt lat="45.43429" lon="7.01487">
        <ele>2566.42</ele>
        <time>2018-09-09T12:25:52Z</time>
      </trkpt>
      <trkpt lat="45.43455" lon="7.0147">
        <ele>2564.44</ele>
        <time>2018-09-09T12:25:54Z</time>
      </trkpt>
      <trkpt lat="45.43479" lon="7.01453">
        <ele>2563.35</ele>
        <time>2018-09-09T12:25:56Z</time>
      </trkpt>
      <trkpt lat="45.43502" lon="7.01436">
        <ele>2562.14</ele>
        <time>2018-09-09T12:25:58Z</time>
      </trkpt>
      <trkpt lat="45.43523" lon="7.01415">
        <ele>2560.42</ele>
        <time>2018-09-09T12:26:00Z</time>
      </trkpt>
      <trkpt lat="45.43541" lon="7.01393">
        <ele>2559.14</ele>
        <time>2018-09-09T12:26:02Z</time>
      </trkpt>
      <trkpt lat="45.43558" lon="7.01381">
        <ele>2558.12</ele>
        <time>2018-09-09T12:26:04Z</time>
      </trkpt>
      <trkpt lat="45.43585" lon="7.01386">
        <ele>2557.04</ele>
        <time>2018-09-09T12:26:07Z</time>
      </trkpt>
      <trkpt lat="45.43603" lon="7.01386">
        <ele>2556.11</ele>
        <time>2018-09-09T12:26:09Z</time>
      </trkpt>
      <trkpt lat="45.43621" lon="7.0138">
        <ele>2555.32</ele>
        <time>2018-09-09T12:26:11Z</time>
      </trkpt>
      <trkpt lat="45.43641" lon="7.01352">
        <ele>2554.11</ele>
        <time>2018-09-09T12:26:14Z</time>
      </trkpt>
      <trkpt lat="45.43656" lon="7.01328">
        <ele>2552.41</ele>
        <time>2018-09-09T12:26:16Z</time>
      </trkpt>
      <trkpt lat="45.43675" lon="7.01302">
        <ele>2550.44</ele>
        <time>2018-09-09T12:26:18Z</time>
      </trkpt>
      <trkpt lat="45.43695" lon="7.01275">
        <ele>2548.44</ele>
        <time>2018-09-09T12:26:20Z</time>
      </trkpt>
      <trkpt lat="45.43711" lon="7.01249">
        <ele>2545.53</ele>
        <time>2018-09-09T12:26:22Z</time>
      </trkpt>
      <trkpt lat="45.43718" lon="7.01214">
        <ele>2543.45</ele>
        <time>2018-09-09T12:26:24Z</time>
      </trkpt>
      <trkpt lat="45.4373" lon="7.01184">
        <ele>2541.44</ele>
        <time>2018-09-09T12:26:26Z</time>
      </trkpt>
      <trkpt lat="45.43745" lon="7.01158">
        <ele>2539.44</ele>
        <time>2018-09-09T12:26:28Z</time>
      </trkpt>
      <trkpt lat="45.43758" lon="7.01128">
        <ele>2536.53</ele>
        <time>2018-09-09T12:26:30Z</time>
      </trkpt>
      <trkpt lat="45.4377" lon="7.01098">
        <ele>2535.15</ele>
        <time>2018-09-09T12:26:32Z</time>
      </trkpt>
      <trkpt lat="45.43782" lon="7.01068">
        <ele>2533.42</ele>
        <time>2018-09-09T12:26:34Z</time>
      </trkpt>
      <trkpt lat="45.43795" lon="7.01045">
        <ele>2532.14</ele>
        <time>2018-09-09T12:26:36Z</time>
      </trkpt>
      <trkpt lat="45.43813" lon="7.01034">
        <ele>2530.42</ele>
        <time>2018-09-09T12:26:38Z</time>
      </trkpt>
      <trkpt lat="45.43837" lon="7.01042">
        <ele>2528.14</ele>
        <time>2018-09-09T12:26:41Z</time>
      </trkpt>
      <trkpt lat="45.43856" lon="7.01044">
        <ele>2527.32</ele>
        <time>2018-09-09T12:26:44Z</time>
      </trkpt>
      <trkpt lat="45.43861" lon="7.01014">
        <ele>2525.34</ele>
        <time>2018-09-09T12:26:48Z</time>
      </trkpt>
      <trkpt lat="45.43849" lon="7.00992">
        <ele>2526.08</ele>
        <time>2018-09-09T12:27:17Z</time>
      </trkpt>
      <trkpt lat="45.43837" lon="7.00969">
        <ele>2524.13</ele>
        <time>2018-09-09T12:27:20Z</time>
      </trkpt>
      <trkpt lat="45.43823" lon="7.00949">
        <ele>2521.72</ele>
        <time>2018-09-09T12:27:22Z</time>
      </trkpt>
      <trkpt lat="45.43806" lon="7.0093">
        <ele>2519.47</ele>
        <time>2018-09-09T12:27:24Z</time>
      </trkpt>
      <trkpt lat="45.43788" lon="7.0091">
        <ele>2518.36</ele>
        <time>2018-09-09T12:27:26Z</time>
      </trkpt>
      <trkpt lat="45.43765" lon="7.0089">
        <ele>2515.74</ele>
        <time>2018-09-09T12:27:28Z</time>
      </trkpt>
      <trkpt lat="45.4374" lon="7.00866">
        <ele>2512.77</ele>
        <time>2018-09-09T12:27:30Z</time>
      </trkpt>
      <trkpt lat="45.43714" lon="7.00836">
        <ele>2510.68</ele>
        <time>2018-09-09T12:27:32Z</time>
      </trkpt>
      <trkpt lat="45.4369" lon="7.008">
        <ele>2508.68</ele>
        <time>2018-09-09T12:27:34Z</time>
      </trkpt>
      <trkpt lat="45.43668" lon="7.00763">
        <ele>2508.07</ele>
        <time>2018-09-09T12:27:36Z</time>
      </trkpt>
      <trkpt lat="45.43645" lon="7.00728">
        <ele>2507.11</ele>
        <time>2018-09-09T12:27:38Z</time>
      </trkpt>
      <trkpt lat="45.43624" lon="7.00697">
        <ele>2506.32</ele>
        <time>2018-09-09T12:27:40Z</time>
      </trkpt>
      <trkpt lat="45.43605" lon="7.00673">
        <ele>2505.34</ele>
        <time>2018-09-09T12:27:42Z</time>
      </trkpt>
      <trkpt lat="45.43581" lon="7.00659">
        <ele>2502.73</ele>
        <time>2018-09-09T12:27:44Z</time>
      </trkpt>
      <trkpt lat="45.43556" lon="7.00638">
        <ele>2499.77</ele>
        <time>2018-09-09T12:27:46Z</time>
      </trkpt>
      <trkpt lat="45.43532" lon="7.00616">
        <ele>2497.47</ele>
        <time>2018-09-09T12:27:48Z</time>
      </trkpt>
      <trkpt lat="45.43507" lon="7.00615">
        <ele>2495.45</ele>
        <time>2018-09-09T12:27:50Z</time>
      </trkpt>
      <trkpt lat="45.43479" lon="7.00626">
        <ele>2492.53</ele>
        <time>2018-09-09T12:27:52Z</time>
      </trkpt>
      <trkpt lat="45.4345" lon="7.00623">
        <ele>2489.75</ele>
        <time>2018-09-09T12:27:54Z</time>
      </trkpt>
      <trkpt lat="45.43429" lon="7.00616">
        <ele>2488.38</ele>
        <time>2018-09-09T12:27:56Z</time>
      </trkpt>
      <trkpt lat="45.43444" lon="7.00596">
        <ele>2485.43</ele>
        <time>2018-09-09T12:28:01Z</time>
      </trkpt>
      <trkpt lat="45.43467" lon="7.00598">
        <ele>2484.35</ele>
        <time>2018-09-09T12:28:03Z</time>
      </trkpt>
      <trkpt lat="45.43495" lon="7.00591">
        <ele>2482.23</ele>
        <time>2018-09-09T12:28:05Z</time>
      </trkpt>
      <trkpt lat="45.43527" lon="7.0058">
        <ele>2480.42</ele>
        <time>2018-09-09T12:28:07Z</time>
      </trkpt>
      <trkpt lat="45.43559" lon="7.00574">
        <ele>2478.44</ele>
        <time>2018-09-09T12:28:09Z</time>
      </trkpt>
      <trkpt lat="45.43591" lon="7.00585">
        <ele>2475.74</ele>
        <time>2018-09-09T12:28:11Z</time>
      </trkpt>
      <trkpt lat="45.43622" lon="7.00605">
        <ele>2472.77</ele>
        <time>2018-09-09T12:28:13Z</time>
      </trkpt>
      <trkpt lat="45.43651" lon="7.00619">
        <ele>2470.47</ele>
        <time>2018-09-09T12:28:15Z</time>
      </trkpt>
      <trkpt lat="45.43677" lon="7.00628">
        <ele>2468.24</ele>
        <time>2018-09-09T12:28:17Z</time>
      </trkpt>
      <trkpt lat="45.43697" lon="7.00646">
        <ele>2467.33</ele>
        <time>2018-09-09T12:28:19Z</time>
      </trkpt>
      <trkpt lat="45.43718" lon="7.00651">
        <ele>2466.11</ele>
        <time>2018-09-09T12:28:22Z</time>
      </trkpt>
      <trkpt lat="45.43711" lon="7.00623">
        <ele>2463.43</ele>
        <time>2018-09-09T12:28:25Z</time>
      </trkpt>
      <trkpt lat="45.43686" lon="7.00605">
        <ele>2462.35</ele>
        <time>2018-09-09T12:28:27Z</time>
      </trkpt>
      <trkpt lat="45.43656" lon="7.00584">
        <ele>2460.44</ele>
        <time>2018-09-09T12:28:29Z</time>
      </trkpt>
      <trkpt lat="45.43623" lon="7.00563">
        <ele>2458.44</ele>
        <time>2018-09-09T12:28:31Z</time>
      </trkpt>
      <trkpt lat="45.43595" lon="7.00535">
        <ele>2455.74</ele>
        <time>2018-09-09T12:28:33Z</time>
      </trkpt>
      <trkpt lat="45.43571" lon="7.00509">
        <ele>2452.56</ele>
        <time>2018-09-09T12:28:35Z</time>
      </trkpt>
      <trkpt lat="45.43542" lon="7.00503">
        <ele>2449.75</ele>
        <time>2018-09-09T12:28:37Z</time>
      </trkpt>
      <trkpt lat="45.43507" lon="7.00504">
        <ele>2446.77</ele>
        <time>2018-09-09T12:28:39Z</time>
      </trkpt>
      <trkpt lat="45.43488" lon="7.005">
        <ele>2445.54</ele>
        <time>2018-09-09T12:28:40Z</time>
      </trkpt>
      <trkpt lat="45.4347" lon="7.00493">
        <ele>2444.47</ele>
        <time>2018-09-09T12:28:41Z</time>
      </trkpt>
      <trkpt lat="45.43438" lon="7.00467">
        <ele>2441.54</ele>
        <time>2018-09-09T12:28:43Z</time>
      </trkpt>
      <trkpt lat="45.43425" lon="7.0045">
        <ele>2439.77</ele>
        <time>2018-09-09T12:28:44Z</time>
      </trkpt>
      <trkpt lat="45.434" lon="7.00417">
        <ele>2436.56</ele>
        <time>2018-09-09T12:28:46Z</time>
      </trkpt>
      <trkpt lat="45.43379" lon="7.00391">
        <ele>2433.54</ele>
        <time>2018-09-09T12:28:48Z</time>
      </trkpt>
      <trkpt lat="45.43369" lon="7.00364">
        <ele>2432.15</ele>
        <time>2018-09-09T12:28:50Z</time>
      </trkpt>
      <trkpt lat="45.43361" lon="7.00339">
        <ele>2432.03</ele>
        <time>2018-09-09T12:28:52Z</time>
      </trkpt>
      <trkpt lat="45.43335" lon="7.0033">
        <ele>2430.13</ele>
        <time>2018-09-09T12:28:55Z</time>
      </trkpt>
      <trkpt lat="45.43304" lon="7.00334">
        <ele>2429.33</ele>
        <time>2018-09-09T12:28:57Z</time>
      </trkpt>
      <trkpt lat="45.43272" lon="7.00333">
        <ele>2426.73</ele>
        <time>2018-09-09T12:28:59Z</time>
      </trkpt>
      <trkpt lat="45.43249" lon="7.00312">
        <ele>2424.47</ele>
        <time>2018-09-09T12:29:01Z</time>
      </trkpt>
      <trkpt lat="45.4323" lon="7.00293">
        <ele>2423.15</ele>
        <time>2018-09-09T12:29:03Z</time>
      </trkpt>
      <trkpt lat="45.43209" lon="7.00287">
        <ele>2422.12</ele>
        <time>2018-09-09T12:29:05Z</time>
      </trkpt>
      <trkpt lat="45.43185" lon="7.00291">
        <ele>2419.01</ele>
        <time>2018-09-09T12:29:07Z</time>
      </trkpt>
      <trkpt lat="45.43155" lon="7.00292">
        <ele>2416.49</ele>
        <time>2018-09-09T12:29:09Z</time>
      </trkpt>
      <trkpt lat="45.4313" lon="7.00277">
        <ele>2416.06</ele>
        <time>2018-09-09T12:29:11Z</time>
      </trkpt>
      <trkpt lat="45.43115" lon="7.00241">
        <ele>2415.11</ele>
        <time>2018-09-09T12:29:13Z</time>
      </trkpt>
      <trkpt lat="45.4312" lon="7.00199">
        <ele>2413.41</ele>
        <time>2018-09-09T12:29:15Z</time>
      </trkpt>
      <trkpt lat="45.43139" lon="7.00171">
        <ele>2412.35</ele>
        <time>2018-09-09T12:29:17Z</time>
      </trkpt>
      <trkpt lat="45.43168" lon="7.00163">
        <ele>2410.44</ele>
        <time>2018-09-09T12:29:19Z</time>
      </trkpt>
      <trkpt lat="45.43187" lon="7.00169">
        <ele>2410.14</ele>
        <time>2018-09-09T12:29:20Z</time>
      </trkpt>
      <trkpt lat="45.43215" lon="7.002">
        <ele>2409.35</ele>
        <time>2018-09-09T12:29:21Z</time>
      </trkpt>
      <trkpt lat="45.43236" lon="7.00212">
        <ele>2407.72</ele>
        <time>2018-09-09T12:29:22Z</time>
      </trkpt>
      <trkpt lat="45.43259" lon="7.00221">
        <ele>2405.83</ele>
        <time>2018-09-09T12:29:23Z</time>
      </trkpt>
      <trkpt lat="45.43282" lon="7.00228">
        <ele>2403.86</ele>
        <time>2018-09-09T12:29:24Z</time>
      </trkpt>
      <trkpt lat="45.43302" lon="7.00233">
        <ele>2401.87</ele>
        <time>2018-09-09T12:29:25Z</time>
      </trkpt>
      <trkpt lat="45.4332" lon="7.00243">
        <ele>2400.57</ele>
        <time>2018-09-09T12:29:26Z</time>
      </trkpt>
      <trkpt lat="45.43351" lon="7.00259">
        <ele>2398.25</ele>
        <time>2018-09-09T12:29:28Z</time>
      </trkpt>
      <trkpt lat="45.43377" lon="7.00249">
        <ele>2395.52</ele>
        <time>2018-09-09T12:29:30Z</time>
      </trkpt>
      <trkpt lat="45.43399" lon="7.00219">
        <ele>2393.66</ele>
        <time>2018-09-09T12:29:32Z</time>
      </trkpt>
      <trkpt lat="45.43422" lon="7.00205">
        <ele>2388.94</ele>
        <time>2018-09-09T12:29:34Z</time>
      </trkpt>
      <trkpt lat="45.43452" lon="7.00219">
        <ele>2385.79</ele>
        <time>2018-09-09T12:29:36Z</time>
      </trkpt>
      <trkpt lat="45.43469" lon="7.00227">
        <ele>2383.85</ele>
        <time>2018-09-09T12:29:37Z</time>
      </trkpt>
      <trkpt lat="45.43505" lon="7.00227">
        <ele>2379.87</ele>
        <time>2018-09-09T12:29:39Z</time>
      </trkpt>
      <trkpt lat="45.43534" lon="7.00236">
        <ele>2376.78</ele>
        <time>2018-09-09T12:29:41Z</time>
      </trkpt>
      <trkpt lat="45.4355" lon="7.00249">
        <ele>2375.55</ele>
        <time>2018-09-09T12:29:42Z</time>
      </trkpt>
      <trkpt lat="45.43569" lon="7.00263">
        <ele>2373.77</ele>
        <time>2018-09-09T12:29:43Z</time>
      </trkpt>
      <trkpt lat="45.43587" lon="7.00275">
        <ele>2372.54</ele>
        <time>2018-09-09T12:29:44Z</time>
      </trkpt>
      <trkpt lat="45.43605" lon="7.00285">
        <ele>2370.77</ele>
        <time>2018-09-09T12:29:45Z</time>
      </trkpt>
      <trkpt lat="45.4363" lon="7.0031">
        <ele>2368.47</ele>
        <time>2018-09-09T12:29:47Z</time>
      </trkpt>
      <trkpt lat="45.43651" lon="7.00355">
        <ele>2364.84</ele>
        <time>2018-09-09T12:29:49Z</time>
      </trkpt>
      <trkpt lat="45.43665" lon="7.00376">
        <ele>2363.56</ele>
        <time>2018-09-09T12:29:50Z</time>
      </trkpt>
      <trkpt lat="45.43682" lon="7.00394">
        <ele>2362.48</ele>
        <time>2018-09-09T12:29:51Z</time>
      </trkpt>
      <trkpt lat="45.437" lon="7.0041">
        <ele>2360.75</ele>
        <time>2018-09-09T12:29:52Z</time>
      </trkpt>
      <trkpt lat="45.43719" lon="7.00423">
        <ele>2359.54</ele>
        <time>2018-09-09T12:29:53Z</time>
      </trkpt>
      <trkpt lat="45.4374" lon="7.00432">
        <ele>2357.77</ele>
        <time>2018-09-09T12:29:54Z</time>
      </trkpt>
      <trkpt lat="45.43759" lon="7.0044">
        <ele>2356.54</ele>
        <time>2018-09-09T12:29:55Z</time>
      </trkpt>
      <trkpt lat="45.43777" lon="7.00451">
        <ele>2354.77</ele>
        <time>2018-09-09T12:29:56Z</time>
      </trkpt>
      <trkpt lat="45.43796" lon="7.00465">
        <ele>2352.84</ele>
        <time>2018-09-09T12:29:57Z</time>
      </trkpt>
      <trkpt lat="45.43816" lon="7.0048">
        <ele>2351.56</ele>
        <time>2018-09-09T12:29:58Z</time>
      </trkpt>
      <trkpt lat="45.43836" lon="7.00494">
        <ele>2349.78</ele>
        <time>2018-09-09T12:29:59Z</time>
      </trkpt>
      <trkpt lat="45.43857" lon="7.00504">
        <ele>2347.14</ele>
        <time>2018-09-09T12:30:00Z</time>
      </trkpt>
      <trkpt lat="45.43876" lon="7.00513">
        <ele>2344.95</ele>
        <time>2018-09-09T12:30:01Z</time>
      </trkpt>
      <trkpt lat="45.43908" lon="7.00528">
        <ele>2342.28</ele>
        <time>2018-09-09T12:30:03Z</time>
      </trkpt>
      <trkpt lat="45.43933" lon="7.00565">
        <ele>2339.03</ele>
        <time>2018-09-09T12:30:05Z</time>
      </trkpt>
      <trkpt lat="45.4395" lon="7.00583">
        <ele>2337.62</ele>
        <time>2018-09-09T12:30:06Z</time>
      </trkpt>
      <trkpt lat="45.43969" lon="7.00597">
        <ele>2335.8</ele>
        <time>2018-09-09T12:30:07Z</time>
      </trkpt>
      <trkpt lat="45.43988" lon="7.0061">
        <ele>2333.85</ele>
        <time>2018-09-09T12:30:08Z</time>
      </trkpt>
      <trkpt lat="45.44006" lon="7.00624">
        <ele>2331.87</ele>
        <time>2018-09-09T12:30:09Z</time>
      </trkpt>
      <trkpt lat="45.44021" lon="7.0064">
        <ele>2330.57</ele>
        <time>2018-09-09T12:30:10Z</time>
      </trkpt>
      <trkpt lat="45.44034" lon="7.00661">
        <ele>2328.78</ele>
        <time>2018-09-09T12:30:11Z</time>
      </trkpt>
      <trkpt lat="45.44046" lon="7.00685">
        <ele>2326.84</ele>
        <time>2018-09-09T12:30:12Z</time>
      </trkpt>
      <trkpt lat="45.44059" lon="7.00711">
        <ele>2324.86</ele>
        <time>2018-09-09T12:30:13Z</time>
      </trkpt>
      <trkpt lat="45.44075" lon="7.00737">
        <ele>2322.87</ele>
        <time>2018-09-09T12:30:14Z</time>
      </trkpt>
      <trkpt lat="45.44091" lon="7.00763">
        <ele>2320.87</ele>
        <time>2018-09-09T12:30:15Z</time>
      </trkpt>
      <trkpt lat="45.44106" lon="7.00791">
        <ele>2319.57</ele>
        <time>2018-09-09T12:30:16Z</time>
      </trkpt>
      <trkpt lat="45.44118" lon="7.00819">
        <ele>2319.18</ele>
        <time>2018-09-09T12:30:17Z</time>
      </trkpt>
      <trkpt lat="45.44128" lon="7.00845">
        <ele>2319.77</ele>
        <time>2018-09-09T12:30:18Z</time>
      </trkpt>
      <trkpt lat="45.44136" lon="7.00869">
        <ele>2320.64</ele>
        <time>2018-09-09T12:30:19Z</time>
      </trkpt>
      <trkpt lat="45.4414" lon="7.00896">
        <ele>2321.6</ele>
        <time>2018-09-09T12:30:20Z</time>
      </trkpt>
      <trkpt lat="45.44144" lon="7.00925">
        <ele>2322.59</ele>
        <time>2018-09-09T12:30:21Z</time>
      </trkpt>
      <trkpt lat="45.44147" lon="7.00954">
        <ele>2323.59</ele>
        <time>2018-09-09T12:30:22Z</time>
      </trkpt>
      <trkpt lat="45.44151" lon="7.00983">
        <ele>2324.59</ele>
        <time>2018-09-09T12:30:23Z</time>
      </trkpt>
      <trkpt lat="45.44158" lon="7.01012">
        <ele>2326.29</ele>
        <time>2018-09-09T12:30:24Z</time>
      </trkpt>
      <trkpt lat="45.44166" lon="7.01041">
        <ele>2327.5</ele>
        <time>2018-09-09T12:30:25Z</time>
      </trkpt>
      <trkpt lat="45.44174" lon="7.01069">
        <ele>2327.86</ele>
        <time>2018-09-09T12:30:26Z</time>
      </trkpt>
      <trkpt lat="45.44182" lon="7.01096">
        <ele>2328.67</ele>
        <time>2018-09-09T12:30:27Z</time>
      </trkpt>
      <trkpt lat="45.44188" lon="7.01121">
        <ele>2328.91</ele>
        <time>2018-09-09T12:30:28Z</time>
      </trkpt>
      <trkpt lat="45.44197" lon="7.01165">
        <ele>2329.92</ele>
        <time>2018-09-09T12:30:30Z</time>
      </trkpt>
      <trkpt lat="45.44195" lon="7.01207">
        <ele>2329.31</ele>
        <time>2018-09-09T12:30:32Z</time>
      </trkpt>
      <trkpt lat="45.44197" lon="7.01257">
        <ele>2329.04</ele>
        <time>2018-09-09T12:30:34Z</time>
      </trkpt>
      <trkpt lat="45.44201" lon="7.01284">
        <ele>2328.32</ele>
        <time>2018-09-09T12:30:35Z</time>
      </trkpt>
      <trkpt lat="45.44206" lon="7.01311">
        <ele>2327.41</ele>
        <time>2018-09-09T12:30:36Z</time>
      </trkpt>
      <trkpt lat="45.4421" lon="7.01337">
        <ele>2326.43</ele>
        <time>2018-09-09T12:30:37Z</time>
      </trkpt>
      <trkpt lat="45.44211" lon="7.01385">
        <ele>2323.53</ele>
        <time>2018-09-09T12:30:39Z</time>
      </trkpt>
      <trkpt lat="45.44208" lon="7.01412">
        <ele>2322.47</ele>
        <time>2018-09-09T12:30:40Z</time>
      </trkpt>
      <trkpt lat="45.44203" lon="7.01439">
        <ele>2320.75</ele>
        <time>2018-09-09T12:30:41Z</time>
      </trkpt>
      <trkpt lat="45.44196" lon="7.01466">
        <ele>2318.84</ele>
        <time>2018-09-09T12:30:42Z</time>
      </trkpt>
      <trkpt lat="45.4419" lon="7.01493">
        <ele>2317.56</ele>
        <time>2018-09-09T12:30:43Z</time>
      </trkpt>
      <trkpt lat="45.44184" lon="7.01519">
        <ele>2317.18</ele>
        <time>2018-09-09T12:30:44Z</time>
      </trkpt>
      <trkpt lat="45.44181" lon="7.01547">
        <ele>2317.06</ele>
        <time>2018-09-09T12:30:45Z</time>
      </trkpt>
      <trkpt lat="45.44181" lon="7.01577">
        <ele>2316.33</ele>
        <time>2018-09-09T12:30:46Z</time>
      </trkpt>
      <trkpt lat="45.4418" lon="7.01605">
        <ele>2315.41</ele>
        <time>2018-09-09T12:30:47Z</time>
      </trkpt>
      <trkpt lat="45.44182" lon="7.01648">
        <ele>2313.44</ele>
        <time>2018-09-09T12:30:49Z</time>
      </trkpt>
      <trkpt lat="45.44192" lon="7.01679">
        <ele>2312.35</ele>
        <time>2018-09-09T12:30:51Z</time>
      </trkpt>
      <trkpt lat="45.44217" lon="7.01699">
        <ele>2312.75</ele>
        <time>2018-09-09T12:30:53Z</time>
      </trkpt>
      <trkpt lat="45.44241" lon="7.01684">
        <ele>2310.83</ele>
        <time>2018-09-09T12:30:54Z</time>
      </trkpt>
      <trkpt lat="45.4427" lon="7.01699">
        <ele>2307.78</ele>
        <time>2018-09-09T12:30:56Z</time>
      </trkpt>
      <trkpt lat="45.44287" lon="7.01731">
        <ele>2307.99</ele>
        <time>2018-09-09T12:30:58Z</time>
      </trkpt>
      <trkpt lat="45.44291" lon="7.01771">
        <ele>2306.4</ele>
        <time>2018-09-09T12:31:00Z</time>
      </trkpt>
      <trkpt lat="45.4428" lon="7.01811">
        <ele>2304.44</ele>
        <time>2018-09-09T12:31:02Z</time>
      </trkpt>
      <trkpt lat="45.44277" lon="7.01846">
        <ele>2302.65</ele>
        <time>2018-09-09T12:31:04Z</time>
      </trkpt>
      <trkpt lat="45.44285" lon="7.01881">
        <ele>2301.16</ele>
        <time>2018-09-09T12:31:06Z</time>
      </trkpt>
      <trkpt lat="45.44324" lon="7.01902">
        <ele>2299.42</ele>
        <time>2018-09-09T12:31:08Z</time>
      </trkpt>
      <trkpt lat="45.44341" lon="7.01913">
        <ele>2298.44</ele>
        <time>2018-09-09T12:31:09Z</time>
      </trkpt>
      <trkpt lat="45.44359" lon="7.01928">
        <ele>2297.44</ele>
        <time>2018-09-09T12:31:10Z</time>
      </trkpt>
      <trkpt lat="45.44375" lon="7.01947">
        <ele>2296.44</ele>
        <time>2018-09-09T12:31:11Z</time>
      </trkpt>
      <trkpt lat="45.44391" lon="7.01969">
        <ele>2294.74</ele>
        <time>2018-09-09T12:31:12Z</time>
      </trkpt>
      <trkpt lat="45.44408" lon="7.01993">
        <ele>2292.83</ele>
        <time>2018-09-09T12:31:13Z</time>
      </trkpt>
      <trkpt lat="45.44424" lon="7.02019">
        <ele>2290.16</ele>
        <time>2018-09-09T12:31:14Z</time>
      </trkpt>
      <trkpt lat="45.44441" lon="7.02046">
        <ele>2287.26</ele>
        <time>2018-09-09T12:31:15Z</time>
      </trkpt>
      <trkpt lat="45.44458" lon="7.02073">
        <ele>2284.99</ele>
        <time>2018-09-09T12:31:16Z</time>
      </trkpt>
      <trkpt lat="45.44474" lon="7.021">
        <ele>2282.91</ele>
        <time>2018-09-09T12:31:17Z</time>
      </trkpt>
      <trkpt lat="45.4449" lon="7.02126">
        <ele>2280.18</ele>
        <time>2018-09-09T12:31:18Z</time>
      </trkpt>
      <trkpt lat="45.44504" lon="7.02154">
        <ele>2277.97</ele>
        <time>2018-09-09T12:31:19Z</time>
      </trkpt>
      <trkpt lat="45.44516" lon="7.02182">
        <ele>2275.9</ele>
        <time>2018-09-09T12:31:20Z</time>
      </trkpt>
      <trkpt lat="45.4453" lon="7.02209">
        <ele>2273.18</ele>
        <time>2018-09-09T12:31:21Z</time>
      </trkpt>
      <trkpt lat="45.44546" lon="7.02235">
        <ele>2270.96</ele>
        <time>2018-09-09T12:31:22Z</time>
      </trkpt>
      <trkpt lat="45.44564" lon="7.02257">
        <ele>2268.9</ele>
        <time>2018-09-09T12:31:23Z</time>
      </trkpt>
      <trkpt lat="45.44583" lon="7.02276">
        <ele>2266.88</ele>
        <time>2018-09-09T12:31:24Z</time>
      </trkpt>
      <trkpt lat="45.44601" lon="7.02294">
        <ele>2264.87</ele>
        <time>2018-09-09T12:31:25Z</time>
      </trkpt>
      <trkpt lat="45.44616" lon="7.0231">
        <ele>2262.87</ele>
        <time>2018-09-09T12:31:26Z</time>
      </trkpt>
      <trkpt lat="45.4464" lon="7.02349">
        <ele>2259.78</ele>
        <time>2018-09-09T12:31:28Z</time>
      </trkpt>
      <trkpt lat="45.4465" lon="7.02372">
        <ele>2257.85</ele>
        <time>2018-09-09T12:31:29Z</time>
      </trkpt>
      <trkpt lat="45.44662" lon="7.02408">
        <ele>2256.18</ele>
        <time>2018-09-09T12:31:31Z</time>
      </trkpt>
      <trkpt lat="45.44679" lon="7.02429">
        <ele>2255.11</ele>
        <time>2018-09-09T12:31:34Z</time>
      </trkpt>
      <trkpt lat="45.4468" lon="7.02399">
        <ele>2252.5</ele>
        <time>2018-09-09T12:31:36Z</time>
      </trkpt>
      <trkpt lat="45.44664" lon="7.02361">
        <ele>2250.45</ele>
        <time>2018-09-09T12:31:38Z</time>
      </trkpt>
      <trkpt lat="45.44656" lon="7.02335">
        <ele>2250.15</ele>
        <time>2018-09-09T12:31:39Z</time>
      </trkpt>
      <trkpt lat="45.44648" lon="7.0231">
        <ele>2249.35</ele>
        <time>2018-09-09T12:31:40Z</time>
      </trkpt>
      <trkpt lat="45.44637" lon="7.02286">
        <ele>2248.42</ele>
        <time>2018-09-09T12:31:41Z</time>
      </trkpt>
      <trkpt lat="45.44623" lon="7.02263">
        <ele>2247.44</ele>
        <time>2018-09-09T12:31:42Z</time>
      </trkpt>
      <trkpt lat="45.44607" lon="7.02239">
        <ele>2246.44</ele>
        <time>2018-09-09T12:31:43Z</time>
      </trkpt>
      <trkpt lat="45.44593" lon="7.02211">
        <ele>2244.74</ele>
        <time>2018-09-09T12:31:44Z</time>
      </trkpt>
      <trkpt lat="45.44581" lon="7.0218">
        <ele>2242.83</ele>
        <time>2018-09-09T12:31:45Z</time>
      </trkpt>
      <trkpt lat="45.44572" lon="7.02146">
        <ele>2240.86</ele>
        <time>2018-09-09T12:31:46Z</time>
      </trkpt>
      <trkpt lat="45.44564" lon="7.02111">
        <ele>2238.87</ele>
        <time>2018-09-09T12:31:47Z</time>
      </trkpt>
      <trkpt lat="45.44555" lon="7.02077">
        <ele>2236.87</ele>
        <time>2018-09-09T12:31:48Z</time>
      </trkpt>
      <trkpt lat="45.44545" lon="7.02044">
        <ele>2235.57</ele>
        <time>2018-09-09T12:31:49Z</time>
      </trkpt>
      <trkpt lat="45.44535" lon="7.02012">
        <ele>2234.48</ele>
        <time>2018-09-09T12:31:50Z</time>
      </trkpt>
      <trkpt lat="45.44526" lon="7.01982">
        <ele>2233.46</ele>
        <time>2018-09-09T12:31:51Z</time>
      </trkpt>
      <trkpt lat="45.44517" lon="7.01953">
        <ele>2233.15</ele>
        <time>2018-09-09T12:31:52Z</time>
      </trkpt>
      <trkpt lat="45.4451" lon="7.01928">
        <ele>2232.35</ele>
        <time>2018-09-09T12:31:53Z</time>
      </trkpt>
      <trkpt lat="45.44498" lon="7.01891">
        <ele>2231.14</ele>
        <time>2018-09-09T12:31:55Z</time>
      </trkpt>
      <trkpt lat="45.44488" lon="7.01868">
        <ele>2229.42</ele>
        <time>2018-09-09T12:31:57Z</time>
      </trkpt>
      <trkpt lat="45.44509" lon="7.01877">
        <ele>2224.14</ele>
        <time>2018-09-09T12:32:02Z</time>
      </trkpt>
      <trkpt lat="45.44524" lon="7.01923">
        <ele>2221.72</ele>
        <time>2018-09-09T12:32:04Z</time>
      </trkpt>
      <trkpt lat="45.44534" lon="7.01948">
        <ele>2221.23</ele>
        <time>2018-09-09T12:32:05Z</time>
      </trkpt>
      <trkpt lat="45.44546" lon="7.01972">
        <ele>2219.68</ele>
        <time>2018-09-09T12:32:06Z</time>
      </trkpt>
      <trkpt lat="45.4456" lon="7.01996">
        <ele>2217.81</ele>
        <time>2018-09-09T12:32:07Z</time>
      </trkpt>
      <trkpt lat="45.44573" lon="7.02022">
        <ele>2215.85</ele>
        <time>2018-09-09T12:32:08Z</time>
      </trkpt>
      <trkpt lat="45.44587" lon="7.02045">
        <ele>2213.87</ele>
        <time>2018-09-09T12:32:09Z</time>
      </trkpt>
      <trkpt lat="45.44602" lon="7.02067">
        <ele>2212.57</ele>
        <time>2018-09-09T12:32:10Z</time>
      </trkpt>
      <trkpt lat="45.44618" lon="7.02089">
        <ele>2210.08</ele>
        <time>2018-09-09T12:32:11Z</time>
      </trkpt>
      <trkpt lat="45.44632" lon="7.0211">
        <ele>2207.94</ele>
        <time>2018-09-09T12:32:12Z</time>
      </trkpt>
      <trkpt lat="45.44648" lon="7.02131">
        <ele>2206.59</ele>
        <time>2018-09-09T12:32:13Z</time>
      </trkpt>
      <trkpt lat="45.44663" lon="7.02151">
        <ele>2204.79</ele>
        <time>2018-09-09T12:32:14Z</time>
      </trkpt>
      <trkpt lat="45.44678" lon="7.02172">
        <ele>2203.55</ele>
        <time>2018-09-09T12:32:15Z</time>
      </trkpt>
      <trkpt lat="45.44693" lon="7.02196">
        <ele>2201.07</ele>
        <time>2018-09-09T12:32:16Z</time>
      </trkpt>
      <trkpt lat="45.44706" lon="7.02222">
        <ele>2199.63</ele>
        <time>2018-09-09T12:32:17Z</time>
      </trkpt>
      <trkpt lat="45.44719" lon="7.02248">
        <ele>2198.5</ele>
        <time>2018-09-09T12:32:18Z</time>
      </trkpt>
      <trkpt lat="45.44731" lon="7.02274">
        <ele>2196.76</ele>
        <time>2018-09-09T12:32:19Z</time>
      </trkpt>
      <trkpt lat="45.44743" lon="7.02299">
        <ele>2194.84</ele>
        <time>2018-09-09T12:32:20Z</time>
      </trkpt>
      <trkpt lat="45.44756" lon="7.02324">
        <ele>2193.56</ele>
        <time>2018-09-09T12:32:21Z</time>
      </trkpt>
      <trkpt lat="45.44768" lon="7.02348">
        <ele>2191.78</ele>
        <time>2018-09-09T12:32:22Z</time>
      </trkpt>
      <trkpt lat="45.44779" lon="7.02372">
        <ele>2190.54</ele>
        <time>2018-09-09T12:32:23Z</time>
      </trkpt>
      <trkpt lat="45.44788" lon="7.02394">
        <ele>2188.77</ele>
        <time>2018-09-09T12:32:24Z</time>
      </trkpt>
      <trkpt lat="45.44804" lon="7.02436">
        <ele>2187.17</ele>
        <time>2018-09-09T12:32:26Z</time>
      </trkpt>
      <trkpt lat="45.44824" lon="7.02473">
        <ele>2184.51</ele>
        <time>2018-09-09T12:32:28Z</time>
      </trkpt>
      <trkpt lat="45.44843" lon="7.02515">
        <ele>2181.54</ele>
        <time>2018-09-09T12:32:30Z</time>
      </trkpt>
      <trkpt lat="45.44853" lon="7.02545">
        <ele>2179.07</ele>
        <time>2018-09-09T12:32:31Z</time>
      </trkpt>
      <trkpt lat="45.44861" lon="7.02573">
        <ele>2176.93</ele>
        <time>2018-09-09T12:32:32Z</time>
      </trkpt>
      <trkpt lat="45.44869" lon="7.026">
        <ele>2174.89</ele>
        <time>2018-09-09T12:32:33Z</time>
      </trkpt>
      <trkpt lat="45.44877" lon="7.02628">
        <ele>2172.88</ele>
        <time>2018-09-09T12:32:34Z</time>
      </trkpt>
      <trkpt lat="45.44885" lon="7.02655">
        <ele>2171.57</ele>
        <time>2018-09-09T12:32:35Z</time>
      </trkpt>
      <trkpt lat="45.44893" lon="7.02682">
        <ele>2169.78</ele>
        <time>2018-09-09T12:32:36Z</time>
      </trkpt>
      <trkpt lat="45.449" lon="7.02709">
        <ele>2167.85</ele>
        <time>2018-09-09T12:32:37Z</time>
      </trkpt>
      <trkpt lat="45.44906" lon="7.02735">
        <ele>2166.56</ele>
        <time>2018-09-09T12:32:38Z</time>
      </trkpt>
      <trkpt lat="45.44913" lon="7.02761">
        <ele>2164.78</ele>
        <time>2018-09-09T12:32:39Z</time>
      </trkpt>
      <trkpt lat="45.44922" lon="7.02786">
        <ele>2163.54</ele>
        <time>2018-09-09T12:32:40Z</time>
      </trkpt>
      <trkpt lat="45.44932" lon="7.02809">
        <ele>2161.77</ele>
        <time>2018-09-09T12:32:41Z</time>
      </trkpt>
      <trkpt lat="45.44941" lon="7.02833">
        <ele>2160.54</ele>
        <time>2018-09-09T12:32:42Z</time>
      </trkpt>
      <trkpt lat="45.44951" lon="7.02857">
        <ele>2158.77</ele>
        <time>2018-09-09T12:32:43Z</time>
      </trkpt>
      <trkpt lat="45.44959" lon="7.02883">
        <ele>2157.54</ele>
        <time>2018-09-09T12:32:44Z</time>
      </trkpt>
      <trkpt lat="45.44967" lon="7.02909">
        <ele>2155.77</ele>
        <time>2018-09-09T12:32:45Z</time>
      </trkpt>
      <trkpt lat="45.44975" lon="7.02935">
        <ele>2154.54</ele>
        <time>2018-09-09T12:32:46Z</time>
      </trkpt>
      <trkpt lat="45.44983" lon="7.02962">
        <ele>2153.47</ele>
        <time>2018-09-09T12:32:47Z</time>
      </trkpt>
      <trkpt lat="45.44993" lon="7.02989">
        <ele>2152.45</ele>
        <time>2018-09-09T12:32:48Z</time>
      </trkpt>
      <trkpt lat="45.45004" lon="7.03014">
        <ele>2151.45</ele>
        <time>2018-09-09T12:32:49Z</time>
      </trkpt>
      <trkpt lat="45.45016" lon="7.03037">
        <ele>2150.44</ele>
        <time>2018-09-09T12:32:50Z</time>
      </trkpt>
      <trkpt lat="45.45038" lon="7.0307">
        <ele>2147.53</ele>
        <time>2018-09-09T12:32:52Z</time>
      </trkpt>
      <trkpt lat="45.45051" lon="7.03111">
        <ele>2145.45</ele>
        <time>2018-09-09T12:32:54Z</time>
      </trkpt>
      <trkpt lat="45.45065" lon="7.03157">
        <ele>2143.44</ele>
        <time>2018-09-09T12:32:56Z</time>
      </trkpt>
      <trkpt lat="45.45076" lon="7.03178">
        <ele>2142.44</ele>
        <time>2018-09-09T12:32:57Z</time>
      </trkpt>
      <trkpt lat="45.45087" lon="7.03198">
        <ele>2140.74</ele>
        <time>2018-09-09T12:32:58Z</time>
      </trkpt>
      <trkpt lat="45.45097" lon="7.03222">
        <ele>2138.83</ele>
        <time>2018-09-09T12:32:59Z</time>
      </trkpt>
      <trkpt lat="45.45106" lon="7.03247">
        <ele>2136.86</ele>
        <time>2018-09-09T12:33:00Z</time>
      </trkpt>
      <trkpt lat="45.45115" lon="7.03275">
        <ele>2134.87</ele>
        <time>2018-09-09T12:33:01Z</time>
      </trkpt>
      <trkpt lat="45.45125" lon="7.03302">
        <ele>2134.27</ele>
        <time>2018-09-09T12:33:02Z</time>
      </trkpt>
      <trkpt lat="45.45134" lon="7.03331">
        <ele>2132.69</ele>
        <time>2018-09-09T12:33:03Z</time>
      </trkpt>
      <trkpt lat="45.45143" lon="7.03358">
        <ele>2131.52</ele>
        <time>2018-09-09T12:33:04Z</time>
      </trkpt>
      <trkpt lat="45.45152" lon="7.03383">
        <ele>2129.77</ele>
        <time>2018-09-09T12:33:05Z</time>
      </trkpt>
      <trkpt lat="45.45162" lon="7.03406">
        <ele>2128.54</ele>
        <time>2018-09-09T12:33:06Z</time>
      </trkpt>
      <trkpt lat="45.45175" lon="7.03425">
        <ele>2127.47</ele>
        <time>2018-09-09T12:33:07Z</time>
      </trkpt>
      <trkpt lat="45.45198" lon="7.03462">
        <ele>2123.84</ele>
        <time>2018-09-09T12:33:09Z</time>
      </trkpt>
      <trkpt lat="45.45209" lon="7.03486">
        <ele>2122.56</ele>
        <time>2018-09-09T12:33:10Z</time>
      </trkpt>
      <trkpt lat="45.45218" lon="7.03512">
        <ele>2120.78</ele>
        <time>2018-09-09T12:33:11Z</time>
      </trkpt>
      <trkpt lat="45.45228" lon="7.03539">
        <ele>2118.84</ele>
        <time>2018-09-09T12:33:12Z</time>
      </trkpt>
      <trkpt lat="45.45238" lon="7.03567">
        <ele>2116.86</ele>
        <time>2018-09-09T12:33:13Z</time>
      </trkpt>
      <trkpt lat="45.45248" lon="7.03593">
        <ele>2115.57</ele>
        <time>2018-09-09T12:33:14Z</time>
      </trkpt>
      <trkpt lat="45.45259" lon="7.03618">
        <ele>2114.48</ele>
        <time>2018-09-09T12:33:15Z</time>
      </trkpt>
      <trkpt lat="45.45271" lon="7.03642">
        <ele>2112.75</ele>
        <time>2018-09-09T12:33:16Z</time>
      </trkpt>
      <trkpt lat="45.45281" lon="7.03666">
        <ele>2110.84</ele>
        <time>2018-09-09T12:33:17Z</time>
      </trkpt>
      <trkpt lat="45.45291" lon="7.0369">
        <ele>2109.56</ele>
        <time>2018-09-09T12:33:18Z</time>
      </trkpt>
      <trkpt lat="45.45302" lon="7.03713">
        <ele>2107.78</ele>
        <time>2018-09-09T12:33:19Z</time>
      </trkpt>
      <trkpt lat="45.45312" lon="7.03736">
        <ele>2106.54</ele>
        <time>2018-09-09T12:33:20Z</time>
      </trkpt>
      <trkpt lat="45.45321" lon="7.03761">
        <ele>2105.47</ele>
        <time>2018-09-09T12:33:21Z</time>
      </trkpt>
      <trkpt lat="45.4533" lon="7.03785">
        <ele>2103.75</ele>
        <time>2018-09-09T12:33:22Z</time>
      </trkpt>
      <trkpt lat="45.45339" lon="7.03808">
        <ele>2101.84</ele>
        <time>2018-09-09T12:33:23Z</time>
      </trkpt>
      <trkpt lat="45.45347" lon="7.03831">
        <ele>2099.86</ele>
        <time>2018-09-09T12:33:24Z</time>
      </trkpt>
      <trkpt lat="45.45354" lon="7.03854">
        <ele>2097.87</ele>
        <time>2018-09-09T12:33:25Z</time>
      </trkpt>
      <trkpt lat="45.45359" lon="7.03879">
        <ele>2096.57</ele>
        <time>2018-09-09T12:33:26Z</time>
      </trkpt>
      <trkpt lat="45.45366" lon="7.03926">
        <ele>2094.46</ele>
        <time>2018-09-09T12:33:28Z</time>
      </trkpt>
      <trkpt lat="45.45371" lon="7.03962">
        <ele>2093.35</ele>
        <time>2018-09-09T12:33:30Z</time>
      </trkpt>
      <trkpt lat="45.45387" lon="7.03983">
        <ele>2092.11</ele>
        <time>2018-09-09T12:33:33Z</time>
      </trkpt>
      <trkpt lat="45.45401" lon="7.03964">
        <ele>2090.34</ele>
        <time>2018-09-09T12:33:36Z</time>
      </trkpt>
      <trkpt lat="45.45386" lon="7.03939">
        <ele>2089.41</ele>
        <time>2018-09-09T12:33:37Z</time>
      </trkpt>
      <trkpt lat="45.45379" lon="7.03904">
        <ele>2088.14</ele>
        <time>2018-09-09T12:33:39Z</time>
      </trkpt>
      <trkpt lat="45.45383" lon="7.03861">
        <ele>2085.51</ele>
        <time>2018-09-09T12:33:41Z</time>
      </trkpt>
      <trkpt lat="45.45382" lon="7.03813">
        <ele>2082.75</ele>
        <time>2018-09-09T12:33:43Z</time>
      </trkpt>
      <trkpt lat="45.45377" lon="7.03762">
        <ele>2078.86</ele>
        <time>2018-09-09T12:33:45Z</time>
      </trkpt>
      <trkpt lat="45.45374" lon="7.03736">
        <ele>2076.87</ele>
        <time>2018-09-09T12:33:46Z</time>
      </trkpt>
      <trkpt lat="45.45365" lon="7.03687">
        <ele>2073.57</ele>
        <time>2018-09-09T12:33:48Z</time>
      </trkpt>
      <trkpt lat="45.45357" lon="7.0364">
        <ele>2070.55</ele>
        <time>2018-09-09T12:33:50Z</time>
      </trkpt>
      <trkpt lat="45.45348" lon="7.03596">
        <ele>2068.45</ele>
        <time>2018-09-09T12:33:52Z</time>
      </trkpt>
      <trkpt lat="45.45336" lon="7.03561">
        <ele>2065.74</ele>
        <time>2018-09-09T12:33:54Z</time>
      </trkpt>
      <trkpt lat="45.45324" lon="7.03534">
        <ele>2064.38</ele>
        <time>2018-09-09T12:33:56Z</time>
      </trkpt>
      <trkpt lat="45.45331" lon="7.03508">
        <ele>2064.09</ele>
        <time>2018-09-09T12:33:59Z</time>
      </trkpt>
      <trkpt lat="45.45344" lon="7.03542">
        <ele>2063.32</ele>
        <time>2018-09-09T12:34:02Z</time>
      </trkpt>
      <trkpt lat="45.45353" lon="7.03577">
        <ele>2061.84</ele>
        <time>2018-09-09T12:34:05Z</time>
      </trkpt>
      <trkpt lat="45.45366" lon="7.03602">
        <ele>2060.39</ele>
        <time>2018-09-09T12:34:07Z</time>
      </trkpt>
      <trkpt lat="45.45379" lon="7.03627">
        <ele>2059.84</ele>
        <time>2018-09-09T12:34:09Z</time>
      </trkpt>
      <trkpt lat="45.45391" lon="7.03648">
        <ele>2059.09</ele>
        <time>2018-09-09T12:34:11Z</time>
      </trkpt>
      <trkpt lat="45.45407" lon="7.03659">
        <ele>2058.32</ele>
        <time>2018-09-09T12:34:13Z</time>
      </trkpt>
      <trkpt lat="45.45432" lon="7.03665">
        <ele>2055.44</ele>
        <time>2018-09-09T12:34:16Z</time>
      </trkpt>
      <trkpt lat="45.45457" lon="7.03669">
        <ele>2054.33</ele>
        <time>2018-09-09T12:34:19Z</time>
      </trkpt>
      <trkpt lat="45.45475" lon="7.03661">
        <ele>2053.34</ele>
        <time>2018-09-09T12:34:21Z</time>
      </trkpt>
      <trkpt lat="45.45487" lon="7.0364">
        <ele>2052.34</ele>
        <time>2018-09-09T12:34:23Z</time>
      </trkpt>
      <trkpt lat="45.45493" lon="7.0361">
        <ele>2051.34</ele>
        <time>2018-09-09T12:34:25Z</time>
      </trkpt>
      <trkpt lat="45.45496" lon="7.03575">
        <ele>2050.13</ele>
        <time>2018-09-09T12:34:27Z</time>
      </trkpt>
      <trkpt lat="45.45499" lon="7.03533">
        <ele>2048.42</ele>
        <time>2018-09-09T12:34:29Z</time>
      </trkpt>
      <trkpt lat="45.45496" lon="7.03484">
        <ele>2047.35</ele>
        <time>2018-09-09T12:34:31Z</time>
      </trkpt>
      <trkpt lat="45.45492" lon="7.03457">
        <ele>2047.12</ele>
        <time>2018-09-09T12:34:32Z</time>
      </trkpt>
      <trkpt lat="45.45486" lon="7.0343">
        <ele>2047.05</ele>
        <time>2018-09-09T12:34:33Z</time>
      </trkpt>
      <trkpt lat="45.45481" lon="7.03403">
        <ele>2047.72</ele>
        <time>2018-09-09T12:34:34Z</time>
      </trkpt>
      <trkpt lat="45.45475" lon="7.03377">
        <ele>2047.93</ele>
        <time>2018-09-09T12:34:35Z</time>
      </trkpt>
      <trkpt lat="45.45468" lon="7.0335">
        <ele>2047.99</ele>
        <time>2018-09-09T12:34:36Z</time>
      </trkpt>
      <trkpt lat="45.45458" lon="7.03325">
        <ele>2048.01</ele>
        <time>2018-09-09T12:34:37Z</time>
      </trkpt>
      <trkpt lat="45.45448" lon="7.03301">
        <ele>2047.31</ele>
        <time>2018-09-09T12:34:38Z</time>
      </trkpt>
      <trkpt lat="45.45437" lon="7.03278">
        <ele>2047.1</ele>
        <time>2018-09-09T12:34:39Z</time>
      </trkpt>
      <trkpt lat="45.45425" lon="7.03254">
        <ele>2047.04</ele>
        <time>2018-09-09T12:34:40Z</time>
      </trkpt>
      <trkpt lat="45.45414" lon="7.03231">
        <ele>2047.72</ele>
        <time>2018-09-09T12:34:41Z</time>
      </trkpt>
      <trkpt lat="45.45402" lon="7.03209">
        <ele>2047.93</ele>
        <time>2018-09-09T12:34:42Z</time>
      </trkpt>
      <trkpt lat="45.45392" lon="7.03186">
        <ele>2047.99</ele>
        <time>2018-09-09T12:34:43Z</time>
      </trkpt>
      <trkpt lat="45.45383" lon="7.03163">
        <ele>2047.31</ele>
        <time>2018-09-09T12:34:44Z</time>
      </trkpt>
      <trkpt lat="45.45373" lon="7.03139">
        <ele>2046.4</ele>
        <time>2018-09-09T12:34:45Z</time>
      </trkpt>
      <trkpt lat="45.45363" lon="7.03115">
        <ele>2045.43</ele>
        <time>2018-09-09T12:34:46Z</time>
      </trkpt>
      <trkpt lat="45.45354" lon="7.0309">
        <ele>2045.14</ele>
        <time>2018-09-09T12:34:47Z</time>
      </trkpt>
      <trkpt lat="45.45344" lon="7.03065">
        <ele>2044.35</ele>
        <time>2018-09-09T12:34:48Z</time>
      </trkpt>
      <trkpt lat="45.45334" lon="7.03039">
        <ele>2042.72</ele>
        <time>2018-09-09T12:34:49Z</time>
      </trkpt>
      <trkpt lat="45.45323" lon="7.03014">
        <ele>2042.23</ele>
        <time>2018-09-09T12:34:50Z</time>
      </trkpt>
      <trkpt lat="45.45313" lon="7.02988">
        <ele>2041.38</ele>
        <time>2018-09-09T12:34:51Z</time>
      </trkpt>
      <trkpt lat="45.45302" lon="7.02962">
        <ele>2040.42</ele>
        <time>2018-09-09T12:34:52Z</time>
      </trkpt>
      <trkpt lat="45.45292" lon="7.02936">
        <ele>2039.44</ele>
        <time>2018-09-09T12:34:53Z</time>
      </trkpt>
      <trkpt lat="45.45281" lon="7.02909">
        <ele>2039.14</ele>
        <time>2018-09-09T12:34:54Z</time>
      </trkpt>
      <trkpt lat="45.45271" lon="7.02883">
        <ele>2038.35</ele>
        <time>2018-09-09T12:34:55Z</time>
      </trkpt>
      <trkpt lat="45.45265" lon="7.02856">
        <ele>2037.42</ele>
        <time>2018-09-09T12:34:56Z</time>
      </trkpt>
      <trkpt lat="45.45259" lon="7.02828">
        <ele>2036.44</ele>
        <time>2018-09-09T12:34:57Z</time>
      </trkpt>
      <trkpt lat="45.45258" lon="7.02798">
        <ele>2035.44</ele>
        <time>2018-09-09T12:34:58Z</time>
      </trkpt>
      <trkpt lat="45.45255" lon="7.02767">
        <ele>2035.14</ele>
        <time>2018-09-09T12:34:59Z</time>
      </trkpt>
      <trkpt lat="45.45251" lon="7.02735">
        <ele>2034.35</ele>
        <time>2018-09-09T12:35:00Z</time>
      </trkpt>
      <trkpt lat="45.45245" lon="7.02705">
        <ele>2033.42</ele>
        <time>2018-09-09T12:35:01Z</time>
      </trkpt>
      <trkpt lat="45.45237" lon="7.02676">
        <ele>2032.44</ele>
        <time>2018-09-09T12:35:02Z</time>
      </trkpt>
      <trkpt lat="45.45227" lon="7.02647">
        <ele>2032.14</ele>
        <time>2018-09-09T12:35:03Z</time>
      </trkpt>
      <trkpt lat="45.45216" lon="7.02618">
        <ele>2032.05</ele>
        <time>2018-09-09T12:35:04Z</time>
      </trkpt>
      <trkpt lat="45.45206" lon="7.0259">
        <ele>2031.33</ele>
        <time>2018-09-09T12:35:05Z</time>
      </trkpt>
      <trkpt lat="45.45196" lon="7.02562">
        <ele>2030.41</ele>
        <time>2018-09-09T12:35:06Z</time>
      </trkpt>
      <trkpt lat="45.45186" lon="7.02535">
        <ele>2029.43</ele>
        <time>2018-09-09T12:35:07Z</time>
      </trkpt>
      <trkpt lat="45.45177" lon="7.02509">
        <ele>2028.44</ele>
        <time>2018-09-09T12:35:08Z</time>
      </trkpt>
      <trkpt lat="45.45168" lon="7.02484">
        <ele>2027.44</ele>
        <time>2018-09-09T12:35:09Z</time>
      </trkpt>
      <trkpt lat="45.45159" lon="7.0246">
        <ele>2026.44</ele>
        <time>2018-09-09T12:35:10Z</time>
      </trkpt>
      <trkpt lat="45.45151" lon="7.02437">
        <ele>2025.44</ele>
        <time>2018-09-09T12:35:11Z</time>
      </trkpt>
      <trkpt lat="45.45144" lon="7.02391">
        <ele>2024.35</ele>
        <time>2018-09-09T12:35:13Z</time>
      </trkpt>
      <trkpt lat="45.45153" lon="7.02348">
        <ele>2022.44</ele>
        <time>2018-09-09T12:35:15Z</time>
      </trkpt>
      <trkpt lat="45.45174" lon="7.0231">
        <ele>2019.74</ele>
        <time>2018-09-09T12:35:17Z</time>
      </trkpt>
      <trkpt lat="45.45202" lon="7.0229">
        <ele>2015.86</ele>
        <time>2018-09-09T12:35:19Z</time>
      </trkpt>
      <trkpt lat="45.4523" lon="7.02279">
        <ele>2014.39</ele>
        <time>2018-09-09T12:35:21Z</time>
      </trkpt>
      <trkpt lat="45.45251" lon="7.02248">
        <ele>2012.44</ele>
        <time>2018-09-09T12:35:23Z</time>
      </trkpt>
      <trkpt lat="45.45264" lon="7.02204">
        <ele>2008.83</ele>
        <time>2018-09-09T12:35:25Z</time>
      </trkpt>
      <trkpt lat="45.45263" lon="7.02155">
        <ele>2006.48</ele>
        <time>2018-09-09T12:35:27Z</time>
      </trkpt>
      <trkpt lat="45.45262" lon="7.0211">
        <ele>2005.15</ele>
        <time>2018-09-09T12:35:29Z</time>
      </trkpt>
      <trkpt lat="45.45279" lon="7.02065">
        <ele>2002.51</ele>
        <time>2018-09-09T12:35:31Z</time>
      </trkpt>
      <trkpt lat="45.45286" lon="7.02041">
        <ele>2000.76</ele>
        <time>2018-09-09T12:35:32Z</time>
      </trkpt>
      <trkpt lat="45.45294" lon="7.02015">
        <ele>1999.54</ele>
        <time>2018-09-09T12:35:33Z</time>
      </trkpt>
      <trkpt lat="45.45299" lon="7.0199">
        <ele>1997.77</ele>
        <time>2018-09-09T12:35:34Z</time>
      </trkpt>
      <trkpt lat="45.45299" lon="7.01962">
        <ele>1996.54</ele>
        <time>2018-09-09T12:35:35Z</time>
      </trkpt>
      <trkpt lat="45.45295" lon="7.01933">
        <ele>1995.47</ele>
        <time>2018-09-09T12:35:36Z</time>
      </trkpt>
      <trkpt lat="45.4529" lon="7.01902">
        <ele>1993.75</ele>
        <time>2018-09-09T12:35:37Z</time>
      </trkpt>
      <trkpt lat="45.45284" lon="7.01871">
        <ele>1992.54</ele>
        <time>2018-09-09T12:35:38Z</time>
      </trkpt>
      <trkpt lat="45.45279" lon="7.01839">
        <ele>1990.77</ele>
        <time>2018-09-09T12:35:39Z</time>
      </trkpt>
      <trkpt lat="45.45274" lon="7.01806">
        <ele>1988.84</ele>
        <time>2018-09-09T12:35:40Z</time>
      </trkpt>
      <trkpt lat="45.45269" lon="7.01773">
        <ele>1986.86</ele>
        <time>2018-09-09T12:35:41Z</time>
      </trkpt>
      <trkpt lat="45.45263" lon="7.01741">
        <ele>1985.57</ele>
        <time>2018-09-09T12:35:42Z</time>
      </trkpt>
      <trkpt lat="45.45253" lon="7.0171">
        <ele>1983.08</ele>
        <time>2018-09-09T12:35:43Z</time>
      </trkpt>
      <trkpt lat="45.45242" lon="7.0168">
        <ele>1980.93</ele>
        <time>2018-09-09T12:35:44Z</time>
      </trkpt>
      <trkpt lat="45.4523" lon="7.01652">
        <ele>1978.89</ele>
        <time>2018-09-09T12:35:45Z</time>
      </trkpt>
      <trkpt lat="45.45217" lon="7.01624">
        <ele>1978.28</ele>
        <time>2018-09-09T12:35:46Z</time>
      </trkpt>
      <trkpt lat="45.45206" lon="7.01595">
        <ele>1977.39</ele>
        <time>2018-09-09T12:35:47Z</time>
      </trkpt>
      <trkpt lat="45.45196" lon="7.01565">
        <ele>1975.73</ele>
        <time>2018-09-09T12:35:48Z</time>
      </trkpt>
      <trkpt lat="45.45186" lon="7.01536">
        <ele>1973.83</ele>
        <time>2018-09-09T12:35:49Z</time>
      </trkpt>
      <trkpt lat="45.45176" lon="7.01507">
        <ele>1971.86</ele>
        <time>2018-09-09T12:35:50Z</time>
      </trkpt>
      <trkpt lat="45.45166" lon="7.01479">
        <ele>1970.57</ele>
        <time>2018-09-09T12:35:51Z</time>
      </trkpt>
      <trkpt lat="45.45155" lon="7.01451">
        <ele>1968.08</ele>
        <time>2018-09-09T12:35:52Z</time>
      </trkpt>
      <trkpt lat="45.45144" lon="7.01423">
        <ele>1965.93</ele>
        <time>2018-09-09T12:35:53Z</time>
      </trkpt>
      <trkpt lat="45.45134" lon="7.01395">
        <ele>1963.19</ele>
        <time>2018-09-09T12:35:54Z</time>
      </trkpt>
      <trkpt lat="45.45124" lon="7.01367">
        <ele>1960.97</ele>
        <time>2018-09-09T12:35:55Z</time>
      </trkpt>
      <trkpt lat="45.45114" lon="7.0134">
        <ele>1959.6</ele>
        <time>2018-09-09T12:35:56Z</time>
      </trkpt>
      <trkpt lat="45.45104" lon="7.01315">
        <ele>1957.79</ele>
        <time>2018-09-09T12:35:57Z</time>
      </trkpt>
      <trkpt lat="45.45095" lon="7.01291">
        <ele>1956.55</ele>
        <time>2018-09-09T12:35:58Z</time>
      </trkpt>
      <trkpt lat="45.45082" lon="7.01251">
        <ele>1954.45</ele>
        <time>2018-09-09T12:36:00Z</time>
      </trkpt>
      <trkpt lat="45.45076" lon="7.01216">
        <ele>1951.74</ele>
        <time>2018-09-09T12:36:02Z</time>
      </trkpt>
      <trkpt lat="45.45069" lon="7.01184">
        <ele>1950.38</ele>
        <time>2018-09-09T12:36:04Z</time>
      </trkpt>
      <trkpt lat="45.45056" lon="7.01157">
        <ele>1949.14</ele>
        <time>2018-09-09T12:36:06Z</time>
      </trkpt>
      <trkpt lat="45.45047" lon="7.0113">
        <ele>1948.33</ele>
        <time>2018-09-09T12:36:08Z</time>
      </trkpt>
      <trkpt lat="45.45045" lon="7.01095">
        <ele>1945.73</ele>
        <time>2018-09-09T12:36:10Z</time>
      </trkpt>
      <trkpt lat="45.45032" lon="7.01062">
        <ele>1944.17</ele>
        <time>2018-09-09T12:36:12Z</time>
      </trkpt>
      <trkpt lat="45.45014" lon="7.01032">
        <ele>1942.21</ele>
        <time>2018-09-09T12:36:14Z</time>
      </trkpt>
      <trkpt lat="45.44994" lon="7.01008">
        <ele>1940.42</ele>
        <time>2018-09-09T12:36:16Z</time>
      </trkpt>
      <trkpt lat="45.44978" lon="7.00983">
        <ele>1938.44</ele>
        <time>2018-09-09T12:36:18Z</time>
      </trkpt>
      <trkpt lat="45.44964" lon="7.00957">
        <ele>1936.44</ele>
        <time>2018-09-09T12:36:20Z</time>
      </trkpt>
      <trkpt lat="45.44952" lon="7.00929">
        <ele>1934.44</ele>
        <time>2018-09-09T12:36:22Z</time>
      </trkpt>
      <trkpt lat="45.44937" lon="7.00897">
        <ele>1931.53</ele>
        <time>2018-09-09T12:36:24Z</time>
      </trkpt>
      <trkpt lat="45.4492" lon="7.00862">
        <ele>1929.45</ele>
        <time>2018-09-09T12:36:26Z</time>
      </trkpt>
      <trkpt lat="45.44903" lon="7.00824">
        <ele>1926.74</ele>
        <time>2018-09-09T12:36:28Z</time>
      </trkpt>
      <trkpt lat="45.44884" lon="7.00783">
        <ele>1923.77</ele>
        <time>2018-09-09T12:36:30Z</time>
      </trkpt>
      <trkpt lat="45.44866" lon="7.0074">
        <ele>1920.56</ele>
        <time>2018-09-09T12:36:32Z</time>
      </trkpt>
      <trkpt lat="45.44857" lon="7.00718">
        <ele>1918.78</ele>
        <time>2018-09-09T12:36:33Z</time>
      </trkpt>
      <trkpt lat="45.44848" lon="7.00696">
        <ele>1917.54</ele>
        <time>2018-09-09T12:36:34Z</time>
      </trkpt>
      <trkpt lat="45.44841" lon="7.00672">
        <ele>1915.77</ele>
        <time>2018-09-09T12:36:35Z</time>
      </trkpt>
      <trkpt lat="45.44835" lon="7.00648">
        <ele>1914.54</ele>
        <time>2018-09-09T12:36:36Z</time>
      </trkpt>
      <trkpt lat="45.44832" lon="7.00621">
        <ele>1913.47</ele>
        <time>2018-09-09T12:36:37Z</time>
      </trkpt>
      <trkpt lat="45.44831" lon="7.00594">
        <ele>1912.45</ele>
        <time>2018-09-09T12:36:38Z</time>
      </trkpt>
      <trkpt lat="45.4483" lon="7.00566">
        <ele>1910.75</ele>
        <time>2018-09-09T12:36:39Z</time>
      </trkpt>
      <trkpt lat="45.44829" lon="7.00538">
        <ele>1909.53</ele>
        <time>2018-09-09T12:36:40Z</time>
      </trkpt>
      <trkpt lat="45.44828" lon="7.00511">
        <ele>1908.47</ele>
        <time>2018-09-09T12:36:41Z</time>
      </trkpt>
      <trkpt lat="45.44827" lon="7.00484">
        <ele>1907.45</ele>
        <time>2018-09-09T12:36:42Z</time>
      </trkpt>
      <trkpt lat="45.44826" lon="7.00456">
        <ele>1906.45</ele>
        <time>2018-09-09T12:36:43Z</time>
      </trkpt>
      <trkpt lat="45.44825" lon="7.00428">
        <ele>1905.44</ele>
        <time>2018-09-09T12:36:44Z</time>
      </trkpt>
      <trkpt lat="45.44823" lon="7.004">
        <ele>1903.74</ele>
        <time>2018-09-09T12:36:45Z</time>
      </trkpt>
      <trkpt lat="45.44822" lon="7.00372">
        <ele>1902.53</ele>
        <time>2018-09-09T12:36:46Z</time>
      </trkpt>
      <trkpt lat="45.4482" lon="7.00344">
        <ele>1901.47</ele>
        <time>2018-09-09T12:36:47Z</time>
      </trkpt>
      <trkpt lat="45.44818" lon="7.00315">
        <ele>1900.45</ele>
        <time>2018-09-09T12:36:48Z</time>
      </trkpt>
      <trkpt lat="45.44814" lon="7.00286">
        <ele>1899.45</ele>
        <time>2018-09-09T12:36:49Z</time>
      </trkpt>
      <trkpt lat="45.44809" lon="7.00258">
        <ele>1899.14</ele>
        <time>2018-09-09T12:36:50Z</time>
      </trkpt>
      <trkpt lat="45.44805" lon="7.00228">
        <ele>1897.65</ele>
        <time>2018-09-09T12:36:51Z</time>
      </trkpt>
      <trkpt lat="45.44799" lon="7.00198">
        <ele>1896.51</ele>
        <time>2018-09-09T12:36:52Z</time>
      </trkpt>
      <trkpt lat="45.44794" lon="7.00169">
        <ele>1895.46</ele>
        <time>2018-09-09T12:36:53Z</time>
      </trkpt>
      <trkpt lat="45.44791" lon="7.00139">
        <ele>1893.75</ele>
        <time>2018-09-09T12:36:54Z</time>
      </trkpt>
      <trkpt lat="45.4479" lon="7.00108">
        <ele>1891.84</ele>
        <time>2018-09-09T12:36:55Z</time>
      </trkpt>
      <trkpt lat="45.44789" lon="7.00077">
        <ele>1889.86</ele>
        <time>2018-09-09T12:36:56Z</time>
      </trkpt>
      <trkpt lat="45.44787" lon="7.00045">
        <ele>1888.57</ele>
        <time>2018-09-09T12:36:57Z</time>
      </trkpt>
      <trkpt lat="45.44781" lon="7.00014">
        <ele>1886.78</ele>
        <time>2018-09-09T12:36:58Z</time>
      </trkpt>
      <trkpt lat="45.44775" lon="6.99984">
        <ele>1885.54</ele>
        <time>2018-09-09T12:36:59Z</time>
      </trkpt>
      <trkpt lat="45.44769" lon="6.99954">
        <ele>1884.47</ele>
        <time>2018-09-09T12:37:00Z</time>
      </trkpt>
      <trkpt lat="45.44763" lon="6.99923">
        <ele>1882.75</ele>
        <time>2018-09-09T12:37:01Z</time>
      </trkpt>
      <trkpt lat="45.44758" lon="6.99892">
        <ele>1881.54</ele>
        <time>2018-09-09T12:37:02Z</time>
      </trkpt>
      <trkpt lat="45.44754" lon="6.99862">
        <ele>1880.47</ele>
        <time>2018-09-09T12:37:03Z</time>
      </trkpt>
      <trkpt lat="45.44751" lon="6.9983">
        <ele>1878.75</ele>
        <time>2018-09-09T12:37:04Z</time>
      </trkpt>
      <trkpt lat="45.44748" lon="6.998">
        <ele>1876.84</ele>
        <time>2018-09-09T12:37:05Z</time>
      </trkpt>
      <trkpt lat="45.44746" lon="6.99769">
        <ele>1875.56</ele>
        <time>2018-09-09T12:37:06Z</time>
      </trkpt>
      <trkpt lat="45.44745" lon="6.99739">
        <ele>1874.48</ele>
        <time>2018-09-09T12:37:07Z</time>
      </trkpt>
      <trkpt lat="45.44743" lon="6.99709">
        <ele>1873.45</ele>
        <time>2018-09-09T12:37:08Z</time>
      </trkpt>
      <trkpt lat="45.44742" lon="6.9968">
        <ele>1871.75</ele>
        <time>2018-09-09T12:37:09Z</time>
      </trkpt>
      <trkpt lat="45.44741" lon="6.99651">
        <ele>1870.53</ele>
        <time>2018-09-09T12:37:10Z</time>
      </trkpt>
      <trkpt lat="45.4474" lon="6.99623">
        <ele>1870.17</ele>
        <time>2018-09-09T12:37:11Z</time>
      </trkpt>
      <trkpt lat="45.4474" lon="6.99596">
        <ele>1869.36</ele>
        <time>2018-09-09T12:37:12Z</time>
      </trkpt>
      <trkpt lat="45.44739" lon="6.99568">
        <ele>1868.42</ele>
        <time>2018-09-09T12:37:13Z</time>
      </trkpt>
      <trkpt lat="45.44738" lon="6.99541">
        <ele>1867.44</ele>
        <time>2018-09-09T12:37:14Z</time>
      </trkpt>
      <trkpt lat="45.44739" lon="6.99515">
        <ele>1866.44</ele>
        <time>2018-09-09T12:37:15Z</time>
      </trkpt>
      <trkpt lat="45.44739" lon="6.99488">
        <ele>1866.14</ele>
        <time>2018-09-09T12:37:16Z</time>
      </trkpt>
      <trkpt lat="45.4474" lon="6.99463">
        <ele>1865.35</ele>
        <time>2018-09-09T12:37:17Z</time>
      </trkpt>
      <trkpt lat="45.44742" lon="6.99437">
        <ele>1864.42</ele>
        <time>2018-09-09T12:37:18Z</time>
      </trkpt>
      <trkpt lat="45.44744" lon="6.99386">
        <ele>1862.44</ele>
        <time>2018-09-09T12:37:20Z</time>
      </trkpt>
      <trkpt lat="45.44744" lon="6.9936">
        <ele>1862.14</ele>
        <time>2018-09-09T12:37:21Z</time>
      </trkpt>
      <trkpt lat="45.44743" lon="6.99333">
        <ele>1861.35</ele>
        <time>2018-09-09T12:37:22Z</time>
      </trkpt>
      <trkpt lat="45.44741" lon="6.99307">
        <ele>1861.12</ele>
        <time>2018-09-09T12:37:23Z</time>
      </trkpt>
      <trkpt lat="45.44738" lon="6.99282">
        <ele>1860.35</ele>
        <time>2018-09-09T12:37:24Z</time>
      </trkpt>
      <trkpt lat="45.44735" lon="6.99256">
        <ele>1859.41</ele>
        <time>2018-09-09T12:37:25Z</time>
      </trkpt>
      <trkpt lat="45.44731" lon="6.99231">
        <ele>1859.13</ele>
        <time>2018-09-09T12:37:26Z</time>
      </trkpt>
      <trkpt lat="45.44728" lon="6.99205">
        <ele>1858.35</ele>
        <time>2018-09-09T12:37:27Z</time>
      </trkpt>
      <trkpt lat="45.44721" lon="6.99158">
        <ele>1856.44</ele>
        <time>2018-09-09T12:37:29Z</time>
      </trkpt>
      <trkpt lat="45.44713" lon="6.99113">
        <ele>1855.35</ele>
        <time>2018-09-09T12:37:31Z</time>
      </trkpt>
      <trkpt lat="45.44705" lon="6.99067">
        <ele>1854.14</ele>
        <time>2018-09-09T12:37:33Z</time>
      </trkpt>
      <trkpt lat="45.44698" lon="6.99023">
        <ele>1853.33</ele>
        <time>2018-09-09T12:37:35Z</time>
      </trkpt>
      <trkpt lat="45.44691" lon="6.98981">
        <ele>1850.73</ele>
        <time>2018-09-09T12:37:37Z</time>
      </trkpt>
      <trkpt lat="45.44683" lon="6.98942">
        <ele>1849.38</ele>
        <time>2018-09-09T12:37:39Z</time>
      </trkpt>
      <trkpt lat="45.44677" lon="6.98906">
        <ele>1849.05</ele>
        <time>2018-09-09T12:37:41Z</time>
      </trkpt>
      <trkpt lat="45.44671" lon="6.98869">
        <ele>1848.32</ele>
        <time>2018-09-09T12:37:43Z</time>
      </trkpt>
      <trkpt lat="45.44669" lon="6.98835">
        <ele>1848.04</ele>
        <time>2018-09-09T12:37:45Z</time>
      </trkpt>
      <trkpt lat="45.44667" lon="6.98804">
        <ele>1848.02</ele>
        <time>2018-09-09T12:37:47Z</time>
      </trkpt>
      <trkpt lat="45.44662" lon="6.98776">
        <ele>1847.32</ele>
        <time>2018-09-09T12:37:49Z</time>
      </trkpt>
      <trkpt lat="45.4466" lon="6.98748">
        <ele>1847.04</ele>
        <time>2018-09-09T12:37:51Z</time>
      </trkpt>
      <trkpt lat="45.44663" lon="6.9872">
        <ele>1846.32</ele>
        <time>2018-09-09T12:37:53Z</time>
      </trkpt>
      <trkpt lat="45.44665" lon="6.98693">
        <ele>1845.13</ele>
        <time>2018-09-09T12:37:55Z</time>
      </trkpt>
      <trkpt lat="45.4467" lon="6.98666">
        <ele>1844.33</ele>
        <time>2018-09-09T12:37:57Z</time>
      </trkpt>
      <trkpt lat="45.44678" lon="6.98638">
        <ele>1843.34</ele>
        <time>2018-09-09T12:37:59Z</time>
      </trkpt>
      <trkpt lat="45.44686" lon="6.9861">
        <ele>1843.04</ele>
        <time>2018-09-09T12:38:01Z</time>
      </trkpt>
      <trkpt lat="45.44695" lon="6.98581">
        <ele>1843.72</ele>
        <time>2018-09-09T12:38:03Z</time>
      </trkpt>
      <trkpt lat="45.44705" lon="6.9855">
        <ele>1844.69</ele>
        <time>2018-09-09T12:38:05Z</time>
      </trkpt>
      <trkpt lat="45.44714" lon="6.98519">
        <ele>1844.99</ele>
        <time>2018-09-09T12:38:07Z</time>
      </trkpt>
      <trkpt lat="45.44723" lon="6.98486">
        <ele>1843.19</ele>
        <time>2018-09-09T12:38:09Z</time>
      </trkpt>
      <trkpt lat="45.44733" lon="6.98454">
        <ele>1843.03</ele>
        <time>2018-09-09T12:38:11Z</time>
      </trkpt>
      <trkpt lat="45.44744" lon="6.98423">
        <ele>1843.23</ele>
        <time>2018-09-09T12:38:13Z</time>
      </trkpt>
      <trkpt lat="45.44753" lon="6.98391">
        <ele>1842.33</ele>
        <time>2018-09-09T12:38:15Z</time>
      </trkpt>
      <trkpt lat="45.44762" lon="6.9836">
        <ele>1841.34</ele>
        <time>2018-09-09T12:38:17Z</time>
      </trkpt>
      <trkpt lat="45.44772" lon="6.9833">
        <ele>1841.04</ele>
        <time>2018-09-09T12:38:19Z</time>
      </trkpt>
      <trkpt lat="45.44781" lon="6.98301">
        <ele>1840.32</ele>
        <time>2018-09-09T12:38:21Z</time>
      </trkpt>
      <trkpt lat="45.4479" lon="6.98272">
        <ele>1840.25</ele>
        <time>2018-09-09T12:38:23Z</time>
      </trkpt>
      <trkpt lat="45.44799" lon="6.98248">
        <ele>1839.34</ele>
        <time>2018-09-09T12:38:25Z</time>
      </trkpt>
      <trkpt lat="45.44811" lon="6.9822">
        <ele>1836.65</ele>
        <time>2018-09-09T12:38:28Z</time>
      </trkpt>
      <trkpt lat="45.44819" lon="6.98193">
        <ele>1834.02</ele>
        <time>2018-09-09T12:39:28Z</time>
      </trkpt>
      <trkpt lat="45.44828" lon="6.98169">
        <ele>1832.13</ele>
        <time>2018-09-09T12:39:31Z</time>
      </trkpt>
      <trkpt lat="45.4484" lon="6.9814">
        <ele>1830.14</ele>
        <time>2018-09-09T12:39:34Z</time>
      </trkpt>
      <trkpt lat="45.44854" lon="6.98112">
        <ele>1829.32</ele>
        <time>2018-09-09T12:39:37Z</time>
      </trkpt>
      <trkpt lat="45.44867" lon="6.98084">
        <ele>1828.11</ele>
        <time>2018-09-09T12:39:40Z</time>
      </trkpt>
      <trkpt lat="45.4488" lon="6.98057">
        <ele>1828.02</ele>
        <time>2018-09-09T12:39:43Z</time>
      </trkpt>
      <trkpt lat="45.44892" lon="6.9803">
        <ele>1825.43</ele>
        <time>2018-09-09T12:39:46Z</time>
      </trkpt>
      <trkpt lat="45.44905" lon="6.98008">
        <ele>1824.12</ele>
        <time>2018-09-09T12:39:49Z</time>
      </trkpt>
      <trkpt lat="45.4491" lon="6.97977">
        <ele>1824.93</ele>
        <time>2018-09-09T12:39:52Z</time>
      </trkpt>
      <trkpt lat="45.44919" lon="6.97953">
        <ele>1823.4</ele>
        <time>2018-09-09T12:39:54Z</time>
      </trkpt>
      <trkpt lat="45.4493" lon="6.9793">
        <ele>1822.35</ele>
        <time>2018-09-09T12:39:56Z</time>
      </trkpt>
      <trkpt lat="45.44942" lon="6.97906">
        <ele>1822.05</ele>
        <time>2018-09-09T12:39:58Z</time>
      </trkpt>
      <trkpt lat="45.44955" lon="6.97881">
        <ele>1821.11</ele>
        <time>2018-09-09T12:40:00Z</time>
      </trkpt>
      <trkpt lat="45.44966" lon="6.97856">
        <ele>1821.02</ele>
        <time>2018-09-09T12:40:02Z</time>
      </trkpt>
      <trkpt lat="45.44976" lon="6.9783">
        <ele>1821.02</ele>
        <time>2018-09-09T12:40:04Z</time>
      </trkpt>
      <trkpt lat="45.44985" lon="6.97804">
        <ele>1821.02</ele>
        <time>2018-09-09T12:40:06Z</time>
      </trkpt>
      <trkpt lat="45.44996" lon="6.9778">
        <ele>1821.02</ele>
        <time>2018-09-09T12:40:08Z</time>
      </trkpt>
      <trkpt lat="45.45009" lon="6.97758">
        <ele>1820.1</ele>
        <time>2018-09-09T12:40:10Z</time>
      </trkpt>
      <trkpt lat="45.45025" lon="6.97739">
        <ele>1820.02</ele>
        <time>2018-09-09T12:40:12Z</time>
      </trkpt>
      <trkpt lat="45.4504" lon="6.97718">
        <ele>1819.32</ele>
        <time>2018-09-09T12:40:14Z</time>
      </trkpt>
      <trkpt lat="45.45055" lon="6.97692">
        <ele>1818.34</ele>
        <time>2018-09-09T12:40:16Z</time>
      </trkpt>
      <trkpt lat="45.45068" lon="6.97665">
        <ele>1818.04</ele>
        <time>2018-09-09T12:40:18Z</time>
      </trkpt>
      <trkpt lat="45.45082" lon="6.97635">
        <ele>1818.02</ele>
        <time>2018-09-09T12:40:20Z</time>
      </trkpt>
      <trkpt lat="45.45096" lon="6.97604">
        <ele>1818.02</ele>
        <time>2018-09-09T12:40:22Z</time>
      </trkpt>
      <trkpt lat="45.45111" lon="6.97573">
        <ele>1816.41</ele>
        <time>2018-09-09T12:40:24Z</time>
      </trkpt>
      <trkpt lat="45.45126" lon="6.97542">
        <ele>1815.35</ele>
        <time>2018-09-09T12:40:26Z</time>
      </trkpt>
      <trkpt lat="45.45144" lon="6.97511">
        <ele>1815.05</ele>
        <time>2018-09-09T12:40:28Z</time>
      </trkpt>
      <trkpt lat="45.45162" lon="6.97481">
        <ele>1814.11</ele>
        <time>2018-09-09T12:40:30Z</time>
      </trkpt>
      <trkpt lat="45.45182" lon="6.97454">
        <ele>1813.32</ele>
        <time>2018-09-09T12:40:32Z</time>
      </trkpt>
      <trkpt lat="45.45202" lon="6.97428">
        <ele>1813.04</ele>
        <time>2018-09-09T12:40:34Z</time>
      </trkpt>
      <trkpt lat="45.45224" lon="6.97405">
        <ele>1813.02</ele>
        <time>2018-09-09T12:40:36Z</time>
      </trkpt>
      <trkpt lat="45.45246" lon="6.97383">
        <ele>1813.02</ele>
        <time>2018-09-09T12:40:38Z</time>
      </trkpt>
      <trkpt lat="45.45266" lon="6.97361">
        <ele>1813.93</ele>
        <time>2018-09-09T12:40:40Z</time>
      </trkpt>
      <trkpt lat="45.45286" lon="6.97336">
        <ele>1813.31</ele>
        <time>2018-09-09T12:40:42Z</time>
      </trkpt>
      <trkpt lat="45.45306" lon="6.97309">
        <ele>1813.04</ele>
        <time>2018-09-09T12:40:44Z</time>
      </trkpt>
      <trkpt lat="45.45324" lon="6.9728">
        <ele>1812.11</ele>
        <time>2018-09-09T12:40:46Z</time>
      </trkpt>
      <trkpt lat="45.45343" lon="6.97251">
        <ele>1812.02</ele>
        <time>2018-09-09T12:40:48Z</time>
      </trkpt>
      <trkpt lat="45.4536" lon="6.97221">
        <ele>1810.41</ele>
        <time>2018-09-09T12:40:50Z</time>
      </trkpt>
      <trkpt lat="45.45377" lon="6.9719">
        <ele>1810.26</ele>
        <time>2018-09-09T12:40:52Z</time>
      </trkpt>
      <trkpt lat="45.45395" lon="6.97161">
        <ele>1807.52</ele>
        <time>2018-09-09T12:40:54Z</time>
      </trkpt>
      <trkpt lat="45.45414" lon="6.97131">
        <ele>1807.97</ele>
        <time>2018-09-09T12:40:56Z</time>
      </trkpt>
      <trkpt lat="45.45432" lon="6.971">
        <ele>1807.1</ele>
        <time>2018-09-09T12:40:58Z</time>
      </trkpt>
      <trkpt lat="45.45452" lon="6.97069">
        <ele>1805.41</ele>
        <time>2018-09-09T12:41:00Z</time>
      </trkpt>
      <trkpt lat="45.45472" lon="6.9704">
        <ele>1805.75</ele>
        <time>2018-09-09T12:41:02Z</time>
      </trkpt>
      <trkpt lat="45.4549" lon="6.97016">
        <ele>1805.99</ele>
        <time>2018-09-09T12:41:04Z</time>
      </trkpt>
      <trkpt lat="45.45508" lon="6.96997">
        <ele>1805.31</ele>
        <time>2018-09-09T12:41:06Z</time>
      </trkpt>
      <trkpt lat="45.45527" lon="6.96982">
        <ele>1804.13</ele>
        <time>2018-09-09T12:41:08Z</time>
      </trkpt>
      <trkpt lat="45.45546" lon="6.96966">
        <ele>1803.33</ele>
        <time>2018-09-09T12:41:10Z</time>
      </trkpt>
      <trkpt lat="45.45567" lon="6.96948">
        <ele>1803.95</ele>
        <time>2018-09-09T12:41:12Z</time>
      </trkpt>
      <trkpt lat="45.4559" lon="6.96931">
        <ele>1804.01</ele>
        <time>2018-09-09T12:41:14Z</time>
      </trkpt>
      <trkpt lat="45.45613" lon="6.96912">
        <ele>1804.01</ele>
        <time>2018-09-09T12:41:16Z</time>
      </trkpt>
      <trkpt lat="45.45638" lon="6.96893">
        <ele>1804.02</ele>
        <time>2018-09-09T12:41:18Z</time>
      </trkpt>
      <trkpt lat="45.45662" lon="6.96873">
        <ele>1804.02</ele>
        <time>2018-09-09T12:41:20Z</time>
      </trkpt>
      <trkpt lat="45.45686" lon="6.96852">
        <ele>1804.02</ele>
        <time>2018-09-09T12:41:22Z</time>
      </trkpt>
      <trkpt lat="45.4571" lon="6.96832">
        <ele>1804.02</ele>
        <time>2018-09-09T12:41:24Z</time>
      </trkpt>
      <trkpt lat="45.45735" lon="6.96813">
        <ele>1804.71</ele>
        <time>2018-09-09T12:41:26Z</time>
      </trkpt>
      <trkpt lat="45.45758" lon="6.96794">
        <ele>1804.99</ele>
        <time>2018-09-09T12:41:28Z</time>
      </trkpt>
      <trkpt lat="45.45782" lon="6.96774">
        <ele>1804.1</ele>
        <time>2018-09-09T12:41:30Z</time>
      </trkpt>
      <trkpt lat="45.45805" lon="6.96755">
        <ele>1804.02</ele>
        <time>2018-09-09T12:41:32Z</time>
      </trkpt>
      <trkpt lat="45.4583" lon="6.96735">
        <ele>1803.11</ele>
        <time>2018-09-09T12:41:34Z</time>
      </trkpt>
      <trkpt lat="45.45854" lon="6.96716">
        <ele>1803.23</ele>
        <time>2018-09-09T12:41:36Z</time>
      </trkpt>
      <trkpt lat="45.45878" lon="6.96696">
        <ele>1803.03</ele>
        <time>2018-09-09T12:41:38Z</time>
      </trkpt>
      <trkpt lat="45.45902" lon="6.96678">
        <ele>1802.32</ele>
        <time>2018-09-09T12:41:40Z</time>
      </trkpt>
      <trkpt lat="45.45925" lon="6.96661">
        <ele>1801.13</ele>
        <time>2018-09-09T12:41:42Z</time>
      </trkpt>
      <trkpt lat="45.45946" lon="6.96647">
        <ele>1800.12</ele>
        <time>2018-09-09T12:41:44Z</time>
      </trkpt>
      <trkpt lat="45.45965" lon="6.96637">
        <ele>1799.32</ele>
        <time>2018-09-09T12:41:46Z</time>
      </trkpt>
      <trkpt lat="45.45982" lon="6.9662">
        <ele>1798.34</ele>
        <time>2018-09-09T12:41:48Z</time>
      </trkpt>
      <trkpt lat="45.46" lon="6.96601">
        <ele>1798.95</ele>
        <time>2018-09-09T12:41:50Z</time>
      </trkpt>
      <trkpt lat="45.46021" lon="6.96584">
        <ele>1799.01</ele>
        <time>2018-09-09T12:41:52Z</time>
      </trkpt>
      <trkpt lat="45.46044" lon="6.96566">
        <ele>1798.31</ele>
        <time>2018-09-09T12:41:54Z</time>
      </trkpt>
      <trkpt lat="45.46068" lon="6.96549">
        <ele>1798.04</ele>
        <time>2018-09-09T12:41:56Z</time>
      </trkpt>
      <trkpt lat="45.46092" lon="6.96531">
        <ele>1798.02</ele>
        <time>2018-09-09T12:41:58Z</time>
      </trkpt>
      <trkpt lat="45.46116" lon="6.96513">
        <ele>1797.11</ele>
        <time>2018-09-09T12:42:00Z</time>
      </trkpt>
      <trkpt lat="45.46137" lon="6.96498">
        <ele>1796.32</ele>
        <time>2018-09-09T12:42:02Z</time>
      </trkpt>
      <trkpt lat="45.46157" lon="6.96483">
        <ele>1796.04</ele>
        <time>2018-09-09T12:42:04Z</time>
      </trkpt>
      <trkpt lat="45.46177" lon="6.96471">
        <ele>1796.02</ele>
        <time>2018-09-09T12:42:06Z</time>
      </trkpt>
      <trkpt lat="45.46198" lon="6.96464">
        <ele>1794.41</ele>
        <time>2018-09-09T12:42:08Z</time>
      </trkpt>
      <trkpt lat="45.4622" lon="6.96456">
        <ele>1794.96</ele>
        <time>2018-09-09T12:42:10Z</time>
      </trkpt>
      <trkpt lat="45.46242" lon="6.96445">
        <ele>1795.01</ele>
        <time>2018-09-09T12:42:12Z</time>
      </trkpt>
      <trkpt lat="45.46264" lon="6.96438">
        <ele>1795.01</ele>
        <time>2018-09-09T12:42:14Z</time>
      </trkpt>
      <trkpt lat="45.46285" lon="6.96428">
        <ele>1795.71</ele>
        <time>2018-09-09T12:42:16Z</time>
      </trkpt>
      <trkpt lat="45.46305" lon="6.9641">
        <ele>1795.99</ele>
        <time>2018-09-09T12:42:18Z</time>
      </trkpt>
      <trkpt lat="45.46322" lon="6.96389">
        <ele>1796.01</ele>
        <time>2018-09-09T12:42:20Z</time>
      </trkpt>
      <trkpt lat="45.46339" lon="6.96366">
        <ele>1796.92</ele>
        <time>2018-09-09T12:42:22Z</time>
      </trkpt>
      <trkpt lat="45.46357" lon="6.96341">
        <ele>1798.62</ele>
        <time>2018-09-09T12:42:24Z</time>
      </trkpt>
      <trkpt lat="45.46376" lon="6.96317">
        <ele>1799.89</ele>
        <time>2018-09-09T12:42:26Z</time>
      </trkpt>
      <trkpt lat="45.46396" lon="6.96297">
        <ele>1801.61</ele>
        <time>2018-09-09T12:42:28Z</time>
      </trkpt>
      <trkpt lat="45.46418" lon="6.96276">
        <ele>1802.68</ele>
        <time>2018-09-09T12:42:30Z</time>
      </trkpt>
      <trkpt lat="45.46445" lon="6.96254">
        <ele>1802.98</ele>
        <time>2018-09-09T12:42:32Z</time>
      </trkpt>
      <trkpt lat="45.46476" lon="6.96229">
        <ele>1804.62</ele>
        <time>2018-09-09T12:42:34Z</time>
      </trkpt>
      <trkpt lat="45.46492" lon="6.96216">
        <ele>1804.9</ele>
        <time>2018-09-09T12:42:35Z</time>
      </trkpt>
      <trkpt lat="45.46508" lon="6.96202">
        <ele>1805.68</ele>
        <time>2018-09-09T12:42:36Z</time>
      </trkpt>
      <trkpt lat="45.46524" lon="6.96188">
        <ele>1806.61</ele>
        <time>2018-09-09T12:42:37Z</time>
      </trkpt>
      <trkpt lat="45.46539" lon="6.96172">
        <ele>1806.89</ele>
        <time>2018-09-09T12:42:38Z</time>
      </trkpt>
      <trkpt lat="45.46554" lon="6.96154">
        <ele>1807.68</ele>
        <time>2018-09-09T12:42:39Z</time>
      </trkpt>
      <trkpt lat="45.46569" lon="6.96135">
        <ele>1808.61</ele>
        <time>2018-09-09T12:42:40Z</time>
      </trkpt>
      <trkpt lat="45.46585" lon="6.96115">
        <ele>1808.89</ele>
        <time>2018-09-09T12:42:41Z</time>
      </trkpt>
      <trkpt lat="45.46601" lon="6.96094">
        <ele>1809.68</ele>
        <time>2018-09-09T12:42:42Z</time>
      </trkpt>
      <trkpt lat="45.46617" lon="6.96072">
        <ele>1809.91</ele>
        <time>2018-09-09T12:42:43Z</time>
      </trkpt>
      <trkpt lat="45.46633" lon="6.96051">
        <ele>1810.68</ele>
        <time>2018-09-09T12:42:44Z</time>
      </trkpt>
      <trkpt lat="45.4665" lon="6.9603">
        <ele>1810.92</ele>
        <time>2018-09-09T12:42:45Z</time>
      </trkpt>
      <trkpt lat="45.46667" lon="6.96009">
        <ele>1810.99</ele>
        <time>2018-09-09T12:42:46Z</time>
      </trkpt>
      <trkpt lat="45.46683" lon="6.95992">
        <ele>1811.71</ele>
        <time>2018-09-09T12:42:47Z</time>
      </trkpt>
      <trkpt lat="45.467" lon="6.95978">
        <ele>1812.62</ele>
        <time>2018-09-09T12:42:48Z</time>
      </trkpt>
      <trkpt lat="45.46731" lon="6.95959">
        <ele>1812.28</ele>
        <time>2018-09-09T12:42:50Z</time>
      </trkpt>
      <trkpt lat="45.46758" lon="6.95958">
        <ele>1812.95</ele>
        <time>2018-09-09T12:42:52Z</time>
      </trkpt>
      <trkpt lat="45.46784" lon="6.95959">
        <ele>1813.01</ele>
        <time>2018-09-09T12:42:54Z</time>
      </trkpt>
      <trkpt lat="45.47218" lon="6.95346">
        <ele>1818.61</ele>
        <time>2018-09-09T12:43:48Z</time>
      </trkpt>
      <trkpt lat="45.47235" lon="6.95321">
        <ele>1814.85</ele>
        <time>2018-09-09T12:43:50Z</time>
      </trkpt>
      <trkpt lat="45.47252" lon="6.953">
        <ele>1812.48</ele>
        <time>2018-09-09T12:43:52Z</time>
      </trkpt>
      <trkpt lat="45.4727" lon="6.9528">
        <ele>1812.06</ele>
        <time>2018-09-09T12:43:54Z</time>
      </trkpt>
      <trkpt lat="45.47385" lon="6.94975">
        <ele>1811.33</ele>
        <time>2018-09-09T12:44:14Z</time>
      </trkpt>
      <trkpt lat="45.47387" lon="6.94948">
        <ele>1811.11</ele>
        <time>2018-09-09T12:44:15Z</time>
      </trkpt>
      <trkpt lat="45.47395" lon="6.94901">
        <ele>1812.42</ele>
        <time>2018-09-09T12:44:17Z</time>
      </trkpt>
      <trkpt lat="45.47409" lon="6.94864">
        <ele>1814.57</ele>
        <time>2018-09-09T12:44:19Z</time>
      </trkpt>
      <trkpt lat="45.47433" lon="6.9483">
        <ele>1812.67</ele>
        <time>2018-09-09T12:44:21Z</time>
      </trkpt>
      <trkpt lat="45.47459" lon="6.94818">
        <ele>1808.64</ele>
        <time>2018-09-09T12:44:23Z</time>
      </trkpt>
      <trkpt lat="45.47477" lon="6.94849">
        <ele>1803.3</ele>
        <time>2018-09-09T12:44:24Z</time>
      </trkpt>
      <trkpt lat="45.47495" lon="6.9487">
        <ele>1800.3</ele>
        <time>2018-09-09T12:44:25Z</time>
      </trkpt>
      <trkpt lat="45.47508" lon="6.9489">
        <ele>1800.1</ele>
        <time>2018-09-09T12:44:26Z</time>
      </trkpt>
      <trkpt lat="45.47538" lon="6.94909">
        <ele>1799.32</ele>
        <time>2018-09-09T12:44:28Z</time>
      </trkpt>
      <trkpt lat="45.4757" lon="6.94912">
        <ele>1798.34</ele>
        <time>2018-09-09T12:44:30Z</time>
      </trkpt>
      <trkpt lat="45.47603" lon="6.94912">
        <ele>1798.04</ele>
        <time>2018-09-09T12:44:32Z</time>
      </trkpt>
      <trkpt lat="45.47634" lon="6.94918">
        <ele>1798.02</ele>
        <time>2018-09-09T12:44:34Z</time>
      </trkpt>
      <trkpt lat="45.47659" lon="6.94937">
        <ele>1797.81</ele>
        <time>2018-09-09T12:44:36Z</time>
      </trkpt>
      <trkpt lat="45.47675" lon="6.94971">
        <ele>1798</ele>
        <time>2018-09-09T12:44:38Z</time>
      </trkpt>
      <trkpt lat="45.47689" lon="6.95009">
        <ele>1798.92</ele>
        <time>2018-09-09T12:44:40Z</time>
      </trkpt>
      <trkpt lat="45.47706" lon="6.95046">
        <ele>1799.92</ele>
        <time>2018-09-09T12:44:42Z</time>
      </trkpt>
      <trkpt lat="45.47728" lon="6.95076">
        <ele>1800.01</ele>
        <time>2018-09-09T12:44:44Z</time>
      </trkpt>
      <trkpt lat="45.47763" lon="6.95102">
        <ele>1799.31</ele>
        <time>2018-09-09T12:44:46Z</time>
      </trkpt>
      <trkpt lat="45.47781" lon="6.95076">
        <ele>1799.1</ele>
        <time>2018-09-09T12:44:47Z</time>
      </trkpt>
      <trkpt lat="45.47796" lon="6.9504">
        <ele>1799.74</ele>
        <time>2018-09-09T12:44:48Z</time>
      </trkpt>
      <trkpt lat="45.47821" lon="6.9499">
        <ele>1800.63</ele>
        <time>2018-09-09T12:44:49Z</time>
      </trkpt>
      <trkpt lat="45.47837" lon="6.94969">
        <ele>1801.6</ele>
        <time>2018-09-09T12:44:50Z</time>
      </trkpt>
      <trkpt lat="45.47854" lon="6.94953">
        <ele>1802.59</ele>
        <time>2018-09-09T12:44:51Z</time>
      </trkpt>
      <trkpt lat="45.4787" lon="6.94934">
        <ele>1801.49</ele>
        <time>2018-09-09T12:44:52Z</time>
      </trkpt>
      <trkpt lat="45.47885" lon="6.94915">
        <ele>1801.16</ele>
        <time>2018-09-09T12:44:53Z</time>
      </trkpt>
      <trkpt lat="45.47899" lon="6.94895">
        <ele>1802.46</ele>
        <time>2018-09-09T12:44:54Z</time>
      </trkpt>
      <trkpt lat="45.47914" lon="6.94874">
        <ele>1802.15</ele>
        <time>2018-09-09T12:44:55Z</time>
      </trkpt>
      <trkpt lat="45.47928" lon="6.94853">
        <ele>1802.05</ele>
        <time>2018-09-09T12:44:56Z</time>
      </trkpt>
      <trkpt lat="45.47942" lon="6.94832">
        <ele>1802.03</ele>
        <time>2018-09-09T12:44:57Z</time>
      </trkpt>
      <trkpt lat="45.47955" lon="6.9481">
        <ele>1802.72</ele>
        <time>2018-09-09T12:44:58Z</time>
      </trkpt>
      <trkpt lat="45.47967" lon="6.94787">
        <ele>1803.63</ele>
        <time>2018-09-09T12:44:59Z</time>
      </trkpt>
      <trkpt lat="45.47978" lon="6.94763">
        <ele>1804.6</ele>
        <time>2018-09-09T12:45:00Z</time>
      </trkpt>
      <trkpt lat="45.47988" lon="6.94739">
        <ele>1804.89</ele>
        <time>2018-09-09T12:45:01Z</time>
      </trkpt>
      <trkpt lat="45.47998" lon="6.94715">
        <ele>1806.38</ele>
        <time>2018-09-09T12:45:02Z</time>
      </trkpt>
      <trkpt lat="45.4801" lon="6.94693">
        <ele>1808.22</ele>
        <time>2018-09-09T12:45:03Z</time>
      </trkpt>
      <trkpt lat="45.48023" lon="6.94674">
        <ele>1808.78</ele>
        <time>2018-09-09T12:45:04Z</time>
      </trkpt>
      <trkpt lat="45.48037" lon="6.94658">
        <ele>1808.94</ele>
        <time>2018-09-09T12:45:05Z</time>
      </trkpt>
      <trkpt lat="45.48069" lon="6.94636">
        <ele>1809.71</ele>
        <time>2018-09-09T12:45:07Z</time>
      </trkpt>
      <trkpt lat="45.48103" lon="6.94618">
        <ele>1811.6</ele>
        <time>2018-09-09T12:45:09Z</time>
      </trkpt>
      <trkpt lat="45.48121" lon="6.94608">
        <ele>1812.59</ele>
        <time>2018-09-09T12:45:10Z</time>
      </trkpt>
      <trkpt lat="45.48139" lon="6.94599">
        <ele>1812.89</ele>
        <time>2018-09-09T12:45:11Z</time>
      </trkpt>
      <trkpt lat="45.48158" lon="6.9459">
        <ele>1812.98</ele>
        <time>2018-09-09T12:45:12Z</time>
      </trkpt>
      <trkpt lat="45.48176" lon="6.9458">
        <ele>1813.7</ele>
        <time>2018-09-09T12:45:13Z</time>
      </trkpt>
      <trkpt lat="45.48194" lon="6.94571">
        <ele>1813.22</ele>
        <time>2018-09-09T12:45:14Z</time>
      </trkpt>
      <trkpt lat="45.48227" lon="6.94556">
        <ele>1812.33</ele>
        <time>2018-09-09T12:45:16Z</time>
      </trkpt>
      <trkpt lat="45.48258" lon="6.94546">
        <ele>1812.04</ele>
        <time>2018-09-09T12:45:18Z</time>
      </trkpt>
      <trkpt lat="45.48288" lon="6.94536">
        <ele>1812.72</ele>
        <time>2018-09-09T12:45:20Z</time>
      </trkpt>
      <trkpt lat="45.48477" lon="6.94487">
        <ele>1813.63</ele>
        <time>2018-09-09T12:45:34Z</time>
      </trkpt>
      <trkpt lat="45.48499" lon="6.94471">
        <ele>1813.98</ele>
        <time>2018-09-09T12:45:36Z</time>
      </trkpt>
      <trkpt lat="45.48519" lon="6.94462">
        <ele>1812.61</ele>
        <time>2018-09-09T12:45:38Z</time>
      </trkpt>
      <trkpt lat="45.48544" lon="6.9445">
        <ele>1810.46</ele>
        <time>2018-09-09T12:45:40Z</time>
      </trkpt>
      <trkpt lat="45.48568" lon="6.94435">
        <ele>1809.14</ele>
        <time>2018-09-09T12:45:42Z</time>
      </trkpt>
      <trkpt lat="45.48593" lon="6.94417">
        <ele>1809.03</ele>
        <time>2018-09-09T12:45:44Z</time>
      </trkpt>
      <trkpt lat="45.48618" lon="6.944">
        <ele>1809.02</ele>
        <time>2018-09-09T12:45:46Z</time>
      </trkpt>
      <trkpt lat="45.49537" lon="6.93497">
        <ele>1809.02</ele>
        <time>2018-09-09T12:47:08Z</time>
      </trkpt>
      <trkpt lat="45.49547" lon="6.93459">
        <ele>1813.78</ele>
        <time>2018-09-09T12:47:10Z</time>
      </trkpt>
      <trkpt lat="45.49562" lon="6.93433">
        <ele>1812.17</ele>
        <time>2018-09-09T12:47:12Z</time>
      </trkpt>
      <trkpt lat="45.49583" lon="6.93415">
        <ele>1805.87</ele>
        <time>2018-09-09T12:47:14Z</time>
      </trkpt>
      <trkpt lat="45.49602" lon="6.93399">
        <ele>1806</ele>
        <time>2018-09-09T12:47:16Z</time>
      </trkpt>
      <trkpt lat="45.49625" lon="6.93386">
        <ele>1806.22</ele>
        <time>2018-09-09T12:47:18Z</time>
      </trkpt>
      <trkpt lat="45.4965" lon="6.93372">
        <ele>1805.33</ele>
        <time>2018-09-09T12:47:20Z</time>
      </trkpt>
      <trkpt lat="45.49673" lon="6.93356">
        <ele>1804.13</ele>
        <time>2018-09-09T12:47:22Z</time>
      </trkpt>
      <trkpt lat="45.49696" lon="6.93338">
        <ele>1803.33</ele>
        <time>2018-09-09T12:47:24Z</time>
      </trkpt>
      <trkpt lat="45.49721" lon="6.93317">
        <ele>1800.52</ele>
        <time>2018-09-09T12:47:26Z</time>
      </trkpt>
      <trkpt lat="45.49744" lon="6.93296">
        <ele>1798.45</ele>
        <time>2018-09-09T12:47:28Z</time>
      </trkpt>
      <trkpt lat="45.49769" lon="6.93274">
        <ele>1797.14</ele>
        <time>2018-09-09T12:47:30Z</time>
      </trkpt>
      <trkpt lat="45.49795" lon="6.93251">
        <ele>1795.42</ele>
        <time>2018-09-09T12:47:32Z</time>
      </trkpt>
      <trkpt lat="45.49823" lon="6.93228">
        <ele>1792.74</ele>
        <time>2018-09-09T12:47:34Z</time>
      </trkpt>
      <trkpt lat="45.49856" lon="6.93206">
        <ele>1789.56</ele>
        <time>2018-09-09T12:47:36Z</time>
      </trkpt>
      <trkpt lat="45.49873" lon="6.93196">
        <ele>1787.78</ele>
        <time>2018-09-09T12:47:37Z</time>
      </trkpt>
      <trkpt lat="45.49891" lon="6.93186">
        <ele>1786.54</ele>
        <time>2018-09-09T12:47:38Z</time>
      </trkpt>
      <trkpt lat="45.4991" lon="6.93176">
        <ele>1784.07</ele>
        <time>2018-09-09T12:47:39Z</time>
      </trkpt>
      <trkpt lat="45.49927" lon="6.93166">
        <ele>1781.93</ele>
        <time>2018-09-09T12:47:40Z</time>
      </trkpt>
      <trkpt lat="45.49945" lon="6.93155">
        <ele>1779.89</ele>
        <time>2018-09-09T12:47:41Z</time>
      </trkpt>
      <trkpt lat="45.49963" lon="6.93144">
        <ele>1778.58</ele>
        <time>2018-09-09T12:47:42Z</time>
      </trkpt>
      <trkpt lat="45.49981" lon="6.93133">
        <ele>1777.48</ele>
        <time>2018-09-09T12:47:43Z</time>
      </trkpt>
      <trkpt lat="45.49999" lon="6.9312">
        <ele>1775.76</ele>
        <time>2018-09-09T12:47:44Z</time>
      </trkpt>
      <trkpt lat="45.50017" lon="6.93107">
        <ele>1773.84</ele>
        <time>2018-09-09T12:47:45Z</time>
      </trkpt>
      <trkpt lat="45.50036" lon="6.93097">
        <ele>1771.86</ele>
        <time>2018-09-09T12:47:46Z</time>
      </trkpt>
      <trkpt lat="45.50055" lon="6.93089">
        <ele>1770.57</ele>
        <time>2018-09-09T12:47:47Z</time>
      </trkpt>
      <trkpt lat="45.50074" lon="6.93082">
        <ele>1768.78</ele>
        <time>2018-09-09T12:47:48Z</time>
      </trkpt>
      <trkpt lat="45.50095" lon="6.93075">
        <ele>1766.84</ele>
        <time>2018-09-09T12:47:49Z</time>
      </trkpt>
      <trkpt lat="45.50115" lon="6.93067">
        <ele>1764.86</ele>
        <time>2018-09-09T12:47:50Z</time>
      </trkpt>
      <trkpt lat="45.50135" lon="6.93057">
        <ele>1763.57</ele>
        <time>2018-09-09T12:47:51Z</time>
      </trkpt>
      <trkpt lat="45.50155" lon="6.93046">
        <ele>1761.78</ele>
        <time>2018-09-09T12:47:52Z</time>
      </trkpt>
      <trkpt lat="45.50174" lon="6.93035">
        <ele>1759.14</ele>
        <time>2018-09-09T12:47:53Z</time>
      </trkpt>
      <trkpt lat="45.50192" lon="6.93027">
        <ele>1757.65</ele>
        <time>2018-09-09T12:47:54Z</time>
      </trkpt>
      <trkpt lat="45.5021" lon="6.93022">
        <ele>1756.51</ele>
        <time>2018-09-09T12:47:55Z</time>
      </trkpt>
      <trkpt lat="45.50231" lon="6.93026">
        <ele>1754.06</ele>
        <time>2018-09-09T12:47:56Z</time>
      </trkpt>
      <trkpt lat="45.50252" lon="6.93028">
        <ele>1751.93</ele>
        <time>2018-09-09T12:47:57Z</time>
      </trkpt>
      <trkpt lat="45.50273" lon="6.93027">
        <ele>1750.59</ele>
        <time>2018-09-09T12:47:58Z</time>
      </trkpt>
      <trkpt lat="45.50294" lon="6.93023">
        <ele>1748.79</ele>
        <time>2018-09-09T12:47:59Z</time>
      </trkpt>
      <trkpt lat="45.50315" lon="6.93017">
        <ele>1747.55</ele>
        <time>2018-09-09T12:48:00Z</time>
      </trkpt>
      <trkpt lat="45.50337" lon="6.9301">
        <ele>1745.77</ele>
        <time>2018-09-09T12:48:01Z</time>
      </trkpt>
      <trkpt lat="45.50358" lon="6.93">
        <ele>1744.54</ele>
        <time>2018-09-09T12:48:02Z</time>
      </trkpt>
      <trkpt lat="45.5038" lon="6.92988">
        <ele>1742.07</ele>
        <time>2018-09-09T12:48:03Z</time>
      </trkpt>
      <trkpt lat="45.50401" lon="6.92973">
        <ele>1739.93</ele>
        <time>2018-09-09T12:48:04Z</time>
      </trkpt>
      <trkpt lat="45.50421" lon="6.92955">
        <ele>1738.59</ele>
        <time>2018-09-09T12:48:05Z</time>
      </trkpt>
      <trkpt lat="45.5044" lon="6.92938">
        <ele>1736.09</ele>
        <time>2018-09-09T12:48:06Z</time>
      </trkpt>
      <trkpt lat="45.50458" lon="6.9292">
        <ele>1733.94</ele>
        <time>2018-09-09T12:48:07Z</time>
      </trkpt>
      <trkpt lat="45.50475" lon="6.92902">
        <ele>1731.89</ele>
        <time>2018-09-09T12:48:08Z</time>
      </trkpt>
      <trkpt lat="45.50491" lon="6.92883">
        <ele>1729.88</ele>
        <time>2018-09-09T12:48:09Z</time>
      </trkpt>
      <trkpt lat="45.50505" lon="6.92861">
        <ele>1727.87</ele>
        <time>2018-09-09T12:48:10Z</time>
      </trkpt>
      <trkpt lat="45.50518" lon="6.9284">
        <ele>1726.57</ele>
        <time>2018-09-09T12:48:11Z</time>
      </trkpt>
      <trkpt lat="45.50532" lon="6.9282">
        <ele>1725.48</ele>
        <time>2018-09-09T12:48:12Z</time>
      </trkpt>
      <trkpt lat="45.50546" lon="6.92801">
        <ele>1725.16</ele>
        <time>2018-09-09T12:48:13Z</time>
      </trkpt>
      <trkpt lat="45.5056" lon="6.92781">
        <ele>1725.06</ele>
        <time>2018-09-09T12:48:14Z</time>
      </trkpt>
      <trkpt lat="45.507" lon="6.92615">
        <ele>1723.63</ele>
        <time>2018-09-09T12:48:23Z</time>
      </trkpt>
      <trkpt lat="45.50723" lon="6.92577">
        <ele>1721.46</ele>
        <time>2018-09-09T12:48:25Z</time>
      </trkpt>
      <trkpt lat="45.50734" lon="6.92556">
        <ele>1719.75</ele>
        <time>2018-09-09T12:48:26Z</time>
      </trkpt>
      <trkpt lat="45.50762" lon="6.92526">
        <ele>1714.32</ele>
        <time>2018-09-09T12:48:28Z</time>
      </trkpt>
      <trkpt lat="45.5078" lon="6.92517">
        <ele>1712.71</ele>
        <time>2018-09-09T12:48:29Z</time>
      </trkpt>
      <trkpt lat="45.508" lon="6.92509">
        <ele>1710.82</ele>
        <time>2018-09-09T12:48:30Z</time>
      </trkpt>
      <trkpt lat="45.50819" lon="6.925">
        <ele>1708.16</ele>
        <time>2018-09-09T12:48:31Z</time>
      </trkpt>
      <trkpt lat="45.50839" lon="6.9249">
        <ele>1705.96</ele>
        <time>2018-09-09T12:48:32Z</time>
      </trkpt>
      <trkpt lat="45.50859" lon="6.92481">
        <ele>1703.9</ele>
        <time>2018-09-09T12:48:33Z</time>
      </trkpt>
      <trkpt lat="45.50879" lon="6.92472">
        <ele>1701.18</ele>
        <time>2018-09-09T12:48:34Z</time>
      </trkpt>
      <trkpt lat="45.50897" lon="6.92464">
        <ele>1699.66</ele>
        <time>2018-09-09T12:48:35Z</time>
      </trkpt>
      <trkpt lat="45.50915" lon="6.92451">
        <ele>1698.51</ele>
        <time>2018-09-09T12:48:36Z</time>
      </trkpt>
      <trkpt lat="45.50932" lon="6.92438">
        <ele>1697.46</ele>
        <time>2018-09-09T12:48:37Z</time>
      </trkpt>
      <trkpt lat="45.50948" lon="6.92419">
        <ele>1694.35</ele>
        <time>2018-09-09T12:48:38Z</time>
      </trkpt>
      <trkpt lat="45.50964" lon="6.92401">
        <ele>1691.32</ele>
        <time>2018-09-09T12:48:39Z</time>
      </trkpt>
      <trkpt lat="45.50979" lon="6.92379">
        <ele>1689.01</ele>
        <time>2018-09-09T12:48:40Z</time>
      </trkpt>
      <trkpt lat="45.50992" lon="6.92355">
        <ele>1687.61</ele>
        <time>2018-09-09T12:48:41Z</time>
      </trkpt>
      <trkpt lat="45.51004" lon="6.9233">
        <ele>1686.49</ele>
        <time>2018-09-09T12:48:42Z</time>
      </trkpt>
      <trkpt lat="45.51014" lon="6.92302">
        <ele>1684.06</ele>
        <time>2018-09-09T12:48:43Z</time>
      </trkpt>
      <trkpt lat="45.51025" lon="6.92274">
        <ele>1681.93</ele>
        <time>2018-09-09T12:48:44Z</time>
      </trkpt>
      <trkpt lat="45.51035" lon="6.92247">
        <ele>1679.89</ele>
        <time>2018-09-09T12:48:45Z</time>
      </trkpt>
      <trkpt lat="45.51048" lon="6.92223">
        <ele>1676.48</ele>
        <time>2018-09-09T12:48:46Z</time>
      </trkpt>
      <trkpt lat="45.5106" lon="6.92199">
        <ele>1674.75</ele>
        <time>2018-09-09T12:48:47Z</time>
      </trkpt>
      <trkpt lat="45.51074" lon="6.92176">
        <ele>1672.84</ele>
        <time>2018-09-09T12:48:48Z</time>
      </trkpt>
      <trkpt lat="45.51088" lon="6.92155">
        <ele>1670.86</ele>
        <time>2018-09-09T12:48:49Z</time>
      </trkpt>
      <trkpt lat="45.51102" lon="6.92134">
        <ele>1668.17</ele>
        <time>2018-09-09T12:48:50Z</time>
      </trkpt>
      <trkpt lat="45.51117" lon="6.92113">
        <ele>1665.96</ele>
        <time>2018-09-09T12:48:51Z</time>
      </trkpt>
      <trkpt lat="45.51132" lon="6.92093">
        <ele>1663.9</ele>
        <time>2018-09-09T12:48:52Z</time>
      </trkpt>
      <trkpt lat="45.51146" lon="6.92073">
        <ele>1661.88</ele>
        <time>2018-09-09T12:48:53Z</time>
      </trkpt>
      <trkpt lat="45.51161" lon="6.92052">
        <ele>1659.87</ele>
        <time>2018-09-09T12:48:54Z</time>
      </trkpt>
      <trkpt lat="45.51177" lon="6.92032">
        <ele>1658.57</ele>
        <time>2018-09-09T12:48:55Z</time>
      </trkpt>
      <trkpt lat="45.51194" lon="6.92013">
        <ele>1656.08</ele>
        <time>2018-09-09T12:48:56Z</time>
      </trkpt>
      <trkpt lat="45.51212" lon="6.91993">
        <ele>1653.94</ele>
        <time>2018-09-09T12:48:57Z</time>
      </trkpt>
      <trkpt lat="45.51228" lon="6.91974">
        <ele>1651.89</ele>
        <time>2018-09-09T12:48:58Z</time>
      </trkpt>
      <trkpt lat="45.51244" lon="6.91954">
        <ele>1649.88</ele>
        <time>2018-09-09T12:48:59Z</time>
      </trkpt>
      <trkpt lat="45.5126" lon="6.91934">
        <ele>1647.87</ele>
        <time>2018-09-09T12:49:00Z</time>
      </trkpt>
      <trkpt lat="45.51274" lon="6.91913">
        <ele>1645.17</ele>
        <time>2018-09-09T12:49:01Z</time>
      </trkpt>
      <trkpt lat="45.51289" lon="6.91893">
        <ele>1642.96</ele>
        <time>2018-09-09T12:49:02Z</time>
      </trkpt>
      <trkpt lat="45.51303" lon="6.91874">
        <ele>1641.6</ele>
        <time>2018-09-09T12:49:03Z</time>
      </trkpt>
      <trkpt lat="45.51317" lon="6.91854">
        <ele>1639.79</ele>
        <time>2018-09-09T12:49:04Z</time>
      </trkpt>
      <trkpt lat="45.51331" lon="6.91833">
        <ele>1638.55</ele>
        <time>2018-09-09T12:49:05Z</time>
      </trkpt>
      <trkpt lat="45.51345" lon="6.91812">
        <ele>1636.77</ele>
        <time>2018-09-09T12:49:06Z</time>
      </trkpt>
      <trkpt lat="45.51359" lon="6.91792">
        <ele>1635.54</ele>
        <time>2018-09-09T12:49:07Z</time>
      </trkpt>
      <trkpt lat="45.51374" lon="6.91773">
        <ele>1633.77</ele>
        <time>2018-09-09T12:49:08Z</time>
      </trkpt>
      <trkpt lat="45.51389" lon="6.91754">
        <ele>1631.84</ele>
        <time>2018-09-09T12:49:09Z</time>
      </trkpt>
      <trkpt lat="45.51405" lon="6.91737">
        <ele>1630.56</ele>
        <time>2018-09-09T12:49:10Z</time>
      </trkpt>
      <trkpt lat="45.51423" lon="6.91722">
        <ele>1628.78</ele>
        <time>2018-09-09T12:49:11Z</time>
      </trkpt>
      <trkpt lat="45.51442" lon="6.9171">
        <ele>1626.84</ele>
        <time>2018-09-09T12:49:12Z</time>
      </trkpt>
      <trkpt lat="45.51461" lon="6.91699">
        <ele>1624.16</ele>
        <time>2018-09-09T12:49:13Z</time>
      </trkpt>
      <trkpt lat="45.5148" lon="6.91689">
        <ele>1621.96</ele>
        <time>2018-09-09T12:49:14Z</time>
      </trkpt>
      <trkpt lat="45.51499" lon="6.9168">
        <ele>1620.6</ele>
        <time>2018-09-09T12:49:15Z</time>
      </trkpt>
      <trkpt lat="45.51518" lon="6.91671">
        <ele>1618.79</ele>
        <time>2018-09-09T12:49:16Z</time>
      </trkpt>
      <trkpt lat="45.51538" lon="6.91664">
        <ele>1616.85</ele>
        <time>2018-09-09T12:49:17Z</time>
      </trkpt>
      <trkpt lat="45.51557" lon="6.91657">
        <ele>1615.56</ele>
        <time>2018-09-09T12:49:18Z</time>
      </trkpt>
      <trkpt lat="45.51576" lon="6.9165">
        <ele>1614.48</ele>
        <time>2018-09-09T12:49:19Z</time>
      </trkpt>
      <trkpt lat="45.51595" lon="6.91644">
        <ele>1612.75</ele>
        <time>2018-09-09T12:49:20Z</time>
      </trkpt>
      <trkpt lat="45.51615" lon="6.91639">
        <ele>1611.54</ele>
        <time>2018-09-09T12:49:21Z</time>
      </trkpt>
      <trkpt lat="45.51635" lon="6.91635">
        <ele>1609.77</ele>
        <time>2018-09-09T12:49:22Z</time>
      </trkpt>
      <trkpt lat="45.51654" lon="6.91634">
        <ele>1609.24</ele>
        <time>2018-09-09T12:49:23Z</time>
      </trkpt>
      <trkpt lat="45.51674" lon="6.91633">
        <ele>1607.68</ele>
        <time>2018-09-09T12:49:24Z</time>
      </trkpt>
      <trkpt lat="45.51694" lon="6.91631">
        <ele>1605.82</ele>
        <time>2018-09-09T12:49:25Z</time>
      </trkpt>
      <trkpt lat="45.51714" lon="6.91625">
        <ele>1603.86</ele>
        <time>2018-09-09T12:49:26Z</time>
      </trkpt>
      <trkpt lat="45.51732" lon="6.91616">
        <ele>1601.87</ele>
        <time>2018-09-09T12:49:27Z</time>
      </trkpt>
      <trkpt lat="45.5175" lon="6.91606">
        <ele>1601.27</ele>
        <time>2018-09-09T12:49:28Z</time>
      </trkpt>
      <trkpt lat="45.51767" lon="6.91591">
        <ele>1601.09</ele>
        <time>2018-09-09T12:49:29Z</time>
      </trkpt>
      <trkpt lat="45.5178" lon="6.91565">
        <ele>1599.64</ele>
        <time>2018-09-09T12:49:30Z</time>
      </trkpt>
      <trkpt lat="45.51797" lon="6.91546">
        <ele>1598.5</ele>
        <time>2018-09-09T12:49:31Z</time>
      </trkpt>
      <trkpt lat="45.51817" lon="6.91535">
        <ele>1595.36</ele>
        <time>2018-09-09T12:49:32Z</time>
      </trkpt>
      <trkpt lat="45.51838" lon="6.91526">
        <ele>1591.62</ele>
        <time>2018-09-09T12:49:33Z</time>
      </trkpt>
      <trkpt lat="45.51859" lon="6.91517">
        <ele>1589.1</ele>
        <time>2018-09-09T12:49:34Z</time>
      </trkpt>
      <trkpt lat="45.5188" lon="6.91508">
        <ele>1586.94</ele>
        <time>2018-09-09T12:49:35Z</time>
      </trkpt>
      <trkpt lat="45.519" lon="6.91496">
        <ele>1584.89</ele>
        <time>2018-09-09T12:49:36Z</time>
      </trkpt>
      <trkpt lat="45.51918" lon="6.91483">
        <ele>1583.58</ele>
        <time>2018-09-09T12:49:37Z</time>
      </trkpt>
      <trkpt lat="45.51937" lon="6.91469">
        <ele>1581.78</ele>
        <time>2018-09-09T12:49:38Z</time>
      </trkpt>
      <trkpt lat="45.51955" lon="6.91455">
        <ele>1580.55</ele>
        <time>2018-09-09T12:49:39Z</time>
      </trkpt>
      <trkpt lat="45.51972" lon="6.91441">
        <ele>1578.77</ele>
        <time>2018-09-09T12:49:40Z</time>
      </trkpt>
      <trkpt lat="45.51988" lon="6.91425">
        <ele>1576.84</ele>
        <time>2018-09-09T12:49:41Z</time>
      </trkpt>
      <trkpt lat="45.52001" lon="6.91405">
        <ele>1574.86</ele>
        <time>2018-09-09T12:49:42Z</time>
      </trkpt>
      <trkpt lat="45.52014" lon="6.91384">
        <ele>1573.57</ele>
        <time>2018-09-09T12:49:43Z</time>
      </trkpt>
      <trkpt lat="45.52026" lon="6.91364">
        <ele>1572.48</ele>
        <time>2018-09-09T12:49:44Z</time>
      </trkpt>
      <trkpt lat="45.52055" lon="6.91337">
        <ele>1569.54</ele>
        <time>2018-09-09T12:49:46Z</time>
      </trkpt>
      <trkpt lat="45.52085" lon="6.91335">
        <ele>1568.15</ele>
        <time>2018-09-09T12:49:48Z</time>
      </trkpt>
      <trkpt lat="45.52113" lon="6.91357">
        <ele>1568.03</ele>
        <time>2018-09-09T12:49:50Z</time>
      </trkpt>
      <trkpt lat="45.5214" lon="6.91385">
        <ele>1568.02</ele>
        <time>2018-09-09T12:49:52Z</time>
      </trkpt>
      <trkpt lat="45.52173" lon="6.91399">
        <ele>1567.11</ele>
        <time>2018-09-09T12:49:54Z</time>
      </trkpt>
      <trkpt lat="45.52191" lon="6.91401">
        <ele>1567.04</ele>
        <time>2018-09-09T12:49:55Z</time>
      </trkpt>
      <trkpt lat="45.5221" lon="6.91398">
        <ele>1567.02</ele>
        <time>2018-09-09T12:49:56Z</time>
      </trkpt>
      <trkpt lat="45.52231" lon="6.9138">
        <ele>1566.32</ele>
        <time>2018-09-09T12:49:57Z</time>
      </trkpt>
      <trkpt lat="45.52252" lon="6.91371">
        <ele>1564.71</ele>
        <time>2018-09-09T12:49:58Z</time>
      </trkpt>
      <trkpt lat="45.52274" lon="6.91365">
        <ele>1564.22</ele>
        <time>2018-09-09T12:49:59Z</time>
      </trkpt>
      <trkpt lat="45.52296" lon="6.91359">
        <ele>1563.38</ele>
        <time>2018-09-09T12:50:00Z</time>
      </trkpt>
      <trkpt lat="45.52319" lon="6.91347">
        <ele>1561.72</ele>
        <time>2018-09-09T12:50:01Z</time>
      </trkpt>
      <trkpt lat="45.52341" lon="6.91334">
        <ele>1561.23</ele>
        <time>2018-09-09T12:50:02Z</time>
      </trkpt>
      <trkpt lat="45.52362" lon="6.91313">
        <ele>1560.38</ele>
        <time>2018-09-09T12:50:03Z</time>
      </trkpt>
      <trkpt lat="45.52384" lon="6.91301">
        <ele>1559.42</ele>
        <time>2018-09-09T12:50:04Z</time>
      </trkpt>
      <trkpt lat="45.52407" lon="6.91289">
        <ele>1559.14</ele>
        <time>2018-09-09T12:50:05Z</time>
      </trkpt>
      <trkpt lat="45.52429" lon="6.91279">
        <ele>1559.05</ele>
        <time>2018-09-09T12:50:06Z</time>
      </trkpt>
      <trkpt lat="45.52452" lon="6.91271">
        <ele>1559.03</ele>
        <time>2018-09-09T12:50:07Z</time>
      </trkpt>
      <trkpt lat="45.52474" lon="6.91266">
        <ele>1559.02</ele>
        <time>2018-09-09T12:50:08Z</time>
      </trkpt>
      <trkpt lat="45.52497" lon="6.91264">
        <ele>1559.02</ele>
        <time>2018-09-09T12:50:09Z</time>
      </trkpt>
      <trkpt lat="45.52519" lon="6.91268">
        <ele>1557.62</ele>
        <time>2018-09-09T12:50:10Z</time>
      </trkpt>
      <trkpt lat="45.5254" lon="6.91268">
        <ele>1557.9</ele>
        <time>2018-09-09T12:50:11Z</time>
      </trkpt>
      <trkpt lat="45.52561" lon="6.91271">
        <ele>1556.58</ele>
        <time>2018-09-09T12:50:12Z</time>
      </trkpt>
      <trkpt lat="45.52582" lon="6.91274">
        <ele>1556.18</ele>
        <time>2018-09-09T12:50:13Z</time>
      </trkpt>
      <trkpt lat="45.52604" lon="6.91274">
        <ele>1556.07</ele>
        <time>2018-09-09T12:50:14Z</time>
      </trkpt>
      <trkpt lat="45.52625" lon="6.91275">
        <ele>1555.33</ele>
        <time>2018-09-09T12:50:15Z</time>
      </trkpt>
      <trkpt lat="45.52646" lon="6.9128">
        <ele>1554.41</ele>
        <time>2018-09-09T12:50:16Z</time>
      </trkpt>
      <trkpt lat="45.52666" lon="6.91289">
        <ele>1554.83</ele>
        <time>2018-09-09T12:50:17Z</time>
      </trkpt>
      <trkpt lat="45.52687" lon="6.91301">
        <ele>1553.56</ele>
        <time>2018-09-09T12:50:18Z</time>
      </trkpt>
      <trkpt lat="45.52707" lon="6.9131">
        <ele>1552.48</ele>
        <time>2018-09-09T12:50:19Z</time>
      </trkpt>
      <trkpt lat="45.52729" lon="6.91316">
        <ele>1552.15</ele>
        <time>2018-09-09T12:50:20Z</time>
      </trkpt>
      <trkpt lat="45.52751" lon="6.91323">
        <ele>1549.96</ele>
        <time>2018-09-09T12:50:21Z</time>
      </trkpt>
      <trkpt lat="45.52774" lon="6.91328">
        <ele>1548.6</ele>
        <time>2018-09-09T12:50:22Z</time>
      </trkpt>
      <trkpt lat="45.52796" lon="6.91334">
        <ele>1546.79</ele>
        <time>2018-09-09T12:50:23Z</time>
      </trkpt>
      <trkpt lat="45.52818" lon="6.91342">
        <ele>1544.15</ele>
        <time>2018-09-09T12:50:24Z</time>
      </trkpt>
      <trkpt lat="45.5284" lon="6.91351">
        <ele>1541.95</ele>
        <time>2018-09-09T12:50:25Z</time>
      </trkpt>
      <trkpt lat="45.52861" lon="6.91359">
        <ele>1539.9</ele>
        <time>2018-09-09T12:50:26Z</time>
      </trkpt>
      <trkpt lat="45.52883" lon="6.91363">
        <ele>1538.58</ele>
        <time>2018-09-09T12:50:27Z</time>
      </trkpt>
      <trkpt lat="45.52904" lon="6.91368">
        <ele>1536.08</ele>
        <time>2018-09-09T12:50:28Z</time>
      </trkpt>
      <trkpt lat="45.52923" lon="6.91376">
        <ele>1533.94</ele>
        <time>2018-09-09T12:50:29Z</time>
      </trkpt>
      <trkpt lat="45.52941" lon="6.9139">
        <ele>1531.89</ele>
        <time>2018-09-09T12:50:30Z</time>
      </trkpt>
      <trkpt lat="45.52958" lon="6.91406">
        <ele>1530.58</ele>
        <time>2018-09-09T12:50:31Z</time>
      </trkpt>
      <trkpt lat="45.52975" lon="6.91421">
        <ele>1529.48</ele>
        <time>2018-09-09T12:50:32Z</time>
      </trkpt>
      <trkpt lat="45.5299" lon="6.91441">
        <ele>1528.46</ele>
        <time>2018-09-09T12:50:33Z</time>
      </trkpt>
      <trkpt lat="45.53006" lon="6.91458">
        <ele>1526.75</ele>
        <time>2018-09-09T12:50:34Z</time>
      </trkpt>
      <trkpt lat="45.53024" lon="6.9147">
        <ele>1525.53</ele>
        <time>2018-09-09T12:50:35Z</time>
      </trkpt>
      <trkpt lat="45.53044" lon="6.91479">
        <ele>1523.77</ele>
        <time>2018-09-09T12:50:36Z</time>
      </trkpt>
      <trkpt lat="45.53063" lon="6.91487">
        <ele>1522.54</ele>
        <time>2018-09-09T12:50:37Z</time>
      </trkpt>
      <trkpt lat="45.53082" lon="6.91497">
        <ele>1521.47</ele>
        <time>2018-09-09T12:50:38Z</time>
      </trkpt>
      <trkpt lat="45.53099" lon="6.91509">
        <ele>1520.45</ele>
        <time>2018-09-09T12:50:39Z</time>
      </trkpt>
      <trkpt lat="45.53113" lon="6.91528">
        <ele>1518.75</ele>
        <time>2018-09-09T12:50:40Z</time>
      </trkpt>
      <trkpt lat="45.53135" lon="6.91565">
        <ele>1517.17</ele>
        <time>2018-09-09T12:50:42Z</time>
      </trkpt>
      <trkpt lat="45.53153" lon="6.91599">
        <ele>1516.12</ele>
        <time>2018-09-09T12:50:44Z</time>
      </trkpt>
      <trkpt lat="45.53285" lon="6.91545">
        <ele>1511.82</ele>
        <time>2018-09-09T12:50:55Z</time>
      </trkpt>
      <trkpt lat="45.53302" lon="6.9152">
        <ele>1509.86</ele>
        <time>2018-09-09T12:50:56Z</time>
      </trkpt>
      <trkpt lat="45.53321" lon="6.91509">
        <ele>1508.57</ele>
        <time>2018-09-09T12:50:57Z</time>
      </trkpt>
      <trkpt lat="45.53342" lon="6.91506">
        <ele>1506.78</ele>
        <time>2018-09-09T12:50:58Z</time>
      </trkpt>
      <trkpt lat="45.53361" lon="6.91504">
        <ele>1504.84</ele>
        <time>2018-09-09T12:50:59Z</time>
      </trkpt>
      <trkpt lat="45.53381" lon="6.91501">
        <ele>1503.56</ele>
        <time>2018-09-09T12:51:00Z</time>
      </trkpt>
      <trkpt lat="45.53401" lon="6.91496">
        <ele>1501.08</ele>
        <time>2018-09-09T12:51:01Z</time>
      </trkpt>
      <trkpt lat="45.5342" lon="6.91492">
        <ele>1500.33</ele>
        <time>2018-09-09T12:51:02Z</time>
      </trkpt>
      <trkpt lat="45.53439" lon="6.9148">
        <ele>1498.71</ele>
        <time>2018-09-09T12:51:03Z</time>
      </trkpt>
      <trkpt lat="45.53458" lon="6.9147">
        <ele>1497.52</ele>
        <time>2018-09-09T12:51:04Z</time>
      </trkpt>
      <trkpt lat="45.53477" lon="6.91464">
        <ele>1495.77</ele>
        <time>2018-09-09T12:51:05Z</time>
      </trkpt>
      <trkpt lat="45.53496" lon="6.91463">
        <ele>1494.54</ele>
        <time>2018-09-09T12:51:06Z</time>
      </trkpt>
      <trkpt lat="45.53514" lon="6.9146">
        <ele>1494.17</ele>
        <time>2018-09-09T12:51:07Z</time>
      </trkpt>
      <trkpt lat="45.53551" lon="6.91451">
        <ele>1494.03</ele>
        <time>2018-09-09T12:51:09Z</time>
      </trkpt>
      <trkpt lat="45.53581" lon="6.91435">
        <ele>1493.32</ele>
        <time>2018-09-09T12:51:11Z</time>
      </trkpt>
      <trkpt lat="45.53615" lon="6.91441">
        <ele>1491.22</ele>
        <time>2018-09-09T12:51:13Z</time>
      </trkpt>
      <trkpt lat="45.53647" lon="6.91441">
        <ele>1491.03</ele>
        <time>2018-09-09T12:51:15Z</time>
      </trkpt>
      <trkpt lat="45.53678" lon="6.91433">
        <ele>1491.02</ele>
        <time>2018-09-09T12:51:17Z</time>
      </trkpt>
      <trkpt lat="45.53685" lon="6.91403">
        <ele>1490.32</ele>
        <time>2018-09-09T12:51:18Z</time>
      </trkpt>
      <trkpt lat="45.53684" lon="6.91364">
        <ele>1490.11</ele>
        <time>2018-09-09T12:51:19Z</time>
      </trkpt>
      <trkpt lat="45.53686" lon="6.91334">
        <ele>1488.64</ele>
        <time>2018-09-09T12:51:20Z</time>
      </trkpt>
      <trkpt lat="45.53699" lon="6.91299">
        <ele>1484.64</ele>
        <time>2018-09-09T12:51:22Z</time>
      </trkpt>
      <trkpt lat="45.53724" lon="6.91268">
        <ele>1480.64</ele>
        <time>2018-09-09T12:51:24Z</time>
      </trkpt>
      <trkpt lat="45.5375" lon="6.91233">
        <ele>1475.94</ele>
        <time>2018-09-09T12:51:26Z</time>
      </trkpt>
      <trkpt lat="45.53764" lon="6.91216">
        <ele>1473.89</ele>
        <time>2018-09-09T12:51:27Z</time>
      </trkpt>
      <trkpt lat="45.53779" lon="6.91199">
        <ele>1472.58</ele>
        <time>2018-09-09T12:51:28Z</time>
      </trkpt>
      <trkpt lat="45.53795" lon="6.91184">
        <ele>1470.08</ele>
        <time>2018-09-09T12:51:29Z</time>
      </trkpt>
      <trkpt lat="45.53811" lon="6.91172">
        <ele>1468.64</ele>
        <time>2018-09-09T12:51:30Z</time>
      </trkpt>
      <trkpt lat="45.53829" lon="6.91162">
        <ele>1467.5</ele>
        <time>2018-09-09T12:51:31Z</time>
      </trkpt>
      <trkpt lat="45.53848" lon="6.91156">
        <ele>1466.46</ele>
        <time>2018-09-09T12:51:32Z</time>
      </trkpt>
      <trkpt lat="45.53867" lon="6.91153">
        <ele>1464.75</ele>
        <time>2018-09-09T12:51:33Z</time>
      </trkpt>
      <trkpt lat="45.53887" lon="6.91155">
        <ele>1463.54</ele>
        <time>2018-09-09T12:51:34Z</time>
      </trkpt>
      <trkpt lat="45.53907" lon="6.91154">
        <ele>1463.17</ele>
        <time>2018-09-09T12:51:35Z</time>
      </trkpt>
      <trkpt lat="45.53928" lon="6.91152">
        <ele>1463.06</ele>
        <time>2018-09-09T12:51:36Z</time>
      </trkpt>
      <trkpt lat="45.53947" lon="6.91136">
        <ele>1461.63</ele>
        <time>2018-09-09T12:51:37Z</time>
      </trkpt>
      <trkpt lat="45.53967" lon="6.91124">
        <ele>1459.8</ele>
        <time>2018-09-09T12:51:38Z</time>
      </trkpt>
      <trkpt lat="45.53986" lon="6.91112">
        <ele>1457.85</ele>
        <time>2018-09-09T12:51:39Z</time>
      </trkpt>
      <trkpt lat="45.54003" lon="6.911">
        <ele>1456.57</ele>
        <time>2018-09-09T12:51:40Z</time>
      </trkpt>
      <trkpt lat="45.54033" lon="6.91082">
        <ele>1455.15</ele>
        <time>2018-09-09T12:51:42Z</time>
      </trkpt>
      <trkpt lat="45.54062" lon="6.91086">
        <ele>1455.03</ele>
        <time>2018-09-09T12:51:44Z</time>
      </trkpt>
      <trkpt lat="45.54096" lon="6.91096">
        <ele>1455.93</ele>
        <time>2018-09-09T12:51:46Z</time>
      </trkpt>
      <trkpt lat="45.54114" lon="6.91092">
        <ele>1455.99</ele>
        <time>2018-09-09T12:51:47Z</time>
      </trkpt>
      <trkpt lat="45.54135" lon="6.91075">
        <ele>1455.31</ele>
        <time>2018-09-09T12:51:48Z</time>
      </trkpt>
      <trkpt lat="45.54154" lon="6.91065">
        <ele>1454.4</ele>
        <time>2018-09-09T12:51:49Z</time>
      </trkpt>
      <trkpt lat="45.54173" lon="6.91055">
        <ele>1453.43</ele>
        <time>2018-09-09T12:51:50Z</time>
      </trkpt>
      <trkpt lat="45.54191" lon="6.9104">
        <ele>1451.74</ele>
        <time>2018-09-09T12:51:51Z</time>
      </trkpt>
      <trkpt lat="45.54208" lon="6.91023">
        <ele>1450.53</ele>
        <time>2018-09-09T12:51:52Z</time>
      </trkpt>
      <trkpt lat="45.54224" lon="6.91003">
        <ele>1449.47</ele>
        <time>2018-09-09T12:51:53Z</time>
      </trkpt>
      <trkpt lat="45.54241" lon="6.90983">
        <ele>1447.75</ele>
        <time>2018-09-09T12:51:54Z</time>
      </trkpt>
      <trkpt lat="45.54258" lon="6.90965">
        <ele>1445.84</ele>
        <time>2018-09-09T12:51:55Z</time>
      </trkpt>
      <trkpt lat="45.54277" lon="6.9095">
        <ele>1444.56</ele>
        <time>2018-09-09T12:51:56Z</time>
      </trkpt>
      <trkpt lat="45.54296" lon="6.90936">
        <ele>1443.48</ele>
        <time>2018-09-09T12:51:57Z</time>
      </trkpt>
      <trkpt lat="45.54315" lon="6.90921">
        <ele>1442.45</ele>
        <time>2018-09-09T12:51:58Z</time>
      </trkpt>
      <trkpt lat="45.54333" lon="6.90907">
        <ele>1439.35</ele>
        <time>2018-09-09T12:51:59Z</time>
      </trkpt>
      <trkpt lat="45.5435" lon="6.90892">
        <ele>1437.01</ele>
        <time>2018-09-09T12:52:00Z</time>
      </trkpt>
      <trkpt lat="45.54369" lon="6.90881">
        <ele>1434.21</ele>
        <time>2018-09-09T12:52:01Z</time>
      </trkpt>
      <trkpt lat="45.54388" lon="6.90873">
        <ele>1431.97</ele>
        <time>2018-09-09T12:52:02Z</time>
      </trkpt>
      <trkpt lat="45.54409" lon="6.90865">
        <ele>1429.9</ele>
        <time>2018-09-09T12:52:03Z</time>
      </trkpt>
      <trkpt lat="45.54431" lon="6.90857">
        <ele>1428.58</ele>
        <time>2018-09-09T12:52:04Z</time>
      </trkpt>
      <trkpt lat="45.54452" lon="6.90846">
        <ele>1426.78</ele>
        <time>2018-09-09T12:52:05Z</time>
      </trkpt>
      <trkpt lat="45.54472" lon="6.90833">
        <ele>1425.55</ele>
        <time>2018-09-09T12:52:06Z</time>
      </trkpt>
      <trkpt lat="45.54491" lon="6.90818">
        <ele>1423.77</ele>
        <time>2018-09-09T12:52:07Z</time>
      </trkpt>
      <trkpt lat="45.5451" lon="6.90805">
        <ele>1422.54</ele>
        <time>2018-09-09T12:52:08Z</time>
      </trkpt>
      <trkpt lat="45.5453" lon="6.90795">
        <ele>1421.47</ele>
        <time>2018-09-09T12:52:09Z</time>
      </trkpt>
      <trkpt lat="45.54551" lon="6.90788">
        <ele>1420.45</ele>
        <time>2018-09-09T12:52:10Z</time>
      </trkpt>
      <trkpt lat="45.54572" lon="6.90783">
        <ele>1419.45</ele>
        <time>2018-09-09T12:52:11Z</time>
      </trkpt>
      <trkpt lat="45.54594" lon="6.90777">
        <ele>1418.44</ele>
        <time>2018-09-09T12:52:12Z</time>
      </trkpt>
      <trkpt lat="45.54615" lon="6.90767">
        <ele>1416.74</ele>
        <time>2018-09-09T12:52:13Z</time>
      </trkpt>
      <trkpt lat="45.54635" lon="6.90756">
        <ele>1416.23</ele>
        <time>2018-09-09T12:52:14Z</time>
      </trkpt>
      <trkpt lat="45.54655" lon="6.90748">
        <ele>1416.08</ele>
        <time>2018-09-09T12:52:15Z</time>
      </trkpt>
      <trkpt lat="45.54675" lon="6.90746">
        <ele>1415.33</ele>
        <time>2018-09-09T12:52:16Z</time>
      </trkpt>
      <trkpt lat="45.54696" lon="6.90744">
        <ele>1414.41</ele>
        <time>2018-09-09T12:52:17Z</time>
      </trkpt>
      <trkpt lat="45.54717" lon="6.90738">
        <ele>1413.43</ele>
        <time>2018-09-09T12:52:18Z</time>
      </trkpt>
      <trkpt lat="45.54738" lon="6.90719">
        <ele>1412.44</ele>
        <time>2018-09-09T12:52:19Z</time>
      </trkpt>
      <trkpt lat="45.54761" lon="6.90703">
        <ele>1410.74</ele>
        <time>2018-09-09T12:52:20Z</time>
      </trkpt>
      <trkpt lat="45.54783" lon="6.90687">
        <ele>1408.83</ele>
        <time>2018-09-09T12:52:21Z</time>
      </trkpt>
      <trkpt lat="45.54804" lon="6.90673">
        <ele>1407.56</ele>
        <time>2018-09-09T12:52:22Z</time>
      </trkpt>
      <trkpt lat="45.54825" lon="6.9066">
        <ele>1406.48</ele>
        <time>2018-09-09T12:52:23Z</time>
      </trkpt>
      <trkpt lat="45.54844" lon="6.90646">
        <ele>1404.75</ele>
        <time>2018-09-09T12:52:24Z</time>
      </trkpt>
      <trkpt lat="45.54863" lon="6.90629">
        <ele>1404.24</ele>
        <time>2018-09-09T12:52:25Z</time>
      </trkpt>
      <trkpt lat="45.54877" lon="6.90605">
        <ele>1403.38</ele>
        <time>2018-09-09T12:52:26Z</time>
      </trkpt>
      <trkpt lat="45.54891" lon="6.90579">
        <ele>1401.72</ele>
        <time>2018-09-09T12:52:27Z</time>
      </trkpt>
      <trkpt lat="45.54906" lon="6.90554">
        <ele>1400.53</ele>
        <time>2018-09-09T12:52:28Z</time>
      </trkpt>
      <trkpt lat="45.54922" lon="6.90528">
        <ele>1399.47</ele>
        <time>2018-09-09T12:52:29Z</time>
      </trkpt>
      <trkpt lat="45.54937" lon="6.90501">
        <ele>1397.75</ele>
        <time>2018-09-09T12:52:30Z</time>
      </trkpt>
      <trkpt lat="45.54952" lon="6.90473">
        <ele>1395.84</ele>
        <time>2018-09-09T12:52:31Z</time>
      </trkpt>
      <trkpt lat="45.54966" lon="6.90448">
        <ele>1394.56</ele>
        <time>2018-09-09T12:52:32Z</time>
      </trkpt>
      <trkpt lat="45.54981" lon="6.90424">
        <ele>1392.78</ele>
        <time>2018-09-09T12:52:33Z</time>
      </trkpt>
      <trkpt lat="45.54998" lon="6.90402">
        <ele>1390.84</ele>
        <time>2018-09-09T12:52:34Z</time>
      </trkpt>
      <trkpt lat="45.55016" lon="6.9038">
        <ele>1389.56</ele>
        <time>2018-09-09T12:52:35Z</time>
      </trkpt>
      <trkpt lat="45.55033" lon="6.90357">
        <ele>1387.78</ele>
        <time>2018-09-09T12:52:36Z</time>
      </trkpt>
      <trkpt lat="45.55049" lon="6.90335">
        <ele>1386.54</ele>
        <time>2018-09-09T12:52:37Z</time>
      </trkpt>
      <trkpt lat="45.55066" lon="6.90315">
        <ele>1385.47</ele>
        <time>2018-09-09T12:52:38Z</time>
      </trkpt>
      <trkpt lat="45.55084" lon="6.90297">
        <ele>1383.05</ele>
        <time>2018-09-09T12:52:39Z</time>
      </trkpt>
      <trkpt lat="45.55103" lon="6.9028">
        <ele>1381.63</ele>
        <time>2018-09-09T12:52:40Z</time>
      </trkpt>
      <trkpt lat="45.55124" lon="6.90264">
        <ele>1380.5</ele>
        <time>2018-09-09T12:52:41Z</time>
      </trkpt>
      <trkpt lat="45.55144" lon="6.90247">
        <ele>1379.46</ele>
        <time>2018-09-09T12:52:42Z</time>
      </trkpt>
      <trkpt lat="45.55165" lon="6.90231">
        <ele>1377.75</ele>
        <time>2018-09-09T12:52:43Z</time>
      </trkpt>
      <trkpt lat="45.55187" lon="6.90215">
        <ele>1376.54</ele>
        <time>2018-09-09T12:52:44Z</time>
      </trkpt>
      <trkpt lat="45.55208" lon="6.902">
        <ele>1375.47</ele>
        <time>2018-09-09T12:52:45Z</time>
      </trkpt>
      <trkpt lat="45.55228" lon="6.90185">
        <ele>1373.75</ele>
        <time>2018-09-09T12:52:46Z</time>
      </trkpt>
      <trkpt lat="45.55247" lon="6.90171">
        <ele>1372.54</ele>
        <time>2018-09-09T12:52:47Z</time>
      </trkpt>
      <trkpt lat="45.55266" lon="6.90158">
        <ele>1371.47</ele>
        <time>2018-09-09T12:52:48Z</time>
      </trkpt>
      <trkpt lat="45.55285" lon="6.90152">
        <ele>1370.45</ele>
        <time>2018-09-09T12:52:49Z</time>
      </trkpt>
      <trkpt lat="45.55304" lon="6.9015">
        <ele>1369.45</ele>
        <time>2018-09-09T12:52:50Z</time>
      </trkpt>
      <trkpt lat="45.55325" lon="6.90155">
        <ele>1368.44</ele>
        <time>2018-09-09T12:52:51Z</time>
      </trkpt>
      <trkpt lat="45.55346" lon="6.9016">
        <ele>1367.44</ele>
        <time>2018-09-09T12:52:52Z</time>
      </trkpt>
      <trkpt lat="45.55367" lon="6.9016">
        <ele>1366.44</ele>
        <time>2018-09-09T12:52:53Z</time>
      </trkpt>
      <trkpt lat="45.55389" lon="6.90161">
        <ele>1364.74</ele>
        <time>2018-09-09T12:52:54Z</time>
      </trkpt>
      <trkpt lat="45.5541" lon="6.90166">
        <ele>1363.53</ele>
        <time>2018-09-09T12:52:55Z</time>
      </trkpt>
      <trkpt lat="45.5543" lon="6.90168">
        <ele>1362.47</ele>
        <time>2018-09-09T12:52:56Z</time>
      </trkpt>
      <trkpt lat="45.5545" lon="6.90169">
        <ele>1362.15</ele>
        <time>2018-09-09T12:52:57Z</time>
      </trkpt>
      <trkpt lat="45.55473" lon="6.90166">
        <ele>1362.06</ele>
        <time>2018-09-09T12:52:58Z</time>
      </trkpt>
      <trkpt lat="45.55495" lon="6.90145">
        <ele>1361.33</ele>
        <time>2018-09-09T12:52:59Z</time>
      </trkpt>
      <trkpt lat="45.55517" lon="6.90133">
        <ele>1360.41</ele>
        <time>2018-09-09T12:53:00Z</time>
      </trkpt>
      <trkpt lat="45.5554" lon="6.90125">
        <ele>1358.73</ele>
        <time>2018-09-09T12:53:01Z</time>
      </trkpt>
      <trkpt lat="45.55563" lon="6.90116">
        <ele>1357.53</ele>
        <time>2018-09-09T12:53:02Z</time>
      </trkpt>
      <trkpt lat="45.55585" lon="6.90104">
        <ele>1356.47</ele>
        <time>2018-09-09T12:53:03Z</time>
      </trkpt>
      <trkpt lat="45.55607" lon="6.90091">
        <ele>1355.45</ele>
        <time>2018-09-09T12:53:04Z</time>
      </trkpt>
      <trkpt lat="45.55627" lon="6.90077">
        <ele>1355.85</ele>
        <time>2018-09-09T12:53:05Z</time>
      </trkpt>
      <trkpt lat="45.55638" lon="6.90041">
        <ele>1355.26</ele>
        <time>2018-09-09T12:53:06Z</time>
      </trkpt>
      <trkpt lat="45.55654" lon="6.90017">
        <ele>1352.99</ele>
        <time>2018-09-09T12:53:07Z</time>
      </trkpt>
      <trkpt lat="45.5567" lon="6.89994">
        <ele>1350.91</ele>
        <time>2018-09-09T12:53:08Z</time>
      </trkpt>
      <trkpt lat="45.55688" lon="6.89973">
        <ele>1349.58</ele>
        <time>2018-09-09T12:53:09Z</time>
      </trkpt>
      <trkpt lat="45.55705" lon="6.89953">
        <ele>1349.19</ele>
        <time>2018-09-09T12:53:10Z</time>
      </trkpt>
      <trkpt lat="45.5572" lon="6.89931">
        <ele>1349.07</ele>
        <time>2018-09-09T12:53:11Z</time>
      </trkpt>
      <trkpt lat="45.55735" lon="6.89908">
        <ele>1348.33</ele>
        <time>2018-09-09T12:53:12Z</time>
      </trkpt>
      <trkpt lat="45.55748" lon="6.89883">
        <ele>1347.41</ele>
        <time>2018-09-09T12:53:13Z</time>
      </trkpt>
      <trkpt lat="45.55763" lon="6.89864">
        <ele>1347.83</ele>
        <time>2018-09-09T12:53:14Z</time>
      </trkpt>
      <trkpt lat="45.55779" lon="6.89845">
        <ele>1347.96</ele>
        <time>2018-09-09T12:53:15Z</time>
      </trkpt>
      <trkpt lat="45.55793" lon="6.89827">
        <ele>1347.3</ele>
        <time>2018-09-09T12:53:16Z</time>
      </trkpt>
      <trkpt lat="45.55806" lon="6.89807">
        <ele>1347.1</ele>
        <time>2018-09-09T12:53:17Z</time>
      </trkpt>
      <trkpt lat="45.55823" lon="6.89765">
        <ele>1347.02</ele>
        <time>2018-09-09T12:53:19Z</time>
      </trkpt>
      <trkpt lat="45.55841" lon="6.89731">
        <ele>1347.02</ele>
        <time>2018-09-09T12:53:21Z</time>
      </trkpt>
      <trkpt lat="45.55859" lon="6.89725">
        <ele>1345.62</ele>
        <time>2018-09-09T12:53:22Z</time>
      </trkpt>
      <trkpt lat="45.55875" lon="6.89709">
        <ele>1343.8</ele>
        <time>2018-09-09T12:53:23Z</time>
      </trkpt>
      <trkpt lat="45.55892" lon="6.89695">
        <ele>1343.25</ele>
        <time>2018-09-09T12:53:24Z</time>
      </trkpt>
      <trkpt lat="45.55905" lon="6.89668">
        <ele>1343.09</ele>
        <time>2018-09-09T12:53:25Z</time>
      </trkpt>
      <trkpt lat="45.55918" lon="6.89645">
        <ele>1342.34</ele>
        <time>2018-09-09T12:53:26Z</time>
      </trkpt>
      <trkpt lat="45.55932" lon="6.89623">
        <ele>1342.11</ele>
        <time>2018-09-09T12:53:27Z</time>
      </trkpt>
      <trkpt lat="45.55938" lon="6.89598">
        <ele>1342.04</ele>
        <time>2018-09-09T12:53:28Z</time>
      </trkpt>
      <trkpt lat="45.55945" lon="6.89574">
        <ele>1341.32</ele>
        <time>2018-09-09T12:53:29Z</time>
      </trkpt>
      <trkpt lat="45.55959" lon="6.89534">
        <ele>1340.34</ele>
        <time>2018-09-09T12:53:31Z</time>
      </trkpt>
      <trkpt lat="45.5597" lon="6.89504">
        <ele>1339.34</ele>
        <time>2018-09-09T12:53:33Z</time>
      </trkpt>
      <trkpt lat="45.5599" lon="6.8948">
        <ele>1338.83</ele>
        <time>2018-09-09T12:53:35Z</time>
      </trkpt>
      <trkpt lat="45.56021" lon="6.89466">
        <ele>1338.79</ele>
        <time>2018-09-09T12:53:37Z</time>
      </trkpt>
      <trkpt lat="45.56059" lon="6.89461">
        <ele>1337.38</ele>
        <time>2018-09-09T12:53:39Z</time>
      </trkpt>
      <trkpt lat="45.5608" lon="6.89457">
        <ele>1337.13</ele>
        <time>2018-09-09T12:53:40Z</time>
      </trkpt>
      <trkpt lat="45.56104" lon="6.8945">
        <ele>1336.35</ele>
        <time>2018-09-09T12:53:41Z</time>
      </trkpt>
      <trkpt lat="45.56127" lon="6.89441">
        <ele>1336.11</ele>
        <time>2018-09-09T12:53:42Z</time>
      </trkpt>
      <trkpt lat="45.5615" lon="6.89427">
        <ele>1336.05</ele>
        <time>2018-09-09T12:53:43Z</time>
      </trkpt>
      <trkpt lat="45.56171" lon="6.89398">
        <ele>1336.02</ele>
        <time>2018-09-09T12:53:44Z</time>
      </trkpt>
      <trkpt lat="45.56192" lon="6.89377">
        <ele>1335.32</ele>
        <time>2018-09-09T12:53:45Z</time>
      </trkpt>
      <trkpt lat="45.56214" lon="6.89357">
        <ele>1335.11</ele>
        <time>2018-09-09T12:53:46Z</time>
      </trkpt>
      <trkpt lat="45.56235" lon="6.89337">
        <ele>1334.34</ele>
        <time>2018-09-09T12:53:47Z</time>
      </trkpt>
      <trkpt lat="45.56255" lon="6.89319">
        <ele>1334.11</ele>
        <time>2018-09-09T12:53:48Z</time>
      </trkpt>
      <trkpt lat="45.56274" lon="6.89302">
        <ele>1332.64</ele>
        <time>2018-09-09T12:53:49Z</time>
      </trkpt>
      <trkpt lat="45.56291" lon="6.89289">
        <ele>1331.5</ele>
        <time>2018-09-09T12:53:50Z</time>
      </trkpt>
      <trkpt lat="45.56324" lon="6.8927">
        <ele>1327.42</ele>
        <time>2018-09-09T12:53:52Z</time>
      </trkpt>
      <trkpt lat="45.56341" lon="6.89263">
        <ele>1327.14</ele>
        <time>2018-09-09T12:53:53Z</time>
      </trkpt>
      <trkpt lat="45.56362" lon="6.89263">
        <ele>1327.05</ele>
        <time>2018-09-09T12:53:54Z</time>
      </trkpt>
      <trkpt lat="45.56382" lon="6.89253">
        <ele>1326.33</ele>
        <time>2018-09-09T12:53:55Z</time>
      </trkpt>
      <trkpt lat="45.56402" lon="6.89243">
        <ele>1326.11</ele>
        <time>2018-09-09T12:53:56Z</time>
      </trkpt>
      <trkpt lat="45.56419" lon="6.8922">
        <ele>1323.94</ele>
        <time>2018-09-09T12:53:57Z</time>
      </trkpt>
      <trkpt lat="45.56437" lon="6.892">
        <ele>1321.89</ele>
        <time>2018-09-09T12:53:58Z</time>
      </trkpt>
      <trkpt lat="45.56455" lon="6.8918">
        <ele>1320.58</ele>
        <time>2018-09-09T12:53:59Z</time>
      </trkpt>
      <trkpt lat="45.56473" lon="6.89162">
        <ele>1318.08</ele>
        <time>2018-09-09T12:54:00Z</time>
      </trkpt>
      <trkpt lat="45.56492" lon="6.89145">
        <ele>1315.24</ele>
        <time>2018-09-09T12:54:01Z</time>
      </trkpt>
      <trkpt lat="45.5651" lon="6.89133">
        <ele>1312.98</ele>
        <time>2018-09-09T12:54:02Z</time>
      </trkpt>
      <trkpt lat="45.56529" lon="6.89121">
        <ele>1312.3</ele>
        <time>2018-09-09T12:54:03Z</time>
      </trkpt>
      <trkpt lat="45.5655" lon="6.8911">
        <ele>1310.7</ele>
        <time>2018-09-09T12:54:04Z</time>
      </trkpt>
      <trkpt lat="45.5657" lon="6.89098">
        <ele>1309.52</ele>
        <time>2018-09-09T12:54:05Z</time>
      </trkpt>
      <trkpt lat="45.56589" lon="6.89083">
        <ele>1307.77</ele>
        <time>2018-09-09T12:54:06Z</time>
      </trkpt>
      <trkpt lat="45.56607" lon="6.89065">
        <ele>1305.84</ele>
        <time>2018-09-09T12:54:07Z</time>
      </trkpt>
      <trkpt lat="45.56623" lon="6.89044">
        <ele>1303.86</ele>
        <time>2018-09-09T12:54:08Z</time>
      </trkpt>
      <trkpt lat="45.56639" lon="6.89024">
        <ele>1302.57</ele>
        <time>2018-09-09T12:54:09Z</time>
      </trkpt>
      <trkpt lat="45.56654" lon="6.89002">
        <ele>1300.78</ele>
        <time>2018-09-09T12:54:10Z</time>
      </trkpt>
      <trkpt lat="45.56668" lon="6.88981">
        <ele>1299.54</ele>
        <time>2018-09-09T12:54:11Z</time>
      </trkpt>
      <trkpt lat="45.56679" lon="6.88962">
        <ele>1298.47</ele>
        <time>2018-09-09T12:54:12Z</time>
      </trkpt>
      <trkpt lat="45.56703" lon="6.88932">
        <ele>1295.33</ele>
        <time>2018-09-09T12:54:14Z</time>
      </trkpt>
      <trkpt lat="45.56729" lon="6.8892">
        <ele>1294.34</ele>
        <time>2018-09-09T12:54:16Z</time>
      </trkpt>
      <trkpt lat="45.56765" lon="6.88928">
        <ele>1294.04</ele>
        <time>2018-09-09T12:54:18Z</time>
      </trkpt>
      <trkpt lat="45.56787" lon="6.88914">
        <ele>1293.32</ele>
        <time>2018-09-09T12:54:19Z</time>
      </trkpt>
      <trkpt lat="45.56809" lon="6.88904">
        <ele>1290.31</ele>
        <time>2018-09-09T12:54:20Z</time>
      </trkpt>
      <trkpt lat="45.56829" lon="6.88891">
        <ele>1287.3</ele>
        <time>2018-09-09T12:54:21Z</time>
      </trkpt>
      <trkpt lat="45.5685" lon="6.88881">
        <ele>1285</ele>
        <time>2018-09-09T12:54:22Z</time>
      </trkpt>
      <trkpt lat="45.56871" lon="6.88873">
        <ele>1282.91</ele>
        <time>2018-09-09T12:54:23Z</time>
      </trkpt>
      <trkpt lat="45.56892" lon="6.88866">
        <ele>1280.88</ele>
        <time>2018-09-09T12:54:24Z</time>
      </trkpt>
      <trkpt lat="45.56913" lon="6.88857">
        <ele>1278.88</ele>
        <time>2018-09-09T12:54:25Z</time>
      </trkpt>
      <trkpt lat="45.56932" lon="6.88843">
        <ele>1276.87</ele>
        <time>2018-09-09T12:54:26Z</time>
      </trkpt>
      <trkpt lat="45.56951" lon="6.88825">
        <ele>1273.47</ele>
        <time>2018-09-09T12:54:27Z</time>
      </trkpt>
      <trkpt lat="45.5697" lon="6.88809">
        <ele>1271.05</ele>
        <time>2018-09-09T12:54:28Z</time>
      </trkpt>
      <trkpt lat="45.56989" lon="6.88787">
        <ele>1268.93</ele>
        <time>2018-09-09T12:54:29Z</time>
      </trkpt>
      <trkpt lat="45.57006" lon="6.88765">
        <ele>1266.89</ele>
        <time>2018-09-09T12:54:30Z</time>
      </trkpt>
      <trkpt lat="45.57022" lon="6.88743">
        <ele>1264.18</ele>
        <time>2018-09-09T12:54:31Z</time>
      </trkpt>
      <trkpt lat="45.57037" lon="6.88725">
        <ele>1262.66</ele>
        <time>2018-09-09T12:54:32Z</time>
      </trkpt>
      <trkpt lat="45.57066" lon="6.88701">
        <ele>1259.06</ele>
        <time>2018-09-09T12:54:34Z</time>
      </trkpt>
      <trkpt lat="45.57095" lon="6.88683">
        <ele>1256.5</ele>
        <time>2018-09-09T12:54:36Z</time>
      </trkpt>
      <trkpt lat="45.57122" lon="6.88667">
        <ele>1254.45</ele>
        <time>2018-09-09T12:54:38Z</time>
      </trkpt>
      <trkpt lat="45.57147" lon="6.88654">
        <ele>1254.05</ele>
        <time>2018-09-09T12:54:40Z</time>
      </trkpt>
      <trkpt lat="45.57173" lon="6.88646">
        <ele>1253.11</ele>
        <time>2018-09-09T12:54:42Z</time>
      </trkpt>
      <trkpt lat="45.57198" lon="6.88639">
        <ele>1253.02</ele>
        <time>2018-09-09T12:54:44Z</time>
      </trkpt>
      <trkpt lat="45.57221" lon="6.88633">
        <ele>1252.81</ele>
        <time>2018-09-09T12:54:46Z</time>
      </trkpt>
      <trkpt lat="45.57242" lon="6.88629">
        <ele>1251.6</ele>
        <time>2018-09-09T12:54:48Z</time>
      </trkpt>
      <trkpt lat="45.57262" lon="6.88627">
        <ele>1249.46</ele>
        <time>2018-09-09T12:54:50Z</time>
      </trkpt>
      <trkpt lat="45.5728" lon="6.8862">
        <ele>1248.35</ele>
        <time>2018-09-09T12:54:52Z</time>
      </trkpt>
      <trkpt lat="45.57296" lon="6.88605">
        <ele>1246.44</ele>
        <time>2018-09-09T12:54:54Z</time>
      </trkpt>
      <trkpt lat="45.57309" lon="6.88583">
        <ele>1246.05</ele>
        <time>2018-09-09T12:54:56Z</time>
      </trkpt>
      <trkpt lat="45.57321" lon="6.88561">
        <ele>1243.5</ele>
        <time>2018-09-09T12:54:58Z</time>
      </trkpt>
      <trkpt lat="45.57336" lon="6.88541">
        <ele>1241.45</ele>
        <time>2018-09-09T12:55:00Z</time>
      </trkpt>
      <trkpt lat="45.57354" lon="6.88529">
        <ele>1239.44</ele>
        <time>2018-09-09T12:55:02Z</time>
      </trkpt>
      <trkpt lat="45.57373" lon="6.88518">
        <ele>1237.44</ele>
        <time>2018-09-09T12:55:04Z</time>
      </trkpt>
      <trkpt lat="45.5739" lon="6.88502">
        <ele>1235.44</ele>
        <time>2018-09-09T12:55:06Z</time>
      </trkpt>
      <trkpt lat="45.5741" lon="6.88482">
        <ele>1234.14</ele>
        <time>2018-09-09T12:55:08Z</time>
      </trkpt>
      <trkpt lat="45.57432" lon="6.88462">
        <ele>1231.72</ele>
        <time>2018-09-09T12:55:10Z</time>
      </trkpt>
      <trkpt lat="45.57455" lon="6.88442">
        <ele>1228.56</ele>
        <time>2018-09-09T12:55:12Z</time>
      </trkpt>
      <trkpt lat="45.57479" lon="6.88435">
        <ele>1224.84</ele>
        <time>2018-09-09T12:55:14Z</time>
      </trkpt>
      <trkpt lat="45.57507" lon="6.88439">
        <ele>1222.48</ele>
        <time>2018-09-09T12:55:16Z</time>
      </trkpt>
      <trkpt lat="45.57541" lon="6.88446">
        <ele>1218.84</ele>
        <time>2018-09-09T12:55:18Z</time>
      </trkpt>
      <trkpt lat="45.57559" lon="6.88448">
        <ele>1217.56</ele>
        <time>2018-09-09T12:55:19Z</time>
      </trkpt>
      <trkpt lat="45.57594" lon="6.88437">
        <ele>1214.26</ele>
        <time>2018-09-09T12:55:21Z</time>
      </trkpt>
      <trkpt lat="45.57626" lon="6.88416">
        <ele>1211.31</ele>
        <time>2018-09-09T12:55:23Z</time>
      </trkpt>
      <trkpt lat="45.57647" lon="6.8837">
        <ele>1208.94</ele>
        <time>2018-09-09T12:55:25Z</time>
      </trkpt>
      <trkpt lat="45.57659" lon="6.88351">
        <ele>1206.89</ele>
        <time>2018-09-09T12:55:26Z</time>
      </trkpt>
      <trkpt lat="45.57676" lon="6.88335">
        <ele>1204.88</ele>
        <time>2018-09-09T12:55:27Z</time>
      </trkpt>
      <trkpt lat="45.57694" lon="6.88321">
        <ele>1202.87</ele>
        <time>2018-09-09T12:55:28Z</time>
      </trkpt>
      <trkpt lat="45.57711" lon="6.88308">
        <ele>1201.57</ele>
        <time>2018-09-09T12:55:29Z</time>
      </trkpt>
      <trkpt lat="45.57728" lon="6.88299">
        <ele>1199.78</ele>
        <time>2018-09-09T12:55:30Z</time>
      </trkpt>
      <trkpt lat="45.57765" lon="6.88298">
        <ele>1195.37</ele>
        <time>2018-09-09T12:55:32Z</time>
      </trkpt>
      <trkpt lat="45.57783" lon="6.88298">
        <ele>1193.02</ele>
        <time>2018-09-09T12:55:33Z</time>
      </trkpt>
      <trkpt lat="45.57815" lon="6.88303">
        <ele>1189.59</ele>
        <time>2018-09-09T12:55:35Z</time>
      </trkpt>
      <trkpt lat="45.57843" lon="6.8833">
        <ele>1186.55</ele>
        <time>2018-09-09T12:55:37Z</time>
      </trkpt>
      <trkpt lat="45.57857" lon="6.88348">
        <ele>1184.77</ele>
        <time>2018-09-09T12:55:38Z</time>
      </trkpt>
      <trkpt lat="45.57872" lon="6.88367">
        <ele>1183.54</ele>
        <time>2018-09-09T12:55:39Z</time>
      </trkpt>
      <trkpt lat="45.57888" lon="6.88386">
        <ele>1181.07</ele>
        <time>2018-09-09T12:55:40Z</time>
      </trkpt>
      <trkpt lat="45.57904" lon="6.88405">
        <ele>1178.93</ele>
        <time>2018-09-09T12:55:41Z</time>
      </trkpt>
      <trkpt lat="45.57919" lon="6.88424">
        <ele>1176.89</ele>
        <time>2018-09-09T12:55:42Z</time>
      </trkpt>
      <trkpt lat="45.57933" lon="6.88444">
        <ele>1174.88</ele>
        <time>2018-09-09T12:55:43Z</time>
      </trkpt>
      <trkpt lat="45.57947" lon="6.88461">
        <ele>1172.87</ele>
        <time>2018-09-09T12:55:44Z</time>
      </trkpt>
      <trkpt lat="45.57974" lon="6.88485">
        <ele>1171.18</ele>
        <time>2018-09-09T12:55:46Z</time>
      </trkpt>
      <trkpt lat="45.57994" lon="6.88489">
        <ele>1169.21</ele>
        <time>2018-09-09T12:55:48Z</time>
      </trkpt>
      <trkpt lat="45.58011" lon="6.8847">
        <ele>1168.11</ele>
        <time>2018-09-09T12:55:51Z</time>
      </trkpt>
      <trkpt lat="45.57988" lon="6.88454">
        <ele>1167.81</ele>
        <time>2018-09-09T12:55:53Z</time>
      </trkpt>
      <trkpt lat="45.57968" lon="6.88444">
        <ele>1165.69</ele>
        <time>2018-09-09T12:55:55Z</time>
      </trkpt>
      <trkpt lat="45.57946" lon="6.88422">
        <ele>1163.47</ele>
        <time>2018-09-09T12:55:57Z</time>
      </trkpt>
      <trkpt lat="45.57923" lon="6.88389">
        <ele>1161.45</ele>
        <time>2018-09-09T12:55:59Z</time>
      </trkpt>
      <trkpt lat="45.57911" lon="6.88369">
        <ele>1160.44</ele>
        <time>2018-09-09T12:56:00Z</time>
      </trkpt>
      <trkpt lat="45.57898" lon="6.88349">
        <ele>1159.44</ele>
        <time>2018-09-09T12:56:01Z</time>
      </trkpt>
      <trkpt lat="45.57886" lon="6.8833">
        <ele>1158.44</ele>
        <time>2018-09-09T12:56:02Z</time>
      </trkpt>
      <trkpt lat="45.57864" lon="6.88292">
        <ele>1157.84</ele>
        <time>2018-09-09T12:56:04Z</time>
      </trkpt>
      <trkpt lat="45.57845" lon="6.88262">
        <ele>1157.09</ele>
        <time>2018-09-09T12:56:06Z</time>
      </trkpt>
      <trkpt lat="45.57843" lon="6.88232">
        <ele>1154.43</ele>
        <time>2018-09-09T12:56:09Z</time>
      </trkpt>
      <trkpt lat="45.57863" lon="6.88261">
        <ele>1153.38</ele>
        <time>2018-09-09T12:56:13Z</time>
      </trkpt>
      <trkpt lat="45.57876" lon="6.88293">
        <ele>1152.35</ele>
        <time>2018-09-09T12:56:15Z</time>
      </trkpt>
      <trkpt lat="45.57895" lon="6.88327">
        <ele>1150.43</ele>
        <time>2018-09-09T12:56:17Z</time>
      </trkpt>
      <trkpt lat="45.5792" lon="6.88357">
        <ele>1147.74</ele>
        <time>2018-09-09T12:56:19Z</time>
      </trkpt>
      <trkpt lat="45.57949" lon="6.88382">
        <ele>1145.47</ele>
        <time>2018-09-09T12:56:21Z</time>
      </trkpt>
      <trkpt lat="45.57979" lon="6.884">
        <ele>1144.15</ele>
        <time>2018-09-09T12:56:23Z</time>
      </trkpt>
      <trkpt lat="45.57999" lon="6.88391">
        <ele>1143.35</ele>
        <time>2018-09-09T12:56:24Z</time>
      </trkpt>
      <trkpt lat="45.58017" lon="6.88385">
        <ele>1142.42</ele>
        <time>2018-09-09T12:56:25Z</time>
      </trkpt>
      <trkpt lat="45.58036" lon="6.8838">
        <ele>1140.74</ele>
        <time>2018-09-09T12:56:26Z</time>
      </trkpt>
      <trkpt lat="45.58056" lon="6.8838">
        <ele>1140.23</ele>
        <time>2018-09-09T12:56:27Z</time>
      </trkpt>
      <trkpt lat="45.58077" lon="6.88382">
        <ele>1139.38</ele>
        <time>2018-09-09T12:56:28Z</time>
      </trkpt>
      <trkpt lat="45.58098" lon="6.88384">
        <ele>1137.72</ele>
        <time>2018-09-09T12:56:29Z</time>
      </trkpt>
      <trkpt lat="45.58119" lon="6.8839">
        <ele>1135.83</ele>
        <time>2018-09-09T12:56:30Z</time>
      </trkpt>
      <trkpt lat="45.58139" lon="6.88397">
        <ele>1133.16</ele>
        <time>2018-09-09T12:56:31Z</time>
      </trkpt>
      <trkpt lat="45.58159" lon="6.88405">
        <ele>1130.96</ele>
        <time>2018-09-09T12:56:32Z</time>
      </trkpt>
      <trkpt lat="45.5818" lon="6.88413">
        <ele>1128.9</ele>
        <time>2018-09-09T12:56:33Z</time>
      </trkpt>
      <trkpt lat="45.582" lon="6.88419">
        <ele>1126.88</ele>
        <time>2018-09-09T12:56:34Z</time>
      </trkpt>
      <trkpt lat="45.5822" lon="6.88422">
        <ele>1125.57</ele>
        <time>2018-09-09T12:56:35Z</time>
      </trkpt>
      <trkpt lat="45.58239" lon="6.88422">
        <ele>1123.78</ele>
        <time>2018-09-09T12:56:36Z</time>
      </trkpt>
      <trkpt lat="45.58258" lon="6.88422">
        <ele>1121.85</ele>
        <time>2018-09-09T12:56:37Z</time>
      </trkpt>
      <trkpt lat="45.58276" lon="6.88426">
        <ele>1120.56</ele>
        <time>2018-09-09T12:56:38Z</time>
      </trkpt>
      <trkpt lat="45.58294" lon="6.88434">
        <ele>1119.48</ele>
        <time>2018-09-09T12:56:39Z</time>
      </trkpt>
      <trkpt lat="45.58322" lon="6.88457">
        <ele>1117.66</ele>
        <time>2018-09-09T12:56:41Z</time>
      </trkpt>
      <trkpt lat="45.58354" lon="6.88478">
        <ele>1114.55</ele>
        <time>2018-09-09T12:56:43Z</time>
      </trkpt>
      <trkpt lat="45.58389" lon="6.88487">
        <ele>1111.75</ele>
        <time>2018-09-09T12:56:45Z</time>
      </trkpt>
      <trkpt lat="45.58411" lon="6.8849">
        <ele>1110.54</ele>
        <time>2018-09-09T12:56:46Z</time>
      </trkpt>
      <trkpt lat="45.58434" lon="6.88493">
        <ele>1109.47</ele>
        <time>2018-09-09T12:56:47Z</time>
      </trkpt>
      <trkpt lat="45.58456" lon="6.88495">
        <ele>1107.05</ele>
        <time>2018-09-09T12:56:48Z</time>
      </trkpt>
      <trkpt lat="45.58477" lon="6.885">
        <ele>1104.93</ele>
        <time>2018-09-09T12:56:49Z</time>
      </trkpt>
      <trkpt lat="45.58496" lon="6.88507">
        <ele>1103.59</ele>
        <time>2018-09-09T12:56:50Z</time>
      </trkpt>
      <trkpt lat="45.58526" lon="6.88512">
        <ele>1101.25</ele>
        <time>2018-09-09T12:56:52Z</time>
      </trkpt>
      <trkpt lat="45.58545" lon="6.88498">
        <ele>1099.22</ele>
        <time>2018-09-09T12:56:54Z</time>
      </trkpt>
      <trkpt lat="45.58564" lon="6.88482">
        <ele>1096.72</ele>
        <time>2018-09-09T12:56:56Z</time>
      </trkpt>
      <trkpt lat="45.58584" lon="6.88463">
        <ele>1093.77</ele>
        <time>2018-09-09T12:56:58Z</time>
      </trkpt>
      <trkpt lat="45.58605" lon="6.88445">
        <ele>1091.47</ele>
        <time>2018-09-09T12:57:00Z</time>
      </trkpt>
      <trkpt lat="45.58627" lon="6.88438">
        <ele>1090.15</ele>
        <time>2018-09-09T12:57:02Z</time>
      </trkpt>
      <trkpt lat="45.58648" lon="6.88442">
        <ele>1088.42</ele>
        <time>2018-09-09T12:57:04Z</time>
      </trkpt>
      <trkpt lat="45.5867" lon="6.88452">
        <ele>1085.74</ele>
        <time>2018-09-09T12:57:06Z</time>
      </trkpt>
      <trkpt lat="45.58694" lon="6.88463">
        <ele>1083.68</ele>
        <time>2018-09-09T12:57:08Z</time>
      </trkpt>
      <trkpt lat="45.58718" lon="6.88474">
        <ele>1080.55</ele>
        <time>2018-09-09T12:57:10Z</time>
      </trkpt>
      <trkpt lat="45.58741" lon="6.88486">
        <ele>1078.45</ele>
        <time>2018-09-09T12:57:12Z</time>
      </trkpt>
      <trkpt lat="45.58765" lon="6.88497">
        <ele>1076.44</ele>
        <time>2018-09-09T12:57:14Z</time>
      </trkpt>
      <trkpt lat="45.58789" lon="6.88493">
        <ele>1075.14</ele>
        <time>2018-09-09T12:57:16Z</time>
      </trkpt>
      <trkpt lat="45.58811" lon="6.88475">
        <ele>1074.12</ele>
        <time>2018-09-09T12:57:18Z</time>
      </trkpt>
      <trkpt lat="45.58833" lon="6.88458">
        <ele>1071.71</ele>
        <time>2018-09-09T12:57:20Z</time>
      </trkpt>
      <trkpt lat="45.58852" lon="6.88436">
        <ele>1069.47</ele>
        <time>2018-09-09T12:57:22Z</time>
      </trkpt>
      <trkpt lat="45.58859" lon="6.88406">
        <ele>1066.75</ele>
        <time>2018-09-09T12:57:24Z</time>
      </trkpt>
      <trkpt lat="45.58866" lon="6.88375">
        <ele>1063.56</ele>
        <time>2018-09-09T12:57:26Z</time>
      </trkpt>
      <trkpt lat="45.58879" lon="6.8835">
        <ele>1062.36</ele>
        <time>2018-09-09T12:57:28Z</time>
      </trkpt>
      <trkpt lat="45.589" lon="6.88342">
        <ele>1060.44</ele>
        <time>2018-09-09T12:57:30Z</time>
      </trkpt>
      <trkpt lat="45.58923" lon="6.88341">
        <ele>1058.23</ele>
        <time>2018-09-09T12:57:32Z</time>
      </trkpt>
      <trkpt lat="45.58946" lon="6.88354">
        <ele>1056.42</ele>
        <time>2018-09-09T12:57:34Z</time>
      </trkpt>
      <trkpt lat="45.58965" lon="6.88378">
        <ele>1055.14</ele>
        <time>2018-09-09T12:57:36Z</time>
      </trkpt>
      <trkpt lat="45.58984" lon="6.88401">
        <ele>1052.51</ele>
        <time>2018-09-09T12:57:38Z</time>
      </trkpt>
      <trkpt lat="45.59006" lon="6.88415">
        <ele>1051.36</ele>
        <time>2018-09-09T12:57:40Z</time>
      </trkpt>
      <trkpt lat="45.59026" lon="6.88408">
        <ele>1049.44</ele>
        <time>2018-09-09T12:57:42Z</time>
      </trkpt>
      <trkpt lat="45.59038" lon="6.88384">
        <ele>1048.35</ele>
        <time>2018-09-09T12:57:44Z</time>
      </trkpt>
      <trkpt lat="45.59043" lon="6.8835">
        <ele>1048.05</ele>
        <time>2018-09-09T12:57:46Z</time>
      </trkpt>
      <trkpt lat="45.59053" lon="6.88318">
        <ele>1047.32</ele>
        <time>2018-09-09T12:57:48Z</time>
      </trkpt>
      <trkpt lat="45.59069" lon="6.88291">
        <ele>1044.73</ele>
        <time>2018-09-09T12:57:50Z</time>
      </trkpt>
      <trkpt lat="45.59095" lon="6.88275">
        <ele>1041.77</ele>
        <time>2018-09-09T12:57:52Z</time>
      </trkpt>
      <trkpt lat="45.59123" lon="6.88264">
        <ele>1039.68</ele>
        <time>2018-09-09T12:57:54Z</time>
      </trkpt>
      <trkpt lat="45.59156" lon="6.88256">
        <ele>1036.77</ele>
        <time>2018-09-09T12:57:56Z</time>
      </trkpt>
      <trkpt lat="45.59191" lon="6.88254">
        <ele>1033.77</ele>
        <time>2018-09-09T12:57:58Z</time>
      </trkpt>
      <trkpt lat="45.59209" lon="6.88253">
        <ele>1032.54</ele>
        <time>2018-09-09T12:57:59Z</time>
      </trkpt>
      <trkpt lat="45.59227" lon="6.88251">
        <ele>1030.77</ele>
        <time>2018-09-09T12:58:00Z</time>
      </trkpt>
      <trkpt lat="45.59247" lon="6.88253">
        <ele>1028.84</ele>
        <time>2018-09-09T12:58:01Z</time>
      </trkpt>
      <trkpt lat="45.59265" lon="6.88256">
        <ele>1027.56</ele>
        <time>2018-09-09T12:58:02Z</time>
      </trkpt>
      <trkpt lat="45.59299" lon="6.88254">
        <ele>1024.54</ele>
        <time>2018-09-09T12:58:04Z</time>
      </trkpt>
      <trkpt lat="45.5933" lon="6.88242">
        <ele>1021.54</ele>
        <time>2018-09-09T12:58:06Z</time>
      </trkpt>
      <trkpt lat="45.59361" lon="6.88236">
        <ele>1020.15</ele>
        <time>2018-09-09T12:58:08Z</time>
      </trkpt>
      <trkpt lat="45.59395" lon="6.88239">
        <ele>1018.21</ele>
        <time>2018-09-09T12:58:10Z</time>
      </trkpt>
      <trkpt lat="45.59431" lon="6.88242">
        <ele>1016.42</ele>
        <time>2018-09-09T12:58:12Z</time>
      </trkpt>
      <trkpt lat="45.5945" lon="6.88242">
        <ele>1014.74</ele>
        <time>2018-09-09T12:58:13Z</time>
      </trkpt>
      <trkpt lat="45.59468" lon="6.88243">
        <ele>1012.83</ele>
        <time>2018-09-09T12:58:14Z</time>
      </trkpt>
      <trkpt lat="45.59486" lon="6.88248">
        <ele>1011.56</ele>
        <time>2018-09-09T12:58:15Z</time>
      </trkpt>
      <trkpt lat="45.5952" lon="6.8826">
        <ele>1008.75</ele>
        <time>2018-09-09T12:58:17Z</time>
      </trkpt>
      <trkpt lat="45.59553" lon="6.88257">
        <ele>1006.47</ele>
        <time>2018-09-09T12:58:19Z</time>
      </trkpt>
      <trkpt lat="45.59582" lon="6.8826">
        <ele>1002.84</ele>
        <time>2018-09-09T12:58:21Z</time>
      </trkpt>
      <trkpt lat="45.59602" lon="6.88269">
        <ele>1002.09</ele>
        <time>2018-09-09T12:58:23Z</time>
      </trkpt>
      <trkpt lat="45.59626" lon="6.88266">
        <ele>1001.04</ele>
        <time>2018-09-09T12:58:26Z</time>
      </trkpt>
      <trkpt lat="45.59619" lon="6.88237">
        <ele>999.41</ele>
        <time>2018-09-09T12:58:28Z</time>
      </trkpt>
      <trkpt lat="45.59598" lon="6.88224">
        <ele>998.82</ele>
        <time>2018-09-09T12:58:31Z</time>
      </trkpt>
      <trkpt lat="45.59579" lon="6.8823">
        <ele>999.21</ele>
        <time>2018-09-09T12:58:33Z</time>
      </trkpt>
      <trkpt lat="45.59559" lon="6.88233">
        <ele>999.03</ele>
        <time>2018-09-09T12:58:35Z</time>
      </trkpt>
      <trkpt lat="45.59529" lon="6.88233">
        <ele>997.41</ele>
        <time>2018-09-09T12:58:37Z</time>
      </trkpt>
      <trkpt lat="45.59506" lon="6.88217">
        <ele>995.23</ele>
        <time>2018-09-09T12:58:39Z</time>
      </trkpt>
      <trkpt lat="45.59486" lon="6.88191">
        <ele>991.81</ele>
        <time>2018-09-09T12:58:41Z</time>
      </trkpt>
      <trkpt lat="45.59464" lon="6.88169">
        <ele>988.57</ele>
        <time>2018-09-09T12:58:43Z</time>
      </trkpt>
      <trkpt lat="45.59437" lon="6.88154">
        <ele>988.06</ele>
        <time>2018-09-09T12:58:45Z</time>
      </trkpt>
      <trkpt lat="45.59407" lon="6.88149">
        <ele>985.92</ele>
        <time>2018-09-09T12:58:47Z</time>
      </trkpt>
      <trkpt lat="45.59376" lon="6.88146">
        <ele>984.19</ele>
        <time>2018-09-09T12:58:49Z</time>
      </trkpt>
      <trkpt lat="45.59345" lon="6.88144">
        <ele>981.72</ele>
        <time>2018-09-09T12:58:51Z</time>
      </trkpt>
      <trkpt lat="45.59317" lon="6.88141">
        <ele>979.68</ele>
        <time>2018-09-09T12:58:53Z</time>
      </trkpt>
      <trkpt lat="45.59288" lon="6.88135">
        <ele>976.76</ele>
        <time>2018-09-09T12:58:55Z</time>
      </trkpt>
      <trkpt lat="45.59262" lon="6.88118">
        <ele>975.38</ele>
        <time>2018-09-09T12:58:57Z</time>
      </trkpt>
      <trkpt lat="45.59237" lon="6.88106">
        <ele>972.53</ele>
        <time>2018-09-09T12:58:59Z</time>
      </trkpt>
      <trkpt lat="45.59219" lon="6.88094">
        <ele>970.66</ele>
        <time>2018-09-09T12:59:01Z</time>
      </trkpt>
      <trkpt lat="45.59223" lon="6.88066">
        <ele>969.33</ele>
        <time>2018-09-09T12:59:04Z</time>
      </trkpt>
      <trkpt lat="45.59247" lon="6.88079">
        <ele>969.02</ele>
        <time>2018-09-09T12:59:07Z</time>
      </trkpt>
      <trkpt lat="45.59267" lon="6.881">
        <ele>968.11</ele>
        <time>2018-09-09T12:59:09Z</time>
      </trkpt>
      <trkpt lat="45.59297" lon="6.88112">
        <ele>967.32</ele>
        <time>2018-09-09T12:59:11Z</time>
      </trkpt>
      <trkpt lat="45.59316" lon="6.88112">
        <ele>966.41</ele>
        <time>2018-09-09T12:59:12Z</time>
      </trkpt>
      <trkpt lat="45.59353" lon="6.88108">
        <ele>964.44</ele>
        <time>2018-09-09T12:59:14Z</time>
      </trkpt>
      <trkpt lat="45.59371" lon="6.88098">
        <ele>962.04</ele>
        <time>2018-09-09T12:59:15Z</time>
      </trkpt>
      <trkpt lat="45.59388" lon="6.88087">
        <ele>959.92</ele>
        <time>2018-09-09T12:59:16Z</time>
      </trkpt>
      <trkpt lat="45.59421" lon="6.88072">
        <ele>957.49</ele>
        <time>2018-09-09T12:59:18Z</time>
      </trkpt>
      <trkpt lat="45.5944" lon="6.88075">
        <ele>955.06</ele>
        <time>2018-09-09T12:59:19Z</time>
      </trkpt>
      <trkpt lat="45.59458" lon="6.88078">
        <ele>954.33</ele>
        <time>2018-09-09T12:59:20Z</time>
      </trkpt>
      <trkpt lat="45.59476" lon="6.88082">
        <ele>953.41</ele>
        <time>2018-09-09T12:59:21Z</time>
      </trkpt>
      <trkpt lat="45.59509" lon="6.88098">
        <ele>950.53</ele>
        <time>2018-09-09T12:59:23Z</time>
      </trkpt>
      <trkpt lat="45.59535" lon="6.88122">
        <ele>948.45</ele>
        <time>2018-09-09T12:59:25Z</time>
      </trkpt>
      <trkpt lat="45.59563" lon="6.88126">
        <ele>947.14</ele>
        <time>2018-09-09T12:59:27Z</time>
      </trkpt>
      <trkpt lat="45.59593" lon="6.88092">
        <ele>944.72</ele>
        <time>2018-09-09T12:59:29Z</time>
      </trkpt>
      <trkpt lat="45.59609" lon="6.88077">
        <ele>942.83</ele>
        <time>2018-09-09T12:59:30Z</time>
      </trkpt>
      <trkpt lat="45.59626" lon="6.88062">
        <ele>941.56</ele>
        <time>2018-09-09T12:59:31Z</time>
      </trkpt>
      <trkpt lat="45.59643" lon="6.88046">
        <ele>939.78</ele>
        <time>2018-09-09T12:59:32Z</time>
      </trkpt>
      <trkpt lat="45.59659" lon="6.88029">
        <ele>938.54</ele>
        <time>2018-09-09T12:59:33Z</time>
      </trkpt>
      <trkpt lat="45.59675" lon="6.88013">
        <ele>936.77</ele>
        <time>2018-09-09T12:59:34Z</time>
      </trkpt>
      <trkpt lat="45.5969" lon="6.87997">
        <ele>934.84</ele>
        <time>2018-09-09T12:59:35Z</time>
      </trkpt>
      <trkpt lat="45.59704" lon="6.8798">
        <ele>932.86</ele>
        <time>2018-09-09T12:59:36Z</time>
      </trkpt>
      <trkpt lat="45.59718" lon="6.87962">
        <ele>930.87</ele>
        <time>2018-09-09T12:59:37Z</time>
      </trkpt>
      <trkpt lat="45.59736" lon="6.87924">
        <ele>927.78</ele>
        <time>2018-09-09T12:59:39Z</time>
      </trkpt>
      <trkpt lat="45.59741" lon="6.87875">
        <ele>922.95</ele>
        <time>2018-09-09T12:59:41Z</time>
      </trkpt>
      <trkpt lat="45.59744" lon="6.87846">
        <ele>921.6</ele>
        <time>2018-09-09T12:59:42Z</time>
      </trkpt>
      <trkpt lat="45.5975" lon="6.87815">
        <ele>918.39</ele>
        <time>2018-09-09T12:59:43Z</time>
      </trkpt>
      <trkpt lat="45.59755" lon="6.87784">
        <ele>917.43</ele>
        <time>2018-09-09T12:59:44Z</time>
      </trkpt>
      <trkpt lat="45.5976" lon="6.87756">
        <ele>915.04</ele>
        <time>2018-09-09T12:59:45Z</time>
      </trkpt>
      <trkpt lat="45.59764" lon="6.87728">
        <ele>912.92</ele>
        <time>2018-09-09T12:59:46Z</time>
      </trkpt>
      <trkpt lat="45.59772" lon="6.8768">
        <ele>911.4</ele>
        <time>2018-09-09T12:59:48Z</time>
      </trkpt>
      <trkpt lat="45.5978" lon="6.87634">
        <ele>908.74</ele>
        <time>2018-09-09T12:59:50Z</time>
      </trkpt>
      <trkpt lat="45.59785" lon="6.87609">
        <ele>907.53</ele>
        <time>2018-09-09T12:59:51Z</time>
      </trkpt>
      <trkpt lat="45.59792" lon="6.87579">
        <ele>906.47</ele>
        <time>2018-09-09T12:59:52Z</time>
      </trkpt>
      <trkpt lat="45.598" lon="6.87549">
        <ele>906.15</ele>
        <time>2018-09-09T12:59:53Z</time>
      </trkpt>
      <trkpt lat="45.59809" lon="6.87519">
        <ele>905.36</ele>
        <time>2018-09-09T12:59:54Z</time>
      </trkpt>
      <trkpt lat="45.59818" lon="6.87488">
        <ele>904.42</ele>
        <time>2018-09-09T12:59:55Z</time>
      </trkpt>
      <trkpt lat="45.59826" lon="6.87458">
        <ele>902.74</ele>
        <time>2018-09-09T12:59:56Z</time>
      </trkpt>
      <trkpt lat="45.59834" lon="6.87427">
        <ele>901.53</ele>
        <time>2018-09-09T12:59:57Z</time>
      </trkpt>
      <trkpt lat="45.59842" lon="6.87395">
        <ele>900.47</ele>
        <time>2018-09-09T12:59:58Z</time>
      </trkpt>
      <trkpt lat="45.5985" lon="6.87364">
        <ele>900.15</ele>
        <time>2018-09-09T12:59:59Z</time>
      </trkpt>
      <trkpt lat="45.59858" lon="6.87332">
        <ele>900.06</ele>
        <time>2018-09-09T13:00:00Z</time>
      </trkpt>
      <trkpt lat="45.59866" lon="6.873">
        <ele>900.03</ele>
        <time>2018-09-09T13:00:01Z</time>
      </trkpt>
      <trkpt lat="45.59874" lon="6.87269">
        <ele>900.02</ele>
        <time>2018-09-09T13:00:02Z</time>
      </trkpt>
      <trkpt lat="45.59883" lon="6.87238">
        <ele>899.32</ele>
        <time>2018-09-09T13:00:03Z</time>
      </trkpt>
      <trkpt lat="45.59891" lon="6.87207">
        <ele>898.41</ele>
        <time>2018-09-09T13:00:04Z</time>
      </trkpt>
      <trkpt lat="45.59899" lon="6.87176">
        <ele>897.43</ele>
        <time>2018-09-09T13:00:05Z</time>
      </trkpt>
      <trkpt lat="45.59907" lon="6.87144">
        <ele>896.44</ele>
        <time>2018-09-09T13:00:06Z</time>
      </trkpt>
      <trkpt lat="45.59916" lon="6.87113">
        <ele>896.14</ele>
        <time>2018-09-09T13:00:07Z</time>
      </trkpt>
      <trkpt lat="45.59925" lon="6.87083">
        <ele>896.05</ele>
        <time>2018-09-09T13:00:08Z</time>
      </trkpt>
      <trkpt lat="45.59934" lon="6.87053">
        <ele>896.03</ele>
        <time>2018-09-09T13:00:09Z</time>
      </trkpt>
      <trkpt lat="45.59943" lon="6.87022">
        <ele>895.32</ele>
        <time>2018-09-09T13:00:10Z</time>
      </trkpt>
      <trkpt lat="45.59952" lon="6.86991">
        <ele>895.11</ele>
        <time>2018-09-09T13:00:11Z</time>
      </trkpt>
      <trkpt lat="45.5996" lon="6.8696">
        <ele>894.34</ele>
        <time>2018-09-09T13:00:12Z</time>
      </trkpt>
      <trkpt lat="45.59967" lon="6.86928">
        <ele>893.41</ele>
        <time>2018-09-09T13:00:13Z</time>
      </trkpt>
      <trkpt lat="45.59974" lon="6.86897">
        <ele>893.13</ele>
        <time>2018-09-09T13:00:14Z</time>
      </trkpt>
      <trkpt lat="45.59982" lon="6.86866">
        <ele>893.05</ele>
        <time>2018-09-09T13:00:15Z</time>
      </trkpt>
      <trkpt lat="45.59992" lon="6.86835">
        <ele>893.03</ele>
        <time>2018-09-09T13:00:16Z</time>
      </trkpt>
      <trkpt lat="45.60007" lon="6.86809">
        <ele>892.32</ele>
        <time>2018-09-09T13:00:17Z</time>
      </trkpt>
      <trkpt lat="45.6002" lon="6.86782">
        <ele>892.11</ele>
        <time>2018-09-09T13:00:18Z</time>
      </trkpt>
      <trkpt lat="45.60036" lon="6.86757">
        <ele>892.04</ele>
        <time>2018-09-09T13:00:19Z</time>
      </trkpt>
      <trkpt lat="45.60053" lon="6.86737">
        <ele>892.72</ele>
        <time>2018-09-09T13:00:20Z</time>
      </trkpt>
      <trkpt lat="45.60073" lon="6.86718">
        <ele>892.93</ele>
        <time>2018-09-09T13:00:21Z</time>
      </trkpt>
      <trkpt lat="45.60092" lon="6.86698">
        <ele>892.29</ele>
        <time>2018-09-09T13:00:22Z</time>
      </trkpt>
      <trkpt lat="45.60112" lon="6.86679">
        <ele>892.1</ele>
        <time>2018-09-09T13:00:23Z</time>
      </trkpt>
      <trkpt lat="45.60132" lon="6.86659">
        <ele>891.34</ele>
        <time>2018-09-09T13:00:24Z</time>
      </trkpt>
      <trkpt lat="45.60151" lon="6.86639">
        <ele>891.11</ele>
        <time>2018-09-09T13:00:25Z</time>
      </trkpt>
      <trkpt lat="45.60169" lon="6.8662">
        <ele>891.74</ele>
        <time>2018-09-09T13:00:26Z</time>
      </trkpt>
      <trkpt lat="45.60187" lon="6.86602">
        <ele>891.93</ele>
        <time>2018-09-09T13:00:27Z</time>
      </trkpt>
      <trkpt lat="45.60206" lon="6.86584">
        <ele>891.99</ele>
        <time>2018-09-09T13:00:28Z</time>
      </trkpt>
      <trkpt lat="45.60225" lon="6.86566">
        <ele>891.31</ele>
        <time>2018-09-09T13:00:29Z</time>
      </trkpt>
      <trkpt lat="45.60242" lon="6.86546">
        <ele>890.4</ele>
        <time>2018-09-09T13:00:30Z</time>
      </trkpt>
      <trkpt lat="45.60258" lon="6.86523">
        <ele>889.43</ele>
        <time>2018-09-09T13:00:31Z</time>
      </trkpt>
      <trkpt lat="45.60271" lon="6.86498">
        <ele>889.14</ele>
        <time>2018-09-09T13:00:32Z</time>
      </trkpt>
      <trkpt lat="45.60281" lon="6.8647">
        <ele>889.05</ele>
        <time>2018-09-09T13:00:33Z</time>
      </trkpt>
      <trkpt lat="45.60289" lon="6.86442">
        <ele>888.33</ele>
        <time>2018-09-09T13:00:34Z</time>
      </trkpt>
      <trkpt lat="45.60296" lon="6.86416">
        <ele>888.11</ele>
        <time>2018-09-09T13:00:35Z</time>
      </trkpt>
      <trkpt lat="45.60301" lon="6.86391">
        <ele>888.04</ele>
        <time>2018-09-09T13:00:36Z</time>
      </trkpt>
      <trkpt lat="45.60308" lon="6.86343">
        <ele>887.32</ele>
        <time>2018-09-09T13:00:38Z</time>
      </trkpt>
      <trkpt lat="45.60317" lon="6.86301">
        <ele>887.04</ele>
        <time>2018-09-09T13:00:40Z</time>
      </trkpt>
      <trkpt lat="45.60326" lon="6.8626">
        <ele>886.11</ele>
        <time>2018-09-09T13:00:42Z</time>
      </trkpt>
      <trkpt lat="45.60334" lon="6.86217">
        <ele>886.02</ele>
        <time>2018-09-09T13:00:44Z</time>
      </trkpt>
      <trkpt lat="45.60341" lon="6.86175">
        <ele>886.93</ele>
        <time>2018-09-09T13:00:46Z</time>
      </trkpt>
      <trkpt lat="45.60348" lon="6.86136">
        <ele>887.01</ele>
        <time>2018-09-09T13:00:48Z</time>
      </trkpt>
      <trkpt lat="45.60353" lon="6.86096">
        <ele>887.92</ele>
        <time>2018-09-09T13:00:50Z</time>
      </trkpt>
      <trkpt lat="45.60356" lon="6.86056">
        <ele>888.01</ele>
        <time>2018-09-09T13:00:52Z</time>
      </trkpt>
      <trkpt lat="45.60355" lon="6.86012">
        <ele>888.01</ele>
        <time>2018-09-09T13:00:54Z</time>
      </trkpt>
      <trkpt lat="45.60354" lon="6.85967">
        <ele>887.1</ele>
        <time>2018-09-09T13:00:56Z</time>
      </trkpt>
      <trkpt lat="45.60356" lon="6.85921">
        <ele>887.02</ele>
        <time>2018-09-09T13:00:58Z</time>
      </trkpt>
      <trkpt lat="45.60365" lon="6.85876">
        <ele>887.02</ele>
        <time>2018-09-09T13:01:00Z</time>
      </trkpt>
      <trkpt lat="45.6038" lon="6.85831">
        <ele>887.72</ele>
        <time>2018-09-09T13:01:02Z</time>
      </trkpt>
      <trkpt lat="45.60396" lon="6.85788">
        <ele>888.69</ele>
        <time>2018-09-09T13:01:04Z</time>
      </trkpt>
      <trkpt lat="45.60413" lon="6.85746">
        <ele>888.99</ele>
        <time>2018-09-09T13:01:06Z</time>
      </trkpt>
      <trkpt lat="45.60434" lon="6.85706">
        <ele>888.31</ele>
        <time>2018-09-09T13:01:08Z</time>
      </trkpt>
      <trkpt lat="45.60447" lon="6.85684">
        <ele>888.1</ele>
        <time>2018-09-09T13:01:09Z</time>
      </trkpt>
      <trkpt lat="45.60461" lon="6.85662">
        <ele>888.04</ele>
        <time>2018-09-09T13:01:10Z</time>
      </trkpt>
      <trkpt lat="45.60476" lon="6.85638">
        <ele>887.32</ele>
        <time>2018-09-09T13:01:11Z</time>
      </trkpt>
      <trkpt lat="45.60492" lon="6.85614">
        <ele>887.11</ele>
        <time>2018-09-09T13:01:12Z</time>
      </trkpt>
      <trkpt lat="45.60508" lon="6.85589">
        <ele>887.04</ele>
        <time>2018-09-09T13:01:13Z</time>
      </trkpt>
      <trkpt lat="45.60524" lon="6.85564">
        <ele>886.32</ele>
        <time>2018-09-09T13:01:14Z</time>
      </trkpt>
      <trkpt lat="45.6054" lon="6.85539">
        <ele>886.11</ele>
        <time>2018-09-09T13:01:15Z</time>
      </trkpt>
      <trkpt lat="45.60554" lon="6.85513">
        <ele>885.34</ele>
        <time>2018-09-09T13:01:16Z</time>
      </trkpt>
      <trkpt lat="45.60566" lon="6.85485">
        <ele>885.11</ele>
        <time>2018-09-09T13:01:17Z</time>
      </trkpt>
      <trkpt lat="45.60575" lon="6.85455">
        <ele>885.04</ele>
        <time>2018-09-09T13:01:18Z</time>
      </trkpt>
      <trkpt lat="45.60581" lon="6.85423">
        <ele>885.72</ele>
        <time>2018-09-09T13:01:19Z</time>
      </trkpt>
      <trkpt lat="45.60587" lon="6.85391">
        <ele>885.93</ele>
        <time>2018-09-09T13:01:20Z</time>
      </trkpt>
      <trkpt lat="45.60591" lon="6.8536">
        <ele>885.99</ele>
        <time>2018-09-09T13:01:21Z</time>
      </trkpt>
      <trkpt lat="45.60594" lon="6.85328">
        <ele>884.61</ele>
        <time>2018-09-09T13:01:22Z</time>
      </trkpt>
      <trkpt lat="45.60595" lon="6.85298">
        <ele>883.49</ele>
        <time>2018-09-09T13:01:23Z</time>
      </trkpt>
      <trkpt lat="45.60597" lon="6.85266">
        <ele>883.16</ele>
        <time>2018-09-09T13:01:24Z</time>
      </trkpt>
      <trkpt lat="45.60597" lon="6.85236">
        <ele>883.06</ele>
        <time>2018-09-09T13:01:25Z</time>
      </trkpt>
      <trkpt lat="45.60598" lon="6.85205">
        <ele>883.03</ele>
        <time>2018-09-09T13:01:26Z</time>
      </trkpt>
      <trkpt lat="45.606" lon="6.85176">
        <ele>883.02</ele>
        <time>2018-09-09T13:01:27Z</time>
      </trkpt>
      <trkpt lat="45.60603" lon="6.85147">
        <ele>883.72</ele>
        <time>2018-09-09T13:01:28Z</time>
      </trkpt>
      <trkpt lat="45.6061" lon="6.85117">
        <ele>884.63</ele>
        <time>2018-09-09T13:01:29Z</time>
      </trkpt>
      <trkpt lat="45.60619" lon="6.85089">
        <ele>884.9</ele>
        <time>2018-09-09T13:01:30Z</time>
      </trkpt>
      <trkpt lat="45.6063" lon="6.85064">
        <ele>885.68</ele>
        <time>2018-09-09T13:01:31Z</time>
      </trkpt>
      <trkpt lat="45.60641" lon="6.85037">
        <ele>885.21</ele>
        <time>2018-09-09T13:01:32Z</time>
      </trkpt>
      <trkpt lat="45.60649" lon="6.8501">
        <ele>886.47</ele>
        <time>2018-09-09T13:01:33Z</time>
      </trkpt>
      <trkpt lat="45.60655" lon="6.84981">
        <ele>887.55</ele>
        <time>2018-09-09T13:01:34Z</time>
      </trkpt>
      <trkpt lat="45.60659" lon="6.84951">
        <ele>887.88</ele>
        <time>2018-09-09T13:01:35Z</time>
      </trkpt>
      <trkpt lat="45.60663" lon="6.8492">
        <ele>888.67</ele>
        <time>2018-09-09T13:01:36Z</time>
      </trkpt>
      <trkpt lat="45.60666" lon="6.8489">
        <ele>888.91</ele>
        <time>2018-09-09T13:01:37Z</time>
      </trkpt>
      <trkpt lat="45.60668" lon="6.84861">
        <ele>888.28</ele>
        <time>2018-09-09T13:01:38Z</time>
      </trkpt>
      <trkpt lat="45.60672" lon="6.84831">
        <ele>888.1</ele>
        <time>2018-09-09T13:01:39Z</time>
      </trkpt>
      <trkpt lat="45.6068" lon="6.84801">
        <ele>887.34</ele>
        <time>2018-09-09T13:01:40Z</time>
      </trkpt>
      <trkpt lat="45.60686" lon="6.84773">
        <ele>887.11</ele>
        <time>2018-09-09T13:01:41Z</time>
      </trkpt>
      <trkpt lat="45.60694" lon="6.84743">
        <ele>886.34</ele>
        <time>2018-09-09T13:01:42Z</time>
      </trkpt>
      <trkpt lat="45.60701" lon="6.84714">
        <ele>884.71</ele>
        <time>2018-09-09T13:01:43Z</time>
      </trkpt>
      <trkpt lat="45.60708" lon="6.84685">
        <ele>884.22</ele>
        <time>2018-09-09T13:01:44Z</time>
      </trkpt>
      <trkpt lat="45.60716" lon="6.84657">
        <ele>881.98</ele>
        <time>2018-09-09T13:01:45Z</time>
      </trkpt>
      <trkpt lat="45.60726" lon="6.84629">
        <ele>880.6</ele>
        <time>2018-09-09T13:01:46Z</time>
      </trkpt>
      <trkpt lat="45.60736" lon="6.84601">
        <ele>880.19</ele>
        <time>2018-09-09T13:01:47Z</time>
      </trkpt>
      <trkpt lat="45.60746" lon="6.84574">
        <ele>880.07</ele>
        <time>2018-09-09T13:01:48Z</time>
      </trkpt>
      <trkpt lat="45.60755" lon="6.84546">
        <ele>879.33</ele>
        <time>2018-09-09T13:01:49Z</time>
      </trkpt>
      <trkpt lat="45.60763" lon="6.84517">
        <ele>878.41</ele>
        <time>2018-09-09T13:01:50Z</time>
      </trkpt>
      <trkpt lat="45.60769" lon="6.84487">
        <ele>878.83</ele>
        <time>2018-09-09T13:01:51Z</time>
      </trkpt>
      <trkpt lat="45.60775" lon="6.84458">
        <ele>878.26</ele>
        <time>2018-09-09T13:01:52Z</time>
      </trkpt>
      <trkpt lat="45.6078" lon="6.84427">
        <ele>878.09</ele>
        <time>2018-09-09T13:01:53Z</time>
      </trkpt>
      <trkpt lat="45.60785" lon="6.84396">
        <ele>878.04</ele>
        <time>2018-09-09T13:01:54Z</time>
      </trkpt>
      <trkpt lat="45.6079" lon="6.84365">
        <ele>877.32</ele>
        <time>2018-09-09T13:01:55Z</time>
      </trkpt>
      <trkpt lat="45.60795" lon="6.84334">
        <ele>877.11</ele>
        <time>2018-09-09T13:01:56Z</time>
      </trkpt>
      <trkpt lat="45.608" lon="6.84304">
        <ele>876.34</ele>
        <time>2018-09-09T13:01:57Z</time>
      </trkpt>
      <trkpt lat="45.60803" lon="6.84274">
        <ele>876.11</ele>
        <time>2018-09-09T13:01:58Z</time>
      </trkpt>
      <trkpt lat="45.60804" lon="6.84245">
        <ele>874.64</ele>
        <time>2018-09-09T13:01:59Z</time>
      </trkpt>
      <trkpt lat="45.60806" lon="6.84217">
        <ele>873.5</ele>
        <time>2018-09-09T13:02:00Z</time>
      </trkpt>
      <trkpt lat="45.60812" lon="6.84189">
        <ele>873.16</ele>
        <time>2018-09-09T13:02:01Z</time>
      </trkpt>
      <trkpt lat="45.6082" lon="6.84162">
        <ele>872.36</ele>
        <time>2018-09-09T13:02:02Z</time>
      </trkpt>
      <trkpt lat="45.60828" lon="6.84134">
        <ele>871.42</ele>
        <time>2018-09-09T13:02:03Z</time>
      </trkpt>
      <trkpt lat="45.60835" lon="6.84106">
        <ele>871.14</ele>
        <time>2018-09-09T13:02:04Z</time>
      </trkpt>
      <trkpt lat="45.60842" lon="6.84076">
        <ele>870.35</ele>
        <time>2018-09-09T13:02:05Z</time>
      </trkpt>
      <trkpt lat="45.60848" lon="6.84047">
        <ele>869.42</ele>
        <time>2018-09-09T13:02:06Z</time>
      </trkpt>
      <trkpt lat="45.60854" lon="6.84016">
        <ele>869.14</ele>
        <time>2018-09-09T13:02:07Z</time>
      </trkpt>
      <trkpt lat="45.60862" lon="6.83986">
        <ele>869.05</ele>
        <time>2018-09-09T13:02:08Z</time>
      </trkpt>
      <trkpt lat="45.60871" lon="6.83956">
        <ele>867.63</ele>
        <time>2018-09-09T13:02:09Z</time>
      </trkpt>
      <trkpt lat="45.60881" lon="6.83928">
        <ele>867.2</ele>
        <time>2018-09-09T13:02:10Z</time>
      </trkpt>
      <trkpt lat="45.60894" lon="6.83902">
        <ele>866.37</ele>
        <time>2018-09-09T13:02:11Z</time>
      </trkpt>
      <trkpt lat="45.60908" lon="6.83878">
        <ele>865.42</ele>
        <time>2018-09-09T13:02:12Z</time>
      </trkpt>
      <trkpt lat="45.60921" lon="6.83852">
        <ele>865.14</ele>
        <time>2018-09-09T13:02:13Z</time>
      </trkpt>
      <trkpt lat="45.60934" lon="6.83826">
        <ele>865.05</ele>
        <time>2018-09-09T13:02:14Z</time>
      </trkpt>
      <trkpt lat="45.60944" lon="6.83797">
        <ele>864.33</ele>
        <time>2018-09-09T13:02:15Z</time>
      </trkpt>
      <trkpt lat="45.60955" lon="6.83769">
        <ele>862.71</ele>
        <time>2018-09-09T13:02:16Z</time>
      </trkpt>
      <trkpt lat="45.60966" lon="6.83741">
        <ele>862.22</ele>
        <time>2018-09-09T13:02:17Z</time>
      </trkpt>
      <trkpt lat="45.6098" lon="6.83717">
        <ele>862.08</ele>
        <time>2018-09-09T13:02:18Z</time>
      </trkpt>
      <trkpt lat="45.60995" lon="6.83693">
        <ele>862.03</ele>
        <time>2018-09-09T13:02:19Z</time>
      </trkpt>
      <trkpt lat="45.61011" lon="6.83671">
        <ele>862.02</ele>
        <time>2018-09-09T13:02:20Z</time>
      </trkpt>
      <trkpt lat="45.61028" lon="6.83649">
        <ele>862.72</ele>
        <time>2018-09-09T13:02:21Z</time>
      </trkpt>
      <trkpt lat="45.61045" lon="6.83626">
        <ele>862.93</ele>
        <time>2018-09-09T13:02:22Z</time>
      </trkpt>
      <trkpt lat="45.61061" lon="6.83602">
        <ele>862.29</ele>
        <time>2018-09-09T13:02:23Z</time>
      </trkpt>
      <trkpt lat="45.61077" lon="6.83576">
        <ele>861.4</ele>
        <time>2018-09-09T13:02:24Z</time>
      </trkpt>
      <trkpt lat="45.61088" lon="6.83548">
        <ele>861.83</ele>
        <time>2018-09-09T13:02:25Z</time>
      </trkpt>
      <trkpt lat="45.61098" lon="6.83516">
        <ele>861.96</ele>
        <time>2018-09-09T13:02:26Z</time>
      </trkpt>
      <trkpt lat="45.61108" lon="6.83485">
        <ele>862</ele>
        <time>2018-09-09T13:02:27Z</time>
      </trkpt>
      <trkpt lat="45.61117" lon="6.83452">
        <ele>862.01</ele>
        <time>2018-09-09T13:02:28Z</time>
      </trkpt>
      <trkpt lat="45.61127" lon="6.83421">
        <ele>861.31</ele>
        <time>2018-09-09T13:02:29Z</time>
      </trkpt>
      <trkpt lat="45.61138" lon="6.8339">
        <ele>860.4</ele>
        <time>2018-09-09T13:02:30Z</time>
      </trkpt>
      <trkpt lat="45.61148" lon="6.83358">
        <ele>860.13</ele>
        <time>2018-09-09T13:02:31Z</time>
      </trkpt>
      <trkpt lat="45.61158" lon="6.83326">
        <ele>859.35</ele>
        <time>2018-09-09T13:02:32Z</time>
      </trkpt>
      <trkpt lat="45.61167" lon="6.83294">
        <ele>859.12</ele>
        <time>2018-09-09T13:02:33Z</time>
      </trkpt>
      <trkpt lat="45.61177" lon="6.83263">
        <ele>858.35</ele>
        <time>2018-09-09T13:02:34Z</time>
      </trkpt>
      <trkpt lat="45.61187" lon="6.83231">
        <ele>858.11</ele>
        <time>2018-09-09T13:02:35Z</time>
      </trkpt>
      <trkpt lat="45.61197" lon="6.83199">
        <ele>858.04</ele>
        <time>2018-09-09T13:02:36Z</time>
      </trkpt>
      <trkpt lat="45.61207" lon="6.83167">
        <ele>857.32</ele>
        <time>2018-09-09T13:02:37Z</time>
      </trkpt>
      <trkpt lat="45.61216" lon="6.83136">
        <ele>857.11</ele>
        <time>2018-09-09T13:02:38Z</time>
      </trkpt>
      <trkpt lat="45.61226" lon="6.83105">
        <ele>856.34</ele>
        <time>2018-09-09T13:02:39Z</time>
      </trkpt>
      <trkpt lat="45.61235" lon="6.83074">
        <ele>856.11</ele>
        <time>2018-09-09T13:02:40Z</time>
      </trkpt>
      <trkpt lat="45.61244" lon="6.83043">
        <ele>856.04</ele>
        <time>2018-09-09T13:02:41Z</time>
      </trkpt>
      <trkpt lat="45.61253" lon="6.8301">
        <ele>855.32</ele>
        <time>2018-09-09T13:02:42Z</time>
      </trkpt>
      <trkpt lat="45.6126" lon="6.82978">
        <ele>854.41</ele>
        <time>2018-09-09T13:02:43Z</time>
      </trkpt>
      <trkpt lat="45.61267" lon="6.82948">
        <ele>853.43</ele>
        <time>2018-09-09T13:02:44Z</time>
      </trkpt>
      <trkpt lat="45.61275" lon="6.82917">
        <ele>853.14</ele>
        <time>2018-09-09T13:02:45Z</time>
      </trkpt>
      <trkpt lat="45.61282" lon="6.82887">
        <ele>853.05</ele>
        <time>2018-09-09T13:02:46Z</time>
      </trkpt>
      <trkpt lat="45.6129" lon="6.82858">
        <ele>853.03</ele>
        <time>2018-09-09T13:02:47Z</time>
      </trkpt>
      <trkpt lat="45.61296" lon="6.82831">
        <ele>853.02</ele>
        <time>2018-09-09T13:02:48Z</time>
      </trkpt>
      <trkpt lat="45.613" lon="6.82806">
        <ele>853.02</ele>
        <time>2018-09-09T13:02:49Z</time>
      </trkpt>
      <trkpt lat="45.61304" lon="6.82779">
        <ele>852.32</ele>
        <time>2018-09-09T13:02:50Z</time>
      </trkpt>
      <trkpt lat="45.61304" lon="6.82753">
        <ele>852.11</ele>
        <time>2018-09-09T13:02:51Z</time>
      </trkpt>
      <trkpt lat="45.61295" lon="6.82708">
        <ele>852.72</ele>
        <time>2018-09-09T13:02:53Z</time>
      </trkpt>
      <trkpt lat="45.61291" lon="6.82658">
        <ele>853.69</ele>
        <time>2018-09-09T13:02:55Z</time>
      </trkpt>
      <trkpt lat="45.61293" lon="6.82606">
        <ele>852.17</ele>
        <time>2018-09-09T13:02:57Z</time>
      </trkpt>
      <trkpt lat="45.61296" lon="6.8258">
        <ele>851.36</ele>
        <time>2018-09-09T13:02:58Z</time>
      </trkpt>
      <trkpt lat="45.61302" lon="6.82553">
        <ele>851.12</ele>
        <time>2018-09-09T13:02:59Z</time>
      </trkpt>
      <trkpt lat="45.61309" lon="6.82528">
        <ele>851.05</ele>
        <time>2018-09-09T13:03:00Z</time>
      </trkpt>
      <trkpt lat="45.61323" lon="6.82483">
        <ele>851.02</ele>
        <time>2018-09-09T13:03:02Z</time>
      </trkpt>
      <trkpt lat="45.61339" lon="6.8244">
        <ele>850.11</ele>
        <time>2018-09-09T13:03:04Z</time>
      </trkpt>
      <trkpt lat="45.6136" lon="6.82399">
        <ele>849.32</ele>
        <time>2018-09-09T13:03:06Z</time>
      </trkpt>
      <trkpt lat="45.61385" lon="6.82363">
        <ele>848.34</ele>
        <time>2018-09-09T13:03:08Z</time>
      </trkpt>
      <trkpt lat="45.61399" lon="6.82346">
        <ele>848.11</ele>
        <time>2018-09-09T13:03:09Z</time>
      </trkpt>
      <trkpt lat="45.61413" lon="6.82329">
        <ele>848.04</ele>
        <time>2018-09-09T13:03:10Z</time>
      </trkpt>
      <trkpt lat="45.61427" lon="6.8231">
        <ele>847.32</ele>
        <time>2018-09-09T13:03:11Z</time>
      </trkpt>
      <trkpt lat="45.61444" lon="6.82288">
        <ele>846.41</ele>
        <time>2018-09-09T13:03:12Z</time>
      </trkpt>
      <trkpt lat="45.61462" lon="6.82265">
        <ele>846.13</ele>
        <time>2018-09-09T13:03:13Z</time>
      </trkpt>
      <trkpt lat="45.6148" lon="6.82243">
        <ele>846.05</ele>
        <time>2018-09-09T13:03:14Z</time>
      </trkpt>
      <trkpt lat="45.61498" lon="6.82221">
        <ele>846.03</ele>
        <time>2018-09-09T13:03:15Z</time>
      </trkpt>
      <trkpt lat="45.61515" lon="6.82199">
        <ele>846.02</ele>
        <time>2018-09-09T13:03:16Z</time>
      </trkpt>
      <trkpt lat="45.6153" lon="6.82175">
        <ele>846.02</ele>
        <time>2018-09-09T13:03:17Z</time>
      </trkpt>
      <trkpt lat="45.61544" lon="6.8215">
        <ele>846.02</ele>
        <time>2018-09-09T13:03:18Z</time>
      </trkpt>
      <trkpt lat="45.61554" lon="6.82122">
        <ele>846.02</ele>
        <time>2018-09-09T13:03:19Z</time>
      </trkpt>
      <trkpt lat="45.61565" lon="6.82094">
        <ele>846.02</ele>
        <time>2018-09-09T13:03:20Z</time>
      </trkpt>
      <trkpt lat="45.61574" lon="6.82066">
        <ele>846.02</ele>
        <time>2018-09-09T13:03:21Z</time>
      </trkpt>
      <trkpt lat="45.61584" lon="6.82038">
        <ele>846.02</ele>
        <time>2018-09-09T13:03:22Z</time>
      </trkpt>
      <trkpt lat="45.61593" lon="6.8201">
        <ele>846.02</ele>
        <time>2018-09-09T13:03:23Z</time>
      </trkpt>
      <trkpt lat="45.61602" lon="6.81984">
        <ele>846.02</ele>
        <time>2018-09-09T13:03:24Z</time>
      </trkpt>
      <trkpt lat="45.61611" lon="6.81957">
        <ele>846.72</ele>
        <time>2018-09-09T13:03:25Z</time>
      </trkpt>
      <trkpt lat="45.61621" lon="6.81929">
        <ele>846.92</ele>
        <time>2018-09-09T13:03:26Z</time>
      </trkpt>
      <trkpt lat="45.6163" lon="6.81901">
        <ele>846.99</ele>
        <time>2018-09-09T13:03:27Z</time>
      </trkpt>
      <trkpt lat="45.61639" lon="6.81875">
        <ele>847.01</ele>
        <time>2018-09-09T13:03:28Z</time>
      </trkpt>
      <trkpt lat="45.61649" lon="6.81848">
        <ele>847.71</ele>
        <time>2018-09-09T13:03:29Z</time>
      </trkpt>
      <trkpt lat="45.61657" lon="6.81821">
        <ele>847.22</ele>
        <time>2018-09-09T13:03:30Z</time>
      </trkpt>
      <trkpt lat="45.61667" lon="6.81794">
        <ele>847.78</ele>
        <time>2018-09-09T13:03:31Z</time>
      </trkpt>
      <trkpt lat="45.61676" lon="6.81766">
        <ele>849.34</ele>
        <time>2018-09-09T13:03:32Z</time>
      </trkpt>
      <trkpt lat="45.61685" lon="6.81739">
        <ele>849.81</ele>
        <time>2018-09-09T13:03:33Z</time>
      </trkpt>
      <trkpt lat="45.61693" lon="6.81711">
        <ele>850.65</ele>
        <time>2018-09-09T13:03:34Z</time>
      </trkpt>
      <trkpt lat="45.617" lon="6.81682">
        <ele>851.61</ele>
        <time>2018-09-09T13:03:35Z</time>
      </trkpt>
      <trkpt lat="45.61706" lon="6.81652">
        <ele>852.59</ele>
        <time>2018-09-09T13:03:36Z</time>
      </trkpt>
      <trkpt lat="45.61709" lon="6.81622">
        <ele>853.59</ele>
        <time>2018-09-09T13:03:37Z</time>
      </trkpt>
      <trkpt lat="45.61711" lon="6.81593">
        <ele>855.99</ele>
        <time>2018-09-09T13:03:38Z</time>
      </trkpt>
      <trkpt lat="45.61712" lon="6.81563">
        <ele>856.71</ele>
        <time>2018-09-09T13:03:39Z</time>
      </trkpt>
      <trkpt lat="45.61714" lon="6.81533">
        <ele>858.32</ele>
        <time>2018-09-09T13:03:40Z</time>
      </trkpt>
      <trkpt lat="45.61716" lon="6.81505">
        <ele>859.51</ele>
        <time>2018-09-09T13:03:41Z</time>
      </trkpt>
      <trkpt lat="45.61719" lon="6.81476">
        <ele>860.56</ele>
        <time>2018-09-09T13:03:42Z</time>
      </trkpt>
      <trkpt lat="45.61721" lon="6.81447">
        <ele>861.58</ele>
        <time>2018-09-09T13:03:43Z</time>
      </trkpt>
      <trkpt lat="45.61723" lon="6.81418">
        <ele>862.58</ele>
        <time>2018-09-09T13:03:44Z</time>
      </trkpt>
      <trkpt lat="45.61725" lon="6.8139">
        <ele>863.59</ele>
        <time>2018-09-09T13:03:45Z</time>
      </trkpt>
      <trkpt lat="45.61727" lon="6.81361">
        <ele>864.59</ele>
        <time>2018-09-09T13:03:46Z</time>
      </trkpt>
      <trkpt lat="45.61729" lon="6.81331">
        <ele>864.89</ele>
        <time>2018-09-09T13:03:47Z</time>
      </trkpt>
      <trkpt lat="45.61731" lon="6.81302">
        <ele>864.98</ele>
        <time>2018-09-09T13:03:48Z</time>
      </trkpt>
      <trkpt lat="45.61733" lon="6.81272">
        <ele>865.7</ele>
        <time>2018-09-09T13:03:49Z</time>
      </trkpt>
      <trkpt lat="45.61736" lon="6.81242">
        <ele>866.62</ele>
        <time>2018-09-09T13:03:50Z</time>
      </trkpt>
      <trkpt lat="45.61738" lon="6.81213">
        <ele>866.9</ele>
        <time>2018-09-09T13:03:51Z</time>
      </trkpt>
      <trkpt lat="45.61742" lon="6.81183">
        <ele>867.68</ele>
        <time>2018-09-09T13:03:52Z</time>
      </trkpt>
      <trkpt lat="45.61746" lon="6.81153">
        <ele>868.61</ele>
        <time>2018-09-09T13:03:53Z</time>
      </trkpt>
      <trkpt lat="45.61751" lon="6.81123">
        <ele>869.59</ele>
        <time>2018-09-09T13:03:54Z</time>
      </trkpt>
      <trkpt lat="45.61755" lon="6.81094">
        <ele>870.59</ele>
        <time>2018-09-09T13:03:55Z</time>
      </trkpt>
      <trkpt lat="45.61759" lon="6.81064">
        <ele>870.89</ele>
        <time>2018-09-09T13:03:56Z</time>
      </trkpt>
      <trkpt lat="45.61763" lon="6.81035">
        <ele>871.68</ele>
        <time>2018-09-09T13:03:57Z</time>
      </trkpt>
      <trkpt lat="45.61767" lon="6.81005">
        <ele>871.91</ele>
        <time>2018-09-09T13:03:58Z</time>
      </trkpt>
      <trkpt lat="45.61772" lon="6.80976">
        <ele>871.98</ele>
        <time>2018-09-09T13:03:59Z</time>
      </trkpt>
      <trkpt lat="45.61776" lon="6.80948">
        <ele>872.71</ele>
        <time>2018-09-09T13:04:00Z</time>
      </trkpt>
      <trkpt lat="45.61781" lon="6.8092">
        <ele>873.62</ele>
        <time>2018-09-09T13:04:01Z</time>
      </trkpt>
      <trkpt lat="45.61785" lon="6.80892">
        <ele>874.6</ele>
        <time>2018-09-09T13:04:02Z</time>
      </trkpt>
      <trkpt lat="45.6179" lon="6.80865">
        <ele>874.89</ele>
        <time>2018-09-09T13:04:03Z</time>
      </trkpt>
      <trkpt lat="45.61794" lon="6.80838">
        <ele>875.68</ele>
        <time>2018-09-09T13:04:04Z</time>
      </trkpt>
      <trkpt lat="45.61801" lon="6.80812">
        <ele>876.61</ele>
        <time>2018-09-09T13:04:05Z</time>
      </trkpt>
      <trkpt lat="45.6181" lon="6.80786">
        <ele>877.59</ele>
        <time>2018-09-09T13:04:06Z</time>
      </trkpt>
      <trkpt lat="45.6182" lon="6.80761">
        <ele>877.89</ele>
        <time>2018-09-09T13:04:07Z</time>
      </trkpt>
      <trkpt lat="45.61831" lon="6.80735">
        <ele>877.98</ele>
        <time>2018-09-09T13:04:08Z</time>
      </trkpt>
      <trkpt lat="45.61841" lon="6.8071">
        <ele>878.7</ele>
        <time>2018-09-09T13:04:09Z</time>
      </trkpt>
      <trkpt lat="45.61852" lon="6.80684">
        <ele>878.92</ele>
        <time>2018-09-09T13:04:10Z</time>
      </trkpt>
      <trkpt lat="45.61862" lon="6.80659">
        <ele>879.69</ele>
        <time>2018-09-09T13:04:11Z</time>
      </trkpt>
      <trkpt lat="45.61873" lon="6.80633">
        <ele>879.92</ele>
        <time>2018-09-09T13:04:12Z</time>
      </trkpt>
      <trkpt lat="45.61884" lon="6.80607">
        <ele>879.99</ele>
        <time>2018-09-09T13:04:13Z</time>
      </trkpt>
      <trkpt lat="45.61895" lon="6.80583">
        <ele>880.01</ele>
        <time>2018-09-09T13:04:14Z</time>
      </trkpt>
      <trkpt lat="45.61906" lon="6.80558">
        <ele>880.71</ele>
        <time>2018-09-09T13:04:15Z</time>
      </trkpt>
      <trkpt lat="45.61916" lon="6.80533">
        <ele>881.62</ele>
        <time>2018-09-09T13:04:16Z</time>
      </trkpt>
      <trkpt lat="45.61927" lon="6.80508">
        <ele>881.9</ele>
        <time>2018-09-09T13:04:17Z</time>
      </trkpt>
      <trkpt lat="45.61937" lon="6.80484">
        <ele>882.68</ele>
        <time>2018-09-09T13:04:18Z</time>
      </trkpt>
      <trkpt lat="45.61946" lon="6.80459">
        <ele>882.91</ele>
        <time>2018-09-09T13:04:19Z</time>
      </trkpt>
      <trkpt lat="45.61956" lon="6.80437">
        <ele>883.68</ele>
        <time>2018-09-09T13:04:20Z</time>
      </trkpt>
      <trkpt lat="45.61966" lon="6.80414">
        <ele>884.62</ele>
        <time>2018-09-09T13:04:21Z</time>
      </trkpt>
      <trkpt lat="45.61985" lon="6.80376">
        <ele>885.68</ele>
        <time>2018-09-09T13:04:23Z</time>
      </trkpt>
      <trkpt lat="45.62004" lon="6.80346">
        <ele>887.38</ele>
        <time>2018-09-09T13:04:25Z</time>
      </trkpt>
      <trkpt lat="45.62022" lon="6.80322">
        <ele>887.96</ele>
        <time>2018-09-09T13:04:27Z</time>
      </trkpt>
      <trkpt lat="45.62037" lon="6.80299">
        <ele>888.71</ele>
        <time>2018-09-09T13:04:29Z</time>
      </trkpt>
      <trkpt lat="45.62053" lon="6.80282">
        <ele>889.9</ele>
        <time>2018-09-09T13:04:31Z</time>
      </trkpt>
      <trkpt lat="45.62069" lon="6.80266">
        <ele>890.7</ele>
        <time>2018-09-09T13:04:33Z</time>
      </trkpt>
      <trkpt lat="45.62085" lon="6.80249">
        <ele>890.78</ele>
        <time>2018-09-09T13:04:35Z</time>
      </trkpt>
      <trkpt lat="45.62102" lon="6.80231">
        <ele>890.99</ele>
        <time>2018-09-09T13:04:37Z</time>
      </trkpt>
      <trkpt lat="45.62118" lon="6.80215">
        <ele>891.01</ele>
        <time>2018-09-09T13:04:39Z</time>
      </trkpt>
      <trkpt lat="45.62135" lon="6.80201">
        <ele>890.8</ele>
        <time>2018-09-09T13:04:41Z</time>
      </trkpt>
      <trkpt lat="45.62154" lon="6.80179">
        <ele>891.92</ele>
        <time>2018-09-09T13:04:44Z</time>
      </trkpt>
      <trkpt lat="45.62173" lon="6.80173">
        <ele>892.99</ele>
        <time>2018-09-09T13:04:48Z</time>
      </trkpt>
      <trkpt lat="45.62187" lon="6.80154">
        <ele>893.1</ele>
        <time>2018-09-09T13:04:53Z</time>
      </trkpt>
      <trkpt lat="45.62193" lon="6.80125">
        <ele>892.04</ele>
        <time>2018-09-09T13:04:56Z</time>
      </trkpt>
      <trkpt lat="45.62205" lon="6.80098">
        <ele>892.72</ele>
        <time>2018-09-09T13:04:59Z</time>
      </trkpt>
      <trkpt lat="45.62219" lon="6.80065">
        <ele>891.33</ele>
        <time>2018-09-09T13:05:02Z</time>
      </trkpt>
      <trkpt lat="45.62233" lon="6.8004">
        <ele>890.11</ele>
        <time>2018-09-09T13:05:05Z</time>
      </trkpt>
      <trkpt lat="45.62247" lon="6.80018">
        <ele>889.32</ele>
        <time>2018-09-09T13:05:08Z</time>
      </trkpt>
      <trkpt lat="45.62265" lon="6.79994">
        <ele>888.6</ele>
        <time>2018-09-09T13:05:11Z</time>
      </trkpt>
      <trkpt lat="45.62282" lon="6.79973">
        <ele>887.82</ele>
        <time>2018-09-09T13:05:14Z</time>
      </trkpt>
      <trkpt lat="45.62297" lon="6.7995">
        <ele>885.85</ele>
        <time>2018-09-09T13:05:17Z</time>
      </trkpt>
      <trkpt lat="45.62309" lon="6.79925">
        <ele>885.31</ele>
        <time>2018-09-09T13:05:20Z</time>
      </trkpt>
      <trkpt lat="45.62322" lon="6.79896">
        <ele>884.05</ele>
        <time>2018-09-09T13:05:23Z</time>
      </trkpt>
      <trkpt lat="45.62335" lon="6.79867">
        <ele>882.41</ele>
        <time>2018-09-09T13:05:26Z</time>
      </trkpt>
      <trkpt lat="45.62349" lon="6.7984">
        <ele>880.84</ele>
        <time>2018-09-09T13:05:29Z</time>
      </trkpt>
      <trkpt lat="45.62361" lon="6.79817">
        <ele>880.95</ele>
        <time>2018-09-09T13:05:32Z</time>
      </trkpt>
      <trkpt lat="45.62373" lon="6.79789">
        <ele>879.13</ele>
        <time>2018-09-09T13:05:35Z</time>
      </trkpt>
      <trkpt lat="45.62386" lon="6.7976">
        <ele>878.05</ele>
        <time>2018-09-09T13:05:38Z</time>
      </trkpt>
      <trkpt lat="45.624" lon="6.79728">
        <ele>876.77</ele>
        <time>2018-09-09T13:05:41Z</time>
      </trkpt>
      <trkpt lat="45.62412" lon="6.79698">
        <ele>875.38</ele>
        <time>2018-09-09T13:05:43Z</time>
      </trkpt>
      <trkpt lat="45.62425" lon="6.79673">
        <ele>875.05</ele>
        <time>2018-09-09T13:05:45Z</time>
      </trkpt>
      <trkpt lat="45.62436" lon="6.79649">
        <ele>873.41</ele>
        <time>2018-09-09T13:05:47Z</time>
      </trkpt>
      <trkpt lat="45.62448" lon="6.79625">
        <ele>872.35</ele>
        <time>2018-09-09T13:05:49Z</time>
      </trkpt>
      <trkpt lat="45.62463" lon="6.79594">
        <ele>872.05</ele>
        <time>2018-09-09T13:05:51Z</time>
      </trkpt>
      <trkpt lat="45.6248" lon="6.79562">
        <ele>871.11</ele>
        <time>2018-09-09T13:05:53Z</time>
      </trkpt>
      <trkpt lat="45.62497" lon="6.7953">
        <ele>869.41</ele>
        <time>2018-09-09T13:05:55Z</time>
      </trkpt>
      <trkpt lat="45.62511" lon="6.795">
        <ele>868.14</ele>
        <time>2018-09-09T13:05:57Z</time>
      </trkpt>
      <trkpt lat="45.62528" lon="6.79476">
        <ele>867.12</ele>
        <time>2018-09-09T13:05:59Z</time>
      </trkpt>
      <trkpt lat="45.62544" lon="6.79454">
        <ele>866.32</ele>
        <time>2018-09-09T13:06:01Z</time>
      </trkpt>
      <trkpt lat="45.62563" lon="6.79425">
        <ele>866.25</ele>
        <time>2018-09-09T13:06:03Z</time>
      </trkpt>
      <trkpt lat="45.62589" lon="6.79397">
        <ele>864.43</ele>
        <time>2018-09-09T13:06:05Z</time>
      </trkpt>
      <trkpt lat="45.62613" lon="6.79361">
        <ele>863.35</ele>
        <time>2018-09-09T13:06:07Z</time>
      </trkpt>
      <trkpt lat="45.62622" lon="6.79337">
        <ele>862.42</ele>
        <time>2018-09-09T13:06:08Z</time>
      </trkpt>
      <trkpt lat="45.6263" lon="6.79312">
        <ele>862.84</ele>
        <time>2018-09-09T13:06:09Z</time>
      </trkpt>
      <trkpt lat="45.62638" lon="6.79286">
        <ele>861.56</ele>
        <time>2018-09-09T13:06:10Z</time>
      </trkpt>
      <trkpt lat="45.62646" lon="6.7926">
        <ele>860.48</ele>
        <time>2018-09-09T13:06:11Z</time>
      </trkpt>
      <trkpt lat="45.62652" lon="6.79232">
        <ele>859.45</ele>
        <time>2018-09-09T13:06:12Z</time>
      </trkpt>
      <trkpt lat="45.62659" lon="6.79203">
        <ele>858.45</ele>
        <time>2018-09-09T13:06:13Z</time>
      </trkpt>
      <trkpt lat="45.62665" lon="6.79178">
        <ele>856.74</ele>
        <time>2018-09-09T13:06:14Z</time>
      </trkpt>
      <trkpt lat="45.62673" lon="6.79151">
        <ele>855.53</ele>
        <time>2018-09-09T13:06:15Z</time>
      </trkpt>
      <trkpt lat="45.6268" lon="6.79123">
        <ele>854.47</ele>
        <time>2018-09-09T13:06:16Z</time>
      </trkpt>
      <trkpt lat="45.62685" lon="6.79094">
        <ele>852.75</ele>
        <time>2018-09-09T13:06:17Z</time>
      </trkpt>
      <trkpt lat="45.6269" lon="6.79065">
        <ele>851.54</ele>
        <time>2018-09-09T13:06:18Z</time>
      </trkpt>
      <trkpt lat="45.62693" lon="6.79036">
        <ele>849.77</ele>
        <time>2018-09-09T13:06:19Z</time>
      </trkpt>
      <trkpt lat="45.62696" lon="6.79007">
        <ele>847.84</ele>
        <time>2018-09-09T13:06:20Z</time>
      </trkpt>
      <trkpt lat="45.62699" lon="6.78977">
        <ele>847.26</ele>
        <time>2018-09-09T13:06:21Z</time>
      </trkpt>
      <trkpt lat="45.62701" lon="6.78946">
        <ele>846.39</ele>
        <time>2018-09-09T13:06:22Z</time>
      </trkpt>
      <trkpt lat="45.62704" lon="6.78916">
        <ele>845.43</ele>
        <time>2018-09-09T13:06:23Z</time>
      </trkpt>
      <trkpt lat="45.62705" lon="6.78884">
        <ele>845.14</ele>
        <time>2018-09-09T13:06:24Z</time>
      </trkpt>
      <trkpt lat="45.62708" lon="6.78854">
        <ele>844.35</ele>
        <time>2018-09-09T13:06:25Z</time>
      </trkpt>
      <trkpt lat="45.62709" lon="6.78823">
        <ele>842.72</ele>
        <time>2018-09-09T13:06:26Z</time>
      </trkpt>
      <trkpt lat="45.62711" lon="6.78794">
        <ele>841.53</ele>
        <time>2018-09-09T13:06:27Z</time>
      </trkpt>
      <trkpt lat="45.62712" lon="6.78765">
        <ele>839.77</ele>
        <time>2018-09-09T13:06:28Z</time>
      </trkpt>
      <trkpt lat="45.62714" lon="6.78737">
        <ele>838.54</ele>
        <time>2018-09-09T13:06:29Z</time>
      </trkpt>
      <trkpt lat="45.62716" lon="6.7871">
        <ele>837.47</ele>
        <time>2018-09-09T13:06:30Z</time>
      </trkpt>
      <trkpt lat="45.62714" lon="6.78659">
        <ele>836.36</ele>
        <time>2018-09-09T13:06:32Z</time>
      </trkpt>
      <trkpt lat="45.62706" lon="6.78634">
        <ele>836.12</ele>
        <time>2018-09-09T13:06:33Z</time>
      </trkpt>
      <trkpt lat="45.62684" lon="6.78597">
        <ele>833.71</ele>
        <time>2018-09-09T13:06:35Z</time>
      </trkpt>
      <trkpt lat="45.62659" lon="6.7857">
        <ele>832.17</ele>
        <time>2018-09-09T13:06:37Z</time>
      </trkpt>
      <trkpt lat="45.62637" lon="6.78545">
        <ele>831.12</ele>
        <time>2018-09-09T13:06:39Z</time>
      </trkpt>
      <trkpt lat="45.62624" lon="6.78514">
        <ele>830.32</ele>
        <time>2018-09-09T13:06:41Z</time>
      </trkpt>
      <trkpt lat="45.62614" lon="6.78475">
        <ele>829.34</ele>
        <time>2018-09-09T13:06:43Z</time>
      </trkpt>
      <trkpt lat="45.62603" lon="6.78434">
        <ele>828.13</ele>
        <time>2018-09-09T13:06:45Z</time>
      </trkpt>
      <trkpt lat="45.6259" lon="6.78392">
        <ele>826.42</ele>
        <time>2018-09-09T13:06:47Z</time>
      </trkpt>
      <trkpt lat="45.62578" lon="6.78347">
        <ele>824.44</ele>
        <time>2018-09-09T13:06:49Z</time>
      </trkpt>
      <trkpt lat="45.62571" lon="6.78301">
        <ele>823.14</ele>
        <time>2018-09-09T13:06:51Z</time>
      </trkpt>
      <trkpt lat="45.62572" lon="6.78251">
        <ele>822.12</ele>
        <time>2018-09-09T13:06:53Z</time>
      </trkpt>
      <trkpt lat="45.62571" lon="6.78199">
        <ele>821.32</ele>
        <time>2018-09-09T13:06:55Z</time>
      </trkpt>
      <trkpt lat="45.62568" lon="6.78174">
        <ele>821.11</ele>
        <time>2018-09-09T13:06:56Z</time>
      </trkpt>
      <trkpt lat="45.62559" lon="6.78124">
        <ele>821.02</ele>
        <time>2018-09-09T13:06:58Z</time>
      </trkpt>
      <trkpt lat="45.62548" lon="6.78102">
        <ele>819.62</ele>
        <time>2018-09-09T13:06:59Z</time>
      </trkpt>
      <trkpt lat="45.62539" lon="6.78079">
        <ele>818.5</ele>
        <time>2018-09-09T13:07:00Z</time>
      </trkpt>
      <trkpt lat="45.62529" lon="6.78057">
        <ele>818.16</ele>
        <time>2018-09-09T13:07:01Z</time>
      </trkpt>
      <trkpt lat="45.62519" lon="6.78035">
        <ele>817.36</ele>
        <time>2018-09-09T13:07:02Z</time>
      </trkpt>
      <trkpt lat="45.62507" lon="6.78014">
        <ele>816.42</ele>
        <time>2018-09-09T13:07:03Z</time>
      </trkpt>
      <trkpt lat="45.62495" lon="6.77995">
        <ele>815.44</ele>
        <time>2018-09-09T13:07:04Z</time>
      </trkpt>
      <trkpt lat="45.62471" lon="6.77963">
        <ele>814.35</ele>
        <time>2018-09-09T13:07:06Z</time>
      </trkpt>
      <trkpt lat="45.62449" lon="6.77937">
        <ele>812.44</ele>
        <time>2018-09-09T13:07:08Z</time>
      </trkpt>
      <trkpt lat="45.62428" lon="6.77913">
        <ele>811.14</ele>
        <time>2018-09-09T13:07:10Z</time>
      </trkpt>
      <trkpt lat="45.6241" lon="6.77891">
        <ele>811.03</ele>
        <time>2018-09-09T13:07:12Z</time>
      </trkpt>
      <trkpt lat="45.62393" lon="6.77872">
        <ele>811.02</ele>
        <time>2018-09-09T13:07:14Z</time>
      </trkpt>
      <trkpt lat="45.62373" lon="6.77851">
        <ele>811.93</ele>
        <time>2018-09-09T13:07:17Z</time>
      </trkpt>
      <trkpt lat="45.62357" lon="6.77832">
        <ele>811.91</ele>
        <time>2018-09-09T13:07:21Z</time>
      </trkpt>
      <trkpt lat="45.62337" lon="6.77826">
        <ele>811.02</ele>
        <time>2018-09-09T13:07:25Z</time>
      </trkpt>
      <trkpt lat="45.62333" lon="6.77857">
        <ele>811.93</ele>
        <time>2018-09-09T13:07:28Z</time>
      </trkpt>
      <trkpt lat="45.62332" lon="6.77896">
        <ele>812.01</ele>
        <time>2018-09-09T13:07:31Z</time>
      </trkpt>
      <trkpt lat="45.62332" lon="6.77928">
        <ele>812.01</ele>
        <time>2018-09-09T13:07:33Z</time>
      </trkpt>
      <trkpt lat="45.62331" lon="6.77959">
        <ele>811.32</ele>
        <time>2018-09-09T13:07:35Z</time>
      </trkpt>
      <trkpt lat="45.62331" lon="6.77989">
        <ele>811.74</ele>
        <time>2018-09-09T13:07:37Z</time>
      </trkpt>
      <trkpt lat="45.62339" lon="6.78023">
        <ele>812.64</ele>
        <time>2018-09-09T13:07:40Z</time>
      </trkpt>
      <trkpt lat="45.62346" lon="6.78052">
        <ele>812.02</ele>
        <time>2018-09-09T13:07:44Z</time>
      </trkpt>
      <trkpt lat="45.62343" lon="6.78079">
        <ele>812.92</ele>
        <time>2018-09-09T13:07:51Z</time>
      </trkpt>
      <trkpt lat="45.62357" lon="6.781">
        <ele>808.44</ele>
        <time>2018-09-09T13:15:55Z</time>
      </trkpt>
      <trkpt lat="45.62376" lon="6.78105">
        <ele>808.11</ele>
        <time>2018-09-09T13:16:02Z</time>
      </trkpt>
      <trkpt lat="45.6237" lon="6.78077">
        <ele>807.66</ele>
        <time>2018-09-09T13:16:06Z</time>
      </trkpt>
      <trkpt lat="45.6236" lon="6.78051">
        <ele>809</ele>
        <time>2018-09-09T13:16:10Z</time>
      </trkpt>
      <trkpt lat="45.62352" lon="6.78024">
        <ele>810.01</ele>
        <time>2018-09-09T13:16:14Z</time>
      </trkpt>
      <trkpt lat="45.62339" lon="6.77999">
        <ele>810.03</ele>
        <time>2018-09-09T13:16:19Z</time>
      </trkpt>
      <trkpt lat="45.62337" lon="6.77963">
        <ele>809.25</ele>
        <time>2018-09-09T13:16:23Z</time>
      </trkpt>
      <trkpt lat="45.62337" lon="6.77935">
        <ele>809.95</ele>
        <time>2018-09-09T13:16:25Z</time>
      </trkpt>
      <trkpt lat="45.62337" lon="6.77905">
        <ele>809.1</ele>
        <time>2018-09-09T13:16:27Z</time>
      </trkpt>
      <trkpt lat="45.62341" lon="6.77871">
        <ele>809.02</ele>
        <time>2018-09-09T13:16:30Z</time>
      </trkpt>
      <trkpt lat="45.62356" lon="6.77851">
        <ele>809.02</ele>
        <time>2018-09-09T13:16:34Z</time>
      </trkpt>
      <trkpt lat="45.62355" lon="6.77824">
        <ele>808.04</ele>
        <time>2018-09-09T13:16:37Z</time>
      </trkpt>
      <trkpt lat="45.62336" lon="6.77806">
        <ele>808.29</ele>
        <time>2018-09-09T13:16:40Z</time>
      </trkpt>
      <trkpt lat="45.62325" lon="6.77784">
        <ele>808.95</ele>
        <time>2018-09-09T13:16:42Z</time>
      </trkpt>
      <trkpt lat="45.62313" lon="6.77756">
        <ele>809.01</ele>
        <time>2018-09-09T13:16:44Z</time>
      </trkpt>
      <trkpt lat="45.623" lon="6.77726">
        <ele>809.71</ele>
        <time>2018-09-09T13:16:46Z</time>
      </trkpt>
      <trkpt lat="45.62285" lon="6.77694">
        <ele>808.38</ele>
        <time>2018-09-09T13:16:48Z</time>
      </trkpt>
      <trkpt lat="45.6227" lon="6.77662">
        <ele>808.05</ele>
        <time>2018-09-09T13:16:50Z</time>
      </trkpt>
      <trkpt lat="45.62256" lon="6.7763">
        <ele>807.11</ele>
        <time>2018-09-09T13:16:52Z</time>
      </trkpt>
      <trkpt lat="45.6224" lon="6.77596">
        <ele>807.02</ele>
        <time>2018-09-09T13:16:54Z</time>
      </trkpt>
      <trkpt lat="45.62224" lon="6.77562">
        <ele>807.02</ele>
        <time>2018-09-09T13:16:56Z</time>
      </trkpt>
      <trkpt lat="45.6221" lon="6.77529">
        <ele>807.02</ele>
        <time>2018-09-09T13:16:58Z</time>
      </trkpt>
      <trkpt lat="45.62195" lon="6.77496">
        <ele>807.72</ele>
        <time>2018-09-09T13:17:00Z</time>
      </trkpt>
      <trkpt lat="45.6218" lon="6.77464">
        <ele>807.99</ele>
        <time>2018-09-09T13:17:02Z</time>
      </trkpt>
      <trkpt lat="45.62166" lon="6.77432">
        <ele>808.01</ele>
        <time>2018-09-09T13:17:04Z</time>
      </trkpt>
      <trkpt lat="45.62154" lon="6.774">
        <ele>808.01</ele>
        <time>2018-09-09T13:17:06Z</time>
      </trkpt>
      <trkpt lat="45.62143" lon="6.77368">
        <ele>808.01</ele>
        <time>2018-09-09T13:17:08Z</time>
      </trkpt>
      <trkpt lat="45.62131" lon="6.77334">
        <ele>808.92</ele>
        <time>2018-09-09T13:17:10Z</time>
      </trkpt>
      <trkpt lat="45.62119" lon="6.77303">
        <ele>809.92</ele>
        <time>2018-09-09T13:17:12Z</time>
      </trkpt>
      <trkpt lat="45.62107" lon="6.77272">
        <ele>810.71</ele>
        <time>2018-09-09T13:17:14Z</time>
      </trkpt>
      <trkpt lat="45.62095" lon="6.77243">
        <ele>810.99</ele>
        <time>2018-09-09T13:17:16Z</time>
      </trkpt>
      <trkpt lat="45.62084" lon="6.77214">
        <ele>810.1</ele>
        <time>2018-09-09T13:17:18Z</time>
      </trkpt>
      <trkpt lat="45.62073" lon="6.77189">
        <ele>810.72</ele>
        <time>2018-09-09T13:17:20Z</time>
      </trkpt>
      <trkpt lat="45.62061" lon="6.77158">
        <ele>810.73</ele>
        <time>2018-09-09T13:17:23Z</time>
      </trkpt>
      <trkpt lat="45.62051" lon="6.77133">
        <ele>811.71</ele>
        <time>2018-09-09T13:17:27Z</time>
      </trkpt>
      <trkpt lat="45.62055" lon="6.77107">
        <ele>812.01</ele>
        <time>2018-09-09T13:17:30Z</time>
      </trkpt>
      <trkpt lat="45.62078" lon="6.7709">
        <ele>812.99</ele>
        <time>2018-09-09T13:17:33Z</time>
      </trkpt>
      <trkpt lat="45.62098" lon="6.77089">
        <ele>813.01</ele>
        <time>2018-09-09T13:17:35Z</time>
      </trkpt>
      <trkpt lat="45.6212" lon="6.77088">
        <ele>812.8</ele>
        <time>2018-09-09T13:17:37Z</time>
      </trkpt>
      <trkpt lat="45.62142" lon="6.77086">
        <ele>813</ele>
        <time>2018-09-09T13:17:39Z</time>
      </trkpt>
      <trkpt lat="45.62166" lon="6.77086">
        <ele>813.71</ele>
        <time>2018-09-09T13:17:41Z</time>
      </trkpt>
      <trkpt lat="45.62187" lon="6.77087">
        <ele>814.9</ele>
        <time>2018-09-09T13:17:43Z</time>
      </trkpt>
      <trkpt lat="45.62209" lon="6.77087">
        <ele>814.09</ele>
        <time>2018-09-09T13:17:45Z</time>
      </trkpt>
      <trkpt lat="45.62229" lon="6.7709">
        <ele>815.42</ele>
        <time>2018-09-09T13:17:47Z</time>
      </trkpt>
      <trkpt lat="45.62249" lon="6.77095">
        <ele>817.36</ele>
        <time>2018-09-09T13:17:49Z</time>
      </trkpt>
      <trkpt lat="45.62269" lon="6.77104">
        <ele>818.66</ele>
        <time>2018-09-09T13:17:51Z</time>
      </trkpt>
      <trkpt lat="45.62292" lon="6.77117">
        <ele>819.68</ele>
        <time>2018-09-09T13:17:53Z</time>
      </trkpt>
      <trkpt lat="45.62316" lon="6.77134">
        <ele>820.69</ele>
        <time>2018-09-09T13:17:55Z</time>
      </trkpt>
      <trkpt lat="45.62338" lon="6.77157">
        <ele>822.39</ele>
        <time>2018-09-09T13:17:57Z</time>
      </trkpt>
      <trkpt lat="45.62358" lon="6.77189">
        <ele>825.27</ele>
        <time>2018-09-09T13:17:59Z</time>
      </trkpt>
      <trkpt lat="45.62379" lon="6.77226">
        <ele>826.86</ele>
        <time>2018-09-09T13:18:01Z</time>
      </trkpt>
      <trkpt lat="45.62398" lon="6.77264">
        <ele>828.61</ele>
        <time>2018-09-09T13:18:03Z</time>
      </trkpt>
      <trkpt lat="45.62414" lon="6.77308">
        <ele>830.59</ele>
        <time>2018-09-09T13:18:05Z</time>
      </trkpt>
      <trkpt lat="45.62429" lon="6.77352">
        <ele>832.59</ele>
        <time>2018-09-09T13:18:07Z</time>
      </trkpt>
      <trkpt lat="45.62445" lon="6.77394">
        <ele>834.59</ele>
        <time>2018-09-09T13:18:09Z</time>
      </trkpt>
      <trkpt lat="45.6246" lon="6.77437">
        <ele>835.89</ele>
        <time>2018-09-09T13:18:11Z</time>
      </trkpt>
      <trkpt lat="45.62474" lon="6.77478">
        <ele>838.52</ele>
        <time>2018-09-09T13:18:13Z</time>
      </trkpt>
      <trkpt lat="45.62491" lon="6.77518">
        <ele>839.67</ele>
        <time>2018-09-09T13:18:15Z</time>
      </trkpt>
      <trkpt lat="45.62506" lon="6.77556">
        <ele>842.5</ele>
        <time>2018-09-09T13:18:17Z</time>
      </trkpt>
      <trkpt lat="45.62509" lon="6.7759">
        <ele>844.58</ele>
        <time>2018-09-09T13:18:19Z</time>
      </trkpt>
      <trkpt lat="45.62503" lon="6.77623">
        <ele>846.8</ele>
        <time>2018-09-09T13:18:21Z</time>
      </trkpt>
      <trkpt lat="45.62501" lon="6.77661">
        <ele>848.61</ele>
        <time>2018-09-09T13:18:23Z</time>
      </trkpt>
      <trkpt lat="45.62507" lon="6.77703">
        <ele>848.98</ele>
        <time>2018-09-09T13:18:25Z</time>
      </trkpt>
      <trkpt lat="45.6252" lon="6.77743">
        <ele>852.23</ele>
        <time>2018-09-09T13:18:27Z</time>
      </trkpt>
      <trkpt lat="45.62533" lon="6.77773">
        <ele>853.85</ele>
        <time>2018-09-09T13:18:29Z</time>
      </trkpt>
      <trkpt lat="45.62558" lon="6.77787">
        <ele>855.62</ele>
        <time>2018-09-09T13:18:32Z</time>
      </trkpt>
      <trkpt lat="45.62582" lon="6.7778">
        <ele>856.68</ele>
        <time>2018-09-09T13:18:34Z</time>
      </trkpt>
      <trkpt lat="45.62606" lon="6.77783">
        <ele>856.77</ele>
        <time>2018-09-09T13:18:36Z</time>
      </trkpt>
      <trkpt lat="45.6262" lon="6.77799">
        <ele>859.51</ele>
        <time>2018-09-09T13:18:38Z</time>
      </trkpt>
      <trkpt lat="45.62623" lon="6.77828">
        <ele>860.88</ele>
        <time>2018-09-09T13:18:40Z</time>
      </trkpt>
      <trkpt lat="45.62617" lon="6.77864">
        <ele>861.7</ele>
        <time>2018-09-09T13:18:42Z</time>
      </trkpt>
      <trkpt lat="45.62616" lon="6.77901">
        <ele>862.69</ele>
        <time>2018-09-09T13:18:44Z</time>
      </trkpt>
      <trkpt lat="45.62626" lon="6.77929">
        <ele>866.91</ele>
        <time>2018-09-09T13:18:46Z</time>
      </trkpt>
      <trkpt lat="45.62646" lon="6.77953">
        <ele>870.23</ele>
        <time>2018-09-09T13:18:48Z</time>
      </trkpt>
      <trkpt lat="45.62666" lon="6.77986">
        <ele>873.25</ele>
        <time>2018-09-09T13:18:50Z</time>
      </trkpt>
      <trkpt lat="45.62681" lon="6.78028">
        <ele>874.86</ele>
        <time>2018-09-09T13:18:52Z</time>
      </trkpt>
      <trkpt lat="45.62694" lon="6.7807">
        <ele>875.91</ele>
        <time>2018-09-09T13:18:54Z</time>
      </trkpt>
      <trkpt lat="45.62713" lon="6.78109">
        <ele>878.53</ele>
        <time>2018-09-09T13:18:56Z</time>
      </trkpt>
      <trkpt lat="45.62733" lon="6.78149">
        <ele>879.88</ele>
        <time>2018-09-09T13:18:58Z</time>
      </trkpt>
      <trkpt lat="45.62749" lon="6.78189">
        <ele>883.22</ele>
        <time>2018-09-09T13:19:00Z</time>
      </trkpt>
      <trkpt lat="45.62759" lon="6.78235">
        <ele>887.16</ele>
        <time>2018-09-09T13:19:02Z</time>
      </trkpt>
      <trkpt lat="45.62768" lon="6.78281">
        <ele>887.94</ele>
        <time>2018-09-09T13:19:04Z</time>
      </trkpt>
      <trkpt lat="45.62774" lon="6.78326">
        <ele>889.62</ele>
        <time>2018-09-09T13:19:06Z</time>
      </trkpt>
      <trkpt lat="45.62782" lon="6.78365">
        <ele>892.29</ele>
        <time>2018-09-09T13:19:08Z</time>
      </trkpt>
      <trkpt lat="45.628" lon="6.78394">
        <ele>895.26</ele>
        <time>2018-09-09T13:19:10Z</time>
      </trkpt>
      <trkpt lat="45.62822" lon="6.7842">
        <ele>898.47</ele>
        <time>2018-09-09T13:19:12Z</time>
      </trkpt>
      <trkpt lat="45.62839" lon="6.78453">
        <ele>900.58</ele>
        <time>2018-09-09T13:19:14Z</time>
      </trkpt>
      <trkpt lat="45.6286" lon="6.78485">
        <ele>901.68</ele>
        <time>2018-09-09T13:19:16Z</time>
      </trkpt>
      <trkpt lat="45.62884" lon="6.78512">
        <ele>904.5</ele>
        <time>2018-09-09T13:19:18Z</time>
      </trkpt>
      <trkpt lat="45.6291" lon="6.78531">
        <ele>906.79</ele>
        <time>2018-09-09T13:19:20Z</time>
      </trkpt>
      <trkpt lat="45.62939" lon="6.78542">
        <ele>907.69</ele>
        <time>2018-09-09T13:19:22Z</time>
      </trkpt>
      <trkpt lat="45.62969" lon="6.7855">
        <ele>908.9</ele>
        <time>2018-09-09T13:19:24Z</time>
      </trkpt>
      <trkpt lat="45.62988" lon="6.78564">
        <ele>910.82</ele>
        <time>2018-09-09T13:19:26Z</time>
      </trkpt>
      <trkpt lat="45.63006" lon="6.78557">
        <ele>912.89</ele>
        <time>2018-09-09T13:19:29Z</time>
      </trkpt>
      <trkpt lat="45.62989" lon="6.78533">
        <ele>916.29</ele>
        <time>2018-09-09T13:19:32Z</time>
      </trkpt>
      <trkpt lat="45.62959" lon="6.78517">
        <ele>918.56</ele>
        <time>2018-09-09T13:19:34Z</time>
      </trkpt>
      <trkpt lat="45.6293" lon="6.78498">
        <ele>921.49</ele>
        <time>2018-09-09T13:19:36Z</time>
      </trkpt>
      <trkpt lat="45.62905" lon="6.78477">
        <ele>923.58</ele>
        <time>2018-09-09T13:19:38Z</time>
      </trkpt>
      <trkpt lat="45.6289" lon="6.78445">
        <ele>924.89</ele>
        <time>2018-09-09T13:19:40Z</time>
      </trkpt>
      <trkpt lat="45.62884" lon="6.78408">
        <ele>928.22</ele>
        <time>2018-09-09T13:19:42Z</time>
      </trkpt>
      <trkpt lat="45.62879" lon="6.78371">
        <ele>930.55</ele>
        <time>2018-09-09T13:19:44Z</time>
      </trkpt>
      <trkpt lat="45.62878" lon="6.78338">
        <ele>933.49</ele>
        <time>2018-09-09T13:19:46Z</time>
      </trkpt>
      <trkpt lat="45.62885" lon="6.78314">
        <ele>934.88</ele>
        <time>2018-09-09T13:19:48Z</time>
      </trkpt>
      <trkpt lat="45.62903" lon="6.783">
        <ele>936.61</ele>
        <time>2018-09-09T13:19:50Z</time>
      </trkpt>
      <trkpt lat="45.62927" lon="6.78306">
        <ele>939.38</ele>
        <time>2018-09-09T13:19:53Z</time>
      </trkpt>
      <trkpt lat="45.62945" lon="6.78321">
        <ele>940.66</ele>
        <time>2018-09-09T13:19:55Z</time>
      </trkpt>
      <trkpt lat="45.62964" lon="6.7834">
        <ele>942.59</ele>
        <time>2018-09-09T13:19:57Z</time>
      </trkpt>
      <trkpt lat="45.62985" lon="6.78361">
        <ele>944.38</ele>
        <time>2018-09-09T13:19:59Z</time>
      </trkpt>
      <trkpt lat="45.63008" lon="6.78379">
        <ele>945.66</ele>
        <time>2018-09-09T13:20:01Z</time>
      </trkpt>
      <trkpt lat="45.63036" lon="6.78394">
        <ele>946.68</ele>
        <time>2018-09-09T13:20:03Z</time>
      </trkpt>
      <trkpt lat="45.63068" lon="6.78408">
        <ele>946.99</ele>
        <time>2018-09-09T13:20:05Z</time>
      </trkpt>
      <trkpt lat="45.63086" lon="6.78413">
        <ele>947.71</ele>
        <time>2018-09-09T13:20:06Z</time>
      </trkpt>
      <trkpt lat="45.63103" lon="6.78419">
        <ele>947.92</ele>
        <time>2018-09-09T13:20:07Z</time>
      </trkpt>
      <trkpt lat="45.63122" lon="6.78422">
        <ele>947.99</ele>
        <time>2018-09-09T13:20:08Z</time>
      </trkpt>
      <trkpt lat="45.6314" lon="6.78422">
        <ele>948.71</ele>
        <time>2018-09-09T13:20:09Z</time>
      </trkpt>
      <trkpt lat="45.63158" lon="6.7842">
        <ele>948.92</ele>
        <time>2018-09-09T13:20:10Z</time>
      </trkpt>
      <trkpt lat="45.63193" lon="6.78415">
        <ele>949.92</ele>
        <time>2018-09-09T13:20:12Z</time>
      </trkpt>
      <trkpt lat="45.63226" lon="6.78417">
        <ele>952.53</ele>
        <time>2018-09-09T13:20:14Z</time>
      </trkpt>
      <trkpt lat="45.63251" lon="6.78427">
        <ele>952.27</ele>
        <time>2018-09-09T13:20:16Z</time>
      </trkpt>
      <trkpt lat="45.63277" lon="6.78453">
        <ele>952.04</ele>
        <time>2018-09-09T13:20:18Z</time>
      </trkpt>
      <trkpt lat="45.63307" lon="6.78477">
        <ele>952.02</ele>
        <time>2018-09-09T13:20:20Z</time>
      </trkpt>
      <trkpt lat="45.63335" lon="6.78497">
        <ele>952.72</ele>
        <time>2018-09-09T13:20:22Z</time>
      </trkpt>
      <trkpt lat="45.63367" lon="6.78516">
        <ele>952.29</ele>
        <time>2018-09-09T13:20:24Z</time>
      </trkpt>
      <trkpt lat="45.63395" lon="6.78538">
        <ele>952.74</ele>
        <time>2018-09-09T13:20:26Z</time>
      </trkpt>
      <trkpt lat="45.63425" lon="6.78547">
        <ele>953.9</ele>
        <time>2018-09-09T13:20:28Z</time>
      </trkpt>
      <trkpt lat="45.63455" lon="6.78542">
        <ele>956.31</ele>
        <time>2018-09-09T13:20:30Z</time>
      </trkpt>
      <trkpt lat="45.63485" lon="6.78543">
        <ele>957.65</ele>
        <time>2018-09-09T13:20:32Z</time>
      </trkpt>
      <trkpt lat="45.6352" lon="6.78551">
        <ele>956.86</ele>
        <time>2018-09-09T13:20:34Z</time>
      </trkpt>
      <trkpt lat="45.63554" lon="6.78555">
        <ele>957</ele>
        <time>2018-09-09T13:20:36Z</time>
      </trkpt>
      <trkpt lat="45.63585" lon="6.78549">
        <ele>956.8</ele>
        <time>2018-09-09T13:20:38Z</time>
      </trkpt>
      <trkpt lat="45.63617" lon="6.78537">
        <ele>958.61</ele>
        <time>2018-09-09T13:20:40Z</time>
      </trkpt>
      <trkpt lat="45.63649" lon="6.78529">
        <ele>959.68</ele>
        <time>2018-09-09T13:20:42Z</time>
      </trkpt>
      <trkpt lat="45.63671" lon="6.78514">
        <ele>961.8</ele>
        <time>2018-09-09T13:20:44Z</time>
      </trkpt>
      <trkpt lat="45.63694" lon="6.7849">
        <ele>962.7</ele>
        <time>2018-09-09T13:20:46Z</time>
      </trkpt>
      <trkpt lat="45.63726" lon="6.78471">
        <ele>962.99</ele>
        <time>2018-09-09T13:20:48Z</time>
      </trkpt>
      <trkpt lat="45.63759" lon="6.78458">
        <ele>963.92</ele>
        <time>2018-09-09T13:20:50Z</time>
      </trkpt>
      <trkpt lat="45.63794" lon="6.78448">
        <ele>964.01</ele>
        <time>2018-09-09T13:20:52Z</time>
      </trkpt>
      <trkpt lat="45.63826" lon="6.78452">
        <ele>963.52</ele>
        <time>2018-09-09T13:20:54Z</time>
      </trkpt>
      <trkpt lat="45.63857" lon="6.78453">
        <ele>963.55</ele>
        <time>2018-09-09T13:20:56Z</time>
      </trkpt>
      <trkpt lat="45.63888" lon="6.78443">
        <ele>964.88</ele>
        <time>2018-09-09T13:20:58Z</time>
      </trkpt>
      <trkpt lat="45.63915" lon="6.78444">
        <ele>965.7</ele>
        <time>2018-09-09T13:21:00Z</time>
      </trkpt>
      <trkpt lat="45.63938" lon="6.78464">
        <ele>966.9</ele>
        <time>2018-09-09T13:21:02Z</time>
      </trkpt>
      <trkpt lat="45.63964" lon="6.78488">
        <ele>967</ele>
        <time>2018-09-09T13:21:04Z</time>
      </trkpt>
      <trkpt lat="45.63992" lon="6.78504">
        <ele>965.4</ele>
        <time>2018-09-09T13:21:06Z</time>
      </trkpt>
      <trkpt lat="45.64025" lon="6.78506">
        <ele>965.05</ele>
        <time>2018-09-09T13:21:08Z</time>
      </trkpt>
      <trkpt lat="45.64058" lon="6.78512">
        <ele>965.02</ele>
        <time>2018-09-09T13:21:10Z</time>
      </trkpt>
      <trkpt lat="45.64075" lon="6.78523">
        <ele>965.72</ele>
        <time>2018-09-09T13:21:11Z</time>
      </trkpt>
      <trkpt lat="45.64092" lon="6.78532">
        <ele>965.23</ele>
        <time>2018-09-09T13:21:12Z</time>
      </trkpt>
      <trkpt lat="45.64124" lon="6.78554">
        <ele>966.64</ele>
        <time>2018-09-09T13:21:14Z</time>
      </trkpt>
      <trkpt lat="45.64153" lon="6.78581">
        <ele>966.98</ele>
        <time>2018-09-09T13:21:16Z</time>
      </trkpt>
      <trkpt lat="45.64183" lon="6.78605">
        <ele>967.29</ele>
        <time>2018-09-09T13:21:18Z</time>
      </trkpt>
      <trkpt lat="45.64214" lon="6.78618">
        <ele>969.35</ele>
        <time>2018-09-09T13:21:20Z</time>
      </trkpt>
      <trkpt lat="45.64249" lon="6.7862">
        <ele>970.66</ele>
        <time>2018-09-09T13:21:22Z</time>
      </trkpt>
      <trkpt lat="45.64268" lon="6.78619">
        <ele>971.61</ele>
        <time>2018-09-09T13:21:23Z</time>
      </trkpt>
      <trkpt lat="45.64289" lon="6.78616">
        <ele>972.59</ele>
        <time>2018-09-09T13:21:24Z</time>
      </trkpt>
      <trkpt lat="45.64309" lon="6.78613">
        <ele>972.89</ele>
        <time>2018-09-09T13:21:25Z</time>
      </trkpt>
      <trkpt lat="45.6433" lon="6.78613">
        <ele>972.98</ele>
        <time>2018-09-09T13:21:26Z</time>
      </trkpt>
      <trkpt lat="45.64349" lon="6.78614">
        <ele>973</ele>
        <time>2018-09-09T13:21:27Z</time>
      </trkpt>
      <trkpt lat="45.64369" lon="6.78613">
        <ele>973.71</ele>
        <time>2018-09-09T13:21:28Z</time>
      </trkpt>
      <trkpt lat="45.6439" lon="6.78612">
        <ele>973.22</ele>
        <time>2018-09-09T13:21:29Z</time>
      </trkpt>
      <trkpt lat="45.64412" lon="6.78608">
        <ele>972.38</ele>
        <time>2018-09-09T13:21:30Z</time>
      </trkpt>
      <trkpt lat="45.64432" lon="6.78604">
        <ele>972.12</ele>
        <time>2018-09-09T13:21:31Z</time>
      </trkpt>
      <trkpt lat="45.64453" lon="6.786">
        <ele>971.35</ele>
        <time>2018-09-09T13:21:32Z</time>
      </trkpt>
      <trkpt lat="45.64474" lon="6.78595">
        <ele>971.81</ele>
        <time>2018-09-09T13:21:33Z</time>
      </trkpt>
      <trkpt lat="45.64494" lon="6.78595">
        <ele>972.65</ele>
        <time>2018-09-09T13:21:34Z</time>
      </trkpt>
      <trkpt lat="45.64513" lon="6.78595">
        <ele>972.91</ele>
        <time>2018-09-09T13:21:35Z</time>
      </trkpt>
      <trkpt lat="45.64532" lon="6.78592">
        <ele>973.68</ele>
        <time>2018-09-09T13:21:36Z</time>
      </trkpt>
      <trkpt lat="45.64551" lon="6.78589">
        <ele>974.62</ele>
        <time>2018-09-09T13:21:37Z</time>
      </trkpt>
      <trkpt lat="45.6457" lon="6.78589">
        <ele>974.9</ele>
        <time>2018-09-09T13:21:38Z</time>
      </trkpt>
      <trkpt lat="45.64589" lon="6.78593">
        <ele>975.68</ele>
        <time>2018-09-09T13:21:39Z</time>
      </trkpt>
      <trkpt lat="45.64607" lon="6.78599">
        <ele>977.31</ele>
        <time>2018-09-09T13:21:40Z</time>
      </trkpt>
      <trkpt lat="45.64625" lon="6.78607">
        <ele>977.8</ele>
        <time>2018-09-09T13:21:41Z</time>
      </trkpt>
      <trkpt lat="45.6466" lon="6.78614">
        <ele>980.31</ele>
        <time>2018-09-09T13:21:43Z</time>
      </trkpt>
      <trkpt lat="45.64678" lon="6.78612">
        <ele>982.2</ele>
        <time>2018-09-09T13:21:44Z</time>
      </trkpt>
      <trkpt lat="45.64697" lon="6.78611">
        <ele>982.77</ele>
        <time>2018-09-09T13:21:45Z</time>
      </trkpt>
      <trkpt lat="45.64716" lon="6.7861">
        <ele>985.04</ele>
        <time>2018-09-09T13:21:46Z</time>
      </trkpt>
      <trkpt lat="45.64736" lon="6.78615">
        <ele>986.42</ele>
        <time>2018-09-09T13:21:47Z</time>
      </trkpt>
      <trkpt lat="45.64754" lon="6.78622">
        <ele>988.94</ele>
        <time>2018-09-09T13:21:48Z</time>
      </trkpt>
      <trkpt lat="45.64774" lon="6.7863">
        <ele>990.39</ele>
        <time>2018-09-09T13:21:49Z</time>
      </trkpt>
      <trkpt lat="45.64793" lon="6.78641">
        <ele>992.23</ele>
        <time>2018-09-09T13:21:50Z</time>
      </trkpt>
      <trkpt lat="45.64813" lon="6.7865">
        <ele>992.78</ele>
        <time>2018-09-09T13:21:51Z</time>
      </trkpt>
      <trkpt lat="45.64831" lon="6.78662">
        <ele>992.94</ele>
        <time>2018-09-09T13:21:52Z</time>
      </trkpt>
      <trkpt lat="45.6485" lon="6.78675">
        <ele>993.69</ele>
        <time>2018-09-09T13:21:53Z</time>
      </trkpt>
      <trkpt lat="45.64868" lon="6.78689">
        <ele>994.62</ele>
        <time>2018-09-09T13:21:54Z</time>
      </trkpt>
      <trkpt lat="45.64885" lon="6.78704">
        <ele>997</ele>
        <time>2018-09-09T13:21:55Z</time>
      </trkpt>
      <trkpt lat="45.64902" lon="6.78718">
        <ele>1000.51</ele>
        <time>2018-09-09T13:21:56Z</time>
      </trkpt>
      <trkpt lat="45.6492" lon="6.78732">
        <ele>1002.26</ele>
        <time>2018-09-09T13:21:57Z</time>
      </trkpt>
      <trkpt lat="45.64938" lon="6.78745">
        <ele>1002.79</ele>
        <time>2018-09-09T13:21:58Z</time>
      </trkpt>
      <trkpt lat="45.64955" lon="6.78757">
        <ele>1005.05</ele>
        <time>2018-09-09T13:21:59Z</time>
      </trkpt>
      <trkpt lat="45.64972" lon="6.78769">
        <ele>1006.42</ele>
        <time>2018-09-09T13:22:00Z</time>
      </trkpt>
      <trkpt lat="45.64991" lon="6.78777">
        <ele>1007.54</ele>
        <time>2018-09-09T13:22:01Z</time>
      </trkpt>
      <trkpt lat="45.6501" lon="6.78782">
        <ele>1007.87</ele>
        <time>2018-09-09T13:22:02Z</time>
      </trkpt>
      <trkpt lat="45.6503" lon="6.78786">
        <ele>1007.97</ele>
        <time>2018-09-09T13:22:03Z</time>
      </trkpt>
      <trkpt lat="45.65051" lon="6.78788">
        <ele>1008.7</ele>
        <time>2018-09-09T13:22:04Z</time>
      </trkpt>
      <trkpt lat="45.65072" lon="6.78786">
        <ele>1009.62</ele>
        <time>2018-09-09T13:22:05Z</time>
      </trkpt>
      <trkpt lat="45.65092" lon="6.78784">
        <ele>1009.9</ele>
        <time>2018-09-09T13:22:06Z</time>
      </trkpt>
      <trkpt lat="45.65113" lon="6.78784">
        <ele>1010.68</ele>
        <time>2018-09-09T13:22:07Z</time>
      </trkpt>
      <trkpt lat="45.65133" lon="6.78779">
        <ele>1010.91</ele>
        <time>2018-09-09T13:22:08Z</time>
      </trkpt>
      <trkpt lat="45.65152" lon="6.78775">
        <ele>1010.98</ele>
        <time>2018-09-09T13:22:09Z</time>
      </trkpt>
      <trkpt lat="45.65169" lon="6.78762">
        <ele>1011.71</ele>
        <time>2018-09-09T13:22:10Z</time>
      </trkpt>
      <trkpt lat="45.65185" lon="6.78747">
        <ele>1014.02</ele>
        <time>2018-09-09T13:22:11Z</time>
      </trkpt>
      <trkpt lat="45.65202" lon="6.78733">
        <ele>1016.12</ele>
        <time>2018-09-09T13:22:12Z</time>
      </trkpt>
      <trkpt lat="45.65221" lon="6.78724">
        <ele>1018.15</ele>
        <time>2018-09-09T13:22:13Z</time>
      </trkpt>
      <trkpt lat="45.65239" lon="6.78716">
        <ele>1021.55</ele>
        <time>2018-09-09T13:22:14Z</time>
      </trkpt>
      <trkpt lat="45.65257" lon="6.78708">
        <ele>1023.28</ele>
        <time>2018-09-09T13:22:15Z</time>
      </trkpt>
      <trkpt lat="45.65292" lon="6.78699">
        <ele>1026.47</ele>
        <time>2018-09-09T13:22:17Z</time>
      </trkpt>
      <trkpt lat="45.6531" lon="6.78697">
        <ele>1026.85</ele>
        <time>2018-09-09T13:22:18Z</time>
      </trkpt>
      <trkpt lat="45.65329" lon="6.78698">
        <ele>1027.67</ele>
        <time>2018-09-09T13:22:19Z</time>
      </trkpt>
      <trkpt lat="45.65347" lon="6.78697">
        <ele>1028.61</ele>
        <time>2018-09-09T13:22:20Z</time>
      </trkpt>
      <trkpt lat="45.65368" lon="6.78693">
        <ele>1029.59</ele>
        <time>2018-09-09T13:22:21Z</time>
      </trkpt>
      <trkpt lat="45.65387" lon="6.78682">
        <ele>1030.59</ele>
        <time>2018-09-09T13:22:22Z</time>
      </trkpt>
      <trkpt lat="45.65401" lon="6.78661">
        <ele>1031.59</ele>
        <time>2018-09-09T13:22:23Z</time>
      </trkpt>
      <trkpt lat="45.65418" lon="6.78647">
        <ele>1033.99</ele>
        <time>2018-09-09T13:22:24Z</time>
      </trkpt>
      <trkpt lat="45.65434" lon="6.78633">
        <ele>1035.41</ele>
        <time>2018-09-09T13:22:25Z</time>
      </trkpt>
      <trkpt lat="45.6545" lon="6.78617">
        <ele>1037.93</ele>
        <time>2018-09-09T13:22:26Z</time>
      </trkpt>
      <trkpt lat="45.65465" lon="6.786">
        <ele>1040.09</ele>
        <time>2018-09-09T13:22:27Z</time>
      </trkpt>
      <trkpt lat="45.6548" lon="6.78585">
        <ele>1042.84</ele>
        <time>2018-09-09T13:22:28Z</time>
      </trkpt>
      <trkpt lat="45.65495" lon="6.78569">
        <ele>1044.36</ele>
        <time>2018-09-09T13:22:29Z</time>
      </trkpt>
      <trkpt lat="45.65511" lon="6.78551">
        <ele>1046.22</ele>
        <time>2018-09-09T13:22:30Z</time>
      </trkpt>
      <trkpt lat="45.65527" lon="6.78535">
        <ele>1048.18</ele>
        <time>2018-09-09T13:22:31Z</time>
      </trkpt>
      <trkpt lat="45.65543" lon="6.7852">
        <ele>1050.86</ele>
        <time>2018-09-09T13:22:32Z</time>
      </trkpt>
      <trkpt lat="45.65559" lon="6.78504">
        <ele>1052.37</ele>
        <time>2018-09-09T13:22:33Z</time>
      </trkpt>
      <trkpt lat="45.65575" lon="6.78488">
        <ele>1054.22</ele>
        <time>2018-09-09T13:22:34Z</time>
      </trkpt>
      <trkpt lat="45.6559" lon="6.7847">
        <ele>1055.48</ele>
        <time>2018-09-09T13:22:35Z</time>
      </trkpt>
      <trkpt lat="45.65606" lon="6.78452">
        <ele>1056.55</ele>
        <time>2018-09-09T13:22:36Z</time>
      </trkpt>
      <trkpt lat="45.6562" lon="6.78435">
        <ele>1057.58</ele>
        <time>2018-09-09T13:22:37Z</time>
      </trkpt>
      <trkpt lat="45.65634" lon="6.78417">
        <ele>1059.98</ele>
        <time>2018-09-09T13:22:38Z</time>
      </trkpt>
      <trkpt lat="45.65649" lon="6.78401">
        <ele>1061.41</ele>
        <time>2018-09-09T13:22:39Z</time>
      </trkpt>
      <trkpt lat="45.65665" lon="6.78388">
        <ele>1061.83</ele>
        <time>2018-09-09T13:22:40Z</time>
      </trkpt>
      <trkpt lat="45.65683" lon="6.78376">
        <ele>1062.66</ele>
        <time>2018-09-09T13:22:41Z</time>
      </trkpt>
      <trkpt lat="45.65701" lon="6.78364">
        <ele>1062.91</ele>
        <time>2018-09-09T13:22:42Z</time>
      </trkpt>
      <trkpt lat="45.6572" lon="6.7835">
        <ele>1063.68</ele>
        <time>2018-09-09T13:22:43Z</time>
      </trkpt>
      <trkpt lat="45.65737" lon="6.78336">
        <ele>1066.02</ele>
        <time>2018-09-09T13:22:44Z</time>
      </trkpt>
      <trkpt lat="45.65755" lon="6.78323">
        <ele>1067.42</ele>
        <time>2018-09-09T13:22:45Z</time>
      </trkpt>
      <trkpt lat="45.65774" lon="6.78312">
        <ele>1068.54</ele>
        <time>2018-09-09T13:22:46Z</time>
      </trkpt>
      <trkpt lat="45.65794" lon="6.78302">
        <ele>1069.57</ele>
        <time>2018-09-09T13:22:47Z</time>
      </trkpt>
      <trkpt lat="45.65814" lon="6.78296">
        <ele>1070.58</ele>
        <time>2018-09-09T13:22:48Z</time>
      </trkpt>
      <trkpt lat="45.65832" lon="6.78289">
        <ele>1072.29</ele>
        <time>2018-09-09T13:22:49Z</time>
      </trkpt>
      <trkpt lat="45.6585" lon="6.78283">
        <ele>1074.2</ele>
        <time>2018-09-09T13:22:50Z</time>
      </trkpt>
      <trkpt lat="45.65868" lon="6.78274">
        <ele>1076.17</ele>
        <time>2018-09-09T13:22:51Z</time>
      </trkpt>
      <trkpt lat="45.65885" lon="6.78265">
        <ele>1078.16</ele>
        <time>2018-09-09T13:22:52Z</time>
      </trkpt>
      <trkpt lat="45.65915" lon="6.78237">
        <ele>1081.46</ele>
        <time>2018-09-09T13:22:54Z</time>
      </trkpt>
      <trkpt lat="45.65926" lon="6.78209">
        <ele>1083.25</ele>
        <time>2018-09-09T13:22:55Z</time>
      </trkpt>
      <trkpt lat="45.65953" lon="6.78182">
        <ele>1086.26</ele>
        <time>2018-09-09T13:22:57Z</time>
      </trkpt>
      <trkpt lat="45.65987" lon="6.78175">
        <ele>1090.66</ele>
        <time>2018-09-09T13:22:59Z</time>
      </trkpt>
      <trkpt lat="45.66005" lon="6.78174">
        <ele>1091.61</ele>
        <time>2018-09-09T13:23:00Z</time>
      </trkpt>
      <trkpt lat="45.66037" lon="6.78173">
        <ele>1095.69</ele>
        <time>2018-09-09T13:23:02Z</time>
      </trkpt>
      <trkpt lat="45.66067" lon="6.78154">
        <ele>1098.51</ele>
        <time>2018-09-09T13:23:04Z</time>
      </trkpt>
      <trkpt lat="45.66093" lon="6.78109">
        <ele>1100.58</ele>
        <time>2018-09-09T13:23:06Z</time>
      </trkpt>
      <trkpt lat="45.66106" lon="6.78089">
        <ele>1100.88</ele>
        <time>2018-09-09T13:23:07Z</time>
      </trkpt>
      <trkpt lat="45.66119" lon="6.78068">
        <ele>1100.98</ele>
        <time>2018-09-09T13:23:08Z</time>
      </trkpt>
      <trkpt lat="45.66135" lon="6.78056">
        <ele>1102.4</ele>
        <time>2018-09-09T13:23:09Z</time>
      </trkpt>
      <trkpt lat="45.66152" lon="6.78041">
        <ele>1102.83</ele>
        <time>2018-09-09T13:23:10Z</time>
      </trkpt>
      <trkpt lat="45.66172" lon="6.78031">
        <ele>1104.36</ele>
        <time>2018-09-09T13:23:11Z</time>
      </trkpt>
      <trkpt lat="45.66191" lon="6.78015">
        <ele>1104.82</ele>
        <time>2018-09-09T13:23:12Z</time>
      </trkpt>
      <trkpt lat="45.66207" lon="6.78">
        <ele>1107.06</ele>
        <time>2018-09-09T13:23:13Z</time>
      </trkpt>
      <trkpt lat="45.66222" lon="6.77982">
        <ele>1108.43</ele>
        <time>2018-09-09T13:23:14Z</time>
      </trkpt>
      <trkpt lat="45.66236" lon="6.77961">
        <ele>1109.54</ele>
        <time>2018-09-09T13:23:15Z</time>
      </trkpt>
      <trkpt lat="45.66249" lon="6.77939">
        <ele>1109.87</ele>
        <time>2018-09-09T13:23:16Z</time>
      </trkpt>
      <trkpt lat="45.66272" lon="6.77909">
        <ele>1112.31</ele>
        <time>2018-09-09T13:23:18Z</time>
      </trkpt>
      <trkpt lat="45.66297" lon="6.77891">
        <ele>1113.86</ele>
        <time>2018-09-09T13:23:20Z</time>
      </trkpt>
      <trkpt lat="45.66317" lon="6.779">
        <ele>1114.67</ele>
        <time>2018-09-09T13:23:21Z</time>
      </trkpt>
      <trkpt lat="45.66347" lon="6.77892">
        <ele>1117.5</ele>
        <time>2018-09-09T13:23:23Z</time>
      </trkpt>
      <trkpt lat="45.66376" lon="6.77868">
        <ele>1119.79</ele>
        <time>2018-09-09T13:23:25Z</time>
      </trkpt>
      <trkpt lat="45.6639" lon="6.7785">
        <ele>1119.95</ele>
        <time>2018-09-09T13:23:26Z</time>
      </trkpt>
      <trkpt lat="45.66405" lon="6.77822">
        <ele>1120.69</ele>
        <time>2018-09-09T13:23:27Z</time>
      </trkpt>
      <trkpt lat="45.66422" lon="6.77805">
        <ele>1120.92</ele>
        <time>2018-09-09T13:23:28Z</time>
      </trkpt>
      <trkpt lat="45.6644" lon="6.77789">
        <ele>1120.99</ele>
        <time>2018-09-09T13:23:29Z</time>
      </trkpt>
      <trkpt lat="45.66457" lon="6.77774">
        <ele>1123.11</ele>
        <time>2018-09-09T13:23:30Z</time>
      </trkpt>
      <trkpt lat="45.66474" lon="6.77758">
        <ele>1125.14</ele>
        <time>2018-09-09T13:23:31Z</time>
      </trkpt>
      <trkpt lat="45.66488" lon="6.77742">
        <ele>1127.85</ele>
        <time>2018-09-09T13:23:32Z</time>
      </trkpt>
      <trkpt lat="45.66515" lon="6.77713">
        <ele>1132.34</ele>
        <time>2018-09-09T13:23:34Z</time>
      </trkpt>
      <trkpt lat="45.66533" lon="6.77676">
        <ele>1135.26</ele>
        <time>2018-09-09T13:23:36Z</time>
      </trkpt>
      <trkpt lat="45.66544" lon="6.77622">
        <ele>1139.17</ele>
        <time>2018-09-09T13:23:38Z</time>
      </trkpt>
      <trkpt lat="45.66548" lon="6.77596">
        <ele>1141.16</ele>
        <time>2018-09-09T13:23:39Z</time>
      </trkpt>
      <trkpt lat="45.66554" lon="6.77572">
        <ele>1143.16</ele>
        <time>2018-09-09T13:23:40Z</time>
      </trkpt>
      <trkpt lat="45.66569" lon="6.77531">
        <ele>1144.64</ele>
        <time>2018-09-09T13:23:42Z</time>
      </trkpt>
      <trkpt lat="45.66588" lon="6.77495">
        <ele>1147.29</ele>
        <time>2018-09-09T13:23:44Z</time>
      </trkpt>
      <trkpt lat="45.66604" lon="6.77463">
        <ele>1152.08</ele>
        <time>2018-09-09T13:23:46Z</time>
      </trkpt>
      <trkpt lat="45.66619" lon="6.77443">
        <ele>1155.24</ele>
        <time>2018-09-09T13:23:48Z</time>
      </trkpt>
      <trkpt lat="45.66639" lon="6.77452">
        <ele>1159.82</ele>
        <time>2018-09-09T13:23:51Z</time>
      </trkpt>
      <trkpt lat="45.66631" lon="6.77492">
        <ele>1162.38</ele>
        <time>2018-09-09T13:23:54Z</time>
      </trkpt>
      <trkpt lat="45.66625" lon="6.77526">
        <ele>1164.36</ele>
        <time>2018-09-09T13:23:56Z</time>
      </trkpt>
      <trkpt lat="45.66639" lon="6.77558">
        <ele>1163.35</ele>
        <time>2018-09-09T13:23:58Z</time>
      </trkpt>
      <trkpt lat="45.66647" lon="6.77589">
        <ele>1165.35</ele>
        <time>2018-09-09T13:24:00Z</time>
      </trkpt>
      <trkpt lat="45.66647" lon="6.7762">
        <ele>1166.91</ele>
        <time>2018-09-09T13:24:03Z</time>
      </trkpt>
      <trkpt lat="45.66665" lon="6.77576">
        <ele>1170.57</ele>
        <time>2018-09-09T13:24:07Z</time>
      </trkpt>
      <trkpt lat="45.66682" lon="6.77535">
        <ele>1170.97</ele>
        <time>2018-09-09T13:24:09Z</time>
      </trkpt>
      <trkpt lat="45.66702" lon="6.77495">
        <ele>1173.11</ele>
        <time>2018-09-09T13:24:11Z</time>
      </trkpt>
      <trkpt lat="45.6672" lon="6.77458">
        <ele>1176.45</ele>
        <time>2018-09-09T13:24:13Z</time>
      </trkpt>
      <trkpt lat="45.66731" lon="6.77413">
        <ele>1177.66</ele>
        <time>2018-09-09T13:24:15Z</time>
      </trkpt>
      <trkpt lat="45.66716" lon="6.77379">
        <ele>1180.29</ele>
        <time>2018-09-09T13:24:17Z</time>
      </trkpt>
      <trkpt lat="45.66699" lon="6.7736">
        <ele>1183.68</ele>
        <time>2018-09-09T13:24:19Z</time>
      </trkpt>
      <trkpt lat="45.66697" lon="6.7733">
        <ele>1185.59</ele>
        <time>2018-09-09T13:24:21Z</time>
      </trkpt>
      <trkpt lat="45.66702" lon="6.77297">
        <ele>1188.29</ele>
        <time>2018-09-09T13:24:23Z</time>
      </trkpt>
      <trkpt lat="45.66711" lon="6.7727">
        <ele>1190.56</ele>
        <time>2018-09-09T13:24:25Z</time>
      </trkpt>
      <trkpt lat="45.66712" lon="6.77236">
        <ele>1194.19</ele>
        <time>2018-09-09T13:24:27Z</time>
      </trkpt>
      <trkpt lat="45.66716" lon="6.77273">
        <ele>1205.93</ele>
        <time>2018-09-09T13:24:36Z</time>
      </trkpt>
      <trkpt lat="45.66732" lon="6.77303">
        <ele>1207.62</ele>
        <time>2018-09-09T13:24:39Z</time>
      </trkpt>
      <trkpt lat="45.66745" lon="6.77322">
        <ele>1207.07</ele>
        <time>2018-09-09T13:24:41Z</time>
      </trkpt>
      <trkpt lat="45.66739" lon="6.77352">
        <ele>1207.93</ele>
        <time>2018-09-09T13:24:43Z</time>
      </trkpt>
      <trkpt lat="45.66737" lon="6.77381">
        <ele>1210.32</ele>
        <time>2018-09-09T13:24:45Z</time>
      </trkpt>
      <trkpt lat="45.6675" lon="6.77417">
        <ele>1212.56</ele>
        <time>2018-09-09T13:24:47Z</time>
      </trkpt>
      <trkpt lat="45.6677" lon="6.7745">
        <ele>1212.97</ele>
        <time>2018-09-09T13:24:49Z</time>
      </trkpt>
      <trkpt lat="45.66777" lon="6.77482">
        <ele>1214.62</ele>
        <time>2018-09-09T13:24:51Z</time>
      </trkpt>
      <trkpt lat="45.66796" lon="6.77486">
        <ele>1220.28</ele>
        <time>2018-09-09T13:24:55Z</time>
      </trkpt>
      <trkpt lat="45.66791" lon="6.77445">
        <ele>1222.88</ele>
        <time>2018-09-09T13:24:58Z</time>
      </trkpt>
      <trkpt lat="45.66783" lon="6.77405">
        <ele>1223.7</ele>
        <time>2018-09-09T13:25:00Z</time>
      </trkpt>
      <trkpt lat="45.66773" lon="6.77361">
        <ele>1228.12</ele>
        <time>2018-09-09T13:25:02Z</time>
      </trkpt>
      <trkpt lat="45.66768" lon="6.77318">
        <ele>1231.24</ele>
        <time>2018-09-09T13:25:04Z</time>
      </trkpt>
      <trkpt lat="45.66771" lon="6.77281">
        <ele>1236.78</ele>
        <time>2018-09-09T13:25:06Z</time>
      </trkpt>
      <trkpt lat="45.66766" lon="6.77251">
        <ele>1238.39</ele>
        <time>2018-09-09T13:25:08Z</time>
      </trkpt>
      <trkpt lat="45.66779" lon="6.77228">
        <ele>1243.25</ele>
        <time>2018-09-09T13:25:11Z</time>
      </trkpt>
      <trkpt lat="45.66799" lon="6.77221">
        <ele>1245.56</ele>
        <time>2018-09-09T13:25:13Z</time>
      </trkpt>
      <trkpt lat="45.66808" lon="6.77188">
        <ele>1248.31</ele>
        <time>2018-09-09T13:25:16Z</time>
      </trkpt>
      <trkpt lat="45.6682" lon="6.77211">
        <ele>1254.59</ele>
        <time>2018-09-09T13:25:22Z</time>
      </trkpt>
      <trkpt lat="45.66814" lon="6.77241">
        <ele>1255.68</ele>
        <time>2018-09-09T13:25:24Z</time>
      </trkpt>
      <trkpt lat="45.66801" lon="6.77272">
        <ele>1259.29</ele>
        <time>2018-09-09T13:25:27Z</time>
      </trkpt>
      <trkpt lat="45.66809" lon="6.77303">
        <ele>1262.26</ele>
        <time>2018-09-09T13:25:29Z</time>
      </trkpt>
      <trkpt lat="45.66822" lon="6.77335">
        <ele>1262.74</ele>
        <time>2018-09-09T13:25:31Z</time>
      </trkpt>
      <trkpt lat="45.66827" lon="6.77375">
        <ele>1265.51</ele>
        <time>2018-09-09T13:25:33Z</time>
      </trkpt>
      <trkpt lat="45.6683" lon="6.77415">
        <ele>1268.49</ele>
        <time>2018-09-09T13:25:35Z</time>
      </trkpt>
      <trkpt lat="45.6684" lon="6.77445">
        <ele>1270.79</ele>
        <time>2018-09-09T13:25:37Z</time>
      </trkpt>
      <trkpt lat="45.66857" lon="6.7747">
        <ele>1274</ele>
        <time>2018-09-09T13:25:39Z</time>
      </trkpt>
      <trkpt lat="45.66866" lon="6.77497">
        <ele>1276.53</ele>
        <time>2018-09-09T13:25:41Z</time>
      </trkpt>
      <trkpt lat="45.66858" lon="6.77524">
        <ele>1277.67</ele>
        <time>2018-09-09T13:25:43Z</time>
      </trkpt>
      <trkpt lat="45.66877" lon="6.77494">
        <ele>1279.41</ele>
        <time>2018-09-09T13:25:50Z</time>
      </trkpt>
      <trkpt lat="45.66885" lon="6.77459">
        <ele>1282.48</ele>
        <time>2018-09-09T13:25:52Z</time>
      </trkpt>
      <trkpt lat="45.66873" lon="6.77429">
        <ele>1286.4</ele>
        <time>2018-09-09T13:25:54Z</time>
      </trkpt>
      <trkpt lat="45.66874" lon="6.77396">
        <ele>1290.39</ele>
        <time>2018-09-09T13:25:56Z</time>
      </trkpt>
      <trkpt lat="45.66876" lon="6.77357">
        <ele>1291.87</ele>
        <time>2018-09-09T13:25:58Z</time>
      </trkpt>
      <trkpt lat="45.66874" lon="6.77316">
        <ele>1293.61</ele>
        <time>2018-09-09T13:26:00Z</time>
      </trkpt>
      <trkpt lat="45.66873" lon="6.77277">
        <ele>1293.07</ele>
        <time>2018-09-09T13:26:02Z</time>
      </trkpt>
      <trkpt lat="45.66884" lon="6.77235">
        <ele>1295.54</ele>
        <time>2018-09-09T13:26:04Z</time>
      </trkpt>
      <trkpt lat="45.66886" lon="6.77197">
        <ele>1299.4</ele>
        <time>2018-09-09T13:26:06Z</time>
      </trkpt>
      <trkpt lat="45.66898" lon="6.77233">
        <ele>1305.53</ele>
        <time>2018-09-09T13:26:13Z</time>
      </trkpt>
      <trkpt lat="45.66901" lon="6.77281">
        <ele>1308.49</ele>
        <time>2018-09-09T13:26:15Z</time>
      </trkpt>
      <trkpt lat="45.66908" lon="6.77326">
        <ele>1310.58</ele>
        <time>2018-09-09T13:26:17Z</time>
      </trkpt>
      <trkpt lat="45.66917" lon="6.77361">
        <ele>1314.41</ele>
        <time>2018-09-09T13:26:19Z</time>
      </trkpt>
      <trkpt lat="45.66923" lon="6.77389">
        <ele>1316.57</ele>
        <time>2018-09-09T13:26:21Z</time>
      </trkpt>
      <trkpt lat="45.66926" lon="6.77417">
        <ele>1318.89</ele>
        <time>2018-09-09T13:26:24Z</time>
      </trkpt>
      <trkpt lat="45.6694" lon="6.77398">
        <ele>1319.01</ele>
        <time>2018-09-09T13:26:28Z</time>
      </trkpt>
      <trkpt lat="45.66935" lon="6.77369">
        <ele>1320.41</ele>
        <time>2018-09-09T13:26:29Z</time>
      </trkpt>
      <trkpt lat="45.66934" lon="6.77326">
        <ele>1324.18</ele>
        <time>2018-09-09T13:26:31Z</time>
      </trkpt>
      <trkpt lat="45.66935" lon="6.77279">
        <ele>1327.25</ele>
        <time>2018-09-09T13:26:33Z</time>
      </trkpt>
      <trkpt lat="45.66938" lon="6.77241">
        <ele>1330.47</ele>
        <time>2018-09-09T13:26:35Z</time>
      </trkpt>
      <trkpt lat="45.66952" lon="6.7721">
        <ele>1330.97</ele>
        <time>2018-09-09T13:26:37Z</time>
      </trkpt>
      <trkpt lat="45.6696" lon="6.7718">
        <ele>1332.62</ele>
        <time>2018-09-09T13:26:39Z</time>
      </trkpt>
      <trkpt lat="45.66979" lon="6.77178">
        <ele>1336.97</ele>
        <time>2018-09-09T13:26:44Z</time>
      </trkpt>
      <trkpt lat="45.66971" lon="6.77209">
        <ele>1338.41</ele>
        <time>2018-09-09T13:26:46Z</time>
      </trkpt>
      <trkpt lat="45.66973" lon="6.77248">
        <ele>1338.75</ele>
        <time>2018-09-09T13:26:48Z</time>
      </trkpt>
      <trkpt lat="45.66977" lon="6.77299">
        <ele>1342.21</ele>
        <time>2018-09-09T13:26:50Z</time>
      </trkpt>
      <trkpt lat="45.66979" lon="6.77327">
        <ele>1344.87</ele>
        <time>2018-09-09T13:26:51Z</time>
      </trkpt>
      <trkpt lat="45.66982" lon="6.77353">
        <ele>1346.37</ele>
        <time>2018-09-09T13:26:52Z</time>
      </trkpt>
      <trkpt lat="45.66985" lon="6.77397">
        <ele>1347.87</ele>
        <time>2018-09-09T13:26:54Z</time>
      </trkpt>
      <trkpt lat="45.66979" lon="6.77424">
        <ele>1349.82</ele>
        <time>2018-09-09T13:26:56Z</time>
      </trkpt>
      <trkpt lat="45.66983" lon="6.77452">
        <ele>1354.66</ele>
        <time>2018-09-09T13:27:00Z</time>
      </trkpt>
      <trkpt lat="45.66996" lon="6.77408">
        <ele>1356.68</ele>
        <time>2018-09-09T13:27:03Z</time>
      </trkpt>
      <trkpt lat="45.67007" lon="6.77367">
        <ele>1360.2</ele>
        <time>2018-09-09T13:27:05Z</time>
      </trkpt>
      <trkpt lat="45.67014" lon="6.77316">
        <ele>1363.25</ele>
        <time>2018-09-09T13:27:07Z</time>
      </trkpt>
      <trkpt lat="45.67015" lon="6.7729">
        <ele>1365.89</ele>
        <time>2018-09-09T13:27:08Z</time>
      </trkpt>
      <trkpt lat="45.67015" lon="6.77263">
        <ele>1368.08</ele>
        <time>2018-09-09T13:27:09Z</time>
      </trkpt>
      <trkpt lat="45.67014" lon="6.77236">
        <ele>1369.43</ele>
        <time>2018-09-09T13:27:10Z</time>
      </trkpt>
      <trkpt lat="45.67013" lon="6.77209">
        <ele>1371.94</ele>
        <time>2018-09-09T13:27:11Z</time>
      </trkpt>
      <trkpt lat="45.67019" lon="6.7716">
        <ele>1376.14</ele>
        <time>2018-09-09T13:27:13Z</time>
      </trkpt>
      <trkpt lat="45.67026" lon="6.77126">
        <ele>1380.16</ele>
        <time>2018-09-09T13:27:15Z</time>
      </trkpt>
      <trkpt lat="45.67035" lon="6.77101">
        <ele>1381.85</ele>
        <time>2018-09-09T13:27:17Z</time>
      </trkpt>
      <trkpt lat="45.67033" lon="6.7707">
        <ele>1384</ele>
        <time>2018-09-09T13:27:21Z</time>
      </trkpt>
      <trkpt lat="45.67022" lon="6.77036">
        <ele>1384.92</ele>
        <time>2018-09-09T13:27:24Z</time>
      </trkpt>
      <trkpt lat="45.67028" lon="6.77007">
        <ele>1386.83</ele>
        <time>2018-09-09T13:27:26Z</time>
      </trkpt>
      <trkpt lat="45.67051" lon="6.76972">
        <ele>1388.4</ele>
        <time>2018-09-09T13:27:28Z</time>
      </trkpt>
      <trkpt lat="45.67074" lon="6.76934">
        <ele>1391.27</ele>
        <time>2018-09-09T13:27:30Z</time>
      </trkpt>
      <trkpt lat="45.67084" lon="6.76912">
        <ele>1392.49</ele>
        <time>2018-09-09T13:27:31Z</time>
      </trkpt>
      <trkpt lat="45.67094" lon="6.76889">
        <ele>1392.16</ele>
        <time>2018-09-09T13:27:32Z</time>
      </trkpt>
      <trkpt lat="45.67101" lon="6.76864">
        <ele>1392.76</ele>
        <time>2018-09-09T13:27:33Z</time>
      </trkpt>
      <trkpt lat="45.67103" lon="6.76836">
        <ele>1393.64</ele>
        <time>2018-09-09T13:27:34Z</time>
      </trkpt>
      <trkpt lat="45.67111" lon="6.76792">
        <ele>1394.47</ele>
        <time>2018-09-09T13:27:36Z</time>
      </trkpt>
      <trkpt lat="45.67117" lon="6.76748">
        <ele>1395.88</ele>
        <time>2018-09-09T13:27:38Z</time>
      </trkpt>
      <trkpt lat="45.67111" lon="6.76709">
        <ele>1399.01</ele>
        <time>2018-09-09T13:27:40Z</time>
      </trkpt>
      <trkpt lat="45.67115" lon="6.76666">
        <ele>1402.65</ele>
        <time>2018-09-09T13:27:42Z</time>
      </trkpt>
      <trkpt lat="45.67118" lon="6.76616">
        <ele>1404.59</ele>
        <time>2018-09-09T13:27:44Z</time>
      </trkpt>
      <trkpt lat="45.67116" lon="6.76589">
        <ele>1406.99</ele>
        <time>2018-09-09T13:27:45Z</time>
      </trkpt>
      <trkpt lat="45.67114" lon="6.76542">
        <ele>1410.23</ele>
        <time>2018-09-09T13:27:47Z</time>
      </trkpt>
      <trkpt lat="45.67123" lon="6.76506">
        <ele>1411.85</ele>
        <time>2018-09-09T13:27:49Z</time>
      </trkpt>
      <trkpt lat="45.67133" lon="6.76469">
        <ele>1413.4</ele>
        <time>2018-09-09T13:27:51Z</time>
      </trkpt>
      <trkpt lat="45.67136" lon="6.76443">
        <ele>1414.53</ele>
        <time>2018-09-09T13:27:52Z</time>
      </trkpt>
      <trkpt lat="45.67135" lon="6.76416">
        <ele>1415.57</ele>
        <time>2018-09-09T13:27:53Z</time>
      </trkpt>
      <trkpt lat="45.67127" lon="6.76392">
        <ele>1417.28</ele>
        <time>2018-09-09T13:27:54Z</time>
      </trkpt>
      <trkpt lat="45.67119" lon="6.76351">
        <ele>1422.08</ele>
        <time>2018-09-09T13:27:56Z</time>
      </trkpt>
      <trkpt lat="45.67115" lon="6.76314">
        <ele>1424.75</ele>
        <time>2018-09-09T13:27:58Z</time>
      </trkpt>
      <trkpt lat="45.67127" lon="6.76287">
        <ele>1426.34</ele>
        <time>2018-09-09T13:27:59Z</time>
      </trkpt>
      <trkpt lat="45.67133" lon="6.76234">
        <ele>1431.36</ele>
        <time>2018-09-09T13:28:01Z</time>
      </trkpt>
      <trkpt lat="45.67134" lon="6.76207">
        <ele>1433.92</ele>
        <time>2018-09-09T13:28:02Z</time>
      </trkpt>
      <trkpt lat="45.67133" lon="6.76179">
        <ele>1436.79</ele>
        <time>2018-09-09T13:28:03Z</time>
      </trkpt>
      <trkpt lat="45.67132" lon="6.76151">
        <ele>1438.35</ele>
        <time>2018-09-09T13:28:04Z</time>
      </trkpt>
      <trkpt lat="45.6713" lon="6.76125">
        <ele>1440.91</ele>
        <time>2018-09-09T13:28:05Z</time>
      </trkpt>
      <trkpt lat="45.67129" lon="6.76077">
        <ele>1442.83</ele>
        <time>2018-09-09T13:28:07Z</time>
      </trkpt>
      <trkpt lat="45.67115" lon="6.76043">
        <ele>1446.71</ele>
        <time>2018-09-09T13:28:09Z</time>
      </trkpt>
      <trkpt lat="45.6711" lon="6.76011">
        <ele>1449.72</ele>
        <time>2018-09-09T13:28:11Z</time>
      </trkpt>
      <trkpt lat="45.671" lon="6.75979">
        <ele>1451.39</ele>
        <time>2018-09-09T13:28:13Z</time>
      </trkpt>
      <trkpt lat="45.67081" lon="6.75953">
        <ele>1454.48</ele>
        <time>2018-09-09T13:28:15Z</time>
      </trkpt>
      <trkpt lat="45.67061" lon="6.75931">
        <ele>1458.4</ele>
        <time>2018-09-09T13:28:17Z</time>
      </trkpt>
      <trkpt lat="45.67048" lon="6.75907">
        <ele>1461.27</ele>
        <time>2018-09-09T13:28:19Z</time>
      </trkpt>
      <trkpt lat="45.67047" lon="6.7588">
        <ele>1462.86</ele>
        <time>2018-09-09T13:28:21Z</time>
      </trkpt>
      <trkpt lat="45.67068" lon="6.75845">
        <ele>1464.61</ele>
        <time>2018-09-09T13:28:23Z</time>
      </trkpt>
      <trkpt lat="45.67087" lon="6.75807">
        <ele>1466.59</ele>
        <time>2018-09-09T13:28:25Z</time>
      </trkpt>
      <trkpt lat="45.67106" lon="6.75769">
        <ele>1466.98</ele>
        <time>2018-09-09T13:28:27Z</time>
      </trkpt>
      <trkpt lat="45.67123" lon="6.75749">
        <ele>1467.22</ele>
        <time>2018-09-09T13:28:29Z</time>
      </trkpt>
      <trkpt lat="45.67147" lon="6.75751">
        <ele>1468.64</ele>
        <time>2018-09-09T13:28:31Z</time>
      </trkpt>
      <trkpt lat="45.67174" lon="6.75754">
        <ele>1468.98</ele>
        <time>2018-09-09T13:28:33Z</time>
      </trkpt>
      <trkpt lat="45.67202" lon="6.75741">
        <ele>1469.01</ele>
        <time>2018-09-09T13:28:35Z</time>
      </trkpt>
      <trkpt lat="45.6723" lon="6.75725">
        <ele>1469.92</ele>
        <time>2018-09-09T13:28:37Z</time>
      </trkpt>
      <trkpt lat="45.67253" lon="6.75697">
        <ele>1470.92</ele>
        <time>2018-09-09T13:28:39Z</time>
      </trkpt>
      <trkpt lat="45.67276" lon="6.75665">
        <ele>1471.92</ele>
        <time>2018-09-09T13:28:41Z</time>
      </trkpt>
      <trkpt lat="45.67298" lon="6.75636">
        <ele>1471.31</ele>
        <time>2018-09-09T13:28:43Z</time>
      </trkpt>
      <trkpt lat="45.6731" lon="6.75597">
        <ele>1471.95</ele>
        <time>2018-09-09T13:28:45Z</time>
      </trkpt>
      <trkpt lat="45.67322" lon="6.75554">
        <ele>1472.01</ele>
        <time>2018-09-09T13:28:47Z</time>
      </trkpt>
      <trkpt lat="45.67341" lon="6.75517">
        <ele>1472.01</ele>
        <time>2018-09-09T13:28:49Z</time>
      </trkpt>
      <trkpt lat="45.67366" lon="6.75485">
        <ele>1472.92</ele>
        <time>2018-09-09T13:28:51Z</time>
      </trkpt>
      <trkpt lat="45.67379" lon="6.75467">
        <ele>1472.29</ele>
        <time>2018-09-09T13:28:52Z</time>
      </trkpt>
      <trkpt lat="45.67393" lon="6.75448">
        <ele>1472.8</ele>
        <time>2018-09-09T13:28:53Z</time>
      </trkpt>
      <trkpt lat="45.67402" lon="6.75425">
        <ele>1472.95</ele>
        <time>2018-09-09T13:28:54Z</time>
      </trkpt>
      <trkpt lat="45.67416" lon="6.7538">
        <ele>1472.31</ele>
        <time>2018-09-09T13:28:56Z</time>
      </trkpt>
      <trkpt lat="45.67422" lon="6.7534">
        <ele>1472.25</ele>
        <time>2018-09-09T13:28:58Z</time>
      </trkpt>
      <trkpt lat="45.67419" lon="6.75298">
        <ele>1472.95</ele>
        <time>2018-09-09T13:29:00Z</time>
      </trkpt>
      <trkpt lat="45.67416" lon="6.75249">
        <ele>1473.01</ele>
        <time>2018-09-09T13:29:02Z</time>
      </trkpt>
      <trkpt lat="45.67417" lon="6.75223">
        <ele>1473.01</ele>
        <time>2018-09-09T13:29:03Z</time>
      </trkpt>
      <trkpt lat="45.67423" lon="6.75173">
        <ele>1473.92</ele>
        <time>2018-09-09T13:29:05Z</time>
      </trkpt>
      <trkpt lat="45.67441" lon="6.75132">
        <ele>1474.92</ele>
        <time>2018-09-09T13:29:07Z</time>
      </trkpt>
      <trkpt lat="45.67466" lon="6.75094">
        <ele>1475.92</ele>
        <time>2018-09-09T13:29:09Z</time>
      </trkpt>
      <trkpt lat="45.67479" lon="6.75076">
        <ele>1475.99</ele>
        <time>2018-09-09T13:29:10Z</time>
      </trkpt>
      <trkpt lat="45.67495" lon="6.75059">
        <ele>1476.71</ele>
        <time>2018-09-09T13:29:11Z</time>
      </trkpt>
      <trkpt lat="45.6751" lon="6.75043">
        <ele>1476.92</ele>
        <time>2018-09-09T13:29:12Z</time>
      </trkpt>
      <trkpt lat="45.67526" lon="6.75025">
        <ele>1476.29</ele>
        <time>2018-09-09T13:29:13Z</time>
      </trkpt>
      <trkpt lat="45.6754" lon="6.75006">
        <ele>1476.1</ele>
        <time>2018-09-09T13:29:14Z</time>
      </trkpt>
      <trkpt lat="45.67552" lon="6.74986">
        <ele>1477.1</ele>
        <time>2018-09-09T13:29:15Z</time>
      </trkpt>
      <trkpt lat="45.67562" lon="6.74962">
        <ele>1477.4</ele>
        <time>2018-09-09T13:29:16Z</time>
      </trkpt>
      <trkpt lat="45.67563" lon="6.74932">
        <ele>1477.49</ele>
        <time>2018-09-09T13:29:17Z</time>
      </trkpt>
      <trkpt lat="45.67566" lon="6.74904">
        <ele>1477.52</ele>
        <time>2018-09-09T13:29:18Z</time>
      </trkpt>
      <trkpt lat="45.67571" lon="6.74856">
        <ele>1478.44</ele>
        <time>2018-09-09T13:29:20Z</time>
      </trkpt>
      <trkpt lat="45.67585" lon="6.74811">
        <ele>1479.43</ele>
        <time>2018-09-09T13:29:22Z</time>
      </trkpt>
      <trkpt lat="45.67604" lon="6.74772">
        <ele>1481.13</ele>
        <time>2018-09-09T13:29:24Z</time>
      </trkpt>
      <trkpt lat="45.67618" lon="6.74731">
        <ele>1483.32</ele>
        <time>2018-09-09T13:29:26Z</time>
      </trkpt>
      <trkpt lat="45.67642" lon="6.747">
        <ele>1485.12</ele>
        <time>2018-09-09T13:29:28Z</time>
      </trkpt>
      <trkpt lat="45.67673" lon="6.74676">
        <ele>1486.4</ele>
        <time>2018-09-09T13:29:30Z</time>
      </trkpt>
      <trkpt lat="45.67689" lon="6.74659">
        <ele>1487.19</ele>
        <time>2018-09-09T13:29:31Z</time>
      </trkpt>
      <trkpt lat="45.67704" lon="6.74643">
        <ele>1488.13</ele>
        <time>2018-09-09T13:29:32Z</time>
      </trkpt>
      <trkpt lat="45.67719" lon="6.74624">
        <ele>1487.71</ele>
        <time>2018-09-09T13:29:33Z</time>
      </trkpt>
      <trkpt lat="45.6773" lon="6.74595">
        <ele>1488.28</ele>
        <time>2018-09-09T13:29:34Z</time>
      </trkpt>
      <trkpt lat="45.6774" lon="6.74565">
        <ele>1490.56</ele>
        <time>2018-09-09T13:29:35Z</time>
      </trkpt>
      <trkpt lat="45.67752" lon="6.74531">
        <ele>1491.94</ele>
        <time>2018-09-09T13:29:36Z</time>
      </trkpt>
      <trkpt lat="45.67765" lon="6.74497">
        <ele>1493.75</ele>
        <time>2018-09-09T13:29:37Z</time>
      </trkpt>
      <trkpt lat="45.6778" lon="6.74462">
        <ele>1495</ele>
        <time>2018-09-09T13:29:38Z</time>
      </trkpt>
      <trkpt lat="45.67792" lon="6.7443">
        <ele>1496.77</ele>
        <time>2018-09-09T13:29:39Z</time>
      </trkpt>
      <trkpt lat="45.67804" lon="6.74399">
        <ele>1498.7</ele>
        <time>2018-09-09T13:29:40Z</time>
      </trkpt>
      <trkpt lat="45.67815" lon="6.74371">
        <ele>1499.98</ele>
        <time>2018-09-09T13:29:41Z</time>
      </trkpt>
      <trkpt lat="45.67827" lon="6.74344">
        <ele>1501.77</ele>
        <time>2018-09-09T13:29:42Z</time>
      </trkpt>
      <trkpt lat="45.67841" lon="6.74319">
        <ele>1502.3</ele>
        <time>2018-09-09T13:29:43Z</time>
      </trkpt>
      <trkpt lat="45.67856" lon="6.74296">
        <ele>1503.16</ele>
        <time>2018-09-09T13:29:44Z</time>
      </trkpt>
      <trkpt lat="45.67874" lon="6.74274">
        <ele>1504.82</ele>
        <time>2018-09-09T13:29:45Z</time>
      </trkpt>
      <trkpt lat="45.67892" lon="6.74253">
        <ele>1506.02</ele>
        <time>2018-09-09T13:29:46Z</time>
      </trkpt>
      <trkpt lat="45.6791" lon="6.74232">
        <ele>1507.08</ele>
        <time>2018-09-09T13:29:47Z</time>
      </trkpt>
      <trkpt lat="45.67929" lon="6.7421">
        <ele>1508.09</ele>
        <time>2018-09-09T13:29:48Z</time>
      </trkpt>
      <trkpt lat="45.67948" lon="6.74187">
        <ele>1509.8</ele>
        <time>2018-09-09T13:29:49Z</time>
      </trkpt>
      <trkpt lat="45.67968" lon="6.74164">
        <ele>1511.71</ele>
        <time>2018-09-09T13:29:50Z</time>
      </trkpt>
      <trkpt lat="45.67987" lon="6.74139">
        <ele>1513.69</ele>
        <time>2018-09-09T13:29:51Z</time>
      </trkpt>
      <trkpt lat="45.68008" lon="6.74115">
        <ele>1514.98</ele>
        <time>2018-09-09T13:29:52Z</time>
      </trkpt>
      <trkpt lat="45.68029" lon="6.74092">
        <ele>1517.46</ele>
        <time>2018-09-09T13:29:53Z</time>
      </trkpt>
      <trkpt lat="45.6805" lon="6.7407">
        <ele>1520.31</ele>
        <time>2018-09-09T13:29:54Z</time>
      </trkpt>
      <trkpt lat="45.6807" lon="6.7405">
        <ele>1521.86</ele>
        <time>2018-09-09T13:29:55Z</time>
      </trkpt>
      <trkpt lat="45.6809" lon="6.74029">
        <ele>1523.73</ele>
        <time>2018-09-09T13:29:56Z</time>
      </trkpt>
      <trkpt lat="45.68109" lon="6.74008">
        <ele>1524.99</ele>
        <time>2018-09-09T13:29:57Z</time>
      </trkpt>
      <trkpt lat="45.68129" lon="6.73989">
        <ele>1526.07</ele>
        <time>2018-09-09T13:29:58Z</time>
      </trkpt>
      <trkpt lat="45.6815" lon="6.73975">
        <ele>1527.09</ele>
        <time>2018-09-09T13:29:59Z</time>
      </trkpt>
      <trkpt lat="45.68171" lon="6.73962">
        <ele>1527.4</ele>
        <time>2018-09-09T13:30:00Z</time>
      </trkpt>
      <trkpt lat="45.68191" lon="6.7395">
        <ele>1527.49</ele>
        <time>2018-09-09T13:30:01Z</time>
      </trkpt>
      <trkpt lat="45.68222" lon="6.73926">
        <ele>1528.23</ele>
        <time>2018-09-09T13:30:03Z</time>
      </trkpt>
      <trkpt lat="45.68241" lon="6.7391">
        <ele>1528.44</ele>
        <time>2018-09-09T13:30:04Z</time>
      </trkpt>
      <trkpt lat="45.68257" lon="6.73891">
        <ele>1528.5</ele>
        <time>2018-09-09T13:30:05Z</time>
      </trkpt>
      <trkpt lat="45.68267" lon="6.73854">
        <ele>1529.92</ele>
        <time>2018-09-09T13:30:06Z</time>
      </trkpt>
      <trkpt lat="45.6828" lon="6.73827">
        <ele>1531.05</ele>
        <time>2018-09-09T13:30:07Z</time>
      </trkpt>
      <trkpt lat="45.68294" lon="6.73806">
        <ele>1531.39</ele>
        <time>2018-09-09T13:30:08Z</time>
      </trkpt>
      <trkpt lat="45.6831" lon="6.73787">
        <ele>1532.19</ele>
        <time>2018-09-09T13:30:09Z</time>
      </trkpt>
      <trkpt lat="45.68328" lon="6.73772">
        <ele>1532.43</ele>
        <time>2018-09-09T13:30:10Z</time>
      </trkpt>
      <trkpt lat="45.68347" lon="6.73761">
        <ele>1533.2</ele>
        <time>2018-09-09T13:30:11Z</time>
      </trkpt>
      <trkpt lat="45.68367" lon="6.73755">
        <ele>1534.13</ele>
        <time>2018-09-09T13:30:12Z</time>
      </trkpt>
      <trkpt lat="45.68385" lon="6.7375">
        <ele>1535.11</ele>
        <time>2018-09-09T13:30:13Z</time>
      </trkpt>
      <trkpt lat="45.68403" lon="6.73745">
        <ele>1535.41</ele>
        <time>2018-09-09T13:30:14Z</time>
      </trkpt>
      <trkpt lat="45.68437" lon="6.73732">
        <ele>1536.43</ele>
        <time>2018-09-09T13:30:16Z</time>
      </trkpt>
      <trkpt lat="45.68454" lon="6.73724">
        <ele>1536.5</ele>
        <time>2018-09-09T13:30:17Z</time>
      </trkpt>
      <trkpt lat="45.68485" lon="6.73705">
        <ele>1537.23</ele>
        <time>2018-09-09T13:30:19Z</time>
      </trkpt>
      <trkpt lat="45.68502" lon="6.73692">
        <ele>1537.44</ele>
        <time>2018-09-09T13:30:20Z</time>
      </trkpt>
      <trkpt lat="45.6853" lon="6.73663">
        <ele>1539.13</ele>
        <time>2018-09-09T13:30:22Z</time>
      </trkpt>
      <trkpt lat="45.68541" lon="6.73639">
        <ele>1540.11</ele>
        <time>2018-09-09T13:30:23Z</time>
      </trkpt>
      <trkpt lat="45.68553" lon="6.73618">
        <ele>1540.41</ele>
        <time>2018-09-09T13:30:24Z</time>
      </trkpt>
      <trkpt lat="45.68563" lon="6.73596">
        <ele>1541.19</ele>
        <time>2018-09-09T13:30:25Z</time>
      </trkpt>
      <trkpt lat="45.68572" lon="6.73573">
        <ele>1542.13</ele>
        <time>2018-09-09T13:30:26Z</time>
      </trkpt>
      <trkpt lat="45.68581" lon="6.73549">
        <ele>1543.11</ele>
        <time>2018-09-09T13:30:27Z</time>
      </trkpt>
      <trkpt lat="45.68587" lon="6.73524">
        <ele>1542.7</ele>
        <time>2018-09-09T13:30:28Z</time>
      </trkpt>
      <trkpt lat="45.68589" lon="6.73497">
        <ele>1544.68</ele>
        <time>2018-09-09T13:30:29Z</time>
      </trkpt>
      <trkpt lat="45.6859" lon="6.7347">
        <ele>1545.28</ele>
        <time>2018-09-09T13:30:30Z</time>
      </trkpt>
      <trkpt lat="45.6859" lon="6.73444">
        <ele>1546.15</ele>
        <time>2018-09-09T13:30:31Z</time>
      </trkpt>
      <trkpt lat="45.68594" lon="6.73394">
        <ele>1548.11</ele>
        <time>2018-09-09T13:30:33Z</time>
      </trkpt>
      <trkpt lat="45.68611" lon="6.7335">
        <ele>1549.19</ele>
        <time>2018-09-09T13:30:35Z</time>
      </trkpt>
      <trkpt lat="45.68625" lon="6.73334">
        <ele>1550.13</ele>
        <time>2018-09-09T13:30:36Z</time>
      </trkpt>
      <trkpt lat="45.68642" lon="6.73321">
        <ele>1551.81</ele>
        <time>2018-09-09T13:30:37Z</time>
      </trkpt>
      <trkpt lat="45.6866" lon="6.73312">
        <ele>1553.71</ele>
        <time>2018-09-09T13:30:38Z</time>
      </trkpt>
      <trkpt lat="45.68679" lon="6.73306">
        <ele>1555.69</ele>
        <time>2018-09-09T13:30:39Z</time>
      </trkpt>
      <trkpt lat="45.68699" lon="6.73301">
        <ele>1557.68</ele>
        <time>2018-09-09T13:30:40Z</time>
      </trkpt>
      <trkpt lat="45.68719" lon="6.73296">
        <ele>1559.67</ele>
        <time>2018-09-09T13:30:41Z</time>
      </trkpt>
      <trkpt lat="45.68739" lon="6.7329">
        <ele>1562.37</ele>
        <time>2018-09-09T13:30:42Z</time>
      </trkpt>
      <trkpt lat="45.6876" lon="6.73285">
        <ele>1563.88</ele>
        <time>2018-09-09T13:30:43Z</time>
      </trkpt>
      <trkpt lat="45.6878" lon="6.73281">
        <ele>1565.04</ele>
        <time>2018-09-09T13:30:44Z</time>
      </trkpt>
      <trkpt lat="45.688" lon="6.73278">
        <ele>1566.78</ele>
        <time>2018-09-09T13:30:45Z</time>
      </trkpt>
      <trkpt lat="45.6882" lon="6.73281">
        <ele>1568.71</ele>
        <time>2018-09-09T13:30:46Z</time>
      </trkpt>
      <trkpt lat="45.68839" lon="6.73286">
        <ele>1569.98</ele>
        <time>2018-09-09T13:30:47Z</time>
      </trkpt>
      <trkpt lat="45.68857" lon="6.73294">
        <ele>1571.77</ele>
        <time>2018-09-09T13:30:48Z</time>
      </trkpt>
      <trkpt lat="45.68891" lon="6.73304">
        <ele>1574.07</ele>
        <time>2018-09-09T13:30:50Z</time>
      </trkpt>
      <trkpt lat="45.68929" lon="6.73301">
        <ele>1576.8</ele>
        <time>2018-09-09T13:30:52Z</time>
      </trkpt>
      <trkpt lat="45.6895" lon="6.73297">
        <ele>1579.41</ele>
        <time>2018-09-09T13:30:53Z</time>
      </trkpt>
      <trkpt lat="45.68972" lon="6.7329">
        <ele>1580.2</ele>
        <time>2018-09-09T13:30:54Z</time>
      </trkpt>
      <trkpt lat="45.68993" lon="6.73286">
        <ele>1581.13</ele>
        <time>2018-09-09T13:30:55Z</time>
      </trkpt>
      <trkpt lat="45.69013" lon="6.73282">
        <ele>1583.51</ele>
        <time>2018-09-09T13:30:56Z</time>
      </trkpt>
      <trkpt lat="45.69032" lon="6.73276">
        <ele>1585.62</ele>
        <time>2018-09-09T13:30:57Z</time>
      </trkpt>
      <trkpt lat="45.69052" lon="6.73268">
        <ele>1588.36</ele>
        <time>2018-09-09T13:30:58Z</time>
      </trkpt>
      <trkpt lat="45.69071" lon="6.73263">
        <ele>1590.58</ele>
        <time>2018-09-09T13:30:59Z</time>
      </trkpt>
      <trkpt lat="45.69092" lon="6.7326">
        <ele>1592.65</ele>
        <time>2018-09-09T13:31:00Z</time>
      </trkpt>
      <trkpt lat="45.69113" lon="6.73259">
        <ele>1594.67</ele>
        <time>2018-09-09T13:31:01Z</time>
      </trkpt>
      <trkpt lat="45.69134" lon="6.73258">
        <ele>1595.97</ele>
        <time>2018-09-09T13:31:02Z</time>
      </trkpt>
      <trkpt lat="45.69155" lon="6.73256">
        <ele>1597.76</ele>
        <time>2018-09-09T13:31:03Z</time>
      </trkpt>
      <trkpt lat="45.69177" lon="6.73252">
        <ele>1599.7</ele>
        <time>2018-09-09T13:31:04Z</time>
      </trkpt>
      <trkpt lat="45.69199" lon="6.73247">
        <ele>1601.68</ele>
        <time>2018-09-09T13:31:05Z</time>
      </trkpt>
      <trkpt lat="45.6922" lon="6.73242">
        <ele>1603.68</ele>
        <time>2018-09-09T13:31:06Z</time>
      </trkpt>
      <trkpt lat="45.6924" lon="6.73237">
        <ele>1604.97</ele>
        <time>2018-09-09T13:31:07Z</time>
      </trkpt>
      <trkpt lat="45.69259" lon="6.73233">
        <ele>1606.76</ele>
        <time>2018-09-09T13:31:08Z</time>
      </trkpt>
      <trkpt lat="45.69278" lon="6.73228">
        <ele>1608.7</ele>
        <time>2018-09-09T13:31:09Z</time>
      </trkpt>
      <trkpt lat="45.69295" lon="6.7322">
        <ele>1610.68</ele>
        <time>2018-09-09T13:31:10Z</time>
      </trkpt>
      <trkpt lat="45.69325" lon="6.73202">
        <ele>1613.06</ele>
        <time>2018-09-09T13:31:12Z</time>
      </trkpt>
      <trkpt lat="45.69342" lon="6.73182">
        <ele>1614.4</ele>
        <time>2018-09-09T13:31:14Z</time>
      </trkpt>
      <trkpt lat="45.6935" lon="6.73153">
        <ele>1615.43</ele>
        <time>2018-09-09T13:31:16Z</time>
      </trkpt>
      <trkpt lat="45.6934" lon="6.73113">
        <ele>1616.9</ele>
        <time>2018-09-09T13:31:17Z</time>
      </trkpt>
      <trkpt lat="45.69342" lon="6.73081">
        <ele>1620.14</ele>
        <time>2018-09-09T13:31:18Z</time>
      </trkpt>
      <trkpt lat="45.69346" lon="6.73049">
        <ele>1623.91</ele>
        <time>2018-09-09T13:31:19Z</time>
      </trkpt>
      <trkpt lat="45.69351" lon="6.73013">
        <ele>1626.45</ele>
        <time>2018-09-09T13:31:20Z</time>
      </trkpt>
      <trkpt lat="45.69357" lon="6.72976">
        <ele>1628.61</ele>
        <time>2018-09-09T13:31:21Z</time>
      </trkpt>
      <trkpt lat="45.69362" lon="6.72935">
        <ele>1632.05</ele>
        <time>2018-09-09T13:31:22Z</time>
      </trkpt>
      <trkpt lat="45.69366" lon="6.72892">
        <ele>1635.19</ele>
        <time>2018-09-09T13:31:23Z</time>
      </trkpt>
      <trkpt lat="45.69373" lon="6.72847">
        <ele>1638.23</ele>
        <time>2018-09-09T13:31:24Z</time>
      </trkpt>
      <trkpt lat="45.69381" lon="6.72805">
        <ele>1641.94</ele>
        <time>2018-09-09T13:31:25Z</time>
      </trkpt>
      <trkpt lat="45.69388" lon="6.72766">
        <ele>1644.45</ele>
        <time>2018-09-09T13:31:26Z</time>
      </trkpt>
      <trkpt lat="45.69394" lon="6.72729">
        <ele>1647.31</ele>
        <time>2018-09-09T13:31:27Z</time>
      </trkpt>
      <trkpt lat="45.694" lon="6.72692">
        <ele>1649.56</ele>
        <time>2018-09-09T13:31:28Z</time>
      </trkpt>
      <trkpt lat="45.69404" lon="6.72656">
        <ele>1651.64</ele>
        <time>2018-09-09T13:31:29Z</time>
      </trkpt>
      <trkpt lat="45.69408" lon="6.72621">
        <ele>1652.96</ele>
        <time>2018-09-09T13:31:30Z</time>
      </trkpt>
      <trkpt lat="45.69407" lon="6.72584">
        <ele>1655.46</ele>
        <time>2018-09-09T13:31:31Z</time>
      </trkpt>
      <trkpt lat="45.69406" lon="6.72547">
        <ele>1658.31</ele>
        <time>2018-09-09T13:31:32Z</time>
      </trkpt>
      <trkpt lat="45.69403" lon="6.72513">
        <ele>1660.56</ele>
        <time>2018-09-09T13:31:33Z</time>
      </trkpt>
      <trkpt lat="45.69401" lon="6.7248">
        <ele>1664.04</ele>
        <time>2018-09-09T13:31:34Z</time>
      </trkpt>
      <trkpt lat="45.69397" lon="6.72449">
        <ele>1666.48</ele>
        <time>2018-09-09T13:31:35Z</time>
      </trkpt>
      <trkpt lat="45.69393" lon="6.72422">
        <ele>1669.32</ele>
        <time>2018-09-09T13:31:36Z</time>
      </trkpt>
      <trkpt lat="45.6939" lon="6.72395">
        <ele>1670.87</ele>
        <time>2018-09-09T13:31:37Z</time>
      </trkpt>
      <trkpt lat="45.69394" lon="6.72346">
        <ele>1673.99</ele>
        <time>2018-09-09T13:31:39Z</time>
      </trkpt>
      <trkpt lat="45.69409" lon="6.72301">
        <ele>1677</ele>
        <time>2018-09-09T13:31:41Z</time>
      </trkpt>
      <trkpt lat="45.6942" lon="6.72279">
        <ele>1678.77</ele>
        <time>2018-09-09T13:31:42Z</time>
      </trkpt>
      <trkpt lat="45.69431" lon="6.72257">
        <ele>1680</ele>
        <time>2018-09-09T13:31:43Z</time>
      </trkpt>
      <trkpt lat="45.69442" lon="6.72236">
        <ele>1681.07</ele>
        <time>2018-09-09T13:31:44Z</time>
      </trkpt>
      <trkpt lat="45.69465" lon="6.72209">
        <ele>1683.8</ele>
        <time>2018-09-09T13:31:46Z</time>
      </trkpt>
      <trkpt lat="45.6949" lon="6.72204">
        <ele>1685.38</ele>
        <time>2018-09-09T13:31:48Z</time>
      </trkpt>
      <trkpt lat="45.69511" lon="6.72229">
        <ele>1687.13</ele>
        <time>2018-09-09T13:31:50Z</time>
      </trkpt>
      <trkpt lat="45.69528" lon="6.7227">
        <ele>1688.4</ele>
        <time>2018-09-09T13:31:52Z</time>
      </trkpt>
      <trkpt lat="45.69531" lon="6.7232">
        <ele>1690.13</ele>
        <time>2018-09-09T13:31:54Z</time>
      </trkpt>
      <trkpt lat="45.69526" lon="6.72364">
        <ele>1691.89</ele>
        <time>2018-09-09T13:31:56Z</time>
      </trkpt>
      <trkpt lat="45.69519" lon="6.72405">
        <ele>1693.38</ele>
        <time>2018-09-09T13:31:58Z</time>
      </trkpt>
      <trkpt lat="45.69524" lon="6.72447">
        <ele>1693.73</ele>
        <time>2018-09-09T13:32:00Z</time>
      </trkpt>
      <trkpt lat="45.69535" lon="6.72467">
        <ele>1694.29</ele>
        <time>2018-09-09T13:32:01Z</time>
      </trkpt>
      <trkpt lat="45.69551" lon="6.72487">
        <ele>1695.16</ele>
        <time>2018-09-09T13:32:02Z</time>
      </trkpt>
      <trkpt lat="45.69564" lon="6.72514">
        <ele>1696.12</ele>
        <time>2018-09-09T13:32:03Z</time>
      </trkpt>
      <trkpt lat="45.69575" lon="6.72543">
        <ele>1697.11</ele>
        <time>2018-09-09T13:32:04Z</time>
      </trkpt>
      <trkpt lat="45.69586" lon="6.72572">
        <ele>1697.4</ele>
        <time>2018-09-09T13:32:05Z</time>
      </trkpt>
      <trkpt lat="45.69592" lon="6.726">
        <ele>1698.19</ele>
        <time>2018-09-09T13:32:06Z</time>
      </trkpt>
      <trkpt lat="45.69598" lon="6.72626">
        <ele>1698.43</ele>
        <time>2018-09-09T13:32:07Z</time>
      </trkpt>
      <trkpt lat="45.69606" lon="6.72672">
        <ele>1699.43</ele>
        <time>2018-09-09T13:32:09Z</time>
      </trkpt>
      <trkpt lat="45.6963" lon="6.72683">
        <ele>1701.2</ele>
        <time>2018-09-09T13:32:12Z</time>
      </trkpt>
      <trkpt lat="45.69645" lon="6.72668">
        <ele>1700.1</ele>
        <time>2018-09-09T13:32:14Z</time>
      </trkpt>
      <trkpt lat="45.6964" lon="6.72623">
        <ele>1698.88</ele>
        <time>2018-09-09T13:32:16Z</time>
      </trkpt>
      <trkpt lat="45.69624" lon="6.72573">
        <ele>1701.44</ele>
        <time>2018-09-09T13:32:17Z</time>
      </trkpt>
      <trkpt lat="45.69618" lon="6.7254">
        <ele>1703.6</ele>
        <time>2018-09-09T13:32:18Z</time>
      </trkpt>
      <trkpt lat="45.69614" lon="6.72504">
        <ele>1705.65</ele>
        <time>2018-09-09T13:32:19Z</time>
      </trkpt>
      <trkpt lat="45.69611" lon="6.72467">
        <ele>1707.67</ele>
        <time>2018-09-09T13:32:20Z</time>
      </trkpt>
      <trkpt lat="45.69611" lon="6.72429">
        <ele>1711.07</ele>
        <time>2018-09-09T13:32:21Z</time>
      </trkpt>
      <trkpt lat="45.69611" lon="6.72395">
        <ele>1714.89</ele>
        <time>2018-09-09T13:32:22Z</time>
      </trkpt>
      <trkpt lat="45.6961" lon="6.72364">
        <ele>1717.44</ele>
        <time>2018-09-09T13:32:23Z</time>
      </trkpt>
      <trkpt lat="45.69606" lon="6.72336">
        <ele>1719.6</ele>
        <time>2018-09-09T13:32:24Z</time>
      </trkpt>
      <trkpt lat="45.69593" lon="6.72292">
        <ele>1725.28</ele>
        <time>2018-09-09T13:32:26Z</time>
      </trkpt>
      <trkpt lat="45.69587" lon="6.72265">
        <ele>1728.03</ele>
        <time>2018-09-09T13:32:28Z</time>
      </trkpt>
      <trkpt lat="45.69607" lon="6.72263">
        <ele>1729.49</ele>
        <time>2018-09-09T13:32:31Z</time>
      </trkpt>
      <trkpt lat="45.69624" lon="6.72296">
        <ele>1731.84</ele>
        <time>2018-09-09T13:32:33Z</time>
      </trkpt>
      <trkpt lat="45.69634" lon="6.72318">
        <ele>1733.72</ele>
        <time>2018-09-09T13:32:34Z</time>
      </trkpt>
      <trkpt lat="45.69644" lon="6.72342">
        <ele>1734.99</ele>
        <time>2018-09-09T13:32:35Z</time>
      </trkpt>
      <trkpt lat="45.69654" lon="6.72364">
        <ele>1737.47</ele>
        <time>2018-09-09T13:32:36Z</time>
      </trkpt>
      <trkpt lat="45.69664" lon="6.72387">
        <ele>1738.91</ele>
        <time>2018-09-09T13:32:37Z</time>
      </trkpt>
      <trkpt lat="45.69682" lon="6.72429">
        <ele>1742.7</ele>
        <time>2018-09-09T13:32:39Z</time>
      </trkpt>
      <trkpt lat="45.69696" lon="6.72466">
        <ele>1745.77</ele>
        <time>2018-09-09T13:32:41Z</time>
      </trkpt>
      <trkpt lat="45.69707" lon="6.72495">
        <ele>1748.77</ele>
        <time>2018-09-09T13:32:43Z</time>
      </trkpt>
      <trkpt lat="45.69727" lon="6.72516">
        <ele>1751.18</ele>
        <time>2018-09-09T13:32:46Z</time>
      </trkpt>
      <trkpt lat="45.69753" lon="6.72525">
        <ele>1752.49</ele>
        <time>2018-09-09T13:32:49Z</time>
      </trkpt>
      <trkpt lat="45.69773" lon="6.72531">
        <ele>1753.44</ele>
        <time>2018-09-09T13:32:51Z</time>
      </trkpt>
      <trkpt lat="45.69799" lon="6.72527">
        <ele>1756.25</ele>
        <time>2018-09-09T13:32:53Z</time>
      </trkpt>
      <trkpt lat="45.69815" lon="6.72515">
        <ele>1757.42</ele>
        <time>2018-09-09T13:32:55Z</time>
      </trkpt>
      <trkpt lat="45.69823" lon="6.72484">
        <ele>1756.82</ele>
        <time>2018-09-09T13:32:57Z</time>
      </trkpt>
      <trkpt lat="45.69813" lon="6.72442">
        <ele>1758.17</ele>
        <time>2018-09-09T13:32:59Z</time>
      </trkpt>
      <trkpt lat="45.69774" lon="6.72423">
        <ele>1760.52</ele>
        <time>2018-09-09T13:33:00Z</time>
      </trkpt>
      <trkpt lat="45.6976" lon="6.72406">
        <ele>1761.93</ele>
        <time>2018-09-09T13:33:01Z</time>
      </trkpt>
      <trkpt lat="45.69745" lon="6.72366">
        <ele>1763.6</ele>
        <time>2018-09-09T13:33:03Z</time>
      </trkpt>
      <trkpt lat="45.69752" lon="6.72323">
        <ele>1764.45</ele>
        <time>2018-09-09T13:33:05Z</time>
      </trkpt>
      <trkpt lat="45.6977" lon="6.7228">
        <ele>1766.13</ele>
        <time>2018-09-09T13:33:07Z</time>
      </trkpt>
      <trkpt lat="45.69773" lon="6.72235">
        <ele>1766.99</ele>
        <time>2018-09-09T13:33:09Z</time>
      </trkpt>
      <trkpt lat="45.69756" lon="6.72193">
        <ele>1769.09</ele>
        <time>2018-09-09T13:33:11Z</time>
      </trkpt>
      <trkpt lat="45.6973" lon="6.7216">
        <ele>1770.4</ele>
        <time>2018-09-09T13:33:13Z</time>
      </trkpt>
      <trkpt lat="45.69731" lon="6.72123">
        <ele>1773.04</ele>
        <time>2018-09-09T13:33:15Z</time>
      </trkpt>
      <trkpt lat="45.69737" lon="6.72075">
        <ele>1775.8</ele>
        <time>2018-09-09T13:33:17Z</time>
      </trkpt>
      <trkpt lat="45.69739" lon="6.72046">
        <ele>1776.31</ele>
        <time>2018-09-09T13:33:18Z</time>
      </trkpt>
      <trkpt lat="45.69742" lon="6.72017">
        <ele>1777.16</ele>
        <time>2018-09-09T13:33:19Z</time>
      </trkpt>
      <trkpt lat="45.69742" lon="6.71989">
        <ele>1778.12</ele>
        <time>2018-09-09T13:33:20Z</time>
      </trkpt>
      <trkpt lat="45.69737" lon="6.71964">
        <ele>1779.11</ele>
        <time>2018-09-09T13:33:21Z</time>
      </trkpt>
      <trkpt lat="45.69713" lon="6.71929">
        <ele>1780.89</ele>
        <time>2018-09-09T13:33:23Z</time>
      </trkpt>
      <trkpt lat="45.69694" lon="6.71918">
        <ele>1782.74</ele>
        <time>2018-09-09T13:33:24Z</time>
      </trkpt>
      <trkpt lat="45.69674" lon="6.71905">
        <ele>1783.99</ele>
        <time>2018-09-09T13:33:25Z</time>
      </trkpt>
      <trkpt lat="45.69653" lon="6.71892">
        <ele>1785.07</ele>
        <time>2018-09-09T13:33:26Z</time>
      </trkpt>
      <trkpt lat="45.69633" lon="6.71878">
        <ele>1786.09</ele>
        <time>2018-09-09T13:33:27Z</time>
      </trkpt>
      <trkpt lat="45.69615" lon="6.71867">
        <ele>1787.8</ele>
        <time>2018-09-09T13:33:28Z</time>
      </trkpt>
      <trkpt lat="45.69584" lon="6.71841">
        <ele>1788.47</ele>
        <time>2018-09-09T13:33:30Z</time>
      </trkpt>
      <trkpt lat="45.69574" lon="6.7179">
        <ele>1790.84</ele>
        <time>2018-09-09T13:33:32Z</time>
      </trkpt>
      <trkpt lat="45.69572" lon="6.71763">
        <ele>1792.02</ele>
        <time>2018-09-09T13:33:33Z</time>
      </trkpt>
      <trkpt lat="45.69573" lon="6.71719">
        <ele>1793.89</ele>
        <time>2018-09-09T13:33:35Z</time>
      </trkpt>
      <trkpt lat="45.69588" lon="6.71683">
        <ele>1794.26</ele>
        <time>2018-09-09T13:33:37Z</time>
      </trkpt>
      <trkpt lat="45.69582" lon="6.7165">
        <ele>1795.21</ele>
        <time>2018-09-09T13:33:39Z</time>
      </trkpt>
      <trkpt lat="45.6956" lon="6.71629">
        <ele>1798.02</ele>
        <time>2018-09-09T13:33:41Z</time>
      </trkpt>
      <trkpt lat="45.69531" lon="6.71637">
        <ele>1800.8</ele>
        <time>2018-09-09T13:33:43Z</time>
      </trkpt>
      <trkpt lat="45.69506" lon="6.71653">
        <ele>1802.16</ele>
        <time>2018-09-09T13:33:45Z</time>
      </trkpt>
      <trkpt lat="45.69486" lon="6.7166">
        <ele>1803.2</ele>
        <time>2018-09-09T13:33:47Z</time>
      </trkpt>
      <trkpt lat="45.69467" lon="6.71657">
        <ele>1804.2</ele>
        <time>2018-09-09T13:33:49Z</time>
      </trkpt>
      <trkpt lat="45.6945" lon="6.71641">
        <ele>1806.11</ele>
        <time>2018-09-09T13:33:51Z</time>
      </trkpt>
      <trkpt lat="45.69438" lon="6.71618">
        <ele>1807.89</ele>
        <time>2018-09-09T13:33:53Z</time>
      </trkpt>
      <trkpt lat="45.69434" lon="6.7159">
        <ele>1809.38</ele>
        <time>2018-09-09T13:33:55Z</time>
      </trkpt>
      <trkpt lat="45.69441" lon="6.71561">
        <ele>1810.43</ele>
        <time>2018-09-09T13:33:57Z</time>
      </trkpt>
      <trkpt lat="45.69449" lon="6.71533">
        <ele>1811.43</ele>
        <time>2018-09-09T13:33:59Z</time>
      </trkpt>
      <trkpt lat="45.6945" lon="6.71499">
        <ele>1812.22</ele>
        <time>2018-09-09T13:34:01Z</time>
      </trkpt>
      <trkpt lat="45.69443" lon="6.71451">
        <ele>1814.11</ele>
        <time>2018-09-09T13:34:03Z</time>
      </trkpt>
      <trkpt lat="45.69437" lon="6.71424">
        <ele>1815.81</ele>
        <time>2018-09-09T13:34:04Z</time>
      </trkpt>
      <trkpt lat="45.69427" lon="6.71395">
        <ele>1817.01</ele>
        <time>2018-09-09T13:34:05Z</time>
      </trkpt>
      <trkpt lat="45.69416" lon="6.71363">
        <ele>1818.78</ele>
        <time>2018-09-09T13:34:06Z</time>
      </trkpt>
      <trkpt lat="45.69406" lon="6.71332">
        <ele>1820</ele>
        <time>2018-09-09T13:34:07Z</time>
      </trkpt>
      <trkpt lat="45.69398" lon="6.71299">
        <ele>1821.77</ele>
        <time>2018-09-09T13:34:08Z</time>
      </trkpt>
      <trkpt lat="45.69393" lon="6.71264">
        <ele>1823</ele>
        <time>2018-09-09T13:34:09Z</time>
      </trkpt>
      <trkpt lat="45.69389" lon="6.71228">
        <ele>1824.77</ele>
        <time>2018-09-09T13:34:10Z</time>
      </trkpt>
      <trkpt lat="45.69385" lon="6.71193">
        <ele>1826.7</ele>
        <time>2018-09-09T13:34:11Z</time>
      </trkpt>
      <trkpt lat="45.69381" lon="6.71157">
        <ele>1828.68</ele>
        <time>2018-09-09T13:34:12Z</time>
      </trkpt>
      <trkpt lat="45.69377" lon="6.71121">
        <ele>1830.68</ele>
        <time>2018-09-09T13:34:13Z</time>
      </trkpt>
      <trkpt lat="45.69373" lon="6.71085">
        <ele>1832.67</ele>
        <time>2018-09-09T13:34:14Z</time>
      </trkpt>
      <trkpt lat="45.69369" lon="6.7105">
        <ele>1834.67</ele>
        <time>2018-09-09T13:34:15Z</time>
      </trkpt>
      <trkpt lat="45.69365" lon="6.71015">
        <ele>1836.67</ele>
        <time>2018-09-09T13:34:16Z</time>
      </trkpt>
      <trkpt lat="45.6936" lon="6.7098">
        <ele>1839.37</ele>
        <time>2018-09-09T13:34:17Z</time>
      </trkpt>
      <trkpt lat="45.69356" lon="6.70944">
        <ele>1841.58</ele>
        <time>2018-09-09T13:34:18Z</time>
      </trkpt>
      <trkpt lat="45.6935" lon="6.70909">
        <ele>1843.65</ele>
        <time>2018-09-09T13:34:19Z</time>
      </trkpt>
      <trkpt lat="45.69346" lon="6.70874">
        <ele>1846.37</ele>
        <time>2018-09-09T13:34:20Z</time>
      </trkpt>
      <trkpt lat="45.69342" lon="6.70839">
        <ele>1848.58</ele>
        <time>2018-09-09T13:34:21Z</time>
      </trkpt>
      <trkpt lat="45.69338" lon="6.70805">
        <ele>1850.65</ele>
        <time>2018-09-09T13:34:22Z</time>
      </trkpt>
      <trkpt lat="45.69334" lon="6.70771">
        <ele>1852.67</ele>
        <time>2018-09-09T13:34:23Z</time>
      </trkpt>
      <trkpt lat="45.6933" lon="6.70735">
        <ele>1853.97</ele>
        <time>2018-09-09T13:34:24Z</time>
      </trkpt>
      <trkpt lat="45.69326" lon="6.707">
        <ele>1855.76</ele>
        <time>2018-09-09T13:34:25Z</time>
      </trkpt>
      <trkpt lat="45.69323" lon="6.70665">
        <ele>1857.7</ele>
        <time>2018-09-09T13:34:26Z</time>
      </trkpt>
      <trkpt lat="45.69318" lon="6.70631">
        <ele>1858.98</ele>
        <time>2018-09-09T13:34:27Z</time>
      </trkpt>
      <trkpt lat="45.69314" lon="6.70595">
        <ele>1860.07</ele>
        <time>2018-09-09T13:34:28Z</time>
      </trkpt>
      <trkpt lat="45.69311" lon="6.70559">
        <ele>1861.09</ele>
        <time>2018-09-09T13:34:29Z</time>
      </trkpt>
      <trkpt lat="45.69307" lon="6.70523">
        <ele>1862.1</ele>
        <time>2018-09-09T13:34:30Z</time>
      </trkpt>
      <trkpt lat="45.69303" lon="6.70487">
        <ele>1863.1</ele>
        <time>2018-09-09T13:34:31Z</time>
      </trkpt>
      <trkpt lat="45.69298" lon="6.70452">
        <ele>1864.8</ele>
        <time>2018-09-09T13:34:32Z</time>
      </trkpt>
      <trkpt lat="45.69291" lon="6.70417">
        <ele>1866.71</ele>
        <time>2018-09-09T13:34:33Z</time>
      </trkpt>
      <trkpt lat="45.69282" lon="6.70384">
        <ele>1868.69</ele>
        <time>2018-09-09T13:34:34Z</time>
      </trkpt>
      <trkpt lat="45.69273" lon="6.70352">
        <ele>1869.98</ele>
        <time>2018-09-09T13:34:35Z</time>
      </trkpt>
      <trkpt lat="45.69262" lon="6.7032">
        <ele>1871.06</ele>
        <time>2018-09-09T13:34:36Z</time>
      </trkpt>
      <trkpt lat="45.69251" lon="6.7029">
        <ele>1872.09</ele>
        <time>2018-09-09T13:34:37Z</time>
      </trkpt>
      <trkpt lat="45.69241" lon="6.7026">
        <ele>1873.8</ele>
        <time>2018-09-09T13:34:38Z</time>
      </trkpt>
      <trkpt lat="45.69232" lon="6.70233">
        <ele>1875.01</ele>
        <time>2018-09-09T13:34:39Z</time>
      </trkpt>
      <trkpt lat="45.69225" lon="6.70207">
        <ele>1876.08</ele>
        <time>2018-09-09T13:34:40Z</time>
      </trkpt>
      <trkpt lat="45.69215" lon="6.7017">
        <ele>1882.23</ele>
        <time>2018-09-09T13:34:42Z</time>
      </trkpt>
      <trkpt lat="45.69213" lon="6.70136">
        <ele>1886.63</ele>
        <time>2018-09-09T13:34:44Z</time>
      </trkpt>
      <trkpt lat="45.69214" lon="6.70105">
        <ele>1889.06</ele>
        <time>2018-09-09T13:34:46Z</time>
      </trkpt>
      <trkpt lat="45.69218" lon="6.70078">
        <ele>1892.01</ele>
        <time>2018-09-09T13:34:48Z</time>
      </trkpt>
      <trkpt lat="45.69224" lon="6.70053">
        <ele>1894.09</ele>
        <time>2018-09-09T13:34:50Z</time>
      </trkpt>
      <trkpt lat="45.69232" lon="6.70028">
        <ele>1896.1</ele>
        <time>2018-09-09T13:34:52Z</time>
      </trkpt>
      <trkpt lat="45.69244" lon="6.69996">
        <ele>1896.49</ele>
        <time>2018-09-09T13:34:54Z</time>
      </trkpt>
      <trkpt lat="45.69263" lon="6.69958">
        <ele>1900.66</ele>
        <time>2018-09-09T13:34:56Z</time>
      </trkpt>
      <trkpt lat="45.69273" lon="6.69936">
        <ele>1901.97</ele>
        <time>2018-09-09T13:34:57Z</time>
      </trkpt>
      <trkpt lat="45.69284" lon="6.6991">
        <ele>1903.06</ele>
        <time>2018-09-09T13:34:58Z</time>
      </trkpt>
      <trkpt lat="45.69295" lon="6.69885">
        <ele>1904.79</ele>
        <time>2018-09-09T13:34:59Z</time>
      </trkpt>
      <trkpt lat="45.69306" lon="6.69859">
        <ele>1906.71</ele>
        <time>2018-09-09T13:35:00Z</time>
      </trkpt>
      <trkpt lat="45.69316" lon="6.69834">
        <ele>1909.38</ele>
        <time>2018-09-09T13:35:01Z</time>
      </trkpt>
      <trkpt lat="45.69326" lon="6.69809">
        <ele>1910.89</ele>
        <time>2018-09-09T13:35:02Z</time>
      </trkpt>
      <trkpt lat="45.69338" lon="6.69782">
        <ele>1912.74</ele>
        <time>2018-09-09T13:35:03Z</time>
      </trkpt>
      <trkpt lat="45.6935" lon="6.69754">
        <ele>1913.99</ele>
        <time>2018-09-09T13:35:04Z</time>
      </trkpt>
      <trkpt lat="45.69359" lon="6.69722">
        <ele>1916.47</ele>
        <time>2018-09-09T13:35:05Z</time>
      </trkpt>
      <trkpt lat="45.69368" lon="6.69691">
        <ele>1918.61</ele>
        <time>2018-09-09T13:35:06Z</time>
      </trkpt>
      <trkpt lat="45.69375" lon="6.69659">
        <ele>1920.66</ele>
        <time>2018-09-09T13:35:07Z</time>
      </trkpt>
      <trkpt lat="45.69382" lon="6.69625">
        <ele>1921.27</ele>
        <time>2018-09-09T13:35:08Z</time>
      </trkpt>
      <trkpt lat="45.69388" lon="6.6959">
        <ele>1922.15</ele>
        <time>2018-09-09T13:35:09Z</time>
      </trkpt>
      <trkpt lat="45.69391" lon="6.69554">
        <ele>1923.82</ele>
        <time>2018-09-09T13:35:10Z</time>
      </trkpt>
      <trkpt lat="45.69394" lon="6.6952">
        <ele>1925.02</ele>
        <time>2018-09-09T13:35:11Z</time>
      </trkpt>
      <trkpt lat="45.69394" lon="6.69487">
        <ele>1925.38</ele>
        <time>2018-09-09T13:35:12Z</time>
      </trkpt>
      <trkpt lat="45.6939" lon="6.69453">
        <ele>1928.28</ele>
        <time>2018-09-09T13:35:13Z</time>
      </trkpt>
      <trkpt lat="45.69385" lon="6.6942">
        <ele>1931.26</ele>
        <time>2018-09-09T13:35:14Z</time>
      </trkpt>
      <trkpt lat="45.69377" lon="6.69389">
        <ele>1933.55</ele>
        <time>2018-09-09T13:35:15Z</time>
      </trkpt>
      <trkpt lat="45.69366" lon="6.6936">
        <ele>1935.64</ele>
        <time>2018-09-09T13:35:16Z</time>
      </trkpt>
      <trkpt lat="45.69353" lon="6.69332">
        <ele>1937.66</ele>
        <time>2018-09-09T13:35:17Z</time>
      </trkpt>
      <trkpt lat="45.69339" lon="6.69306">
        <ele>1938.97</ele>
        <time>2018-09-09T13:35:18Z</time>
      </trkpt>
      <trkpt lat="45.69323" lon="6.69282">
        <ele>1940.76</ele>
        <time>2018-09-09T13:35:19Z</time>
      </trkpt>
      <trkpt lat="45.69306" lon="6.69264">
        <ele>1942.7</ele>
        <time>2018-09-09T13:35:20Z</time>
      </trkpt>
      <trkpt lat="45.69288" lon="6.69251">
        <ele>1944.68</ele>
        <time>2018-09-09T13:35:21Z</time>
      </trkpt>
      <trkpt lat="45.6927" lon="6.69246">
        <ele>1947.38</ele>
        <time>2018-09-09T13:35:22Z</time>
      </trkpt>
      <trkpt lat="45.69234" lon="6.69243">
        <ele>1950.04</ele>
        <time>2018-09-09T13:35:24Z</time>
      </trkpt>
      <trkpt lat="45.69201" lon="6.69235">
        <ele>1953.01</ele>
        <time>2018-09-09T13:35:26Z</time>
      </trkpt>
      <trkpt lat="45.69177" lon="6.69216">
        <ele>1956</ele>
        <time>2018-09-09T13:35:28Z</time>
      </trkpt>
      <trkpt lat="45.69162" lon="6.69185">
        <ele>1959</ele>
        <time>2018-09-09T13:35:30Z</time>
      </trkpt>
      <trkpt lat="45.69153" lon="6.69155">
        <ele>1959.48</ele>
        <time>2018-09-09T13:35:32Z</time>
      </trkpt>
      <trkpt lat="45.69148" lon="6.6913">
        <ele>1960.44</ele>
        <time>2018-09-09T13:35:34Z</time>
      </trkpt>
      <trkpt lat="45.6914" lon="6.69097">
        <ele>1960.53</ele>
        <time>2018-09-09T13:35:37Z</time>
      </trkpt>
      <trkpt lat="45.69142" lon="6.69067">
        <ele>1964.04</ele>
        <time>2018-09-09T13:35:41Z</time>
      </trkpt>
      <trkpt lat="45.69133" lon="6.69041">
        <ele>1965.8</ele>
        <time>2018-09-09T13:37:46Z</time>
      </trkpt>
      <trkpt lat="45.69128" lon="6.69011">
        <ele>1964.56</ele>
        <time>2018-09-09T13:37:50Z</time>
      </trkpt>
      <trkpt lat="45.69123" lon="6.6898">
        <ele>1964.53</ele>
        <time>2018-09-09T13:37:53Z</time>
      </trkpt>
      <trkpt lat="45.69126" lon="6.68942">
        <ele>1964.26</ele>
        <time>2018-09-09T13:37:56Z</time>
      </trkpt>
      <trkpt lat="45.69135" lon="6.68909">
        <ele>1964.25</ele>
        <time>2018-09-09T13:37:59Z</time>
      </trkpt>
      <trkpt lat="45.69135" lon="6.6888">
        <ele>1963.55</ele>
        <time>2018-09-09T13:38:02Z</time>
      </trkpt>
      <trkpt lat="45.69133" lon="6.68854">
        <ele>1963.8</ele>
        <time>2018-09-09T13:38:05Z</time>
      </trkpt>
      <trkpt lat="45.69137" lon="6.68821">
        <ele>1964.45</ele>
        <time>2018-09-09T13:38:08Z</time>
      </trkpt>
      <trkpt lat="45.69147" lon="6.68787">
        <ele>1963.56</ele>
        <time>2018-09-09T13:38:11Z</time>
      </trkpt>
      <trkpt lat="45.69148" lon="6.68761">
        <ele>1962.62</ele>
        <time>2018-09-09T13:38:13Z</time>
      </trkpt>
      <trkpt lat="45.69137" lon="6.68731">
        <ele>1962.53</ele>
        <time>2018-09-09T13:38:16Z</time>
      </trkpt>
      <trkpt lat="45.6912" lon="6.68712">
        <ele>1961.83</ele>
        <time>2018-09-09T13:38:19Z</time>
      </trkpt>
      <trkpt lat="45.69109" lon="6.68685">
        <ele>1961.48</ele>
        <time>2018-09-09T13:38:22Z</time>
      </trkpt>
      <trkpt lat="45.69111" lon="6.68656">
        <ele>1960.83</ele>
        <time>2018-09-09T13:38:24Z</time>
      </trkpt>
      <trkpt lat="45.69114" lon="6.6862">
        <ele>1958.95</ele>
        <time>2018-09-09T13:38:26Z</time>
      </trkpt>
      <trkpt lat="45.69116" lon="6.68582">
        <ele>1956.96</ele>
        <time>2018-09-09T13:38:28Z</time>
      </trkpt>
      <trkpt lat="45.69118" lon="6.68541">
        <ele>1955.87</ele>
        <time>2018-09-09T13:38:30Z</time>
      </trkpt>
      <trkpt lat="45.69123" lon="6.68501">
        <ele>1954.65</ele>
        <time>2018-09-09T13:38:32Z</time>
      </trkpt>
      <trkpt lat="45.69136" lon="6.6847">
        <ele>1953.63</ele>
        <time>2018-09-09T13:38:34Z</time>
      </trkpt>
      <trkpt lat="45.6915" lon="6.68446">
        <ele>1952.84</ele>
        <time>2018-09-09T13:38:36Z</time>
      </trkpt>
      <trkpt lat="45.69159" lon="6.68422">
        <ele>1951.86</ele>
        <time>2018-09-09T13:38:38Z</time>
      </trkpt>
      <trkpt lat="45.69156" lon="6.68396">
        <ele>1950.65</ele>
        <time>2018-09-09T13:38:40Z</time>
      </trkpt>
      <trkpt lat="45.69143" lon="6.68372">
        <ele>1949.63</ele>
        <time>2018-09-09T13:38:42Z</time>
      </trkpt>
      <trkpt lat="45.6913" lon="6.68353">
        <ele>1948.63</ele>
        <time>2018-09-09T13:38:44Z</time>
      </trkpt>
      <trkpt lat="45.69118" lon="6.68329">
        <ele>1947.63</ele>
        <time>2018-09-09T13:38:46Z</time>
      </trkpt>
      <trkpt lat="45.6911" lon="6.68302">
        <ele>1945.93</ele>
        <time>2018-09-09T13:38:48Z</time>
      </trkpt>
      <trkpt lat="45.691" lon="6.68272">
        <ele>1943.96</ele>
        <time>2018-09-09T13:38:50Z</time>
      </trkpt>
      <trkpt lat="45.69086" lon="6.68244">
        <ele>1942.66</ele>
        <time>2018-09-09T13:38:52Z</time>
      </trkpt>
      <trkpt lat="45.69064" lon="6.68224">
        <ele>1941.84</ele>
        <time>2018-09-09T13:38:54Z</time>
      </trkpt>
      <trkpt lat="45.69042" lon="6.68206">
        <ele>1940.86</ele>
        <time>2018-09-09T13:38:56Z</time>
      </trkpt>
      <trkpt lat="45.69022" lon="6.68187">
        <ele>1939.86</ele>
        <time>2018-09-09T13:38:58Z</time>
      </trkpt>
      <trkpt lat="45.6901" lon="6.6816">
        <ele>1938.65</ele>
        <time>2018-09-09T13:39:00Z</time>
      </trkpt>
      <trkpt lat="45.69006" lon="6.68127">
        <ele>1937.84</ele>
        <time>2018-09-09T13:39:02Z</time>
      </trkpt>
      <trkpt lat="45.69007" lon="6.68093">
        <ele>1936.86</ele>
        <time>2018-09-09T13:39:04Z</time>
      </trkpt>
      <trkpt lat="45.69016" lon="6.68059">
        <ele>1935.86</ele>
        <time>2018-09-09T13:39:06Z</time>
      </trkpt>
      <trkpt lat="45.6903" lon="6.68032">
        <ele>1933.95</ele>
        <time>2018-09-09T13:39:08Z</time>
      </trkpt>
      <trkpt lat="45.69048" lon="6.68012">
        <ele>1932.66</ele>
        <time>2018-09-09T13:39:10Z</time>
      </trkpt>
      <trkpt lat="45.6907" lon="6.67999">
        <ele>1930.02</ele>
        <time>2018-09-09T13:39:12Z</time>
      </trkpt>
      <trkpt lat="45.69095" lon="6.67999">
        <ele>1928.67</ele>
        <time>2018-09-09T13:39:14Z</time>
      </trkpt>
      <trkpt lat="45.69116" lon="6.68011">
        <ele>1926.93</ele>
        <time>2018-09-09T13:39:16Z</time>
      </trkpt>
      <trkpt lat="45.69139" lon="6.68034">
        <ele>1925.87</ele>
        <time>2018-09-09T13:39:18Z</time>
      </trkpt>
      <trkpt lat="45.69165" lon="6.68059">
        <ele>1924.86</ele>
        <time>2018-09-09T13:39:20Z</time>
      </trkpt>
      <trkpt lat="45.69191" lon="6.68089">
        <ele>1922.95</ele>
        <time>2018-09-09T13:39:22Z</time>
      </trkpt>
      <trkpt lat="45.69218" lon="6.68124">
        <ele>1920.96</ele>
        <time>2018-09-09T13:39:24Z</time>
      </trkpt>
      <trkpt lat="45.69231" lon="6.68144">
        <ele>1919.96</ele>
        <time>2018-09-09T13:39:25Z</time>
      </trkpt>
      <trkpt lat="45.69244" lon="6.68161">
        <ele>1918.96</ele>
        <time>2018-09-09T13:39:26Z</time>
      </trkpt>
      <trkpt lat="45.69273" lon="6.6819">
        <ele>1917.45</ele>
        <time>2018-09-09T13:39:28Z</time>
      </trkpt>
      <trkpt lat="45.69302" lon="6.68208">
        <ele>1915</ele>
        <time>2018-09-09T13:39:30Z</time>
      </trkpt>
      <trkpt lat="45.69332" lon="6.68224">
        <ele>1914.57</ele>
        <time>2018-09-09T13:39:32Z</time>
      </trkpt>
      <trkpt lat="45.69359" lon="6.6824">
        <ele>1913.83</ele>
        <time>2018-09-09T13:39:34Z</time>
      </trkpt>
      <trkpt lat="45.69383" lon="6.68259">
        <ele>1912.86</ele>
        <time>2018-09-09T13:39:36Z</time>
      </trkpt>
      <trkpt lat="45.69405" lon="6.68276">
        <ele>1910.95</ele>
        <time>2018-09-09T13:39:38Z</time>
      </trkpt>
      <trkpt lat="45.69424" lon="6.68278">
        <ele>1910.57</ele>
        <time>2018-09-09T13:39:40Z</time>
      </trkpt>
      <trkpt lat="45.69435" lon="6.68253">
        <ele>1908.01</ele>
        <time>2018-09-09T13:39:43Z</time>
      </trkpt>
      <trkpt lat="45.69416" lon="6.68235">
        <ele>1907.68</ele>
        <time>2018-09-09T13:39:44Z</time>
      </trkpt>
      <trkpt lat="45.69392" lon="6.68216">
        <ele>1906.63</ele>
        <time>2018-09-09T13:39:46Z</time>
      </trkpt>
      <trkpt lat="45.69368" lon="6.6819">
        <ele>1904.02</ele>
        <time>2018-09-09T13:39:48Z</time>
      </trkpt>
      <trkpt lat="45.69346" lon="6.68165">
        <ele>1901.97</ele>
        <time>2018-09-09T13:39:50Z</time>
      </trkpt>
      <trkpt lat="45.69332" lon="6.68136">
        <ele>1899.96</ele>
        <time>2018-09-09T13:39:52Z</time>
      </trkpt>
      <trkpt lat="45.69328" lon="6.68101">
        <ele>1897.96</ele>
        <time>2018-09-09T13:39:54Z</time>
      </trkpt>
      <trkpt lat="45.69324" lon="6.68067">
        <ele>1895.96</ele>
        <time>2018-09-09T13:39:56Z</time>
      </trkpt>
      <trkpt lat="45.69316" lon="6.68032">
        <ele>1893.96</ele>
        <time>2018-09-09T13:39:58Z</time>
      </trkpt>
      <trkpt lat="45.69307" lon="6.67995">
        <ele>1891.26</ele>
        <time>2018-09-09T13:40:00Z</time>
      </trkpt>
      <trkpt lat="45.69295" lon="6.67965">
        <ele>1888.99</ele>
        <time>2018-09-09T13:40:02Z</time>
      </trkpt>
      <trkpt lat="45.69274" lon="6.67945">
        <ele>1886.05</ele>
        <time>2018-09-09T13:40:04Z</time>
      </trkpt>
      <trkpt lat="45.69247" lon="6.67934">
        <ele>1883.27</ele>
        <time>2018-09-09T13:40:06Z</time>
      </trkpt>
      <trkpt lat="45.69222" lon="6.67912">
        <ele>1880.08</ele>
        <time>2018-09-09T13:40:08Z</time>
      </trkpt>
      <trkpt lat="45.69206" lon="6.67874">
        <ele>1877.97</ele>
        <time>2018-09-09T13:40:10Z</time>
      </trkpt>
      <trkpt lat="45.69187" lon="6.67836">
        <ele>1875.26</ele>
        <time>2018-09-09T13:40:12Z</time>
      </trkpt>
      <trkpt lat="45.69164" lon="6.67797">
        <ele>1872.99</ele>
        <time>2018-09-09T13:40:14Z</time>
      </trkpt>
      <trkpt lat="45.69141" lon="6.67761">
        <ele>1870.26</ele>
        <time>2018-09-09T13:40:16Z</time>
      </trkpt>
      <trkpt lat="45.69122" lon="6.67727">
        <ele>1868.69</ele>
        <time>2018-09-09T13:40:18Z</time>
      </trkpt>
      <trkpt lat="45.69112" lon="6.67691">
        <ele>1867.84</ele>
        <time>2018-09-09T13:40:20Z</time>
      </trkpt>
      <trkpt lat="45.69107" lon="6.6765">
        <ele>1865.95</ele>
        <time>2018-09-09T13:40:22Z</time>
      </trkpt>
      <trkpt lat="45.69099" lon="6.67606">
        <ele>1863.96</ele>
        <time>2018-09-09T13:40:24Z</time>
      </trkpt>
      <trkpt lat="45.69092" lon="6.67561">
        <ele>1861.05</ele>
        <time>2018-09-09T13:40:26Z</time>
      </trkpt>
      <trkpt lat="45.69088" lon="6.67514">
        <ele>1858.27</ele>
        <time>2018-09-09T13:40:28Z</time>
      </trkpt>
      <trkpt lat="45.69091" lon="6.67472">
        <ele>1855.99</ele>
        <time>2018-09-09T13:40:30Z</time>
      </trkpt>
      <trkpt lat="45.69098" lon="6.67433">
        <ele>1853.96</ele>
        <time>2018-09-09T13:40:32Z</time>
      </trkpt>
      <trkpt lat="45.6911" lon="6.67401">
        <ele>1851.96</ele>
        <time>2018-09-09T13:40:34Z</time>
      </trkpt>
      <trkpt lat="45.69115" lon="6.67369">
        <ele>1850.66</ele>
        <time>2018-09-09T13:40:36Z</time>
      </trkpt>
      <trkpt lat="45.6912" lon="6.67333">
        <ele>1848.93</ele>
        <time>2018-09-09T13:40:38Z</time>
      </trkpt>
      <trkpt lat="45.69136" lon="6.67303">
        <ele>1847.17</ele>
        <time>2018-09-09T13:40:40Z</time>
      </trkpt>
      <trkpt lat="45.6916" lon="6.67285">
        <ele>1844.07</ele>
        <time>2018-09-09T13:40:42Z</time>
      </trkpt>
      <trkpt lat="45.69181" lon="6.67266">
        <ele>1842.67</ele>
        <time>2018-09-09T13:40:44Z</time>
      </trkpt>
      <trkpt lat="45.69196" lon="6.67238">
        <ele>1840.93</ele>
        <time>2018-09-09T13:40:46Z</time>
      </trkpt>
      <trkpt lat="45.69211" lon="6.67205">
        <ele>1838.05</ele>
        <time>2018-09-09T13:40:48Z</time>
      </trkpt>
      <trkpt lat="45.69229" lon="6.67176">
        <ele>1835.97</ele>
        <time>2018-09-09T13:40:50Z</time>
      </trkpt>
      <trkpt lat="45.69246" lon="6.67151">
        <ele>1833.96</ele>
        <time>2018-09-09T13:40:52Z</time>
      </trkpt>
      <trkpt lat="45.69255" lon="6.67121">
        <ele>1832.87</ele>
        <time>2018-09-09T13:40:54Z</time>
      </trkpt>
      <trkpt lat="45.69262" lon="6.67088">
        <ele>1830.95</ele>
        <time>2018-09-09T13:40:56Z</time>
      </trkpt>
      <trkpt lat="45.69274" lon="6.67061">
        <ele>1828.26</ele>
        <time>2018-09-09T13:40:58Z</time>
      </trkpt>
      <trkpt lat="45.6929" lon="6.67037">
        <ele>1825.99</ele>
        <time>2018-09-09T13:41:00Z</time>
      </trkpt>
      <trkpt lat="45.69301" lon="6.6701">
        <ele>1823.05</ele>
        <time>2018-09-09T13:41:02Z</time>
      </trkpt>
      <trkpt lat="45.69308" lon="6.6698">
        <ele>1821.88</ele>
        <time>2018-09-09T13:41:04Z</time>
      </trkpt>
      <trkpt lat="45.69314" lon="6.6695">
        <ele>1820.86</ele>
        <time>2018-09-09T13:41:06Z</time>
      </trkpt>
      <trkpt lat="45.69319" lon="6.66925">
        <ele>1820.56</ele>
        <time>2018-09-09T13:41:08Z</time>
      </trkpt>
      <trkpt lat="45.69327" lon="6.66893">
        <ele>1819.83</ele>
        <time>2018-09-09T13:41:11Z</time>
      </trkpt>
      <trkpt lat="45.69334" lon="6.66858">
        <ele>1818.63</ele>
        <time>2018-09-09T13:41:14Z</time>
      </trkpt>
      <trkpt lat="45.69341" lon="6.66828">
        <ele>1817.63</ele>
        <time>2018-09-09T13:41:16Z</time>
      </trkpt>
      <trkpt lat="45.69349" lon="6.66795">
        <ele>1815.93</ele>
        <time>2018-09-09T13:41:18Z</time>
      </trkpt>
      <trkpt lat="45.69354" lon="6.66759">
        <ele>1813.96</ele>
        <time>2018-09-09T13:41:20Z</time>
      </trkpt>
      <trkpt lat="45.69357" lon="6.66723">
        <ele>1812.87</ele>
        <time>2018-09-09T13:41:22Z</time>
      </trkpt>
      <trkpt lat="45.69356" lon="6.66689">
        <ele>1811.16</ele>
        <time>2018-09-09T13:41:24Z</time>
      </trkpt>
      <trkpt lat="45.69357" lon="6.66656">
        <ele>1809.68</ele>
        <time>2018-09-09T13:41:26Z</time>
      </trkpt>
      <trkpt lat="45.69364" lon="6.66626">
        <ele>1807.93</ele>
        <time>2018-09-09T13:41:28Z</time>
      </trkpt>
      <trkpt lat="45.69375" lon="6.666">
        <ele>1806.66</ele>
        <time>2018-09-09T13:41:30Z</time>
      </trkpt>
      <trkpt lat="45.69381" lon="6.66574">
        <ele>1804.93</ele>
        <time>2018-09-09T13:41:32Z</time>
      </trkpt>
      <trkpt lat="45.69391" lon="6.6655">
        <ele>1802.96</ele>
        <time>2018-09-09T13:41:34Z</time>
      </trkpt>
      <trkpt lat="45.69409" lon="6.66533">
        <ele>1800.96</ele>
        <time>2018-09-09T13:41:36Z</time>
      </trkpt>
      <trkpt lat="45.69431" lon="6.66516">
        <ele>1800.57</ele>
        <time>2018-09-09T13:41:38Z</time>
      </trkpt>
      <trkpt lat="45.69453" lon="6.66504">
        <ele>1797.31</ele>
        <time>2018-09-09T13:41:40Z</time>
      </trkpt>
      <trkpt lat="45.69477" lon="6.66497">
        <ele>1795.69</ele>
        <time>2018-09-09T13:41:42Z</time>
      </trkpt>
      <trkpt lat="45.69501" lon="6.66498">
        <ele>1793.03</ele>
        <time>2018-09-09T13:41:44Z</time>
      </trkpt>
      <trkpt lat="45.69523" lon="6.66509">
        <ele>1790.97</ele>
        <time>2018-09-09T13:41:46Z</time>
      </trkpt>
      <trkpt lat="45.69542" lon="6.66519">
        <ele>1788.96</ele>
        <time>2018-09-09T13:41:48Z</time>
      </trkpt>
      <trkpt lat="45.6956" lon="6.66513">
        <ele>1786.96</ele>
        <time>2018-09-09T13:41:50Z</time>
      </trkpt>
      <trkpt lat="45.69576" lon="6.6649">
        <ele>1785.66</ele>
        <time>2018-09-09T13:41:52Z</time>
      </trkpt>
      <trkpt lat="45.69588" lon="6.66459">
        <ele>1783.93</ele>
        <time>2018-09-09T13:41:54Z</time>
      </trkpt>
      <trkpt lat="45.69601" lon="6.6643">
        <ele>1781.96</ele>
        <time>2018-09-09T13:41:56Z</time>
      </trkpt>
      <trkpt lat="45.69618" lon="6.66403">
        <ele>1780.87</ele>
        <time>2018-09-09T13:41:58Z</time>
      </trkpt>
      <trkpt lat="45.6963" lon="6.66374">
        <ele>1778.95</ele>
        <time>2018-09-09T13:42:00Z</time>
      </trkpt>
      <trkpt lat="45.69631" lon="6.6634">
        <ele>1776.96</ele>
        <time>2018-09-09T13:42:02Z</time>
      </trkpt>
      <trkpt lat="45.69629" lon="6.66305">
        <ele>1774.75</ele>
        <time>2018-09-09T13:42:04Z</time>
      </trkpt>
      <trkpt lat="45.69627" lon="6.66277">
        <ele>1772.03</ele>
        <time>2018-09-09T13:42:06Z</time>
      </trkpt>
      <trkpt lat="45.6962" lon="6.6625">
        <ele>1771.09</ele>
        <time>2018-09-09T13:42:08Z</time>
      </trkpt>
      <trkpt lat="45.69615" lon="6.66222">
        <ele>1768.97</ele>
        <time>2018-09-09T13:42:10Z</time>
      </trkpt>
      <trkpt lat="45.69608" lon="6.66195">
        <ele>1766.96</ele>
        <time>2018-09-09T13:42:12Z</time>
      </trkpt>
      <trkpt lat="45.69599" lon="6.66169">
        <ele>1765.66</ele>
        <time>2018-09-09T13:42:14Z</time>
      </trkpt>
      <trkpt lat="45.69588" lon="6.66144">
        <ele>1763.72</ele>
        <time>2018-09-09T13:42:16Z</time>
      </trkpt>
      <trkpt lat="45.69576" lon="6.6612">
        <ele>1762.85</ele>
        <time>2018-09-09T13:42:18Z</time>
      </trkpt>
      <trkpt lat="45.69565" lon="6.66097">
        <ele>1760.95</ele>
        <time>2018-09-09T13:42:20Z</time>
      </trkpt>
      <trkpt lat="45.69553" lon="6.66072">
        <ele>1758.96</ele>
        <time>2018-09-09T13:42:22Z</time>
      </trkpt>
      <trkpt lat="45.6954" lon="6.66047">
        <ele>1757.17</ele>
        <time>2018-09-09T13:42:24Z</time>
      </trkpt>
      <trkpt lat="45.69526" lon="6.66024">
        <ele>1754.98</ele>
        <time>2018-09-09T13:42:26Z</time>
      </trkpt>
      <trkpt lat="45.69505" lon="6.66005">
        <ele>1752.96</ele>
        <time>2018-09-09T13:42:28Z</time>
      </trkpt>
      <trkpt lat="45.69475" lon="6.6598">
        <ele>1750.75</ele>
        <time>2018-09-09T13:42:30Z</time>
      </trkpt>
      <trkpt lat="45.69459" lon="6.65966">
        <ele>1749.2</ele>
        <time>2018-09-09T13:42:31Z</time>
      </trkpt>
      <trkpt lat="45.69443" lon="6.6595">
        <ele>1748.03</ele>
        <time>2018-09-09T13:42:32Z</time>
      </trkpt>
      <trkpt lat="45.6943" lon="6.65932">
        <ele>1746.28</ele>
        <time>2018-09-09T13:42:33Z</time>
      </trkpt>
      <trkpt lat="45.69416" lon="6.65912">
        <ele>1743.66</ele>
        <time>2018-09-09T13:42:34Z</time>
      </trkpt>
      <trkpt lat="45.69403" lon="6.65892">
        <ele>1741.47</ele>
        <time>2018-09-09T13:42:35Z</time>
      </trkpt>
      <trkpt lat="45.6939" lon="6.65873">
        <ele>1739.41</ele>
        <time>2018-09-09T13:42:36Z</time>
      </trkpt>
      <trkpt lat="45.69378" lon="6.65851">
        <ele>1738.1</ele>
        <time>2018-09-09T13:42:37Z</time>
      </trkpt>
      <trkpt lat="45.69366" lon="6.65831">
        <ele>1736.3</ele>
        <time>2018-09-09T13:42:38Z</time>
      </trkpt>
      <trkpt lat="45.69353" lon="6.65812">
        <ele>1734.36</ele>
        <time>2018-09-09T13:42:39Z</time>
      </trkpt>
      <trkpt lat="45.69329" lon="6.6578">
        <ele>1731.3</ele>
        <time>2018-09-09T13:42:41Z</time>
      </trkpt>
      <trkpt lat="45.69312" lon="6.65745">
        <ele>1728.29</ele>
        <time>2018-09-09T13:42:43Z</time>
      </trkpt>
      <trkpt lat="45.69292" lon="6.65711">
        <ele>1725.08</ele>
        <time>2018-09-09T13:42:45Z</time>
      </trkpt>
      <trkpt lat="45.69272" lon="6.65674">
        <ele>1722.06</ele>
        <time>2018-09-09T13:42:47Z</time>
      </trkpt>
      <trkpt lat="45.69259" lon="6.65655">
        <ele>1720.29</ele>
        <time>2018-09-09T13:42:48Z</time>
      </trkpt>
      <trkpt lat="45.69247" lon="6.65634">
        <ele>1718.36</ele>
        <time>2018-09-09T13:42:49Z</time>
      </trkpt>
      <trkpt lat="45.69235" lon="6.65612">
        <ele>1717.08</ele>
        <time>2018-09-09T13:42:50Z</time>
      </trkpt>
      <trkpt lat="45.69223" lon="6.65588">
        <ele>1715.3</ele>
        <time>2018-09-09T13:42:51Z</time>
      </trkpt>
      <trkpt lat="45.69213" lon="6.65564">
        <ele>1713.36</ele>
        <time>2018-09-09T13:42:52Z</time>
      </trkpt>
      <trkpt lat="45.69204" lon="6.6554">
        <ele>1712.08</ele>
        <time>2018-09-09T13:42:53Z</time>
      </trkpt>
      <trkpt lat="45.69189" lon="6.65495">
        <ele>1709.06</ele>
        <time>2018-09-09T13:42:55Z</time>
      </trkpt>
      <trkpt lat="45.69169" lon="6.65457">
        <ele>1705.36</ele>
        <time>2018-09-09T13:42:57Z</time>
      </trkpt>
      <trkpt lat="45.69145" lon="6.6542">
        <ele>1702.09</ele>
        <time>2018-09-09T13:42:59Z</time>
      </trkpt>
      <trkpt lat="45.69125" lon="6.65393">
        <ele>1698.36</ele>
        <time>2018-09-09T13:43:01Z</time>
      </trkpt>
      <trkpt lat="45.69112" lon="6.65369">
        <ele>1694.27</ele>
        <time>2018-09-09T13:43:04Z</time>
      </trkpt>
      <trkpt lat="45.69134" lon="6.65374">
        <ele>1692.77</ele>
        <time>2018-09-09T13:43:08Z</time>
      </trkpt>
      <trkpt lat="45.69148" lon="6.65394">
        <ele>1691.85</ele>
        <time>2018-09-09T13:43:10Z</time>
      </trkpt>
      <trkpt lat="45.69167" lon="6.65418">
        <ele>1689.95</ele>
        <time>2018-09-09T13:43:12Z</time>
      </trkpt>
      <trkpt lat="45.69188" lon="6.65442">
        <ele>1688.87</ele>
        <time>2018-09-09T13:43:14Z</time>
      </trkpt>
      <trkpt lat="45.6921" lon="6.65465">
        <ele>1687.65</ele>
        <time>2018-09-09T13:43:16Z</time>
      </trkpt>
      <trkpt lat="45.69227" lon="6.65494">
        <ele>1685.72</ele>
        <time>2018-09-09T13:43:18Z</time>
      </trkpt>
      <trkpt lat="45.69248" lon="6.65526">
        <ele>1683.94</ele>
        <time>2018-09-09T13:43:20Z</time>
      </trkpt>
      <trkpt lat="45.69271" lon="6.65556">
        <ele>1681.26</ele>
        <time>2018-09-09T13:43:22Z</time>
      </trkpt>
      <trkpt lat="45.69296" lon="6.65582">
        <ele>1678.99</ele>
        <time>2018-09-09T13:43:24Z</time>
      </trkpt>
      <trkpt lat="45.69322" lon="6.65607">
        <ele>1676.26</ele>
        <time>2018-09-09T13:43:26Z</time>
      </trkpt>
      <trkpt lat="45.69346" lon="6.65632">
        <ele>1674.2</ele>
        <time>2018-09-09T13:43:28Z</time>
      </trkpt>
      <trkpt lat="45.69369" lon="6.65661">
        <ele>1671.28</ele>
        <time>2018-09-09T13:43:30Z</time>
      </trkpt>
      <trkpt lat="45.69391" lon="6.6569">
        <ele>1668.08</ele>
        <time>2018-09-09T13:43:32Z</time>
      </trkpt>
      <trkpt lat="45.69409" lon="6.6572">
        <ele>1666.67</ele>
        <time>2018-09-09T13:43:34Z</time>
      </trkpt>
      <trkpt lat="45.69418" lon="6.65744">
        <ele>1666.54</ele>
        <time>2018-09-09T13:43:36Z</time>
      </trkpt>
      <trkpt lat="45.69434" lon="6.6576">
        <ele>1667.44</ele>
        <time>2018-09-09T13:43:38Z</time>
      </trkpt>
      <trkpt lat="45.69458" lon="6.65771">
        <ele>1665.91</ele>
        <time>2018-09-09T13:43:40Z</time>
      </trkpt>
      <trkpt lat="45.69485" lon="6.6578">
        <ele>1663.96</ele>
        <time>2018-09-09T13:43:42Z</time>
      </trkpt>
      <trkpt lat="45.69516" lon="6.65784">
        <ele>1662.17</ele>
        <time>2018-09-09T13:43:44Z</time>
      </trkpt>
      <trkpt lat="45.69545" lon="6.65792">
        <ele>1659.28</ele>
        <time>2018-09-09T13:43:46Z</time>
      </trkpt>
      <trkpt lat="45.6957" lon="6.65794">
        <ele>1655.38</ele>
        <time>2018-09-09T13:43:48Z</time>
      </trkpt>
      <trkpt lat="45.69593" lon="6.65773">
        <ele>1653</ele>
        <time>2018-09-09T13:43:50Z</time>
      </trkpt>
      <trkpt lat="45.69604" lon="6.65739">
        <ele>1651.17</ele>
        <time>2018-09-09T13:43:52Z</time>
      </trkpt>
      <trkpt lat="45.6961" lon="6.65704">
        <ele>1649.89</ele>
        <time>2018-09-09T13:43:54Z</time>
      </trkpt>
      <trkpt lat="45.69588" lon="6.65686">
        <ele>1647.54</ele>
        <time>2018-09-09T13:43:55Z</time>
      </trkpt>
      <trkpt lat="45.69561" lon="6.65666">
        <ele>1644.1</ele>
        <time>2018-09-09T13:43:57Z</time>
      </trkpt>
      <trkpt lat="45.69527" lon="6.65672">
        <ele>1641.97</ele>
        <time>2018-09-09T13:43:59Z</time>
      </trkpt>
      <trkpt lat="45.69497" lon="6.65677">
        <ele>1639.96</ele>
        <time>2018-09-09T13:44:01Z</time>
      </trkpt>
      <trkpt lat="45.69472" lon="6.65669">
        <ele>1637.96</ele>
        <time>2018-09-09T13:44:03Z</time>
      </trkpt>
      <trkpt lat="45.69454" lon="6.65648">
        <ele>1636.66</ele>
        <time>2018-09-09T13:44:05Z</time>
      </trkpt>
      <trkpt lat="45.69445" lon="6.65616">
        <ele>1634.93</ele>
        <time>2018-09-09T13:44:07Z</time>
      </trkpt>
      <trkpt lat="45.69447" lon="6.65582">
        <ele>1632.05</ele>
        <time>2018-09-09T13:44:09Z</time>
      </trkpt>
      <trkpt lat="45.6946" lon="6.65558">
        <ele>1630.88</ele>
        <time>2018-09-09T13:44:11Z</time>
      </trkpt>
      <trkpt lat="45.69478" lon="6.65543">
        <ele>1628.95</ele>
        <time>2018-09-09T13:44:13Z</time>
      </trkpt>
      <trkpt lat="45.69499" lon="6.65541">
        <ele>1626.96</ele>
        <time>2018-09-09T13:44:15Z</time>
      </trkpt>
      <trkpt lat="45.69531" lon="6.65551">
        <ele>1624.96</ele>
        <time>2018-09-09T13:44:17Z</time>
      </trkpt>
      <trkpt lat="45.6955" lon="6.65558">
        <ele>1623.26</ele>
        <time>2018-09-09T13:44:18Z</time>
      </trkpt>
      <trkpt lat="45.69568" lon="6.65567">
        <ele>1622.05</ele>
        <time>2018-09-09T13:44:19Z</time>
      </trkpt>
      <trkpt lat="45.69596" lon="6.65578">
        <ele>1621.58</ele>
        <time>2018-09-09T13:44:21Z</time>
      </trkpt>
      <trkpt lat="45.69619" lon="6.65587">
        <ele>1619.93</ele>
        <time>2018-09-09T13:44:23Z</time>
      </trkpt>
      <trkpt lat="45.69652" lon="6.65601">
        <ele>1616.35</ele>
        <time>2018-09-09T13:44:25Z</time>
      </trkpt>
      <trkpt lat="45.69686" lon="6.65618">
        <ele>1612.38</ele>
        <time>2018-09-09T13:44:27Z</time>
      </trkpt>
      <trkpt lat="45.69703" lon="6.65627">
        <ele>1610.39</ele>
        <time>2018-09-09T13:44:28Z</time>
      </trkpt>
      <trkpt lat="45.69722" lon="6.65633">
        <ele>1609.09</ele>
        <time>2018-09-09T13:44:29Z</time>
      </trkpt>
      <trkpt lat="45.69757" lon="6.65639">
        <ele>1606.97</ele>
        <time>2018-09-09T13:44:31Z</time>
      </trkpt>
      <trkpt lat="45.69793" lon="6.6563">
        <ele>1604.47</ele>
        <time>2018-09-09T13:44:33Z</time>
      </trkpt>
      <trkpt lat="45.69812" lon="6.65622">
        <ele>1603.81</ele>
        <time>2018-09-09T13:44:34Z</time>
      </trkpt>
      <trkpt lat="45.69829" lon="6.6561">
        <ele>1603.62</ele>
        <time>2018-09-09T13:44:35Z</time>
      </trkpt>
      <trkpt lat="45.69842" lon="6.65587">
        <ele>1601.46</ele>
        <time>2018-09-09T13:44:36Z</time>
      </trkpt>
      <trkpt lat="45.69865" lon="6.65555">
        <ele>1598.09</ele>
        <time>2018-09-09T13:44:38Z</time>
      </trkpt>
      <trkpt lat="45.69895" lon="6.65534">
        <ele>1595.06</ele>
        <time>2018-09-09T13:44:40Z</time>
      </trkpt>
      <trkpt lat="45.69929" lon="6.65526">
        <ele>1593.88</ele>
        <time>2018-09-09T13:44:42Z</time>
      </trkpt>
      <trkpt lat="45.6996" lon="6.65511">
        <ele>1593.56</ele>
        <time>2018-09-09T13:44:44Z</time>
      </trkpt>
      <trkpt lat="45.69981" lon="6.65485">
        <ele>1591.92</ele>
        <time>2018-09-09T13:44:46Z</time>
      </trkpt>
      <trkpt lat="45.69979" lon="6.65443">
        <ele>1591.65</ele>
        <time>2018-09-09T13:44:47Z</time>
      </trkpt>
      <trkpt lat="45.69986" lon="6.65418">
        <ele>1591.57</ele>
        <time>2018-09-09T13:44:48Z</time>
      </trkpt>
      <trkpt lat="45.69997" lon="6.65396">
        <ele>1591.54</ele>
        <time>2018-09-09T13:44:49Z</time>
      </trkpt>
      <trkpt lat="45.70008" lon="6.65374">
        <ele>1590.83</ele>
        <time>2018-09-09T13:44:50Z</time>
      </trkpt>
      <trkpt lat="45.70028" lon="6.65332">
        <ele>1589.86</ele>
        <time>2018-09-09T13:44:52Z</time>
      </trkpt>
      <trkpt lat="45.70042" lon="6.65285">
        <ele>1589.56</ele>
        <time>2018-09-09T13:44:54Z</time>
      </trkpt>
      <trkpt lat="45.70047" lon="6.6526">
        <ele>1588.84</ele>
        <time>2018-09-09T13:44:55Z</time>
      </trkpt>
      <trkpt lat="45.70036" lon="6.65234">
        <ele>1590.02</ele>
        <time>2018-09-09T13:44:56Z</time>
      </trkpt>
      <trkpt lat="45.70033" lon="6.65208">
        <ele>1590.38</ele>
        <time>2018-09-09T13:44:57Z</time>
      </trkpt>
      <trkpt lat="45.70033" lon="6.65181">
        <ele>1591.19</ele>
        <time>2018-09-09T13:44:58Z</time>
      </trkpt>
      <trkpt lat="45.70034" lon="6.65152">
        <ele>1592.13</ele>
        <time>2018-09-09T13:44:59Z</time>
      </trkpt>
      <trkpt lat="45.70033" lon="6.65126">
        <ele>1593.81</ele>
        <time>2018-09-09T13:45:00Z</time>
      </trkpt>
      <trkpt lat="45.70028" lon="6.65077">
        <ele>1596.08</ele>
        <time>2018-09-09T13:45:02Z</time>
      </trkpt>
      <trkpt lat="45.70028" lon="6.65037">
        <ele>1598.1</ele>
        <time>2018-09-09T13:45:04Z</time>
      </trkpt>
      <trkpt lat="45.70045" lon="6.65007">
        <ele>1599.19</ele>
        <time>2018-09-09T13:45:06Z</time>
      </trkpt>
      <trkpt lat="45.70074" lon="6.64985">
        <ele>1600.41</ele>
        <time>2018-09-09T13:45:08Z</time>
      </trkpt>
      <trkpt lat="45.70099" lon="6.64949">
        <ele>1601.43</ele>
        <time>2018-09-09T13:45:10Z</time>
      </trkpt>
      <trkpt lat="45.70109" lon="6.64902">
        <ele>1602.22</ele>
        <time>2018-09-09T13:45:12Z</time>
      </trkpt>
      <trkpt lat="45.70113" lon="6.64853">
        <ele>1601.8</ele>
        <time>2018-09-09T13:45:14Z</time>
      </trkpt>
      <trkpt lat="45.70095" lon="6.64832">
        <ele>1603.71</ele>
        <time>2018-09-09T13:45:15Z</time>
      </trkpt>
      <trkpt lat="45.7007" lon="6.64797">
        <ele>1606.07</ele>
        <time>2018-09-09T13:45:17Z</time>
      </trkpt>
      <trkpt lat="45.70056" lon="6.64776">
        <ele>1606.39</ele>
        <time>2018-09-09T13:45:18Z</time>
      </trkpt>
      <trkpt lat="45.70043" lon="6.64754">
        <ele>1607.19</ele>
        <time>2018-09-09T13:45:19Z</time>
      </trkpt>
      <trkpt lat="45.70033" lon="6.6473">
        <ele>1608.13</ele>
        <time>2018-09-09T13:45:20Z</time>
      </trkpt>
      <trkpt lat="45.70024" lon="6.64707">
        <ele>1609.11</ele>
        <time>2018-09-09T13:45:21Z</time>
      </trkpt>
      <trkpt lat="45.70015" lon="6.64683">
        <ele>1609.4</ele>
        <time>2018-09-09T13:45:22Z</time>
      </trkpt>
      <trkpt lat="45.69997" lon="6.64639">
        <ele>1610.22</ele>
        <time>2018-09-09T13:45:24Z</time>
      </trkpt>
      <trkpt lat="45.69983" lon="6.646">
        <ele>1612.11</ele>
        <time>2018-09-09T13:45:26Z</time>
      </trkpt>
      <trkpt lat="45.69982" lon="6.64571">
        <ele>1612.49</ele>
        <time>2018-09-09T13:45:28Z</time>
      </trkpt>
      <trkpt lat="45.6999" lon="6.64545">
        <ele>1613.23</ele>
        <time>2018-09-09T13:45:30Z</time>
      </trkpt>
      <trkpt lat="45.70013" lon="6.64525">
        <ele>1614.41</ele>
        <time>2018-09-09T13:45:32Z</time>
      </trkpt>
      <trkpt lat="45.70037" lon="6.64508">
        <ele>1613.82</ele>
        <time>2018-09-09T13:45:34Z</time>
      </trkpt>
      <trkpt lat="45.70059" lon="6.64485">
        <ele>1610.55</ele>
        <time>2018-09-09T13:45:36Z</time>
      </trkpt>
      <trkpt lat="45.70074" lon="6.64451">
        <ele>1608.01</ele>
        <time>2018-09-09T13:45:38Z</time>
      </trkpt>
      <trkpt lat="45.70079" lon="6.64413">
        <ele>1606.17</ele>
        <time>2018-09-09T13:45:40Z</time>
      </trkpt>
      <trkpt lat="45.70072" lon="6.64378">
        <ele>1606.5</ele>
        <time>2018-09-09T13:45:42Z</time>
      </trkpt>
      <trkpt lat="45.70059" lon="6.64348">
        <ele>1606.53</ele>
        <time>2018-09-09T13:45:44Z</time>
      </trkpt>
      <trkpt lat="45.70046" lon="6.64312">
        <ele>1606.53</ele>
        <time>2018-09-09T13:45:46Z</time>
      </trkpt>
      <trkpt lat="45.70038" lon="6.64268">
        <ele>1605.62</ele>
        <time>2018-09-09T13:45:48Z</time>
      </trkpt>
      <trkpt lat="45.70028" lon="6.64227">
        <ele>1606.45</ele>
        <time>2018-09-09T13:45:50Z</time>
      </trkpt>
      <trkpt lat="45.70014" lon="6.64191">
        <ele>1607.43</ele>
        <time>2018-09-09T13:45:52Z</time>
      </trkpt>
      <trkpt lat="45.7" lon="6.64155">
        <ele>1606.82</ele>
        <time>2018-09-09T13:45:54Z</time>
      </trkpt>
      <trkpt lat="45.69985" lon="6.64115">
        <ele>1606.56</ele>
        <time>2018-09-09T13:45:56Z</time>
      </trkpt>
      <trkpt lat="45.69965" lon="6.64074">
        <ele>1606.53</ele>
        <time>2018-09-09T13:45:58Z</time>
      </trkpt>
      <trkpt lat="45.69953" lon="6.64054">
        <ele>1605.83</ele>
        <time>2018-09-09T13:45:59Z</time>
      </trkpt>
      <trkpt lat="45.69941" lon="6.64034">
        <ele>1606.32</ele>
        <time>2018-09-09T13:46:00Z</time>
      </trkpt>
      <trkpt lat="45.69929" lon="6.64014">
        <ele>1606.47</ele>
        <time>2018-09-09T13:46:01Z</time>
      </trkpt>
      <trkpt lat="45.69903" lon="6.63978">
        <ele>1606.53</ele>
        <time>2018-09-09T13:46:03Z</time>
      </trkpt>
      <trkpt lat="45.69877" lon="6.63944">
        <ele>1607.44</ele>
        <time>2018-09-09T13:46:05Z</time>
      </trkpt>
      <trkpt lat="45.69851" lon="6.63909">
        <ele>1607.52</ele>
        <time>2018-09-09T13:46:07Z</time>
      </trkpt>
      <trkpt lat="45.69826" lon="6.63875">
        <ele>1606.62</ele>
        <time>2018-09-09T13:46:09Z</time>
      </trkpt>
      <trkpt lat="45.698" lon="6.63844">
        <ele>1605.84</ele>
        <time>2018-09-09T13:46:11Z</time>
      </trkpt>
      <trkpt lat="45.69768" lon="6.63819">
        <ele>1604.65</ele>
        <time>2018-09-09T13:46:13Z</time>
      </trkpt>
      <trkpt lat="45.69751" lon="6.63809">
        <ele>1603.87</ele>
        <time>2018-09-09T13:46:14Z</time>
      </trkpt>
      <trkpt lat="45.69733" lon="6.63798">
        <ele>1603.63</ele>
        <time>2018-09-09T13:46:15Z</time>
      </trkpt>
      <trkpt lat="45.69716" lon="6.63787">
        <ele>1603.56</ele>
        <time>2018-09-09T13:46:16Z</time>
      </trkpt>
      <trkpt lat="45.69699" lon="6.63773">
        <ele>1602.84</ele>
        <time>2018-09-09T13:46:17Z</time>
      </trkpt>
      <trkpt lat="45.69686" lon="6.63755">
        <ele>1602.62</ele>
        <time>2018-09-09T13:46:18Z</time>
      </trkpt>
      <trkpt lat="45.69674" lon="6.63735">
        <ele>1602.56</ele>
        <time>2018-09-09T13:46:19Z</time>
      </trkpt>
      <trkpt lat="45.69664" lon="6.63712">
        <ele>1601.84</ele>
        <time>2018-09-09T13:46:20Z</time>
      </trkpt>
      <trkpt lat="45.69653" lon="6.63689">
        <ele>1601.62</ele>
        <time>2018-09-09T13:46:21Z</time>
      </trkpt>
      <trkpt lat="45.69641" lon="6.63669">
        <ele>1601.56</ele>
        <time>2018-09-09T13:46:22Z</time>
      </trkpt>
      <trkpt lat="45.69611" lon="6.63638">
        <ele>1601.53</ele>
        <time>2018-09-09T13:46:24Z</time>
      </trkpt>
      <trkpt lat="45.69595" lon="6.63625">
        <ele>1601.53</ele>
        <time>2018-09-09T13:46:25Z</time>
      </trkpt>
      <trkpt lat="45.69581" lon="6.6361">
        <ele>1601.53</ele>
        <time>2018-09-09T13:46:26Z</time>
      </trkpt>
      <trkpt lat="45.69568" lon="6.6359">
        <ele>1601.53</ele>
        <time>2018-09-09T13:46:27Z</time>
      </trkpt>
      <trkpt lat="45.69546" lon="6.63552">
        <ele>1603.14</ele>
        <time>2018-09-09T13:46:29Z</time>
      </trkpt>
      <trkpt lat="45.69525" lon="6.63514">
        <ele>1605.11</ele>
        <time>2018-09-09T13:46:31Z</time>
      </trkpt>
      <trkpt lat="45.6951" lon="6.63476">
        <ele>1606.4</ele>
        <time>2018-09-09T13:46:33Z</time>
      </trkpt>
      <trkpt lat="45.69499" lon="6.63432">
        <ele>1607.43</ele>
        <time>2018-09-09T13:46:35Z</time>
      </trkpt>
      <trkpt lat="45.69494" lon="6.63386">
        <ele>1607.52</ele>
        <time>2018-09-09T13:46:37Z</time>
      </trkpt>
      <trkpt lat="45.69497" lon="6.63345">
        <ele>1605.92</ele>
        <time>2018-09-09T13:46:39Z</time>
      </trkpt>
      <trkpt lat="45.6951" lon="6.63311">
        <ele>1605.57</ele>
        <time>2018-09-09T13:46:41Z</time>
      </trkpt>
      <trkpt lat="45.69532" lon="6.63303">
        <ele>1604.62</ele>
        <time>2018-09-09T13:46:43Z</time>
      </trkpt>
      <trkpt lat="45.69558" lon="6.63309">
        <ele>1603.84</ele>
        <time>2018-09-09T13:46:45Z</time>
      </trkpt>
      <trkpt lat="45.69583" lon="6.63328">
        <ele>1602.86</ele>
        <time>2018-09-09T13:46:47Z</time>
      </trkpt>
      <trkpt lat="45.69612" lon="6.63344">
        <ele>1601.86</ele>
        <time>2018-09-09T13:46:49Z</time>
      </trkpt>
      <trkpt lat="45.69645" lon="6.63353">
        <ele>1599.95</ele>
        <time>2018-09-09T13:46:51Z</time>
      </trkpt>
      <trkpt lat="45.69663" lon="6.63358">
        <ele>1598.96</ele>
        <time>2018-09-09T13:46:52Z</time>
      </trkpt>
      <trkpt lat="45.6968" lon="6.63367">
        <ele>1597.96</ele>
        <time>2018-09-09T13:46:53Z</time>
      </trkpt>
      <trkpt lat="45.69699" lon="6.63376">
        <ele>1596.96</ele>
        <time>2018-09-09T13:46:54Z</time>
      </trkpt>
      <trkpt lat="45.69719" lon="6.63381">
        <ele>1596.66</ele>
        <time>2018-09-09T13:46:55Z</time>
      </trkpt>
      <trkpt lat="45.69737" lon="6.63384">
        <ele>1595.87</ele>
        <time>2018-09-09T13:46:56Z</time>
      </trkpt>
      <trkpt lat="45.69773" lon="6.63381">
        <ele>1594.16</ele>
        <time>2018-09-09T13:46:58Z</time>
      </trkpt>
      <trkpt lat="45.69806" lon="6.63384">
        <ele>1592.89</ele>
        <time>2018-09-09T13:47:00Z</time>
      </trkpt>
      <trkpt lat="45.69834" lon="6.63401">
        <ele>1593.47</ele>
        <time>2018-09-09T13:47:02Z</time>
      </trkpt>
      <trkpt lat="45.69864" lon="6.63417">
        <ele>1590.8</ele>
        <time>2018-09-09T13:47:04Z</time>
      </trkpt>
      <trkpt lat="45.69902" lon="6.63409">
        <ele>1588.45</ele>
        <time>2018-09-09T13:47:06Z</time>
      </trkpt>
      <trkpt lat="45.69921" lon="6.63403">
        <ele>1585.71</ele>
        <time>2018-09-09T13:47:07Z</time>
      </trkpt>
      <trkpt lat="45.69953" lon="6.63385">
        <ele>1580.72</ele>
        <time>2018-09-09T13:47:09Z</time>
      </trkpt>
      <trkpt lat="45.69984" lon="6.63384">
        <ele>1578.03</ele>
        <time>2018-09-09T13:47:11Z</time>
      </trkpt>
      <trkpt lat="45.70002" lon="6.63387">
        <ele>1576.98</ele>
        <time>2018-09-09T13:47:12Z</time>
      </trkpt>
      <trkpt lat="45.70022" lon="6.63387">
        <ele>1575.97</ele>
        <time>2018-09-09T13:47:13Z</time>
      </trkpt>
      <trkpt lat="45.70042" lon="6.63386">
        <ele>1574.96</ele>
        <time>2018-09-09T13:47:14Z</time>
      </trkpt>
      <trkpt lat="45.70064" lon="6.63385">
        <ele>1573.96</ele>
        <time>2018-09-09T13:47:15Z</time>
      </trkpt>
      <trkpt lat="45.70085" lon="6.63385">
        <ele>1572.96</ele>
        <time>2018-09-09T13:47:16Z</time>
      </trkpt>
      <trkpt lat="45.70107" lon="6.63383">
        <ele>1571.96</ele>
        <time>2018-09-09T13:47:17Z</time>
      </trkpt>
      <trkpt lat="45.70129" lon="6.6338">
        <ele>1570.96</ele>
        <time>2018-09-09T13:47:18Z</time>
      </trkpt>
      <trkpt lat="45.70151" lon="6.63378">
        <ele>1569.26</ele>
        <time>2018-09-09T13:47:19Z</time>
      </trkpt>
      <trkpt lat="45.70174" lon="6.63376">
        <ele>1567.35</ele>
        <time>2018-09-09T13:47:20Z</time>
      </trkpt>
      <trkpt lat="45.70197" lon="6.63373">
        <ele>1566.08</ele>
        <time>2018-09-09T13:47:21Z</time>
      </trkpt>
      <trkpt lat="45.70219" lon="6.6337">
        <ele>1563.59</ele>
        <time>2018-09-09T13:47:22Z</time>
      </trkpt>
      <trkpt lat="45.70241" lon="6.63365">
        <ele>1561.45</ele>
        <time>2018-09-09T13:47:23Z</time>
      </trkpt>
      <trkpt lat="45.70262" lon="6.63358">
        <ele>1559.41</ele>
        <time>2018-09-09T13:47:24Z</time>
      </trkpt>
      <trkpt lat="45.70283" lon="6.63351">
        <ele>1557.39</ele>
        <time>2018-09-09T13:47:25Z</time>
      </trkpt>
      <trkpt lat="45.70302" lon="6.63344">
        <ele>1556.79</ele>
        <time>2018-09-09T13:47:26Z</time>
      </trkpt>
      <trkpt lat="45.7032" lon="6.63341">
        <ele>1555.21</ele>
        <time>2018-09-09T13:47:27Z</time>
      </trkpt>
      <trkpt lat="45.70355" lon="6.6335">
        <ele>1552.07</ele>
        <time>2018-09-09T13:47:29Z</time>
      </trkpt>
      <trkpt lat="45.70389" lon="6.6335">
        <ele>1548.57</ele>
        <time>2018-09-09T13:47:31Z</time>
      </trkpt>
      <trkpt lat="45.70421" lon="6.63342">
        <ele>1546.01</ele>
        <time>2018-09-09T13:47:33Z</time>
      </trkpt>
      <trkpt lat="45.70456" lon="6.63349">
        <ele>1544.17</ele>
        <time>2018-09-09T13:47:35Z</time>
      </trkpt>
      <trkpt lat="45.70475" lon="6.63352">
        <ele>1542.32</ele>
        <time>2018-09-09T13:47:36Z</time>
      </trkpt>
      <trkpt lat="45.70498" lon="6.63353">
        <ele>1540.37</ele>
        <time>2018-09-09T13:47:37Z</time>
      </trkpt>
      <trkpt lat="45.70521" lon="6.63351">
        <ele>1537.68</ele>
        <time>2018-09-09T13:47:38Z</time>
      </trkpt>
      <trkpt lat="45.70543" lon="6.63347">
        <ele>1536.18</ele>
        <time>2018-09-09T13:47:39Z</time>
      </trkpt>
      <trkpt lat="45.70563" lon="6.63342">
        <ele>1535.02</ele>
        <time>2018-09-09T13:47:40Z</time>
      </trkpt>
      <trkpt lat="45.70582" lon="6.63337">
        <ele>1533.98</ele>
        <time>2018-09-09T13:47:41Z</time>
      </trkpt>
      <trkpt lat="45.70601" lon="6.63332">
        <ele>1531.57</ele>
        <time>2018-09-09T13:47:42Z</time>
      </trkpt>
      <trkpt lat="45.7062" lon="6.63329">
        <ele>1530.14</ele>
        <time>2018-09-09T13:47:43Z</time>
      </trkpt>
      <trkpt lat="45.70652" lon="6.63316">
        <ele>1528.68</ele>
        <time>2018-09-09T13:47:45Z</time>
      </trkpt>
      <trkpt lat="45.70677" lon="6.6331">
        <ele>1526.93</ele>
        <time>2018-09-09T13:47:47Z</time>
      </trkpt>
      <trkpt lat="45.70699" lon="6.63305">
        <ele>1520.73</ele>
        <time>2018-09-09T13:47:50Z</time>
      </trkpt>
      <trkpt lat="45.70684" lon="6.63286">
        <ele>1509.79</ele>
        <time>2018-09-09T13:47:55Z</time>
      </trkpt>
      <trkpt lat="45.70666" lon="6.63295">
        <ele>1508.64</ele>
        <time>2018-09-09T13:47:57Z</time>
      </trkpt>
      <trkpt lat="45.70644" lon="6.63303">
        <ele>1506.93</ele>
        <time>2018-09-09T13:47:59Z</time>
      </trkpt>
      <trkpt lat="45.70617" lon="6.6331">
        <ele>1506.57</ele>
        <time>2018-09-09T13:48:01Z</time>
      </trkpt>
      <trkpt lat="45.70588" lon="6.63311">
        <ele>1504.22</ele>
        <time>2018-09-09T13:48:03Z</time>
      </trkpt>
      <trkpt lat="45.70565" lon="6.63305">
        <ele>1502.34</ele>
        <time>2018-09-09T13:48:04Z</time>
      </trkpt>
      <trkpt lat="45.70544" lon="6.633">
        <ele>1501.07</ele>
        <time>2018-09-09T13:48:05Z</time>
      </trkpt>
      <trkpt lat="45.70524" lon="6.63294">
        <ele>1499.99</ele>
        <time>2018-09-09T13:48:06Z</time>
      </trkpt>
      <trkpt lat="45.70505" lon="6.63283">
        <ele>1498.97</ele>
        <time>2018-09-09T13:48:07Z</time>
      </trkpt>
      <trkpt lat="45.70488" lon="6.6327">
        <ele>1497.96</ele>
        <time>2018-09-09T13:48:08Z</time>
      </trkpt>
      <trkpt lat="45.7046" lon="6.63249">
        <ele>1492.74</ele>
        <time>2018-09-09T13:48:10Z</time>
      </trkpt>
      <trkpt lat="45.70428" lon="6.63233">
        <ele>1487.72</ele>
        <time>2018-09-09T13:48:12Z</time>
      </trkpt>
      <trkpt lat="45.70411" lon="6.63226">
        <ele>1486.89</ele>
        <time>2018-09-09T13:48:13Z</time>
      </trkpt>
      <trkpt lat="45.70381" lon="6.63207">
        <ele>1484.95</ele>
        <time>2018-09-09T13:48:15Z</time>
      </trkpt>
      <trkpt lat="45.70347" lon="6.63206">
        <ele>1481.77</ele>
        <time>2018-09-09T13:48:17Z</time>
      </trkpt>
      <trkpt lat="45.70328" lon="6.63211">
        <ele>1480.2</ele>
        <time>2018-09-09T13:48:18Z</time>
      </trkpt>
      <trkpt lat="45.70309" lon="6.63214">
        <ele>1479.73</ele>
        <time>2018-09-09T13:48:19Z</time>
      </trkpt>
      <trkpt lat="45.70291" lon="6.63217">
        <ele>1478.89</ele>
        <time>2018-09-09T13:48:20Z</time>
      </trkpt>
      <trkpt lat="45.70272" lon="6.63217">
        <ele>1477.94</ele>
        <time>2018-09-09T13:48:21Z</time>
      </trkpt>
      <trkpt lat="45.70249" lon="6.63209">
        <ele>1477.65</ele>
        <time>2018-09-09T13:48:22Z</time>
      </trkpt>
      <trkpt lat="45.70226" lon="6.63205">
        <ele>1477.57</ele>
        <time>2018-09-09T13:48:23Z</time>
      </trkpt>
      <trkpt lat="45.70203" lon="6.63203">
        <ele>1477.54</ele>
        <time>2018-09-09T13:48:24Z</time>
      </trkpt>
      <trkpt lat="45.70183" lon="6.63197">
        <ele>1476.13</ele>
        <time>2018-09-09T13:48:25Z</time>
      </trkpt>
      <trkpt lat="45.70162" lon="6.63189">
        <ele>1475.01</ele>
        <time>2018-09-09T13:48:26Z</time>
      </trkpt>
      <trkpt lat="45.70144" lon="6.63178">
        <ele>1473.98</ele>
        <time>2018-09-09T13:48:27Z</time>
      </trkpt>
      <trkpt lat="45.70126" lon="6.63167">
        <ele>1473.66</ele>
        <time>2018-09-09T13:48:28Z</time>
      </trkpt>
      <trkpt lat="45.70107" lon="6.63155">
        <ele>1472.87</ele>
        <time>2018-09-09T13:48:29Z</time>
      </trkpt>
      <trkpt lat="45.7009" lon="6.6314">
        <ele>1472.63</ele>
        <time>2018-09-09T13:48:30Z</time>
      </trkpt>
      <trkpt lat="45.70071" lon="6.63124">
        <ele>1471.86</ele>
        <time>2018-09-09T13:48:31Z</time>
      </trkpt>
      <trkpt lat="45.70055" lon="6.63108">
        <ele>1470.93</ele>
        <time>2018-09-09T13:48:32Z</time>
      </trkpt>
      <trkpt lat="45.70033" lon="6.63086">
        <ele>1465.95</ele>
        <time>2018-09-09T13:48:34Z</time>
      </trkpt>
      <trkpt lat="45.70059" lon="6.63086">
        <ele>1449.01</ele>
        <time>2018-09-09T13:48:41Z</time>
      </trkpt>
      <trkpt lat="45.70093" lon="6.63098">
        <ele>1446.96</ele>
        <time>2018-09-09T13:48:43Z</time>
      </trkpt>
      <trkpt lat="45.7011" lon="6.63104">
        <ele>1445.96</ele>
        <time>2018-09-09T13:48:44Z</time>
      </trkpt>
      <trkpt lat="45.70128" lon="6.6311">
        <ele>1444.96</ele>
        <time>2018-09-09T13:48:45Z</time>
      </trkpt>
      <trkpt lat="45.70146" lon="6.63119">
        <ele>1443.26</ele>
        <time>2018-09-09T13:48:46Z</time>
      </trkpt>
      <trkpt lat="45.7018" lon="6.63136">
        <ele>1440.29</ele>
        <time>2018-09-09T13:48:48Z</time>
      </trkpt>
      <trkpt lat="45.70211" lon="6.63134">
        <ele>1436.59</ele>
        <time>2018-09-09T13:48:50Z</time>
      </trkpt>
      <trkpt lat="45.70243" lon="6.63123">
        <ele>1434.72</ele>
        <time>2018-09-09T13:48:52Z</time>
      </trkpt>
      <trkpt lat="45.70278" lon="6.63124">
        <ele>1432.03</ele>
        <time>2018-09-09T13:48:54Z</time>
      </trkpt>
      <trkpt lat="45.70313" lon="6.63114">
        <ele>1431.79</ele>
        <time>2018-09-09T13:48:56Z</time>
      </trkpt>
      <trkpt lat="45.70352" lon="6.631">
        <ele>1429.24</ele>
        <time>2018-09-09T13:48:58Z</time>
      </trkpt>
      <trkpt lat="45.70373" lon="6.63094">
        <ele>1427.34</ele>
        <time>2018-09-09T13:48:59Z</time>
      </trkpt>
      <trkpt lat="45.70393" lon="6.6309">
        <ele>1426.08</ele>
        <time>2018-09-09T13:49:00Z</time>
      </trkpt>
      <trkpt lat="45.70414" lon="6.63087">
        <ele>1424.29</ele>
        <time>2018-09-09T13:49:01Z</time>
      </trkpt>
      <trkpt lat="45.70433" lon="6.63084">
        <ele>1423.06</ele>
        <time>2018-09-09T13:49:02Z</time>
      </trkpt>
      <trkpt lat="45.70453" lon="6.63081">
        <ele>1421.99</ele>
        <time>2018-09-09T13:49:03Z</time>
      </trkpt>
      <trkpt lat="45.70484" lon="6.63071">
        <ele>1416.11</ele>
        <time>2018-09-09T13:49:05Z</time>
      </trkpt>
      <trkpt lat="45.70507" lon="6.63065">
        <ele>1411.66</ele>
        <time>2018-09-09T13:49:07Z</time>
      </trkpt>
      <trkpt lat="45.70532" lon="6.63076">
        <ele>1407.41</ele>
        <time>2018-09-09T13:49:09Z</time>
      </trkpt>
      <trkpt lat="45.7056" lon="6.63087">
        <ele>1405</ele>
        <time>2018-09-09T13:49:11Z</time>
      </trkpt>
      <trkpt lat="45.70592" lon="6.63084">
        <ele>1402.47</ele>
        <time>2018-09-09T13:49:13Z</time>
      </trkpt>
      <trkpt lat="45.70625" lon="6.63087">
        <ele>1397.49</ele>
        <time>2018-09-09T13:49:15Z</time>
      </trkpt>
      <trkpt lat="45.70643" lon="6.6309">
        <ele>1395.42</ele>
        <time>2018-09-09T13:49:16Z</time>
      </trkpt>
      <trkpt lat="45.70664" lon="6.63096">
        <ele>1394.8</ele>
        <time>2018-09-09T13:49:17Z</time>
      </trkpt>
      <trkpt lat="45.70684" lon="6.631">
        <ele>1394.61</ele>
        <time>2018-09-09T13:49:18Z</time>
      </trkpt>
      <trkpt lat="45.70702" lon="6.63105">
        <ele>1394.55</ele>
        <time>2018-09-09T13:49:19Z</time>
      </trkpt>
      <trkpt lat="45.70734" lon="6.63112">
        <ele>1393.62</ele>
        <time>2018-09-09T13:49:21Z</time>
      </trkpt>
      <trkpt lat="45.70758" lon="6.6311">
        <ele>1392.84</ele>
        <time>2018-09-09T13:49:23Z</time>
      </trkpt>
      <trkpt lat="45.70752" lon="6.63085">
        <ele>1387.94</ele>
        <time>2018-09-09T13:49:25Z</time>
      </trkpt>
      <trkpt lat="45.70728" lon="6.63068">
        <ele>1381.02</ele>
        <time>2018-09-09T13:49:29Z</time>
      </trkpt>
      <trkpt lat="45.70696" lon="6.63065">
        <ele>1379.28</ele>
        <time>2018-09-09T13:49:30Z</time>
      </trkpt>
      <trkpt lat="45.70663" lon="6.6305">
        <ele>1376.29</ele>
        <time>2018-09-09T13:49:32Z</time>
      </trkpt>
      <trkpt lat="45.70629" lon="6.63033">
        <ele>1373.99</ele>
        <time>2018-09-09T13:49:34Z</time>
      </trkpt>
      <trkpt lat="45.70612" lon="6.63024">
        <ele>1373.67</ele>
        <time>2018-09-09T13:49:35Z</time>
      </trkpt>
      <trkpt lat="45.70579" lon="6.63003">
        <ele>1370.32</ele>
        <time>2018-09-09T13:49:37Z</time>
      </trkpt>
      <trkpt lat="45.70561" lon="6.62993">
        <ele>1369.07</ele>
        <time>2018-09-09T13:49:38Z</time>
      </trkpt>
      <trkpt lat="45.70544" lon="6.62981">
        <ele>1367.29</ele>
        <time>2018-09-09T13:49:39Z</time>
      </trkpt>
      <trkpt lat="45.70518" lon="6.62954">
        <ele>1361.98</ele>
        <time>2018-09-09T13:49:41Z</time>
      </trkpt>
      <trkpt lat="45.70486" lon="6.6294">
        <ele>1356.74</ele>
        <time>2018-09-09T13:49:43Z</time>
      </trkpt>
      <trkpt lat="45.70468" lon="6.62939">
        <ele>1354.49</ele>
        <time>2018-09-09T13:49:44Z</time>
      </trkpt>
      <trkpt lat="45.70449" lon="6.62937">
        <ele>1352.42</ele>
        <time>2018-09-09T13:49:45Z</time>
      </trkpt>
      <trkpt lat="45.70431" lon="6.62936">
        <ele>1351.1</ele>
        <time>2018-09-09T13:49:46Z</time>
      </trkpt>
      <trkpt lat="45.7041" lon="6.62937">
        <ele>1349.3</ele>
        <time>2018-09-09T13:49:47Z</time>
      </trkpt>
      <trkpt lat="45.70388" lon="6.62941">
        <ele>1347.36</ele>
        <time>2018-09-09T13:49:48Z</time>
      </trkpt>
      <trkpt lat="45.70368" lon="6.62945">
        <ele>1346.08</ele>
        <time>2018-09-09T13:49:49Z</time>
      </trkpt>
      <trkpt lat="45.70347" lon="6.62948">
        <ele>1345</ele>
        <time>2018-09-09T13:49:50Z</time>
      </trkpt>
      <trkpt lat="45.70327" lon="6.62949">
        <ele>1344.67</ele>
        <time>2018-09-09T13:49:51Z</time>
      </trkpt>
      <trkpt lat="45.70307" lon="6.62948">
        <ele>1343.87</ele>
        <time>2018-09-09T13:49:52Z</time>
      </trkpt>
      <trkpt lat="45.70289" lon="6.62943">
        <ele>1343.63</ele>
        <time>2018-09-09T13:49:53Z</time>
      </trkpt>
      <trkpt lat="45.70271" lon="6.62937">
        <ele>1342.86</ele>
        <time>2018-09-09T13:49:54Z</time>
      </trkpt>
      <trkpt lat="45.70252" lon="6.62927">
        <ele>1341.93</ele>
        <time>2018-09-09T13:49:55Z</time>
      </trkpt>
      <trkpt lat="45.70234" lon="6.62916">
        <ele>1341.65</ele>
        <time>2018-09-09T13:49:56Z</time>
      </trkpt>
      <trkpt lat="45.70206" lon="6.62887">
        <ele>1340.14</ele>
        <time>2018-09-09T13:49:58Z</time>
      </trkpt>
      <trkpt lat="45.70178" lon="6.6286">
        <ele>1337.28</ele>
        <time>2018-09-09T13:50:00Z</time>
      </trkpt>
      <trkpt lat="45.70151" lon="6.6284">
        <ele>1333.38</ele>
        <time>2018-09-09T13:50:02Z</time>
      </trkpt>
      <trkpt lat="45.70133" lon="6.62835">
        <ele>1331.39</ele>
        <time>2018-09-09T13:50:03Z</time>
      </trkpt>
      <trkpt lat="45.70103" lon="6.62823">
        <ele>1329</ele>
        <time>2018-09-09T13:50:05Z</time>
      </trkpt>
      <trkpt lat="45.70079" lon="6.62802">
        <ele>1326.96</ele>
        <time>2018-09-09T13:50:07Z</time>
      </trkpt>
      <trkpt lat="45.70071" lon="6.62771">
        <ele>1324.47</ele>
        <time>2018-09-09T13:50:09Z</time>
      </trkpt>
      <trkpt lat="45.70053" lon="6.62739">
        <ele>1318.37</ele>
        <time>2018-09-09T13:50:11Z</time>
      </trkpt>
      <trkpt lat="45.70039" lon="6.62718">
        <ele>1317.78</ele>
        <time>2018-09-09T13:50:12Z</time>
      </trkpt>
      <trkpt lat="45.70022" lon="6.627">
        <ele>1314.81</ele>
        <time>2018-09-09T13:50:13Z</time>
      </trkpt>
      <trkpt lat="45.70006" lon="6.62681">
        <ele>1311.81</ele>
        <time>2018-09-09T13:50:14Z</time>
      </trkpt>
      <trkpt lat="45.69989" lon="6.62662">
        <ele>1310.22</ele>
        <time>2018-09-09T13:50:15Z</time>
      </trkpt>
      <trkpt lat="45.69973" lon="6.62643">
        <ele>1309.04</ele>
        <time>2018-09-09T13:50:16Z</time>
      </trkpt>
      <trkpt lat="45.6996" lon="6.62622">
        <ele>1308.68</ele>
        <time>2018-09-09T13:50:17Z</time>
      </trkpt>
      <trkpt lat="45.69948" lon="6.62601">
        <ele>1308.58</ele>
        <time>2018-09-09T13:50:18Z</time>
      </trkpt>
      <trkpt lat="45.69936" lon="6.62579">
        <ele>1307.84</ele>
        <time>2018-09-09T13:50:19Z</time>
      </trkpt>
      <trkpt lat="45.6993" lon="6.6255">
        <ele>1305.53</ele>
        <time>2018-09-09T13:50:20Z</time>
      </trkpt>
      <trkpt lat="45.69929" lon="6.62516">
        <ele>1301.33</ele>
        <time>2018-09-09T13:50:21Z</time>
      </trkpt>
      <trkpt lat="45.69925" lon="6.62486">
        <ele>1299.37</ele>
        <time>2018-09-09T13:50:22Z</time>
      </trkpt>
      <trkpt lat="45.69919" lon="6.62458">
        <ele>1297.38</ele>
        <time>2018-09-09T13:50:23Z</time>
      </trkpt>
      <trkpt lat="45.69915" lon="6.62432">
        <ele>1295.39</ele>
        <time>2018-09-09T13:50:24Z</time>
      </trkpt>
      <trkpt lat="45.69909" lon="6.62391">
        <ele>1293</ele>
        <time>2018-09-09T13:50:26Z</time>
      </trkpt>
      <trkpt lat="45.69906" lon="6.62351">
        <ele>1290.75</ele>
        <time>2018-09-09T13:50:28Z</time>
      </trkpt>
      <trkpt lat="45.69892" lon="6.62314">
        <ele>1288.03</ele>
        <time>2018-09-09T13:50:30Z</time>
      </trkpt>
      <trkpt lat="45.69884" lon="6.62289">
        <ele>1286.98</ele>
        <time>2018-09-09T13:50:31Z</time>
      </trkpt>
      <trkpt lat="45.69874" lon="6.62261">
        <ele>1285.97</ele>
        <time>2018-09-09T13:50:32Z</time>
      </trkpt>
      <trkpt lat="45.69864" lon="6.62233">
        <ele>1283.56</ele>
        <time>2018-09-09T13:50:33Z</time>
      </trkpt>
      <trkpt lat="45.69855" lon="6.62206">
        <ele>1281.44</ele>
        <time>2018-09-09T13:50:34Z</time>
      </trkpt>
      <trkpt lat="45.6985" lon="6.6218">
        <ele>1279.4</ele>
        <time>2018-09-09T13:50:35Z</time>
      </trkpt>
      <trkpt lat="45.69849" lon="6.62154">
        <ele>1278.09</ele>
        <time>2018-09-09T13:50:36Z</time>
      </trkpt>
      <trkpt lat="45.69851" lon="6.62112">
        <ele>1275.97</ele>
        <time>2018-09-09T13:50:38Z</time>
      </trkpt>
      <trkpt lat="45.69842" lon="6.62084">
        <ele>1273.96</ele>
        <time>2018-09-09T13:50:40Z</time>
      </trkpt>
      <trkpt lat="45.69822" lon="6.62058">
        <ele>1272.87</ele>
        <time>2018-09-09T13:50:42Z</time>
      </trkpt>
      <trkpt lat="45.69799" lon="6.6202">
        <ele>1271.86</ele>
        <time>2018-09-09T13:50:44Z</time>
      </trkpt>
      <trkpt lat="45.69787" lon="6.61994">
        <ele>1270.93</ele>
        <time>2018-09-09T13:50:45Z</time>
      </trkpt>
      <trkpt lat="45.69776" lon="6.61969">
        <ele>1268.55</ele>
        <time>2018-09-09T13:50:46Z</time>
      </trkpt>
      <trkpt lat="45.69764" lon="6.61944">
        <ele>1266.44</ele>
        <time>2018-09-09T13:50:47Z</time>
      </trkpt>
      <trkpt lat="45.69752" lon="6.61922">
        <ele>1265.8</ele>
        <time>2018-09-09T13:50:48Z</time>
      </trkpt>
      <trkpt lat="45.69739" lon="6.61901">
        <ele>1264.21</ele>
        <time>2018-09-09T13:50:49Z</time>
      </trkpt>
      <trkpt lat="45.6973" lon="6.61877">
        <ele>1262.34</ele>
        <time>2018-09-09T13:50:50Z</time>
      </trkpt>
      <trkpt lat="45.69721" lon="6.61853">
        <ele>1261.07</ele>
        <time>2018-09-09T13:50:51Z</time>
      </trkpt>
      <trkpt lat="45.69718" lon="6.61821">
        <ele>1257.89</ele>
        <time>2018-09-09T13:50:52Z</time>
      </trkpt>
      <trkpt lat="45.69713" lon="6.61792">
        <ele>1255.54</ele>
        <time>2018-09-09T13:50:53Z</time>
      </trkpt>
      <trkpt lat="45.69706" lon="6.61764">
        <ele>1253.43</ele>
        <time>2018-09-09T13:50:54Z</time>
      </trkpt>
      <trkpt lat="45.69699" lon="6.61737">
        <ele>1250.7</ele>
        <time>2018-09-09T13:50:55Z</time>
      </trkpt>
      <trkpt lat="45.69691" lon="6.61695">
        <ele>1245.72</ele>
        <time>2018-09-09T13:50:57Z</time>
      </trkpt>
      <trkpt lat="45.69696" lon="6.6167">
        <ele>1241.07</ele>
        <time>2018-09-09T13:51:00Z</time>
      </trkpt>
      <trkpt lat="45.69716" lon="6.617">
        <ele>1239.64</ele>
        <time>2018-09-09T13:51:03Z</time>
      </trkpt>
      <trkpt lat="45.69731" lon="6.6174">
        <ele>1238.84</ele>
        <time>2018-09-09T13:51:05Z</time>
      </trkpt>
      <trkpt lat="45.6974" lon="6.61762">
        <ele>1238.62</ele>
        <time>2018-09-09T13:51:06Z</time>
      </trkpt>
      <trkpt lat="45.69749" lon="6.61785">
        <ele>1237.16</ele>
        <time>2018-09-09T13:51:07Z</time>
      </trkpt>
      <trkpt lat="45.69765" lon="6.6183">
        <ele>1235.68</ele>
        <time>2018-09-09T13:51:09Z</time>
      </trkpt>
      <trkpt lat="45.69779" lon="6.61879">
        <ele>1230.71</ele>
        <time>2018-09-09T13:51:11Z</time>
      </trkpt>
      <trkpt lat="45.69793" lon="6.61899">
        <ele>1228.49</ele>
        <time>2018-09-09T13:51:12Z</time>
      </trkpt>
      <trkpt lat="45.69806" lon="6.61919">
        <ele>1227.12</ele>
        <time>2018-09-09T13:51:13Z</time>
      </trkpt>
      <trkpt lat="45.6982" lon="6.6194">
        <ele>1225.31</ele>
        <time>2018-09-09T13:51:14Z</time>
      </trkpt>
      <trkpt lat="45.69832" lon="6.61961">
        <ele>1224.06</ele>
        <time>2018-09-09T13:51:15Z</time>
      </trkpt>
      <trkpt lat="45.69852" lon="6.61999">
        <ele>1223.58</ele>
        <time>2018-09-09T13:51:17Z</time>
      </trkpt>
      <trkpt lat="45.69872" lon="6.62019">
        <ele>1223.54</ele>
        <time>2018-09-09T13:51:19Z</time>
      </trkpt>
      <trkpt lat="45.69891" lon="6.62009">
        <ele>1221.65</ele>
        <time>2018-09-09T13:51:22Z</time>
      </trkpt>
      <trkpt lat="45.69849" lon="6.61961">
        <ele>1216.43</ele>
        <time>2018-09-09T13:51:24Z</time>
      </trkpt>
      <trkpt lat="45.69829" lon="6.61925">
        <ele>1212.39</ele>
        <time>2018-09-09T13:51:26Z</time>
      </trkpt>
      <trkpt lat="45.69814" lon="6.61879">
        <ele>1208.39</ele>
        <time>2018-09-09T13:51:28Z</time>
      </trkpt>
      <trkpt lat="45.69809" lon="6.61853">
        <ele>1207.79</ele>
        <time>2018-09-09T13:51:29Z</time>
      </trkpt>
      <trkpt lat="45.69806" lon="6.61825">
        <ele>1206.21</ele>
        <time>2018-09-09T13:51:30Z</time>
      </trkpt>
      <trkpt lat="45.69804" lon="6.61796">
        <ele>1204.33</ele>
        <time>2018-09-09T13:51:31Z</time>
      </trkpt>
      <trkpt lat="45.69802" lon="6.61769">
        <ele>1203.07</ele>
        <time>2018-09-09T13:51:32Z</time>
      </trkpt>
      <trkpt lat="45.698" lon="6.61742">
        <ele>1201.99</ele>
        <time>2018-09-09T13:51:33Z</time>
      </trkpt>
      <trkpt lat="45.69807" lon="6.61693">
        <ele>1200.17</ele>
        <time>2018-09-09T13:51:35Z</time>
      </trkpt>
      <trkpt lat="45.69814" lon="6.61646">
        <ele>1197.98</ele>
        <time>2018-09-09T13:51:37Z</time>
      </trkpt>
      <trkpt lat="45.69812" lon="6.61605">
        <ele>1195.96</ele>
        <time>2018-09-09T13:51:39Z</time>
      </trkpt>
      <trkpt lat="45.69803" lon="6.61562">
        <ele>1194.17</ele>
        <time>2018-09-09T13:51:41Z</time>
      </trkpt>
      <trkpt lat="45.69794" lon="6.6154">
        <ele>1194.42</ele>
        <time>2018-09-09T13:51:42Z</time>
      </trkpt>
      <trkpt lat="45.69783" lon="6.61515">
        <ele>1193.8</ele>
        <time>2018-09-09T13:51:43Z</time>
      </trkpt>
      <trkpt lat="45.69767" lon="6.61496">
        <ele>1193.61</ele>
        <time>2018-09-09T13:51:44Z</time>
      </trkpt>
      <trkpt lat="45.69748" lon="6.61482">
        <ele>1192.86</ele>
        <time>2018-09-09T13:51:45Z</time>
      </trkpt>
      <trkpt lat="45.69722" lon="6.61451">
        <ele>1190.95</ele>
        <time>2018-09-09T13:51:47Z</time>
      </trkpt>
      <trkpt lat="45.69704" lon="6.61434">
        <ele>1190.78</ele>
        <time>2018-09-09T13:51:49Z</time>
      </trkpt>
      <trkpt lat="45.69723" lon="6.61428">
        <ele>1182.68</ele>
        <time>2018-09-09T13:51:54Z</time>
      </trkpt>
      <trkpt lat="45.69747" lon="6.61447">
        <ele>1181.84</ele>
        <time>2018-09-09T13:51:56Z</time>
      </trkpt>
      <trkpt lat="45.69781" lon="6.61459">
        <ele>1178.13</ele>
        <time>2018-09-09T13:51:58Z</time>
      </trkpt>
      <trkpt lat="45.69815" lon="6.61466">
        <ele>1172.68</ele>
        <time>2018-09-09T13:52:00Z</time>
      </trkpt>
      <trkpt lat="45.69841" lon="6.61487">
        <ele>1167.5</ele>
        <time>2018-09-09T13:52:02Z</time>
      </trkpt>
      <trkpt lat="45.69863" lon="6.61515">
        <ele>1166.62</ele>
        <time>2018-09-09T13:52:04Z</time>
      </trkpt>
      <trkpt lat="45.69863" lon="6.61542">
        <ele>1166.56</ele>
        <time>2018-09-09T13:52:05Z</time>
      </trkpt>
      <trkpt lat="45.69875" lon="6.6159">
        <ele>1164.5</ele>
        <time>2018-09-09T13:52:07Z</time>
      </trkpt>
      <trkpt lat="45.69881" lon="6.61615">
        <ele>1163.82</ele>
        <time>2018-09-09T13:52:08Z</time>
      </trkpt>
      <trkpt lat="45.69889" lon="6.6164">
        <ele>1163.62</ele>
        <time>2018-09-09T13:52:09Z</time>
      </trkpt>
      <trkpt lat="45.69895" lon="6.61667">
        <ele>1162.86</ele>
        <time>2018-09-09T13:52:10Z</time>
      </trkpt>
      <trkpt lat="45.69902" lon="6.61693">
        <ele>1162.63</ele>
        <time>2018-09-09T13:52:11Z</time>
      </trkpt>
      <trkpt lat="45.6991" lon="6.61719">
        <ele>1162.56</ele>
        <time>2018-09-09T13:52:12Z</time>
      </trkpt>
      <trkpt lat="45.6992" lon="6.61744">
        <ele>1161.84</ele>
        <time>2018-09-09T13:52:13Z</time>
      </trkpt>
      <trkpt lat="45.6993" lon="6.61771">
        <ele>1158.12</ele>
        <time>2018-09-09T13:52:14Z</time>
      </trkpt>
      <trkpt lat="45.69943" lon="6.61795">
        <ele>1154.91</ele>
        <time>2018-09-09T13:52:15Z</time>
      </trkpt>
      <trkpt lat="45.69956" lon="6.61818">
        <ele>1152.54</ele>
        <time>2018-09-09T13:52:16Z</time>
      </trkpt>
      <trkpt lat="45.6997" lon="6.61836">
        <ele>1151.14</ele>
        <time>2018-09-09T13:52:17Z</time>
      </trkpt>
      <trkpt lat="45.69987" lon="6.6185">
        <ele>1148.61</ele>
        <time>2018-09-09T13:52:18Z</time>
      </trkpt>
      <trkpt lat="45.70005" lon="6.61861">
        <ele>1146.46</ele>
        <time>2018-09-09T13:52:19Z</time>
      </trkpt>
      <trkpt lat="45.70023" lon="6.61871">
        <ele>1145.11</ele>
        <time>2018-09-09T13:52:20Z</time>
      </trkpt>
      <trkpt lat="45.70041" lon="6.61882">
        <ele>1144</ele>
        <time>2018-09-09T13:52:21Z</time>
      </trkpt>
      <trkpt lat="45.70058" lon="6.61892">
        <ele>1142.97</ele>
        <time>2018-09-09T13:52:22Z</time>
      </trkpt>
      <trkpt lat="45.70081" lon="6.61914">
        <ele>1139.56</ele>
        <time>2018-09-09T13:52:24Z</time>
      </trkpt>
      <trkpt lat="45.70092" lon="6.61952">
        <ele>1136.1</ele>
        <time>2018-09-09T13:52:26Z</time>
      </trkpt>
      <trkpt lat="45.701" lon="6.61998">
        <ele>1134.88</ele>
        <time>2018-09-09T13:52:28Z</time>
      </trkpt>
      <trkpt lat="45.70109" lon="6.62037">
        <ele>1132.46</ele>
        <time>2018-09-09T13:52:30Z</time>
      </trkpt>
      <trkpt lat="45.70121" lon="6.62081">
        <ele>1129.09</ele>
        <time>2018-09-09T13:52:32Z</time>
      </trkpt>
      <trkpt lat="45.70126" lon="6.62106">
        <ele>1128</ele>
        <time>2018-09-09T13:52:33Z</time>
      </trkpt>
      <trkpt lat="45.70142" lon="6.62155">
        <ele>1123.65</ele>
        <time>2018-09-09T13:52:35Z</time>
      </trkpt>
      <trkpt lat="45.70151" lon="6.62178">
        <ele>1120.77</ele>
        <time>2018-09-09T13:52:36Z</time>
      </trkpt>
      <trkpt lat="45.70163" lon="6.62202">
        <ele>1118.5</ele>
        <time>2018-09-09T13:52:37Z</time>
      </trkpt>
      <trkpt lat="45.70178" lon="6.62226">
        <ele>1117.12</ele>
        <time>2018-09-09T13:52:38Z</time>
      </trkpt>
      <trkpt lat="45.7019" lon="6.6225">
        <ele>1116.01</ele>
        <time>2018-09-09T13:52:39Z</time>
      </trkpt>
      <trkpt lat="45.70204" lon="6.62273">
        <ele>1115.67</ele>
        <time>2018-09-09T13:52:40Z</time>
      </trkpt>
      <trkpt lat="45.70217" lon="6.62295">
        <ele>1114.87</ele>
        <time>2018-09-09T13:52:41Z</time>
      </trkpt>
      <trkpt lat="45.7023" lon="6.62316">
        <ele>1113.23</ele>
        <time>2018-09-09T13:52:42Z</time>
      </trkpt>
      <trkpt lat="45.70244" lon="6.62334">
        <ele>1112.04</ele>
        <time>2018-09-09T13:52:43Z</time>
      </trkpt>
      <trkpt lat="45.70271" lon="6.62356">
        <ele>1111.58</ele>
        <time>2018-09-09T13:52:45Z</time>
      </trkpt>
      <trkpt lat="45.70303" lon="6.62378">
        <ele>1110.63</ele>
        <time>2018-09-09T13:52:47Z</time>
      </trkpt>
      <trkpt lat="45.70323" lon="6.62395">
        <ele>1109.16</ele>
        <time>2018-09-09T13:52:48Z</time>
      </trkpt>
      <trkpt lat="45.70344" lon="6.62408">
        <ele>1109.42</ele>
        <time>2018-09-09T13:52:49Z</time>
      </trkpt>
      <trkpt lat="45.70366" lon="6.62419">
        <ele>1108.8</ele>
        <time>2018-09-09T13:52:50Z</time>
      </trkpt>
      <trkpt lat="45.70387" lon="6.62429">
        <ele>1107.91</ele>
        <time>2018-09-09T13:52:51Z</time>
      </trkpt>
      <trkpt lat="45.70409" lon="6.62438">
        <ele>1107.65</ele>
        <time>2018-09-09T13:52:52Z</time>
      </trkpt>
      <trkpt lat="45.7043" lon="6.62447">
        <ele>1105.47</ele>
        <time>2018-09-09T13:52:53Z</time>
      </trkpt>
      <trkpt lat="45.70455" lon="6.62447">
        <ele>1103.41</ele>
        <time>2018-09-09T13:52:54Z</time>
      </trkpt>
      <trkpt lat="45.70475" lon="6.62451">
        <ele>1099.3</ele>
        <time>2018-09-09T13:52:55Z</time>
      </trkpt>
      <trkpt lat="45.70497" lon="6.62455">
        <ele>1095.96</ele>
        <time>2018-09-09T13:52:56Z</time>
      </trkpt>
      <trkpt lat="45.70519" lon="6.62461">
        <ele>1093.56</ele>
        <time>2018-09-09T13:52:57Z</time>
      </trkpt>
      <trkpt lat="45.7055" lon="6.62464">
        <ele>1090.1</ele>
        <time>2018-09-09T13:52:59Z</time>
      </trkpt>
      <trkpt lat="45.70568" lon="6.62469">
        <ele>1088.18</ele>
        <time>2018-09-09T13:53:01Z</time>
      </trkpt>
      <trkpt lat="45.70554" lon="6.62447">
        <ele>1086.33</ele>
        <time>2018-09-09T13:53:02Z</time>
      </trkpt>
      <trkpt lat="45.70518" lon="6.62435">
        <ele>1083.67</ele>
        <time>2018-09-09T13:53:03Z</time>
      </trkpt>
      <trkpt lat="45.70487" lon="6.62432">
        <ele>1079.2</ele>
        <time>2018-09-09T13:53:05Z</time>
      </trkpt>
      <trkpt lat="45.70454" lon="6.62412">
        <ele>1077.89</ele>
        <time>2018-09-09T13:53:07Z</time>
      </trkpt>
      <trkpt lat="45.7042" lon="6.62384">
        <ele>1074.55</ele>
        <time>2018-09-09T13:53:09Z</time>
      </trkpt>
      <trkpt lat="45.70405" lon="6.62368">
        <ele>1073.14</ele>
        <time>2018-09-09T13:53:10Z</time>
      </trkpt>
      <trkpt lat="45.70388" lon="6.62333">
        <ele>1070.28</ele>
        <time>2018-09-09T13:53:12Z</time>
      </trkpt>
      <trkpt lat="45.70377" lon="6.62305">
        <ele>1060.83</ele>
        <time>2018-09-09T13:53:15Z</time>
      </trkpt>
      <trkpt lat="45.70371" lon="6.62273">
        <ele>1055.37</ele>
        <time>2018-09-09T13:53:18Z</time>
      </trkpt>
      <trkpt lat="45.70374" lon="6.62235">
        <ele>1051.21</ele>
        <time>2018-09-09T13:53:21Z</time>
      </trkpt>
      <trkpt lat="45.70378" lon="6.62204">
        <ele>1048.07</ele>
        <time>2018-09-09T13:53:23Z</time>
      </trkpt>
      <trkpt lat="45.70381" lon="6.6217">
        <ele>1045.97</ele>
        <time>2018-09-09T13:53:25Z</time>
      </trkpt>
      <trkpt lat="45.70374" lon="6.62144">
        <ele>1045.36</ele>
        <time>2018-09-09T13:53:27Z</time>
      </trkpt>
      <trkpt lat="45.70358" lon="6.62118">
        <ele>1044.55</ele>
        <time>2018-09-09T13:53:30Z</time>
      </trkpt>
      <trkpt lat="45.70352" lon="6.62089">
        <ele>1042.01</ele>
        <time>2018-09-09T13:53:33Z</time>
      </trkpt>
      <trkpt lat="45.7036" lon="6.62064">
        <ele>1040.57</ele>
        <time>2018-09-09T13:53:36Z</time>
      </trkpt>
      <trkpt lat="45.7038" lon="6.62049">
        <ele>1041.44</ele>
        <time>2018-09-09T13:53:38Z</time>
      </trkpt>
      <trkpt lat="45.70409" lon="6.62037">
        <ele>1038.51</ele>
        <time>2018-09-09T13:53:40Z</time>
      </trkpt>
      <trkpt lat="45.70443" lon="6.62023">
        <ele>1036.92</ele>
        <time>2018-09-09T13:53:42Z</time>
      </trkpt>
      <trkpt lat="45.70477" lon="6.6201">
        <ele>1035.66</ele>
        <time>2018-09-09T13:53:44Z</time>
      </trkpt>
      <trkpt lat="45.7051" lon="6.62">
        <ele>1033.93</ele>
        <time>2018-09-09T13:53:46Z</time>
      </trkpt>
      <trkpt lat="45.70541" lon="6.61981">
        <ele>1033.57</ele>
        <time>2018-09-09T13:53:48Z</time>
      </trkpt>
      <trkpt lat="45.70571" lon="6.61954">
        <ele>1032.62</ele>
        <time>2018-09-09T13:53:50Z</time>
      </trkpt>
      <trkpt lat="45.70599" lon="6.61925">
        <ele>1031.14</ele>
        <time>2018-09-09T13:53:52Z</time>
      </trkpt>
      <trkpt lat="45.70615" lon="6.61885">
        <ele>1029.19</ele>
        <time>2018-09-09T13:53:54Z</time>
      </trkpt>
      <trkpt lat="45.70627" lon="6.61836">
        <ele>1027.68</ele>
        <time>2018-09-09T13:53:56Z</time>
      </trkpt>
      <trkpt lat="45.70632" lon="6.61809">
        <ele>1026.18</ele>
        <time>2018-09-09T13:53:57Z</time>
      </trkpt>
      <trkpt lat="45.70635" lon="6.6178">
        <ele>1025.72</ele>
        <time>2018-09-09T13:53:58Z</time>
      </trkpt>
      <trkpt lat="45.70637" lon="6.61751">
        <ele>1024.89</ele>
        <time>2018-09-09T13:53:59Z</time>
      </trkpt>
      <trkpt lat="45.7064" lon="6.61722">
        <ele>1023.94</ele>
        <time>2018-09-09T13:54:00Z</time>
      </trkpt>
      <trkpt lat="45.70643" lon="6.61692">
        <ele>1023.65</ele>
        <time>2018-09-09T13:54:01Z</time>
      </trkpt>
      <trkpt lat="45.70645" lon="6.61661">
        <ele>1022.87</ele>
        <time>2018-09-09T13:54:02Z</time>
      </trkpt>
      <trkpt lat="45.70646" lon="6.6163">
        <ele>1021.93</ele>
        <time>2018-09-09T13:54:03Z</time>
      </trkpt>
      <trkpt lat="45.70646" lon="6.61599">
        <ele>1021.65</ele>
        <time>2018-09-09T13:54:04Z</time>
      </trkpt>
      <trkpt lat="45.70645" lon="6.61568">
        <ele>1020.87</ele>
        <time>2018-09-09T13:54:05Z</time>
      </trkpt>
      <trkpt lat="45.70644" lon="6.61537">
        <ele>1019.93</ele>
        <time>2018-09-09T13:54:06Z</time>
      </trkpt>
      <trkpt lat="45.70643" lon="6.61508">
        <ele>1019.65</ele>
        <time>2018-09-09T13:54:07Z</time>
      </trkpt>
      <trkpt lat="45.70646" lon="6.6148">
        <ele>1019.57</ele>
        <time>2018-09-09T13:54:08Z</time>
      </trkpt>
      <trkpt lat="45.70648" lon="6.61454">
        <ele>1018.84</ele>
        <time>2018-09-09T13:54:09Z</time>
      </trkpt>
      <trkpt lat="45.7066" lon="6.61427">
        <ele>1018.62</ele>
        <time>2018-09-09T13:54:10Z</time>
      </trkpt>
      <trkpt lat="45.70669" lon="6.61401">
        <ele>1018.56</ele>
        <time>2018-09-09T13:54:11Z</time>
      </trkpt>
      <trkpt lat="45.70678" lon="6.61375">
        <ele>1017.84</ele>
        <time>2018-09-09T13:54:12Z</time>
      </trkpt>
      <trkpt lat="45.70687" lon="6.6135">
        <ele>1016.92</ele>
        <time>2018-09-09T13:54:13Z</time>
      </trkpt>
      <trkpt lat="45.70707" lon="6.61316">
        <ele>1014.26</ele>
        <time>2018-09-09T13:54:15Z</time>
      </trkpt>
      <trkpt lat="45.70714" lon="6.61286">
        <ele>1012.2</ele>
        <time>2018-09-09T13:54:17Z</time>
      </trkpt>
      <trkpt lat="45.70706" lon="6.61254">
        <ele>1009.77</ele>
        <time>2018-09-09T13:54:19Z</time>
      </trkpt>
      <trkpt lat="45.70704" lon="6.6122">
        <ele>1008.64</ele>
        <time>2018-09-09T13:54:21Z</time>
      </trkpt>
      <trkpt lat="45.70716" lon="6.61188">
        <ele>1006.72</ele>
        <time>2018-09-09T13:54:23Z</time>
      </trkpt>
      <trkpt lat="45.70693" lon="6.61153">
        <ele>1003.05</ele>
        <time>2018-09-09T13:54:25Z</time>
      </trkpt>
      <trkpt lat="45.70673" lon="6.61123">
        <ele>999.36</ele>
        <time>2018-09-09T13:54:27Z</time>
      </trkpt>
      <trkpt lat="45.70662" lon="6.61082">
        <ele>998.61</ele>
        <time>2018-09-09T13:54:29Z</time>
      </trkpt>
      <trkpt lat="45.70684" lon="6.61046">
        <ele>997.15</ele>
        <time>2018-09-09T13:54:30Z</time>
      </trkpt>
      <trkpt lat="45.7069" lon="6.61019">
        <ele>996.72</ele>
        <time>2018-09-09T13:54:31Z</time>
      </trkpt>
      <trkpt lat="45.70697" lon="6.60991">
        <ele>994.49</ele>
        <time>2018-09-09T13:54:32Z</time>
      </trkpt>
      <trkpt lat="45.70703" lon="6.60965">
        <ele>991.72</ele>
        <time>2018-09-09T13:54:33Z</time>
      </trkpt>
      <trkpt lat="45.70719" lon="6.60924">
        <ele>987.21</ele>
        <time>2018-09-09T13:54:35Z</time>
      </trkpt>
      <trkpt lat="45.70735" lon="6.60888">
        <ele>984.77</ele>
        <time>2018-09-09T13:54:37Z</time>
      </trkpt>
      <trkpt lat="45.70736" lon="6.60855">
        <ele>982.24</ele>
        <time>2018-09-09T13:54:39Z</time>
      </trkpt>
      <trkpt lat="45.70727" lon="6.60814">
        <ele>980.2</ele>
        <time>2018-09-09T13:54:41Z</time>
      </trkpt>
      <trkpt lat="45.70713" lon="6.60767">
        <ele>975.25</ele>
        <time>2018-09-09T13:54:43Z</time>
      </trkpt>
      <trkpt lat="45.70703" lon="6.6072">
        <ele>972.99</ele>
        <time>2018-09-09T13:54:45Z</time>
      </trkpt>
      <trkpt lat="45.70711" lon="6.60676">
        <ele>969.56</ele>
        <time>2018-09-09T13:54:47Z</time>
      </trkpt>
      <trkpt lat="45.70725" lon="6.60633">
        <ele>965.61</ele>
        <time>2018-09-09T13:54:49Z</time>
      </trkpt>
      <trkpt lat="45.70738" lon="6.6059">
        <ele>962.81</ele>
        <time>2018-09-09T13:54:51Z</time>
      </trkpt>
      <trkpt lat="45.70736" lon="6.60548">
        <ele>960.04</ele>
        <time>2018-09-09T13:54:53Z</time>
      </trkpt>
      <trkpt lat="45.70745" lon="6.60519">
        <ele>957.76</ele>
        <time>2018-09-09T13:54:55Z</time>
      </trkpt>
      <trkpt lat="45.70759" lon="6.60499">
        <ele>956.15</ele>
        <time>2018-09-09T13:54:57Z</time>
      </trkpt>
      <trkpt lat="45.70764" lon="6.60468">
        <ele>953.98</ele>
        <time>2018-09-09T13:54:59Z</time>
      </trkpt>
      <trkpt lat="45.70755" lon="6.60418">
        <ele>952.87</ele>
        <time>2018-09-09T13:55:01Z</time>
      </trkpt>
      <trkpt lat="45.70749" lon="6.60391">
        <ele>951.93</ele>
        <time>2018-09-09T13:55:02Z</time>
      </trkpt>
      <trkpt lat="45.70743" lon="6.60341">
        <ele>949.96</ele>
        <time>2018-09-09T13:55:04Z</time>
      </trkpt>
      <trkpt lat="45.70727" lon="6.60295">
        <ele>947.05</ele>
        <time>2018-09-09T13:55:06Z</time>
      </trkpt>
      <trkpt lat="45.70706" lon="6.60248">
        <ele>944.27</ele>
        <time>2018-09-09T13:55:08Z</time>
      </trkpt>
      <trkpt lat="45.70696" lon="6.60223">
        <ele>942.35</ele>
        <time>2018-09-09T13:55:09Z</time>
      </trkpt>
      <trkpt lat="45.70688" lon="6.60195">
        <ele>941.08</ele>
        <time>2018-09-09T13:55:10Z</time>
      </trkpt>
      <trkpt lat="45.70681" lon="6.60167">
        <ele>939.29</ele>
        <time>2018-09-09T13:55:11Z</time>
      </trkpt>
      <trkpt lat="45.70673" lon="6.6014">
        <ele>937.36</ele>
        <time>2018-09-09T13:55:12Z</time>
      </trkpt>
      <trkpt lat="45.70667" lon="6.60114">
        <ele>936.08</ele>
        <time>2018-09-09T13:55:13Z</time>
      </trkpt>
      <trkpt lat="45.70666" lon="6.60086">
        <ele>934.3</ele>
        <time>2018-09-09T13:55:14Z</time>
      </trkpt>
      <trkpt lat="45.70667" lon="6.60057">
        <ele>931.66</ele>
        <time>2018-09-09T13:55:15Z</time>
      </trkpt>
      <trkpt lat="45.70669" lon="6.60027">
        <ele>930.17</ele>
        <time>2018-09-09T13:55:16Z</time>
      </trkpt>
      <trkpt lat="45.70672" lon="6.59997">
        <ele>929.02</ele>
        <time>2018-09-09T13:55:17Z</time>
      </trkpt>
      <trkpt lat="45.70674" lon="6.59966">
        <ele>928.68</ele>
        <time>2018-09-09T13:55:18Z</time>
      </trkpt>
      <trkpt lat="45.70678" lon="6.59936">
        <ele>927.88</ele>
        <time>2018-09-09T13:55:19Z</time>
      </trkpt>
      <trkpt lat="45.70684" lon="6.59906">
        <ele>926.93</ele>
        <time>2018-09-09T13:55:20Z</time>
      </trkpt>
      <trkpt lat="45.7069" lon="6.59878">
        <ele>926.65</ele>
        <time>2018-09-09T13:55:21Z</time>
      </trkpt>
      <trkpt lat="45.70695" lon="6.5985">
        <ele>925.87</ele>
        <time>2018-09-09T13:55:22Z</time>
      </trkpt>
      <trkpt lat="45.707" lon="6.59823">
        <ele>924.93</ele>
        <time>2018-09-09T13:55:23Z</time>
      </trkpt>
      <trkpt lat="45.70704" lon="6.59796">
        <ele>923.95</ele>
        <time>2018-09-09T13:55:24Z</time>
      </trkpt>
      <trkpt lat="45.70708" lon="6.59768">
        <ele>922.96</ele>
        <time>2018-09-09T13:55:25Z</time>
      </trkpt>
      <trkpt lat="45.70709" lon="6.59739">
        <ele>921.96</ele>
        <time>2018-09-09T13:55:26Z</time>
      </trkpt>
      <trkpt lat="45.7071" lon="6.5971">
        <ele>917.46</ele>
        <time>2018-09-09T13:55:27Z</time>
      </trkpt>
      <trkpt lat="45.70712" lon="6.59679">
        <ele>911.91</ele>
        <time>2018-09-09T13:55:28Z</time>
      </trkpt>
      <trkpt lat="45.7071" lon="6.59649">
        <ele>909.54</ele>
        <time>2018-09-09T13:55:29Z</time>
      </trkpt>
      <trkpt lat="45.70709" lon="6.59618">
        <ele>908.14</ele>
        <time>2018-09-09T13:55:30Z</time>
      </trkpt>
      <trkpt lat="45.70706" lon="6.59567">
        <ele>906.68</ele>
        <time>2018-09-09T13:55:32Z</time>
      </trkpt>
      <trkpt lat="45.70705" lon="6.59521">
        <ele>905.63</ele>
        <time>2018-09-09T13:55:34Z</time>
      </trkpt>
      <trkpt lat="45.70713" lon="6.59479">
        <ele>903.44</ele>
        <time>2018-09-09T13:55:36Z</time>
      </trkpt>
      <trkpt lat="45.70715" lon="6.59453">
        <ele>902.1</ele>
        <time>2018-09-09T13:55:37Z</time>
      </trkpt>
      <trkpt lat="45.70718" lon="6.59426">
        <ele>900.3</ele>
        <time>2018-09-09T13:55:38Z</time>
      </trkpt>
      <trkpt lat="45.70719" lon="6.59399">
        <ele>896.96</ele>
        <time>2018-09-09T13:55:39Z</time>
      </trkpt>
      <trkpt lat="45.70734" lon="6.5935">
        <ele>891.53</ele>
        <time>2018-09-09T13:55:41Z</time>
      </trkpt>
      <trkpt lat="45.70745" lon="6.59326">
        <ele>890.13</ele>
        <time>2018-09-09T13:55:42Z</time>
      </trkpt>
      <trkpt lat="45.70756" lon="6.59305">
        <ele>888.31</ele>
        <time>2018-09-09T13:55:43Z</time>
      </trkpt>
      <trkpt lat="45.70766" lon="6.59282">
        <ele>886.36</ele>
        <time>2018-09-09T13:55:44Z</time>
      </trkpt>
      <trkpt lat="45.70774" lon="6.59258">
        <ele>885.08</ele>
        <time>2018-09-09T13:55:45Z</time>
      </trkpt>
      <trkpt lat="45.70786" lon="6.59213">
        <ele>881.36</ele>
        <time>2018-09-09T13:55:47Z</time>
      </trkpt>
      <trkpt lat="45.70806" lon="6.59181">
        <ele>877.39</ele>
        <time>2018-09-09T13:55:49Z</time>
      </trkpt>
      <trkpt lat="45.70832" lon="6.59168">
        <ele>873.39</ele>
        <time>2018-09-09T13:55:51Z</time>
      </trkpt>
      <trkpt lat="45.70857" lon="6.59163">
        <ele>871.21</ele>
        <time>2018-09-09T13:55:53Z</time>
      </trkpt>
      <trkpt lat="45.70877" lon="6.59138">
        <ele>868.98</ele>
        <time>2018-09-09T13:55:55Z</time>
      </trkpt>
      <trkpt lat="45.70898" lon="6.59103">
        <ele>866.26</ele>
        <time>2018-09-09T13:55:57Z</time>
      </trkpt>
      <trkpt lat="45.7091" lon="6.59083">
        <ele>865.05</ele>
        <time>2018-09-09T13:55:58Z</time>
      </trkpt>
      <trkpt lat="45.70925" lon="6.59056">
        <ele>863.99</ele>
        <time>2018-09-09T13:55:59Z</time>
      </trkpt>
      <trkpt lat="45.7094" lon="6.59033">
        <ele>862.97</ele>
        <time>2018-09-09T13:56:00Z</time>
      </trkpt>
      <trkpt lat="45.70954" lon="6.5901">
        <ele>861.26</ele>
        <time>2018-09-09T13:56:01Z</time>
      </trkpt>
      <trkpt lat="45.70978" lon="6.58981">
        <ele>857.17</ele>
        <time>2018-09-09T13:56:03Z</time>
      </trkpt>
      <trkpt lat="45.70996" lon="6.58965">
        <ele>854.98</ele>
        <time>2018-09-09T13:56:05Z</time>
      </trkpt>
      <trkpt lat="45.71012" lon="6.58942">
        <ele>852.02</ele>
        <time>2018-09-09T13:56:08Z</time>
      </trkpt>
      <trkpt lat="45.71031" lon="6.58938">
        <ele>849.63</ele>
        <time>2018-09-09T13:56:12Z</time>
      </trkpt>
      <trkpt lat="45.71026" lon="6.58966">
        <ele>848.56</ele>
        <time>2018-09-09T13:56:15Z</time>
      </trkpt>
      <trkpt lat="45.71008" lon="6.58989">
        <ele>847.62</ele>
        <time>2018-09-09T13:56:18Z</time>
      </trkpt>
      <trkpt lat="45.70992" lon="6.59002">
        <ele>846.56</ele>
        <time>2018-09-09T13:56:21Z</time>
      </trkpt>
      <trkpt lat="45.71005" lon="6.5902">
        <ele>844.86</ele>
        <time>2018-09-09T13:56:25Z</time>
      </trkpt>
      <trkpt lat="45.7103" lon="6.59003">
        <ele>844.07</ele>
        <time>2018-09-09T13:56:27Z</time>
      </trkpt>
      <trkpt lat="45.71059" lon="6.58978">
        <ele>840.36</ele>
        <time>2018-09-09T13:56:29Z</time>
      </trkpt>
      <trkpt lat="45.71086" lon="6.58957">
        <ele>838</ele>
        <time>2018-09-09T13:56:31Z</time>
      </trkpt>
      <trkpt lat="45.71106" lon="6.58931">
        <ele>834.14</ele>
        <time>2018-09-09T13:56:33Z</time>
      </trkpt>
      <trkpt lat="45.7112" lon="6.58884">
        <ele>832.68</ele>
        <time>2018-09-09T13:56:35Z</time>
      </trkpt>
      <trkpt lat="45.71126" lon="6.58856">
        <ele>831.87</ele>
        <time>2018-09-09T13:56:36Z</time>
      </trkpt>
      <trkpt lat="45.71132" lon="6.5883">
        <ele>830.93</ele>
        <time>2018-09-09T13:56:37Z</time>
      </trkpt>
      <trkpt lat="45.71138" lon="6.58803">
        <ele>830.65</ele>
        <time>2018-09-09T13:56:38Z</time>
      </trkpt>
      <trkpt lat="45.71146" lon="6.58755">
        <ele>828.23</ele>
        <time>2018-09-09T13:56:40Z</time>
      </trkpt>
      <trkpt lat="45.71163" lon="6.58712">
        <ele>825.98</ele>
        <time>2018-09-09T13:56:42Z</time>
      </trkpt>
      <trkpt lat="45.71172" lon="6.58688">
        <ele>824.97</ele>
        <time>2018-09-09T13:56:43Z</time>
      </trkpt>
      <trkpt lat="45.71178" lon="6.58659">
        <ele>823.96</ele>
        <time>2018-09-09T13:56:44Z</time>
      </trkpt>
      <trkpt lat="45.71181" lon="6.58626">
        <ele>822.26</ele>
        <time>2018-09-09T13:56:45Z</time>
      </trkpt>
      <trkpt lat="45.71183" lon="6.58588">
        <ele>819.65</ele>
        <time>2018-09-09T13:56:46Z</time>
      </trkpt>
      <trkpt lat="45.71186" lon="6.58551">
        <ele>817.47</ele>
        <time>2018-09-09T13:56:47Z</time>
      </trkpt>
      <trkpt lat="45.71188" lon="6.58515">
        <ele>816.11</ele>
        <time>2018-09-09T13:56:48Z</time>
      </trkpt>
      <trkpt lat="45.71191" lon="6.58482">
        <ele>815.01</ele>
        <time>2018-09-09T13:56:49Z</time>
      </trkpt>
      <trkpt lat="45.71193" lon="6.58452">
        <ele>813.27</ele>
        <time>2018-09-09T13:56:50Z</time>
      </trkpt>
      <trkpt lat="45.71197" lon="6.58426">
        <ele>811.35</ele>
        <time>2018-09-09T13:56:51Z</time>
      </trkpt>
      <trkpt lat="45.71202" lon="6.58399">
        <ele>810.08</ele>
        <time>2018-09-09T13:56:52Z</time>
      </trkpt>
      <trkpt lat="45.71207" lon="6.58373">
        <ele>809.7</ele>
        <time>2018-09-09T13:56:53Z</time>
      </trkpt>
      <trkpt lat="45.71217" lon="6.58346">
        <ele>809.58</ele>
        <time>2018-09-09T13:56:54Z</time>
      </trkpt>
      <trkpt lat="45.7124" lon="6.5831">
        <ele>807.45</ele>
        <time>2018-09-09T13:56:55Z</time>
      </trkpt>
      <trkpt lat="45.71258" lon="6.58278">
        <ele>804.01</ele>
        <time>2018-09-09T13:56:56Z</time>
      </trkpt>
      <trkpt lat="45.71272" lon="6.58249">
        <ele>802.27</ele>
        <time>2018-09-09T13:56:57Z</time>
      </trkpt>
      <trkpt lat="45.71283" lon="6.58223">
        <ele>800.35</ele>
        <time>2018-09-09T13:56:58Z</time>
      </trkpt>
      <trkpt lat="45.71292" lon="6.58194">
        <ele>799.08</ele>
        <time>2018-09-09T13:56:59Z</time>
      </trkpt>
      <trkpt lat="45.71296" lon="6.58162">
        <ele>798</ele>
        <time>2018-09-09T13:57:00Z</time>
      </trkpt>
      <trkpt lat="45.713" lon="6.5813">
        <ele>797.67</ele>
        <time>2018-09-09T13:57:01Z</time>
      </trkpt>
      <trkpt lat="45.71307" lon="6.58099">
        <ele>796.87</ele>
        <time>2018-09-09T13:57:02Z</time>
      </trkpt>
      <trkpt lat="45.71313" lon="6.58066">
        <ele>796.63</ele>
        <time>2018-09-09T13:57:03Z</time>
      </trkpt>
      <trkpt lat="45.71317" lon="6.58034">
        <ele>795.16</ele>
        <time>2018-09-09T13:57:04Z</time>
      </trkpt>
      <trkpt lat="45.71319" lon="6.58006">
        <ele>794.02</ele>
        <time>2018-09-09T13:57:05Z</time>
      </trkpt>
      <trkpt lat="45.7132" lon="6.57962">
        <ele>792.67</ele>
        <time>2018-09-09T13:57:07Z</time>
      </trkpt>
      <trkpt lat="45.71342" lon="6.57928">
        <ele>789.32</ele>
        <time>2018-09-09T13:57:09Z</time>
      </trkpt>
      <trkpt lat="45.71358" lon="6.57904">
        <ele>786.67</ele>
        <time>2018-09-09T13:57:10Z</time>
      </trkpt>
      <trkpt lat="45.71376" lon="6.57878">
        <ele>783.77</ele>
        <time>2018-09-09T13:57:11Z</time>
      </trkpt>
      <trkpt lat="45.71396" lon="6.57859">
        <ele>781.5</ele>
        <time>2018-09-09T13:57:12Z</time>
      </trkpt>
      <trkpt lat="45.71408" lon="6.57837">
        <ele>778.72</ele>
        <time>2018-09-09T13:57:13Z</time>
      </trkpt>
      <trkpt lat="45.71424" lon="6.57795">
        <ele>774.42</ele>
        <time>2018-09-09T13:57:15Z</time>
      </trkpt>
      <trkpt lat="45.71428" lon="6.57768">
        <ele>773.1</ele>
        <time>2018-09-09T13:57:16Z</time>
      </trkpt>
      <trkpt lat="45.71432" lon="6.5774">
        <ele>772</ele>
        <time>2018-09-09T13:57:17Z</time>
      </trkpt>
      <trkpt lat="45.71437" lon="6.57713">
        <ele>770.97</ele>
        <time>2018-09-09T13:57:18Z</time>
      </trkpt>
      <trkpt lat="45.71443" lon="6.57688">
        <ele>769.96</ele>
        <time>2018-09-09T13:57:19Z</time>
      </trkpt>
      <trkpt lat="45.71448" lon="6.57663">
        <ele>769.66</ele>
        <time>2018-09-09T13:57:20Z</time>
      </trkpt>
      <trkpt lat="45.71456" lon="6.57638">
        <ele>768.17</ele>
        <time>2018-09-09T13:57:21Z</time>
      </trkpt>
      <trkpt lat="45.71482" lon="6.57613">
        <ele>765.98</ele>
        <time>2018-09-09T13:57:23Z</time>
      </trkpt>
      <trkpt lat="45.71504" lon="6.57626">
        <ele>764.97</ele>
        <time>2018-09-09T13:57:24Z</time>
      </trkpt>
      <trkpt lat="45.71533" lon="6.57624">
        <ele>761.35</ele>
        <time>2018-09-09T13:57:26Z</time>
      </trkpt>
      <trkpt lat="45.71555" lon="6.57625">
        <ele>758.78</ele>
        <time>2018-09-09T13:57:28Z</time>
      </trkpt>
      <trkpt lat="45.71574" lon="6.57625">
        <ele>757.63</ele>
        <time>2018-09-09T13:57:31Z</time>
      </trkpt>
      <trkpt lat="45.71596" lon="6.57624">
        <ele>754.95</ele>
        <time>2018-09-09T13:57:34Z</time>
      </trkpt>
      <trkpt lat="45.7162" lon="6.57622">
        <ele>751.96</ele>
        <time>2018-09-09T13:57:37Z</time>
      </trkpt>
      <trkpt lat="45.71644" lon="6.57613">
        <ele>749.72</ele>
        <time>2018-09-09T13:57:40Z</time>
      </trkpt>
      <trkpt lat="45.71667" lon="6.57607">
        <ele>748.14</ele>
        <time>2018-09-09T13:57:43Z</time>
      </trkpt>
      <trkpt lat="45.71687" lon="6.57599">
        <ele>745.94</ele>
        <time>2018-09-09T13:57:46Z</time>
      </trkpt>
      <trkpt lat="45.71708" lon="6.57584">
        <ele>745.74</ele>
        <time>2018-09-09T13:57:50Z</time>
      </trkpt>
      <trkpt lat="45.71726" lon="6.57574">
        <ele>745.39</ele>
        <time>2018-09-09T13:57:53Z</time>
      </trkpt>
      <trkpt lat="45.71742" lon="6.57559">
        <ele>745.45</ele>
        <time>2018-09-09T13:57:57Z</time>
      </trkpt>
      <trkpt lat="45.71763" lon="6.57549">
        <ele>745.53</ele>
        <time>2018-09-09T13:58:00Z</time>
      </trkpt>
      <trkpt lat="45.71782" lon="6.57536">
        <ele>743.65</ele>
        <time>2018-09-09T13:58:03Z</time>
      </trkpt>
      <trkpt lat="45.71801" lon="6.57515">
        <ele>742.81</ele>
        <time>2018-09-09T13:58:07Z</time>
      </trkpt>
      <trkpt lat="45.71815" lon="6.57498">
        <ele>742.48</ele>
        <time>2018-09-09T13:58:10Z</time>
      </trkpt>
      <trkpt lat="45.71829" lon="6.57478">
        <ele>741.56</ele>
        <time>2018-09-09T13:58:13Z</time>
      </trkpt>
      <trkpt lat="45.71842" lon="6.57459">
        <ele>741.32</ele>
        <time>2018-09-09T13:58:16Z</time>
      </trkpt>
      <trkpt lat="45.71856" lon="6.57441">
        <ele>740.55</ele>
        <time>2018-09-09T13:58:19Z</time>
      </trkpt>
      <trkpt lat="45.71872" lon="6.57424">
        <ele>740.53</ele>
        <time>2018-09-09T13:58:22Z</time>
      </trkpt>
      <trkpt lat="45.71888" lon="6.57406">
        <ele>739.56</ele>
        <time>2018-09-09T13:58:26Z</time>
      </trkpt>
      <trkpt lat="45.71904" lon="6.57388">
        <ele>737.63</ele>
        <time>2018-09-09T13:58:30Z</time>
      </trkpt>
      <trkpt lat="45.71919" lon="6.57373">
        <ele>736.62</ele>
        <time>2018-09-09T13:58:34Z</time>
      </trkpt>
      <trkpt lat="45.71934" lon="6.57351">
        <ele>734.84</ele>
        <time>2018-09-09T13:58:39Z</time>
      </trkpt>
      <trkpt lat="45.71949" lon="6.57337">
        <ele>732.64</ele>
        <time>2018-09-09T14:06:28Z</time>
      </trkpt>
      <trkpt lat="45.71959" lon="6.57306">
        <ele>733.93</ele>
        <time>2018-09-09T14:12:48Z</time>
      </trkpt>
      <trkpt lat="45.7197" lon="6.57283">
        <ele>733.33</ele>
        <time>2018-09-09T14:12:51Z</time>
      </trkpt>
      <trkpt lat="45.71982" lon="6.57259">
        <ele>730.67</ele>
        <time>2018-09-09T14:12:54Z</time>
      </trkpt>
      <trkpt lat="45.71997" lon="6.57237">
        <ele>731.23</ele>
        <time>2018-09-09T14:12:57Z</time>
      </trkpt>
      <trkpt lat="45.72007" lon="6.57215">
        <ele>730.61</ele>
        <time>2018-09-09T14:13:00Z</time>
      </trkpt>
      <trkpt lat="45.72006" lon="6.57189">
        <ele>729.62</ele>
        <time>2018-09-09T14:13:03Z</time>
      </trkpt>
      <trkpt lat="45.72006" lon="6.57162">
        <ele>729.54</ele>
        <time>2018-09-09T14:13:05Z</time>
      </trkpt>
      <trkpt lat="45.72005" lon="6.5713">
        <ele>729.53</ele>
        <time>2018-09-09T14:13:07Z</time>
      </trkpt>
      <trkpt lat="45.72003" lon="6.57099">
        <ele>728.83</ele>
        <time>2018-09-09T14:13:09Z</time>
      </trkpt>
      <trkpt lat="45.72001" lon="6.57065">
        <ele>728.56</ele>
        <time>2018-09-09T14:13:11Z</time>
      </trkpt>
      <trkpt lat="45.71999" lon="6.5703">
        <ele>727.62</ele>
        <time>2018-09-09T14:13:13Z</time>
      </trkpt>
      <trkpt lat="45.71996" lon="6.56995">
        <ele>726.63</ele>
        <time>2018-09-09T14:13:15Z</time>
      </trkpt>
      <trkpt lat="45.71993" lon="6.5696">
        <ele>725.84</ele>
        <time>2018-09-09T14:13:17Z</time>
      </trkpt>
      <trkpt lat="45.71991" lon="6.56925">
        <ele>725.56</ele>
        <time>2018-09-09T14:13:19Z</time>
      </trkpt>
      <trkpt lat="45.71988" lon="6.5689">
        <ele>724.62</ele>
        <time>2018-09-09T14:13:21Z</time>
      </trkpt>
      <trkpt lat="45.71986" lon="6.56856">
        <ele>722.93</ele>
        <time>2018-09-09T14:13:23Z</time>
      </trkpt>
      <trkpt lat="45.71984" lon="6.56822">
        <ele>722.57</ele>
        <time>2018-09-09T14:13:25Z</time>
      </trkpt>
      <trkpt lat="45.71981" lon="6.56786">
        <ele>721.62</ele>
        <time>2018-09-09T14:13:27Z</time>
      </trkpt>
      <trkpt lat="45.71978" lon="6.56747">
        <ele>721.54</ele>
        <time>2018-09-09T14:13:29Z</time>
      </trkpt>
      <trkpt lat="45.71975" lon="6.56706">
        <ele>720.62</ele>
        <time>2018-09-09T14:13:31Z</time>
      </trkpt>
      <trkpt lat="45.71973" lon="6.56663">
        <ele>719.84</ele>
        <time>2018-09-09T14:13:33Z</time>
      </trkpt>
      <trkpt lat="45.71971" lon="6.56622">
        <ele>718.86</ele>
        <time>2018-09-09T14:13:35Z</time>
      </trkpt>
      <trkpt lat="45.71971" lon="6.56585">
        <ele>718.56</ele>
        <time>2018-09-09T14:13:37Z</time>
      </trkpt>
      <trkpt lat="45.71975" lon="6.56548">
        <ele>716.92</ele>
        <time>2018-09-09T14:13:39Z</time>
      </trkpt>
      <trkpt lat="45.71969" lon="6.56511">
        <ele>715.87</ele>
        <time>2018-09-09T14:13:41Z</time>
      </trkpt>
      <trkpt lat="45.71963" lon="6.56469">
        <ele>714.65</ele>
        <time>2018-09-09T14:13:43Z</time>
      </trkpt>
      <trkpt lat="45.71959" lon="6.56423">
        <ele>714.54</ele>
        <time>2018-09-09T14:13:45Z</time>
      </trkpt>
      <trkpt lat="45.71958" lon="6.56376">
        <ele>713.62</ele>
        <time>2018-09-09T14:13:47Z</time>
      </trkpt>
      <trkpt lat="45.71961" lon="6.56326">
        <ele>712.84</ele>
        <time>2018-09-09T14:13:49Z</time>
      </trkpt>
      <trkpt lat="45.71965" lon="6.563">
        <ele>712.62</ele>
        <time>2018-09-09T14:13:50Z</time>
      </trkpt>
      <trkpt lat="45.71971" lon="6.56275">
        <ele>712.56</ele>
        <time>2018-09-09T14:13:51Z</time>
      </trkpt>
      <trkpt lat="45.71977" lon="6.5625">
        <ele>711.84</ele>
        <time>2018-09-09T14:13:52Z</time>
      </trkpt>
      <trkpt lat="45.71984" lon="6.56226">
        <ele>711.62</ele>
        <time>2018-09-09T14:13:53Z</time>
      </trkpt>
      <trkpt lat="45.71994" lon="6.56202">
        <ele>710.86</ele>
        <time>2018-09-09T14:13:54Z</time>
      </trkpt>
      <trkpt lat="45.72004" lon="6.56178">
        <ele>710.63</ele>
        <time>2018-09-09T14:13:55Z</time>
      </trkpt>
      <trkpt lat="45.72014" lon="6.56154">
        <ele>709.86</ele>
        <time>2018-09-09T14:13:56Z</time>
      </trkpt>
      <trkpt lat="45.72023" lon="6.56129">
        <ele>709.63</ele>
        <time>2018-09-09T14:13:57Z</time>
      </trkpt>
      <trkpt lat="45.72032" lon="6.56106">
        <ele>710.26</ele>
        <time>2018-09-09T14:13:58Z</time>
      </trkpt>
      <trkpt lat="45.72041" lon="6.56082">
        <ele>709.75</ele>
        <time>2018-09-09T14:13:59Z</time>
      </trkpt>
      <trkpt lat="45.7205" lon="6.56058">
        <ele>708.9</ele>
        <time>2018-09-09T14:14:00Z</time>
      </trkpt>
      <trkpt lat="45.72058" lon="6.56034">
        <ele>708.64</ele>
        <time>2018-09-09T14:14:01Z</time>
      </trkpt>
      <trkpt lat="45.72067" lon="6.5601">
        <ele>707.86</ele>
        <time>2018-09-09T14:14:02Z</time>
      </trkpt>
      <trkpt lat="45.72075" lon="6.55987">
        <ele>706.93</ele>
        <time>2018-09-09T14:14:03Z</time>
      </trkpt>
      <trkpt lat="45.72084" lon="6.55964">
        <ele>706.65</ele>
        <time>2018-09-09T14:14:04Z</time>
      </trkpt>
      <trkpt lat="45.72092" lon="6.55941">
        <ele>706.57</ele>
        <time>2018-09-09T14:14:05Z</time>
      </trkpt>
      <trkpt lat="45.72101" lon="6.55918">
        <ele>705.84</ele>
        <time>2018-09-09T14:14:06Z</time>
      </trkpt>
      <trkpt lat="45.7211" lon="6.55895">
        <ele>705.62</ele>
        <time>2018-09-09T14:14:07Z</time>
      </trkpt>
      <trkpt lat="45.72119" lon="6.55873">
        <ele>704.86</ele>
        <time>2018-09-09T14:14:08Z</time>
      </trkpt>
      <trkpt lat="45.72128" lon="6.5585">
        <ele>704.63</ele>
        <time>2018-09-09T14:14:09Z</time>
      </trkpt>
      <trkpt lat="45.72137" lon="6.55827">
        <ele>703.86</ele>
        <time>2018-09-09T14:14:10Z</time>
      </trkpt>
      <trkpt lat="45.72146" lon="6.55804">
        <ele>703.63</ele>
        <time>2018-09-09T14:14:11Z</time>
      </trkpt>
      <trkpt lat="45.72156" lon="6.55783">
        <ele>702.86</ele>
        <time>2018-09-09T14:14:12Z</time>
      </trkpt>
      <trkpt lat="45.72178" lon="6.55742">
        <ele>701.86</ele>
        <time>2018-09-09T14:14:14Z</time>
      </trkpt>
      <trkpt lat="45.72191" lon="6.55722">
        <ele>702.33</ele>
        <time>2018-09-09T14:14:15Z</time>
      </trkpt>
      <trkpt lat="45.72204" lon="6.55703">
        <ele>702.47</ele>
        <time>2018-09-09T14:14:16Z</time>
      </trkpt>
      <trkpt lat="45.72217" lon="6.55683">
        <ele>702.51</ele>
        <time>2018-09-09T14:14:17Z</time>
      </trkpt>
      <trkpt lat="45.72229" lon="6.55663">
        <ele>701.83</ele>
        <time>2018-09-09T14:14:18Z</time>
      </trkpt>
      <trkpt lat="45.72241" lon="6.55643">
        <ele>701.62</ele>
        <time>2018-09-09T14:14:19Z</time>
      </trkpt>
      <trkpt lat="45.72253" lon="6.55624">
        <ele>702.26</ele>
        <time>2018-09-09T14:14:20Z</time>
      </trkpt>
      <trkpt lat="45.72266" lon="6.55603">
        <ele>702.45</ele>
        <time>2018-09-09T14:14:21Z</time>
      </trkpt>
      <trkpt lat="45.72279" lon="6.55582">
        <ele>702.51</ele>
        <time>2018-09-09T14:14:22Z</time>
      </trkpt>
      <trkpt lat="45.72293" lon="6.5556">
        <ele>701.82</ele>
        <time>2018-09-09T14:14:23Z</time>
      </trkpt>
      <trkpt lat="45.72307" lon="6.55537">
        <ele>701.62</ele>
        <time>2018-09-09T14:14:24Z</time>
      </trkpt>
      <trkpt lat="45.72321" lon="6.55515">
        <ele>701.56</ele>
        <time>2018-09-09T14:14:25Z</time>
      </trkpt>
      <trkpt lat="45.72334" lon="6.55492">
        <ele>700.84</ele>
        <time>2018-09-09T14:14:26Z</time>
      </trkpt>
      <trkpt lat="45.72348" lon="6.5547">
        <ele>700.62</ele>
        <time>2018-09-09T14:14:27Z</time>
      </trkpt>
      <trkpt lat="45.72362" lon="6.55448">
        <ele>699.86</ele>
        <time>2018-09-09T14:14:28Z</time>
      </trkpt>
      <trkpt lat="45.72376" lon="6.55427">
        <ele>699.63</ele>
        <time>2018-09-09T14:14:29Z</time>
      </trkpt>
      <trkpt lat="45.72391" lon="6.55405">
        <ele>699.56</ele>
        <time>2018-09-09T14:14:30Z</time>
      </trkpt>
      <trkpt lat="45.72404" lon="6.55383">
        <ele>699.54</ele>
        <time>2018-09-09T14:14:31Z</time>
      </trkpt>
      <trkpt lat="45.72419" lon="6.55361">
        <ele>698.83</ele>
        <time>2018-09-09T14:14:32Z</time>
      </trkpt>
      <trkpt lat="45.72433" lon="6.55339">
        <ele>698.62</ele>
        <time>2018-09-09T14:14:33Z</time>
      </trkpt>
      <trkpt lat="45.72447" lon="6.55317">
        <ele>698.56</ele>
        <time>2018-09-09T14:14:34Z</time>
      </trkpt>
      <trkpt lat="45.72461" lon="6.55295">
        <ele>697.84</ele>
        <time>2018-09-09T14:14:35Z</time>
      </trkpt>
      <trkpt lat="45.72475" lon="6.55273">
        <ele>697.62</ele>
        <time>2018-09-09T14:14:36Z</time>
      </trkpt>
      <trkpt lat="45.72489" lon="6.55249">
        <ele>696.86</ele>
        <time>2018-09-09T14:14:37Z</time>
      </trkpt>
      <trkpt lat="45.72502" lon="6.55226">
        <ele>697.33</ele>
        <time>2018-09-09T14:14:38Z</time>
      </trkpt>
      <trkpt lat="45.72514" lon="6.55202">
        <ele>697.47</ele>
        <time>2018-09-09T14:14:39Z</time>
      </trkpt>
      <trkpt lat="45.72525" lon="6.55178">
        <ele>696.81</ele>
        <time>2018-09-09T14:14:40Z</time>
      </trkpt>
      <trkpt lat="45.72535" lon="6.55153">
        <ele>697.32</ele>
        <time>2018-09-09T14:14:41Z</time>
      </trkpt>
      <trkpt lat="45.72544" lon="6.55127">
        <ele>696.77</ele>
        <time>2018-09-09T14:14:42Z</time>
      </trkpt>
      <trkpt lat="45.72552" lon="6.55101">
        <ele>695.9</ele>
        <time>2018-09-09T14:14:43Z</time>
      </trkpt>
      <trkpt lat="45.72559" lon="6.55074">
        <ele>695.64</ele>
        <time>2018-09-09T14:14:44Z</time>
      </trkpt>
      <trkpt lat="45.72565" lon="6.55046">
        <ele>695.56</ele>
        <time>2018-09-09T14:14:45Z</time>
      </trkpt>
      <trkpt lat="45.7257" lon="6.55018">
        <ele>695.54</ele>
        <time>2018-09-09T14:14:46Z</time>
      </trkpt>
      <trkpt lat="45.72575" lon="6.5499">
        <ele>694.83</ele>
        <time>2018-09-09T14:14:47Z</time>
      </trkpt>
      <trkpt lat="45.72578" lon="6.54962">
        <ele>694.62</ele>
        <time>2018-09-09T14:14:48Z</time>
      </trkpt>
      <trkpt lat="45.72581" lon="6.54933">
        <ele>695.26</ele>
        <time>2018-09-09T14:14:49Z</time>
      </trkpt>
      <trkpt lat="45.72583" lon="6.54904">
        <ele>695.45</ele>
        <time>2018-09-09T14:14:50Z</time>
      </trkpt>
      <trkpt lat="45.72585" lon="6.54876">
        <ele>695.51</ele>
        <time>2018-09-09T14:14:51Z</time>
      </trkpt>
      <trkpt lat="45.72588" lon="6.54848">
        <ele>695.52</ele>
        <time>2018-09-09T14:14:52Z</time>
      </trkpt>
      <trkpt lat="45.72591" lon="6.5482">
        <ele>695.53</ele>
        <time>2018-09-09T14:14:53Z</time>
      </trkpt>
      <trkpt lat="45.72594" lon="6.54792">
        <ele>696.23</ele>
        <time>2018-09-09T14:14:54Z</time>
      </trkpt>
      <trkpt lat="45.72599" lon="6.54767">
        <ele>696.44</ele>
        <time>2018-09-09T14:14:55Z</time>
      </trkpt>
      <trkpt lat="45.72606" lon="6.54743">
        <ele>697.2</ele>
        <time>2018-09-09T14:14:56Z</time>
      </trkpt>
      <trkpt lat="45.72616" lon="6.54721">
        <ele>698.13</ele>
        <time>2018-09-09T14:14:57Z</time>
      </trkpt>
      <trkpt lat="45.72629" lon="6.54701">
        <ele>698.41</ele>
        <time>2018-09-09T14:14:58Z</time>
      </trkpt>
      <trkpt lat="45.72641" lon="6.5468">
        <ele>698.5</ele>
        <time>2018-09-09T14:14:59Z</time>
      </trkpt>
      <trkpt lat="45.72653" lon="6.54659">
        <ele>698.52</ele>
        <time>2018-09-09T14:15:00Z</time>
      </trkpt>
      <trkpt lat="45.72663" lon="6.54637">
        <ele>698.53</ele>
        <time>2018-09-09T14:15:01Z</time>
      </trkpt>
      <trkpt lat="45.72672" lon="6.54612">
        <ele>697.83</ele>
        <time>2018-09-09T14:15:02Z</time>
      </trkpt>
      <trkpt lat="45.7268" lon="6.54586">
        <ele>697.62</ele>
        <time>2018-09-09T14:15:03Z</time>
      </trkpt>
      <trkpt lat="45.72686" lon="6.54558">
        <ele>697.56</ele>
        <time>2018-09-09T14:15:04Z</time>
      </trkpt>
      <trkpt lat="45.72689" lon="6.54529">
        <ele>697.54</ele>
        <time>2018-09-09T14:15:05Z</time>
      </trkpt>
      <trkpt lat="45.72689" lon="6.545">
        <ele>696.83</ele>
        <time>2018-09-09T14:15:06Z</time>
      </trkpt>
      <trkpt lat="45.72687" lon="6.54471">
        <ele>696.62</ele>
        <time>2018-09-09T14:15:07Z</time>
      </trkpt>
      <trkpt lat="45.72683" lon="6.54443">
        <ele>696.56</ele>
        <time>2018-09-09T14:15:08Z</time>
      </trkpt>
      <trkpt lat="45.72679" lon="6.54415">
        <ele>697.24</ele>
        <time>2018-09-09T14:15:09Z</time>
      </trkpt>
      <trkpt lat="45.72674" lon="6.54386">
        <ele>697.44</ele>
        <time>2018-09-09T14:15:10Z</time>
      </trkpt>
      <trkpt lat="45.72669" lon="6.54359">
        <ele>698.2</ele>
        <time>2018-09-09T14:15:11Z</time>
      </trkpt>
      <trkpt lat="45.72663" lon="6.54333">
        <ele>698.43</ele>
        <time>2018-09-09T14:15:12Z</time>
      </trkpt>
      <trkpt lat="45.72656" lon="6.54308">
        <ele>698.5</ele>
        <time>2018-09-09T14:15:13Z</time>
      </trkpt>
      <trkpt lat="45.72647" lon="6.54285">
        <ele>699.22</ele>
        <time>2018-09-09T14:15:14Z</time>
      </trkpt>
      <trkpt lat="45.72636" lon="6.54263">
        <ele>699.44</ele>
        <time>2018-09-09T14:15:15Z</time>
      </trkpt>
      <trkpt lat="45.72624" lon="6.54241">
        <ele>698.8</ele>
        <time>2018-09-09T14:15:16Z</time>
      </trkpt>
      <trkpt lat="45.7261" lon="6.5422">
        <ele>699.31</ele>
        <time>2018-09-09T14:15:17Z</time>
      </trkpt>
      <trkpt lat="45.72597" lon="6.54199">
        <ele>699.47</ele>
        <time>2018-09-09T14:15:18Z</time>
      </trkpt>
      <trkpt lat="45.72583" lon="6.54177">
        <ele>700.21</ele>
        <time>2018-09-09T14:15:19Z</time>
      </trkpt>
      <trkpt lat="45.72569" lon="6.54156">
        <ele>700.44</ele>
        <time>2018-09-09T14:15:20Z</time>
      </trkpt>
      <trkpt lat="45.72556" lon="6.54134">
        <ele>700.5</ele>
        <time>2018-09-09T14:15:21Z</time>
      </trkpt>
      <trkpt lat="45.72544" lon="6.54111">
        <ele>701.22</ele>
        <time>2018-09-09T14:15:22Z</time>
      </trkpt>
      <trkpt lat="45.72536" lon="6.54085">
        <ele>702.14</ele>
        <time>2018-09-09T14:15:23Z</time>
      </trkpt>
      <trkpt lat="45.7253" lon="6.54058">
        <ele>702.41</ele>
        <time>2018-09-09T14:15:24Z</time>
      </trkpt>
      <trkpt lat="45.72526" lon="6.54029">
        <ele>703.2</ele>
        <time>2018-09-09T14:15:25Z</time>
      </trkpt>
      <trkpt lat="45.72523" lon="6.54001">
        <ele>704.13</ele>
        <time>2018-09-09T14:15:26Z</time>
      </trkpt>
      <trkpt lat="45.72521" lon="6.53971">
        <ele>704.41</ele>
        <time>2018-09-09T14:15:27Z</time>
      </trkpt>
      <trkpt lat="45.7252" lon="6.53942">
        <ele>705.19</ele>
        <time>2018-09-09T14:15:28Z</time>
      </trkpt>
      <trkpt lat="45.72519" lon="6.53912">
        <ele>705.43</ele>
        <time>2018-09-09T14:15:29Z</time>
      </trkpt>
      <trkpt lat="45.72519" lon="6.53882">
        <ele>706.2</ele>
        <time>2018-09-09T14:15:30Z</time>
      </trkpt>
      <trkpt lat="45.7252" lon="6.53853">
        <ele>707.13</ele>
        <time>2018-09-09T14:15:31Z</time>
      </trkpt>
      <trkpt lat="45.72523" lon="6.53824">
        <ele>708.11</ele>
        <time>2018-09-09T14:15:32Z</time>
      </trkpt>
      <trkpt lat="45.72529" lon="6.53796">
        <ele>708.41</ele>
        <time>2018-09-09T14:15:33Z</time>
      </trkpt>
      <trkpt lat="45.72536" lon="6.53769">
        <ele>709.19</ele>
        <time>2018-09-09T14:15:34Z</time>
      </trkpt>
      <trkpt lat="45.72544" lon="6.53742">
        <ele>710.13</ele>
        <time>2018-09-09T14:15:35Z</time>
      </trkpt>
      <trkpt lat="45.72553" lon="6.53717">
        <ele>711.11</ele>
        <time>2018-09-09T14:15:36Z</time>
      </trkpt>
      <trkpt lat="45.72562" lon="6.53692">
        <ele>711.4</ele>
        <time>2018-09-09T14:15:37Z</time>
      </trkpt>
      <trkpt lat="45.72571" lon="6.53668">
        <ele>712.19</ele>
        <time>2018-09-09T14:15:38Z</time>
      </trkpt>
      <trkpt lat="45.72579" lon="6.53644">
        <ele>713.13</ele>
        <time>2018-09-09T14:15:39Z</time>
      </trkpt>
      <trkpt lat="45.72597" lon="6.53602">
        <ele>713.49</ele>
        <time>2018-09-09T14:15:41Z</time>
      </trkpt>
      <trkpt lat="45.7262" lon="6.5357">
        <ele>713.53</ele>
        <time>2018-09-09T14:15:43Z</time>
      </trkpt>
      <trkpt lat="45.72645" lon="6.53542">
        <ele>714.44</ele>
        <time>2018-09-09T14:15:45Z</time>
      </trkpt>
      <trkpt lat="45.72665" lon="6.53506">
        <ele>713.61</ele>
        <time>2018-09-09T14:15:47Z</time>
      </trkpt>
      <trkpt lat="45.72676" lon="6.53466">
        <ele>713.54</ele>
        <time>2018-09-09T14:15:49Z</time>
      </trkpt>
      <trkpt lat="45.72683" lon="6.53424">
        <ele>712.83</ele>
        <time>2018-09-09T14:15:51Z</time>
      </trkpt>
      <trkpt lat="45.72688" lon="6.53385">
        <ele>711.86</ele>
        <time>2018-09-09T14:15:53Z</time>
      </trkpt>
      <trkpt lat="45.72694" lon="6.53348">
        <ele>711.56</ele>
        <time>2018-09-09T14:15:55Z</time>
      </trkpt>
      <trkpt lat="45.72698" lon="6.53313">
        <ele>710.62</ele>
        <time>2018-09-09T14:15:57Z</time>
      </trkpt>
      <trkpt lat="45.72696" lon="6.53274">
        <ele>708.93</ele>
        <time>2018-09-09T14:15:59Z</time>
      </trkpt>
      <trkpt lat="45.72686" lon="6.5323">
        <ele>707.66</ele>
        <time>2018-09-09T14:16:01Z</time>
      </trkpt>
      <trkpt lat="45.72666" lon="6.53188">
        <ele>705.93</ele>
        <time>2018-09-09T14:16:03Z</time>
      </trkpt>
      <trkpt lat="45.72644" lon="6.5315">
        <ele>704.87</ele>
        <time>2018-09-09T14:16:05Z</time>
      </trkpt>
      <trkpt lat="45.72624" lon="6.53113">
        <ele>703.65</ele>
        <time>2018-09-09T14:16:07Z</time>
      </trkpt>
      <trkpt lat="45.72615" lon="6.5309">
        <ele>702.87</ele>
        <time>2018-09-09T14:16:08Z</time>
      </trkpt>
      <trkpt lat="45.72606" lon="6.53066">
        <ele>701.93</ele>
        <time>2018-09-09T14:16:09Z</time>
      </trkpt>
      <trkpt lat="45.72594" lon="6.5304">
        <ele>700.95</ele>
        <time>2018-09-09T14:16:10Z</time>
      </trkpt>
      <trkpt lat="45.72582" lon="6.53013">
        <ele>699.96</ele>
        <time>2018-09-09T14:16:11Z</time>
      </trkpt>
      <trkpt lat="45.72569" lon="6.52987">
        <ele>698.96</ele>
        <time>2018-09-09T14:16:12Z</time>
      </trkpt>
      <trkpt lat="45.72556" lon="6.52961">
        <ele>697.96</ele>
        <time>2018-09-09T14:16:13Z</time>
      </trkpt>
      <trkpt lat="45.72544" lon="6.52936">
        <ele>696.96</ele>
        <time>2018-09-09T14:16:14Z</time>
      </trkpt>
      <trkpt lat="45.72533" lon="6.52912">
        <ele>695.96</ele>
        <time>2018-09-09T14:16:15Z</time>
      </trkpt>
      <trkpt lat="45.72522" lon="6.52887">
        <ele>694.96</ele>
        <time>2018-09-09T14:16:16Z</time>
      </trkpt>
      <trkpt lat="45.72512" lon="6.52862">
        <ele>693.96</ele>
        <time>2018-09-09T14:16:17Z</time>
      </trkpt>
      <trkpt lat="45.72502" lon="6.52838">
        <ele>692.96</ele>
        <time>2018-09-09T14:16:18Z</time>
      </trkpt>
      <trkpt lat="45.72492" lon="6.52813">
        <ele>691.96</ele>
        <time>2018-09-09T14:16:19Z</time>
      </trkpt>
      <trkpt lat="45.72482" lon="6.52788">
        <ele>690.96</ele>
        <time>2018-09-09T14:16:20Z</time>
      </trkpt>
      <trkpt lat="45.72472" lon="6.52764">
        <ele>689.96</ele>
        <time>2018-09-09T14:16:21Z</time>
      </trkpt>
      <trkpt lat="45.72464" lon="6.52739">
        <ele>688.96</ele>
        <time>2018-09-09T14:16:22Z</time>
      </trkpt>
      <trkpt lat="45.72456" lon="6.52713">
        <ele>687.96</ele>
        <time>2018-09-09T14:16:23Z</time>
      </trkpt>
      <trkpt lat="45.72449" lon="6.52686">
        <ele>686.96</ele>
        <time>2018-09-09T14:16:24Z</time>
      </trkpt>
      <trkpt lat="45.72444" lon="6.52658">
        <ele>685.96</ele>
        <time>2018-09-09T14:16:25Z</time>
      </trkpt>
      <trkpt lat="45.72439" lon="6.52631">
        <ele>684.96</ele>
        <time>2018-09-09T14:16:26Z</time>
      </trkpt>
      <trkpt lat="45.72434" lon="6.52602">
        <ele>683.96</ele>
        <time>2018-09-09T14:16:27Z</time>
      </trkpt>
      <trkpt lat="45.72429" lon="6.52574">
        <ele>682.96</ele>
        <time>2018-09-09T14:16:28Z</time>
      </trkpt>
      <trkpt lat="45.72422" lon="6.52545">
        <ele>681.96</ele>
        <time>2018-09-09T14:16:29Z</time>
      </trkpt>
      <trkpt lat="45.72414" lon="6.52519">
        <ele>680.26</ele>
        <time>2018-09-09T14:16:30Z</time>
      </trkpt>
      <trkpt lat="45.72404" lon="6.52492">
        <ele>679.05</ele>
        <time>2018-09-09T14:16:31Z</time>
      </trkpt>
      <trkpt lat="45.72393" lon="6.52466">
        <ele>677.99</ele>
        <time>2018-09-09T14:16:32Z</time>
      </trkpt>
      <trkpt lat="45.72381" lon="6.5244">
        <ele>676.97</ele>
        <time>2018-09-09T14:16:33Z</time>
      </trkpt>
      <trkpt lat="45.7237" lon="6.52413">
        <ele>675.96</ele>
        <time>2018-09-09T14:16:34Z</time>
      </trkpt>
      <trkpt lat="45.72358" lon="6.52387">
        <ele>674.96</ele>
        <time>2018-09-09T14:16:35Z</time>
      </trkpt>
      <trkpt lat="45.72346" lon="6.5236">
        <ele>673.96</ele>
        <time>2018-09-09T14:16:36Z</time>
      </trkpt>
      <trkpt lat="45.72333" lon="6.52332">
        <ele>672.26</ele>
        <time>2018-09-09T14:16:37Z</time>
      </trkpt>
      <trkpt lat="45.72319" lon="6.52306">
        <ele>671.05</ele>
        <time>2018-09-09T14:16:38Z</time>
      </trkpt>
      <trkpt lat="45.72305" lon="6.5228">
        <ele>669.99</ele>
        <time>2018-09-09T14:16:39Z</time>
      </trkpt>
      <trkpt lat="45.72292" lon="6.52257">
        <ele>669.67</ele>
        <time>2018-09-09T14:16:40Z</time>
      </trkpt>
      <trkpt lat="45.72278" lon="6.52236">
        <ele>668.87</ele>
        <time>2018-09-09T14:16:41Z</time>
      </trkpt>
      <trkpt lat="45.72264" lon="6.52217">
        <ele>667.93</ele>
        <time>2018-09-09T14:16:42Z</time>
      </trkpt>
      <trkpt lat="45.7225" lon="6.522">
        <ele>667.65</ele>
        <time>2018-09-09T14:16:43Z</time>
      </trkpt>
      <trkpt lat="45.7222" lon="6.52174">
        <ele>666.63</ele>
        <time>2018-09-09T14:16:45Z</time>
      </trkpt>
      <trkpt lat="45.7219" lon="6.52155">
        <ele>664.93</ele>
        <time>2018-09-09T14:16:47Z</time>
      </trkpt>
      <trkpt lat="45.7215" lon="6.52169">
        <ele>664.57</ele>
        <time>2018-09-09T14:16:49Z</time>
      </trkpt>
      <trkpt lat="45.72115" lon="6.52168">
        <ele>662.71</ele>
        <time>2018-09-09T14:16:51Z</time>
      </trkpt>
      <trkpt lat="45.72078" lon="6.5215">
        <ele>661.64</ele>
        <time>2018-09-09T14:16:53Z</time>
      </trkpt>
      <trkpt lat="45.72061" lon="6.52128">
        <ele>660.86</ele>
        <time>2018-09-09T14:16:54Z</time>
      </trkpt>
      <trkpt lat="45.7205" lon="6.52094">
        <ele>659.93</ele>
        <time>2018-09-09T14:16:55Z</time>
      </trkpt>
      <trkpt lat="45.72038" lon="6.52068">
        <ele>658.95</ele>
        <time>2018-09-09T14:16:56Z</time>
      </trkpt>
      <trkpt lat="45.72026" lon="6.52042">
        <ele>658.66</ele>
        <time>2018-09-09T14:16:57Z</time>
      </trkpt>
      <trkpt lat="45.72017" lon="6.52014">
        <ele>657.87</ele>
        <time>2018-09-09T14:16:58Z</time>
      </trkpt>
      <trkpt lat="45.72011" lon="6.51987">
        <ele>657.63</ele>
        <time>2018-09-09T14:16:59Z</time>
      </trkpt>
      <trkpt lat="45.72008" lon="6.51961">
        <ele>658.26</ele>
        <time>2018-09-09T14:17:00Z</time>
      </trkpt>
      <trkpt lat="45.72006" lon="6.51931">
        <ele>657.75</ele>
        <time>2018-09-09T14:17:01Z</time>
      </trkpt>
      <trkpt lat="45.72007" lon="6.51899">
        <ele>656.9</ele>
        <time>2018-09-09T14:17:02Z</time>
      </trkpt>
      <trkpt lat="45.72009" lon="6.51866">
        <ele>655.94</ele>
        <time>2018-09-09T14:17:03Z</time>
      </trkpt>
      <trkpt lat="45.72011" lon="6.51832">
        <ele>655.65</ele>
        <time>2018-09-09T14:17:04Z</time>
      </trkpt>
      <trkpt lat="45.72014" lon="6.518">
        <ele>655.57</ele>
        <time>2018-09-09T14:17:05Z</time>
      </trkpt>
      <trkpt lat="45.72015" lon="6.51766">
        <ele>655.54</ele>
        <time>2018-09-09T14:17:06Z</time>
      </trkpt>
      <trkpt lat="45.72016" lon="6.51731">
        <ele>655.53</ele>
        <time>2018-09-09T14:17:07Z</time>
      </trkpt>
      <trkpt lat="45.72017" lon="6.51698">
        <ele>654.83</ele>
        <time>2018-09-09T14:17:08Z</time>
      </trkpt>
      <trkpt lat="45.72016" lon="6.51662">
        <ele>653.92</ele>
        <time>2018-09-09T14:17:09Z</time>
      </trkpt>
      <trkpt lat="45.72012" lon="6.51626">
        <ele>653.65</ele>
        <time>2018-09-09T14:17:10Z</time>
      </trkpt>
      <trkpt lat="45.72006" lon="6.51592">
        <ele>653.57</ele>
        <time>2018-09-09T14:17:11Z</time>
      </trkpt>
      <trkpt lat="45.71999" lon="6.51561">
        <ele>652.84</ele>
        <time>2018-09-09T14:17:12Z</time>
      </trkpt>
      <trkpt lat="45.7199" lon="6.51533">
        <ele>651.92</ele>
        <time>2018-09-09T14:17:13Z</time>
      </trkpt>
      <trkpt lat="45.71982" lon="6.51506">
        <ele>651.65</ele>
        <time>2018-09-09T14:17:14Z</time>
      </trkpt>
      <trkpt lat="45.71974" lon="6.51479">
        <ele>650.87</ele>
        <time>2018-09-09T14:17:15Z</time>
      </trkpt>
      <trkpt lat="45.71966" lon="6.51454">
        <ele>650.63</ele>
        <time>2018-09-09T14:17:16Z</time>
      </trkpt>
      <trkpt lat="45.71958" lon="6.51429">
        <ele>649.86</ele>
        <time>2018-09-09T14:17:17Z</time>
      </trkpt>
      <trkpt lat="45.71949" lon="6.51405">
        <ele>649.63</ele>
        <time>2018-09-09T14:17:18Z</time>
      </trkpt>
      <trkpt lat="45.71941" lon="6.51379">
        <ele>648.86</ele>
        <time>2018-09-09T14:17:19Z</time>
      </trkpt>
      <trkpt lat="45.71932" lon="6.51351">
        <ele>648.63</ele>
        <time>2018-09-09T14:17:20Z</time>
      </trkpt>
      <trkpt lat="45.71922" lon="6.51322">
        <ele>647.86</ele>
        <time>2018-09-09T14:17:21Z</time>
      </trkpt>
      <trkpt lat="45.71912" lon="6.51292">
        <ele>647.63</ele>
        <time>2018-09-09T14:17:22Z</time>
      </trkpt>
      <trkpt lat="45.71902" lon="6.51261">
        <ele>646.86</ele>
        <time>2018-09-09T14:17:23Z</time>
      </trkpt>
      <trkpt lat="45.71893" lon="6.51231">
        <ele>646.63</ele>
        <time>2018-09-09T14:17:24Z</time>
      </trkpt>
      <trkpt lat="45.71883" lon="6.512">
        <ele>646.56</ele>
        <time>2018-09-09T14:17:25Z</time>
      </trkpt>
      <trkpt lat="45.71873" lon="6.5117">
        <ele>645.84</ele>
        <time>2018-09-09T14:17:26Z</time>
      </trkpt>
      <trkpt lat="45.71863" lon="6.51141">
        <ele>645.62</ele>
        <time>2018-09-09T14:17:27Z</time>
      </trkpt>
      <trkpt lat="45.71853" lon="6.51111">
        <ele>645.56</ele>
        <time>2018-09-09T14:17:28Z</time>
      </trkpt>
      <trkpt lat="45.71842" lon="6.5108">
        <ele>644.84</ele>
        <time>2018-09-09T14:17:29Z</time>
      </trkpt>
      <trkpt lat="45.71831" lon="6.51047">
        <ele>644.62</ele>
        <time>2018-09-09T14:17:30Z</time>
      </trkpt>
      <trkpt lat="45.71822" lon="6.51014">
        <ele>644.56</ele>
        <time>2018-09-09T14:17:31Z</time>
      </trkpt>
      <trkpt lat="45.71813" lon="6.50983">
        <ele>643.84</ele>
        <time>2018-09-09T14:17:32Z</time>
      </trkpt>
      <trkpt lat="45.71806" lon="6.50956">
        <ele>643.62</ele>
        <time>2018-09-09T14:17:33Z</time>
      </trkpt>
      <trkpt lat="45.718" lon="6.5093">
        <ele>643.56</ele>
        <time>2018-09-09T14:17:34Z</time>
      </trkpt>
      <trkpt lat="45.71795" lon="6.50905">
        <ele>642.84</ele>
        <time>2018-09-09T14:17:35Z</time>
      </trkpt>
      <trkpt lat="45.71793" lon="6.50858">
        <ele>642.56</ele>
        <time>2018-09-09T14:17:37Z</time>
      </trkpt>
      <trkpt lat="45.71792" lon="6.50811">
        <ele>642.53</ele>
        <time>2018-09-09T14:17:39Z</time>
      </trkpt>
      <trkpt lat="45.71788" lon="6.50766">
        <ele>642.74</ele>
        <time>2018-09-09T14:17:41Z</time>
      </trkpt>
      <trkpt lat="45.7178" lon="6.50719">
        <ele>642.55</ele>
        <time>2018-09-09T14:17:43Z</time>
      </trkpt>
      <trkpt lat="45.71769" lon="6.50692">
        <ele>642.54</ele>
        <time>2018-09-09T14:17:44Z</time>
      </trkpt>
      <trkpt lat="45.71753" lon="6.5066">
        <ele>642.53</ele>
        <time>2018-09-09T14:17:45Z</time>
      </trkpt>
      <trkpt lat="45.71741" lon="6.5063">
        <ele>642.53</ele>
        <time>2018-09-09T14:17:46Z</time>
      </trkpt>
      <trkpt lat="45.71728" lon="6.506">
        <ele>642.53</ele>
        <time>2018-09-09T14:17:47Z</time>
      </trkpt>
      <trkpt lat="45.71717" lon="6.50568">
        <ele>641.83</ele>
        <time>2018-09-09T14:17:48Z</time>
      </trkpt>
      <trkpt lat="45.71709" lon="6.50535">
        <ele>641.62</ele>
        <time>2018-09-09T14:17:49Z</time>
      </trkpt>
      <trkpt lat="45.71706" lon="6.50502">
        <ele>640.16</ele>
        <time>2018-09-09T14:17:50Z</time>
      </trkpt>
      <trkpt lat="45.71707" lon="6.50468">
        <ele>639.72</ele>
        <time>2018-09-09T14:17:51Z</time>
      </trkpt>
      <trkpt lat="45.71711" lon="6.50435">
        <ele>639.59</ele>
        <time>2018-09-09T14:17:52Z</time>
      </trkpt>
      <trkpt lat="45.71718" lon="6.50403">
        <ele>638.85</ele>
        <time>2018-09-09T14:17:53Z</time>
      </trkpt>
      <trkpt lat="45.71725" lon="6.5037">
        <ele>638.63</ele>
        <time>2018-09-09T14:17:54Z</time>
      </trkpt>
      <trkpt lat="45.71733" lon="6.50337">
        <ele>637.86</ele>
        <time>2018-09-09T14:17:55Z</time>
      </trkpt>
      <trkpt lat="45.71742" lon="6.50305">
        <ele>636.93</ele>
        <time>2018-09-09T14:17:56Z</time>
      </trkpt>
      <trkpt lat="45.7175" lon="6.50274">
        <ele>636.65</ele>
        <time>2018-09-09T14:17:57Z</time>
      </trkpt>
      <trkpt lat="45.71759" lon="6.50242">
        <ele>636.57</ele>
        <time>2018-09-09T14:17:58Z</time>
      </trkpt>
      <trkpt lat="45.71768" lon="6.5021">
        <ele>636.54</ele>
        <time>2018-09-09T14:17:59Z</time>
      </trkpt>
      <trkpt lat="45.71775" lon="6.50178">
        <ele>637.23</ele>
        <time>2018-09-09T14:18:00Z</time>
      </trkpt>
      <trkpt lat="45.71782" lon="6.50146">
        <ele>637.44</ele>
        <time>2018-09-09T14:18:01Z</time>
      </trkpt>
      <trkpt lat="45.7179" lon="6.50114">
        <ele>637.5</ele>
        <time>2018-09-09T14:18:02Z</time>
      </trkpt>
      <trkpt lat="45.71797" lon="6.50083">
        <ele>637.52</ele>
        <time>2018-09-09T14:18:03Z</time>
      </trkpt>
      <trkpt lat="45.71806" lon="6.50052">
        <ele>637.53</ele>
        <time>2018-09-09T14:18:04Z</time>
      </trkpt>
      <trkpt lat="45.71815" lon="6.50022">
        <ele>637.53</ele>
        <time>2018-09-09T14:18:05Z</time>
      </trkpt>
      <trkpt lat="45.71826" lon="6.49994">
        <ele>637.53</ele>
        <time>2018-09-09T14:18:06Z</time>
      </trkpt>
      <trkpt lat="45.71838" lon="6.49966">
        <ele>638.23</ele>
        <time>2018-09-09T14:18:07Z</time>
      </trkpt>
      <trkpt lat="45.71848" lon="6.49938">
        <ele>638.44</ele>
        <time>2018-09-09T14:18:08Z</time>
      </trkpt>
      <trkpt lat="45.71855" lon="6.49907">
        <ele>638.5</ele>
        <time>2018-09-09T14:18:09Z</time>
      </trkpt>
      <trkpt lat="45.71862" lon="6.49877">
        <ele>637.82</ele>
        <time>2018-09-09T14:18:10Z</time>
      </trkpt>
      <trkpt lat="45.71868" lon="6.49846">
        <ele>636.92</ele>
        <time>2018-09-09T14:18:11Z</time>
      </trkpt>
      <trkpt lat="45.71871" lon="6.49813">
        <ele>636.65</ele>
        <time>2018-09-09T14:18:12Z</time>
      </trkpt>
      <trkpt lat="45.71872" lon="6.49781">
        <ele>637.27</ele>
        <time>2018-09-09T14:18:13Z</time>
      </trkpt>
      <trkpt lat="45.71869" lon="6.49748">
        <ele>637.45</ele>
        <time>2018-09-09T14:18:14Z</time>
      </trkpt>
      <trkpt lat="45.71866" lon="6.49716">
        <ele>636.81</ele>
        <time>2018-09-09T14:18:15Z</time>
      </trkpt>
      <trkpt lat="45.71863" lon="6.49684">
        <ele>636.61</ele>
        <time>2018-09-09T14:18:16Z</time>
      </trkpt>
      <trkpt lat="45.7186" lon="6.49655">
        <ele>637.26</ele>
        <time>2018-09-09T14:18:17Z</time>
      </trkpt>
      <trkpt lat="45.71862" lon="6.49605">
        <ele>636.6</ele>
        <time>2018-09-09T14:18:19Z</time>
      </trkpt>
      <trkpt lat="45.71878" lon="6.49575">
        <ele>637.45</ele>
        <time>2018-09-09T14:18:21Z</time>
      </trkpt>
      <trkpt lat="45.71882" lon="6.49548">
        <ele>635.91</ele>
        <time>2018-09-09T14:18:23Z</time>
      </trkpt>
      <trkpt lat="45.71868" lon="6.49526">
        <ele>634.87</ele>
        <time>2018-09-09T14:18:25Z</time>
      </trkpt>
      <trkpt lat="45.71842" lon="6.49494">
        <ele>633.86</ele>
        <time>2018-09-09T14:18:27Z</time>
      </trkpt>
      <trkpt lat="45.7183" lon="6.49472">
        <ele>632.93</ele>
        <time>2018-09-09T14:18:28Z</time>
      </trkpt>
      <trkpt lat="45.71819" lon="6.49449">
        <ele>631.95</ele>
        <time>2018-09-09T14:18:29Z</time>
      </trkpt>
      <trkpt lat="45.71812" lon="6.49422">
        <ele>631.66</ele>
        <time>2018-09-09T14:18:30Z</time>
      </trkpt>
      <trkpt lat="45.71805" lon="6.49397">
        <ele>630.87</ele>
        <time>2018-09-09T14:18:31Z</time>
      </trkpt>
      <trkpt lat="45.71791" lon="6.4935">
        <ele>629.65</ele>
        <time>2018-09-09T14:18:33Z</time>
      </trkpt>
      <trkpt lat="45.71781" lon="6.49312">
        <ele>628.84</ele>
        <time>2018-09-09T14:18:35Z</time>
      </trkpt>
      <trkpt lat="45.71781" lon="6.49282">
        <ele>627.86</ele>
        <time>2018-09-09T14:18:37Z</time>
      </trkpt>
      <trkpt lat="45.71779" lon="6.49244">
        <ele>626.84</ele>
        <time>2018-09-09T14:18:40Z</time>
      </trkpt>
      <trkpt lat="45.71769" lon="6.49218">
        <ele>624.46</ele>
        <time>2018-09-09T14:18:42Z</time>
      </trkpt>
      <trkpt lat="45.71749" lon="6.49183">
        <ele>621.3</ele>
        <time>2018-09-09T14:18:44Z</time>
      </trkpt>
      <trkpt lat="45.71735" lon="6.49152">
        <ele>619.9</ele>
        <time>2018-09-09T14:18:46Z</time>
      </trkpt>
      <trkpt lat="45.71721" lon="6.49119">
        <ele>617.95</ele>
        <time>2018-09-09T14:18:48Z</time>
      </trkpt>
      <trkpt lat="45.7171" lon="6.49085">
        <ele>616.87</ele>
        <time>2018-09-09T14:18:50Z</time>
      </trkpt>
      <trkpt lat="45.71704" lon="6.49049">
        <ele>614.95</ele>
        <time>2018-09-09T14:18:52Z</time>
      </trkpt>
      <trkpt lat="45.71705" lon="6.49015">
        <ele>612.96</ele>
        <time>2018-09-09T14:18:54Z</time>
      </trkpt>
      <trkpt lat="45.71716" lon="6.48969">
        <ele>609.56</ele>
        <time>2018-09-09T14:18:56Z</time>
      </trkpt>
      <trkpt lat="45.71725" lon="6.48941">
        <ele>607.44</ele>
        <time>2018-09-09T14:18:57Z</time>
      </trkpt>
      <trkpt lat="45.71733" lon="6.48911">
        <ele>606.1</ele>
        <time>2018-09-09T14:18:58Z</time>
      </trkpt>
      <trkpt lat="45.71738" lon="6.48877">
        <ele>604.3</ele>
        <time>2018-09-09T14:18:59Z</time>
      </trkpt>
      <trkpt lat="45.7174" lon="6.48843">
        <ele>603.06</ele>
        <time>2018-09-09T14:19:00Z</time>
      </trkpt>
      <trkpt lat="45.7174" lon="6.48812">
        <ele>601.29</ele>
        <time>2018-09-09T14:19:01Z</time>
      </trkpt>
      <trkpt lat="45.71737" lon="6.48783">
        <ele>600.06</ele>
        <time>2018-09-09T14:19:02Z</time>
      </trkpt>
      <trkpt lat="45.71731" lon="6.48757">
        <ele>598.99</ele>
        <time>2018-09-09T14:19:03Z</time>
      </trkpt>
      <trkpt lat="45.71721" lon="6.48733">
        <ele>597.97</ele>
        <time>2018-09-09T14:19:04Z</time>
      </trkpt>
      <trkpt lat="45.71705" lon="6.48695">
        <ele>595.05</ele>
        <time>2018-09-09T14:19:06Z</time>
      </trkpt>
      <trkpt lat="45.71694" lon="6.4865">
        <ele>593.88</ele>
        <time>2018-09-09T14:19:08Z</time>
      </trkpt>
      <trkpt lat="45.71694" lon="6.48617">
        <ele>592.93</ele>
        <time>2018-09-09T14:19:09Z</time>
      </trkpt>
      <trkpt lat="45.7169" lon="6.48586">
        <ele>591.95</ele>
        <time>2018-09-09T14:19:10Z</time>
      </trkpt>
      <trkpt lat="45.71685" lon="6.48555">
        <ele>590.96</ele>
        <time>2018-09-09T14:19:11Z</time>
      </trkpt>
      <trkpt lat="45.71679" lon="6.48524">
        <ele>589.96</ele>
        <time>2018-09-09T14:19:12Z</time>
      </trkpt>
      <trkpt lat="45.71673" lon="6.48492">
        <ele>588.96</ele>
        <time>2018-09-09T14:19:13Z</time>
      </trkpt>
      <trkpt lat="45.71667" lon="6.48463">
        <ele>588.66</ele>
        <time>2018-09-09T14:19:14Z</time>
      </trkpt>
      <trkpt lat="45.7166" lon="6.48436">
        <ele>587.87</ele>
        <time>2018-09-09T14:19:15Z</time>
      </trkpt>
      <trkpt lat="45.71651" lon="6.48411">
        <ele>586.23</ele>
        <time>2018-09-09T14:19:16Z</time>
      </trkpt>
      <trkpt lat="45.71638" lon="6.48388">
        <ele>585.74</ele>
        <time>2018-09-09T14:19:17Z</time>
      </trkpt>
      <trkpt lat="45.71621" lon="6.48368">
        <ele>585.59</ele>
        <time>2018-09-09T14:19:18Z</time>
      </trkpt>
      <trkpt lat="45.71602" lon="6.48354">
        <ele>584.85</ele>
        <time>2018-09-09T14:19:19Z</time>
      </trkpt>
      <trkpt lat="45.71582" lon="6.48344">
        <ele>584.63</ele>
        <time>2018-09-09T14:19:20Z</time>
      </trkpt>
      <trkpt lat="45.71562" lon="6.48337">
        <ele>584.56</ele>
        <time>2018-09-09T14:19:21Z</time>
      </trkpt>
      <trkpt lat="45.71543" lon="6.48328">
        <ele>583.84</ele>
        <time>2018-09-09T14:19:22Z</time>
      </trkpt>
      <trkpt lat="45.71526" lon="6.48315">
        <ele>583.62</ele>
        <time>2018-09-09T14:19:23Z</time>
      </trkpt>
      <trkpt lat="45.71512" lon="6.48292">
        <ele>582.86</ele>
        <time>2018-09-09T14:19:24Z</time>
      </trkpt>
      <trkpt lat="45.71497" lon="6.4827">
        <ele>581.93</ele>
        <time>2018-09-09T14:19:25Z</time>
      </trkpt>
      <trkpt lat="45.71482" lon="6.48246">
        <ele>581.65</ele>
        <time>2018-09-09T14:19:26Z</time>
      </trkpt>
      <trkpt lat="45.71467" lon="6.48224">
        <ele>581.57</ele>
        <time>2018-09-09T14:19:27Z</time>
      </trkpt>
      <trkpt lat="45.71454" lon="6.48203">
        <ele>580.14</ele>
        <time>2018-09-09T14:19:28Z</time>
      </trkpt>
      <trkpt lat="45.71435" lon="6.48163">
        <ele>578.68</ele>
        <time>2018-09-09T14:19:30Z</time>
      </trkpt>
      <trkpt lat="45.71421" lon="6.48119">
        <ele>578.54</ele>
        <time>2018-09-09T14:19:32Z</time>
      </trkpt>
      <trkpt lat="45.71415" lon="6.48091">
        <ele>578.53</ele>
        <time>2018-09-09T14:19:33Z</time>
      </trkpt>
      <trkpt lat="45.71466" lon="6.48046">
        <ele>576.43</ele>
        <time>2018-09-09T14:19:35Z</time>
      </trkpt>
      <trkpt lat="45.71498" lon="6.48024">
        <ele>575.8</ele>
        <time>2018-09-09T14:19:36Z</time>
      </trkpt>
      <trkpt lat="45.71518" lon="6.48001">
        <ele>576.31</ele>
        <time>2018-09-09T14:19:37Z</time>
      </trkpt>
      <trkpt lat="45.71539" lon="6.47975">
        <ele>575.77</ele>
        <time>2018-09-09T14:19:38Z</time>
      </trkpt>
      <trkpt lat="45.71557" lon="6.4795">
        <ele>575.6</ele>
        <time>2018-09-09T14:19:39Z</time>
      </trkpt>
      <trkpt lat="45.71576" lon="6.47924">
        <ele>574.85</ele>
        <time>2018-09-09T14:19:40Z</time>
      </trkpt>
      <trkpt lat="45.71592" lon="6.479">
        <ele>573.93</ele>
        <time>2018-09-09T14:19:41Z</time>
      </trkpt>
      <trkpt lat="45.71604" lon="6.47875">
        <ele>573.65</ele>
        <time>2018-09-09T14:19:42Z</time>
      </trkpt>
      <trkpt lat="45.71613" lon="6.47848">
        <ele>573.57</ele>
        <time>2018-09-09T14:19:43Z</time>
      </trkpt>
      <trkpt lat="45.71617" lon="6.47821">
        <ele>573.54</ele>
        <time>2018-09-09T14:19:44Z</time>
      </trkpt>
      <trkpt lat="45.71622" lon="6.47795">
        <ele>572.83</ele>
        <time>2018-09-09T14:19:45Z</time>
      </trkpt>
      <trkpt lat="45.71623" lon="6.47768">
        <ele>572.62</ele>
        <time>2018-09-09T14:19:46Z</time>
      </trkpt>
      <trkpt lat="45.7161" lon="6.4773">
        <ele>571.86</ele>
        <time>2018-09-09T14:19:47Z</time>
      </trkpt>
      <trkpt lat="45.71605" lon="6.47698">
        <ele>571.63</ele>
        <time>2018-09-09T14:19:48Z</time>
      </trkpt>
      <trkpt lat="45.71601" lon="6.47668">
        <ele>570.86</ele>
        <time>2018-09-09T14:19:49Z</time>
      </trkpt>
      <trkpt lat="45.71596" lon="6.4764">
        <ele>570.63</ele>
        <time>2018-09-09T14:19:50Z</time>
      </trkpt>
      <trkpt lat="45.7159" lon="6.47613">
        <ele>571.26</ele>
        <time>2018-09-09T14:19:51Z</time>
      </trkpt>
      <trkpt lat="45.71578" lon="6.47588">
        <ele>570.75</ele>
        <time>2018-09-09T14:19:52Z</time>
      </trkpt>
      <trkpt lat="45.71563" lon="6.47567">
        <ele>570.6</ele>
        <time>2018-09-09T14:19:53Z</time>
      </trkpt>
      <trkpt lat="45.71548" lon="6.47548">
        <ele>570.55</ele>
        <time>2018-09-09T14:19:54Z</time>
      </trkpt>
      <trkpt lat="45.71536" lon="6.47527">
        <ele>569.14</ele>
        <time>2018-09-09T14:19:55Z</time>
      </trkpt>
      <trkpt lat="45.71519" lon="6.47486">
        <ele>567.89</ele>
        <time>2018-09-09T14:19:57Z</time>
      </trkpt>
      <trkpt lat="45.71513" lon="6.4746">
        <ele>568.34</ele>
        <time>2018-09-09T14:19:58Z</time>
      </trkpt>
      <trkpt lat="45.71518" lon="6.47394">
        <ele>568.51</ele>
        <time>2018-09-09T14:20:00Z</time>
      </trkpt>
      <trkpt lat="45.71517" lon="6.47361">
        <ele>569.23</ele>
        <time>2018-09-09T14:20:01Z</time>
      </trkpt>
      <trkpt lat="45.71504" lon="6.47327">
        <ele>568.74</ele>
        <time>2018-09-09T14:20:02Z</time>
      </trkpt>
      <trkpt lat="45.71493" lon="6.47295">
        <ele>567.19</ele>
        <time>2018-09-09T14:20:03Z</time>
      </trkpt>
      <trkpt lat="45.71484" lon="6.47266">
        <ele>566.73</ele>
        <time>2018-09-09T14:20:04Z</time>
      </trkpt>
      <trkpt lat="45.71479" lon="6.47238">
        <ele>566.59</ele>
        <time>2018-09-09T14:20:05Z</time>
      </trkpt>
      <trkpt lat="45.71476" lon="6.4721">
        <ele>565.85</ele>
        <time>2018-09-09T14:20:06Z</time>
      </trkpt>
      <trkpt lat="45.71477" lon="6.47163">
        <ele>564.16</ele>
        <time>2018-09-09T14:20:08Z</time>
      </trkpt>
      <trkpt lat="45.71479" lon="6.47121">
        <ele>561.77</ele>
        <time>2018-09-09T14:20:10Z</time>
      </trkpt>
      <trkpt lat="45.71488" lon="6.47079">
        <ele>560.85</ele>
        <time>2018-09-09T14:20:12Z</time>
      </trkpt>
      <trkpt lat="45.71499" lon="6.47057">
        <ele>559.23</ele>
        <time>2018-09-09T14:20:13Z</time>
      </trkpt>
      <trkpt lat="45.7151" lon="6.47032">
        <ele>558.74</ele>
        <time>2018-09-09T14:20:14Z</time>
      </trkpt>
      <trkpt lat="45.71521" lon="6.47003">
        <ele>557.89</ele>
        <time>2018-09-09T14:20:15Z</time>
      </trkpt>
      <trkpt lat="45.71532" lon="6.46972">
        <ele>557.64</ele>
        <time>2018-09-09T14:20:16Z</time>
      </trkpt>
      <trkpt lat="45.71544" lon="6.46936">
        <ele>557.56</ele>
        <time>2018-09-09T14:20:17Z</time>
      </trkpt>
      <trkpt lat="45.71557" lon="6.46897">
        <ele>556.84</ele>
        <time>2018-09-09T14:20:18Z</time>
      </trkpt>
      <trkpt lat="45.71572" lon="6.46858">
        <ele>555.92</ele>
        <time>2018-09-09T14:20:19Z</time>
      </trkpt>
      <trkpt lat="45.71586" lon="6.46822">
        <ele>554.95</ele>
        <time>2018-09-09T14:20:20Z</time>
      </trkpt>
      <trkpt lat="45.71599" lon="6.46789">
        <ele>555.36</ele>
        <time>2018-09-09T14:20:21Z</time>
      </trkpt>
      <trkpt lat="45.71613" lon="6.46758">
        <ele>555.48</ele>
        <time>2018-09-09T14:20:22Z</time>
      </trkpt>
      <trkpt lat="45.7163" lon="6.46731">
        <ele>554.82</ele>
        <time>2018-09-09T14:20:23Z</time>
      </trkpt>
      <trkpt lat="45.71648" lon="6.46704">
        <ele>554.62</ele>
        <time>2018-09-09T14:20:24Z</time>
      </trkpt>
      <trkpt lat="45.71666" lon="6.46678">
        <ele>555.26</ele>
        <time>2018-09-09T14:20:25Z</time>
      </trkpt>
      <trkpt lat="45.71684" lon="6.46657">
        <ele>556.15</ele>
        <time>2018-09-09T14:20:26Z</time>
      </trkpt>
      <trkpt lat="45.717" lon="6.46633">
        <ele>555.02</ele>
        <time>2018-09-09T14:20:27Z</time>
      </trkpt>
      <trkpt lat="45.71714" lon="6.46609">
        <ele>554.68</ele>
        <time>2018-09-09T14:20:28Z</time>
      </trkpt>
      <trkpt lat="45.71725" lon="6.46583">
        <ele>553.87</ele>
        <time>2018-09-09T14:20:29Z</time>
      </trkpt>
      <trkpt lat="45.71733" lon="6.46555">
        <ele>553.63</ele>
        <time>2018-09-09T14:20:30Z</time>
      </trkpt>
      <trkpt lat="45.71739" lon="6.46528">
        <ele>553.56</ele>
        <time>2018-09-09T14:20:31Z</time>
      </trkpt>
      <trkpt lat="45.71744" lon="6.46501">
        <ele>553.54</ele>
        <time>2018-09-09T14:20:32Z</time>
      </trkpt>
      <trkpt lat="45.71746" lon="6.46475">
        <ele>552.83</ele>
        <time>2018-09-09T14:20:33Z</time>
      </trkpt>
      <trkpt lat="45.71745" lon="6.46443">
        <ele>551.92</ele>
        <time>2018-09-09T14:20:34Z</time>
      </trkpt>
      <trkpt lat="45.71736" lon="6.46418">
        <ele>551.65</ele>
        <time>2018-09-09T14:20:35Z</time>
      </trkpt>
      <trkpt lat="45.71723" lon="6.46393">
        <ele>550.87</ele>
        <time>2018-09-09T14:20:36Z</time>
      </trkpt>
      <trkpt lat="45.71708" lon="6.46348">
        <ele>547.34</ele>
        <time>2018-09-09T14:20:38Z</time>
      </trkpt>
      <trkpt lat="45.71697" lon="6.46303">
        <ele>545.9</ele>
        <time>2018-09-09T14:20:40Z</time>
      </trkpt>
      <trkpt lat="45.7169" lon="6.46255">
        <ele>544.65</ele>
        <time>2018-09-09T14:20:42Z</time>
      </trkpt>
      <trkpt lat="45.71684" lon="6.46209">
        <ele>543.63</ele>
        <time>2018-09-09T14:20:44Z</time>
      </trkpt>
      <trkpt lat="45.7168" lon="6.46163">
        <ele>542.63</ele>
        <time>2018-09-09T14:20:46Z</time>
      </trkpt>
      <trkpt lat="45.71676" lon="6.46117">
        <ele>543.03</ele>
        <time>2018-09-09T14:20:48Z</time>
      </trkpt>
      <trkpt lat="45.71674" lon="6.4607">
        <ele>541.88</ele>
        <time>2018-09-09T14:20:50Z</time>
      </trkpt>
      <trkpt lat="45.71675" lon="6.46026">
        <ele>541.56</ele>
        <time>2018-09-09T14:20:52Z</time>
      </trkpt>
      <trkpt lat="45.71681" lon="6.45989">
        <ele>540.83</ele>
        <time>2018-09-09T14:20:54Z</time>
      </trkpt>
      <trkpt lat="45.71696" lon="6.45956">
        <ele>539.86</ele>
        <time>2018-09-09T14:20:56Z</time>
      </trkpt>
      <trkpt lat="45.71715" lon="6.45931">
        <ele>539.56</ele>
        <time>2018-09-09T14:20:58Z</time>
      </trkpt>
      <trkpt lat="45.71734" lon="6.45907">
        <ele>538.83</ele>
        <time>2018-09-09T14:21:00Z</time>
      </trkpt>
      <trkpt lat="45.7175" lon="6.45883">
        <ele>539.26</ele>
        <time>2018-09-09T14:21:02Z</time>
      </trkpt>
      <trkpt lat="45.71767" lon="6.45855">
        <ele>538.55</ele>
        <time>2018-09-09T14:21:05Z</time>
      </trkpt>
      <trkpt lat="45.7178" lon="6.45833">
        <ele>537.83</ele>
        <time>2018-09-09T14:21:07Z</time>
      </trkpt>
      <trkpt lat="45.71791" lon="6.45797">
        <ele>537.56</ele>
        <time>2018-09-09T14:21:09Z</time>
      </trkpt>
      <trkpt lat="45.718" lon="6.45752">
        <ele>536.62</ele>
        <time>2018-09-09T14:21:11Z</time>
      </trkpt>
      <trkpt lat="45.718" lon="6.45726">
        <ele>536.56</ele>
        <time>2018-09-09T14:21:12Z</time>
      </trkpt>
      <trkpt lat="45.71799" lon="6.457">
        <ele>535.84</ele>
        <time>2018-09-09T14:21:13Z</time>
      </trkpt>
      <trkpt lat="45.71795" lon="6.45674">
        <ele>535.62</ele>
        <time>2018-09-09T14:21:14Z</time>
      </trkpt>
      <trkpt lat="45.71792" lon="6.45646">
        <ele>534.16</ele>
        <time>2018-09-09T14:21:15Z</time>
      </trkpt>
      <trkpt lat="45.71786" lon="6.45598">
        <ele>532.68</ele>
        <time>2018-09-09T14:21:17Z</time>
      </trkpt>
      <trkpt lat="45.7178" lon="6.45555">
        <ele>532.54</ele>
        <time>2018-09-09T14:21:19Z</time>
      </trkpt>
      <trkpt lat="45.71776" lon="6.45512">
        <ele>533.44</ele>
        <time>2018-09-09T14:21:21Z</time>
      </trkpt>
      <trkpt lat="45.71778" lon="6.45469">
        <ele>532.61</ele>
        <time>2018-09-09T14:21:23Z</time>
      </trkpt>
      <trkpt lat="45.71784" lon="6.45423">
        <ele>533.45</ele>
        <time>2018-09-09T14:21:25Z</time>
      </trkpt>
      <trkpt lat="45.71788" lon="6.45396">
        <ele>532.81</ele>
        <time>2018-09-09T14:21:26Z</time>
      </trkpt>
      <trkpt lat="45.71794" lon="6.45367">
        <ele>531.91</ele>
        <time>2018-09-09T14:21:27Z</time>
      </trkpt>
      <trkpt lat="45.71799" lon="6.45336">
        <ele>530.95</ele>
        <time>2018-09-09T14:21:28Z</time>
      </trkpt>
      <trkpt lat="45.71804" lon="6.45303">
        <ele>529.96</ele>
        <time>2018-09-09T14:21:29Z</time>
      </trkpt>
      <trkpt lat="45.71806" lon="6.45271">
        <ele>529.66</ele>
        <time>2018-09-09T14:21:30Z</time>
      </trkpt>
      <trkpt lat="45.71805" lon="6.45241">
        <ele>529.57</ele>
        <time>2018-09-09T14:21:31Z</time>
      </trkpt>
      <trkpt lat="45.71802" lon="6.45214">
        <ele>529.54</ele>
        <time>2018-09-09T14:21:32Z</time>
      </trkpt>
      <trkpt lat="45.71795" lon="6.45168">
        <ele>528.62</ele>
        <time>2018-09-09T14:21:34Z</time>
      </trkpt>
      <trkpt lat="45.71791" lon="6.45124">
        <ele>528.75</ele>
        <time>2018-09-09T14:21:36Z</time>
      </trkpt>
      <trkpt lat="45.71795" lon="6.45072">
        <ele>528.55</ele>
        <time>2018-09-09T14:21:38Z</time>
      </trkpt>
      <trkpt lat="45.718" lon="6.45041">
        <ele>528.54</ele>
        <time>2018-09-09T14:21:39Z</time>
      </trkpt>
      <trkpt lat="45.71808" lon="6.45006">
        <ele>527.83</ele>
        <time>2018-09-09T14:21:40Z</time>
      </trkpt>
      <trkpt lat="45.71814" lon="6.44971">
        <ele>527.62</ele>
        <time>2018-09-09T14:21:41Z</time>
      </trkpt>
      <trkpt lat="45.71819" lon="6.44937">
        <ele>526.86</ele>
        <time>2018-09-09T14:21:42Z</time>
      </trkpt>
      <trkpt lat="45.71825" lon="6.44906">
        <ele>526.63</ele>
        <time>2018-09-09T14:21:43Z</time>
      </trkpt>
      <trkpt lat="45.71832" lon="6.44878">
        <ele>525.86</ele>
        <time>2018-09-09T14:21:44Z</time>
      </trkpt>
      <trkpt lat="45.71838" lon="6.44851">
        <ele>525.63</ele>
        <time>2018-09-09T14:21:45Z</time>
      </trkpt>
      <trkpt lat="45.71839" lon="6.44805">
        <ele>524.84</ele>
        <time>2018-09-09T14:21:47Z</time>
      </trkpt>
      <trkpt lat="45.71832" lon="6.44771">
        <ele>522.46</ele>
        <time>2018-09-09T14:21:49Z</time>
      </trkpt>
      <trkpt lat="45.7181" lon="6.44743">
        <ele>521.82</ele>
        <time>2018-09-09T14:21:51Z</time>
      </trkpt>
      <trkpt lat="45.71789" lon="6.44732">
        <ele>522.32</ele>
        <time>2018-09-09T14:21:52Z</time>
      </trkpt>
      <trkpt lat="45.7176" lon="6.44718">
        <ele>520.37</ele>
        <time>2018-09-09T14:21:53Z</time>
      </trkpt>
      <trkpt lat="45.7174" lon="6.44709">
        <ele>520.48</ele>
        <time>2018-09-09T14:21:54Z</time>
      </trkpt>
      <trkpt lat="45.71722" lon="6.44696">
        <ele>519.82</ele>
        <time>2018-09-09T14:21:55Z</time>
      </trkpt>
      <trkpt lat="45.71705" lon="6.44678">
        <ele>519.62</ele>
        <time>2018-09-09T14:21:56Z</time>
      </trkpt>
      <trkpt lat="45.71689" lon="6.44655">
        <ele>518.86</ele>
        <time>2018-09-09T14:21:57Z</time>
      </trkpt>
      <trkpt lat="45.71674" lon="6.44631">
        <ele>517.93</ele>
        <time>2018-09-09T14:21:58Z</time>
      </trkpt>
      <trkpt lat="45.71657" lon="6.44605">
        <ele>516.25</ele>
        <time>2018-09-09T14:21:59Z</time>
      </trkpt>
      <trkpt lat="45.71641" lon="6.44577">
        <ele>515.05</ele>
        <time>2018-09-09T14:22:00Z</time>
      </trkpt>
      <trkpt lat="45.71624" lon="6.4455">
        <ele>515.39</ele>
        <time>2018-09-09T14:22:01Z</time>
      </trkpt>
      <trkpt lat="45.71608" lon="6.44523">
        <ele>515.49</ele>
        <time>2018-09-09T14:22:02Z</time>
      </trkpt>
      <trkpt lat="45.71593" lon="6.44497">
        <ele>515.52</ele>
        <time>2018-09-09T14:22:03Z</time>
      </trkpt>
      <trkpt lat="45.71578" lon="6.44473">
        <ele>515.53</ele>
        <time>2018-09-09T14:22:04Z</time>
      </trkpt>
      <trkpt lat="45.71562" lon="6.44452">
        <ele>515.53</ele>
        <time>2018-09-09T14:22:05Z</time>
      </trkpt>
      <trkpt lat="45.71545" lon="6.44433">
        <ele>515.53</ele>
        <time>2018-09-09T14:22:06Z</time>
      </trkpt>
      <trkpt lat="45.71526" lon="6.44417">
        <ele>514.83</ele>
        <time>2018-09-09T14:22:07Z</time>
      </trkpt>
      <trkpt lat="45.71505" lon="6.44404">
        <ele>514.62</ele>
        <time>2018-09-09T14:22:08Z</time>
      </trkpt>
      <trkpt lat="45.71484" lon="6.44394">
        <ele>515.26</ele>
        <time>2018-09-09T14:22:09Z</time>
      </trkpt>
      <trkpt lat="45.71464" lon="6.44385">
        <ele>514.75</ele>
        <time>2018-09-09T14:22:10Z</time>
      </trkpt>
      <trkpt lat="45.71444" lon="6.44377">
        <ele>514.6</ele>
        <time>2018-09-09T14:22:11Z</time>
      </trkpt>
      <trkpt lat="45.71427" lon="6.44365">
        <ele>514.55</ele>
        <time>2018-09-09T14:22:12Z</time>
      </trkpt>
      <trkpt lat="45.7141" lon="6.44352">
        <ele>514.54</ele>
        <time>2018-09-09T14:22:13Z</time>
      </trkpt>
      <trkpt lat="45.71394" lon="6.44334">
        <ele>513.83</ele>
        <time>2018-09-09T14:22:14Z</time>
      </trkpt>
      <trkpt lat="45.7138" lon="6.44314">
        <ele>513.62</ele>
        <time>2018-09-09T14:22:15Z</time>
      </trkpt>
      <trkpt lat="45.71366" lon="6.44291">
        <ele>513.56</ele>
        <time>2018-09-09T14:22:16Z</time>
      </trkpt>
      <trkpt lat="45.71362" lon="6.44265">
        <ele>512.84</ele>
        <time>2018-09-09T14:22:17Z</time>
      </trkpt>
      <trkpt lat="45.71358" lon="6.44237">
        <ele>512.62</ele>
        <time>2018-09-09T14:22:18Z</time>
      </trkpt>
      <trkpt lat="45.7137" lon="6.442">
        <ele>510.46</ele>
        <time>2018-09-09T14:22:19Z</time>
      </trkpt>
      <trkpt lat="45.71367" lon="6.4417">
        <ele>509.81</ele>
        <time>2018-09-09T14:22:20Z</time>
      </trkpt>
      <trkpt lat="45.71358" lon="6.44146">
        <ele>509.61</ele>
        <time>2018-09-09T14:22:21Z</time>
      </trkpt>
      <trkpt lat="45.71349" lon="6.44119">
        <ele>508.86</ele>
        <time>2018-09-09T14:22:22Z</time>
      </trkpt>
      <trkpt lat="45.71339" lon="6.44096">
        <ele>508.63</ele>
        <time>2018-09-09T14:22:23Z</time>
      </trkpt>
      <trkpt lat="45.71315" lon="6.44072">
        <ele>508.56</ele>
        <time>2018-09-09T14:22:24Z</time>
      </trkpt>
      <trkpt lat="45.71296" lon="6.44049">
        <ele>508.54</ele>
        <time>2018-09-09T14:22:25Z</time>
      </trkpt>
      <trkpt lat="45.71279" lon="6.44024">
        <ele>507.83</ele>
        <time>2018-09-09T14:22:26Z</time>
      </trkpt>
      <trkpt lat="45.7126" lon="6.44">
        <ele>509.02</ele>
        <time>2018-09-09T14:22:27Z</time>
      </trkpt>
      <trkpt lat="45.71242" lon="6.43975">
        <ele>510.08</ele>
        <time>2018-09-09T14:22:28Z</time>
      </trkpt>
      <trkpt lat="45.71224" lon="6.43952">
        <ele>510.4</ele>
        <time>2018-09-09T14:22:29Z</time>
      </trkpt>
      <trkpt lat="45.71203" lon="6.43933">
        <ele>510.49</ele>
        <time>2018-09-09T14:22:30Z</time>
      </trkpt>
      <trkpt lat="45.71183" lon="6.43916">
        <ele>511.22</ele>
        <time>2018-09-09T14:22:31Z</time>
      </trkpt>
      <trkpt lat="45.71163" lon="6.43902">
        <ele>511.44</ele>
        <time>2018-09-09T14:22:32Z</time>
      </trkpt>
      <trkpt lat="45.71144" lon="6.43887">
        <ele>510.8</ele>
        <time>2018-09-09T14:22:33Z</time>
      </trkpt>
      <trkpt lat="45.71126" lon="6.4387">
        <ele>510.61</ele>
        <time>2018-09-09T14:22:34Z</time>
      </trkpt>
      <trkpt lat="45.7111" lon="6.43855">
        <ele>511.26</ele>
        <time>2018-09-09T14:22:35Z</time>
      </trkpt>
      <trkpt lat="45.71101" lon="6.4382">
        <ele>510.05</ele>
        <time>2018-09-09T14:22:36Z</time>
      </trkpt>
      <trkpt lat="45.71085" lon="6.43794">
        <ele>508.99</ele>
        <time>2018-09-09T14:22:37Z</time>
      </trkpt>
      <trkpt lat="45.71065" lon="6.43771">
        <ele>508.67</ele>
        <time>2018-09-09T14:22:38Z</time>
      </trkpt>
      <trkpt lat="45.71045" lon="6.43747">
        <ele>507.87</ele>
        <time>2018-09-09T14:22:39Z</time>
      </trkpt>
      <trkpt lat="45.71027" lon="6.43721">
        <ele>507.63</ele>
        <time>2018-09-09T14:22:40Z</time>
      </trkpt>
      <trkpt lat="45.71011" lon="6.43695">
        <ele>506.86</ele>
        <time>2018-09-09T14:22:41Z</time>
      </trkpt>
      <trkpt lat="45.70995" lon="6.43672">
        <ele>505.93</ele>
        <time>2018-09-09T14:22:42Z</time>
      </trkpt>
      <trkpt lat="45.70977" lon="6.43652">
        <ele>504.95</ele>
        <time>2018-09-09T14:22:43Z</time>
      </trkpt>
      <trkpt lat="45.70957" lon="6.43634">
        <ele>504.66</ele>
        <time>2018-09-09T14:22:44Z</time>
      </trkpt>
      <trkpt lat="45.70937" lon="6.43616">
        <ele>504.57</ele>
        <time>2018-09-09T14:22:45Z</time>
      </trkpt>
      <trkpt lat="45.70918" lon="6.43596">
        <ele>504.54</ele>
        <time>2018-09-09T14:22:46Z</time>
      </trkpt>
      <trkpt lat="45.70897" lon="6.4358">
        <ele>504.53</ele>
        <time>2018-09-09T14:22:47Z</time>
      </trkpt>
      <trkpt lat="45.70879" lon="6.43567">
        <ele>503.83</ele>
        <time>2018-09-09T14:22:48Z</time>
      </trkpt>
      <trkpt lat="45.70861" lon="6.4355">
        <ele>503.62</ele>
        <time>2018-09-09T14:22:49Z</time>
      </trkpt>
      <trkpt lat="45.70845" lon="6.43531">
        <ele>502.86</ele>
        <time>2018-09-09T14:22:50Z</time>
      </trkpt>
      <trkpt lat="45.70831" lon="6.43511">
        <ele>502.63</ele>
        <time>2018-09-09T14:22:51Z</time>
      </trkpt>
      <trkpt lat="45.70818" lon="6.43489">
        <ele>501.86</ele>
        <time>2018-09-09T14:22:52Z</time>
      </trkpt>
      <trkpt lat="45.70802" lon="6.43471">
        <ele>500.93</ele>
        <time>2018-09-09T14:22:53Z</time>
      </trkpt>
      <trkpt lat="45.70783" lon="6.43457">
        <ele>500.65</ele>
        <time>2018-09-09T14:22:54Z</time>
      </trkpt>
      <trkpt lat="45.70763" lon="6.43443">
        <ele>499.87</ele>
        <time>2018-09-09T14:22:55Z</time>
      </trkpt>
      <trkpt lat="45.70742" lon="6.4343">
        <ele>500.33</ele>
        <time>2018-09-09T14:22:56Z</time>
      </trkpt>
      <trkpt lat="45.70723" lon="6.43419">
        <ele>499.77</ele>
        <time>2018-09-09T14:22:57Z</time>
      </trkpt>
      <trkpt lat="45.70703" lon="6.43407">
        <ele>499.6</ele>
        <time>2018-09-09T14:22:58Z</time>
      </trkpt>
      <trkpt lat="45.70686" lon="6.4339">
        <ele>498.85</ele>
        <time>2018-09-09T14:22:59Z</time>
      </trkpt>
      <trkpt lat="45.70669" lon="6.43372">
        <ele>498.63</ele>
        <time>2018-09-09T14:23:00Z</time>
      </trkpt>
      <trkpt lat="45.70653" lon="6.43354">
        <ele>497.86</ele>
        <time>2018-09-09T14:23:01Z</time>
      </trkpt>
      <trkpt lat="45.70636" lon="6.43335">
        <ele>497.63</ele>
        <time>2018-09-09T14:23:02Z</time>
      </trkpt>
      <trkpt lat="45.70626" lon="6.43312">
        <ele>496.86</ele>
        <time>2018-09-09T14:23:03Z</time>
      </trkpt>
      <trkpt lat="45.70616" lon="6.4329">
        <ele>496.63</ele>
        <time>2018-09-09T14:23:04Z</time>
      </trkpt>
      <trkpt lat="45.70607" lon="6.43266">
        <ele>495.86</ele>
        <time>2018-09-09T14:23:05Z</time>
      </trkpt>
      <trkpt lat="45.70593" lon="6.43247">
        <ele>496.33</ele>
        <time>2018-09-09T14:23:06Z</time>
      </trkpt>
      <trkpt lat="45.70577" lon="6.43228">
        <ele>496.47</ele>
        <time>2018-09-09T14:23:07Z</time>
      </trkpt>
      <trkpt lat="45.70561" lon="6.43209">
        <ele>496.51</ele>
        <time>2018-09-09T14:23:08Z</time>
      </trkpt>
      <trkpt lat="45.70547" lon="6.43191">
        <ele>496.53</ele>
        <time>2018-09-09T14:23:09Z</time>
      </trkpt>
      <trkpt lat="45.70535" lon="6.43168">
        <ele>497.23</ele>
        <time>2018-09-09T14:23:10Z</time>
      </trkpt>
      <trkpt lat="45.70524" lon="6.43145">
        <ele>497.44</ele>
        <time>2018-09-09T14:23:11Z</time>
      </trkpt>
      <trkpt lat="45.70514" lon="6.43121">
        <ele>496.8</ele>
        <time>2018-09-09T14:23:12Z</time>
      </trkpt>
      <trkpt lat="45.705" lon="6.43103">
        <ele>496.61</ele>
        <time>2018-09-09T14:23:13Z</time>
      </trkpt>
      <trkpt lat="45.70482" lon="6.43089">
        <ele>497.26</ele>
        <time>2018-09-09T14:23:14Z</time>
      </trkpt>
      <trkpt lat="45.70464" lon="6.43078">
        <ele>497.45</ele>
        <time>2018-09-09T14:23:15Z</time>
      </trkpt>
      <trkpt lat="45.70444" lon="6.43068">
        <ele>496.81</ele>
        <time>2018-09-09T14:23:16Z</time>
      </trkpt>
      <trkpt lat="45.70424" lon="6.43059">
        <ele>497.31</ele>
        <time>2018-09-09T14:23:17Z</time>
      </trkpt>
      <trkpt lat="45.70394" lon="6.4305">
        <ele>496.81</ele>
        <time>2018-09-09T14:23:19Z</time>
      </trkpt>
      <trkpt lat="45.70369" lon="6.43065">
        <ele>495.65</ele>
        <time>2018-09-09T14:23:21Z</time>
      </trkpt>
      <trkpt lat="45.70349" lon="6.43089">
        <ele>496.24</ele>
        <time>2018-09-09T14:23:23Z</time>
      </trkpt>
      <trkpt lat="45.70323" lon="6.43085">
        <ele>496.5</ele>
        <time>2018-09-09T14:23:25Z</time>
      </trkpt>
      <trkpt lat="45.70292" lon="6.43065">
        <ele>497.44</ele>
        <time>2018-09-09T14:23:27Z</time>
      </trkpt>
      <trkpt lat="45.70276" lon="6.43052">
        <ele>498.2</ele>
        <time>2018-09-09T14:23:28Z</time>
      </trkpt>
      <trkpt lat="45.70258" lon="6.43037">
        <ele>498.43</ele>
        <time>2018-09-09T14:23:29Z</time>
      </trkpt>
      <trkpt lat="45.70239" lon="6.43021">
        <ele>498.5</ele>
        <time>2018-09-09T14:23:30Z</time>
      </trkpt>
      <trkpt lat="45.70222" lon="6.43003">
        <ele>499.22</ele>
        <time>2018-09-09T14:23:31Z</time>
      </trkpt>
      <trkpt lat="45.70206" lon="6.42985">
        <ele>500.14</ele>
        <time>2018-09-09T14:23:32Z</time>
      </trkpt>
      <trkpt lat="45.70194" lon="6.42962">
        <ele>500.41</ele>
        <time>2018-09-09T14:23:33Z</time>
      </trkpt>
      <trkpt lat="45.7018" lon="6.42941">
        <ele>501.2</ele>
        <time>2018-09-09T14:23:34Z</time>
      </trkpt>
      <trkpt lat="45.70165" lon="6.42925">
        <ele>502.13</ele>
        <time>2018-09-09T14:23:35Z</time>
      </trkpt>
      <trkpt lat="45.70148" lon="6.42913">
        <ele>503.11</ele>
        <time>2018-09-09T14:23:36Z</time>
      </trkpt>
      <trkpt lat="45.70129" lon="6.42906">
        <ele>504.1</ele>
        <time>2018-09-09T14:23:37Z</time>
      </trkpt>
      <trkpt lat="45.7011" lon="6.42899">
        <ele>504.4</ele>
        <time>2018-09-09T14:23:38Z</time>
      </trkpt>
      <trkpt lat="45.70078" lon="6.42879">
        <ele>504.73</ele>
        <time>2018-09-09T14:23:40Z</time>
      </trkpt>
      <trkpt lat="45.70059" lon="6.42848">
        <ele>504.55</ele>
        <time>2018-09-09T14:23:42Z</time>
      </trkpt>
      <trkpt lat="45.70036" lon="6.4284">
        <ele>504.32</ele>
        <time>2018-09-09T14:23:44Z</time>
      </trkpt>
      <trkpt lat="45.70016" lon="6.42852">
        <ele>504.47</ele>
        <time>2018-09-09T14:23:45Z</time>
      </trkpt>
      <trkpt lat="45.69985" lon="6.42857">
        <ele>505.44</ele>
        <time>2018-09-09T14:23:47Z</time>
      </trkpt>
      <trkpt lat="45.69965" lon="6.4283">
        <ele>506.2</ele>
        <time>2018-09-09T14:23:48Z</time>
      </trkpt>
      <trkpt lat="45.69945" lon="6.42816">
        <ele>507.13</ele>
        <time>2018-09-09T14:23:49Z</time>
      </trkpt>
      <trkpt lat="45.69926" lon="6.42803">
        <ele>507.41</ele>
        <time>2018-09-09T14:23:50Z</time>
      </trkpt>
      <trkpt lat="45.69906" lon="6.42788">
        <ele>508.2</ele>
        <time>2018-09-09T14:23:51Z</time>
      </trkpt>
      <trkpt lat="45.69887" lon="6.42773">
        <ele>509.13</ele>
        <time>2018-09-09T14:23:52Z</time>
      </trkpt>
      <trkpt lat="45.69869" lon="6.42756">
        <ele>509.41</ele>
        <time>2018-09-09T14:23:53Z</time>
      </trkpt>
      <trkpt lat="45.6985" lon="6.42742">
        <ele>510.19</ele>
        <time>2018-09-09T14:23:54Z</time>
      </trkpt>
      <trkpt lat="45.69832" lon="6.42729">
        <ele>510.43</ele>
        <time>2018-09-09T14:23:55Z</time>
      </trkpt>
      <trkpt lat="45.69815" lon="6.42719">
        <ele>511.2</ele>
        <time>2018-09-09T14:23:56Z</time>
      </trkpt>
      <trkpt lat="45.69798" lon="6.42709">
        <ele>510.73</ele>
        <time>2018-09-09T14:23:57Z</time>
      </trkpt>
      <trkpt lat="45.69775" lon="6.42682">
        <ele>511.46</ele>
        <time>2018-09-09T14:23:59Z</time>
      </trkpt>
      <trkpt lat="45.69752" lon="6.4267">
        <ele>513.83</ele>
        <time>2018-09-09T14:24:01Z</time>
      </trkpt>
      <trkpt lat="45.69728" lon="6.42678">
        <ele>515.38</ele>
        <time>2018-09-09T14:24:03Z</time>
      </trkpt>
      <trkpt lat="45.69702" lon="6.4267">
        <ele>515.52</ele>
        <time>2018-09-09T14:24:05Z</time>
      </trkpt>
      <trkpt lat="45.69667" lon="6.42656">
        <ele>516.44</ele>
        <time>2018-09-09T14:24:07Z</time>
      </trkpt>
      <trkpt lat="45.69648" lon="6.42645">
        <ele>516.5</ele>
        <time>2018-09-09T14:24:08Z</time>
      </trkpt>
      <trkpt lat="45.69632" lon="6.42632">
        <ele>516.52</ele>
        <time>2018-09-09T14:24:09Z</time>
      </trkpt>
      <trkpt lat="45.69615" lon="6.42617">
        <ele>515.83</ele>
        <time>2018-09-09T14:24:10Z</time>
      </trkpt>
      <trkpt lat="45.69601" lon="6.4258">
        <ele>516.26</ele>
        <time>2018-09-09T14:24:12Z</time>
      </trkpt>
      <trkpt lat="45.69585" lon="6.42557">
        <ele>517.42</ele>
        <time>2018-09-09T14:24:14Z</time>
      </trkpt>
      <trkpt lat="45.69569" lon="6.42539">
        <ele>519.83</ele>
        <time>2018-09-09T14:24:16Z</time>
      </trkpt>
      <trkpt lat="45.69557" lon="6.42511">
        <ele>521.38</ele>
        <time>2018-09-09T14:24:18Z</time>
      </trkpt>
      <trkpt lat="45.6954" lon="6.42487">
        <ele>523.13</ele>
        <time>2018-09-09T14:24:20Z</time>
      </trkpt>
      <trkpt lat="45.69519" lon="6.42471">
        <ele>524.4</ele>
        <time>2018-09-09T14:24:22Z</time>
      </trkpt>
      <trkpt lat="45.69493" lon="6.42461">
        <ele>526.13</ele>
        <time>2018-09-09T14:24:24Z</time>
      </trkpt>
      <trkpt lat="45.69464" lon="6.42452">
        <ele>526.49</ele>
        <time>2018-09-09T14:24:26Z</time>
      </trkpt>
      <trkpt lat="45.6944" lon="6.4243">
        <ele>527.23</ele>
        <time>2018-09-09T14:24:28Z</time>
      </trkpt>
      <trkpt lat="45.69416" lon="6.42394">
        <ele>527.71</ele>
        <time>2018-09-09T14:24:30Z</time>
      </trkpt>
      <trkpt lat="45.69403" lon="6.42374">
        <ele>528.29</ele>
        <time>2018-09-09T14:24:31Z</time>
      </trkpt>
      <trkpt lat="45.6938" lon="6.42338">
        <ele>528.51</ele>
        <time>2018-09-09T14:24:33Z</time>
      </trkpt>
      <trkpt lat="45.6936" lon="6.42306">
        <ele>527.83</ele>
        <time>2018-09-09T14:24:35Z</time>
      </trkpt>
      <trkpt lat="45.69346" lon="6.42269">
        <ele>526.65</ele>
        <time>2018-09-09T14:24:37Z</time>
      </trkpt>
      <trkpt lat="45.69329" lon="6.42234">
        <ele>527.24</ele>
        <time>2018-09-09T14:24:39Z</time>
      </trkpt>
      <trkpt lat="45.6931" lon="6.42199">
        <ele>527.5</ele>
        <time>2018-09-09T14:24:41Z</time>
      </trkpt>
      <trkpt lat="45.6929" lon="6.4217">
        <ele>527.53</ele>
        <time>2018-09-09T14:24:43Z</time>
      </trkpt>
      <trkpt lat="45.69266" lon="6.42144">
        <ele>527.53</ele>
        <time>2018-09-09T14:24:45Z</time>
      </trkpt>
      <trkpt lat="45.69241" lon="6.42133">
        <ele>526.83</ele>
        <time>2018-09-09T14:24:47Z</time>
      </trkpt>
      <trkpt lat="45.69218" lon="6.42123">
        <ele>525.86</ele>
        <time>2018-09-09T14:24:49Z</time>
      </trkpt>
      <trkpt lat="45.69197" lon="6.42114">
        <ele>527.17</ele>
        <time>2018-09-09T14:24:51Z</time>
      </trkpt>
      <trkpt lat="45.69176" lon="6.42114">
        <ele>527.29</ele>
        <time>2018-09-09T14:24:53Z</time>
      </trkpt>
      <trkpt lat="45.69151" lon="6.42108">
        <ele>525.58</ele>
        <time>2018-09-09T14:24:56Z</time>
      </trkpt>
      <trkpt lat="45.69141" lon="6.42078">
        <ele>527.21</ele>
        <time>2018-09-09T14:24:59Z</time>
      </trkpt>
      <trkpt lat="45.69129" lon="6.42053">
        <ele>528.43</ele>
        <time>2018-09-09T14:25:02Z</time>
      </trkpt>
      <trkpt lat="45.69105" lon="6.42032">
        <ele>528.53</ele>
        <time>2018-09-09T14:25:05Z</time>
      </trkpt>
      <trkpt lat="45.69087" lon="6.42011">
        <ele>527.62</ele>
        <time>2018-09-09T14:25:07Z</time>
      </trkpt>
      <trkpt lat="45.69065" lon="6.41996">
        <ele>526.84</ele>
        <time>2018-09-09T14:25:09Z</time>
      </trkpt>
      <trkpt lat="45.69036" lon="6.41984">
        <ele>526.56</ele>
        <time>2018-09-09T14:25:11Z</time>
      </trkpt>
      <trkpt lat="45.69007" lon="6.41968">
        <ele>524.01</ele>
        <time>2018-09-09T14:25:13Z</time>
      </trkpt>
      <trkpt lat="45.68987" lon="6.41959">
        <ele>521.05</ele>
        <time>2018-09-09T14:25:15Z</time>
      </trkpt>
      <trkpt lat="45.68967" lon="6.41941">
        <ele>518.76</ele>
        <time>2018-09-09T14:25:17Z</time>
      </trkpt>
      <trkpt lat="45.6895" lon="6.41914">
        <ele>518.55</ele>
        <time>2018-09-09T14:25:19Z</time>
      </trkpt>
      <trkpt lat="45.68948" lon="6.41882">
        <ele>517.14</ele>
        <time>2018-09-09T14:25:20Z</time>
      </trkpt>
      <trkpt lat="45.68939" lon="6.4184">
        <ele>516.59</ele>
        <time>2018-09-09T14:25:22Z</time>
      </trkpt>
      <trkpt lat="45.68938" lon="6.41807">
        <ele>515.84</ele>
        <time>2018-09-09T14:25:24Z</time>
      </trkpt>
      <trkpt lat="45.68944" lon="6.41778">
        <ele>514.86</ele>
        <time>2018-09-09T14:25:26Z</time>
      </trkpt>
      <trkpt lat="45.68943" lon="6.41748">
        <ele>514.56</ele>
        <time>2018-09-09T14:25:28Z</time>
      </trkpt>
      <trkpt lat="45.68934" lon="6.41711">
        <ele>513.62</ele>
        <time>2018-09-09T14:25:30Z</time>
      </trkpt>
      <trkpt lat="45.68926" lon="6.41672">
        <ele>511.02</ele>
        <time>2018-09-09T14:25:32Z</time>
      </trkpt>
      <trkpt lat="45.68916" lon="6.41642">
        <ele>508.96</ele>
        <time>2018-09-09T14:25:34Z</time>
      </trkpt>
      <trkpt lat="45.68911" lon="6.41616">
        <ele>507.87</ele>
        <time>2018-09-09T14:25:36Z</time>
      </trkpt>
      <trkpt lat="45.68915" lon="6.41591">
        <ele>507.56</ele>
        <time>2018-09-09T14:25:38Z</time>
      </trkpt>
      <trkpt lat="45.68929" lon="6.41571">
        <ele>507.53</ele>
        <time>2018-09-09T14:25:40Z</time>
      </trkpt>
      <trkpt lat="45.68942" lon="6.41552">
        <ele>506.83</ele>
        <time>2018-09-09T14:25:42Z</time>
      </trkpt>
      <trkpt lat="45.68949" lon="6.41525">
        <ele>504.95</ele>
        <time>2018-09-09T14:25:44Z</time>
      </trkpt>
      <trkpt lat="45.68952" lon="6.41493">
        <ele>502.96</ele>
        <time>2018-09-09T14:25:46Z</time>
      </trkpt>
      <trkpt lat="45.68954" lon="6.41459">
        <ele>499.35</ele>
        <time>2018-09-09T14:25:48Z</time>
      </trkpt>
      <trkpt lat="45.68961" lon="6.41427">
        <ele>497.9</ele>
        <time>2018-09-09T14:25:50Z</time>
      </trkpt>
      <trkpt lat="45.68974" lon="6.41398">
        <ele>495.95</ele>
        <time>2018-09-09T14:25:52Z</time>
      </trkpt>
      <trkpt lat="45.6899" lon="6.41369">
        <ele>493.96</ele>
        <time>2018-09-09T14:25:54Z</time>
      </trkpt>
      <trkpt lat="45.69004" lon="6.4134">
        <ele>491.05</ele>
        <time>2018-09-09T14:25:56Z</time>
      </trkpt>
      <trkpt lat="45.69011" lon="6.41307">
        <ele>488.97</ele>
        <time>2018-09-09T14:25:58Z</time>
      </trkpt>
      <trkpt lat="45.69019" lon="6.41273">
        <ele>487.87</ele>
        <time>2018-09-09T14:26:00Z</time>
      </trkpt>
      <trkpt lat="45.69025" lon="6.41241">
        <ele>485.04</ele>
        <time>2018-09-09T14:26:02Z</time>
      </trkpt>
      <trkpt lat="45.69022" lon="6.41211">
        <ele>483.88</ele>
        <time>2018-09-09T14:26:04Z</time>
      </trkpt>
      <trkpt lat="45.6901" lon="6.41185">
        <ele>482.65</ele>
        <time>2018-09-09T14:26:06Z</time>
      </trkpt>
      <trkpt lat="45.68995" lon="6.41166">
        <ele>481.84</ele>
        <time>2018-09-09T14:26:08Z</time>
      </trkpt>
      <trkpt lat="45.68979" lon="6.41138">
        <ele>479.66</ele>
        <time>2018-09-09T14:26:11Z</time>
      </trkpt>
      <trkpt lat="45.68987" lon="6.41101">
        <ele>476.25</ele>
        <time>2018-09-09T14:26:14Z</time>
      </trkpt>
      <trkpt lat="45.68999" lon="6.41076">
        <ele>474.9</ele>
        <time>2018-09-09T14:26:16Z</time>
      </trkpt>
      <trkpt lat="45.69005" lon="6.41048">
        <ele>472.95</ele>
        <time>2018-09-09T14:26:18Z</time>
      </trkpt>
      <trkpt lat="45.69006" lon="6.41019">
        <ele>472.57</ele>
        <time>2018-09-09T14:26:20Z</time>
      </trkpt>
      <trkpt lat="45.69008" lon="6.40992">
        <ele>471.62</ele>
        <time>2018-09-09T14:26:22Z</time>
      </trkpt>
      <trkpt lat="45.69018" lon="6.40969">
        <ele>469.93</ele>
        <time>2018-09-09T14:26:24Z</time>
      </trkpt>
      <trkpt lat="45.69036" lon="6.40954">
        <ele>469.08</ele>
        <time>2018-09-09T14:26:26Z</time>
      </trkpt>
      <trkpt lat="45.69058" lon="6.40946">
        <ele>468.58</ele>
        <time>2018-09-09T14:26:28Z</time>
      </trkpt>
      <trkpt lat="45.69078" lon="6.40935">
        <ele>466.93</ele>
        <time>2018-09-09T14:26:30Z</time>
      </trkpt>
      <trkpt lat="45.69091" lon="6.40913">
        <ele>465.66</ele>
        <time>2018-09-09T14:26:32Z</time>
      </trkpt>
      <trkpt lat="45.69091" lon="6.40886">
        <ele>463.93</ele>
        <time>2018-09-09T14:26:34Z</time>
      </trkpt>
      <trkpt lat="45.69078" lon="6.40866">
        <ele>462.87</ele>
        <time>2018-09-09T14:26:36Z</time>
      </trkpt>
      <trkpt lat="45.69061" lon="6.40851">
        <ele>460.95</ele>
        <time>2018-09-09T14:26:38Z</time>
      </trkpt>
      <trkpt lat="45.69043" lon="6.40835">
        <ele>459.66</ele>
        <time>2018-09-09T14:26:40Z</time>
      </trkpt>
      <trkpt lat="45.69024" lon="6.40814">
        <ele>458.63</ele>
        <time>2018-09-09T14:26:42Z</time>
      </trkpt>
      <trkpt lat="45.69013" lon="6.40786">
        <ele>456.23</ele>
        <time>2018-09-09T14:26:44Z</time>
      </trkpt>
      <trkpt lat="45.69009" lon="6.40756">
        <ele>454.89</ele>
        <time>2018-09-09T14:26:46Z</time>
      </trkpt>
      <trkpt lat="45.69012" lon="6.40725">
        <ele>453.65</ele>
        <time>2018-09-09T14:26:48Z</time>
      </trkpt>
      <trkpt lat="45.69022" lon="6.40698">
        <ele>452.84</ele>
        <time>2018-09-09T14:26:50Z</time>
      </trkpt>
      <trkpt lat="45.69032" lon="6.40675">
        <ele>451.86</ele>
        <time>2018-09-09T14:26:52Z</time>
      </trkpt>
      <trkpt lat="45.69029" lon="6.40638">
        <ele>449.93</ele>
        <time>2018-09-09T14:26:55Z</time>
      </trkpt>
      <trkpt lat="45.69015" lon="6.40618">
        <ele>447.96</ele>
        <time>2018-09-09T14:26:57Z</time>
      </trkpt>
      <trkpt lat="45.68995" lon="6.40603">
        <ele>446.66</ele>
        <time>2018-09-09T14:26:59Z</time>
      </trkpt>
      <trkpt lat="45.68974" lon="6.40589">
        <ele>444.93</ele>
        <time>2018-09-09T14:27:01Z</time>
      </trkpt>
      <trkpt lat="45.68954" lon="6.40581">
        <ele>443.66</ele>
        <time>2018-09-09T14:27:03Z</time>
      </trkpt>
      <trkpt lat="45.68934" lon="6.4059">
        <ele>442.63</ele>
        <time>2018-09-09T14:27:05Z</time>
      </trkpt>
      <trkpt lat="45.68915" lon="6.40604">
        <ele>440.93</ele>
        <time>2018-09-09T14:27:07Z</time>
      </trkpt>
      <trkpt lat="45.68895" lon="6.40597">
        <ele>439.17</ele>
        <time>2018-09-09T14:27:09Z</time>
      </trkpt>
      <trkpt lat="45.6888" lon="6.40569">
        <ele>437.89</ele>
        <time>2018-09-09T14:27:11Z</time>
      </trkpt>
      <trkpt lat="45.68871" lon="6.40536">
        <ele>435.95</ele>
        <time>2018-09-09T14:27:13Z</time>
      </trkpt>
      <trkpt lat="45.68859" lon="6.40512">
        <ele>434.66</ele>
        <time>2018-09-09T14:27:15Z</time>
      </trkpt>
      <trkpt lat="45.6884" lon="6.40503">
        <ele>433.63</ele>
        <time>2018-09-09T14:27:17Z</time>
      </trkpt>
      <trkpt lat="45.68821" lon="6.40504">
        <ele>432.84</ele>
        <time>2018-09-09T14:27:19Z</time>
      </trkpt>
      <trkpt lat="45.68801" lon="6.40498">
        <ele>430.95</ele>
        <time>2018-09-09T14:27:21Z</time>
      </trkpt>
      <trkpt lat="45.68785" lon="6.40475">
        <ele>429.66</ele>
        <time>2018-09-09T14:27:23Z</time>
      </trkpt>
      <trkpt lat="45.68774" lon="6.40446">
        <ele>427.93</ele>
        <time>2018-09-09T14:27:25Z</time>
      </trkpt>
      <trkpt lat="45.68757" lon="6.40424">
        <ele>426.66</ele>
        <time>2018-09-09T14:27:27Z</time>
      </trkpt>
      <trkpt lat="45.68735" lon="6.40413">
        <ele>424.93</ele>
        <time>2018-09-09T14:27:29Z</time>
      </trkpt>
      <trkpt lat="45.68712" lon="6.40401">
        <ele>423.66</ele>
        <time>2018-09-09T14:27:31Z</time>
      </trkpt>
      <trkpt lat="45.6869" lon="6.4038">
        <ele>421.93</ele>
        <time>2018-09-09T14:27:33Z</time>
      </trkpt>
      <trkpt lat="45.68674" lon="6.40351">
        <ele>420.66</ele>
        <time>2018-09-09T14:27:35Z</time>
      </trkpt>
      <trkpt lat="45.68667" lon="6.40316">
        <ele>418.02</ele>
        <time>2018-09-09T14:27:37Z</time>
      </trkpt>
      <trkpt lat="45.68663" lon="6.40282">
        <ele>416.88</ele>
        <time>2018-09-09T14:27:39Z</time>
      </trkpt>
      <trkpt lat="45.68654" lon="6.4025">
        <ele>415.16</ele>
        <time>2018-09-09T14:27:41Z</time>
      </trkpt>
      <trkpt lat="45.68638" lon="6.40223">
        <ele>412.98</ele>
        <time>2018-09-09T14:27:43Z</time>
      </trkpt>
      <trkpt lat="45.68625" lon="6.4019">
        <ele>412.57</ele>
        <time>2018-09-09T14:27:45Z</time>
      </trkpt>
      <trkpt lat="45.68614" lon="6.40156">
        <ele>411.83</ele>
        <time>2018-09-09T14:27:47Z</time>
      </trkpt>
      <trkpt lat="45.68598" lon="6.40128">
        <ele>410.86</ele>
        <time>2018-09-09T14:27:49Z</time>
      </trkpt>
      <trkpt lat="45.68575" lon="6.40111">
        <ele>408.95</ele>
        <time>2018-09-09T14:27:51Z</time>
      </trkpt>
      <trkpt lat="45.6855" lon="6.40101">
        <ele>407.87</ele>
        <time>2018-09-09T14:27:53Z</time>
      </trkpt>
      <trkpt lat="45.68521" lon="6.40087">
        <ele>406.65</ele>
        <time>2018-09-09T14:27:55Z</time>
      </trkpt>
      <trkpt lat="45.68491" lon="6.40063">
        <ele>404.93</ele>
        <time>2018-09-09T14:27:57Z</time>
      </trkpt>
      <trkpt lat="45.68462" lon="6.40046">
        <ele>405.27</ele>
        <time>2018-09-09T14:27:59Z</time>
      </trkpt>
      <trkpt lat="45.68432" lon="6.40017">
        <ele>403.41</ele>
        <time>2018-09-09T14:28:01Z</time>
      </trkpt>
      <trkpt lat="45.68406" lon="6.39992">
        <ele>401.91</ele>
        <time>2018-09-09T14:28:03Z</time>
      </trkpt>
      <trkpt lat="45.68383" lon="6.39971">
        <ele>400.17</ele>
        <time>2018-09-09T14:28:05Z</time>
      </trkpt>
      <trkpt lat="45.68361" lon="6.3995">
        <ele>398.19</ele>
        <time>2018-09-09T14:28:07Z</time>
      </trkpt>
      <trkpt lat="45.68343" lon="6.39924">
        <ele>396.68</ele>
        <time>2018-09-09T14:28:09Z</time>
      </trkpt>
      <trkpt lat="45.68329" lon="6.39895">
        <ele>394.02</ele>
        <time>2018-09-09T14:28:11Z</time>
      </trkpt>
      <trkpt lat="45.68314" lon="6.39869">
        <ele>391.97</ele>
        <time>2018-09-09T14:28:13Z</time>
      </trkpt>
      <trkpt lat="45.68293" lon="6.39852">
        <ele>389.26</ele>
        <time>2018-09-09T14:28:15Z</time>
      </trkpt>
      <trkpt lat="45.68267" lon="6.39839">
        <ele>387.69</ele>
        <time>2018-09-09T14:28:17Z</time>
      </trkpt>
      <trkpt lat="45.68239" lon="6.39829">
        <ele>385.73</ele>
        <time>2018-09-09T14:28:19Z</time>
      </trkpt>
      <trkpt lat="45.68213" lon="6.3982">
        <ele>384.64</ele>
        <time>2018-09-09T14:28:21Z</time>
      </trkpt>
      <trkpt lat="45.68187" lon="6.39808">
        <ele>382.93</ele>
        <time>2018-09-09T14:28:23Z</time>
      </trkpt>
      <trkpt lat="45.68164" lon="6.39789">
        <ele>381.87</ele>
        <time>2018-09-09T14:28:25Z</time>
      </trkpt>
      <trkpt lat="45.68139" lon="6.39772">
        <ele>380.65</ele>
        <time>2018-09-09T14:28:27Z</time>
      </trkpt>
      <trkpt lat="45.68108" lon="6.39763">
        <ele>379.14</ele>
        <time>2018-09-09T14:28:29Z</time>
      </trkpt>
      <trkpt lat="45.6809" lon="6.39757">
        <ele>378.71</ele>
        <time>2018-09-09T14:28:30Z</time>
      </trkpt>
      <trkpt lat="45.68071" lon="6.39751">
        <ele>378.59</ele>
        <time>2018-09-09T14:28:31Z</time>
      </trkpt>
      <trkpt lat="45.68052" lon="6.39745">
        <ele>378.55</ele>
        <time>2018-09-09T14:28:32Z</time>
      </trkpt>
      <trkpt lat="45.68022" lon="6.39734">
        <ele>376.01</ele>
        <time>2018-09-09T14:28:34Z</time>
      </trkpt>
      <trkpt lat="45.67998" lon="6.39727">
        <ele>374.87</ele>
        <time>2018-09-09T14:28:36Z</time>
      </trkpt>
      <trkpt lat="45.67976" lon="6.39714">
        <ele>373.16</ele>
        <time>2018-09-09T14:28:38Z</time>
      </trkpt>
      <trkpt lat="45.67954" lon="6.39704">
        <ele>371.89</ele>
        <time>2018-09-09T14:28:40Z</time>
      </trkpt>
      <trkpt lat="45.67933" lon="6.39692">
        <ele>371.56</ele>
        <time>2018-09-09T14:28:42Z</time>
      </trkpt>
      <trkpt lat="45.67914" lon="6.39679">
        <ele>369.71</ele>
        <time>2018-09-09T14:28:44Z</time>
      </trkpt>
      <trkpt lat="45.67895" lon="6.39661">
        <ele>367.73</ele>
        <time>2018-09-09T14:28:46Z</time>
      </trkpt>
      <trkpt lat="45.67877" lon="6.39644">
        <ele>365.03</ele>
        <time>2018-09-09T14:28:48Z</time>
      </trkpt>
      <trkpt lat="45.67857" lon="6.39632">
        <ele>365.28</ele>
        <time>2018-09-09T14:28:50Z</time>
      </trkpt>
      <trkpt lat="45.67837" lon="6.39624">
        <ele>363.9</ele>
        <time>2018-09-09T14:28:52Z</time>
      </trkpt>
      <trkpt lat="45.67818" lon="6.39626">
        <ele>362.86</ele>
        <time>2018-09-09T14:28:54Z</time>
      </trkpt>
      <trkpt lat="45.67792" lon="6.39634">
        <ele>360.66</ele>
        <time>2018-09-09T14:28:57Z</time>
      </trkpt>
      <trkpt lat="45.67773" lon="6.39628">
        <ele>358.93</ele>
        <time>2018-09-09T14:28:59Z</time>
      </trkpt>
      <trkpt lat="45.67757" lon="6.39615">
        <ele>357.66</ele>
        <time>2018-09-09T14:29:01Z</time>
      </trkpt>
      <trkpt lat="45.67737" lon="6.39592">
        <ele>355.65</ele>
        <time>2018-09-09T14:29:04Z</time>
      </trkpt>
      <trkpt lat="45.67715" lon="6.39578">
        <ele>353.65</ele>
        <time>2018-09-09T14:29:07Z</time>
      </trkpt>
      <trkpt lat="45.67692" lon="6.39571">
        <ele>351.86</ele>
        <time>2018-09-09T14:29:10Z</time>
      </trkpt>
      <trkpt lat="45.67668" lon="6.39563">
        <ele>351.54</ele>
        <time>2018-09-09T14:29:13Z</time>
      </trkpt>
      <trkpt lat="45.67646" lon="6.39556">
        <ele>350.56</ele>
        <time>2018-09-09T14:29:16Z</time>
      </trkpt>
      <trkpt lat="45.67626" lon="6.39547">
        <ele>350.53</ele>
        <time>2018-09-09T14:29:21Z</time>
      </trkpt>
      <trkpt lat="45.67608" lon="6.39541">
        <ele>350.23</ele>
        <time>2018-09-09T14:29:27Z</time>
      </trkpt>
      <trkpt lat="45.67609" lon="6.39514">
        <ele>348.53</ele>
        <time>2018-09-09T14:29:33Z</time>
      </trkpt>
      <trkpt lat="45.67622" lon="6.39487">
        <ele>350.14</ele>
        <time>2018-09-09T14:29:37Z</time>
      </trkpt>
      <trkpt lat="45.67628" lon="6.39458">
        <ele>350.73</ele>
        <time>2018-09-09T14:29:40Z</time>
      </trkpt>
      <trkpt lat="45.67633" lon="6.39426">
        <ele>349.84</ele>
        <time>2018-09-09T14:29:43Z</time>
      </trkpt>
      <trkpt lat="45.67637" lon="6.39399">
        <ele>348.78</ele>
        <time>2018-09-09T14:29:46Z</time>
      </trkpt>
      <trkpt lat="45.67642" lon="6.39374">
        <ele>348.23</ele>
        <time>2018-09-09T14:30:46Z</time>
      </trkpt>
      <trkpt lat="45.67647" lon="6.39343">
        <ele>345.84</ele>
        <time>2018-09-09T14:30:52Z</time>
      </trkpt>
      <trkpt lat="45.67632" lon="6.39321">
        <ele>344.83</ele>
        <time>2018-09-09T14:30:56Z</time>
      </trkpt>
      <trkpt lat="45.67614" lon="6.39314">
        <ele>343.84</ele>
        <time>2018-09-09T14:30:59Z</time>
      </trkpt>
      <trkpt lat="45.67592" lon="6.39301">
        <ele>342.63</ele>
        <time>2018-09-09T14:31:02Z</time>
      </trkpt>
      <trkpt lat="45.67575" lon="6.39288">
        <ele>342.32</ele>
        <time>2018-09-09T14:31:05Z</time>
      </trkpt>
      <trkpt lat="45.67553" lon="6.39281">
        <ele>336.5</ele>
        <time>2018-09-09T14:35:23Z</time>
      </trkpt>
      <trkpt lat="45.67534" lon="6.39275">
        <ele>338.41</ele>
        <time>2018-09-09T14:35:26Z</time>
      </trkpt>
      <trkpt lat="45.67511" lon="6.39273">
        <ele>338.53</ele>
        <time>2018-09-09T14:35:29Z</time>
      </trkpt>
      <trkpt lat="45.67484" lon="6.39268">
        <ele>338.53</ele>
        <time>2018-09-09T14:35:32Z</time>
      </trkpt>
      <trkpt lat="45.67465" lon="6.39262">
        <ele>338.53</ele>
        <time>2018-09-09T14:35:34Z</time>
      </trkpt>
      <trkpt lat="45.67443" lon="6.39255">
        <ele>337.83</ele>
        <time>2018-09-09T14:35:36Z</time>
      </trkpt>
      <trkpt lat="45.67421" lon="6.39249">
        <ele>337.56</ele>
        <time>2018-09-09T14:35:38Z</time>
      </trkpt>
      <trkpt lat="45.674" lon="6.39243">
        <ele>338.23</ele>
        <time>2018-09-09T14:35:40Z</time>
      </trkpt>
      <trkpt lat="45.67379" lon="6.39235">
        <ele>338.71</ele>
        <time>2018-09-09T14:35:42Z</time>
      </trkpt>
      <trkpt lat="45.67357" lon="6.39228">
        <ele>338.76</ele>
        <time>2018-09-09T14:35:44Z</time>
      </trkpt>
      <trkpt lat="45.67332" lon="6.3922">
        <ele>339.46</ele>
        <time>2018-09-09T14:35:46Z</time>
      </trkpt>
      <trkpt lat="45.67307" lon="6.39212">
        <ele>339.52</ele>
        <time>2018-09-09T14:35:48Z</time>
      </trkpt>
      <trkpt lat="45.67282" lon="6.39202">
        <ele>339.53</ele>
        <time>2018-09-09T14:35:50Z</time>
      </trkpt>
      <trkpt lat="45.67258" lon="6.39194">
        <ele>339.53</ele>
        <time>2018-09-09T14:35:52Z</time>
      </trkpt>
      <trkpt lat="45.67235" lon="6.39185">
        <ele>339.53</ele>
        <time>2018-09-09T14:35:54Z</time>
      </trkpt>
      <trkpt lat="45.67211" lon="6.39176">
        <ele>339.74</ele>
        <time>2018-09-09T14:35:56Z</time>
      </trkpt>
      <trkpt lat="45.67186" lon="6.39169">
        <ele>339.55</ele>
        <time>2018-09-09T14:35:58Z</time>
      </trkpt>
      <trkpt lat="45.67163" lon="6.39161">
        <ele>339.53</ele>
        <time>2018-09-09T14:36:00Z</time>
      </trkpt>
      <trkpt lat="45.67138" lon="6.39152">
        <ele>339.53</ele>
        <time>2018-09-09T14:36:02Z</time>
      </trkpt>
      <trkpt lat="45.67113" lon="6.39142">
        <ele>338.62</ele>
        <time>2018-09-09T14:36:04Z</time>
      </trkpt>
      <trkpt lat="45.67089" lon="6.39134">
        <ele>338.54</ele>
        <time>2018-09-09T14:36:06Z</time>
      </trkpt>
      <trkpt lat="45.67065" lon="6.39126">
        <ele>337.83</ele>
        <time>2018-09-09T14:36:08Z</time>
      </trkpt>
      <trkpt lat="45.6704" lon="6.39119">
        <ele>338.47</ele>
        <time>2018-09-09T14:36:10Z</time>
      </trkpt>
      <trkpt lat="45.67016" lon="6.3911">
        <ele>338.53</ele>
        <time>2018-09-09T14:36:12Z</time>
      </trkpt>
      <trkpt lat="45.66992" lon="6.39099">
        <ele>338.53</ele>
        <time>2018-09-09T14:36:14Z</time>
      </trkpt>
      <trkpt lat="45.66966" lon="6.3909">
        <ele>337.83</ele>
        <time>2018-09-09T14:36:16Z</time>
      </trkpt>
      <trkpt lat="45.66942" lon="6.39079">
        <ele>337.56</ele>
        <time>2018-09-09T14:36:18Z</time>
      </trkpt>
      <trkpt lat="45.66918" lon="6.39068">
        <ele>336.62</ele>
        <time>2018-09-09T14:36:20Z</time>
      </trkpt>
      <trkpt lat="45.66894" lon="6.39059">
        <ele>337.24</ele>
        <time>2018-09-09T14:36:22Z</time>
      </trkpt>
      <trkpt lat="45.66871" lon="6.3905">
        <ele>336.8</ele>
        <time>2018-09-09T14:36:24Z</time>
      </trkpt>
      <trkpt lat="45.66846" lon="6.39041">
        <ele>337.26</ele>
        <time>2018-09-09T14:36:26Z</time>
      </trkpt>
      <trkpt lat="45.66822" lon="6.39032">
        <ele>336.6</ele>
        <time>2018-09-09T14:36:28Z</time>
      </trkpt>
      <trkpt lat="45.66797" lon="6.39022">
        <ele>336.54</ele>
        <time>2018-09-09T14:36:30Z</time>
      </trkpt>
      <trkpt lat="45.66771" lon="6.39013">
        <ele>335.83</ele>
        <time>2018-09-09T14:36:32Z</time>
      </trkpt>
      <trkpt lat="45.66745" lon="6.39002">
        <ele>334.86</ele>
        <time>2018-09-09T14:36:34Z</time>
      </trkpt>
      <trkpt lat="45.66718" lon="6.38993">
        <ele>334.77</ele>
        <time>2018-09-09T14:36:36Z</time>
      </trkpt>
      <trkpt lat="45.66689" lon="6.38983">
        <ele>333.64</ele>
        <time>2018-09-09T14:36:38Z</time>
      </trkpt>
      <trkpt lat="45.6666" lon="6.38973">
        <ele>331.93</ele>
        <time>2018-09-09T14:36:40Z</time>
      </trkpt>
      <trkpt lat="45.66633" lon="6.38966">
        <ele>331.57</ele>
        <time>2018-09-09T14:36:42Z</time>
      </trkpt>
      <trkpt lat="45.66609" lon="6.38957">
        <ele>333.84</ele>
        <time>2018-09-09T14:36:44Z</time>
      </trkpt>
      <trkpt lat="45.66588" lon="6.38949">
        <ele>334.47</ele>
        <time>2018-09-09T14:36:46Z</time>
      </trkpt>
      <trkpt lat="45.66564" lon="6.38937">
        <ele>334.53</ele>
        <time>2018-09-09T14:36:49Z</time>
      </trkpt>
      <trkpt lat="45.66546" lon="6.38931">
        <ele>334.53</ele>
        <time>2018-09-09T14:36:52Z</time>
      </trkpt>
      <trkpt lat="45.66528" lon="6.38919">
        <ele>334.53</ele>
        <time>2018-09-09T14:36:56Z</time>
      </trkpt>
      <trkpt lat="45.66508" lon="6.38914">
        <ele>334.53</ele>
        <time>2018-09-09T14:36:59Z</time>
      </trkpt>
      <trkpt lat="45.6649" lon="6.38913">
        <ele>334.53</ele>
        <time>2018-09-09T14:37:01Z</time>
      </trkpt>
      <trkpt lat="45.66472" lon="6.38904">
        <ele>335.23</ele>
        <time>2018-09-09T14:37:03Z</time>
      </trkpt>
      <trkpt lat="45.66452" lon="6.38893">
        <ele>336.2</ele>
        <time>2018-09-09T14:37:05Z</time>
      </trkpt>
      <trkpt lat="45.6643" lon="6.38882">
        <ele>335.8</ele>
        <time>2018-09-09T14:37:07Z</time>
      </trkpt>
      <trkpt lat="45.6641" lon="6.38868">
        <ele>335.56</ele>
        <time>2018-09-09T14:37:09Z</time>
      </trkpt>
      <trkpt lat="45.66387" lon="6.38851">
        <ele>334.62</ele>
        <time>2018-09-09T14:37:11Z</time>
      </trkpt>
      <trkpt lat="45.66367" lon="6.38826">
        <ele>334.54</ele>
        <time>2018-09-09T14:37:13Z</time>
      </trkpt>
      <trkpt lat="45.66349" lon="6.388">
        <ele>334.53</ele>
        <time>2018-09-09T14:37:15Z</time>
      </trkpt>
      <trkpt lat="45.66331" lon="6.38781">
        <ele>333.62</ele>
        <time>2018-09-09T14:37:17Z</time>
      </trkpt>
      <trkpt lat="45.66322" lon="6.38757">
        <ele>333.33</ele>
        <time>2018-09-09T14:37:19Z</time>
      </trkpt>
      <trkpt lat="45.66316" lon="6.38732">
        <ele>332.6</ele>
        <time>2018-09-09T14:37:21Z</time>
      </trkpt>
      <trkpt lat="45.66303" lon="6.38705">
        <ele>331.84</ele>
        <time>2018-09-09T14:37:23Z</time>
      </trkpt>
      <trkpt lat="45.66293" lon="6.38674">
        <ele>333.17</ele>
        <time>2018-09-09T14:37:25Z</time>
      </trkpt>
      <trkpt lat="45.66285" lon="6.38637">
        <ele>335.11</ele>
        <time>2018-09-09T14:37:27Z</time>
      </trkpt>
      <trkpt lat="45.66274" lon="6.38599">
        <ele>336.19</ele>
        <time>2018-09-09T14:37:29Z</time>
      </trkpt>
      <trkpt lat="45.66257" lon="6.38557">
        <ele>335.8</ele>
        <time>2018-09-09T14:37:31Z</time>
      </trkpt>
      <trkpt lat="45.66237" lon="6.38515">
        <ele>333.95</ele>
        <time>2018-09-09T14:37:33Z</time>
      </trkpt>
      <trkpt lat="45.66225" lon="6.38493">
        <ele>333.66</ele>
        <time>2018-09-09T14:37:34Z</time>
      </trkpt>
      <trkpt lat="45.66212" lon="6.3847">
        <ele>332.87</ele>
        <time>2018-09-09T14:37:35Z</time>
      </trkpt>
      <trkpt lat="45.66199" lon="6.38447">
        <ele>332.63</ele>
        <time>2018-09-09T14:37:36Z</time>
      </trkpt>
      <trkpt lat="45.66187" lon="6.38422">
        <ele>332.56</ele>
        <time>2018-09-09T14:37:37Z</time>
      </trkpt>
      <trkpt lat="45.66174" lon="6.38398">
        <ele>332.54</ele>
        <time>2018-09-09T14:37:38Z</time>
      </trkpt>
      <trkpt lat="45.66162" lon="6.38373">
        <ele>332.53</ele>
        <time>2018-09-09T14:37:39Z</time>
      </trkpt>
      <trkpt lat="45.6615" lon="6.38348">
        <ele>332.53</ele>
        <time>2018-09-09T14:37:40Z</time>
      </trkpt>
      <trkpt lat="45.66138" lon="6.38322">
        <ele>332.53</ele>
        <time>2018-09-09T14:37:41Z</time>
      </trkpt>
      <trkpt lat="45.66126" lon="6.38296">
        <ele>331.83</ele>
        <time>2018-09-09T14:37:42Z</time>
      </trkpt>
      <trkpt lat="45.66114" lon="6.3827">
        <ele>331.62</ele>
        <time>2018-09-09T14:37:43Z</time>
      </trkpt>
      <trkpt lat="45.66103" lon="6.38243">
        <ele>331.56</ele>
        <time>2018-09-09T14:37:44Z</time>
      </trkpt>
      <trkpt lat="45.66091" lon="6.38215">
        <ele>330.84</ele>
        <time>2018-09-09T14:37:45Z</time>
      </trkpt>
      <trkpt lat="45.66079" lon="6.38187">
        <ele>331.32</ele>
        <time>2018-09-09T14:37:46Z</time>
      </trkpt>
      <trkpt lat="45.66067" lon="6.38159">
        <ele>330.77</ele>
        <time>2018-09-09T14:37:47Z</time>
      </trkpt>
      <trkpt lat="45.66054" lon="6.38131">
        <ele>330.6</ele>
        <time>2018-09-09T14:37:48Z</time>
      </trkpt>
      <trkpt lat="45.66042" lon="6.38103">
        <ele>329.85</ele>
        <time>2018-09-09T14:37:49Z</time>
      </trkpt>
      <trkpt lat="45.66029" lon="6.38076">
        <ele>329.63</ele>
        <time>2018-09-09T14:37:50Z</time>
      </trkpt>
      <trkpt lat="45.66017" lon="6.38048">
        <ele>328.86</ele>
        <time>2018-09-09T14:37:51Z</time>
      </trkpt>
      <trkpt lat="45.66005" lon="6.38021">
        <ele>328.63</ele>
        <time>2018-09-09T14:37:52Z</time>
      </trkpt>
      <trkpt lat="45.65993" lon="6.37995">
        <ele>328.56</ele>
        <time>2018-09-09T14:37:53Z</time>
      </trkpt>
      <trkpt lat="45.65981" lon="6.37969">
        <ele>328.54</ele>
        <time>2018-09-09T14:37:54Z</time>
      </trkpt>
      <trkpt lat="45.65969" lon="6.37942">
        <ele>328.53</ele>
        <time>2018-09-09T14:37:55Z</time>
      </trkpt>
      <trkpt lat="45.65956" lon="6.37915">
        <ele>327.83</ele>
        <time>2018-09-09T14:37:56Z</time>
      </trkpt>
      <trkpt lat="45.65944" lon="6.37887">
        <ele>328.32</ele>
        <time>2018-09-09T14:37:57Z</time>
      </trkpt>
      <trkpt lat="45.65932" lon="6.37859">
        <ele>328.47</ele>
        <time>2018-09-09T14:37:58Z</time>
      </trkpt>
      <trkpt lat="45.6592" lon="6.37832">
        <ele>328.51</ele>
        <time>2018-09-09T14:37:59Z</time>
      </trkpt>
      <trkpt lat="45.65907" lon="6.37804">
        <ele>328.53</ele>
        <time>2018-09-09T14:38:00Z</time>
      </trkpt>
      <trkpt lat="45.65895" lon="6.37777">
        <ele>329.23</ele>
        <time>2018-09-09T14:38:01Z</time>
      </trkpt>
      <trkpt lat="45.65884" lon="6.3775">
        <ele>329.44</ele>
        <time>2018-09-09T14:38:02Z</time>
      </trkpt>
      <trkpt lat="45.65872" lon="6.37724">
        <ele>329.5</ele>
        <time>2018-09-09T14:38:03Z</time>
      </trkpt>
      <trkpt lat="45.6586" lon="6.37698">
        <ele>329.52</ele>
        <time>2018-09-09T14:38:04Z</time>
      </trkpt>
      <trkpt lat="45.65849" lon="6.37673">
        <ele>329.53</ele>
        <time>2018-09-09T14:38:05Z</time>
      </trkpt>
      <trkpt lat="45.65837" lon="6.37648">
        <ele>329.53</ele>
        <time>2018-09-09T14:38:06Z</time>
      </trkpt>
      <trkpt lat="45.65824" lon="6.37623">
        <ele>329.53</ele>
        <time>2018-09-09T14:38:07Z</time>
      </trkpt>
      <trkpt lat="45.65812" lon="6.37598">
        <ele>328.83</ele>
        <time>2018-09-09T14:38:08Z</time>
      </trkpt>
      <trkpt lat="45.65799" lon="6.37573">
        <ele>328.62</ele>
        <time>2018-09-09T14:38:09Z</time>
      </trkpt>
      <trkpt lat="45.65785" lon="6.37549">
        <ele>328.56</ele>
        <time>2018-09-09T14:38:10Z</time>
      </trkpt>
      <trkpt lat="45.65772" lon="6.37523">
        <ele>328.54</ele>
        <time>2018-09-09T14:38:11Z</time>
      </trkpt>
      <trkpt lat="45.65758" lon="6.37496">
        <ele>328.53</ele>
        <time>2018-09-09T14:38:12Z</time>
      </trkpt>
      <trkpt lat="45.65745" lon="6.37469">
        <ele>328.53</ele>
        <time>2018-09-09T14:38:13Z</time>
      </trkpt>
      <trkpt lat="45.65732" lon="6.37441">
        <ele>328.53</ele>
        <time>2018-09-09T14:38:14Z</time>
      </trkpt>
      <trkpt lat="45.6572" lon="6.37412">
        <ele>327.83</ele>
        <time>2018-09-09T14:38:15Z</time>
      </trkpt>
      <trkpt lat="45.65708" lon="6.37383">
        <ele>327.62</ele>
        <time>2018-09-09T14:38:16Z</time>
      </trkpt>
      <trkpt lat="45.65696" lon="6.37354">
        <ele>326.86</ele>
        <time>2018-09-09T14:38:17Z</time>
      </trkpt>
      <trkpt lat="45.65685" lon="6.37325">
        <ele>326.63</ele>
        <time>2018-09-09T14:38:18Z</time>
      </trkpt>
      <trkpt lat="45.65675" lon="6.37296">
        <ele>326.56</ele>
        <time>2018-09-09T14:38:19Z</time>
      </trkpt>
      <trkpt lat="45.65664" lon="6.37267">
        <ele>325.84</ele>
        <time>2018-09-09T14:38:20Z</time>
      </trkpt>
      <trkpt lat="45.65654" lon="6.37238">
        <ele>325.62</ele>
        <time>2018-09-09T14:38:21Z</time>
      </trkpt>
      <trkpt lat="45.65644" lon="6.37209">
        <ele>325.56</ele>
        <time>2018-09-09T14:38:22Z</time>
      </trkpt>
      <trkpt lat="45.65635" lon="6.3718">
        <ele>325.54</ele>
        <time>2018-09-09T14:38:23Z</time>
      </trkpt>
      <trkpt lat="45.65626" lon="6.37153">
        <ele>325.53</ele>
        <time>2018-09-09T14:38:24Z</time>
      </trkpt>
      <trkpt lat="45.65617" lon="6.37123">
        <ele>325.53</ele>
        <time>2018-09-09T14:38:25Z</time>
      </trkpt>
      <trkpt lat="45.65608" lon="6.37094">
        <ele>325.53</ele>
        <time>2018-09-09T14:38:26Z</time>
      </trkpt>
      <trkpt lat="45.65599" lon="6.37066">
        <ele>325.53</ele>
        <time>2018-09-09T14:38:27Z</time>
      </trkpt>
      <trkpt lat="45.65591" lon="6.37036">
        <ele>324.83</ele>
        <time>2018-09-09T14:38:28Z</time>
      </trkpt>
      <trkpt lat="45.65584" lon="6.37006">
        <ele>324.62</ele>
        <time>2018-09-09T14:38:29Z</time>
      </trkpt>
      <trkpt lat="45.65577" lon="6.36977">
        <ele>325.26</ele>
        <time>2018-09-09T14:38:30Z</time>
      </trkpt>
      <trkpt lat="45.6557" lon="6.36946">
        <ele>325.45</ele>
        <time>2018-09-09T14:38:31Z</time>
      </trkpt>
      <trkpt lat="45.65563" lon="6.36914">
        <ele>325.51</ele>
        <time>2018-09-09T14:38:32Z</time>
      </trkpt>
      <trkpt lat="45.65557" lon="6.36883">
        <ele>324.82</ele>
        <time>2018-09-09T14:38:33Z</time>
      </trkpt>
      <trkpt lat="45.65551" lon="6.36853">
        <ele>324.62</ele>
        <time>2018-09-09T14:38:34Z</time>
      </trkpt>
      <trkpt lat="45.65546" lon="6.36822">
        <ele>324.56</ele>
        <time>2018-09-09T14:38:35Z</time>
      </trkpt>
      <trkpt lat="45.6554" lon="6.36791">
        <ele>325.24</ele>
        <time>2018-09-09T14:38:36Z</time>
      </trkpt>
      <trkpt lat="45.65531" lon="6.36727">
        <ele>325.44</ele>
        <time>2018-09-09T14:38:38Z</time>
      </trkpt>
      <trkpt lat="45.65527" lon="6.36695">
        <ele>325.5</ele>
        <time>2018-09-09T14:38:39Z</time>
      </trkpt>
      <trkpt lat="45.65522" lon="6.36663">
        <ele>326.22</ele>
        <time>2018-09-09T14:38:40Z</time>
      </trkpt>
      <trkpt lat="45.65518" lon="6.36631">
        <ele>326.44</ele>
        <time>2018-09-09T14:38:41Z</time>
      </trkpt>
      <trkpt lat="45.65513" lon="6.366">
        <ele>325.8</ele>
        <time>2018-09-09T14:38:42Z</time>
      </trkpt>
      <trkpt lat="45.65509" lon="6.36568">
        <ele>325.61</ele>
        <time>2018-09-09T14:38:43Z</time>
      </trkpt>
      <trkpt lat="45.65504" lon="6.36536">
        <ele>325.56</ele>
        <time>2018-09-09T14:38:44Z</time>
      </trkpt>
      <trkpt lat="45.655" lon="6.36505">
        <ele>325.54</ele>
        <time>2018-09-09T14:38:45Z</time>
      </trkpt>
      <trkpt lat="45.65495" lon="6.36473">
        <ele>325.53</ele>
        <time>2018-09-09T14:38:46Z</time>
      </trkpt>
      <trkpt lat="45.65491" lon="6.36442">
        <ele>325.53</ele>
        <time>2018-09-09T14:38:47Z</time>
      </trkpt>
      <trkpt lat="45.65486" lon="6.36411">
        <ele>325.53</ele>
        <time>2018-09-09T14:38:48Z</time>
      </trkpt>
      <trkpt lat="45.65481" lon="6.3638">
        <ele>325.53</ele>
        <time>2018-09-09T14:38:49Z</time>
      </trkpt>
      <trkpt lat="45.65477" lon="6.36349">
        <ele>325.53</ele>
        <time>2018-09-09T14:38:50Z</time>
      </trkpt>
      <trkpt lat="45.65472" lon="6.36319">
        <ele>326.23</ele>
        <time>2018-09-09T14:38:51Z</time>
      </trkpt>
      <trkpt lat="45.65466" lon="6.36289">
        <ele>326.44</ele>
        <time>2018-09-09T14:38:52Z</time>
      </trkpt>
      <trkpt lat="45.6546" lon="6.36258">
        <ele>326.5</ele>
        <time>2018-09-09T14:38:53Z</time>
      </trkpt>
      <trkpt lat="45.65454" lon="6.36228">
        <ele>326.52</ele>
        <time>2018-09-09T14:38:54Z</time>
      </trkpt>
      <trkpt lat="45.65448" lon="6.36197">
        <ele>326.53</ele>
        <time>2018-09-09T14:38:55Z</time>
      </trkpt>
      <trkpt lat="45.65442" lon="6.36168">
        <ele>326.53</ele>
        <time>2018-09-09T14:38:56Z</time>
      </trkpt>
      <trkpt lat="45.65436" lon="6.36137">
        <ele>326.53</ele>
        <time>2018-09-09T14:38:57Z</time>
      </trkpt>
      <trkpt lat="45.6543" lon="6.36107">
        <ele>326.53</ele>
        <time>2018-09-09T14:38:58Z</time>
      </trkpt>
      <trkpt lat="45.65423" lon="6.36076">
        <ele>326.53</ele>
        <time>2018-09-09T14:38:59Z</time>
      </trkpt>
      <trkpt lat="45.65417" lon="6.36045">
        <ele>326.53</ele>
        <time>2018-09-09T14:39:00Z</time>
      </trkpt>
      <trkpt lat="45.6541" lon="6.36014">
        <ele>326.53</ele>
        <time>2018-09-09T14:39:01Z</time>
      </trkpt>
      <trkpt lat="45.65403" lon="6.35982">
        <ele>325.83</ele>
        <time>2018-09-09T14:39:02Z</time>
      </trkpt>
      <trkpt lat="45.65394" lon="6.3595">
        <ele>324.92</ele>
        <time>2018-09-09T14:39:03Z</time>
      </trkpt>
      <trkpt lat="45.65386" lon="6.35918">
        <ele>324.65</ele>
        <time>2018-09-09T14:39:04Z</time>
      </trkpt>
      <trkpt lat="45.65379" lon="6.35885">
        <ele>324.57</ele>
        <time>2018-09-09T14:39:05Z</time>
      </trkpt>
      <trkpt lat="45.6537" lon="6.35852">
        <ele>323.84</ele>
        <time>2018-09-09T14:39:06Z</time>
      </trkpt>
      <trkpt lat="45.65362" lon="6.35819">
        <ele>323.62</ele>
        <time>2018-09-09T14:39:07Z</time>
      </trkpt>
      <trkpt lat="45.65352" lon="6.35784">
        <ele>323.56</ele>
        <time>2018-09-09T14:39:08Z</time>
      </trkpt>
      <trkpt lat="45.65343" lon="6.3575">
        <ele>322.84</ele>
        <time>2018-09-09T14:39:09Z</time>
      </trkpt>
      <trkpt lat="45.65334" lon="6.35716">
        <ele>322.62</ele>
        <time>2018-09-09T14:39:10Z</time>
      </trkpt>
      <trkpt lat="45.65324" lon="6.35682">
        <ele>322.56</ele>
        <time>2018-09-09T14:39:11Z</time>
      </trkpt>
      <trkpt lat="45.65315" lon="6.35648">
        <ele>322.54</ele>
        <time>2018-09-09T14:39:12Z</time>
      </trkpt>
      <trkpt lat="45.65305" lon="6.35612">
        <ele>321.83</ele>
        <time>2018-09-09T14:39:13Z</time>
      </trkpt>
      <trkpt lat="45.65295" lon="6.35577">
        <ele>321.62</ele>
        <time>2018-09-09T14:39:14Z</time>
      </trkpt>
      <trkpt lat="45.65285" lon="6.35542">
        <ele>321.56</ele>
        <time>2018-09-09T14:39:15Z</time>
      </trkpt>
      <trkpt lat="45.65274" lon="6.35506">
        <ele>322.24</ele>
        <time>2018-09-09T14:39:16Z</time>
      </trkpt>
      <trkpt lat="45.65264" lon="6.35471">
        <ele>322.44</ele>
        <time>2018-09-09T14:39:17Z</time>
      </trkpt>
      <trkpt lat="45.65253" lon="6.35436">
        <ele>322.5</ele>
        <time>2018-09-09T14:39:18Z</time>
      </trkpt>
      <trkpt lat="45.65243" lon="6.354">
        <ele>322.52</ele>
        <time>2018-09-09T14:39:19Z</time>
      </trkpt>
      <trkpt lat="45.65233" lon="6.35363">
        <ele>322.53</ele>
        <time>2018-09-09T14:39:20Z</time>
      </trkpt>
      <trkpt lat="45.65223" lon="6.35327">
        <ele>322.53</ele>
        <time>2018-09-09T14:39:21Z</time>
      </trkpt>
      <trkpt lat="45.65213" lon="6.35291">
        <ele>321.83</ele>
        <time>2018-09-09T14:39:22Z</time>
      </trkpt>
      <trkpt lat="45.65203" lon="6.35254">
        <ele>321.62</ele>
        <time>2018-09-09T14:39:23Z</time>
      </trkpt>
      <trkpt lat="45.65193" lon="6.35217">
        <ele>321.56</ele>
        <time>2018-09-09T14:39:24Z</time>
      </trkpt>
      <trkpt lat="45.65183" lon="6.3518">
        <ele>321.54</ele>
        <time>2018-09-09T14:39:25Z</time>
      </trkpt>
      <trkpt lat="45.65173" lon="6.35142">
        <ele>321.53</ele>
        <time>2018-09-09T14:39:26Z</time>
      </trkpt>
      <trkpt lat="45.65162" lon="6.35104">
        <ele>321.53</ele>
        <time>2018-09-09T14:39:27Z</time>
      </trkpt>
      <trkpt lat="45.65152" lon="6.35066">
        <ele>321.53</ele>
        <time>2018-09-09T14:39:28Z</time>
      </trkpt>
      <trkpt lat="45.65142" lon="6.35026">
        <ele>321.53</ele>
        <time>2018-09-09T14:39:29Z</time>
      </trkpt>
      <trkpt lat="45.65131" lon="6.34986">
        <ele>322.23</ele>
        <time>2018-09-09T14:39:30Z</time>
      </trkpt>
      <trkpt lat="45.6512" lon="6.34946">
        <ele>322.44</ele>
        <time>2018-09-09T14:39:31Z</time>
      </trkpt>
      <trkpt lat="45.6511" lon="6.34904">
        <ele>321.8</ele>
        <time>2018-09-09T14:39:32Z</time>
      </trkpt>
      <trkpt lat="45.65099" lon="6.34865">
        <ele>321.61</ele>
        <time>2018-09-09T14:39:33Z</time>
      </trkpt>
      <trkpt lat="45.65089" lon="6.34829">
        <ele>321.56</ele>
        <time>2018-09-09T14:39:34Z</time>
      </trkpt>
      <trkpt lat="45.6508" lon="6.34793">
        <ele>321.54</ele>
        <time>2018-09-09T14:39:35Z</time>
      </trkpt>
      <trkpt lat="45.6507" lon="6.34756">
        <ele>321.53</ele>
        <time>2018-09-09T14:39:36Z</time>
      </trkpt>
      <trkpt lat="45.6506" lon="6.3472">
        <ele>321.53</ele>
        <time>2018-09-09T14:39:37Z</time>
      </trkpt>
      <trkpt lat="45.6505" lon="6.34684">
        <ele>321.53</ele>
        <time>2018-09-09T14:39:38Z</time>
      </trkpt>
      <trkpt lat="45.6504" lon="6.34648">
        <ele>321.53</ele>
        <time>2018-09-09T14:39:39Z</time>
      </trkpt>
      <trkpt lat="45.6503" lon="6.34611">
        <ele>321.53</ele>
        <time>2018-09-09T14:39:40Z</time>
      </trkpt>
      <trkpt lat="45.6502" lon="6.34574">
        <ele>320.83</ele>
        <time>2018-09-09T14:39:41Z</time>
      </trkpt>
      <trkpt lat="45.6501" lon="6.34537">
        <ele>320.62</ele>
        <time>2018-09-09T14:39:42Z</time>
      </trkpt>
      <trkpt lat="45.65" lon="6.34499">
        <ele>320.56</ele>
        <time>2018-09-09T14:39:43Z</time>
      </trkpt>
      <trkpt lat="45.6499" lon="6.34461">
        <ele>320.54</ele>
        <time>2018-09-09T14:39:44Z</time>
      </trkpt>
      <trkpt lat="45.64981" lon="6.34422">
        <ele>320.53</ele>
        <time>2018-09-09T14:39:45Z</time>
      </trkpt>
      <trkpt lat="45.64974" lon="6.34383">
        <ele>320.53</ele>
        <time>2018-09-09T14:39:46Z</time>
      </trkpt>
      <trkpt lat="45.64967" lon="6.34345">
        <ele>320.53</ele>
        <time>2018-09-09T14:39:47Z</time>
      </trkpt>
      <trkpt lat="45.64962" lon="6.34305">
        <ele>319.83</ele>
        <time>2018-09-09T14:39:48Z</time>
      </trkpt>
      <trkpt lat="45.64957" lon="6.34265">
        <ele>319.62</ele>
        <time>2018-09-09T14:39:49Z</time>
      </trkpt>
      <trkpt lat="45.64954" lon="6.34226">
        <ele>320.26</ele>
        <time>2018-09-09T14:39:50Z</time>
      </trkpt>
      <trkpt lat="45.64951" lon="6.34186">
        <ele>320.45</ele>
        <time>2018-09-09T14:39:51Z</time>
      </trkpt>
      <trkpt lat="45.6495" lon="6.34147">
        <ele>320.51</ele>
        <time>2018-09-09T14:39:52Z</time>
      </trkpt>
      <trkpt lat="45.64949" lon="6.34107">
        <ele>321.22</ele>
        <time>2018-09-09T14:39:53Z</time>
      </trkpt>
      <trkpt lat="45.64948" lon="6.34068">
        <ele>320.74</ele>
        <time>2018-09-09T14:39:54Z</time>
      </trkpt>
      <trkpt lat="45.64947" lon="6.34028">
        <ele>320.59</ele>
        <time>2018-09-09T14:39:55Z</time>
      </trkpt>
      <trkpt lat="45.64945" lon="6.33988">
        <ele>320.55</ele>
        <time>2018-09-09T14:39:56Z</time>
      </trkpt>
      <trkpt lat="45.64942" lon="6.33949">
        <ele>320.54</ele>
        <time>2018-09-09T14:39:57Z</time>
      </trkpt>
      <trkpt lat="45.64939" lon="6.3391">
        <ele>321.23</ele>
        <time>2018-09-09T14:39:58Z</time>
      </trkpt>
      <trkpt lat="45.64934" lon="6.33871">
        <ele>321.44</ele>
        <time>2018-09-09T14:39:59Z</time>
      </trkpt>
      <trkpt lat="45.64927" lon="6.33833">
        <ele>321.5</ele>
        <time>2018-09-09T14:40:00Z</time>
      </trkpt>
      <trkpt lat="45.64918" lon="6.33796">
        <ele>322.22</ele>
        <time>2018-09-09T14:40:01Z</time>
      </trkpt>
      <trkpt lat="45.64908" lon="6.3376">
        <ele>322.44</ele>
        <time>2018-09-09T14:40:02Z</time>
      </trkpt>
      <trkpt lat="45.64896" lon="6.33725">
        <ele>322.5</ele>
        <time>2018-09-09T14:40:03Z</time>
      </trkpt>
      <trkpt lat="45.64883" lon="6.33691">
        <ele>322.52</ele>
        <time>2018-09-09T14:40:04Z</time>
      </trkpt>
      <trkpt lat="45.64868" lon="6.33659">
        <ele>323.23</ele>
        <time>2018-09-09T14:40:05Z</time>
      </trkpt>
      <trkpt lat="45.64851" lon="6.33628">
        <ele>324.14</ele>
        <time>2018-09-09T14:40:06Z</time>
      </trkpt>
      <trkpt lat="45.64832" lon="6.33599">
        <ele>324.41</ele>
        <time>2018-09-09T14:40:07Z</time>
      </trkpt>
      <trkpt lat="45.64812" lon="6.33571">
        <ele>324.5</ele>
        <time>2018-09-09T14:40:08Z</time>
      </trkpt>
      <trkpt lat="45.6479" lon="6.33545">
        <ele>324.52</ele>
        <time>2018-09-09T14:40:09Z</time>
      </trkpt>
      <trkpt lat="45.64767" lon="6.33521">
        <ele>325.23</ele>
        <time>2018-09-09T14:40:10Z</time>
      </trkpt>
      <trkpt lat="45.64743" lon="6.33501">
        <ele>325.44</ele>
        <time>2018-09-09T14:40:11Z</time>
      </trkpt>
      <trkpt lat="45.64717" lon="6.33483">
        <ele>325.5</ele>
        <time>2018-09-09T14:40:12Z</time>
      </trkpt>
      <trkpt lat="45.6469" lon="6.33467">
        <ele>325.52</ele>
        <time>2018-09-09T14:40:13Z</time>
      </trkpt>
      <trkpt lat="45.64662" lon="6.33455">
        <ele>325.53</ele>
        <time>2018-09-09T14:40:14Z</time>
      </trkpt>
      <trkpt lat="45.64634" lon="6.33444">
        <ele>325.53</ele>
        <time>2018-09-09T14:40:15Z</time>
      </trkpt>
      <trkpt lat="45.64605" lon="6.33436">
        <ele>325.53</ele>
        <time>2018-09-09T14:40:16Z</time>
      </trkpt>
      <trkpt lat="45.64577" lon="6.33429">
        <ele>325.53</ele>
        <time>2018-09-09T14:40:17Z</time>
      </trkpt>
      <trkpt lat="45.64548" lon="6.33424">
        <ele>324.83</ele>
        <time>2018-09-09T14:40:18Z</time>
      </trkpt>
      <trkpt lat="45.64519" lon="6.33419">
        <ele>324.62</ele>
        <time>2018-09-09T14:40:19Z</time>
      </trkpt>
      <trkpt lat="45.6449" lon="6.33414">
        <ele>323.86</ele>
        <time>2018-09-09T14:40:20Z</time>
      </trkpt>
      <trkpt lat="45.64461" lon="6.33408">
        <ele>323.63</ele>
        <time>2018-09-09T14:40:21Z</time>
      </trkpt>
      <trkpt lat="45.64432" lon="6.33403">
        <ele>323.56</ele>
        <time>2018-09-09T14:40:22Z</time>
      </trkpt>
      <trkpt lat="45.64403" lon="6.33398">
        <ele>323.54</ele>
        <time>2018-09-09T14:40:23Z</time>
      </trkpt>
      <trkpt lat="45.64374" lon="6.33394">
        <ele>322.83</ele>
        <time>2018-09-09T14:40:24Z</time>
      </trkpt>
      <trkpt lat="45.64345" lon="6.33389">
        <ele>322.62</ele>
        <time>2018-09-09T14:40:25Z</time>
      </trkpt>
      <trkpt lat="45.64315" lon="6.33384">
        <ele>321.86</ele>
        <time>2018-09-09T14:40:26Z</time>
      </trkpt>
      <trkpt lat="45.64285" lon="6.33379">
        <ele>322.33</ele>
        <time>2018-09-09T14:40:27Z</time>
      </trkpt>
      <trkpt lat="45.64254" lon="6.33374">
        <ele>321.77</ele>
        <time>2018-09-09T14:40:28Z</time>
      </trkpt>
      <trkpt lat="45.64222" lon="6.33369">
        <ele>321.6</ele>
        <time>2018-09-09T14:40:29Z</time>
      </trkpt>
      <trkpt lat="45.64189" lon="6.33364">
        <ele>321.55</ele>
        <time>2018-09-09T14:40:30Z</time>
      </trkpt>
      <trkpt lat="45.64156" lon="6.33359">
        <ele>320.84</ele>
        <time>2018-09-09T14:40:31Z</time>
      </trkpt>
      <trkpt lat="45.64122" lon="6.33353">
        <ele>320.62</ele>
        <time>2018-09-09T14:40:32Z</time>
      </trkpt>
      <trkpt lat="45.64088" lon="6.33347">
        <ele>319.86</ele>
        <time>2018-09-09T14:40:33Z</time>
      </trkpt>
      <trkpt lat="45.64054" lon="6.33341">
        <ele>318.93</ele>
        <time>2018-09-09T14:40:34Z</time>
      </trkpt>
      <trkpt lat="45.64019" lon="6.33335">
        <ele>317.95</ele>
        <time>2018-09-09T14:40:35Z</time>
      </trkpt>
      <trkpt lat="45.63985" lon="6.33329">
        <ele>316.96</ele>
        <time>2018-09-09T14:40:36Z</time>
      </trkpt>
      <trkpt lat="45.63951" lon="6.33324">
        <ele>316.66</ele>
        <time>2018-09-09T14:40:37Z</time>
      </trkpt>
      <trkpt lat="45.63917" lon="6.33319">
        <ele>316.57</ele>
        <time>2018-09-09T14:40:38Z</time>
      </trkpt>
      <trkpt lat="45.63883" lon="6.33313">
        <ele>315.84</ele>
        <time>2018-09-09T14:40:39Z</time>
      </trkpt>
      <trkpt lat="45.63849" lon="6.33307">
        <ele>315.62</ele>
        <time>2018-09-09T14:40:40Z</time>
      </trkpt>
      <trkpt lat="45.63815" lon="6.33301">
        <ele>314.86</ele>
        <time>2018-09-09T14:40:41Z</time>
      </trkpt>
      <trkpt lat="45.63782" lon="6.33295">
        <ele>314.63</ele>
        <time>2018-09-09T14:40:42Z</time>
      </trkpt>
      <trkpt lat="45.63748" lon="6.33289">
        <ele>314.56</ele>
        <time>2018-09-09T14:40:43Z</time>
      </trkpt>
      <trkpt lat="45.63715" lon="6.33283">
        <ele>314.54</ele>
        <time>2018-09-09T14:40:44Z</time>
      </trkpt>
      <trkpt lat="45.63681" lon="6.33277">
        <ele>313.83</ele>
        <time>2018-09-09T14:40:45Z</time>
      </trkpt>
      <trkpt lat="45.63648" lon="6.33269">
        <ele>313.62</ele>
        <time>2018-09-09T14:40:46Z</time>
      </trkpt>
      <trkpt lat="45.63615" lon="6.33262">
        <ele>313.56</ele>
        <time>2018-09-09T14:40:47Z</time>
      </trkpt>
      <trkpt lat="45.63581" lon="6.33253">
        <ele>313.54</ele>
        <time>2018-09-09T14:40:48Z</time>
      </trkpt>
      <trkpt lat="45.63549" lon="6.33243">
        <ele>313.53</ele>
        <time>2018-09-09T14:40:49Z</time>
      </trkpt>
      <trkpt lat="45.63516" lon="6.33232">
        <ele>313.53</ele>
        <time>2018-09-09T14:40:50Z</time>
      </trkpt>
      <trkpt lat="45.63484" lon="6.33221">
        <ele>313.53</ele>
        <time>2018-09-09T14:40:51Z</time>
      </trkpt>
      <trkpt lat="45.63452" lon="6.33209">
        <ele>313.53</ele>
        <time>2018-09-09T14:40:52Z</time>
      </trkpt>
      <trkpt lat="45.6342" lon="6.33196">
        <ele>313.53</ele>
        <time>2018-09-09T14:40:53Z</time>
      </trkpt>
      <trkpt lat="45.63388" lon="6.33182">
        <ele>313.53</ele>
        <time>2018-09-09T14:40:54Z</time>
      </trkpt>
      <trkpt lat="45.63356" lon="6.33168">
        <ele>313.53</ele>
        <time>2018-09-09T14:40:55Z</time>
      </trkpt>
      <trkpt lat="45.63325" lon="6.33152">
        <ele>313.53</ele>
        <time>2018-09-09T14:40:56Z</time>
      </trkpt>
      <trkpt lat="45.63294" lon="6.33135">
        <ele>313.53</ele>
        <time>2018-09-09T14:40:57Z</time>
      </trkpt>
      <trkpt lat="45.63263" lon="6.33118">
        <ele>313.53</ele>
        <time>2018-09-09T14:40:58Z</time>
      </trkpt>
      <trkpt lat="45.63232" lon="6.33099">
        <ele>313.53</ele>
        <time>2018-09-09T14:40:59Z</time>
      </trkpt>
      <trkpt lat="45.63202" lon="6.33079">
        <ele>312.83</ele>
        <time>2018-09-09T14:41:00Z</time>
      </trkpt>
      <trkpt lat="45.63172" lon="6.33058">
        <ele>312.62</ele>
        <time>2018-09-09T14:41:01Z</time>
      </trkpt>
      <trkpt lat="45.63141" lon="6.33035">
        <ele>312.56</ele>
        <time>2018-09-09T14:41:02Z</time>
      </trkpt>
      <trkpt lat="45.63112" lon="6.33012">
        <ele>312.54</ele>
        <time>2018-09-09T14:41:03Z</time>
      </trkpt>
      <trkpt lat="45.63083" lon="6.32987">
        <ele>312.53</ele>
        <time>2018-09-09T14:41:04Z</time>
      </trkpt>
      <trkpt lat="45.63054" lon="6.32962">
        <ele>312.53</ele>
        <time>2018-09-09T14:41:05Z</time>
      </trkpt>
      <trkpt lat="45.63026" lon="6.32936">
        <ele>312.53</ele>
        <time>2018-09-09T14:41:06Z</time>
      </trkpt>
      <trkpt lat="45.62998" lon="6.3291">
        <ele>312.53</ele>
        <time>2018-09-09T14:41:07Z</time>
      </trkpt>
      <trkpt lat="45.6297" lon="6.32884">
        <ele>312.53</ele>
        <time>2018-09-09T14:41:08Z</time>
      </trkpt>
      <trkpt lat="45.62943" lon="6.32857">
        <ele>312.53</ele>
        <time>2018-09-09T14:41:09Z</time>
      </trkpt>
      <trkpt lat="45.62917" lon="6.32829">
        <ele>312.53</ele>
        <time>2018-09-09T14:41:10Z</time>
      </trkpt>
      <trkpt lat="45.62891" lon="6.328">
        <ele>312.53</ele>
        <time>2018-09-09T14:41:11Z</time>
      </trkpt>
      <trkpt lat="45.62866" lon="6.32772">
        <ele>311.83</ele>
        <time>2018-09-09T14:41:12Z</time>
      </trkpt>
      <trkpt lat="45.62842" lon="6.32743">
        <ele>311.62</ele>
        <time>2018-09-09T14:41:13Z</time>
      </trkpt>
      <trkpt lat="45.62818" lon="6.32714">
        <ele>311.56</ele>
        <time>2018-09-09T14:41:14Z</time>
      </trkpt>
      <trkpt lat="45.62794" lon="6.32683">
        <ele>311.54</ele>
        <time>2018-09-09T14:41:15Z</time>
      </trkpt>
      <trkpt lat="45.62771" lon="6.32653">
        <ele>311.53</ele>
        <time>2018-09-09T14:41:16Z</time>
      </trkpt>
      <trkpt lat="45.62749" lon="6.32622">
        <ele>311.53</ele>
        <time>2018-09-09T14:41:17Z</time>
      </trkpt>
      <trkpt lat="45.62726" lon="6.32591">
        <ele>312.23</ele>
        <time>2018-09-09T14:41:18Z</time>
      </trkpt>
      <trkpt lat="45.62703" lon="6.3256">
        <ele>312.44</ele>
        <time>2018-09-09T14:41:19Z</time>
      </trkpt>
      <trkpt lat="45.62681" lon="6.32528">
        <ele>312.5</ele>
        <time>2018-09-09T14:41:20Z</time>
      </trkpt>
      <trkpt lat="45.62659" lon="6.32496">
        <ele>312.52</ele>
        <time>2018-09-09T14:41:21Z</time>
      </trkpt>
      <trkpt lat="45.62637" lon="6.32463">
        <ele>313.23</ele>
        <time>2018-09-09T14:41:22Z</time>
      </trkpt>
      <trkpt lat="45.62616" lon="6.3243">
        <ele>313.44</ele>
        <time>2018-09-09T14:41:23Z</time>
      </trkpt>
      <trkpt lat="45.62594" lon="6.32397">
        <ele>314.2</ele>
        <time>2018-09-09T14:41:24Z</time>
      </trkpt>
      <trkpt lat="45.62573" lon="6.32363">
        <ele>314.43</ele>
        <time>2018-09-09T14:41:25Z</time>
      </trkpt>
      <trkpt lat="45.62553" lon="6.32329">
        <ele>314.5</ele>
        <time>2018-09-09T14:41:26Z</time>
      </trkpt>
      <trkpt lat="45.62532" lon="6.32295">
        <ele>314.52</ele>
        <time>2018-09-09T14:41:27Z</time>
      </trkpt>
      <trkpt lat="45.62511" lon="6.3226">
        <ele>315.23</ele>
        <time>2018-09-09T14:41:28Z</time>
      </trkpt>
      <trkpt lat="45.62491" lon="6.32225">
        <ele>315.44</ele>
        <time>2018-09-09T14:41:29Z</time>
      </trkpt>
      <trkpt lat="45.6247" lon="6.32189">
        <ele>315.5</ele>
        <time>2018-09-09T14:41:30Z</time>
      </trkpt>
      <trkpt lat="45.62451" lon="6.32153">
        <ele>315.52</ele>
        <time>2018-09-09T14:41:31Z</time>
      </trkpt>
      <trkpt lat="45.62432" lon="6.32116">
        <ele>315.53</ele>
        <time>2018-09-09T14:41:32Z</time>
      </trkpt>
      <trkpt lat="45.62413" lon="6.3208">
        <ele>315.53</ele>
        <time>2018-09-09T14:41:33Z</time>
      </trkpt>
      <trkpt lat="45.62394" lon="6.32042">
        <ele>315.53</ele>
        <time>2018-09-09T14:41:34Z</time>
      </trkpt>
      <trkpt lat="45.62376" lon="6.32005">
        <ele>314.83</ele>
        <time>2018-09-09T14:41:35Z</time>
      </trkpt>
      <trkpt lat="45.62359" lon="6.31967">
        <ele>314.62</ele>
        <time>2018-09-09T14:41:36Z</time>
      </trkpt>
      <trkpt lat="45.62343" lon="6.31931">
        <ele>313.86</ele>
        <time>2018-09-09T14:41:37Z</time>
      </trkpt>
      <trkpt lat="45.62327" lon="6.31895">
        <ele>312.93</ele>
        <time>2018-09-09T14:41:38Z</time>
      </trkpt>
      <trkpt lat="45.62312" lon="6.31859">
        <ele>312.65</ele>
        <time>2018-09-09T14:41:39Z</time>
      </trkpt>
      <trkpt lat="45.62296" lon="6.31824">
        <ele>312.57</ele>
        <time>2018-09-09T14:41:40Z</time>
      </trkpt>
      <trkpt lat="45.6228" lon="6.31789">
        <ele>311.84</ele>
        <time>2018-09-09T14:41:41Z</time>
      </trkpt>
      <trkpt lat="45.62265" lon="6.31755">
        <ele>311.62</ele>
        <time>2018-09-09T14:41:42Z</time>
      </trkpt>
      <trkpt lat="45.6225" lon="6.31721">
        <ele>310.86</ele>
        <time>2018-09-09T14:41:43Z</time>
      </trkpt>
      <trkpt lat="45.62234" lon="6.31686">
        <ele>310.63</ele>
        <time>2018-09-09T14:41:44Z</time>
      </trkpt>
      <trkpt lat="45.62219" lon="6.31652">
        <ele>310.56</ele>
        <time>2018-09-09T14:41:45Z</time>
      </trkpt>
      <trkpt lat="45.62205" lon="6.31618">
        <ele>309.84</ele>
        <time>2018-09-09T14:41:46Z</time>
      </trkpt>
      <trkpt lat="45.62191" lon="6.31586">
        <ele>309.62</ele>
        <time>2018-09-09T14:41:47Z</time>
      </trkpt>
      <trkpt lat="45.62177" lon="6.31556">
        <ele>309.56</ele>
        <time>2018-09-09T14:41:48Z</time>
      </trkpt>
      <trkpt lat="45.62164" lon="6.31526">
        <ele>309.54</ele>
        <time>2018-09-09T14:41:49Z</time>
      </trkpt>
      <trkpt lat="45.62151" lon="6.31498">
        <ele>309.53</ele>
        <time>2018-09-09T14:41:50Z</time>
      </trkpt>
      <trkpt lat="45.62139" lon="6.31471">
        <ele>309.53</ele>
        <time>2018-09-09T14:41:51Z</time>
      </trkpt>
      <trkpt lat="45.62126" lon="6.31443">
        <ele>308.83</ele>
        <time>2018-09-09T14:41:52Z</time>
      </trkpt>
      <trkpt lat="45.62113" lon="6.31415">
        <ele>308.62</ele>
        <time>2018-09-09T14:41:53Z</time>
      </trkpt>
      <trkpt lat="45.621" lon="6.31388">
        <ele>308.56</ele>
        <time>2018-09-09T14:41:54Z</time>
      </trkpt>
      <trkpt lat="45.62088" lon="6.31363">
        <ele>308.54</ele>
        <time>2018-09-09T14:41:55Z</time>
      </trkpt>
      <trkpt lat="45.62076" lon="6.31338">
        <ele>308.53</ele>
        <time>2018-09-09T14:41:56Z</time>
      </trkpt>
      <trkpt lat="45.62065" lon="6.31315">
        <ele>308.53</ele>
        <time>2018-09-09T14:41:57Z</time>
      </trkpt>
      <trkpt lat="45.62055" lon="6.31293">
        <ele>309.23</ele>
        <time>2018-09-09T14:41:58Z</time>
      </trkpt>
      <trkpt lat="45.62037" lon="6.31252">
        <ele>309.5</ele>
        <time>2018-09-09T14:42:00Z</time>
      </trkpt>
      <trkpt lat="45.62022" lon="6.3122">
        <ele>308.62</ele>
        <time>2018-09-09T14:42:02Z</time>
      </trkpt>
      <trkpt lat="45.62012" lon="6.31197">
        <ele>308.54</ele>
        <time>2018-09-09T14:42:04Z</time>
      </trkpt>
      <trkpt lat="45.61997" lon="6.31169">
        <ele>305.71</ele>
        <time>2018-09-09T14:42:21Z</time>
      </trkpt>
      <trkpt lat="45.61981" lon="6.31124">
        <ele>306.95</ele>
        <time>2018-09-09T14:42:23Z</time>
      </trkpt>
      <trkpt lat="45.61971" lon="6.31099">
        <ele>305.96</ele>
        <time>2018-09-09T14:42:24Z</time>
      </trkpt>
      <trkpt lat="45.61959" lon="6.31071">
        <ele>305.66</ele>
        <time>2018-09-09T14:42:25Z</time>
      </trkpt>
      <trkpt lat="45.61944" lon="6.31041">
        <ele>306.27</ele>
        <time>2018-09-09T14:42:26Z</time>
      </trkpt>
      <trkpt lat="45.61928" lon="6.31007">
        <ele>305.75</ele>
        <time>2018-09-09T14:42:27Z</time>
      </trkpt>
      <trkpt lat="45.61912" lon="6.30966">
        <ele>305.6</ele>
        <time>2018-09-09T14:42:28Z</time>
      </trkpt>
      <trkpt lat="45.61893" lon="6.30924">
        <ele>305.55</ele>
        <time>2018-09-09T14:42:29Z</time>
      </trkpt>
      <trkpt lat="45.61872" lon="6.30879">
        <ele>305.54</ele>
        <time>2018-09-09T14:42:30Z</time>
      </trkpt>
      <trkpt lat="45.61851" lon="6.30831">
        <ele>305.53</ele>
        <time>2018-09-09T14:42:31Z</time>
      </trkpt>
      <trkpt lat="45.61829" lon="6.30783">
        <ele>305.53</ele>
        <time>2018-09-09T14:42:32Z</time>
      </trkpt>
      <trkpt lat="45.61808" lon="6.30737">
        <ele>305.53</ele>
        <time>2018-09-09T14:42:33Z</time>
      </trkpt>
      <trkpt lat="45.61787" lon="6.30692">
        <ele>305.53</ele>
        <time>2018-09-09T14:42:34Z</time>
      </trkpt>
      <trkpt lat="45.61766" lon="6.30646">
        <ele>305.53</ele>
        <time>2018-09-09T14:42:35Z</time>
      </trkpt>
      <trkpt lat="45.61745" lon="6.30601">
        <ele>305.53</ele>
        <time>2018-09-09T14:42:36Z</time>
      </trkpt>
      <trkpt lat="45.61724" lon="6.30555">
        <ele>305.53</ele>
        <time>2018-09-09T14:42:37Z</time>
      </trkpt>
      <trkpt lat="45.61703" lon="6.30508">
        <ele>305.53</ele>
        <time>2018-09-09T14:42:38Z</time>
      </trkpt>
      <trkpt lat="45.61682" lon="6.30461">
        <ele>305.53</ele>
        <time>2018-09-09T14:42:39Z</time>
      </trkpt>
      <trkpt lat="45.6166" lon="6.30415">
        <ele>305.53</ele>
        <time>2018-09-09T14:42:40Z</time>
      </trkpt>
      <trkpt lat="45.61639" lon="6.3037">
        <ele>305.53</ele>
        <time>2018-09-09T14:42:41Z</time>
      </trkpt>
      <trkpt lat="45.61617" lon="6.30327">
        <ele>305.53</ele>
        <time>2018-09-09T14:42:42Z</time>
      </trkpt>
      <trkpt lat="45.61596" lon="6.30285">
        <ele>304.83</ele>
        <time>2018-09-09T14:42:43Z</time>
      </trkpt>
      <trkpt lat="45.61576" lon="6.30244">
        <ele>304.62</ele>
        <time>2018-09-09T14:42:44Z</time>
      </trkpt>
      <trkpt lat="45.61556" lon="6.30205">
        <ele>304.56</ele>
        <time>2018-09-09T14:42:45Z</time>
      </trkpt>
      <trkpt lat="45.61536" lon="6.30167">
        <ele>304.54</ele>
        <time>2018-09-09T14:42:46Z</time>
      </trkpt>
      <trkpt lat="45.61517" lon="6.30128">
        <ele>304.53</ele>
        <time>2018-09-09T14:42:47Z</time>
      </trkpt>
      <trkpt lat="45.61497" lon="6.30089">
        <ele>304.53</ele>
        <time>2018-09-09T14:42:48Z</time>
      </trkpt>
      <trkpt lat="45.61478" lon="6.3005">
        <ele>304.53</ele>
        <time>2018-09-09T14:42:49Z</time>
      </trkpt>
      <trkpt lat="45.61458" lon="6.30012">
        <ele>305.23</ele>
        <time>2018-09-09T14:42:50Z</time>
      </trkpt>
      <trkpt lat="45.61439" lon="6.29973">
        <ele>305.44</ele>
        <time>2018-09-09T14:42:51Z</time>
      </trkpt>
      <trkpt lat="45.61419" lon="6.29935">
        <ele>305.5</ele>
        <time>2018-09-09T14:42:52Z</time>
      </trkpt>
      <trkpt lat="45.61399" lon="6.29895">
        <ele>305.52</ele>
        <time>2018-09-09T14:42:53Z</time>
      </trkpt>
      <trkpt lat="45.61379" lon="6.29856">
        <ele>305.53</ele>
        <time>2018-09-09T14:42:54Z</time>
      </trkpt>
      <trkpt lat="45.61359" lon="6.29816">
        <ele>305.53</ele>
        <time>2018-09-09T14:42:55Z</time>
      </trkpt>
      <trkpt lat="45.61339" lon="6.29776">
        <ele>305.53</ele>
        <time>2018-09-09T14:42:56Z</time>
      </trkpt>
      <trkpt lat="45.61318" lon="6.29736">
        <ele>305.53</ele>
        <time>2018-09-09T14:42:57Z</time>
      </trkpt>
      <trkpt lat="45.61298" lon="6.29695">
        <ele>305.53</ele>
        <time>2018-09-09T14:42:58Z</time>
      </trkpt>
      <trkpt lat="45.61278" lon="6.29654">
        <ele>305.53</ele>
        <time>2018-09-09T14:42:59Z</time>
      </trkpt>
      <trkpt lat="45.61258" lon="6.29614">
        <ele>305.53</ele>
        <time>2018-09-09T14:43:00Z</time>
      </trkpt>
      <trkpt lat="45.61238" lon="6.29574">
        <ele>305.53</ele>
        <time>2018-09-09T14:43:01Z</time>
      </trkpt>
      <trkpt lat="45.61219" lon="6.29534">
        <ele>305.53</ele>
        <time>2018-09-09T14:43:02Z</time>
      </trkpt>
      <trkpt lat="45.61199" lon="6.29493">
        <ele>305.53</ele>
        <time>2018-09-09T14:43:03Z</time>
      </trkpt>
      <trkpt lat="45.61179" lon="6.29453">
        <ele>305.53</ele>
        <time>2018-09-09T14:43:04Z</time>
      </trkpt>
      <trkpt lat="45.61159" lon="6.29413">
        <ele>305.53</ele>
        <time>2018-09-09T14:43:05Z</time>
      </trkpt>
      <trkpt lat="45.61139" lon="6.29373">
        <ele>304.83</ele>
        <time>2018-09-09T14:43:06Z</time>
      </trkpt>
      <trkpt lat="45.61118" lon="6.29333">
        <ele>305.32</ele>
        <time>2018-09-09T14:43:07Z</time>
      </trkpt>
      <trkpt lat="45.61098" lon="6.29294">
        <ele>304.77</ele>
        <time>2018-09-09T14:43:08Z</time>
      </trkpt>
      <trkpt lat="45.61079" lon="6.29254">
        <ele>304.6</ele>
        <time>2018-09-09T14:43:09Z</time>
      </trkpt>
      <trkpt lat="45.61059" lon="6.29214">
        <ele>304.55</ele>
        <time>2018-09-09T14:43:10Z</time>
      </trkpt>
      <trkpt lat="45.61039" lon="6.29174">
        <ele>304.54</ele>
        <time>2018-09-09T14:43:11Z</time>
      </trkpt>
      <trkpt lat="45.61019" lon="6.29134">
        <ele>304.53</ele>
        <time>2018-09-09T14:43:12Z</time>
      </trkpt>
      <trkpt lat="45.60999" lon="6.29094">
        <ele>304.53</ele>
        <time>2018-09-09T14:43:13Z</time>
      </trkpt>
      <trkpt lat="45.60979" lon="6.29055">
        <ele>304.53</ele>
        <time>2018-09-09T14:43:14Z</time>
      </trkpt>
      <trkpt lat="45.60959" lon="6.29015">
        <ele>304.53</ele>
        <time>2018-09-09T14:43:15Z</time>
      </trkpt>
      <trkpt lat="45.60939" lon="6.28975">
        <ele>304.53</ele>
        <time>2018-09-09T14:43:16Z</time>
      </trkpt>
      <trkpt lat="45.60918" lon="6.28936">
        <ele>303.83</ele>
        <time>2018-09-09T14:43:17Z</time>
      </trkpt>
      <trkpt lat="45.60898" lon="6.28897">
        <ele>303.62</ele>
        <time>2018-09-09T14:43:18Z</time>
      </trkpt>
      <trkpt lat="45.60877" lon="6.28858">
        <ele>303.56</ele>
        <time>2018-09-09T14:43:19Z</time>
      </trkpt>
      <trkpt lat="45.60857" lon="6.28821">
        <ele>303.54</ele>
        <time>2018-09-09T14:43:20Z</time>
      </trkpt>
      <trkpt lat="45.60835" lon="6.28783">
        <ele>303.53</ele>
        <time>2018-09-09T14:43:21Z</time>
      </trkpt>
      <trkpt lat="45.60813" lon="6.28745">
        <ele>302.83</ele>
        <time>2018-09-09T14:43:22Z</time>
      </trkpt>
      <trkpt lat="45.6079" lon="6.28709">
        <ele>302.62</ele>
        <time>2018-09-09T14:43:23Z</time>
      </trkpt>
      <trkpt lat="45.60767" lon="6.28673">
        <ele>302.56</ele>
        <time>2018-09-09T14:43:24Z</time>
      </trkpt>
      <trkpt lat="45.60744" lon="6.28638">
        <ele>302.54</ele>
        <time>2018-09-09T14:43:25Z</time>
      </trkpt>
      <trkpt lat="45.6072" lon="6.28604">
        <ele>302.53</ele>
        <time>2018-09-09T14:43:26Z</time>
      </trkpt>
      <trkpt lat="45.60696" lon="6.2857">
        <ele>302.53</ele>
        <time>2018-09-09T14:43:27Z</time>
      </trkpt>
      <trkpt lat="45.60671" lon="6.28537">
        <ele>302.53</ele>
        <time>2018-09-09T14:43:28Z</time>
      </trkpt>
      <trkpt lat="45.60646" lon="6.28503">
        <ele>302.53</ele>
        <time>2018-09-09T14:43:29Z</time>
      </trkpt>
      <trkpt lat="45.6062" lon="6.28471">
        <ele>302.53</ele>
        <time>2018-09-09T14:43:30Z</time>
      </trkpt>
      <trkpt lat="45.60594" lon="6.2844">
        <ele>302.53</ele>
        <time>2018-09-09T14:43:31Z</time>
      </trkpt>
      <trkpt lat="45.60567" lon="6.2841">
        <ele>301.83</ele>
        <time>2018-09-09T14:43:32Z</time>
      </trkpt>
      <trkpt lat="45.60541" lon="6.2838">
        <ele>301.62</ele>
        <time>2018-09-09T14:43:33Z</time>
      </trkpt>
      <trkpt lat="45.60513" lon="6.28351">
        <ele>301.56</ele>
        <time>2018-09-09T14:43:34Z</time>
      </trkpt>
      <trkpt lat="45.60486" lon="6.28323">
        <ele>301.54</ele>
        <time>2018-09-09T14:43:35Z</time>
      </trkpt>
      <trkpt lat="45.60458" lon="6.28296">
        <ele>301.53</ele>
        <time>2018-09-09T14:43:36Z</time>
      </trkpt>
      <trkpt lat="45.60429" lon="6.28269">
        <ele>301.53</ele>
        <time>2018-09-09T14:43:37Z</time>
      </trkpt>
      <trkpt lat="45.604" lon="6.28244">
        <ele>301.53</ele>
        <time>2018-09-09T14:43:38Z</time>
      </trkpt>
      <trkpt lat="45.60371" lon="6.28219">
        <ele>301.53</ele>
        <time>2018-09-09T14:43:39Z</time>
      </trkpt>
      <trkpt lat="45.60342" lon="6.28195">
        <ele>301.53</ele>
        <time>2018-09-09T14:43:40Z</time>
      </trkpt>
      <trkpt lat="45.60312" lon="6.28171">
        <ele>300.83</ele>
        <time>2018-09-09T14:43:41Z</time>
      </trkpt>
      <trkpt lat="45.60282" lon="6.28149">
        <ele>300.62</ele>
        <time>2018-09-09T14:43:42Z</time>
      </trkpt>
      <trkpt lat="45.60252" lon="6.28127">
        <ele>300.56</ele>
        <time>2018-09-09T14:43:43Z</time>
      </trkpt>
      <trkpt lat="45.60221" lon="6.28105">
        <ele>300.54</ele>
        <time>2018-09-09T14:43:44Z</time>
      </trkpt>
      <trkpt lat="45.6019" lon="6.28084">
        <ele>300.53</ele>
        <time>2018-09-09T14:43:45Z</time>
      </trkpt>
      <trkpt lat="45.6016" lon="6.28064">
        <ele>300.53</ele>
        <time>2018-09-09T14:43:46Z</time>
      </trkpt>
      <trkpt lat="45.60128" lon="6.28046">
        <ele>300.53</ele>
        <time>2018-09-09T14:43:47Z</time>
      </trkpt>
      <trkpt lat="45.60097" lon="6.28028">
        <ele>300.53</ele>
        <time>2018-09-09T14:43:48Z</time>
      </trkpt>
      <trkpt lat="45.60066" lon="6.28011">
        <ele>300.53</ele>
        <time>2018-09-09T14:43:49Z</time>
      </trkpt>
      <trkpt lat="45.60034" lon="6.27995">
        <ele>300.53</ele>
        <time>2018-09-09T14:43:50Z</time>
      </trkpt>
      <trkpt lat="45.60002" lon="6.2798">
        <ele>300.53</ele>
        <time>2018-09-09T14:43:51Z</time>
      </trkpt>
      <trkpt lat="45.5997" lon="6.27966">
        <ele>300.53</ele>
        <time>2018-09-09T14:43:52Z</time>
      </trkpt>
      <trkpt lat="45.59938" lon="6.27951">
        <ele>300.53</ele>
        <time>2018-09-09T14:43:53Z</time>
      </trkpt>
      <trkpt lat="45.59906" lon="6.27937">
        <ele>300.53</ele>
        <time>2018-09-09T14:43:54Z</time>
      </trkpt>
      <trkpt lat="45.59874" lon="6.27923">
        <ele>299.83</ele>
        <time>2018-09-09T14:43:55Z</time>
      </trkpt>
      <trkpt lat="45.59843" lon="6.2791">
        <ele>300.32</ele>
        <time>2018-09-09T14:43:56Z</time>
      </trkpt>
      <trkpt lat="45.59812" lon="6.27897">
        <ele>300.47</ele>
        <time>2018-09-09T14:43:57Z</time>
      </trkpt>
      <trkpt lat="45.5978" lon="6.27883">
        <ele>300.51</ele>
        <time>2018-09-09T14:43:58Z</time>
      </trkpt>
      <trkpt lat="45.59748" lon="6.27869">
        <ele>300.53</ele>
        <time>2018-09-09T14:43:59Z</time>
      </trkpt>
      <trkpt lat="45.59717" lon="6.27855">
        <ele>300.53</ele>
        <time>2018-09-09T14:44:00Z</time>
      </trkpt>
      <trkpt lat="45.59686" lon="6.27841">
        <ele>300.53</ele>
        <time>2018-09-09T14:44:01Z</time>
      </trkpt>
      <trkpt lat="45.59655" lon="6.27826">
        <ele>300.53</ele>
        <time>2018-09-09T14:44:02Z</time>
      </trkpt>
      <trkpt lat="45.59624" lon="6.27812">
        <ele>300.53</ele>
        <time>2018-09-09T14:44:03Z</time>
      </trkpt>
      <trkpt lat="45.59593" lon="6.27798">
        <ele>300.53</ele>
        <time>2018-09-09T14:44:04Z</time>
      </trkpt>
      <trkpt lat="45.59562" lon="6.27783">
        <ele>300.53</ele>
        <time>2018-09-09T14:44:05Z</time>
      </trkpt>
      <trkpt lat="45.59531" lon="6.27769">
        <ele>299.83</ele>
        <time>2018-09-09T14:44:06Z</time>
      </trkpt>
      <trkpt lat="45.59499" lon="6.27756">
        <ele>299.62</ele>
        <time>2018-09-09T14:44:07Z</time>
      </trkpt>
      <trkpt lat="45.59468" lon="6.27741">
        <ele>299.56</ele>
        <time>2018-09-09T14:44:08Z</time>
      </trkpt>
      <trkpt lat="45.59437" lon="6.27727">
        <ele>299.54</ele>
        <time>2018-09-09T14:44:09Z</time>
      </trkpt>
      <trkpt lat="45.59406" lon="6.27713">
        <ele>299.53</ele>
        <time>2018-09-09T14:44:10Z</time>
      </trkpt>
      <trkpt lat="45.59374" lon="6.27699">
        <ele>299.53</ele>
        <time>2018-09-09T14:44:11Z</time>
      </trkpt>
      <trkpt lat="45.59342" lon="6.27684">
        <ele>299.53</ele>
        <time>2018-09-09T14:44:12Z</time>
      </trkpt>
      <trkpt lat="45.59311" lon="6.2767">
        <ele>298.83</ele>
        <time>2018-09-09T14:44:13Z</time>
      </trkpt>
      <trkpt lat="45.59279" lon="6.27656">
        <ele>299.32</ele>
        <time>2018-09-09T14:44:14Z</time>
      </trkpt>
      <trkpt lat="45.59247" lon="6.27641">
        <ele>299.47</ele>
        <time>2018-09-09T14:44:15Z</time>
      </trkpt>
      <trkpt lat="45.59215" lon="6.27627">
        <ele>300.21</ele>
        <time>2018-09-09T14:44:16Z</time>
      </trkpt>
      <trkpt lat="45.59182" lon="6.27614">
        <ele>299.74</ele>
        <time>2018-09-09T14:44:17Z</time>
      </trkpt>
      <trkpt lat="45.59149" lon="6.276">
        <ele>299.59</ele>
        <time>2018-09-09T14:44:18Z</time>
      </trkpt>
      <trkpt lat="45.59117" lon="6.27586">
        <ele>299.55</ele>
        <time>2018-09-09T14:44:19Z</time>
      </trkpt>
      <trkpt lat="45.59085" lon="6.27572">
        <ele>298.84</ele>
        <time>2018-09-09T14:44:20Z</time>
      </trkpt>
      <trkpt lat="45.59053" lon="6.27558">
        <ele>298.62</ele>
        <time>2018-09-09T14:44:21Z</time>
      </trkpt>
      <trkpt lat="45.59022" lon="6.27543">
        <ele>298.56</ele>
        <time>2018-09-09T14:44:22Z</time>
      </trkpt>
      <trkpt lat="45.5899" lon="6.27527">
        <ele>297.84</ele>
        <time>2018-09-09T14:44:23Z</time>
      </trkpt>
      <trkpt lat="45.58958" lon="6.27512">
        <ele>297.62</ele>
        <time>2018-09-09T14:44:24Z</time>
      </trkpt>
      <trkpt lat="45.58926" lon="6.27496">
        <ele>297.56</ele>
        <time>2018-09-09T14:44:25Z</time>
      </trkpt>
      <trkpt lat="45.58894" lon="6.27481">
        <ele>298.24</ele>
        <time>2018-09-09T14:44:26Z</time>
      </trkpt>
      <trkpt lat="45.58862" lon="6.27466">
        <ele>298.44</ele>
        <time>2018-09-09T14:44:27Z</time>
      </trkpt>
      <trkpt lat="45.5883" lon="6.27452">
        <ele>298.5</ele>
        <time>2018-09-09T14:44:28Z</time>
      </trkpt>
      <trkpt lat="45.58798" lon="6.27438">
        <ele>297.82</ele>
        <time>2018-09-09T14:44:29Z</time>
      </trkpt>
      <trkpt lat="45.58766" lon="6.27423">
        <ele>297.62</ele>
        <time>2018-09-09T14:44:30Z</time>
      </trkpt>
      <trkpt lat="45.58734" lon="6.27408">
        <ele>297.56</ele>
        <time>2018-09-09T14:44:31Z</time>
      </trkpt>
      <trkpt lat="45.58702" lon="6.27393">
        <ele>297.54</ele>
        <time>2018-09-09T14:44:32Z</time>
      </trkpt>
      <trkpt lat="45.5867" lon="6.27379">
        <ele>298.23</ele>
        <time>2018-09-09T14:44:33Z</time>
      </trkpt>
      <trkpt lat="45.58638" lon="6.27364">
        <ele>298.44</ele>
        <time>2018-09-09T14:44:34Z</time>
      </trkpt>
      <trkpt lat="45.58606" lon="6.2735">
        <ele>298.5</ele>
        <time>2018-09-09T14:44:35Z</time>
      </trkpt>
      <trkpt lat="45.58574" lon="6.27335">
        <ele>299.22</ele>
        <time>2018-09-09T14:44:36Z</time>
      </trkpt>
      <trkpt lat="45.58542" lon="6.2732">
        <ele>299.44</ele>
        <time>2018-09-09T14:44:37Z</time>
      </trkpt>
      <trkpt lat="45.58511" lon="6.27304">
        <ele>300.2</ele>
        <time>2018-09-09T14:44:38Z</time>
      </trkpt>
      <trkpt lat="45.5848" lon="6.27286">
        <ele>300.43</ele>
        <time>2018-09-09T14:44:39Z</time>
      </trkpt>
      <trkpt lat="45.5845" lon="6.27267">
        <ele>300.5</ele>
        <time>2018-09-09T14:44:40Z</time>
      </trkpt>
      <trkpt lat="45.58421" lon="6.27246">
        <ele>301.22</ele>
        <time>2018-09-09T14:44:41Z</time>
      </trkpt>
      <trkpt lat="45.58393" lon="6.27223">
        <ele>301.44</ele>
        <time>2018-09-09T14:44:42Z</time>
      </trkpt>
      <trkpt lat="45.58365" lon="6.27199">
        <ele>301.5</ele>
        <time>2018-09-09T14:44:43Z</time>
      </trkpt>
      <trkpt lat="45.58338" lon="6.27175">
        <ele>301.52</ele>
        <time>2018-09-09T14:44:44Z</time>
      </trkpt>
      <trkpt lat="45.58311" lon="6.27149">
        <ele>301.53</ele>
        <time>2018-09-09T14:44:45Z</time>
      </trkpt>
      <trkpt lat="45.58285" lon="6.27121">
        <ele>301.53</ele>
        <time>2018-09-09T14:44:46Z</time>
      </trkpt>
      <trkpt lat="45.5826" lon="6.27092">
        <ele>301.53</ele>
        <time>2018-09-09T14:44:47Z</time>
      </trkpt>
      <trkpt lat="45.58235" lon="6.27062">
        <ele>301.53</ele>
        <time>2018-09-09T14:44:48Z</time>
      </trkpt>
      <trkpt lat="45.58211" lon="6.27031">
        <ele>301.53</ele>
        <time>2018-09-09T14:44:49Z</time>
      </trkpt>
      <trkpt lat="45.58188" lon="6.26999">
        <ele>301.53</ele>
        <time>2018-09-09T14:44:50Z</time>
      </trkpt>
      <trkpt lat="45.58166" lon="6.26965">
        <ele>301.53</ele>
        <time>2018-09-09T14:44:51Z</time>
      </trkpt>
      <trkpt lat="45.58145" lon="6.2693">
        <ele>301.53</ele>
        <time>2018-09-09T14:44:52Z</time>
      </trkpt>
      <trkpt lat="45.58124" lon="6.26894">
        <ele>300.83</ele>
        <time>2018-09-09T14:44:53Z</time>
      </trkpt>
      <trkpt lat="45.58105" lon="6.26857">
        <ele>300.62</ele>
        <time>2018-09-09T14:44:54Z</time>
      </trkpt>
      <trkpt lat="45.58087" lon="6.26818">
        <ele>300.56</ele>
        <time>2018-09-09T14:44:55Z</time>
      </trkpt>
      <trkpt lat="45.58069" lon="6.26778">
        <ele>299.84</ele>
        <time>2018-09-09T14:44:56Z</time>
      </trkpt>
      <trkpt lat="45.58052" lon="6.26737">
        <ele>298.92</ele>
        <time>2018-09-09T14:44:57Z</time>
      </trkpt>
      <trkpt lat="45.58036" lon="6.26696">
        <ele>298.65</ele>
        <time>2018-09-09T14:44:58Z</time>
      </trkpt>
      <trkpt lat="45.58021" lon="6.26653">
        <ele>298.57</ele>
        <time>2018-09-09T14:44:59Z</time>
      </trkpt>
      <trkpt lat="45.58008" lon="6.2661">
        <ele>297.84</ele>
        <time>2018-09-09T14:45:00Z</time>
      </trkpt>
      <trkpt lat="45.57996" lon="6.26565">
        <ele>297.62</ele>
        <time>2018-09-09T14:45:01Z</time>
      </trkpt>
      <trkpt lat="45.57984" lon="6.26521">
        <ele>297.56</ele>
        <time>2018-09-09T14:45:02Z</time>
      </trkpt>
      <trkpt lat="45.57972" lon="6.26476">
        <ele>297.54</ele>
        <time>2018-09-09T14:45:03Z</time>
      </trkpt>
      <trkpt lat="45.5796" lon="6.26431">
        <ele>297.53</ele>
        <time>2018-09-09T14:45:04Z</time>
      </trkpt>
      <trkpt lat="45.57949" lon="6.26386">
        <ele>297.53</ele>
        <time>2018-09-09T14:45:05Z</time>
      </trkpt>
      <trkpt lat="45.57937" lon="6.26341">
        <ele>296.83</ele>
        <time>2018-09-09T14:45:06Z</time>
      </trkpt>
      <trkpt lat="45.57925" lon="6.26295">
        <ele>296.62</ele>
        <time>2018-09-09T14:45:07Z</time>
      </trkpt>
      <trkpt lat="45.57914" lon="6.2625">
        <ele>297.26</ele>
        <time>2018-09-09T14:45:08Z</time>
      </trkpt>
      <trkpt lat="45.57902" lon="6.26205">
        <ele>297.45</ele>
        <time>2018-09-09T14:45:09Z</time>
      </trkpt>
      <trkpt lat="45.5789" lon="6.26159">
        <ele>296.81</ele>
        <time>2018-09-09T14:45:10Z</time>
      </trkpt>
      <trkpt lat="45.57878" lon="6.26114">
        <ele>296.61</ele>
        <time>2018-09-09T14:45:11Z</time>
      </trkpt>
      <trkpt lat="45.57866" lon="6.26069">
        <ele>296.56</ele>
        <time>2018-09-09T14:45:12Z</time>
      </trkpt>
      <trkpt lat="45.57854" lon="6.26024">
        <ele>296.54</ele>
        <time>2018-09-09T14:45:13Z</time>
      </trkpt>
      <trkpt lat="45.57842" lon="6.25978">
        <ele>296.53</ele>
        <time>2018-09-09T14:45:14Z</time>
      </trkpt>
      <trkpt lat="45.57831" lon="6.25933">
        <ele>296.53</ele>
        <time>2018-09-09T14:45:15Z</time>
      </trkpt>
      <trkpt lat="45.57819" lon="6.25887">
        <ele>296.53</ele>
        <time>2018-09-09T14:45:16Z</time>
      </trkpt>
      <trkpt lat="45.57808" lon="6.25841">
        <ele>296.53</ele>
        <time>2018-09-09T14:45:17Z</time>
      </trkpt>
      <trkpt lat="45.57796" lon="6.25796">
        <ele>296.53</ele>
        <time>2018-09-09T14:45:18Z</time>
      </trkpt>
      <trkpt lat="45.57784" lon="6.25751">
        <ele>297.23</ele>
        <time>2018-09-09T14:45:19Z</time>
      </trkpt>
      <trkpt lat="45.57772" lon="6.25706">
        <ele>296.74</ele>
        <time>2018-09-09T14:45:20Z</time>
      </trkpt>
      <trkpt lat="45.5776" lon="6.2566">
        <ele>296.59</ele>
        <time>2018-09-09T14:45:21Z</time>
      </trkpt>
      <trkpt lat="45.57749" lon="6.25615">
        <ele>296.55</ele>
        <time>2018-09-09T14:45:22Z</time>
      </trkpt>
      <trkpt lat="45.57737" lon="6.2557">
        <ele>296.54</ele>
        <time>2018-09-09T14:45:23Z</time>
      </trkpt>
      <trkpt lat="45.57725" lon="6.25524">
        <ele>296.53</ele>
        <time>2018-09-09T14:45:24Z</time>
      </trkpt>
      <trkpt lat="45.57714" lon="6.2548">
        <ele>296.53</ele>
        <time>2018-09-09T14:45:25Z</time>
      </trkpt>
      <trkpt lat="45.57703" lon="6.25435">
        <ele>297.23</ele>
        <time>2018-09-09T14:45:26Z</time>
      </trkpt>
      <trkpt lat="45.57691" lon="6.2539">
        <ele>296.74</ele>
        <time>2018-09-09T14:45:27Z</time>
      </trkpt>
      <trkpt lat="45.57679" lon="6.25345">
        <ele>296.59</ele>
        <time>2018-09-09T14:45:28Z</time>
      </trkpt>
      <trkpt lat="45.57668" lon="6.253">
        <ele>296.55</ele>
        <time>2018-09-09T14:45:29Z</time>
      </trkpt>
      <trkpt lat="45.57656" lon="6.25255">
        <ele>296.54</ele>
        <time>2018-09-09T14:45:30Z</time>
      </trkpt>
      <trkpt lat="45.57644" lon="6.2521">
        <ele>296.53</ele>
        <time>2018-09-09T14:45:31Z</time>
      </trkpt>
      <trkpt lat="45.57633" lon="6.25164">
        <ele>296.53</ele>
        <time>2018-09-09T14:45:32Z</time>
      </trkpt>
      <trkpt lat="45.57621" lon="6.25119">
        <ele>296.53</ele>
        <time>2018-09-09T14:45:33Z</time>
      </trkpt>
      <trkpt lat="45.5761" lon="6.25074">
        <ele>296.53</ele>
        <time>2018-09-09T14:45:34Z</time>
      </trkpt>
      <trkpt lat="45.57598" lon="6.25029">
        <ele>296.53</ele>
        <time>2018-09-09T14:45:35Z</time>
      </trkpt>
      <trkpt lat="45.57586" lon="6.24984">
        <ele>297.47</ele>
        <time>2018-09-09T14:45:36Z</time>
      </trkpt>
      <trkpt lat="45.57574" lon="6.24939">
        <ele>297.76</ele>
        <time>2018-09-09T14:45:37Z</time>
      </trkpt>
      <trkpt lat="45.57562" lon="6.24894">
        <ele>297.14</ele>
        <time>2018-09-09T14:45:38Z</time>
      </trkpt>
      <trkpt lat="45.5755" lon="6.24849">
        <ele>296.96</ele>
        <time>2018-09-09T14:45:39Z</time>
      </trkpt>
      <trkpt lat="45.57538" lon="6.24805">
        <ele>296.9</ele>
        <time>2018-09-09T14:45:40Z</time>
      </trkpt>
      <trkpt lat="45.57526" lon="6.24761">
        <ele>296.89</ele>
        <time>2018-09-09T14:45:41Z</time>
      </trkpt>
      <trkpt lat="45.57513" lon="6.24717">
        <ele>296.88</ele>
        <time>2018-09-09T14:45:42Z</time>
      </trkpt>
      <trkpt lat="45.575" lon="6.24674">
        <ele>296.88</ele>
        <time>2018-09-09T14:45:43Z</time>
      </trkpt>
      <trkpt lat="45.57488" lon="6.24632">
        <ele>296.88</ele>
        <time>2018-09-09T14:45:44Z</time>
      </trkpt>
      <trkpt lat="45.57475" lon="6.2459">
        <ele>296.88</ele>
        <time>2018-09-09T14:45:45Z</time>
      </trkpt>
      <trkpt lat="45.57463" lon="6.24547">
        <ele>296.88</ele>
        <time>2018-09-09T14:45:46Z</time>
      </trkpt>
      <trkpt lat="45.57451" lon="6.24505">
        <ele>296.88</ele>
        <time>2018-09-09T14:45:47Z</time>
      </trkpt>
      <trkpt lat="45.57439" lon="6.24463">
        <ele>296.88</ele>
        <time>2018-09-09T14:45:48Z</time>
      </trkpt>
      <trkpt lat="45.57427" lon="6.2442">
        <ele>296.18</ele>
        <time>2018-09-09T14:45:49Z</time>
      </trkpt>
      <trkpt lat="45.57414" lon="6.24379">
        <ele>295.97</ele>
        <time>2018-09-09T14:45:50Z</time>
      </trkpt>
      <trkpt lat="45.57403" lon="6.24338">
        <ele>296.61</ele>
        <time>2018-09-09T14:45:51Z</time>
      </trkpt>
      <trkpt lat="45.5739" lon="6.24296">
        <ele>296.8</ele>
        <time>2018-09-09T14:45:52Z</time>
      </trkpt>
      <trkpt lat="45.57378" lon="6.24254">
        <ele>296.85</ele>
        <time>2018-09-09T14:45:53Z</time>
      </trkpt>
      <trkpt lat="45.57366" lon="6.24212">
        <ele>296.87</ele>
        <time>2018-09-09T14:45:54Z</time>
      </trkpt>
      <trkpt lat="45.57354" lon="6.2417">
        <ele>296.88</ele>
        <time>2018-09-09T14:45:55Z</time>
      </trkpt>
      <trkpt lat="45.57342" lon="6.24127">
        <ele>296.18</ele>
        <time>2018-09-09T14:45:56Z</time>
      </trkpt>
      <trkpt lat="45.57329" lon="6.24084">
        <ele>295.97</ele>
        <time>2018-09-09T14:45:57Z</time>
      </trkpt>
      <trkpt lat="45.57317" lon="6.24039">
        <ele>295.9</ele>
        <time>2018-09-09T14:45:58Z</time>
      </trkpt>
      <trkpt lat="45.57303" lon="6.23995">
        <ele>295.89</ele>
        <time>2018-09-09T14:45:59Z</time>
      </trkpt>
      <trkpt lat="45.5729" lon="6.2395">
        <ele>295.88</ele>
        <time>2018-09-09T14:46:00Z</time>
      </trkpt>
      <trkpt lat="45.57276" lon="6.23906">
        <ele>295.88</ele>
        <time>2018-09-09T14:46:01Z</time>
      </trkpt>
      <trkpt lat="45.57263" lon="6.23863">
        <ele>295.88</ele>
        <time>2018-09-09T14:46:02Z</time>
      </trkpt>
      <trkpt lat="45.57251" lon="6.23819">
        <ele>296.58</ele>
        <time>2018-09-09T14:46:03Z</time>
      </trkpt>
      <trkpt lat="45.57238" lon="6.23776">
        <ele>296.79</ele>
        <time>2018-09-09T14:46:04Z</time>
      </trkpt>
      <trkpt lat="45.57224" lon="6.23734">
        <ele>296.85</ele>
        <time>2018-09-09T14:46:05Z</time>
      </trkpt>
      <trkpt lat="45.57211" lon="6.23692">
        <ele>296.87</ele>
        <time>2018-09-09T14:46:06Z</time>
      </trkpt>
      <trkpt lat="45.57197" lon="6.2365">
        <ele>296.88</ele>
        <time>2018-09-09T14:46:07Z</time>
      </trkpt>
      <trkpt lat="45.57184" lon="6.23608">
        <ele>296.88</ele>
        <time>2018-09-09T14:46:08Z</time>
      </trkpt>
      <trkpt lat="45.57169" lon="6.23566">
        <ele>296.88</ele>
        <time>2018-09-09T14:46:09Z</time>
      </trkpt>
      <trkpt lat="45.57156" lon="6.23524">
        <ele>296.18</ele>
        <time>2018-09-09T14:46:10Z</time>
      </trkpt>
      <trkpt lat="45.57142" lon="6.23482">
        <ele>295.97</ele>
        <time>2018-09-09T14:46:11Z</time>
      </trkpt>
      <trkpt lat="45.57128" lon="6.23441">
        <ele>295.9</ele>
        <time>2018-09-09T14:46:12Z</time>
      </trkpt>
      <trkpt lat="45.57114" lon="6.234">
        <ele>295.89</ele>
        <time>2018-09-09T14:46:13Z</time>
      </trkpt>
      <trkpt lat="45.57099" lon="6.23359">
        <ele>295.88</ele>
        <time>2018-09-09T14:46:14Z</time>
      </trkpt>
      <trkpt lat="45.57085" lon="6.23317">
        <ele>295.88</ele>
        <time>2018-09-09T14:46:15Z</time>
      </trkpt>
      <trkpt lat="45.57071" lon="6.23276">
        <ele>295.88</ele>
        <time>2018-09-09T14:46:16Z</time>
      </trkpt>
      <trkpt lat="45.57057" lon="6.23235">
        <ele>295.88</ele>
        <time>2018-09-09T14:46:17Z</time>
      </trkpt>
      <trkpt lat="45.57043" lon="6.23195">
        <ele>295.88</ele>
        <time>2018-09-09T14:46:18Z</time>
      </trkpt>
      <trkpt lat="45.5703" lon="6.23154">
        <ele>295.88</ele>
        <time>2018-09-09T14:46:19Z</time>
      </trkpt>
      <trkpt lat="45.57016" lon="6.23114">
        <ele>295.88</ele>
        <time>2018-09-09T14:46:20Z</time>
      </trkpt>
      <trkpt lat="45.57003" lon="6.23075">
        <ele>295.88</ele>
        <time>2018-09-09T14:46:21Z</time>
      </trkpt>
      <trkpt lat="45.56989" lon="6.23037">
        <ele>295.88</ele>
        <time>2018-09-09T14:46:22Z</time>
      </trkpt>
      <trkpt lat="45.56976" lon="6.22998">
        <ele>295.88</ele>
        <time>2018-09-09T14:46:23Z</time>
      </trkpt>
      <trkpt lat="45.56963" lon="6.2296">
        <ele>295.88</ele>
        <time>2018-09-09T14:46:24Z</time>
      </trkpt>
      <trkpt lat="45.56951" lon="6.22922">
        <ele>295.88</ele>
        <time>2018-09-09T14:46:25Z</time>
      </trkpt>
      <trkpt lat="45.56938" lon="6.22885">
        <ele>295.88</ele>
        <time>2018-09-09T14:46:26Z</time>
      </trkpt>
      <trkpt lat="45.56925" lon="6.22848">
        <ele>295.88</ele>
        <time>2018-09-09T14:46:27Z</time>
      </trkpt>
      <trkpt lat="45.56913" lon="6.22813">
        <ele>295.88</ele>
        <time>2018-09-09T14:46:28Z</time>
      </trkpt>
      <trkpt lat="45.56901" lon="6.22778">
        <ele>295.18</ele>
        <time>2018-09-09T14:46:29Z</time>
      </trkpt>
      <trkpt lat="45.56889" lon="6.22743">
        <ele>294.97</ele>
        <time>2018-09-09T14:46:30Z</time>
      </trkpt>
      <trkpt lat="45.56877" lon="6.2271">
        <ele>294.9</ele>
        <time>2018-09-09T14:46:31Z</time>
      </trkpt>
      <trkpt lat="45.56866" lon="6.22676">
        <ele>294.89</ele>
        <time>2018-09-09T14:46:32Z</time>
      </trkpt>
      <trkpt lat="45.56855" lon="6.22643">
        <ele>294.88</ele>
        <time>2018-09-09T14:46:33Z</time>
      </trkpt>
      <trkpt lat="45.56844" lon="6.2261">
        <ele>294.88</ele>
        <time>2018-09-09T14:46:34Z</time>
      </trkpt>
      <trkpt lat="45.56833" lon="6.22578">
        <ele>294.88</ele>
        <time>2018-09-09T14:46:35Z</time>
      </trkpt>
      <trkpt lat="45.56822" lon="6.22545">
        <ele>294.88</ele>
        <time>2018-09-09T14:46:36Z</time>
      </trkpt>
      <trkpt lat="45.56811" lon="6.22513">
        <ele>294.88</ele>
        <time>2018-09-09T14:46:37Z</time>
      </trkpt>
      <trkpt lat="45.568" lon="6.22481">
        <ele>295.58</ele>
        <time>2018-09-09T14:46:38Z</time>
      </trkpt>
      <trkpt lat="45.5679" lon="6.22448">
        <ele>295.09</ele>
        <time>2018-09-09T14:46:39Z</time>
      </trkpt>
      <trkpt lat="45.56779" lon="6.22417">
        <ele>294.94</ele>
        <time>2018-09-09T14:46:40Z</time>
      </trkpt>
      <trkpt lat="45.56768" lon="6.22385">
        <ele>294.9</ele>
        <time>2018-09-09T14:46:41Z</time>
      </trkpt>
      <trkpt lat="45.56757" lon="6.22353">
        <ele>294.88</ele>
        <time>2018-09-09T14:46:42Z</time>
      </trkpt>
      <trkpt lat="45.56746" lon="6.22321">
        <ele>294.88</ele>
        <time>2018-09-09T14:46:43Z</time>
      </trkpt>
      <trkpt lat="45.56735" lon="6.2229">
        <ele>294.18</ele>
        <time>2018-09-09T14:46:44Z</time>
      </trkpt>
      <trkpt lat="45.56724" lon="6.22259">
        <ele>293.97</ele>
        <time>2018-09-09T14:46:45Z</time>
      </trkpt>
      <trkpt lat="45.56714" lon="6.22229">
        <ele>293.91</ele>
        <time>2018-09-09T14:46:46Z</time>
      </trkpt>
      <trkpt lat="45.56704" lon="6.22199">
        <ele>293.89</ele>
        <time>2018-09-09T14:46:47Z</time>
      </trkpt>
      <trkpt lat="45.56694" lon="6.22169">
        <ele>293.88</ele>
        <time>2018-09-09T14:46:48Z</time>
      </trkpt>
      <trkpt lat="45.56685" lon="6.2214">
        <ele>293.18</ele>
        <time>2018-09-09T14:46:49Z</time>
      </trkpt>
      <trkpt lat="45.56674" lon="6.2211">
        <ele>292.97</ele>
        <time>2018-09-09T14:46:50Z</time>
      </trkpt>
      <trkpt lat="45.56666" lon="6.2208">
        <ele>293.61</ele>
        <time>2018-09-09T14:46:51Z</time>
      </trkpt>
      <trkpt lat="45.56657" lon="6.2205">
        <ele>293.8</ele>
        <time>2018-09-09T14:46:52Z</time>
      </trkpt>
      <trkpt lat="45.56648" lon="6.22019">
        <ele>293.85</ele>
        <time>2018-09-09T14:46:53Z</time>
      </trkpt>
      <trkpt lat="45.56639" lon="6.21989">
        <ele>293.87</ele>
        <time>2018-09-09T14:46:54Z</time>
      </trkpt>
      <trkpt lat="45.56629" lon="6.21959">
        <ele>293.88</ele>
        <time>2018-09-09T14:46:55Z</time>
      </trkpt>
      <trkpt lat="45.5662" lon="6.2193">
        <ele>293.88</ele>
        <time>2018-09-09T14:46:56Z</time>
      </trkpt>
      <trkpt lat="45.56611" lon="6.21901">
        <ele>293.18</ele>
        <time>2018-09-09T14:46:57Z</time>
      </trkpt>
      <trkpt lat="45.56603" lon="6.21872">
        <ele>292.97</ele>
        <time>2018-09-09T14:46:58Z</time>
      </trkpt>
      <trkpt lat="45.56594" lon="6.21844">
        <ele>292.9</ele>
        <time>2018-09-09T14:46:59Z</time>
      </trkpt>
      <trkpt lat="45.56587" lon="6.21816">
        <ele>292.89</ele>
        <time>2018-09-09T14:47:00Z</time>
      </trkpt>
      <trkpt lat="45.56579" lon="6.21789">
        <ele>292.88</ele>
        <time>2018-09-09T14:47:01Z</time>
      </trkpt>
      <trkpt lat="45.56572" lon="6.21765">
        <ele>292.18</ele>
        <time>2018-09-09T14:47:02Z</time>
      </trkpt>
      <trkpt lat="45.56559" lon="6.21717">
        <ele>292.61</ele>
        <time>2018-09-09T14:47:04Z</time>
      </trkpt>
      <trkpt lat="45.56547" lon="6.2167">
        <ele>292.15</ele>
        <time>2018-09-09T14:47:06Z</time>
      </trkpt>
      <trkpt lat="45.56535" lon="6.21623">
        <ele>291.9</ele>
        <time>2018-09-09T14:47:08Z</time>
      </trkpt>
      <trkpt lat="45.56524" lon="6.21576">
        <ele>291.88</ele>
        <time>2018-09-09T14:47:10Z</time>
      </trkpt>
      <trkpt lat="45.56513" lon="6.21529">
        <ele>291.88</ele>
        <time>2018-09-09T14:47:12Z</time>
      </trkpt>
      <trkpt lat="45.56502" lon="6.21482">
        <ele>291.88</ele>
        <time>2018-09-09T14:47:14Z</time>
      </trkpt>
      <trkpt lat="45.56491" lon="6.21437">
        <ele>291.88</ele>
        <time>2018-09-09T14:47:16Z</time>
      </trkpt>
      <trkpt lat="45.56481" lon="6.21393">
        <ele>291.88</ele>
        <time>2018-09-09T14:47:18Z</time>
      </trkpt>
      <trkpt lat="45.56472" lon="6.21349">
        <ele>292.58</ele>
        <time>2018-09-09T14:47:20Z</time>
      </trkpt>
      <trkpt lat="45.56463" lon="6.21305">
        <ele>292.85</ele>
        <time>2018-09-09T14:47:22Z</time>
      </trkpt>
      <trkpt lat="45.56454" lon="6.21262">
        <ele>292.88</ele>
        <time>2018-09-09T14:47:24Z</time>
      </trkpt>
      <trkpt lat="45.56446" lon="6.21219">
        <ele>292.88</ele>
        <time>2018-09-09T14:47:26Z</time>
      </trkpt>
      <trkpt lat="45.56438" lon="6.21176">
        <ele>292.18</ele>
        <time>2018-09-09T14:47:28Z</time>
      </trkpt>
      <trkpt lat="45.5643" lon="6.21134">
        <ele>292.82</ele>
        <time>2018-09-09T14:47:30Z</time>
      </trkpt>
      <trkpt lat="45.56422" lon="6.21091">
        <ele>292.87</ele>
        <time>2018-09-09T14:47:32Z</time>
      </trkpt>
      <trkpt lat="45.56414" lon="6.21049">
        <ele>293.58</ele>
        <time>2018-09-09T14:47:34Z</time>
      </trkpt>
      <trkpt lat="45.56406" lon="6.21006">
        <ele>293.85</ele>
        <time>2018-09-09T14:47:36Z</time>
      </trkpt>
      <trkpt lat="45.56398" lon="6.20965">
        <ele>294.79</ele>
        <time>2018-09-09T14:47:38Z</time>
      </trkpt>
      <trkpt lat="45.56391" lon="6.20922">
        <ele>294.87</ele>
        <time>2018-09-09T14:47:40Z</time>
      </trkpt>
      <trkpt lat="45.56383" lon="6.2088">
        <ele>295.79</ele>
        <time>2018-09-09T14:47:42Z</time>
      </trkpt>
      <trkpt lat="45.56376" lon="6.20838">
        <ele>295.87</ele>
        <time>2018-09-09T14:47:44Z</time>
      </trkpt>
      <trkpt lat="45.56367" lon="6.20797">
        <ele>296.58</ele>
        <time>2018-09-09T14:47:46Z</time>
      </trkpt>
      <trkpt lat="45.56358" lon="6.20756">
        <ele>296.85</ele>
        <time>2018-09-09T14:47:48Z</time>
      </trkpt>
      <trkpt lat="45.56349" lon="6.20716">
        <ele>297.79</ele>
        <time>2018-09-09T14:47:50Z</time>
      </trkpt>
      <trkpt lat="45.56339" lon="6.20676">
        <ele>298.57</ele>
        <time>2018-09-09T14:47:52Z</time>
      </trkpt>
      <trkpt lat="45.56329" lon="6.20635">
        <ele>298.85</ele>
        <time>2018-09-09T14:47:54Z</time>
      </trkpt>
      <trkpt lat="45.56318" lon="6.20595">
        <ele>299.58</ele>
        <time>2018-09-09T14:47:56Z</time>
      </trkpt>
      <trkpt lat="45.56306" lon="6.20554">
        <ele>299.85</ele>
        <time>2018-09-09T14:47:58Z</time>
      </trkpt>
      <trkpt lat="45.56294" lon="6.2051">
        <ele>300.58</ele>
        <time>2018-09-09T14:48:00Z</time>
      </trkpt>
      <trkpt lat="45.56281" lon="6.20465">
        <ele>299.24</ele>
        <time>2018-09-09T14:48:02Z</time>
      </trkpt>
      <trkpt lat="45.56273" lon="6.20442">
        <ele>298.99</ele>
        <time>2018-09-09T14:48:03Z</time>
      </trkpt>
      <trkpt lat="45.56265" lon="6.20418">
        <ele>298.91</ele>
        <time>2018-09-09T14:48:04Z</time>
      </trkpt>
      <trkpt lat="45.56256" lon="6.20394">
        <ele>298.89</ele>
        <time>2018-09-09T14:48:05Z</time>
      </trkpt>
      <trkpt lat="45.56247" lon="6.20369">
        <ele>298.88</ele>
        <time>2018-09-09T14:48:06Z</time>
      </trkpt>
      <trkpt lat="45.56237" lon="6.20344">
        <ele>299.58</ele>
        <time>2018-09-09T14:48:07Z</time>
      </trkpt>
      <trkpt lat="45.56227" lon="6.20317">
        <ele>299.09</ele>
        <time>2018-09-09T14:48:08Z</time>
      </trkpt>
      <trkpt lat="45.56217" lon="6.20292">
        <ele>298.94</ele>
        <time>2018-09-09T14:48:09Z</time>
      </trkpt>
      <trkpt lat="45.56207" lon="6.20266">
        <ele>298.9</ele>
        <time>2018-09-09T14:48:10Z</time>
      </trkpt>
      <trkpt lat="45.56197" lon="6.2024">
        <ele>298.88</ele>
        <time>2018-09-09T14:48:11Z</time>
      </trkpt>
      <trkpt lat="45.56186" lon="6.20214">
        <ele>298.88</ele>
        <time>2018-09-09T14:48:12Z</time>
      </trkpt>
      <trkpt lat="45.56175" lon="6.20189">
        <ele>298.88</ele>
        <time>2018-09-09T14:48:13Z</time>
      </trkpt>
      <trkpt lat="45.56163" lon="6.20163">
        <ele>298.88</ele>
        <time>2018-09-09T14:48:14Z</time>
      </trkpt>
      <trkpt lat="45.56151" lon="6.20138">
        <ele>298.88</ele>
        <time>2018-09-09T14:48:15Z</time>
      </trkpt>
      <trkpt lat="45.56138" lon="6.20113">
        <ele>298.88</ele>
        <time>2018-09-09T14:48:16Z</time>
      </trkpt>
      <trkpt lat="45.56126" lon="6.20088">
        <ele>298.88</ele>
        <time>2018-09-09T14:48:17Z</time>
      </trkpt>
      <trkpt lat="45.56114" lon="6.20064">
        <ele>298.88</ele>
        <time>2018-09-09T14:48:18Z</time>
      </trkpt>
      <trkpt lat="45.56101" lon="6.2004">
        <ele>298.88</ele>
        <time>2018-09-09T14:48:19Z</time>
      </trkpt>
      <trkpt lat="45.56089" lon="6.20016">
        <ele>298.88</ele>
        <time>2018-09-09T14:48:20Z</time>
      </trkpt>
      <trkpt lat="45.56077" lon="6.19991">
        <ele>298.88</ele>
        <time>2018-09-09T14:48:21Z</time>
      </trkpt>
      <trkpt lat="45.56065" lon="6.19968">
        <ele>298.88</ele>
        <time>2018-09-09T14:48:22Z</time>
      </trkpt>
      <trkpt lat="45.56053" lon="6.19944">
        <ele>298.88</ele>
        <time>2018-09-09T14:48:23Z</time>
      </trkpt>
      <trkpt lat="45.5604" lon="6.19921">
        <ele>298.18</ele>
        <time>2018-09-09T14:48:24Z</time>
      </trkpt>
      <trkpt lat="45.56029" lon="6.19897">
        <ele>297.97</ele>
        <time>2018-09-09T14:48:25Z</time>
      </trkpt>
      <trkpt lat="45.56016" lon="6.19873">
        <ele>297.9</ele>
        <time>2018-09-09T14:48:26Z</time>
      </trkpt>
      <trkpt lat="45.56004" lon="6.19847">
        <ele>297.89</ele>
        <time>2018-09-09T14:48:27Z</time>
      </trkpt>
      <trkpt lat="45.55991" lon="6.19819">
        <ele>297.88</ele>
        <time>2018-09-09T14:48:28Z</time>
      </trkpt>
      <trkpt lat="45.55976" lon="6.19788">
        <ele>297.88</ele>
        <time>2018-09-09T14:48:29Z</time>
      </trkpt>
      <trkpt lat="45.5596" lon="6.19753">
        <ele>297.18</ele>
        <time>2018-09-09T14:48:30Z</time>
      </trkpt>
      <trkpt lat="45.55943" lon="6.19716">
        <ele>297.67</ele>
        <time>2018-09-09T14:48:31Z</time>
      </trkpt>
      <trkpt lat="45.55926" lon="6.19676">
        <ele>297.12</ele>
        <time>2018-09-09T14:48:32Z</time>
      </trkpt>
      <trkpt lat="45.55909" lon="6.19634">
        <ele>296.25</ele>
        <time>2018-09-09T14:48:33Z</time>
      </trkpt>
      <trkpt lat="45.55894" lon="6.1959">
        <ele>295.99</ele>
        <time>2018-09-09T14:48:34Z</time>
      </trkpt>
      <trkpt lat="45.55878" lon="6.19544">
        <ele>295.21</ele>
        <time>2018-09-09T14:48:35Z</time>
      </trkpt>
      <trkpt lat="45.55863" lon="6.19496">
        <ele>294.98</ele>
        <time>2018-09-09T14:48:36Z</time>
      </trkpt>
      <trkpt lat="45.55848" lon="6.19447">
        <ele>294.21</ele>
        <time>2018-09-09T14:48:37Z</time>
      </trkpt>
      <trkpt lat="45.55834" lon="6.19397">
        <ele>293.28</ele>
        <time>2018-09-09T14:48:38Z</time>
      </trkpt>
      <trkpt lat="45.55822" lon="6.19347">
        <ele>292.3</ele>
        <time>2018-09-09T14:48:39Z</time>
      </trkpt>
      <trkpt lat="45.55812" lon="6.19297">
        <ele>292</ele>
        <time>2018-09-09T14:48:40Z</time>
      </trkpt>
      <trkpt lat="45.55802" lon="6.19247">
        <ele>291.22</ele>
        <time>2018-09-09T14:48:41Z</time>
      </trkpt>
      <trkpt lat="45.55793" lon="6.19198">
        <ele>290.98</ele>
        <time>2018-09-09T14:48:42Z</time>
      </trkpt>
      <trkpt lat="45.55785" lon="6.19148">
        <ele>290.21</ele>
        <time>2018-09-09T14:48:43Z</time>
      </trkpt>
      <trkpt lat="45.55778" lon="6.19099">
        <ele>289.28</ele>
        <time>2018-09-09T14:48:44Z</time>
      </trkpt>
      <trkpt lat="45.55772" lon="6.1905">
        <ele>288.3</ele>
        <time>2018-09-09T14:48:45Z</time>
      </trkpt>
      <trkpt lat="45.55766" lon="6.19001">
        <ele>288</ele>
        <time>2018-09-09T14:48:46Z</time>
      </trkpt>
      <trkpt lat="45.55762" lon="6.18953">
        <ele>287.22</ele>
        <time>2018-09-09T14:48:47Z</time>
      </trkpt>
      <trkpt lat="45.55757" lon="6.18904">
        <ele>286.98</ele>
        <time>2018-09-09T14:48:48Z</time>
      </trkpt>
      <trkpt lat="45.55752" lon="6.18857">
        <ele>286.21</ele>
        <time>2018-09-09T14:48:49Z</time>
      </trkpt>
      <trkpt lat="45.55747" lon="6.18809">
        <ele>286.68</ele>
        <time>2018-09-09T14:48:50Z</time>
      </trkpt>
      <trkpt lat="45.55742" lon="6.18762">
        <ele>286.82</ele>
        <time>2018-09-09T14:48:51Z</time>
      </trkpt>
      <trkpt lat="45.55736" lon="6.18715">
        <ele>286.86</ele>
        <time>2018-09-09T14:48:52Z</time>
      </trkpt>
      <trkpt lat="45.5573" lon="6.18668">
        <ele>286.87</ele>
        <time>2018-09-09T14:48:53Z</time>
      </trkpt>
      <trkpt lat="45.55723" lon="6.18622">
        <ele>286.88</ele>
        <time>2018-09-09T14:48:54Z</time>
      </trkpt>
      <trkpt lat="45.55716" lon="6.18576">
        <ele>286.88</ele>
        <time>2018-09-09T14:48:55Z</time>
      </trkpt>
      <trkpt lat="45.55708" lon="6.1853">
        <ele>286.88</ele>
        <time>2018-09-09T14:48:56Z</time>
      </trkpt>
      <trkpt lat="45.55699" lon="6.18484">
        <ele>286.88</ele>
        <time>2018-09-09T14:48:57Z</time>
      </trkpt>
      <trkpt lat="45.5569" lon="6.18438">
        <ele>286.88</ele>
        <time>2018-09-09T14:48:58Z</time>
      </trkpt>
      <trkpt lat="45.5568" lon="6.18392">
        <ele>286.88</ele>
        <time>2018-09-09T14:48:59Z</time>
      </trkpt>
      <trkpt lat="45.55669" lon="6.18347">
        <ele>286.88</ele>
        <time>2018-09-09T14:49:00Z</time>
      </trkpt>
      <trkpt lat="45.55658" lon="6.18301">
        <ele>286.88</ele>
        <time>2018-09-09T14:49:01Z</time>
      </trkpt>
      <trkpt lat="45.55646" lon="6.18255">
        <ele>286.88</ele>
        <time>2018-09-09T14:49:02Z</time>
      </trkpt>
      <trkpt lat="45.55633" lon="6.1821">
        <ele>286.88</ele>
        <time>2018-09-09T14:49:03Z</time>
      </trkpt>
      <trkpt lat="45.55619" lon="6.18165">
        <ele>286.18</ele>
        <time>2018-09-09T14:49:04Z</time>
      </trkpt>
      <trkpt lat="45.55605" lon="6.1812">
        <ele>285.97</ele>
        <time>2018-09-09T14:49:05Z</time>
      </trkpt>
      <trkpt lat="45.55591" lon="6.18075">
        <ele>285.9</ele>
        <time>2018-09-09T14:49:06Z</time>
      </trkpt>
      <trkpt lat="45.55576" lon="6.18031">
        <ele>285.89</ele>
        <time>2018-09-09T14:49:07Z</time>
      </trkpt>
      <trkpt lat="45.5556" lon="6.17987">
        <ele>285.88</ele>
        <time>2018-09-09T14:49:08Z</time>
      </trkpt>
      <trkpt lat="45.55544" lon="6.17945">
        <ele>285.88</ele>
        <time>2018-09-09T14:49:09Z</time>
      </trkpt>
      <trkpt lat="45.55528" lon="6.17901">
        <ele>285.88</ele>
        <time>2018-09-09T14:49:10Z</time>
      </trkpt>
      <trkpt lat="45.55513" lon="6.17858">
        <ele>285.18</ele>
        <time>2018-09-09T14:49:11Z</time>
      </trkpt>
      <trkpt lat="45.55498" lon="6.17813">
        <ele>284.97</ele>
        <time>2018-09-09T14:49:12Z</time>
      </trkpt>
      <trkpt lat="45.55483" lon="6.17768">
        <ele>284.9</ele>
        <time>2018-09-09T14:49:13Z</time>
      </trkpt>
      <trkpt lat="45.55468" lon="6.17724">
        <ele>285.59</ele>
        <time>2018-09-09T14:49:14Z</time>
      </trkpt>
      <trkpt lat="45.55455" lon="6.17679">
        <ele>285.79</ele>
        <time>2018-09-09T14:49:15Z</time>
      </trkpt>
      <trkpt lat="45.55442" lon="6.17634">
        <ele>285.15</ele>
        <time>2018-09-09T14:49:16Z</time>
      </trkpt>
      <trkpt lat="45.55429" lon="6.17589">
        <ele>284.96</ele>
        <time>2018-09-09T14:49:17Z</time>
      </trkpt>
      <trkpt lat="45.55418" lon="6.17544">
        <ele>284.9</ele>
        <time>2018-09-09T14:49:18Z</time>
      </trkpt>
      <trkpt lat="45.55408" lon="6.17498">
        <ele>284.19</ele>
        <time>2018-09-09T14:49:19Z</time>
      </trkpt>
      <trkpt lat="45.55398" lon="6.17453">
        <ele>284.67</ele>
        <time>2018-09-09T14:49:20Z</time>
      </trkpt>
      <trkpt lat="45.55388" lon="6.17407">
        <ele>284.82</ele>
        <time>2018-09-09T14:49:21Z</time>
      </trkpt>
      <trkpt lat="45.55379" lon="6.17361">
        <ele>284.86</ele>
        <time>2018-09-09T14:49:22Z</time>
      </trkpt>
      <trkpt lat="45.55371" lon="6.17315">
        <ele>284.87</ele>
        <time>2018-09-09T14:49:23Z</time>
      </trkpt>
      <trkpt lat="45.55363" lon="6.17269">
        <ele>284.88</ele>
        <time>2018-09-09T14:49:24Z</time>
      </trkpt>
      <trkpt lat="45.55356" lon="6.17222">
        <ele>284.88</ele>
        <time>2018-09-09T14:49:25Z</time>
      </trkpt>
      <trkpt lat="45.55349" lon="6.17176">
        <ele>284.88</ele>
        <time>2018-09-09T14:49:26Z</time>
      </trkpt>
      <trkpt lat="45.55342" lon="6.1713">
        <ele>285.58</ele>
        <time>2018-09-09T14:49:27Z</time>
      </trkpt>
      <trkpt lat="45.55335" lon="6.17085">
        <ele>285.79</ele>
        <time>2018-09-09T14:49:28Z</time>
      </trkpt>
      <trkpt lat="45.55327" lon="6.17039">
        <ele>286.55</ele>
        <time>2018-09-09T14:49:29Z</time>
      </trkpt>
      <trkpt lat="45.55319" lon="6.16994">
        <ele>287.48</ele>
        <time>2018-09-09T14:49:30Z</time>
      </trkpt>
      <trkpt lat="45.5531" lon="6.16949">
        <ele>287.76</ele>
        <time>2018-09-09T14:49:31Z</time>
      </trkpt>
      <trkpt lat="45.55301" lon="6.16905">
        <ele>287.84</ele>
        <time>2018-09-09T14:49:32Z</time>
      </trkpt>
      <trkpt lat="45.55291" lon="6.16863">
        <ele>287.17</ele>
        <time>2018-09-09T14:49:33Z</time>
      </trkpt>
      <trkpt lat="45.55279" lon="6.1682">
        <ele>286.96</ele>
        <time>2018-09-09T14:49:34Z</time>
      </trkpt>
      <trkpt lat="45.55265" lon="6.16778">
        <ele>286.9</ele>
        <time>2018-09-09T14:49:35Z</time>
      </trkpt>
      <trkpt lat="45.5525" lon="6.16736">
        <ele>286.89</ele>
        <time>2018-09-09T14:49:36Z</time>
      </trkpt>
      <trkpt lat="45.55234" lon="6.16695">
        <ele>286.88</ele>
        <time>2018-09-09T14:49:37Z</time>
      </trkpt>
      <trkpt lat="45.55217" lon="6.16656">
        <ele>286.18</ele>
        <time>2018-09-09T14:49:38Z</time>
      </trkpt>
      <trkpt lat="45.55199" lon="6.16617">
        <ele>286.67</ele>
        <time>2018-09-09T14:49:39Z</time>
      </trkpt>
      <trkpt lat="45.55179" lon="6.16579">
        <ele>286.12</ele>
        <time>2018-09-09T14:49:40Z</time>
      </trkpt>
      <trkpt lat="45.5516" lon="6.16541">
        <ele>285.25</ele>
        <time>2018-09-09T14:49:41Z</time>
      </trkpt>
      <trkpt lat="45.5514" lon="6.16504">
        <ele>284.99</ele>
        <time>2018-09-09T14:49:42Z</time>
      </trkpt>
      <trkpt lat="45.55121" lon="6.16467">
        <ele>284.21</ele>
        <time>2018-09-09T14:49:43Z</time>
      </trkpt>
      <trkpt lat="45.55101" lon="6.1643">
        <ele>283.98</ele>
        <time>2018-09-09T14:49:44Z</time>
      </trkpt>
      <trkpt lat="45.55082" lon="6.16394">
        <ele>283.91</ele>
        <time>2018-09-09T14:49:45Z</time>
      </trkpt>
      <trkpt lat="45.55062" lon="6.16357">
        <ele>283.19</ele>
        <time>2018-09-09T14:49:46Z</time>
      </trkpt>
      <trkpt lat="45.55043" lon="6.16321">
        <ele>282.27</ele>
        <time>2018-09-09T14:49:47Z</time>
      </trkpt>
      <trkpt lat="45.55024" lon="6.16284">
        <ele>282</ele>
        <time>2018-09-09T14:49:48Z</time>
      </trkpt>
      <trkpt lat="45.55007" lon="6.16247">
        <ele>281.21</ele>
        <time>2018-09-09T14:49:49Z</time>
      </trkpt>
      <trkpt lat="45.54989" lon="6.1621">
        <ele>280.98</ele>
        <time>2018-09-09T14:49:50Z</time>
      </trkpt>
      <trkpt lat="45.54972" lon="6.16172">
        <ele>280.91</ele>
        <time>2018-09-09T14:49:51Z</time>
      </trkpt>
      <trkpt lat="45.54956" lon="6.16134">
        <ele>280.89</ele>
        <time>2018-09-09T14:49:52Z</time>
      </trkpt>
      <trkpt lat="45.5494" lon="6.16095">
        <ele>280.88</ele>
        <time>2018-09-09T14:49:53Z</time>
      </trkpt>
      <trkpt lat="45.54925" lon="6.16056">
        <ele>280.88</ele>
        <time>2018-09-09T14:49:54Z</time>
      </trkpt>
      <trkpt lat="45.54909" lon="6.16016">
        <ele>280.88</ele>
        <time>2018-09-09T14:49:55Z</time>
      </trkpt>
      <trkpt lat="45.54894" lon="6.15976">
        <ele>280.88</ele>
        <time>2018-09-09T14:49:56Z</time>
      </trkpt>
      <trkpt lat="45.54881" lon="6.15935">
        <ele>280.88</ele>
        <time>2018-09-09T14:49:57Z</time>
      </trkpt>
      <trkpt lat="45.54867" lon="6.15895">
        <ele>280.18</ele>
        <time>2018-09-09T14:49:58Z</time>
      </trkpt>
      <trkpt lat="45.54855" lon="6.15853">
        <ele>280.67</ele>
        <time>2018-09-09T14:49:59Z</time>
      </trkpt>
      <trkpt lat="45.54843" lon="6.15812">
        <ele>280.82</ele>
        <time>2018-09-09T14:50:00Z</time>
      </trkpt>
      <trkpt lat="45.54831" lon="6.15769">
        <ele>280.16</ele>
        <time>2018-09-09T14:50:01Z</time>
      </trkpt>
      <trkpt lat="45.5482" lon="6.15727">
        <ele>279.96</ele>
        <time>2018-09-09T14:50:02Z</time>
      </trkpt>
      <trkpt lat="45.54809" lon="6.15685">
        <ele>279.9</ele>
        <time>2018-09-09T14:50:03Z</time>
      </trkpt>
      <trkpt lat="45.54799" lon="6.15641">
        <ele>279.89</ele>
        <time>2018-09-09T14:50:04Z</time>
      </trkpt>
      <trkpt lat="45.5479" lon="6.15598">
        <ele>279.88</ele>
        <time>2018-09-09T14:50:05Z</time>
      </trkpt>
      <trkpt lat="45.54781" lon="6.15554">
        <ele>279.88</ele>
        <time>2018-09-09T14:50:06Z</time>
      </trkpt>
      <trkpt lat="45.54773" lon="6.15511">
        <ele>279.88</ele>
        <time>2018-09-09T14:50:07Z</time>
      </trkpt>
      <trkpt lat="45.54764" lon="6.15467">
        <ele>279.88</ele>
        <time>2018-09-09T14:50:08Z</time>
      </trkpt>
      <trkpt lat="45.54756" lon="6.15423">
        <ele>279.88</ele>
        <time>2018-09-09T14:50:09Z</time>
      </trkpt>
      <trkpt lat="45.54748" lon="6.15378">
        <ele>280.58</ele>
        <time>2018-09-09T14:50:10Z</time>
      </trkpt>
      <trkpt lat="45.54739" lon="6.15332">
        <ele>280.09</ele>
        <time>2018-09-09T14:50:11Z</time>
      </trkpt>
      <trkpt lat="45.54729" lon="6.15287">
        <ele>279.94</ele>
        <time>2018-09-09T14:50:12Z</time>
      </trkpt>
      <trkpt lat="45.5472" lon="6.15242">
        <ele>279.9</ele>
        <time>2018-09-09T14:50:13Z</time>
      </trkpt>
      <trkpt lat="45.5471" lon="6.15197">
        <ele>280.58</ele>
        <time>2018-09-09T14:50:14Z</time>
      </trkpt>
      <trkpt lat="45.547" lon="6.15153">
        <ele>280.79</ele>
        <time>2018-09-09T14:50:15Z</time>
      </trkpt>
      <trkpt lat="45.54689" lon="6.1511">
        <ele>280.85</ele>
        <time>2018-09-09T14:50:16Z</time>
      </trkpt>
      <trkpt lat="45.54676" lon="6.15066">
        <ele>280.17</ele>
        <time>2018-09-09T14:50:17Z</time>
      </trkpt>
      <trkpt lat="45.54663" lon="6.15023">
        <ele>279.97</ele>
        <time>2018-09-09T14:50:18Z</time>
      </trkpt>
      <trkpt lat="45.54649" lon="6.14981">
        <ele>279.9</ele>
        <time>2018-09-09T14:50:19Z</time>
      </trkpt>
      <trkpt lat="45.54635" lon="6.14938">
        <ele>279.89</ele>
        <time>2018-09-09T14:50:20Z</time>
      </trkpt>
      <trkpt lat="45.5462" lon="6.14896">
        <ele>279.88</ele>
        <time>2018-09-09T14:50:21Z</time>
      </trkpt>
      <trkpt lat="45.54606" lon="6.14854">
        <ele>279.88</ele>
        <time>2018-09-09T14:50:22Z</time>
      </trkpt>
      <trkpt lat="45.54592" lon="6.14813">
        <ele>279.88</ele>
        <time>2018-09-09T14:50:23Z</time>
      </trkpt>
      <trkpt lat="45.54576" lon="6.14771">
        <ele>279.88</ele>
        <time>2018-09-09T14:50:24Z</time>
      </trkpt>
      <trkpt lat="45.5456" lon="6.14731">
        <ele>279.88</ele>
        <time>2018-09-09T14:50:25Z</time>
      </trkpt>
      <trkpt lat="45.54542" lon="6.14691">
        <ele>279.88</ele>
        <time>2018-09-09T14:50:26Z</time>
      </trkpt>
      <trkpt lat="45.54525" lon="6.14651">
        <ele>279.88</ele>
        <time>2018-09-09T14:50:27Z</time>
      </trkpt>
      <trkpt lat="45.54506" lon="6.14612">
        <ele>279.18</ele>
        <time>2018-09-09T14:50:28Z</time>
      </trkpt>
      <trkpt lat="45.54487" lon="6.14574">
        <ele>278.97</ele>
        <time>2018-09-09T14:50:29Z</time>
      </trkpt>
      <trkpt lat="45.54468" lon="6.14536">
        <ele>278.9</ele>
        <time>2018-09-09T14:50:30Z</time>
      </trkpt>
      <trkpt lat="45.54447" lon="6.145">
        <ele>278.89</ele>
        <time>2018-09-09T14:50:31Z</time>
      </trkpt>
      <trkpt lat="45.54426" lon="6.14463">
        <ele>278.88</ele>
        <time>2018-09-09T14:50:32Z</time>
      </trkpt>
      <trkpt lat="45.54404" lon="6.14427">
        <ele>279.58</ele>
        <time>2018-09-09T14:50:33Z</time>
      </trkpt>
      <trkpt lat="45.54383" lon="6.14392">
        <ele>279.79</ele>
        <time>2018-09-09T14:50:34Z</time>
      </trkpt>
      <trkpt lat="45.54361" lon="6.14357">
        <ele>279.85</ele>
        <time>2018-09-09T14:50:35Z</time>
      </trkpt>
      <trkpt lat="45.5434" lon="6.14322">
        <ele>279.17</ele>
        <time>2018-09-09T14:50:36Z</time>
      </trkpt>
      <trkpt lat="45.54319" lon="6.14287">
        <ele>278.97</ele>
        <time>2018-09-09T14:50:37Z</time>
      </trkpt>
      <trkpt lat="45.54297" lon="6.14252">
        <ele>278.9</ele>
        <time>2018-09-09T14:50:38Z</time>
      </trkpt>
      <trkpt lat="45.54276" lon="6.14217">
        <ele>278.89</ele>
        <time>2018-09-09T14:50:39Z</time>
      </trkpt>
      <trkpt lat="45.54256" lon="6.14183">
        <ele>278.88</ele>
        <time>2018-09-09T14:50:40Z</time>
      </trkpt>
      <trkpt lat="45.54235" lon="6.14148">
        <ele>278.88</ele>
        <time>2018-09-09T14:50:41Z</time>
      </trkpt>
      <trkpt lat="45.54213" lon="6.14114">
        <ele>278.88</ele>
        <time>2018-09-09T14:50:42Z</time>
      </trkpt>
      <trkpt lat="45.54193" lon="6.14081">
        <ele>278.88</ele>
        <time>2018-09-09T14:50:43Z</time>
      </trkpt>
      <trkpt lat="45.54172" lon="6.14046">
        <ele>278.88</ele>
        <time>2018-09-09T14:50:44Z</time>
      </trkpt>
      <trkpt lat="45.54151" lon="6.14012">
        <ele>278.88</ele>
        <time>2018-09-09T14:50:45Z</time>
      </trkpt>
      <trkpt lat="45.54131" lon="6.13977">
        <ele>278.88</ele>
        <time>2018-09-09T14:50:46Z</time>
      </trkpt>
      <trkpt lat="45.5411" lon="6.13943">
        <ele>278.88</ele>
        <time>2018-09-09T14:50:47Z</time>
      </trkpt>
      <trkpt lat="45.54089" lon="6.1391">
        <ele>278.88</ele>
        <time>2018-09-09T14:50:48Z</time>
      </trkpt>
      <trkpt lat="45.54068" lon="6.13876">
        <ele>278.88</ele>
        <time>2018-09-09T14:50:49Z</time>
      </trkpt>
      <trkpt lat="45.54047" lon="6.13842">
        <ele>278.88</ele>
        <time>2018-09-09T14:50:50Z</time>
      </trkpt>
      <trkpt lat="45.54027" lon="6.13808">
        <ele>279.58</ele>
        <time>2018-09-09T14:50:51Z</time>
      </trkpt>
      <trkpt lat="45.54006" lon="6.13774">
        <ele>279.79</ele>
        <time>2018-09-09T14:50:52Z</time>
      </trkpt>
      <trkpt lat="45.53985" lon="6.13738">
        <ele>279.15</ele>
        <time>2018-09-09T14:50:53Z</time>
      </trkpt>
      <trkpt lat="45.53964" lon="6.13703">
        <ele>279.66</ele>
        <time>2018-09-09T14:50:54Z</time>
      </trkpt>
      <trkpt lat="45.53943" lon="6.13668">
        <ele>279.11</ele>
        <time>2018-09-09T14:50:55Z</time>
      </trkpt>
      <trkpt lat="45.53921" lon="6.13634">
        <ele>278.95</ele>
        <time>2018-09-09T14:50:56Z</time>
      </trkpt>
      <trkpt lat="45.53899" lon="6.13598">
        <ele>278.9</ele>
        <time>2018-09-09T14:50:57Z</time>
      </trkpt>
      <trkpt lat="45.53877" lon="6.13562">
        <ele>278.18</ele>
        <time>2018-09-09T14:50:58Z</time>
      </trkpt>
      <trkpt lat="45.53855" lon="6.13526">
        <ele>277.97</ele>
        <time>2018-09-09T14:50:59Z</time>
      </trkpt>
      <trkpt lat="45.53833" lon="6.1349">
        <ele>277.91</ele>
        <time>2018-09-09T14:51:00Z</time>
      </trkpt>
      <trkpt lat="45.53811" lon="6.13453">
        <ele>277.89</ele>
        <time>2018-09-09T14:51:01Z</time>
      </trkpt>
      <trkpt lat="45.53789" lon="6.13417">
        <ele>277.88</ele>
        <time>2018-09-09T14:51:02Z</time>
      </trkpt>
      <trkpt lat="45.53767" lon="6.13381">
        <ele>277.88</ele>
        <time>2018-09-09T14:51:03Z</time>
      </trkpt>
      <trkpt lat="45.53745" lon="6.13345">
        <ele>278.58</ele>
        <time>2018-09-09T14:51:04Z</time>
      </trkpt>
      <trkpt lat="45.53723" lon="6.13309">
        <ele>278.79</ele>
        <time>2018-09-09T14:51:05Z</time>
      </trkpt>
      <trkpt lat="45.53701" lon="6.13273">
        <ele>278.85</ele>
        <time>2018-09-09T14:51:06Z</time>
      </trkpt>
      <trkpt lat="45.5368" lon="6.13238">
        <ele>278.87</ele>
        <time>2018-09-09T14:51:07Z</time>
      </trkpt>
      <trkpt lat="45.53658" lon="6.13202">
        <ele>278.88</ele>
        <time>2018-09-09T14:51:08Z</time>
      </trkpt>
      <trkpt lat="45.53637" lon="6.13167">
        <ele>278.88</ele>
        <time>2018-09-09T14:51:09Z</time>
      </trkpt>
      <trkpt lat="45.53615" lon="6.13132">
        <ele>278.88</ele>
        <time>2018-09-09T14:51:10Z</time>
      </trkpt>
      <trkpt lat="45.53593" lon="6.13097">
        <ele>278.88</ele>
        <time>2018-09-09T14:51:11Z</time>
      </trkpt>
      <trkpt lat="45.53572" lon="6.13062">
        <ele>278.88</ele>
        <time>2018-09-09T14:51:12Z</time>
      </trkpt>
      <trkpt lat="45.53551" lon="6.13027">
        <ele>278.88</ele>
        <time>2018-09-09T14:51:13Z</time>
      </trkpt>
      <trkpt lat="45.53529" lon="6.12992">
        <ele>278.88</ele>
        <time>2018-09-09T14:51:14Z</time>
      </trkpt>
      <trkpt lat="45.53508" lon="6.12957">
        <ele>278.18</ele>
        <time>2018-09-09T14:51:15Z</time>
      </trkpt>
      <trkpt lat="45.53487" lon="6.12922">
        <ele>277.97</ele>
        <time>2018-09-09T14:51:16Z</time>
      </trkpt>
      <trkpt lat="45.53465" lon="6.12886">
        <ele>277.9</ele>
        <time>2018-09-09T14:51:17Z</time>
      </trkpt>
      <trkpt lat="45.53443" lon="6.12851">
        <ele>277.89</ele>
        <time>2018-09-09T14:51:18Z</time>
      </trkpt>
      <trkpt lat="45.53421" lon="6.12815">
        <ele>277.88</ele>
        <time>2018-09-09T14:51:19Z</time>
      </trkpt>
      <trkpt lat="45.53399" lon="6.12779">
        <ele>277.18</ele>
        <time>2018-09-09T14:51:20Z</time>
      </trkpt>
      <trkpt lat="45.53377" lon="6.12744">
        <ele>276.97</ele>
        <time>2018-09-09T14:51:21Z</time>
      </trkpt>
      <trkpt lat="45.53356" lon="6.12708">
        <ele>276.91</ele>
        <time>2018-09-09T14:51:22Z</time>
      </trkpt>
      <trkpt lat="45.53334" lon="6.12673">
        <ele>276.89</ele>
        <time>2018-09-09T14:51:23Z</time>
      </trkpt>
      <trkpt lat="45.53312" lon="6.12639">
        <ele>276.18</ele>
        <time>2018-09-09T14:51:24Z</time>
      </trkpt>
      <trkpt lat="45.53291" lon="6.12605">
        <ele>276.67</ele>
        <time>2018-09-09T14:51:25Z</time>
      </trkpt>
      <trkpt lat="45.53269" lon="6.12572">
        <ele>276.82</ele>
        <time>2018-09-09T14:51:26Z</time>
      </trkpt>
      <trkpt lat="45.53248" lon="6.12539">
        <ele>276.86</ele>
        <time>2018-09-09T14:51:27Z</time>
      </trkpt>
      <trkpt lat="45.53226" lon="6.12507">
        <ele>276.87</ele>
        <time>2018-09-09T14:51:28Z</time>
      </trkpt>
      <trkpt lat="45.53204" lon="6.12475">
        <ele>276.18</ele>
        <time>2018-09-09T14:51:29Z</time>
      </trkpt>
      <trkpt lat="45.53182" lon="6.12443">
        <ele>275.97</ele>
        <time>2018-09-09T14:51:30Z</time>
      </trkpt>
      <trkpt lat="45.5316" lon="6.12412">
        <ele>275.9</ele>
        <time>2018-09-09T14:51:31Z</time>
      </trkpt>
      <trkpt lat="45.53137" lon="6.12381">
        <ele>275.19</ele>
        <time>2018-09-09T14:51:32Z</time>
      </trkpt>
      <trkpt lat="45.53114" lon="6.12351">
        <ele>274.97</ele>
        <time>2018-09-09T14:51:33Z</time>
      </trkpt>
      <trkpt lat="45.53091" lon="6.12322">
        <ele>274.91</ele>
        <time>2018-09-09T14:51:34Z</time>
      </trkpt>
      <trkpt lat="45.53068" lon="6.12292">
        <ele>274.89</ele>
        <time>2018-09-09T14:51:35Z</time>
      </trkpt>
      <trkpt lat="45.53045" lon="6.12263">
        <ele>274.88</ele>
        <time>2018-09-09T14:51:36Z</time>
      </trkpt>
      <trkpt lat="45.53022" lon="6.12233">
        <ele>274.88</ele>
        <time>2018-09-09T14:51:37Z</time>
      </trkpt>
      <trkpt lat="45.52999" lon="6.12204">
        <ele>275.58</ele>
        <time>2018-09-09T14:51:38Z</time>
      </trkpt>
      <trkpt lat="45.52976" lon="6.12175">
        <ele>275.79</ele>
        <time>2018-09-09T14:51:39Z</time>
      </trkpt>
      <trkpt lat="45.52953" lon="6.12146">
        <ele>275.85</ele>
        <time>2018-09-09T14:51:40Z</time>
      </trkpt>
      <trkpt lat="45.5293" lon="6.12117">
        <ele>275.17</ele>
        <time>2018-09-09T14:51:41Z</time>
      </trkpt>
      <trkpt lat="45.52907" lon="6.12088">
        <ele>274.97</ele>
        <time>2018-09-09T14:51:42Z</time>
      </trkpt>
      <trkpt lat="45.52884" lon="6.12059">
        <ele>274.9</ele>
        <time>2018-09-09T14:51:43Z</time>
      </trkpt>
      <trkpt lat="45.52861" lon="6.1203">
        <ele>274.89</ele>
        <time>2018-09-09T14:51:44Z</time>
      </trkpt>
      <trkpt lat="45.52837" lon="6.12001">
        <ele>274.88</ele>
        <time>2018-09-09T14:51:45Z</time>
      </trkpt>
      <trkpt lat="45.52815" lon="6.11972">
        <ele>274.18</ele>
        <time>2018-09-09T14:51:46Z</time>
      </trkpt>
      <trkpt lat="45.52791" lon="6.11943">
        <ele>273.97</ele>
        <time>2018-09-09T14:51:47Z</time>
      </trkpt>
      <trkpt lat="45.52768" lon="6.11914">
        <ele>273.91</ele>
        <time>2018-09-09T14:51:48Z</time>
      </trkpt>
      <trkpt lat="45.52745" lon="6.11885">
        <ele>273.89</ele>
        <time>2018-09-09T14:51:49Z</time>
      </trkpt>
      <trkpt lat="45.52722" lon="6.11856">
        <ele>273.88</ele>
        <time>2018-09-09T14:51:50Z</time>
      </trkpt>
      <trkpt lat="45.52699" lon="6.11827">
        <ele>273.88</ele>
        <time>2018-09-09T14:51:51Z</time>
      </trkpt>
      <trkpt lat="45.52676" lon="6.11798">
        <ele>274.58</ele>
        <time>2018-09-09T14:51:52Z</time>
      </trkpt>
      <trkpt lat="45.52653" lon="6.11768">
        <ele>274.09</ele>
        <time>2018-09-09T14:51:53Z</time>
      </trkpt>
      <trkpt lat="45.52629" lon="6.11739">
        <ele>273.94</ele>
        <time>2018-09-09T14:51:54Z</time>
      </trkpt>
      <trkpt lat="45.52606" lon="6.11709">
        <ele>273.9</ele>
        <time>2018-09-09T14:51:55Z</time>
      </trkpt>
      <trkpt lat="45.52583" lon="6.1168">
        <ele>273.88</ele>
        <time>2018-09-09T14:51:56Z</time>
      </trkpt>
      <trkpt lat="45.5256" lon="6.1165">
        <ele>274.58</ele>
        <time>2018-09-09T14:51:57Z</time>
      </trkpt>
      <trkpt lat="45.52537" lon="6.1162">
        <ele>274.09</ele>
        <time>2018-09-09T14:51:58Z</time>
      </trkpt>
      <trkpt lat="45.52513" lon="6.11589">
        <ele>273.94</ele>
        <time>2018-09-09T14:51:59Z</time>
      </trkpt>
      <trkpt lat="45.5249" lon="6.11559">
        <ele>273.9</ele>
        <time>2018-09-09T14:52:00Z</time>
      </trkpt>
      <trkpt lat="45.52466" lon="6.11529">
        <ele>273.18</ele>
        <time>2018-09-09T14:52:01Z</time>
      </trkpt>
      <trkpt lat="45.52441" lon="6.115">
        <ele>272.97</ele>
        <time>2018-09-09T14:52:02Z</time>
      </trkpt>
      <trkpt lat="45.52415" lon="6.11471">
        <ele>272.91</ele>
        <time>2018-09-09T14:52:03Z</time>
      </trkpt>
      <trkpt lat="45.5239" lon="6.11444">
        <ele>272.89</ele>
        <time>2018-09-09T14:52:04Z</time>
      </trkpt>
      <trkpt lat="45.52363" lon="6.11416">
        <ele>272.88</ele>
        <time>2018-09-09T14:52:05Z</time>
      </trkpt>
      <trkpt lat="45.52336" lon="6.1139">
        <ele>272.88</ele>
        <time>2018-09-09T14:52:06Z</time>
      </trkpt>
      <trkpt lat="45.52309" lon="6.11364">
        <ele>272.18</ele>
        <time>2018-09-09T14:52:07Z</time>
      </trkpt>
      <trkpt lat="45.52281" lon="6.11338">
        <ele>271.97</ele>
        <time>2018-09-09T14:52:08Z</time>
      </trkpt>
      <trkpt lat="45.52253" lon="6.11314">
        <ele>271.91</ele>
        <time>2018-09-09T14:52:09Z</time>
      </trkpt>
      <trkpt lat="45.52224" lon="6.11291">
        <ele>271.89</ele>
        <time>2018-09-09T14:52:10Z</time>
      </trkpt>
      <trkpt lat="45.52195" lon="6.11267">
        <ele>272.58</ele>
        <time>2018-09-09T14:52:11Z</time>
      </trkpt>
      <trkpt lat="45.52166" lon="6.11245">
        <ele>272.79</ele>
        <time>2018-09-09T14:52:12Z</time>
      </trkpt>
      <trkpt lat="45.52137" lon="6.11222">
        <ele>272.85</ele>
        <time>2018-09-09T14:52:13Z</time>
      </trkpt>
      <trkpt lat="45.52108" lon="6.11201">
        <ele>272.17</ele>
        <time>2018-09-09T14:52:14Z</time>
      </trkpt>
      <trkpt lat="45.52078" lon="6.1118">
        <ele>271.97</ele>
        <time>2018-09-09T14:52:15Z</time>
      </trkpt>
      <trkpt lat="45.52049" lon="6.11157">
        <ele>271.2</ele>
        <time>2018-09-09T14:52:16Z</time>
      </trkpt>
      <trkpt lat="45.5202" lon="6.11134">
        <ele>271.68</ele>
        <time>2018-09-09T14:52:17Z</time>
      </trkpt>
      <trkpt lat="45.51991" lon="6.11111">
        <ele>271.82</ele>
        <time>2018-09-09T14:52:18Z</time>
      </trkpt>
      <trkpt lat="45.51962" lon="6.11088">
        <ele>271.16</ele>
        <time>2018-09-09T14:52:19Z</time>
      </trkpt>
      <trkpt lat="45.51933" lon="6.11064">
        <ele>270.96</ele>
        <time>2018-09-09T14:52:20Z</time>
      </trkpt>
      <trkpt lat="45.51905" lon="6.1104">
        <ele>270.9</ele>
        <time>2018-09-09T14:52:21Z</time>
      </trkpt>
      <trkpt lat="45.51878" lon="6.11015">
        <ele>270.89</ele>
        <time>2018-09-09T14:52:22Z</time>
      </trkpt>
      <trkpt lat="45.5185" lon="6.10989">
        <ele>270.88</ele>
        <time>2018-09-09T14:52:23Z</time>
      </trkpt>
      <trkpt lat="45.51823" lon="6.10962">
        <ele>270.18</ele>
        <time>2018-09-09T14:52:24Z</time>
      </trkpt>
      <trkpt lat="45.51795" lon="6.10935">
        <ele>269.97</ele>
        <time>2018-09-09T14:52:25Z</time>
      </trkpt>
      <trkpt lat="45.51768" lon="6.10907">
        <ele>269.91</ele>
        <time>2018-09-09T14:52:26Z</time>
      </trkpt>
      <trkpt lat="45.51742" lon="6.10878">
        <ele>269.89</ele>
        <time>2018-09-09T14:52:27Z</time>
      </trkpt>
      <trkpt lat="45.51716" lon="6.10848">
        <ele>269.88</ele>
        <time>2018-09-09T14:52:28Z</time>
      </trkpt>
      <trkpt lat="45.51691" lon="6.10818">
        <ele>269.88</ele>
        <time>2018-09-09T14:52:29Z</time>
      </trkpt>
      <trkpt lat="45.51665" lon="6.10786">
        <ele>269.88</ele>
        <time>2018-09-09T14:52:30Z</time>
      </trkpt>
      <trkpt lat="45.5164" lon="6.10755">
        <ele>269.88</ele>
        <time>2018-09-09T14:52:31Z</time>
      </trkpt>
      <trkpt lat="45.51615" lon="6.10722">
        <ele>269.18</ele>
        <time>2018-09-09T14:52:32Z</time>
      </trkpt>
      <trkpt lat="45.5159" lon="6.1069">
        <ele>268.97</ele>
        <time>2018-09-09T14:52:33Z</time>
      </trkpt>
      <trkpt lat="45.51566" lon="6.10658">
        <ele>268.9</ele>
        <time>2018-09-09T14:52:34Z</time>
      </trkpt>
      <trkpt lat="45.51542" lon="6.10625">
        <ele>268.89</ele>
        <time>2018-09-09T14:52:35Z</time>
      </trkpt>
      <trkpt lat="45.51518" lon="6.10591">
        <ele>268.88</ele>
        <time>2018-09-09T14:52:36Z</time>
      </trkpt>
      <trkpt lat="45.51494" lon="6.10559">
        <ele>269.58</ele>
        <time>2018-09-09T14:52:37Z</time>
      </trkpt>
      <trkpt lat="45.51469" lon="6.10526">
        <ele>269.79</ele>
        <time>2018-09-09T14:52:38Z</time>
      </trkpt>
      <trkpt lat="45.51445" lon="6.10494">
        <ele>269.85</ele>
        <time>2018-09-09T14:52:39Z</time>
      </trkpt>
      <trkpt lat="45.51421" lon="6.10461">
        <ele>269.87</ele>
        <time>2018-09-09T14:52:40Z</time>
      </trkpt>
      <trkpt lat="45.51396" lon="6.10429">
        <ele>269.88</ele>
        <time>2018-09-09T14:52:41Z</time>
      </trkpt>
      <trkpt lat="45.51372" lon="6.10398">
        <ele>269.88</ele>
        <time>2018-09-09T14:52:42Z</time>
      </trkpt>
      <trkpt lat="45.51348" lon="6.10366">
        <ele>269.88</ele>
        <time>2018-09-09T14:52:43Z</time>
      </trkpt>
      <trkpt lat="45.51324" lon="6.10334">
        <ele>269.88</ele>
        <time>2018-09-09T14:52:44Z</time>
      </trkpt>
      <trkpt lat="45.513" lon="6.10302">
        <ele>269.88</ele>
        <time>2018-09-09T14:52:45Z</time>
      </trkpt>
      <trkpt lat="45.51277" lon="6.1027">
        <ele>269.88</ele>
        <time>2018-09-09T14:52:46Z</time>
      </trkpt>
      <trkpt lat="45.51253" lon="6.10238">
        <ele>269.88</ele>
        <time>2018-09-09T14:52:47Z</time>
      </trkpt>
      <trkpt lat="45.51229" lon="6.10206">
        <ele>269.88</ele>
        <time>2018-09-09T14:52:48Z</time>
      </trkpt>
      <trkpt lat="45.51206" lon="6.10174">
        <ele>269.18</ele>
        <time>2018-09-09T14:52:49Z</time>
      </trkpt>
      <trkpt lat="45.51182" lon="6.10142">
        <ele>268.97</ele>
        <time>2018-09-09T14:52:50Z</time>
      </trkpt>
      <trkpt lat="45.51159" lon="6.10109">
        <ele>268.9</ele>
        <time>2018-09-09T14:52:51Z</time>
      </trkpt>
      <trkpt lat="45.51136" lon="6.10076">
        <ele>268.19</ele>
        <time>2018-09-09T14:52:52Z</time>
      </trkpt>
      <trkpt lat="45.51114" lon="6.10043">
        <ele>268.67</ele>
        <time>2018-09-09T14:52:53Z</time>
      </trkpt>
      <trkpt lat="45.51093" lon="6.10009">
        <ele>268.82</ele>
        <time>2018-09-09T14:52:54Z</time>
      </trkpt>
      <trkpt lat="45.51072" lon="6.09975">
        <ele>268.86</ele>
        <time>2018-09-09T14:52:55Z</time>
      </trkpt>
      <trkpt lat="45.51053" lon="6.0994">
        <ele>268.87</ele>
        <time>2018-09-09T14:52:56Z</time>
      </trkpt>
      <trkpt lat="45.51034" lon="6.09904">
        <ele>269.58</ele>
        <time>2018-09-09T14:52:57Z</time>
      </trkpt>
      <trkpt lat="45.51015" lon="6.09867">
        <ele>269.79</ele>
        <time>2018-09-09T14:52:58Z</time>
      </trkpt>
      <trkpt lat="45.50996" lon="6.0983">
        <ele>269.15</ele>
        <time>2018-09-09T14:52:59Z</time>
      </trkpt>
      <trkpt lat="45.50977" lon="6.09792">
        <ele>268.96</ele>
        <time>2018-09-09T14:53:00Z</time>
      </trkpt>
      <trkpt lat="45.50959" lon="6.09754">
        <ele>268.9</ele>
        <time>2018-09-09T14:53:01Z</time>
      </trkpt>
      <trkpt lat="45.50941" lon="6.09714">
        <ele>268.89</ele>
        <time>2018-09-09T14:53:02Z</time>
      </trkpt>
      <trkpt lat="45.50923" lon="6.09673">
        <ele>268.88</ele>
        <time>2018-09-09T14:53:03Z</time>
      </trkpt>
      <trkpt lat="45.50906" lon="6.09632">
        <ele>268.88</ele>
        <time>2018-09-09T14:53:04Z</time>
      </trkpt>
      <trkpt lat="45.50891" lon="6.0959">
        <ele>268.88</ele>
        <time>2018-09-09T14:53:05Z</time>
      </trkpt>
      <trkpt lat="45.50875" lon="6.09548">
        <ele>268.88</ele>
        <time>2018-09-09T14:53:06Z</time>
      </trkpt>
      <trkpt lat="45.50861" lon="6.09506">
        <ele>268.88</ele>
        <time>2018-09-09T14:53:07Z</time>
      </trkpt>
      <trkpt lat="45.50847" lon="6.09463">
        <ele>268.18</ele>
        <time>2018-09-09T14:53:08Z</time>
      </trkpt>
      <trkpt lat="45.50833" lon="6.0942">
        <ele>267.97</ele>
        <time>2018-09-09T14:53:09Z</time>
      </trkpt>
      <trkpt lat="45.50819" lon="6.09378">
        <ele>267.9</ele>
        <time>2018-09-09T14:53:10Z</time>
      </trkpt>
      <trkpt lat="45.50806" lon="6.09335">
        <ele>267.89</ele>
        <time>2018-09-09T14:53:11Z</time>
      </trkpt>
      <trkpt lat="45.50793" lon="6.09292">
        <ele>267.88</ele>
        <time>2018-09-09T14:53:12Z</time>
      </trkpt>
      <trkpt lat="45.50779" lon="6.0925">
        <ele>267.88</ele>
        <time>2018-09-09T14:53:13Z</time>
      </trkpt>
      <trkpt lat="45.50765" lon="6.09207">
        <ele>267.88</ele>
        <time>2018-09-09T14:53:14Z</time>
      </trkpt>
      <trkpt lat="45.50752" lon="6.09165">
        <ele>267.88</ele>
        <time>2018-09-09T14:53:15Z</time>
      </trkpt>
      <trkpt lat="45.50739" lon="6.09122">
        <ele>267.88</ele>
        <time>2018-09-09T14:53:16Z</time>
      </trkpt>
      <trkpt lat="45.50725" lon="6.0908">
        <ele>267.88</ele>
        <time>2018-09-09T14:53:17Z</time>
      </trkpt>
      <trkpt lat="45.50712" lon="6.09039">
        <ele>267.88</ele>
        <time>2018-09-09T14:53:18Z</time>
      </trkpt>
      <trkpt lat="45.50698" lon="6.08997">
        <ele>267.88</ele>
        <time>2018-09-09T14:53:19Z</time>
      </trkpt>
      <trkpt lat="45.50684" lon="6.08956">
        <ele>267.88</ele>
        <time>2018-09-09T14:53:20Z</time>
      </trkpt>
      <trkpt lat="45.5067" lon="6.08915">
        <ele>267.88</ele>
        <time>2018-09-09T14:53:21Z</time>
      </trkpt>
      <trkpt lat="45.50656" lon="6.08874">
        <ele>267.88</ele>
        <time>2018-09-09T14:53:22Z</time>
      </trkpt>
      <trkpt lat="45.50641" lon="6.08833">
        <ele>267.88</ele>
        <time>2018-09-09T14:53:23Z</time>
      </trkpt>
      <trkpt lat="45.50626" lon="6.08793">
        <ele>267.88</ele>
        <time>2018-09-09T14:53:24Z</time>
      </trkpt>
      <trkpt lat="45.5061" lon="6.08754">
        <ele>267.88</ele>
        <time>2018-09-09T14:53:25Z</time>
      </trkpt>
      <trkpt lat="45.50596" lon="6.08715">
        <ele>267.88</ele>
        <time>2018-09-09T14:53:26Z</time>
      </trkpt>
      <trkpt lat="45.5058" lon="6.08675">
        <ele>267.88</ele>
        <time>2018-09-09T14:53:27Z</time>
      </trkpt>
      <trkpt lat="45.50564" lon="6.08637">
        <ele>267.88</ele>
        <time>2018-09-09T14:53:28Z</time>
      </trkpt>
      <trkpt lat="45.50547" lon="6.08599">
        <ele>267.88</ele>
        <time>2018-09-09T14:53:29Z</time>
      </trkpt>
      <trkpt lat="45.5053" lon="6.08561">
        <ele>267.88</ele>
        <time>2018-09-09T14:53:30Z</time>
      </trkpt>
      <trkpt lat="45.50512" lon="6.08524">
        <ele>267.88</ele>
        <time>2018-09-09T14:53:31Z</time>
      </trkpt>
      <trkpt lat="45.50495" lon="6.08487">
        <ele>267.88</ele>
        <time>2018-09-09T14:53:32Z</time>
      </trkpt>
      <trkpt lat="45.50477" lon="6.0845">
        <ele>267.88</ele>
        <time>2018-09-09T14:53:33Z</time>
      </trkpt>
      <trkpt lat="45.50458" lon="6.08415">
        <ele>267.88</ele>
        <time>2018-09-09T14:53:34Z</time>
      </trkpt>
      <trkpt lat="45.50439" lon="6.08378">
        <ele>267.88</ele>
        <time>2018-09-09T14:53:35Z</time>
      </trkpt>
      <trkpt lat="45.50419" lon="6.08343">
        <ele>267.88</ele>
        <time>2018-09-09T14:53:36Z</time>
      </trkpt>
      <trkpt lat="45.50399" lon="6.08307">
        <ele>267.88</ele>
        <time>2018-09-09T14:53:37Z</time>
      </trkpt>
      <trkpt lat="45.50379" lon="6.08272">
        <ele>268.58</ele>
        <time>2018-09-09T14:53:38Z</time>
      </trkpt>
      <trkpt lat="45.50359" lon="6.08237">
        <ele>268.09</ele>
        <time>2018-09-09T14:53:39Z</time>
      </trkpt>
      <trkpt lat="45.50338" lon="6.08203">
        <ele>267.94</ele>
        <time>2018-09-09T14:53:40Z</time>
      </trkpt>
      <trkpt lat="45.50318" lon="6.0817">
        <ele>267.9</ele>
        <time>2018-09-09T14:53:41Z</time>
      </trkpt>
      <trkpt lat="45.50296" lon="6.08136">
        <ele>267.88</ele>
        <time>2018-09-09T14:53:42Z</time>
      </trkpt>
      <trkpt lat="45.50274" lon="6.08104">
        <ele>267.88</ele>
        <time>2018-09-09T14:53:43Z</time>
      </trkpt>
      <trkpt lat="45.50252" lon="6.08071">
        <ele>267.88</ele>
        <time>2018-09-09T14:53:44Z</time>
      </trkpt>
      <trkpt lat="45.5023" lon="6.08038">
        <ele>267.88</ele>
        <time>2018-09-09T14:53:45Z</time>
      </trkpt>
      <trkpt lat="45.50207" lon="6.08006">
        <ele>267.88</ele>
        <time>2018-09-09T14:53:46Z</time>
      </trkpt>
      <trkpt lat="45.50183" lon="6.07973">
        <ele>267.88</ele>
        <time>2018-09-09T14:53:47Z</time>
      </trkpt>
      <trkpt lat="45.5016" lon="6.0794">
        <ele>267.88</ele>
        <time>2018-09-09T14:53:48Z</time>
      </trkpt>
      <trkpt lat="45.50136" lon="6.07907">
        <ele>267.18</ele>
        <time>2018-09-09T14:53:49Z</time>
      </trkpt>
      <trkpt lat="45.50112" lon="6.07874">
        <ele>266.97</ele>
        <time>2018-09-09T14:53:50Z</time>
      </trkpt>
      <trkpt lat="45.50088" lon="6.07841">
        <ele>266.9</ele>
        <time>2018-09-09T14:53:51Z</time>
      </trkpt>
      <trkpt lat="45.50065" lon="6.07807">
        <ele>266.89</ele>
        <time>2018-09-09T14:53:52Z</time>
      </trkpt>
      <trkpt lat="45.50041" lon="6.07773">
        <ele>266.88</ele>
        <time>2018-09-09T14:53:53Z</time>
      </trkpt>
      <trkpt lat="45.50018" lon="6.0774">
        <ele>266.88</ele>
        <time>2018-09-09T14:53:54Z</time>
      </trkpt>
      <trkpt lat="45.49995" lon="6.07707">
        <ele>266.88</ele>
        <time>2018-09-09T14:53:55Z</time>
      </trkpt>
      <trkpt lat="45.49972" lon="6.07673">
        <ele>266.88</ele>
        <time>2018-09-09T14:53:56Z</time>
      </trkpt>
      <trkpt lat="45.4995" lon="6.07638">
        <ele>266.88</ele>
        <time>2018-09-09T14:53:57Z</time>
      </trkpt>
      <trkpt lat="45.49929" lon="6.07603">
        <ele>266.88</ele>
        <time>2018-09-09T14:53:58Z</time>
      </trkpt>
      <trkpt lat="45.49908" lon="6.07568">
        <ele>266.88</ele>
        <time>2018-09-09T14:53:59Z</time>
      </trkpt>
      <trkpt lat="45.49888" lon="6.07531">
        <ele>266.88</ele>
        <time>2018-09-09T14:54:00Z</time>
      </trkpt>
      <trkpt lat="45.49869" lon="6.07495">
        <ele>266.88</ele>
        <time>2018-09-09T14:54:01Z</time>
      </trkpt>
      <trkpt lat="45.4985" lon="6.07457">
        <ele>266.88</ele>
        <time>2018-09-09T14:54:02Z</time>
      </trkpt>
      <trkpt lat="45.49814" lon="6.0738">
        <ele>266.88</ele>
        <time>2018-09-09T14:54:04Z</time>
      </trkpt>
      <trkpt lat="45.49796" lon="6.07342">
        <ele>267.58</ele>
        <time>2018-09-09T14:54:05Z</time>
      </trkpt>
      <trkpt lat="45.4978" lon="6.07303">
        <ele>267.09</ele>
        <time>2018-09-09T14:54:06Z</time>
      </trkpt>
      <trkpt lat="45.49763" lon="6.07264">
        <ele>266.94</ele>
        <time>2018-09-09T14:54:07Z</time>
      </trkpt>
      <trkpt lat="45.49748" lon="6.07223">
        <ele>267.6</ele>
        <time>2018-09-09T14:54:08Z</time>
      </trkpt>
      <trkpt lat="45.49733" lon="6.07183">
        <ele>267.09</ele>
        <time>2018-09-09T14:54:09Z</time>
      </trkpt>
      <trkpt lat="45.49718" lon="6.07142">
        <ele>267.64</ele>
        <time>2018-09-09T14:54:10Z</time>
      </trkpt>
      <trkpt lat="45.49705" lon="6.07101">
        <ele>267.11</ele>
        <time>2018-09-09T14:54:11Z</time>
      </trkpt>
      <trkpt lat="45.49692" lon="6.07059">
        <ele>267.65</ele>
        <time>2018-09-09T14:54:12Z</time>
      </trkpt>
      <trkpt lat="45.4968" lon="6.07017">
        <ele>267.81</ele>
        <time>2018-09-09T14:54:13Z</time>
      </trkpt>
      <trkpt lat="45.49669" lon="6.06974">
        <ele>267.16</ele>
        <time>2018-09-09T14:54:14Z</time>
      </trkpt>
      <trkpt lat="45.49658" lon="6.06932">
        <ele>266.96</ele>
        <time>2018-09-09T14:54:15Z</time>
      </trkpt>
      <trkpt lat="45.49647" lon="6.0689">
        <ele>266.9</ele>
        <time>2018-09-09T14:54:16Z</time>
      </trkpt>
      <trkpt lat="45.49637" lon="6.06848">
        <ele>266.89</ele>
        <time>2018-09-09T14:54:17Z</time>
      </trkpt>
      <trkpt lat="45.49627" lon="6.06806">
        <ele>267.58</ele>
        <time>2018-09-09T14:54:18Z</time>
      </trkpt>
      <trkpt lat="45.49618" lon="6.06764">
        <ele>267.79</ele>
        <time>2018-09-09T14:54:19Z</time>
      </trkpt>
      <trkpt lat="45.49609" lon="6.06722">
        <ele>267.15</ele>
        <time>2018-09-09T14:54:20Z</time>
      </trkpt>
      <trkpt lat="45.49601" lon="6.0668">
        <ele>267.66</ele>
        <time>2018-09-09T14:54:21Z</time>
      </trkpt>
      <trkpt lat="45.49594" lon="6.06638">
        <ele>267.11</ele>
        <time>2018-09-09T14:54:22Z</time>
      </trkpt>
      <trkpt lat="45.49586" lon="6.06596">
        <ele>267.65</ele>
        <time>2018-09-09T14:54:23Z</time>
      </trkpt>
      <trkpt lat="45.49579" lon="6.06554">
        <ele>267.81</ele>
        <time>2018-09-09T14:54:24Z</time>
      </trkpt>
      <trkpt lat="45.49571" lon="6.06512">
        <ele>267.16</ele>
        <time>2018-09-09T14:54:25Z</time>
      </trkpt>
      <trkpt lat="45.49564" lon="6.06469">
        <ele>266.96</ele>
        <time>2018-09-09T14:54:26Z</time>
      </trkpt>
      <trkpt lat="45.49556" lon="6.06427">
        <ele>267.6</ele>
        <time>2018-09-09T14:54:27Z</time>
      </trkpt>
      <trkpt lat="45.49548" lon="6.06384">
        <ele>267.8</ele>
        <time>2018-09-09T14:54:28Z</time>
      </trkpt>
      <trkpt lat="45.49541" lon="6.06341">
        <ele>267.85</ele>
        <time>2018-09-09T14:54:29Z</time>
      </trkpt>
      <trkpt lat="45.49533" lon="6.06298">
        <ele>267.87</ele>
        <time>2018-09-09T14:54:30Z</time>
      </trkpt>
      <trkpt lat="45.49524" lon="6.06254">
        <ele>267.88</ele>
        <time>2018-09-09T14:54:31Z</time>
      </trkpt>
      <trkpt lat="45.49515" lon="6.0621">
        <ele>267.88</ele>
        <time>2018-09-09T14:54:32Z</time>
      </trkpt>
      <trkpt lat="45.49505" lon="6.06165">
        <ele>267.88</ele>
        <time>2018-09-09T14:54:33Z</time>
      </trkpt>
      <trkpt lat="45.49495" lon="6.06121">
        <ele>267.88</ele>
        <time>2018-09-09T14:54:34Z</time>
      </trkpt>
      <trkpt lat="45.49486" lon="6.06076">
        <ele>267.88</ele>
        <time>2018-09-09T14:54:35Z</time>
      </trkpt>
      <trkpt lat="45.49475" lon="6.06031">
        <ele>267.88</ele>
        <time>2018-09-09T14:54:36Z</time>
      </trkpt>
      <trkpt lat="45.49465" lon="6.05986">
        <ele>268.58</ele>
        <time>2018-09-09T14:54:37Z</time>
      </trkpt>
      <trkpt lat="45.49454" lon="6.05942">
        <ele>268.79</ele>
        <time>2018-09-09T14:54:38Z</time>
      </trkpt>
      <trkpt lat="45.49443" lon="6.05898">
        <ele>268.15</ele>
        <time>2018-09-09T14:54:39Z</time>
      </trkpt>
      <trkpt lat="45.49431" lon="6.05854">
        <ele>267.96</ele>
        <time>2018-09-09T14:54:40Z</time>
      </trkpt>
      <trkpt lat="45.49419" lon="6.05811">
        <ele>267.9</ele>
        <time>2018-09-09T14:54:41Z</time>
      </trkpt>
      <trkpt lat="45.49406" lon="6.05769">
        <ele>267.89</ele>
        <time>2018-09-09T14:54:42Z</time>
      </trkpt>
      <trkpt lat="45.49393" lon="6.05727">
        <ele>267.88</ele>
        <time>2018-09-09T14:54:43Z</time>
      </trkpt>
      <trkpt lat="45.4938" lon="6.05684">
        <ele>267.88</ele>
        <time>2018-09-09T14:54:44Z</time>
      </trkpt>
      <trkpt lat="45.49367" lon="6.05643">
        <ele>267.88</ele>
        <time>2018-09-09T14:54:45Z</time>
      </trkpt>
      <trkpt lat="45.49354" lon="6.05602">
        <ele>267.18</ele>
        <time>2018-09-09T14:54:46Z</time>
      </trkpt>
      <trkpt lat="45.49341" lon="6.05562">
        <ele>266.97</ele>
        <time>2018-09-09T14:54:47Z</time>
      </trkpt>
      <trkpt lat="45.49327" lon="6.05521">
        <ele>267.61</ele>
        <time>2018-09-09T14:54:48Z</time>
      </trkpt>
      <trkpt lat="45.49313" lon="6.05481">
        <ele>267.8</ele>
        <time>2018-09-09T14:54:49Z</time>
      </trkpt>
      <trkpt lat="45.49299" lon="6.05441">
        <ele>267.85</ele>
        <time>2018-09-09T14:54:50Z</time>
      </trkpt>
      <trkpt lat="45.49284" lon="6.05402">
        <ele>267.87</ele>
        <time>2018-09-09T14:54:51Z</time>
      </trkpt>
      <trkpt lat="45.49269" lon="6.05363">
        <ele>267.88</ele>
        <time>2018-09-09T14:54:52Z</time>
      </trkpt>
      <trkpt lat="45.49254" lon="6.05324">
        <ele>267.18</ele>
        <time>2018-09-09T14:54:53Z</time>
      </trkpt>
      <trkpt lat="45.49238" lon="6.05286">
        <ele>267.67</ele>
        <time>2018-09-09T14:54:54Z</time>
      </trkpt>
      <trkpt lat="45.49222" lon="6.05248">
        <ele>267.11</ele>
        <time>2018-09-09T14:54:55Z</time>
      </trkpt>
      <trkpt lat="45.49205" lon="6.0521">
        <ele>266.95</ele>
        <time>2018-09-09T14:54:56Z</time>
      </trkpt>
      <trkpt lat="45.49189" lon="6.05172">
        <ele>266.9</ele>
        <time>2018-09-09T14:54:57Z</time>
      </trkpt>
      <trkpt lat="45.49172" lon="6.05135">
        <ele>266.88</ele>
        <time>2018-09-09T14:54:58Z</time>
      </trkpt>
      <trkpt lat="45.49154" lon="6.05098">
        <ele>267.58</ele>
        <time>2018-09-09T14:54:59Z</time>
      </trkpt>
      <trkpt lat="45.49137" lon="6.0506">
        <ele>267.79</ele>
        <time>2018-09-09T14:55:00Z</time>
      </trkpt>
      <trkpt lat="45.49119" lon="6.05023">
        <ele>267.85</ele>
        <time>2018-09-09T14:55:01Z</time>
      </trkpt>
      <trkpt lat="45.491" lon="6.04987">
        <ele>267.87</ele>
        <time>2018-09-09T14:55:02Z</time>
      </trkpt>
      <trkpt lat="45.49082" lon="6.0495">
        <ele>267.88</ele>
        <time>2018-09-09T14:55:03Z</time>
      </trkpt>
      <trkpt lat="45.49062" lon="6.04914">
        <ele>268.58</ele>
        <time>2018-09-09T14:55:04Z</time>
      </trkpt>
      <trkpt lat="45.49043" lon="6.04879">
        <ele>268.79</ele>
        <time>2018-09-09T14:55:05Z</time>
      </trkpt>
      <trkpt lat="45.49023" lon="6.04844">
        <ele>268.85</ele>
        <time>2018-09-09T14:55:06Z</time>
      </trkpt>
      <trkpt lat="45.49003" lon="6.04809">
        <ele>268.87</ele>
        <time>2018-09-09T14:55:07Z</time>
      </trkpt>
      <trkpt lat="45.48983" lon="6.04775">
        <ele>268.88</ele>
        <time>2018-09-09T14:55:08Z</time>
      </trkpt>
      <trkpt lat="45.48963" lon="6.04741">
        <ele>268.88</ele>
        <time>2018-09-09T14:55:09Z</time>
      </trkpt>
      <trkpt lat="45.48943" lon="6.04708">
        <ele>268.88</ele>
        <time>2018-09-09T14:55:10Z</time>
      </trkpt>
      <trkpt lat="45.48922" lon="6.04676">
        <ele>268.88</ele>
        <time>2018-09-09T14:55:11Z</time>
      </trkpt>
      <trkpt lat="45.48901" lon="6.04643">
        <ele>268.88</ele>
        <time>2018-09-09T14:55:12Z</time>
      </trkpt>
      <trkpt lat="45.4888" lon="6.04611">
        <ele>269.58</ele>
        <time>2018-09-09T14:55:13Z</time>
      </trkpt>
      <trkpt lat="45.48859" lon="6.04581">
        <ele>269.79</ele>
        <time>2018-09-09T14:55:14Z</time>
      </trkpt>
      <trkpt lat="45.48836" lon="6.04551">
        <ele>269.85</ele>
        <time>2018-09-09T14:55:15Z</time>
      </trkpt>
      <trkpt lat="45.48814" lon="6.04521">
        <ele>269.17</ele>
        <time>2018-09-09T14:55:16Z</time>
      </trkpt>
      <trkpt lat="45.48792" lon="6.04492">
        <ele>268.97</ele>
        <time>2018-09-09T14:55:17Z</time>
      </trkpt>
      <trkpt lat="45.48769" lon="6.04464">
        <ele>268.2</ele>
        <time>2018-09-09T14:55:18Z</time>
      </trkpt>
      <trkpt lat="45.48745" lon="6.04436">
        <ele>267.28</ele>
        <time>2018-09-09T14:55:19Z</time>
      </trkpt>
      <trkpt lat="45.48721" lon="6.04408">
        <ele>267</ele>
        <time>2018-09-09T14:55:20Z</time>
      </trkpt>
      <trkpt lat="45.48696" lon="6.04382">
        <ele>266.21</ele>
        <time>2018-09-09T14:55:21Z</time>
      </trkpt>
      <trkpt lat="45.48671" lon="6.04355">
        <ele>265.28</ele>
        <time>2018-09-09T14:55:22Z</time>
      </trkpt>
      <trkpt lat="45.48645" lon="6.04328">
        <ele>264.3</ele>
        <time>2018-09-09T14:55:23Z</time>
      </trkpt>
      <trkpt lat="45.48619" lon="6.04302">
        <ele>263.3</ele>
        <time>2018-09-09T14:55:24Z</time>
      </trkpt>
      <trkpt lat="45.48593" lon="6.04276">
        <ele>263.01</ele>
        <time>2018-09-09T14:55:25Z</time>
      </trkpt>
      <trkpt lat="45.48568" lon="6.0425">
        <ele>262.22</ele>
        <time>2018-09-09T14:55:26Z</time>
      </trkpt>
      <trkpt lat="45.48542" lon="6.04225">
        <ele>261.28</ele>
        <time>2018-09-09T14:55:27Z</time>
      </trkpt>
      <trkpt lat="45.48516" lon="6.04198">
        <ele>261</ele>
        <time>2018-09-09T14:55:28Z</time>
      </trkpt>
      <trkpt lat="45.4849" lon="6.04172">
        <ele>260.91</ele>
        <time>2018-09-09T14:55:29Z</time>
      </trkpt>
      <trkpt lat="45.48464" lon="6.04144">
        <ele>260.19</ele>
        <time>2018-09-09T14:55:30Z</time>
      </trkpt>
      <trkpt lat="45.4844" lon="6.04116">
        <ele>259.27</ele>
        <time>2018-09-09T14:55:31Z</time>
      </trkpt>
      <trkpt lat="45.48415" lon="6.04086">
        <ele>259</ele>
        <time>2018-09-09T14:55:32Z</time>
      </trkpt>
      <trkpt lat="45.48392" lon="6.04053">
        <ele>258.91</ele>
        <time>2018-09-09T14:55:33Z</time>
      </trkpt>
      <trkpt lat="45.48369" lon="6.0402">
        <ele>258.89</ele>
        <time>2018-09-09T14:55:34Z</time>
      </trkpt>
      <trkpt lat="45.48347" lon="6.03987">
        <ele>258.88</ele>
        <time>2018-09-09T14:55:35Z</time>
      </trkpt>
      <trkpt lat="45.48328" lon="6.03951">
        <ele>258.88</ele>
        <time>2018-09-09T14:55:36Z</time>
      </trkpt>
      <trkpt lat="45.4831" lon="6.03915">
        <ele>259.58</ele>
        <time>2018-09-09T14:55:37Z</time>
      </trkpt>
      <trkpt lat="45.48294" lon="6.03878">
        <ele>259.79</ele>
        <time>2018-09-09T14:55:38Z</time>
      </trkpt>
      <trkpt lat="45.48278" lon="6.03841">
        <ele>259.85</ele>
        <time>2018-09-09T14:55:39Z</time>
      </trkpt>
      <trkpt lat="45.48262" lon="6.03803">
        <ele>259.87</ele>
        <time>2018-09-09T14:55:40Z</time>
      </trkpt>
      <trkpt lat="45.48249" lon="6.03765">
        <ele>259.88</ele>
        <time>2018-09-09T14:55:41Z</time>
      </trkpt>
      <trkpt lat="45.48237" lon="6.03727">
        <ele>259.88</ele>
        <time>2018-09-09T14:55:42Z</time>
      </trkpt>
      <trkpt lat="45.48226" lon="6.03688">
        <ele>260.58</ele>
        <time>2018-09-09T14:55:43Z</time>
      </trkpt>
      <trkpt lat="45.48216" lon="6.03648">
        <ele>260.79</ele>
        <time>2018-09-09T14:55:44Z</time>
      </trkpt>
      <trkpt lat="45.48207" lon="6.03609">
        <ele>260.85</ele>
        <time>2018-09-09T14:55:45Z</time>
      </trkpt>
      <trkpt lat="45.482" lon="6.03568">
        <ele>261.57</ele>
        <time>2018-09-09T14:55:46Z</time>
      </trkpt>
      <trkpt lat="45.48193" lon="6.03528">
        <ele>261.09</ele>
        <time>2018-09-09T14:55:47Z</time>
      </trkpt>
      <trkpt lat="45.48187" lon="6.03487">
        <ele>261.64</ele>
        <time>2018-09-09T14:55:48Z</time>
      </trkpt>
      <trkpt lat="45.48182" lon="6.03445">
        <ele>261.81</ele>
        <time>2018-09-09T14:55:49Z</time>
      </trkpt>
      <trkpt lat="45.4818" lon="6.03403">
        <ele>261.16</ele>
        <time>2018-09-09T14:55:50Z</time>
      </trkpt>
      <trkpt lat="45.48178" lon="6.0336">
        <ele>261.66</ele>
        <time>2018-09-09T14:55:51Z</time>
      </trkpt>
      <trkpt lat="45.48178" lon="6.03317">
        <ele>261.11</ele>
        <time>2018-09-09T14:55:52Z</time>
      </trkpt>
      <trkpt lat="45.48179" lon="6.03274">
        <ele>261.65</ele>
        <time>2018-09-09T14:55:53Z</time>
      </trkpt>
      <trkpt lat="45.48182" lon="6.03232">
        <ele>262.51</ele>
        <time>2018-09-09T14:55:54Z</time>
      </trkpt>
      <trkpt lat="45.48187" lon="6.0319">
        <ele>262.77</ele>
        <time>2018-09-09T14:55:55Z</time>
      </trkpt>
      <trkpt lat="45.48192" lon="6.03148">
        <ele>262.84</ele>
        <time>2018-09-09T14:55:56Z</time>
      </trkpt>
      <trkpt lat="45.48198" lon="6.03107">
        <ele>262.87</ele>
        <time>2018-09-09T14:55:57Z</time>
      </trkpt>
      <trkpt lat="45.48206" lon="6.03066">
        <ele>262.88</ele>
        <time>2018-09-09T14:55:58Z</time>
      </trkpt>
      <trkpt lat="45.48215" lon="6.03026">
        <ele>263.58</ele>
        <time>2018-09-09T14:55:59Z</time>
      </trkpt>
      <trkpt lat="45.48226" lon="6.02988">
        <ele>263.79</ele>
        <time>2018-09-09T14:56:00Z</time>
      </trkpt>
      <trkpt lat="45.48237" lon="6.0295">
        <ele>263.85</ele>
        <time>2018-09-09T14:56:01Z</time>
      </trkpt>
      <trkpt lat="45.4825" lon="6.02914">
        <ele>263.87</ele>
        <time>2018-09-09T14:56:02Z</time>
      </trkpt>
      <trkpt lat="45.48264" lon="6.02878">
        <ele>263.88</ele>
        <time>2018-09-09T14:56:03Z</time>
      </trkpt>
      <trkpt lat="45.4828" lon="6.02845">
        <ele>263.88</ele>
        <time>2018-09-09T14:56:04Z</time>
      </trkpt>
      <trkpt lat="45.48298" lon="6.02814">
        <ele>263.18</ele>
        <time>2018-09-09T14:56:05Z</time>
      </trkpt>
      <trkpt lat="45.48317" lon="6.02784">
        <ele>263.67</ele>
        <time>2018-09-09T14:56:06Z</time>
      </trkpt>
      <trkpt lat="45.48335" lon="6.02754">
        <ele>263.11</ele>
        <time>2018-09-09T14:56:07Z</time>
      </trkpt>
      <trkpt lat="45.48352" lon="6.02722">
        <ele>262.25</ele>
        <time>2018-09-09T14:56:08Z</time>
      </trkpt>
      <trkpt lat="45.48367" lon="6.02688">
        <ele>261.29</ele>
        <time>2018-09-09T14:56:09Z</time>
      </trkpt>
      <trkpt lat="45.4838" lon="6.02653">
        <ele>261</ele>
        <time>2018-09-09T14:56:10Z</time>
      </trkpt>
      <trkpt lat="45.48391" lon="6.02618">
        <ele>260.22</ele>
        <time>2018-09-09T14:56:11Z</time>
      </trkpt>
      <trkpt lat="45.48402" lon="6.02579">
        <ele>259.98</ele>
        <time>2018-09-09T14:56:12Z</time>
      </trkpt>
      <trkpt lat="45.48413" lon="6.0254">
        <ele>259.91</ele>
        <time>2018-09-09T14:56:13Z</time>
      </trkpt>
      <trkpt lat="45.48416" lon="6.02504">
        <ele>259.89</ele>
        <time>2018-09-09T14:56:14Z</time>
      </trkpt>
      <trkpt lat="45.48409" lon="6.02466">
        <ele>260.58</ele>
        <time>2018-09-09T14:56:15Z</time>
      </trkpt>
      <trkpt lat="45.48405" lon="6.02427">
        <ele>262.19</ele>
        <time>2018-09-09T14:56:16Z</time>
      </trkpt>
      <trkpt lat="45.48399" lon="6.0239">
        <ele>262.67</ele>
        <time>2018-09-09T14:56:17Z</time>
      </trkpt>
      <trkpt lat="45.48391" lon="6.02353">
        <ele>264.22</ele>
        <time>2018-09-09T14:56:18Z</time>
      </trkpt>
      <trkpt lat="45.48378" lon="6.02315">
        <ele>265.38</ele>
        <time>2018-09-09T14:56:19Z</time>
      </trkpt>
      <trkpt lat="45.48364" lon="6.0228">
        <ele>265.73</ele>
        <time>2018-09-09T14:56:20Z</time>
      </trkpt>
      <trkpt lat="45.48347" lon="6.02248">
        <ele>265.83</ele>
        <time>2018-09-09T14:56:21Z</time>
      </trkpt>
      <trkpt lat="45.48329" lon="6.02218">
        <ele>265.86</ele>
        <time>2018-09-09T14:56:22Z</time>
      </trkpt>
      <trkpt lat="45.48308" lon="6.02191">
        <ele>265.87</ele>
        <time>2018-09-09T14:56:23Z</time>
      </trkpt>
      <trkpt lat="45.48286" lon="6.02166">
        <ele>265.88</ele>
        <time>2018-09-09T14:56:24Z</time>
      </trkpt>
      <trkpt lat="45.48261" lon="6.02145">
        <ele>265.88</ele>
        <time>2018-09-09T14:56:25Z</time>
      </trkpt>
      <trkpt lat="45.48234" lon="6.02128">
        <ele>264.48</ele>
        <time>2018-09-09T14:56:26Z</time>
      </trkpt>
      <trkpt lat="45.48204" lon="6.02114">
        <ele>263.36</ele>
        <time>2018-09-09T14:56:27Z</time>
      </trkpt>
      <trkpt lat="45.48174" lon="6.02102">
        <ele>262.32</ele>
        <time>2018-09-09T14:56:28Z</time>
      </trkpt>
      <trkpt lat="45.48143" lon="6.02093">
        <ele>261.31</ele>
        <time>2018-09-09T14:56:29Z</time>
      </trkpt>
      <trkpt lat="45.48112" lon="6.02085">
        <ele>260.31</ele>
        <time>2018-09-09T14:56:30Z</time>
      </trkpt>
      <trkpt lat="45.48081" lon="6.02079">
        <ele>260.01</ele>
        <time>2018-09-09T14:56:31Z</time>
      </trkpt>
      <trkpt lat="45.4805" lon="6.02071">
        <ele>259.22</ele>
        <time>2018-09-09T14:56:32Z</time>
      </trkpt>
      <trkpt lat="45.48019" lon="6.02064">
        <ele>258.28</ele>
        <time>2018-09-09T14:56:33Z</time>
      </trkpt>
      <trkpt lat="45.47987" lon="6.02056">
        <ele>258</ele>
        <time>2018-09-09T14:56:34Z</time>
      </trkpt>
      <trkpt lat="45.47954" lon="6.02045">
        <ele>257.91</ele>
        <time>2018-09-09T14:56:35Z</time>
      </trkpt>
      <trkpt lat="45.47921" lon="6.02034">
        <ele>257.19</ele>
        <time>2018-09-09T14:56:36Z</time>
      </trkpt>
      <trkpt lat="45.47888" lon="6.02021">
        <ele>256.97</ele>
        <time>2018-09-09T14:56:37Z</time>
      </trkpt>
      <trkpt lat="45.47855" lon="6.02006">
        <ele>257.61</ele>
        <time>2018-09-09T14:56:38Z</time>
      </trkpt>
      <trkpt lat="45.47822" lon="6.01992">
        <ele>257.1</ele>
        <time>2018-09-09T14:56:39Z</time>
      </trkpt>
      <trkpt lat="45.47789" lon="6.01978">
        <ele>256.94</ele>
        <time>2018-09-09T14:56:40Z</time>
      </trkpt>
      <trkpt lat="45.47756" lon="6.01964">
        <ele>256.9</ele>
        <time>2018-09-09T14:56:41Z</time>
      </trkpt>
      <trkpt lat="45.47724" lon="6.0195">
        <ele>256.88</ele>
        <time>2018-09-09T14:56:42Z</time>
      </trkpt>
      <trkpt lat="45.47691" lon="6.01936">
        <ele>256.88</ele>
        <time>2018-09-09T14:56:43Z</time>
      </trkpt>
      <trkpt lat="45.47658" lon="6.01921">
        <ele>256.88</ele>
        <time>2018-09-09T14:56:44Z</time>
      </trkpt>
      <trkpt lat="45.47625" lon="6.01907">
        <ele>256.88</ele>
        <time>2018-09-09T14:56:45Z</time>
      </trkpt>
      <trkpt lat="45.47593" lon="6.01892">
        <ele>256.88</ele>
        <time>2018-09-09T14:56:46Z</time>
      </trkpt>
      <trkpt lat="45.4756" lon="6.01878">
        <ele>256.88</ele>
        <time>2018-09-09T14:56:47Z</time>
      </trkpt>
      <trkpt lat="45.47528" lon="6.01863">
        <ele>256.88</ele>
        <time>2018-09-09T14:56:48Z</time>
      </trkpt>
      <trkpt lat="45.47495" lon="6.01848">
        <ele>256.18</ele>
        <time>2018-09-09T14:56:49Z</time>
      </trkpt>
      <trkpt lat="45.47463" lon="6.01833">
        <ele>255.97</ele>
        <time>2018-09-09T14:56:50Z</time>
      </trkpt>
      <trkpt lat="45.4743" lon="6.01819">
        <ele>256.61</ele>
        <time>2018-09-09T14:56:51Z</time>
      </trkpt>
      <trkpt lat="45.47398" lon="6.01805">
        <ele>256.8</ele>
        <time>2018-09-09T14:56:52Z</time>
      </trkpt>
      <trkpt lat="45.47365" lon="6.0179">
        <ele>256.85</ele>
        <time>2018-09-09T14:56:53Z</time>
      </trkpt>
      <trkpt lat="45.47333" lon="6.01776">
        <ele>256.87</ele>
        <time>2018-09-09T14:56:54Z</time>
      </trkpt>
      <trkpt lat="45.47301" lon="6.0176">
        <ele>256.88</ele>
        <time>2018-09-09T14:56:55Z</time>
      </trkpt>
      <trkpt lat="45.47269" lon="6.01746">
        <ele>256.88</ele>
        <time>2018-09-09T14:56:56Z</time>
      </trkpt>
      <trkpt lat="45.47237" lon="6.01731">
        <ele>256.18</ele>
        <time>2018-09-09T14:56:57Z</time>
      </trkpt>
      <trkpt lat="45.47205" lon="6.01716">
        <ele>255.97</ele>
        <time>2018-09-09T14:56:58Z</time>
      </trkpt>
      <trkpt lat="45.47174" lon="6.01701">
        <ele>255.9</ele>
        <time>2018-09-09T14:56:59Z</time>
      </trkpt>
      <trkpt lat="45.47142" lon="6.01686">
        <ele>255.89</ele>
        <time>2018-09-09T14:57:00Z</time>
      </trkpt>
      <trkpt lat="45.47111" lon="6.01672">
        <ele>255.88</ele>
        <time>2018-09-09T14:57:01Z</time>
      </trkpt>
      <trkpt lat="45.4708" lon="6.01657">
        <ele>255.88</ele>
        <time>2018-09-09T14:57:02Z</time>
      </trkpt>
      <trkpt lat="45.47049" lon="6.01641">
        <ele>256.58</ele>
        <time>2018-09-09T14:57:03Z</time>
      </trkpt>
      <trkpt lat="45.47017" lon="6.01625">
        <ele>256.79</ele>
        <time>2018-09-09T14:57:04Z</time>
      </trkpt>
      <trkpt lat="45.46986" lon="6.01609">
        <ele>256.85</ele>
        <time>2018-09-09T14:57:05Z</time>
      </trkpt>
      <trkpt lat="45.46955" lon="6.01592">
        <ele>256.87</ele>
        <time>2018-09-09T14:57:06Z</time>
      </trkpt>
      <trkpt lat="45.46923" lon="6.01575">
        <ele>256.88</ele>
        <time>2018-09-09T14:57:07Z</time>
      </trkpt>
      <trkpt lat="45.46892" lon="6.01557">
        <ele>256.18</ele>
        <time>2018-09-09T14:57:08Z</time>
      </trkpt>
      <trkpt lat="45.46861" lon="6.0154">
        <ele>255.97</ele>
        <time>2018-09-09T14:57:09Z</time>
      </trkpt>
      <trkpt lat="45.46829" lon="6.01522">
        <ele>255.9</ele>
        <time>2018-09-09T14:57:10Z</time>
      </trkpt>
      <trkpt lat="45.46798" lon="6.01504">
        <ele>255.89</ele>
        <time>2018-09-09T14:57:11Z</time>
      </trkpt>
      <trkpt lat="45.46767" lon="6.01485">
        <ele>255.88</ele>
        <time>2018-09-09T14:57:12Z</time>
      </trkpt>
      <trkpt lat="45.46736" lon="6.01466">
        <ele>255.88</ele>
        <time>2018-09-09T14:57:13Z</time>
      </trkpt>
      <trkpt lat="45.46705" lon="6.01446">
        <ele>255.88</ele>
        <time>2018-09-09T14:57:14Z</time>
      </trkpt>
      <trkpt lat="45.46673" lon="6.01427">
        <ele>255.18</ele>
        <time>2018-09-09T14:57:15Z</time>
      </trkpt>
      <trkpt lat="45.46642" lon="6.01406">
        <ele>254.97</ele>
        <time>2018-09-09T14:57:16Z</time>
      </trkpt>
      <trkpt lat="45.4661" lon="6.01387">
        <ele>254.9</ele>
        <time>2018-09-09T14:57:17Z</time>
      </trkpt>
      <trkpt lat="45.46579" lon="6.01368">
        <ele>254.89</ele>
        <time>2018-09-09T14:57:18Z</time>
      </trkpt>
      <trkpt lat="45.46547" lon="6.01349">
        <ele>254.88</ele>
        <time>2018-09-09T14:57:19Z</time>
      </trkpt>
      <trkpt lat="45.46517" lon="6.01328">
        <ele>254.88</ele>
        <time>2018-09-09T14:57:20Z</time>
      </trkpt>
      <trkpt lat="45.46486" lon="6.01307">
        <ele>254.88</ele>
        <time>2018-09-09T14:57:21Z</time>
      </trkpt>
      <trkpt lat="45.46457" lon="6.01285">
        <ele>254.88</ele>
        <time>2018-09-09T14:57:22Z</time>
      </trkpt>
      <trkpt lat="45.46427" lon="6.01263">
        <ele>254.88</ele>
        <time>2018-09-09T14:57:23Z</time>
      </trkpt>
      <trkpt lat="45.46398" lon="6.01242">
        <ele>254.88</ele>
        <time>2018-09-09T14:57:24Z</time>
      </trkpt>
      <trkpt lat="45.46368" lon="6.01221">
        <ele>254.88</ele>
        <time>2018-09-09T14:57:25Z</time>
      </trkpt>
      <trkpt lat="45.46339" lon="6.012">
        <ele>254.88</ele>
        <time>2018-09-09T14:57:26Z</time>
      </trkpt>
      <trkpt lat="45.4631" lon="6.01179">
        <ele>254.88</ele>
        <time>2018-09-09T14:57:27Z</time>
      </trkpt>
      <trkpt lat="45.46281" lon="6.01158">
        <ele>254.88</ele>
        <time>2018-09-09T14:57:28Z</time>
      </trkpt>
      <trkpt lat="45.46251" lon="6.01136">
        <ele>254.88</ele>
        <time>2018-09-09T14:57:29Z</time>
      </trkpt>
      <trkpt lat="45.46222" lon="6.01114">
        <ele>254.18</ele>
        <time>2018-09-09T14:57:30Z</time>
      </trkpt>
      <trkpt lat="45.46192" lon="6.01092">
        <ele>254.67</ele>
        <time>2018-09-09T14:57:31Z</time>
      </trkpt>
      <trkpt lat="45.46162" lon="6.0107">
        <ele>254.82</ele>
        <time>2018-09-09T14:57:32Z</time>
      </trkpt>
      <trkpt lat="45.46133" lon="6.01047">
        <ele>254.86</ele>
        <time>2018-09-09T14:57:33Z</time>
      </trkpt>
      <trkpt lat="45.46104" lon="6.01025">
        <ele>255.57</ele>
        <time>2018-09-09T14:57:34Z</time>
      </trkpt>
      <trkpt lat="45.46074" lon="6.01003">
        <ele>255.09</ele>
        <time>2018-09-09T14:57:35Z</time>
      </trkpt>
      <trkpt lat="45.46045" lon="6.00982">
        <ele>254.94</ele>
        <time>2018-09-09T14:57:36Z</time>
      </trkpt>
      <trkpt lat="45.46015" lon="6.0096">
        <ele>254.9</ele>
        <time>2018-09-09T14:57:37Z</time>
      </trkpt>
      <trkpt lat="45.45986" lon="6.00938">
        <ele>254.88</ele>
        <time>2018-09-09T14:57:38Z</time>
      </trkpt>
      <trkpt lat="45.45957" lon="6.00917">
        <ele>254.88</ele>
        <time>2018-09-09T14:57:39Z</time>
      </trkpt>
      <trkpt lat="45.45928" lon="6.00896">
        <ele>254.88</ele>
        <time>2018-09-09T14:57:40Z</time>
      </trkpt>
      <trkpt lat="45.45899" lon="6.00874">
        <ele>254.88</ele>
        <time>2018-09-09T14:57:41Z</time>
      </trkpt>
      <trkpt lat="45.45871" lon="6.00853">
        <ele>254.88</ele>
        <time>2018-09-09T14:57:42Z</time>
      </trkpt>
      <trkpt lat="45.45842" lon="6.00831">
        <ele>254.88</ele>
        <time>2018-09-09T14:57:43Z</time>
      </trkpt>
      <trkpt lat="45.45814" lon="6.00809">
        <ele>255.58</ele>
        <time>2018-09-09T14:57:44Z</time>
      </trkpt>
      <trkpt lat="45.45785" lon="6.00788">
        <ele>255.79</ele>
        <time>2018-09-09T14:57:45Z</time>
      </trkpt>
      <trkpt lat="45.45756" lon="6.00766">
        <ele>255.85</ele>
        <time>2018-09-09T14:57:46Z</time>
      </trkpt>
      <trkpt lat="45.45727" lon="6.00745">
        <ele>255.87</ele>
        <time>2018-09-09T14:57:47Z</time>
      </trkpt>
      <trkpt lat="45.45698" lon="6.00724">
        <ele>255.88</ele>
        <time>2018-09-09T14:57:48Z</time>
      </trkpt>
      <trkpt lat="45.45669" lon="6.00702">
        <ele>255.88</ele>
        <time>2018-09-09T14:57:49Z</time>
      </trkpt>
      <trkpt lat="45.4564" lon="6.00681">
        <ele>255.88</ele>
        <time>2018-09-09T14:57:50Z</time>
      </trkpt>
      <trkpt lat="45.45611" lon="6.0066">
        <ele>255.88</ele>
        <time>2018-09-09T14:57:51Z</time>
      </trkpt>
      <trkpt lat="45.45581" lon="6.00639">
        <ele>255.88</ele>
        <time>2018-09-09T14:57:52Z</time>
      </trkpt>
      <trkpt lat="45.45552" lon="6.00618">
        <ele>255.88</ele>
        <time>2018-09-09T14:57:53Z</time>
      </trkpt>
      <trkpt lat="45.45522" lon="6.00599">
        <ele>255.88</ele>
        <time>2018-09-09T14:57:54Z</time>
      </trkpt>
      <trkpt lat="45.45493" lon="6.00578">
        <ele>255.88</ele>
        <time>2018-09-09T14:57:55Z</time>
      </trkpt>
      <trkpt lat="45.45463" lon="6.00559">
        <ele>255.88</ele>
        <time>2018-09-09T14:57:56Z</time>
      </trkpt>
      <trkpt lat="45.45433" lon="6.00541">
        <ele>255.18</ele>
        <time>2018-09-09T14:57:57Z</time>
      </trkpt>
      <trkpt lat="45.45404" lon="6.00523">
        <ele>254.97</ele>
        <time>2018-09-09T14:57:58Z</time>
      </trkpt>
      <trkpt lat="45.45375" lon="6.00506">
        <ele>254.9</ele>
        <time>2018-09-09T14:57:59Z</time>
      </trkpt>
      <trkpt lat="45.45346" lon="6.0049">
        <ele>254.89</ele>
        <time>2018-09-09T14:58:00Z</time>
      </trkpt>
      <trkpt lat="45.45316" lon="6.00474">
        <ele>254.88</ele>
        <time>2018-09-09T14:58:01Z</time>
      </trkpt>
      <trkpt lat="45.45287" lon="6.00459">
        <ele>254.88</ele>
        <time>2018-09-09T14:58:02Z</time>
      </trkpt>
      <trkpt lat="45.45258" lon="6.00444">
        <ele>254.88</ele>
        <time>2018-09-09T14:58:03Z</time>
      </trkpt>
      <trkpt lat="45.45229" lon="6.0043">
        <ele>254.88</ele>
        <time>2018-09-09T14:58:04Z</time>
      </trkpt>
      <trkpt lat="45.452" lon="6.00417">
        <ele>254.88</ele>
        <time>2018-09-09T14:58:05Z</time>
      </trkpt>
      <trkpt lat="45.45172" lon="6.00406">
        <ele>254.88</ele>
        <time>2018-09-09T14:58:06Z</time>
      </trkpt>
      <trkpt lat="45.45142" lon="6.00395">
        <ele>254.88</ele>
        <time>2018-09-09T14:58:07Z</time>
      </trkpt>
      <trkpt lat="45.45113" lon="6.00385">
        <ele>254.88</ele>
        <time>2018-09-09T14:58:08Z</time>
      </trkpt>
      <trkpt lat="45.45083" lon="6.00375">
        <ele>254.88</ele>
        <time>2018-09-09T14:58:09Z</time>
      </trkpt>
      <trkpt lat="45.45052" lon="6.00366">
        <ele>254.88</ele>
        <time>2018-09-09T14:58:10Z</time>
      </trkpt>
      <trkpt lat="45.45022" lon="6.00357">
        <ele>254.18</ele>
        <time>2018-09-09T14:58:11Z</time>
      </trkpt>
      <trkpt lat="45.44992" lon="6.00348">
        <ele>253.97</ele>
        <time>2018-09-09T14:58:12Z</time>
      </trkpt>
      <trkpt lat="45.44961" lon="6.00339">
        <ele>253.9</ele>
        <time>2018-09-09T14:58:13Z</time>
      </trkpt>
      <trkpt lat="45.44929" lon="6.00332">
        <ele>253.89</ele>
        <time>2018-09-09T14:58:14Z</time>
      </trkpt>
      <trkpt lat="45.44898" lon="6.00326">
        <ele>253.88</ele>
        <time>2018-09-09T14:58:15Z</time>
      </trkpt>
      <trkpt lat="45.44866" lon="6.00321">
        <ele>253.18</ele>
        <time>2018-09-09T14:58:16Z</time>
      </trkpt>
      <trkpt lat="45.44834" lon="6.00316">
        <ele>252.97</ele>
        <time>2018-09-09T14:58:17Z</time>
      </trkpt>
      <trkpt lat="45.44801" lon="6.00312">
        <ele>252.91</ele>
        <time>2018-09-09T14:58:18Z</time>
      </trkpt>
      <trkpt lat="45.44769" lon="6.0031">
        <ele>252.89</ele>
        <time>2018-09-09T14:58:19Z</time>
      </trkpt>
      <trkpt lat="45.44736" lon="6.00308">
        <ele>252.88</ele>
        <time>2018-09-09T14:58:20Z</time>
      </trkpt>
      <trkpt lat="45.44703" lon="6.00307">
        <ele>252.88</ele>
        <time>2018-09-09T14:58:21Z</time>
      </trkpt>
      <trkpt lat="45.4467" lon="6.00307">
        <ele>252.88</ele>
        <time>2018-09-09T14:58:22Z</time>
      </trkpt>
      <trkpt lat="45.44637" lon="6.00307">
        <ele>252.88</ele>
        <time>2018-09-09T14:58:23Z</time>
      </trkpt>
      <trkpt lat="45.44605" lon="6.00309">
        <ele>252.88</ele>
        <time>2018-09-09T14:58:24Z</time>
      </trkpt>
      <trkpt lat="45.44572" lon="6.00312">
        <ele>252.88</ele>
        <time>2018-09-09T14:58:25Z</time>
      </trkpt>
      <trkpt lat="45.4454" lon="6.00315">
        <ele>252.88</ele>
        <time>2018-09-09T14:58:26Z</time>
      </trkpt>
      <trkpt lat="45.44507" lon="6.00318">
        <ele>252.88</ele>
        <time>2018-09-09T14:58:27Z</time>
      </trkpt>
      <trkpt lat="45.44474" lon="6.00322">
        <ele>252.88</ele>
        <time>2018-09-09T14:58:28Z</time>
      </trkpt>
      <trkpt lat="45.44441" lon="6.00324">
        <ele>252.88</ele>
        <time>2018-09-09T14:58:29Z</time>
      </trkpt>
      <trkpt lat="45.44408" lon="6.00328">
        <ele>252.18</ele>
        <time>2018-09-09T14:58:30Z</time>
      </trkpt>
      <trkpt lat="45.44375" lon="6.00332">
        <ele>252.67</ele>
        <time>2018-09-09T14:58:31Z</time>
      </trkpt>
      <trkpt lat="45.44343" lon="6.00336">
        <ele>252.82</ele>
        <time>2018-09-09T14:58:32Z</time>
      </trkpt>
      <trkpt lat="45.4431" lon="6.00341">
        <ele>252.86</ele>
        <time>2018-09-09T14:58:33Z</time>
      </trkpt>
      <trkpt lat="45.44277" lon="6.00347">
        <ele>252.87</ele>
        <time>2018-09-09T14:58:34Z</time>
      </trkpt>
      <trkpt lat="45.44244" lon="6.00351">
        <ele>252.88</ele>
        <time>2018-09-09T14:58:35Z</time>
      </trkpt>
      <trkpt lat="45.44211" lon="6.00355">
        <ele>253.58</ele>
        <time>2018-09-09T14:58:36Z</time>
      </trkpt>
      <trkpt lat="45.44178" lon="6.0036">
        <ele>253.79</ele>
        <time>2018-09-09T14:58:37Z</time>
      </trkpt>
      <trkpt lat="45.44144" lon="6.00363">
        <ele>253.85</ele>
        <time>2018-09-09T14:58:38Z</time>
      </trkpt>
      <trkpt lat="45.44111" lon="6.00366">
        <ele>253.87</ele>
        <time>2018-09-09T14:58:39Z</time>
      </trkpt>
      <trkpt lat="45.44078" lon="6.00367">
        <ele>254.58</ele>
        <time>2018-09-09T14:58:40Z</time>
      </trkpt>
      <trkpt lat="45.44045" lon="6.00368">
        <ele>254.79</ele>
        <time>2018-09-09T14:58:41Z</time>
      </trkpt>
      <trkpt lat="45.44012" lon="6.00368">
        <ele>254.85</ele>
        <time>2018-09-09T14:58:42Z</time>
      </trkpt>
      <trkpt lat="45.4398" lon="6.00368">
        <ele>254.87</ele>
        <time>2018-09-09T14:58:43Z</time>
      </trkpt>
      <trkpt lat="45.43947" lon="6.00368">
        <ele>255.58</ele>
        <time>2018-09-09T14:58:44Z</time>
      </trkpt>
      <trkpt lat="45.43915" lon="6.00365">
        <ele>255.79</ele>
        <time>2018-09-09T14:58:45Z</time>
      </trkpt>
      <trkpt lat="45.43883" lon="6.00362">
        <ele>255.85</ele>
        <time>2018-09-09T14:58:46Z</time>
      </trkpt>
      <trkpt lat="45.43851" lon="6.00358">
        <ele>255.87</ele>
        <time>2018-09-09T14:58:47Z</time>
      </trkpt>
      <trkpt lat="45.4382" lon="6.00352">
        <ele>256.58</ele>
        <time>2018-09-09T14:58:48Z</time>
      </trkpt>
      <trkpt lat="45.43788" lon="6.00346">
        <ele>256.79</ele>
        <time>2018-09-09T14:58:49Z</time>
      </trkpt>
      <trkpt lat="45.43757" lon="6.0034">
        <ele>256.85</ele>
        <time>2018-09-09T14:58:50Z</time>
      </trkpt>
      <trkpt lat="45.43726" lon="6.00334">
        <ele>256.87</ele>
        <time>2018-09-09T14:58:51Z</time>
      </trkpt>
      <trkpt lat="45.43695" lon="6.00326">
        <ele>256.88</ele>
        <time>2018-09-09T14:58:52Z</time>
      </trkpt>
      <trkpt lat="45.43663" lon="6.00318">
        <ele>257.58</ele>
        <time>2018-09-09T14:58:53Z</time>
      </trkpt>
      <trkpt lat="45.43632" lon="6.00309">
        <ele>257.79</ele>
        <time>2018-09-09T14:58:54Z</time>
      </trkpt>
      <trkpt lat="45.43601" lon="6.00298">
        <ele>257.15</ele>
        <time>2018-09-09T14:58:55Z</time>
      </trkpt>
      <trkpt lat="45.4357" lon="6.00287">
        <ele>256.96</ele>
        <time>2018-09-09T14:58:56Z</time>
      </trkpt>
      <trkpt lat="45.43539" lon="6.00276">
        <ele>256.9</ele>
        <time>2018-09-09T14:58:57Z</time>
      </trkpt>
      <trkpt lat="45.43508" lon="6.00264">
        <ele>256.89</ele>
        <time>2018-09-09T14:58:58Z</time>
      </trkpt>
      <trkpt lat="45.43477" lon="6.00252">
        <ele>256.18</ele>
        <time>2018-09-09T14:58:59Z</time>
      </trkpt>
      <trkpt lat="45.43447" lon="6.00239">
        <ele>255.27</ele>
        <time>2018-09-09T14:59:00Z</time>
      </trkpt>
      <trkpt lat="45.43416" lon="6.00225">
        <ele>255</ele>
        <time>2018-09-09T14:59:01Z</time>
      </trkpt>
      <trkpt lat="45.43385" lon="6.00212">
        <ele>254.91</ele>
        <time>2018-09-09T14:59:02Z</time>
      </trkpt>
      <trkpt lat="45.43354" lon="6.00197">
        <ele>254.19</ele>
        <time>2018-09-09T14:59:03Z</time>
      </trkpt>
      <trkpt lat="45.43324" lon="6.00182">
        <ele>253.97</ele>
        <time>2018-09-09T14:59:04Z</time>
      </trkpt>
      <trkpt lat="45.43294" lon="6.00166">
        <ele>253.91</ele>
        <time>2018-09-09T14:59:05Z</time>
      </trkpt>
      <trkpt lat="45.43263" lon="6.00151">
        <ele>253.19</ele>
        <time>2018-09-09T14:59:06Z</time>
      </trkpt>
      <trkpt lat="45.43233" lon="6.00134">
        <ele>252.97</ele>
        <time>2018-09-09T14:59:07Z</time>
      </trkpt>
      <trkpt lat="45.43204" lon="6.00117">
        <ele>252.91</ele>
        <time>2018-09-09T14:59:08Z</time>
      </trkpt>
      <trkpt lat="45.43174" lon="6.00101">
        <ele>252.19</ele>
        <time>2018-09-09T14:59:09Z</time>
      </trkpt>
      <trkpt lat="45.43145" lon="6.00084">
        <ele>252.67</ele>
        <time>2018-09-09T14:59:10Z</time>
      </trkpt>
      <trkpt lat="45.43115" lon="6.00068">
        <ele>252.12</ele>
        <time>2018-09-09T14:59:11Z</time>
      </trkpt>
      <trkpt lat="45.43086" lon="6.00051">
        <ele>251.25</ele>
        <time>2018-09-09T14:59:12Z</time>
      </trkpt>
      <trkpt lat="45.43056" lon="6.00034">
        <ele>250.99</ele>
        <time>2018-09-09T14:59:13Z</time>
      </trkpt>
      <trkpt lat="45.43026" lon="6.00017">
        <ele>250.91</ele>
        <time>2018-09-09T14:59:14Z</time>
      </trkpt>
      <trkpt lat="45.42996" lon="6">
        <ele>250.19</ele>
        <time>2018-09-09T14:59:15Z</time>
      </trkpt>
      <trkpt lat="45.42966" lon="5.99984">
        <ele>249.97</ele>
        <time>2018-09-09T14:59:16Z</time>
      </trkpt>
      <trkpt lat="45.42936" lon="5.99968">
        <ele>249.91</ele>
        <time>2018-09-09T14:59:17Z</time>
      </trkpt>
      <trkpt lat="45.42906" lon="5.99952">
        <ele>250.59</ele>
        <time>2018-09-09T14:59:18Z</time>
      </trkpt>
      <trkpt lat="45.42876" lon="5.99936">
        <ele>250.79</ele>
        <time>2018-09-09T14:59:19Z</time>
      </trkpt>
      <trkpt lat="45.42845" lon="5.99922">
        <ele>250.15</ele>
        <time>2018-09-09T14:59:20Z</time>
      </trkpt>
      <trkpt lat="45.42815" lon="5.99908">
        <ele>249.96</ele>
        <time>2018-09-09T14:59:21Z</time>
      </trkpt>
      <trkpt lat="45.42784" lon="5.99893">
        <ele>249.9</ele>
        <time>2018-09-09T14:59:22Z</time>
      </trkpt>
      <trkpt lat="45.42754" lon="5.99879">
        <ele>249.89</ele>
        <time>2018-09-09T14:59:23Z</time>
      </trkpt>
      <trkpt lat="45.42723" lon="5.99866">
        <ele>249.88</ele>
        <time>2018-09-09T14:59:24Z</time>
      </trkpt>
      <trkpt lat="45.42691" lon="5.99854">
        <ele>249.88</ele>
        <time>2018-09-09T14:59:25Z</time>
      </trkpt>
      <trkpt lat="45.42659" lon="5.99843">
        <ele>249.18</ele>
        <time>2018-09-09T14:59:26Z</time>
      </trkpt>
      <trkpt lat="45.42627" lon="5.99832">
        <ele>248.97</ele>
        <time>2018-09-09T14:59:27Z</time>
      </trkpt>
      <trkpt lat="45.42595" lon="5.99822">
        <ele>248.91</ele>
        <time>2018-09-09T14:59:28Z</time>
      </trkpt>
      <trkpt lat="45.42563" lon="5.99812">
        <ele>248.89</ele>
        <time>2018-09-09T14:59:29Z</time>
      </trkpt>
      <trkpt lat="45.42532" lon="5.99804">
        <ele>248.88</ele>
        <time>2018-09-09T14:59:30Z</time>
      </trkpt>
      <trkpt lat="45.425" lon="5.99797">
        <ele>248.88</ele>
        <time>2018-09-09T14:59:31Z</time>
      </trkpt>
      <trkpt lat="45.42467" lon="5.99791">
        <ele>248.88</ele>
        <time>2018-09-09T14:59:32Z</time>
      </trkpt>
      <trkpt lat="45.42436" lon="5.99785">
        <ele>249.58</ele>
        <time>2018-09-09T14:59:33Z</time>
      </trkpt>
      <trkpt lat="45.42403" lon="5.9978">
        <ele>249.79</ele>
        <time>2018-09-09T14:59:34Z</time>
      </trkpt>
      <trkpt lat="45.42371" lon="5.99776">
        <ele>250.55</ele>
        <time>2018-09-09T14:59:35Z</time>
      </trkpt>
      <trkpt lat="45.42339" lon="5.99775">
        <ele>250.78</ele>
        <time>2018-09-09T14:59:36Z</time>
      </trkpt>
      <trkpt lat="45.42307" lon="5.99774">
        <ele>250.15</ele>
        <time>2018-09-09T14:59:37Z</time>
      </trkpt>
      <trkpt lat="45.42274" lon="5.99772">
        <ele>249.96</ele>
        <time>2018-09-09T14:59:38Z</time>
      </trkpt>
      <trkpt lat="45.42242" lon="5.99772">
        <ele>249.9</ele>
        <time>2018-09-09T14:59:39Z</time>
      </trkpt>
      <trkpt lat="45.4221" lon="5.99774">
        <ele>249.89</ele>
        <time>2018-09-09T14:59:40Z</time>
      </trkpt>
      <trkpt lat="45.42178" lon="5.99776">
        <ele>249.88</ele>
        <time>2018-09-09T14:59:41Z</time>
      </trkpt>
      <trkpt lat="45.42146" lon="5.99779">
        <ele>249.88</ele>
        <time>2018-09-09T14:59:42Z</time>
      </trkpt>
      <trkpt lat="45.42114" lon="5.99783">
        <ele>249.88</ele>
        <time>2018-09-09T14:59:43Z</time>
      </trkpt>
      <trkpt lat="45.42083" lon="5.99788">
        <ele>249.88</ele>
        <time>2018-09-09T14:59:44Z</time>
      </trkpt>
      <trkpt lat="45.42051" lon="5.99792">
        <ele>249.88</ele>
        <time>2018-09-09T14:59:45Z</time>
      </trkpt>
      <trkpt lat="45.4202" lon="5.99799">
        <ele>249.18</ele>
        <time>2018-09-09T14:59:46Z</time>
      </trkpt>
      <trkpt lat="45.41989" lon="5.99805">
        <ele>248.97</ele>
        <time>2018-09-09T14:59:47Z</time>
      </trkpt>
      <trkpt lat="45.41958" lon="5.99811">
        <ele>248.9</ele>
        <time>2018-09-09T14:59:48Z</time>
      </trkpt>
      <trkpt lat="45.41927" lon="5.99818">
        <ele>248.89</ele>
        <time>2018-09-09T14:59:49Z</time>
      </trkpt>
      <trkpt lat="45.41896" lon="5.99825">
        <ele>248.88</ele>
        <time>2018-09-09T14:59:50Z</time>
      </trkpt>
      <trkpt lat="45.41866" lon="5.99832">
        <ele>248.88</ele>
        <time>2018-09-09T14:59:51Z</time>
      </trkpt>
      <trkpt lat="45.41835" lon="5.9984">
        <ele>248.88</ele>
        <time>2018-09-09T14:59:52Z</time>
      </trkpt>
      <trkpt lat="45.41805" lon="5.99847">
        <ele>248.88</ele>
        <time>2018-09-09T14:59:53Z</time>
      </trkpt>
      <trkpt lat="45.41774" lon="5.99854">
        <ele>248.88</ele>
        <time>2018-09-09T14:59:54Z</time>
      </trkpt>
      <trkpt lat="45.41743" lon="5.99862">
        <ele>248.88</ele>
        <time>2018-09-09T14:59:55Z</time>
      </trkpt>
      <trkpt lat="45.41712" lon="5.9987">
        <ele>248.88</ele>
        <time>2018-09-09T14:59:56Z</time>
      </trkpt>
      <trkpt lat="45.4168" lon="5.99877">
        <ele>248.88</ele>
        <time>2018-09-09T14:59:57Z</time>
      </trkpt>
      <trkpt lat="45.41649" lon="5.99885">
        <ele>248.88</ele>
        <time>2018-09-09T14:59:58Z</time>
      </trkpt>
      <trkpt lat="45.41616" lon="5.99892">
        <ele>248.88</ele>
        <time>2018-09-09T14:59:59Z</time>
      </trkpt>
      <trkpt lat="45.41584" lon="5.99899">
        <ele>248.88</ele>
        <time>2018-09-09T15:00:00Z</time>
      </trkpt>
      <trkpt lat="45.41552" lon="5.99905">
        <ele>248.18</ele>
        <time>2018-09-09T15:00:01Z</time>
      </trkpt>
      <trkpt lat="45.4152" lon="5.99911">
        <ele>247.97</ele>
        <time>2018-09-09T15:00:02Z</time>
      </trkpt>
      <trkpt lat="45.41488" lon="5.99917">
        <ele>247.9</ele>
        <time>2018-09-09T15:00:03Z</time>
      </trkpt>
      <trkpt lat="45.41456" lon="5.99921">
        <ele>247.89</ele>
        <time>2018-09-09T15:00:04Z</time>
      </trkpt>
      <trkpt lat="45.41424" lon="5.99924">
        <ele>247.88</ele>
        <time>2018-09-09T15:00:05Z</time>
      </trkpt>
      <trkpt lat="45.41392" lon="5.99927">
        <ele>247.88</ele>
        <time>2018-09-09T15:00:06Z</time>
      </trkpt>
      <trkpt lat="45.41359" lon="5.99928">
        <ele>247.88</ele>
        <time>2018-09-09T15:00:07Z</time>
      </trkpt>
      <trkpt lat="45.41327" lon="5.99928">
        <ele>247.88</ele>
        <time>2018-09-09T15:00:08Z</time>
      </trkpt>
      <trkpt lat="45.41294" lon="5.99928">
        <ele>247.88</ele>
        <time>2018-09-09T15:00:09Z</time>
      </trkpt>
      <trkpt lat="45.41261" lon="5.99928">
        <ele>247.18</ele>
        <time>2018-09-09T15:00:10Z</time>
      </trkpt>
      <trkpt lat="45.41228" lon="5.99927">
        <ele>246.97</ele>
        <time>2018-09-09T15:00:11Z</time>
      </trkpt>
      <trkpt lat="45.41195" lon="5.99925">
        <ele>246.9</ele>
        <time>2018-09-09T15:00:12Z</time>
      </trkpt>
      <trkpt lat="45.41162" lon="5.99922">
        <ele>246.89</ele>
        <time>2018-09-09T15:00:13Z</time>
      </trkpt>
      <trkpt lat="45.41129" lon="5.99919">
        <ele>246.88</ele>
        <time>2018-09-09T15:00:14Z</time>
      </trkpt>
      <trkpt lat="45.41096" lon="5.99914">
        <ele>246.88</ele>
        <time>2018-09-09T15:00:15Z</time>
      </trkpt>
      <trkpt lat="45.41063" lon="5.99909">
        <ele>246.88</ele>
        <time>2018-09-09T15:00:16Z</time>
      </trkpt>
      <trkpt lat="45.4103" lon="5.99902">
        <ele>246.88</ele>
        <time>2018-09-09T15:00:17Z</time>
      </trkpt>
      <trkpt lat="45.40997" lon="5.99894">
        <ele>246.88</ele>
        <time>2018-09-09T15:00:18Z</time>
      </trkpt>
      <trkpt lat="45.40965" lon="5.99886">
        <ele>246.88</ele>
        <time>2018-09-09T15:00:19Z</time>
      </trkpt>
      <trkpt lat="45.40932" lon="5.99877">
        <ele>246.18</ele>
        <time>2018-09-09T15:00:20Z</time>
      </trkpt>
      <trkpt lat="45.40899" lon="5.99868">
        <ele>246.67</ele>
        <time>2018-09-09T15:00:21Z</time>
      </trkpt>
      <trkpt lat="45.40866" lon="5.99857">
        <ele>246.82</ele>
        <time>2018-09-09T15:00:22Z</time>
      </trkpt>
      <trkpt lat="45.40834" lon="5.99846">
        <ele>246.86</ele>
        <time>2018-09-09T15:00:23Z</time>
      </trkpt>
      <trkpt lat="45.40802" lon="5.99834">
        <ele>246.87</ele>
        <time>2018-09-09T15:00:24Z</time>
      </trkpt>
      <trkpt lat="45.40771" lon="5.99822">
        <ele>246.88</ele>
        <time>2018-09-09T15:00:25Z</time>
      </trkpt>
      <trkpt lat="45.40739" lon="5.99808">
        <ele>246.88</ele>
        <time>2018-09-09T15:00:26Z</time>
      </trkpt>
      <trkpt lat="45.40709" lon="5.99793">
        <ele>246.88</ele>
        <time>2018-09-09T15:00:27Z</time>
      </trkpt>
      <trkpt lat="45.40678" lon="5.99778">
        <ele>246.88</ele>
        <time>2018-09-09T15:00:28Z</time>
      </trkpt>
      <trkpt lat="45.40648" lon="5.99762">
        <ele>246.88</ele>
        <time>2018-09-09T15:00:29Z</time>
      </trkpt>
      <trkpt lat="45.40617" lon="5.99745">
        <ele>246.88</ele>
        <time>2018-09-09T15:00:30Z</time>
      </trkpt>
      <trkpt lat="45.40587" lon="5.99728">
        <ele>246.88</ele>
        <time>2018-09-09T15:00:31Z</time>
      </trkpt>
      <trkpt lat="45.40557" lon="5.9971">
        <ele>246.88</ele>
        <time>2018-09-09T15:00:32Z</time>
      </trkpt>
      <trkpt lat="45.40527" lon="5.99691">
        <ele>246.88</ele>
        <time>2018-09-09T15:00:33Z</time>
      </trkpt>
      <trkpt lat="45.40498" lon="5.99672">
        <ele>246.88</ele>
        <time>2018-09-09T15:00:34Z</time>
      </trkpt>
      <trkpt lat="45.40469" lon="5.99653">
        <ele>246.18</ele>
        <time>2018-09-09T15:00:35Z</time>
      </trkpt>
      <trkpt lat="45.40439" lon="5.99633">
        <ele>245.97</ele>
        <time>2018-09-09T15:00:36Z</time>
      </trkpt>
      <trkpt lat="45.4041" lon="5.99613">
        <ele>245.9</ele>
        <time>2018-09-09T15:00:37Z</time>
      </trkpt>
      <trkpt lat="45.4038" lon="5.99593">
        <ele>245.89</ele>
        <time>2018-09-09T15:00:38Z</time>
      </trkpt>
      <trkpt lat="45.4035" lon="5.99573">
        <ele>245.88</ele>
        <time>2018-09-09T15:00:39Z</time>
      </trkpt>
      <trkpt lat="45.40321" lon="5.99551">
        <ele>245.88</ele>
        <time>2018-09-09T15:00:40Z</time>
      </trkpt>
      <trkpt lat="45.40292" lon="5.9953">
        <ele>245.18</ele>
        <time>2018-09-09T15:00:41Z</time>
      </trkpt>
      <trkpt lat="45.40262" lon="5.99509">
        <ele>245.67</ele>
        <time>2018-09-09T15:00:42Z</time>
      </trkpt>
      <trkpt lat="45.40233" lon="5.99487">
        <ele>245.82</ele>
        <time>2018-09-09T15:00:43Z</time>
      </trkpt>
      <trkpt lat="45.40203" lon="5.99466">
        <ele>245.86</ele>
        <time>2018-09-09T15:00:44Z</time>
      </trkpt>
      <trkpt lat="45.40173" lon="5.99445">
        <ele>245.17</ele>
        <time>2018-09-09T15:00:45Z</time>
      </trkpt>
      <trkpt lat="45.40144" lon="5.99425">
        <ele>245.67</ele>
        <time>2018-09-09T15:00:46Z</time>
      </trkpt>
      <trkpt lat="45.40114" lon="5.99404">
        <ele>245.81</ele>
        <time>2018-09-09T15:00:47Z</time>
      </trkpt>
      <trkpt lat="45.40084" lon="5.99383">
        <ele>245.86</ele>
        <time>2018-09-09T15:00:48Z</time>
      </trkpt>
      <trkpt lat="45.40055" lon="5.99363">
        <ele>245.17</ele>
        <time>2018-09-09T15:00:49Z</time>
      </trkpt>
      <trkpt lat="45.40025" lon="5.99343">
        <ele>245.67</ele>
        <time>2018-09-09T15:00:50Z</time>
      </trkpt>
      <trkpt lat="45.39996" lon="5.99322">
        <ele>245.81</ele>
        <time>2018-09-09T15:00:51Z</time>
      </trkpt>
      <trkpt lat="45.39966" lon="5.99301">
        <ele>245.86</ele>
        <time>2018-09-09T15:00:52Z</time>
      </trkpt>
      <trkpt lat="45.39937" lon="5.99281">
        <ele>245.17</ele>
        <time>2018-09-09T15:00:53Z</time>
      </trkpt>
      <trkpt lat="45.39908" lon="5.99261">
        <ele>244.97</ele>
        <time>2018-09-09T15:00:54Z</time>
      </trkpt>
      <trkpt lat="45.39878" lon="5.99241">
        <ele>244.9</ele>
        <time>2018-09-09T15:00:55Z</time>
      </trkpt>
      <trkpt lat="45.39849" lon="5.99221">
        <ele>244.89</ele>
        <time>2018-09-09T15:00:56Z</time>
      </trkpt>
      <trkpt lat="45.3982" lon="5.99201">
        <ele>244.88</ele>
        <time>2018-09-09T15:00:57Z</time>
      </trkpt>
      <trkpt lat="45.39791" lon="5.99181">
        <ele>244.88</ele>
        <time>2018-09-09T15:00:58Z</time>
      </trkpt>
      <trkpt lat="45.39762" lon="5.99162">
        <ele>244.88</ele>
        <time>2018-09-09T15:00:59Z</time>
      </trkpt>
      <trkpt lat="45.39733" lon="5.99142">
        <ele>244.18</ele>
        <time>2018-09-09T15:01:00Z</time>
      </trkpt>
      <trkpt lat="45.39703" lon="5.99123">
        <ele>243.97</ele>
        <time>2018-09-09T15:01:01Z</time>
      </trkpt>
      <trkpt lat="45.39675" lon="5.99104">
        <ele>243.9</ele>
        <time>2018-09-09T15:01:02Z</time>
      </trkpt>
      <trkpt lat="45.39646" lon="5.99085">
        <ele>243.89</ele>
        <time>2018-09-09T15:01:03Z</time>
      </trkpt>
      <trkpt lat="45.39616" lon="5.99066">
        <ele>243.88</ele>
        <time>2018-09-09T15:01:04Z</time>
      </trkpt>
      <trkpt lat="45.39588" lon="5.99046">
        <ele>243.18</ele>
        <time>2018-09-09T15:01:05Z</time>
      </trkpt>
      <trkpt lat="45.39559" lon="5.99026">
        <ele>243.67</ele>
        <time>2018-09-09T15:01:06Z</time>
      </trkpt>
      <trkpt lat="45.3953" lon="5.99007">
        <ele>243.82</ele>
        <time>2018-09-09T15:01:07Z</time>
      </trkpt>
      <trkpt lat="45.39502" lon="5.98988">
        <ele>243.86</ele>
        <time>2018-09-09T15:01:08Z</time>
      </trkpt>
      <trkpt lat="45.39473" lon="5.98968">
        <ele>243.87</ele>
        <time>2018-09-09T15:01:09Z</time>
      </trkpt>
      <trkpt lat="45.39445" lon="5.98949">
        <ele>243.88</ele>
        <time>2018-09-09T15:01:10Z</time>
      </trkpt>
      <trkpt lat="45.39416" lon="5.98929">
        <ele>243.18</ele>
        <time>2018-09-09T15:01:11Z</time>
      </trkpt>
      <trkpt lat="45.39387" lon="5.9891">
        <ele>243.67</ele>
        <time>2018-09-09T15:01:12Z</time>
      </trkpt>
      <trkpt lat="45.39358" lon="5.9889">
        <ele>243.11</ele>
        <time>2018-09-09T15:01:13Z</time>
      </trkpt>
      <trkpt lat="45.39329" lon="5.98871">
        <ele>243.65</ele>
        <time>2018-09-09T15:01:14Z</time>
      </trkpt>
      <trkpt lat="45.39299" lon="5.98852">
        <ele>243.81</ele>
        <time>2018-09-09T15:01:15Z</time>
      </trkpt>
      <trkpt lat="45.39269" lon="5.98833">
        <ele>243.86</ele>
        <time>2018-09-09T15:01:16Z</time>
      </trkpt>
      <trkpt lat="45.3924" lon="5.98814">
        <ele>243.17</ele>
        <time>2018-09-09T15:01:17Z</time>
      </trkpt>
      <trkpt lat="45.39211" lon="5.98795">
        <ele>242.97</ele>
        <time>2018-09-09T15:01:18Z</time>
      </trkpt>
      <trkpt lat="45.39182" lon="5.98775">
        <ele>242.9</ele>
        <time>2018-09-09T15:01:19Z</time>
      </trkpt>
      <trkpt lat="45.39153" lon="5.98756">
        <ele>242.89</ele>
        <time>2018-09-09T15:01:20Z</time>
      </trkpt>
      <trkpt lat="45.39125" lon="5.98736">
        <ele>242.88</ele>
        <time>2018-09-09T15:01:21Z</time>
      </trkpt>
      <trkpt lat="45.39095" lon="5.98716">
        <ele>242.88</ele>
        <time>2018-09-09T15:01:22Z</time>
      </trkpt>
      <trkpt lat="45.39066" lon="5.98697">
        <ele>242.88</ele>
        <time>2018-09-09T15:01:23Z</time>
      </trkpt>
      <trkpt lat="45.39037" lon="5.98677">
        <ele>242.88</ele>
        <time>2018-09-09T15:01:24Z</time>
      </trkpt>
      <trkpt lat="45.39008" lon="5.98658">
        <ele>242.88</ele>
        <time>2018-09-09T15:01:25Z</time>
      </trkpt>
      <trkpt lat="45.3898" lon="5.98638">
        <ele>242.88</ele>
        <time>2018-09-09T15:01:26Z</time>
      </trkpt>
      <trkpt lat="45.3895" lon="5.98618">
        <ele>242.88</ele>
        <time>2018-09-09T15:01:27Z</time>
      </trkpt>
      <trkpt lat="45.38921" lon="5.98598">
        <ele>242.18</ele>
        <time>2018-09-09T15:01:28Z</time>
      </trkpt>
      <trkpt lat="45.38892" lon="5.98579">
        <ele>241.97</ele>
        <time>2018-09-09T15:01:29Z</time>
      </trkpt>
      <trkpt lat="45.38863" lon="5.98559">
        <ele>242.6</ele>
        <time>2018-09-09T15:01:30Z</time>
      </trkpt>
      <trkpt lat="45.38834" lon="5.9854">
        <ele>242.8</ele>
        <time>2018-09-09T15:01:31Z</time>
      </trkpt>
      <trkpt lat="45.38805" lon="5.98521">
        <ele>242.85</ele>
        <time>2018-09-09T15:01:32Z</time>
      </trkpt>
      <trkpt lat="45.38776" lon="5.98501">
        <ele>242.17</ele>
        <time>2018-09-09T15:01:33Z</time>
      </trkpt>
      <trkpt lat="45.38748" lon="5.98482">
        <ele>242.67</ele>
        <time>2018-09-09T15:01:34Z</time>
      </trkpt>
      <trkpt lat="45.38719" lon="5.98463">
        <ele>242.11</ele>
        <time>2018-09-09T15:01:35Z</time>
      </trkpt>
      <trkpt lat="45.38689" lon="5.98444">
        <ele>241.95</ele>
        <time>2018-09-09T15:01:36Z</time>
      </trkpt>
      <trkpt lat="45.38661" lon="5.98424">
        <ele>241.9</ele>
        <time>2018-09-09T15:01:37Z</time>
      </trkpt>
      <trkpt lat="45.38631" lon="5.98405">
        <ele>241.88</ele>
        <time>2018-09-09T15:01:38Z</time>
      </trkpt>
      <trkpt lat="45.38602" lon="5.98385">
        <ele>241.88</ele>
        <time>2018-09-09T15:01:39Z</time>
      </trkpt>
      <trkpt lat="45.38571" lon="5.98366">
        <ele>242.58</ele>
        <time>2018-09-09T15:01:40Z</time>
      </trkpt>
      <trkpt lat="45.38541" lon="5.98347">
        <ele>242.79</ele>
        <time>2018-09-09T15:01:41Z</time>
      </trkpt>
      <trkpt lat="45.38511" lon="5.98328">
        <ele>242.85</ele>
        <time>2018-09-09T15:01:42Z</time>
      </trkpt>
      <trkpt lat="45.38482" lon="5.9831">
        <ele>242.87</ele>
        <time>2018-09-09T15:01:43Z</time>
      </trkpt>
      <trkpt lat="45.38453" lon="5.98291">
        <ele>242.88</ele>
        <time>2018-09-09T15:01:44Z</time>
      </trkpt>
      <trkpt lat="45.38424" lon="5.98273">
        <ele>242.88</ele>
        <time>2018-09-09T15:01:45Z</time>
      </trkpt>
      <trkpt lat="45.38395" lon="5.98255">
        <ele>242.88</ele>
        <time>2018-09-09T15:01:46Z</time>
      </trkpt>
      <trkpt lat="45.38365" lon="5.98237">
        <ele>242.88</ele>
        <time>2018-09-09T15:01:47Z</time>
      </trkpt>
      <trkpt lat="45.38336" lon="5.98218">
        <ele>242.88</ele>
        <time>2018-09-09T15:01:48Z</time>
      </trkpt>
      <trkpt lat="45.38306" lon="5.98199">
        <ele>242.88</ele>
        <time>2018-09-09T15:01:49Z</time>
      </trkpt>
      <trkpt lat="45.38276" lon="5.9818">
        <ele>242.88</ele>
        <time>2018-09-09T15:01:50Z</time>
      </trkpt>
      <trkpt lat="45.38246" lon="5.98162">
        <ele>242.88</ele>
        <time>2018-09-09T15:01:51Z</time>
      </trkpt>
      <trkpt lat="45.38216" lon="5.98143">
        <ele>242.88</ele>
        <time>2018-09-09T15:01:52Z</time>
      </trkpt>
      <trkpt lat="45.38186" lon="5.98125">
        <ele>242.88</ele>
        <time>2018-09-09T15:01:53Z</time>
      </trkpt>
      <trkpt lat="45.38156" lon="5.98107">
        <ele>242.88</ele>
        <time>2018-09-09T15:01:54Z</time>
      </trkpt>
      <trkpt lat="45.38125" lon="5.98087">
        <ele>242.88</ele>
        <time>2018-09-09T15:01:55Z</time>
      </trkpt>
      <trkpt lat="45.38096" lon="5.98068">
        <ele>242.88</ele>
        <time>2018-09-09T15:01:56Z</time>
      </trkpt>
      <trkpt lat="45.38066" lon="5.98049">
        <ele>242.88</ele>
        <time>2018-09-09T15:01:57Z</time>
      </trkpt>
      <trkpt lat="45.38036" lon="5.98031">
        <ele>242.88</ele>
        <time>2018-09-09T15:01:58Z</time>
      </trkpt>
      <trkpt lat="45.38006" lon="5.98012">
        <ele>242.88</ele>
        <time>2018-09-09T15:01:59Z</time>
      </trkpt>
      <trkpt lat="45.37977" lon="5.97995">
        <ele>242.88</ele>
        <time>2018-09-09T15:02:00Z</time>
      </trkpt>
      <trkpt lat="45.37948" lon="5.97977">
        <ele>242.88</ele>
        <time>2018-09-09T15:02:01Z</time>
      </trkpt>
      <trkpt lat="45.37919" lon="5.97959">
        <ele>242.88</ele>
        <time>2018-09-09T15:02:02Z</time>
      </trkpt>
      <trkpt lat="45.37889" lon="5.97942">
        <ele>242.88</ele>
        <time>2018-09-09T15:02:03Z</time>
      </trkpt>
      <trkpt lat="45.37859" lon="5.97925">
        <ele>242.18</ele>
        <time>2018-09-09T15:02:04Z</time>
      </trkpt>
      <trkpt lat="45.37829" lon="5.97908">
        <ele>242.67</ele>
        <time>2018-09-09T15:02:05Z</time>
      </trkpt>
      <trkpt lat="45.37799" lon="5.97891">
        <ele>242.82</ele>
        <time>2018-09-09T15:02:06Z</time>
      </trkpt>
      <trkpt lat="45.37769" lon="5.97874">
        <ele>242.86</ele>
        <time>2018-09-09T15:02:07Z</time>
      </trkpt>
      <trkpt lat="45.37739" lon="5.97857">
        <ele>242.87</ele>
        <time>2018-09-09T15:02:08Z</time>
      </trkpt>
      <trkpt lat="45.37709" lon="5.97839">
        <ele>242.88</ele>
        <time>2018-09-09T15:02:09Z</time>
      </trkpt>
      <trkpt lat="45.3768" lon="5.97822">
        <ele>242.18</ele>
        <time>2018-09-09T15:02:10Z</time>
      </trkpt>
      <trkpt lat="45.3765" lon="5.97805">
        <ele>241.97</ele>
        <time>2018-09-09T15:02:11Z</time>
      </trkpt>
      <trkpt lat="45.3762" lon="5.97788">
        <ele>241.9</ele>
        <time>2018-09-09T15:02:12Z</time>
      </trkpt>
      <trkpt lat="45.3759" lon="5.97772">
        <ele>241.89</ele>
        <time>2018-09-09T15:02:13Z</time>
      </trkpt>
      <trkpt lat="45.37561" lon="5.97756">
        <ele>241.88</ele>
        <time>2018-09-09T15:02:14Z</time>
      </trkpt>
      <trkpt lat="45.3753" lon="5.9774">
        <ele>241.88</ele>
        <time>2018-09-09T15:02:15Z</time>
      </trkpt>
      <trkpt lat="45.37501" lon="5.97723">
        <ele>241.88</ele>
        <time>2018-09-09T15:02:16Z</time>
      </trkpt>
      <trkpt lat="45.37471" lon="5.97707">
        <ele>241.88</ele>
        <time>2018-09-09T15:02:17Z</time>
      </trkpt>
      <trkpt lat="45.3744" lon="5.97691">
        <ele>241.88</ele>
        <time>2018-09-09T15:02:18Z</time>
      </trkpt>
      <trkpt lat="45.3741" lon="5.97675">
        <ele>241.88</ele>
        <time>2018-09-09T15:02:19Z</time>
      </trkpt>
      <trkpt lat="45.3738" lon="5.9766">
        <ele>241.88</ele>
        <time>2018-09-09T15:02:20Z</time>
      </trkpt>
      <trkpt lat="45.3735" lon="5.97644">
        <ele>241.88</ele>
        <time>2018-09-09T15:02:21Z</time>
      </trkpt>
      <trkpt lat="45.3732" lon="5.97627">
        <ele>242.58</ele>
        <time>2018-09-09T15:02:22Z</time>
      </trkpt>
      <trkpt lat="45.3729" lon="5.97612">
        <ele>242.09</ele>
        <time>2018-09-09T15:02:23Z</time>
      </trkpt>
      <trkpt lat="45.3726" lon="5.97596">
        <ele>242.64</ele>
        <time>2018-09-09T15:02:24Z</time>
      </trkpt>
      <trkpt lat="45.37231" lon="5.97581">
        <ele>242.81</ele>
        <time>2018-09-09T15:02:25Z</time>
      </trkpt>
      <trkpt lat="45.37201" lon="5.97565">
        <ele>242.86</ele>
        <time>2018-09-09T15:02:26Z</time>
      </trkpt>
      <trkpt lat="45.37171" lon="5.9755">
        <ele>242.87</ele>
        <time>2018-09-09T15:02:27Z</time>
      </trkpt>
      <trkpt lat="45.37141" lon="5.97535">
        <ele>242.88</ele>
        <time>2018-09-09T15:02:28Z</time>
      </trkpt>
      <trkpt lat="45.37112" lon="5.97519">
        <ele>242.88</ele>
        <time>2018-09-09T15:02:29Z</time>
      </trkpt>
      <trkpt lat="45.37082" lon="5.97504">
        <ele>242.88</ele>
        <time>2018-09-09T15:02:30Z</time>
      </trkpt>
      <trkpt lat="45.37052" lon="5.97488">
        <ele>242.88</ele>
        <time>2018-09-09T15:02:31Z</time>
      </trkpt>
      <trkpt lat="45.37022" lon="5.97473">
        <ele>242.18</ele>
        <time>2018-09-09T15:02:32Z</time>
      </trkpt>
      <trkpt lat="45.36992" lon="5.97458">
        <ele>241.97</ele>
        <time>2018-09-09T15:02:33Z</time>
      </trkpt>
      <trkpt lat="45.36962" lon="5.97443">
        <ele>241.9</ele>
        <time>2018-09-09T15:02:34Z</time>
      </trkpt>
      <trkpt lat="45.36931" lon="5.97428">
        <ele>241.89</ele>
        <time>2018-09-09T15:02:35Z</time>
      </trkpt>
      <trkpt lat="45.36901" lon="5.97413">
        <ele>241.88</ele>
        <time>2018-09-09T15:02:36Z</time>
      </trkpt>
      <trkpt lat="45.3687" lon="5.97398">
        <ele>241.88</ele>
        <time>2018-09-09T15:02:37Z</time>
      </trkpt>
      <trkpt lat="45.3684" lon="5.97384">
        <ele>241.88</ele>
        <time>2018-09-09T15:02:38Z</time>
      </trkpt>
      <trkpt lat="45.3681" lon="5.9737">
        <ele>241.88</ele>
        <time>2018-09-09T15:02:39Z</time>
      </trkpt>
      <trkpt lat="45.36779" lon="5.97356">
        <ele>241.88</ele>
        <time>2018-09-09T15:02:40Z</time>
      </trkpt>
      <trkpt lat="45.36749" lon="5.97341">
        <ele>241.18</ele>
        <time>2018-09-09T15:02:41Z</time>
      </trkpt>
      <trkpt lat="45.36718" lon="5.97327">
        <ele>241.67</ele>
        <time>2018-09-09T15:02:42Z</time>
      </trkpt>
      <trkpt lat="45.36687" lon="5.97313">
        <ele>241.12</ele>
        <time>2018-09-09T15:02:43Z</time>
      </trkpt>
      <trkpt lat="45.36656" lon="5.97299">
        <ele>240.95</ele>
        <time>2018-09-09T15:02:44Z</time>
      </trkpt>
      <trkpt lat="45.36625" lon="5.97285">
        <ele>240.9</ele>
        <time>2018-09-09T15:02:45Z</time>
      </trkpt>
      <trkpt lat="45.36594" lon="5.97271">
        <ele>240.88</ele>
        <time>2018-09-09T15:02:46Z</time>
      </trkpt>
      <trkpt lat="45.36563" lon="5.97256">
        <ele>240.88</ele>
        <time>2018-09-09T15:02:47Z</time>
      </trkpt>
      <trkpt lat="45.36532" lon="5.97241">
        <ele>240.88</ele>
        <time>2018-09-09T15:02:48Z</time>
      </trkpt>
      <trkpt lat="45.36501" lon="5.97227">
        <ele>240.18</ele>
        <time>2018-09-09T15:02:49Z</time>
      </trkpt>
      <trkpt lat="45.36469" lon="5.97213">
        <ele>240.67</ele>
        <time>2018-09-09T15:02:50Z</time>
      </trkpt>
      <trkpt lat="45.36438" lon="5.97199">
        <ele>240.82</ele>
        <time>2018-09-09T15:02:51Z</time>
      </trkpt>
      <trkpt lat="45.36407" lon="5.97186">
        <ele>240.16</ele>
        <time>2018-09-09T15:02:52Z</time>
      </trkpt>
      <trkpt lat="45.36375" lon="5.97172">
        <ele>239.96</ele>
        <time>2018-09-09T15:02:53Z</time>
      </trkpt>
      <trkpt lat="45.36343" lon="5.97159">
        <ele>239.9</ele>
        <time>2018-09-09T15:02:54Z</time>
      </trkpt>
      <trkpt lat="45.36311" lon="5.97146">
        <ele>239.89</ele>
        <time>2018-09-09T15:02:55Z</time>
      </trkpt>
      <trkpt lat="45.36279" lon="5.97133">
        <ele>239.88</ele>
        <time>2018-09-09T15:02:56Z</time>
      </trkpt>
      <trkpt lat="45.36248" lon="5.9712">
        <ele>239.88</ele>
        <time>2018-09-09T15:02:57Z</time>
      </trkpt>
      <trkpt lat="45.36216" lon="5.97106">
        <ele>239.88</ele>
        <time>2018-09-09T15:02:58Z</time>
      </trkpt>
      <trkpt lat="45.36184" lon="5.97093">
        <ele>239.88</ele>
        <time>2018-09-09T15:02:59Z</time>
      </trkpt>
      <trkpt lat="45.36152" lon="5.9708">
        <ele>239.88</ele>
        <time>2018-09-09T15:03:00Z</time>
      </trkpt>
      <trkpt lat="45.3612" lon="5.97067">
        <ele>239.88</ele>
        <time>2018-09-09T15:03:01Z</time>
      </trkpt>
      <trkpt lat="45.36088" lon="5.97054">
        <ele>239.18</ele>
        <time>2018-09-09T15:03:02Z</time>
      </trkpt>
      <trkpt lat="45.36057" lon="5.97042">
        <ele>239.67</ele>
        <time>2018-09-09T15:03:03Z</time>
      </trkpt>
      <trkpt lat="45.36025" lon="5.9703">
        <ele>239.82</ele>
        <time>2018-09-09T15:03:04Z</time>
      </trkpt>
      <trkpt lat="45.35993" lon="5.97017">
        <ele>239.86</ele>
        <time>2018-09-09T15:03:05Z</time>
      </trkpt>
      <trkpt lat="45.35961" lon="5.97005">
        <ele>239.87</ele>
        <time>2018-09-09T15:03:06Z</time>
      </trkpt>
      <trkpt lat="45.35929" lon="5.96994">
        <ele>239.88</ele>
        <time>2018-09-09T15:03:07Z</time>
      </trkpt>
      <trkpt lat="45.35897" lon="5.96983">
        <ele>239.88</ele>
        <time>2018-09-09T15:03:08Z</time>
      </trkpt>
      <trkpt lat="45.35864" lon="5.96971">
        <ele>239.88</ele>
        <time>2018-09-09T15:03:09Z</time>
      </trkpt>
      <trkpt lat="45.35832" lon="5.9696">
        <ele>239.88</ele>
        <time>2018-09-09T15:03:10Z</time>
      </trkpt>
      <trkpt lat="45.358" lon="5.96949">
        <ele>239.88</ele>
        <time>2018-09-09T15:03:11Z</time>
      </trkpt>
      <trkpt lat="45.35769" lon="5.96938">
        <ele>239.88</ele>
        <time>2018-09-09T15:03:12Z</time>
      </trkpt>
      <trkpt lat="45.35737" lon="5.96927">
        <ele>239.18</ele>
        <time>2018-09-09T15:03:13Z</time>
      </trkpt>
      <trkpt lat="45.35705" lon="5.96916">
        <ele>238.97</ele>
        <time>2018-09-09T15:03:14Z</time>
      </trkpt>
      <trkpt lat="45.35673" lon="5.96904">
        <ele>239.6</ele>
        <time>2018-09-09T15:03:15Z</time>
      </trkpt>
      <trkpt lat="45.35642" lon="5.96894">
        <ele>239.8</ele>
        <time>2018-09-09T15:03:16Z</time>
      </trkpt>
      <trkpt lat="45.3561" lon="5.96883">
        <ele>239.85</ele>
        <time>2018-09-09T15:03:17Z</time>
      </trkpt>
      <trkpt lat="45.35578" lon="5.96872">
        <ele>239.87</ele>
        <time>2018-09-09T15:03:18Z</time>
      </trkpt>
      <trkpt lat="45.35546" lon="5.96862">
        <ele>239.18</ele>
        <time>2018-09-09T15:03:19Z</time>
      </trkpt>
      <trkpt lat="45.35514" lon="5.96852">
        <ele>238.97</ele>
        <time>2018-09-09T15:03:20Z</time>
      </trkpt>
      <trkpt lat="45.35483" lon="5.96843">
        <ele>238.9</ele>
        <time>2018-09-09T15:03:21Z</time>
      </trkpt>
      <trkpt lat="45.35451" lon="5.96833">
        <ele>238.89</ele>
        <time>2018-09-09T15:03:22Z</time>
      </trkpt>
      <trkpt lat="45.3542" lon="5.96824">
        <ele>238.88</ele>
        <time>2018-09-09T15:03:23Z</time>
      </trkpt>
      <trkpt lat="45.35388" lon="5.96815">
        <ele>239.58</ele>
        <time>2018-09-09T15:03:24Z</time>
      </trkpt>
      <trkpt lat="45.35356" lon="5.96806">
        <ele>239.79</ele>
        <time>2018-09-09T15:03:25Z</time>
      </trkpt>
      <trkpt lat="45.35325" lon="5.96797">
        <ele>239.85</ele>
        <time>2018-09-09T15:03:26Z</time>
      </trkpt>
      <trkpt lat="45.35294" lon="5.96788">
        <ele>239.87</ele>
        <time>2018-09-09T15:03:27Z</time>
      </trkpt>
      <trkpt lat="45.35262" lon="5.9678">
        <ele>239.88</ele>
        <time>2018-09-09T15:03:28Z</time>
      </trkpt>
      <trkpt lat="45.35231" lon="5.96771">
        <ele>239.18</ele>
        <time>2018-09-09T15:03:29Z</time>
      </trkpt>
      <trkpt lat="45.35199" lon="5.96762">
        <ele>238.97</ele>
        <time>2018-09-09T15:03:30Z</time>
      </trkpt>
      <trkpt lat="45.35167" lon="5.96753">
        <ele>238.9</ele>
        <time>2018-09-09T15:03:31Z</time>
      </trkpt>
      <trkpt lat="45.35135" lon="5.96745">
        <ele>238.89</ele>
        <time>2018-09-09T15:03:32Z</time>
      </trkpt>
      <trkpt lat="45.35103" lon="5.96736">
        <ele>238.88</ele>
        <time>2018-09-09T15:03:33Z</time>
      </trkpt>
      <trkpt lat="45.35071" lon="5.96727">
        <ele>238.88</ele>
        <time>2018-09-09T15:03:34Z</time>
      </trkpt>
      <trkpt lat="45.35039" lon="5.96719">
        <ele>238.88</ele>
        <time>2018-09-09T15:03:35Z</time>
      </trkpt>
      <trkpt lat="45.35007" lon="5.9671">
        <ele>238.88</ele>
        <time>2018-09-09T15:03:36Z</time>
      </trkpt>
      <trkpt lat="45.34974" lon="5.96701">
        <ele>238.88</ele>
        <time>2018-09-09T15:03:37Z</time>
      </trkpt>
      <trkpt lat="45.34942" lon="5.96694">
        <ele>239.58</ele>
        <time>2018-09-09T15:03:38Z</time>
      </trkpt>
      <trkpt lat="45.3491" lon="5.96687">
        <ele>240.49</ele>
        <time>2018-09-09T15:03:39Z</time>
      </trkpt>
      <trkpt lat="45.34877" lon="5.96678">
        <ele>240.06</ele>
        <time>2018-09-09T15:03:40Z</time>
      </trkpt>
      <trkpt lat="45.34845" lon="5.9667">
        <ele>239.93</ele>
        <time>2018-09-09T15:03:41Z</time>
      </trkpt>
      <trkpt lat="45.34813" lon="5.96661">
        <ele>239.89</ele>
        <time>2018-09-09T15:03:42Z</time>
      </trkpt>
      <trkpt lat="45.3478" lon="5.96652">
        <ele>239.88</ele>
        <time>2018-09-09T15:03:43Z</time>
      </trkpt>
      <trkpt lat="45.34748" lon="5.96644">
        <ele>240.58</ele>
        <time>2018-09-09T15:03:44Z</time>
      </trkpt>
      <trkpt lat="45.34716" lon="5.96635">
        <ele>240.09</ele>
        <time>2018-09-09T15:03:45Z</time>
      </trkpt>
      <trkpt lat="45.34684" lon="5.96626">
        <ele>239.94</ele>
        <time>2018-09-09T15:03:46Z</time>
      </trkpt>
      <trkpt lat="45.34652" lon="5.96616">
        <ele>239.9</ele>
        <time>2018-09-09T15:03:47Z</time>
      </trkpt>
      <trkpt lat="45.34621" lon="5.96607">
        <ele>239.88</ele>
        <time>2018-09-09T15:03:48Z</time>
      </trkpt>
      <trkpt lat="45.3459" lon="5.96599">
        <ele>239.88</ele>
        <time>2018-09-09T15:03:49Z</time>
      </trkpt>
      <trkpt lat="45.34558" lon="5.96591">
        <ele>239.88</ele>
        <time>2018-09-09T15:03:50Z</time>
      </trkpt>
      <trkpt lat="45.34527" lon="5.96582">
        <ele>239.88</ele>
        <time>2018-09-09T15:03:51Z</time>
      </trkpt>
      <trkpt lat="45.34496" lon="5.96572">
        <ele>239.88</ele>
        <time>2018-09-09T15:03:52Z</time>
      </trkpt>
      <trkpt lat="45.34465" lon="5.96563">
        <ele>239.88</ele>
        <time>2018-09-09T15:03:53Z</time>
      </trkpt>
      <trkpt lat="45.34434" lon="5.96555">
        <ele>239.88</ele>
        <time>2018-09-09T15:03:54Z</time>
      </trkpt>
      <trkpt lat="45.34403" lon="5.96545">
        <ele>240.58</ele>
        <time>2018-09-09T15:03:55Z</time>
      </trkpt>
      <trkpt lat="45.34373" lon="5.96535">
        <ele>240.09</ele>
        <time>2018-09-09T15:03:56Z</time>
      </trkpt>
      <trkpt lat="45.34342" lon="5.96524">
        <ele>240.64</ele>
        <time>2018-09-09T15:03:57Z</time>
      </trkpt>
      <trkpt lat="45.34312" lon="5.96514">
        <ele>240.81</ele>
        <time>2018-09-09T15:03:58Z</time>
      </trkpt>
      <trkpt lat="45.34281" lon="5.96503">
        <ele>240.86</ele>
        <time>2018-09-09T15:03:59Z</time>
      </trkpt>
      <trkpt lat="45.3425" lon="5.96492">
        <ele>240.87</ele>
        <time>2018-09-09T15:04:00Z</time>
      </trkpt>
      <trkpt lat="45.34219" lon="5.9648">
        <ele>240.18</ele>
        <time>2018-09-09T15:04:01Z</time>
      </trkpt>
      <trkpt lat="45.34188" lon="5.96467">
        <ele>239.97</ele>
        <time>2018-09-09T15:04:02Z</time>
      </trkpt>
      <trkpt lat="45.34157" lon="5.96454">
        <ele>239.9</ele>
        <time>2018-09-09T15:04:03Z</time>
      </trkpt>
      <trkpt lat="45.34126" lon="5.96441">
        <ele>239.89</ele>
        <time>2018-09-09T15:04:04Z</time>
      </trkpt>
      <trkpt lat="45.34094" lon="5.96427">
        <ele>239.18</ele>
        <time>2018-09-09T15:04:05Z</time>
      </trkpt>
      <trkpt lat="45.34062" lon="5.96414">
        <ele>238.97</ele>
        <time>2018-09-09T15:04:06Z</time>
      </trkpt>
      <trkpt lat="45.34031" lon="5.96399">
        <ele>238.91</ele>
        <time>2018-09-09T15:04:07Z</time>
      </trkpt>
      <trkpt lat="45.34" lon="5.96384">
        <ele>238.89</ele>
        <time>2018-09-09T15:04:08Z</time>
      </trkpt>
      <trkpt lat="45.33968" lon="5.96369">
        <ele>239.58</ele>
        <time>2018-09-09T15:04:09Z</time>
      </trkpt>
      <trkpt lat="45.33937" lon="5.96354">
        <ele>239.79</ele>
        <time>2018-09-09T15:04:10Z</time>
      </trkpt>
      <trkpt lat="45.33906" lon="5.96338">
        <ele>239.85</ele>
        <time>2018-09-09T15:04:11Z</time>
      </trkpt>
      <trkpt lat="45.33875" lon="5.96322">
        <ele>239.87</ele>
        <time>2018-09-09T15:04:12Z</time>
      </trkpt>
      <trkpt lat="45.33844" lon="5.96306">
        <ele>239.18</ele>
        <time>2018-09-09T15:04:13Z</time>
      </trkpt>
      <trkpt lat="45.33813" lon="5.96289">
        <ele>238.97</ele>
        <time>2018-09-09T15:04:14Z</time>
      </trkpt>
      <trkpt lat="45.33782" lon="5.96273">
        <ele>238.9</ele>
        <time>2018-09-09T15:04:15Z</time>
      </trkpt>
      <trkpt lat="45.33752" lon="5.96256">
        <ele>238.89</ele>
        <time>2018-09-09T15:04:16Z</time>
      </trkpt>
      <trkpt lat="45.33721" lon="5.96239">
        <ele>239.58</ele>
        <time>2018-09-09T15:04:17Z</time>
      </trkpt>
      <trkpt lat="45.3369" lon="5.96222">
        <ele>239.79</ele>
        <time>2018-09-09T15:04:18Z</time>
      </trkpt>
      <trkpt lat="45.3366" lon="5.96204">
        <ele>239.15</ele>
        <time>2018-09-09T15:04:19Z</time>
      </trkpt>
      <trkpt lat="45.3363" lon="5.96186">
        <ele>239.66</ele>
        <time>2018-09-09T15:04:20Z</time>
      </trkpt>
      <trkpt lat="45.33601" lon="5.96168">
        <ele>239.11</ele>
        <time>2018-09-09T15:04:21Z</time>
      </trkpt>
      <trkpt lat="45.33571" lon="5.96149">
        <ele>238.95</ele>
        <time>2018-09-09T15:04:22Z</time>
      </trkpt>
      <trkpt lat="45.33541" lon="5.9613">
        <ele>238.9</ele>
        <time>2018-09-09T15:04:23Z</time>
      </trkpt>
      <trkpt lat="45.33512" lon="5.96112">
        <ele>238.88</ele>
        <time>2018-09-09T15:04:24Z</time>
      </trkpt>
      <trkpt lat="45.33482" lon="5.96093">
        <ele>238.18</ele>
        <time>2018-09-09T15:04:25Z</time>
      </trkpt>
      <trkpt lat="45.33453" lon="5.96074">
        <ele>237.97</ele>
        <time>2018-09-09T15:04:26Z</time>
      </trkpt>
      <trkpt lat="45.33424" lon="5.96053">
        <ele>237.91</ele>
        <time>2018-09-09T15:04:27Z</time>
      </trkpt>
      <trkpt lat="45.33395" lon="5.96033">
        <ele>237.89</ele>
        <time>2018-09-09T15:04:28Z</time>
      </trkpt>
      <trkpt lat="45.33366" lon="5.96013">
        <ele>237.88</ele>
        <time>2018-09-09T15:04:29Z</time>
      </trkpt>
      <trkpt lat="45.33337" lon="5.95992">
        <ele>238.58</ele>
        <time>2018-09-09T15:04:30Z</time>
      </trkpt>
      <trkpt lat="45.33309" lon="5.95971">
        <ele>238.79</ele>
        <time>2018-09-09T15:04:31Z</time>
      </trkpt>
      <trkpt lat="45.33281" lon="5.9595">
        <ele>238.85</ele>
        <time>2018-09-09T15:04:32Z</time>
      </trkpt>
      <trkpt lat="45.33253" lon="5.95929">
        <ele>238.17</ele>
        <time>2018-09-09T15:04:33Z</time>
      </trkpt>
      <trkpt lat="45.33226" lon="5.95908">
        <ele>237.97</ele>
        <time>2018-09-09T15:04:34Z</time>
      </trkpt>
      <trkpt lat="45.33199" lon="5.95887">
        <ele>237.9</ele>
        <time>2018-09-09T15:04:35Z</time>
      </trkpt>
      <trkpt lat="45.33172" lon="5.95866">
        <ele>237.89</ele>
        <time>2018-09-09T15:04:36Z</time>
      </trkpt>
      <trkpt lat="45.33146" lon="5.95845">
        <ele>237.88</ele>
        <time>2018-09-09T15:04:37Z</time>
      </trkpt>
      <trkpt lat="45.33121" lon="5.95825">
        <ele>237.88</ele>
        <time>2018-09-09T15:04:38Z</time>
      </trkpt>
      <trkpt lat="45.33096" lon="5.95804">
        <ele>237.88</ele>
        <time>2018-09-09T15:04:39Z</time>
      </trkpt>
      <trkpt lat="45.33071" lon="5.95783">
        <ele>237.88</ele>
        <time>2018-09-09T15:04:40Z</time>
      </trkpt>
      <trkpt lat="45.33047" lon="5.95762">
        <ele>237.88</ele>
        <time>2018-09-09T15:04:41Z</time>
      </trkpt>
      <trkpt lat="45.33022" lon="5.95741">
        <ele>237.88</ele>
        <time>2018-09-09T15:04:42Z</time>
      </trkpt>
      <trkpt lat="45.32998" lon="5.95721">
        <ele>237.88</ele>
        <time>2018-09-09T15:04:43Z</time>
      </trkpt>
      <trkpt lat="45.32973" lon="5.957">
        <ele>237.88</ele>
        <time>2018-09-09T15:04:44Z</time>
      </trkpt>
      <trkpt lat="45.32948" lon="5.95678">
        <ele>237.88</ele>
        <time>2018-09-09T15:04:45Z</time>
      </trkpt>
      <trkpt lat="45.32924" lon="5.95657">
        <ele>237.88</ele>
        <time>2018-09-09T15:04:46Z</time>
      </trkpt>
      <trkpt lat="45.32899" lon="5.95636">
        <ele>237.88</ele>
        <time>2018-09-09T15:04:47Z</time>
      </trkpt>
      <trkpt lat="45.32875" lon="5.95614">
        <ele>237.88</ele>
        <time>2018-09-09T15:04:48Z</time>
      </trkpt>
      <trkpt lat="45.32851" lon="5.95591">
        <ele>237.88</ele>
        <time>2018-09-09T15:04:49Z</time>
      </trkpt>
      <trkpt lat="45.32827" lon="5.95567">
        <ele>237.88</ele>
        <time>2018-09-09T15:04:50Z</time>
      </trkpt>
      <trkpt lat="45.32803" lon="5.95544">
        <ele>237.88</ele>
        <time>2018-09-09T15:04:51Z</time>
      </trkpt>
      <trkpt lat="45.32779" lon="5.95521">
        <ele>237.88</ele>
        <time>2018-09-09T15:04:52Z</time>
      </trkpt>
      <trkpt lat="45.32755" lon="5.95497">
        <ele>237.88</ele>
        <time>2018-09-09T15:04:53Z</time>
      </trkpt>
      <trkpt lat="45.32731" lon="5.95473">
        <ele>237.88</ele>
        <time>2018-09-09T15:04:54Z</time>
      </trkpt>
      <trkpt lat="45.32706" lon="5.95447">
        <ele>237.18</ele>
        <time>2018-09-09T15:04:55Z</time>
      </trkpt>
      <trkpt lat="45.32682" lon="5.95421">
        <ele>236.97</ele>
        <time>2018-09-09T15:04:56Z</time>
      </trkpt>
      <trkpt lat="45.32656" lon="5.95392">
        <ele>236.9</ele>
        <time>2018-09-09T15:04:57Z</time>
      </trkpt>
      <trkpt lat="45.3263" lon="5.95361">
        <ele>236.89</ele>
        <time>2018-09-09T15:04:58Z</time>
      </trkpt>
      <trkpt lat="45.32603" lon="5.95331">
        <ele>236.88</ele>
        <time>2018-09-09T15:04:59Z</time>
      </trkpt>
      <trkpt lat="45.32576" lon="5.953">
        <ele>236.88</ele>
        <time>2018-09-09T15:05:00Z</time>
      </trkpt>
      <trkpt lat="45.3255" lon="5.95271">
        <ele>236.18</ele>
        <time>2018-09-09T15:05:01Z</time>
      </trkpt>
      <trkpt lat="45.32524" lon="5.95241">
        <ele>235.97</ele>
        <time>2018-09-09T15:05:02Z</time>
      </trkpt>
      <trkpt lat="45.32499" lon="5.95213">
        <ele>235.91</ele>
        <time>2018-09-09T15:05:03Z</time>
      </trkpt>
      <trkpt lat="45.32474" lon="5.95184">
        <ele>235.89</ele>
        <time>2018-09-09T15:05:04Z</time>
      </trkpt>
      <trkpt lat="45.3245" lon="5.95155">
        <ele>235.18</ele>
        <time>2018-09-09T15:05:05Z</time>
      </trkpt>
      <trkpt lat="45.32426" lon="5.95126">
        <ele>234.97</ele>
        <time>2018-09-09T15:05:06Z</time>
      </trkpt>
      <trkpt lat="45.32403" lon="5.95097">
        <ele>234.91</ele>
        <time>2018-09-09T15:05:07Z</time>
      </trkpt>
      <trkpt lat="45.3238" lon="5.95067">
        <ele>234.89</ele>
        <time>2018-09-09T15:05:08Z</time>
      </trkpt>
      <trkpt lat="45.32357" lon="5.95038">
        <ele>234.88</ele>
        <time>2018-09-09T15:05:09Z</time>
      </trkpt>
      <trkpt lat="45.32333" lon="5.95008">
        <ele>234.88</ele>
        <time>2018-09-09T15:05:10Z</time>
      </trkpt>
      <trkpt lat="45.3231" lon="5.94977">
        <ele>234.88</ele>
        <time>2018-09-09T15:05:11Z</time>
      </trkpt>
      <trkpt lat="45.32287" lon="5.94947">
        <ele>234.88</ele>
        <time>2018-09-09T15:05:12Z</time>
      </trkpt>
      <trkpt lat="45.32264" lon="5.94916">
        <ele>234.88</ele>
        <time>2018-09-09T15:05:13Z</time>
      </trkpt>
      <trkpt lat="45.32241" lon="5.94886">
        <ele>234.88</ele>
        <time>2018-09-09T15:05:14Z</time>
      </trkpt>
      <trkpt lat="45.32218" lon="5.94856">
        <ele>234.88</ele>
        <time>2018-09-09T15:05:15Z</time>
      </trkpt>
      <trkpt lat="45.32195" lon="5.94824">
        <ele>234.88</ele>
        <time>2018-09-09T15:05:16Z</time>
      </trkpt>
      <trkpt lat="45.32172" lon="5.94793">
        <ele>234.88</ele>
        <time>2018-09-09T15:05:17Z</time>
      </trkpt>
      <trkpt lat="45.32148" lon="5.9476">
        <ele>234.88</ele>
        <time>2018-09-09T15:05:18Z</time>
      </trkpt>
      <trkpt lat="45.32125" lon="5.94729">
        <ele>234.88</ele>
        <time>2018-09-09T15:05:19Z</time>
      </trkpt>
      <trkpt lat="45.32103" lon="5.94696">
        <ele>234.88</ele>
        <time>2018-09-09T15:05:20Z</time>
      </trkpt>
      <trkpt lat="45.32081" lon="5.94664">
        <ele>234.88</ele>
        <time>2018-09-09T15:05:21Z</time>
      </trkpt>
      <trkpt lat="45.32058" lon="5.9463">
        <ele>234.88</ele>
        <time>2018-09-09T15:05:22Z</time>
      </trkpt>
      <trkpt lat="45.32036" lon="5.94598">
        <ele>234.88</ele>
        <time>2018-09-09T15:05:23Z</time>
      </trkpt>
      <trkpt lat="45.32014" lon="5.94564">
        <ele>234.88</ele>
        <time>2018-09-09T15:05:24Z</time>
      </trkpt>
      <trkpt lat="45.31992" lon="5.94531">
        <ele>234.18</ele>
        <time>2018-09-09T15:05:25Z</time>
      </trkpt>
      <trkpt lat="45.3197" lon="5.94498">
        <ele>233.97</ele>
        <time>2018-09-09T15:05:26Z</time>
      </trkpt>
      <trkpt lat="45.31947" lon="5.94465">
        <ele>233.9</ele>
        <time>2018-09-09T15:05:27Z</time>
      </trkpt>
      <trkpt lat="45.31925" lon="5.94432">
        <ele>233.89</ele>
        <time>2018-09-09T15:05:28Z</time>
      </trkpt>
      <trkpt lat="45.31903" lon="5.94398">
        <ele>233.88</ele>
        <time>2018-09-09T15:05:29Z</time>
      </trkpt>
      <trkpt lat="45.31881" lon="5.94365">
        <ele>233.88</ele>
        <time>2018-09-09T15:05:30Z</time>
      </trkpt>
      <trkpt lat="45.31858" lon="5.94331">
        <ele>233.88</ele>
        <time>2018-09-09T15:05:31Z</time>
      </trkpt>
      <trkpt lat="45.31836" lon="5.94298">
        <ele>233.88</ele>
        <time>2018-09-09T15:05:32Z</time>
      </trkpt>
      <trkpt lat="45.31814" lon="5.94264">
        <ele>233.88</ele>
        <time>2018-09-09T15:05:33Z</time>
      </trkpt>
      <trkpt lat="45.31792" lon="5.9423">
        <ele>233.88</ele>
        <time>2018-09-09T15:05:34Z</time>
      </trkpt>
      <trkpt lat="45.3177" lon="5.94196">
        <ele>233.88</ele>
        <time>2018-09-09T15:05:35Z</time>
      </trkpt>
      <trkpt lat="45.31748" lon="5.94163">
        <ele>234.58</ele>
        <time>2018-09-09T15:05:36Z</time>
      </trkpt>
      <trkpt lat="45.31726" lon="5.94129">
        <ele>234.09</ele>
        <time>2018-09-09T15:05:37Z</time>
      </trkpt>
      <trkpt lat="45.31704" lon="5.94096">
        <ele>234.64</ele>
        <time>2018-09-09T15:05:38Z</time>
      </trkpt>
      <trkpt lat="45.31682" lon="5.94064">
        <ele>234.81</ele>
        <time>2018-09-09T15:05:39Z</time>
      </trkpt>
      <trkpt lat="45.3166" lon="5.94032">
        <ele>234.86</ele>
        <time>2018-09-09T15:05:40Z</time>
      </trkpt>
      <trkpt lat="45.31639" lon="5.94">
        <ele>234.87</ele>
        <time>2018-09-09T15:05:41Z</time>
      </trkpt>
      <trkpt lat="45.31617" lon="5.93968">
        <ele>234.18</ele>
        <time>2018-09-09T15:05:42Z</time>
      </trkpt>
      <trkpt lat="45.31595" lon="5.93936">
        <ele>233.27</ele>
        <time>2018-09-09T15:05:43Z</time>
      </trkpt>
      <trkpt lat="45.31573" lon="5.93904">
        <ele>233.69</ele>
        <time>2018-09-09T15:05:44Z</time>
      </trkpt>
      <trkpt lat="45.31551" lon="5.93872">
        <ele>233.12</ele>
        <time>2018-09-09T15:05:45Z</time>
      </trkpt>
      <trkpt lat="45.31528" lon="5.9384">
        <ele>233.65</ele>
        <time>2018-09-09T15:05:46Z</time>
      </trkpt>
      <trkpt lat="45.31505" lon="5.93809">
        <ele>233.11</ele>
        <time>2018-09-09T15:05:47Z</time>
      </trkpt>
      <trkpt lat="45.31482" lon="5.93778">
        <ele>233.65</ele>
        <time>2018-09-09T15:05:48Z</time>
      </trkpt>
      <trkpt lat="45.3146" lon="5.93746">
        <ele>233.81</ele>
        <time>2018-09-09T15:05:49Z</time>
      </trkpt>
      <trkpt lat="45.31437" lon="5.93715">
        <ele>233.16</ele>
        <time>2018-09-09T15:05:50Z</time>
      </trkpt>
      <trkpt lat="45.31413" lon="5.93684">
        <ele>232.96</ele>
        <time>2018-09-09T15:05:51Z</time>
      </trkpt>
      <trkpt lat="45.31389" lon="5.93654">
        <ele>232.9</ele>
        <time>2018-09-09T15:05:52Z</time>
      </trkpt>
      <trkpt lat="45.31366" lon="5.93623">
        <ele>232.89</ele>
        <time>2018-09-09T15:05:53Z</time>
      </trkpt>
      <trkpt lat="45.31341" lon="5.93593">
        <ele>232.88</ele>
        <time>2018-09-09T15:05:54Z</time>
      </trkpt>
      <trkpt lat="45.31317" lon="5.93563">
        <ele>233.58</ele>
        <time>2018-09-09T15:05:55Z</time>
      </trkpt>
      <trkpt lat="45.31292" lon="5.93532">
        <ele>233.79</ele>
        <time>2018-09-09T15:05:56Z</time>
      </trkpt>
      <trkpt lat="45.31268" lon="5.93502">
        <ele>233.85</ele>
        <time>2018-09-09T15:05:57Z</time>
      </trkpt>
      <trkpt lat="45.31243" lon="5.93473">
        <ele>233.87</ele>
        <time>2018-09-09T15:05:58Z</time>
      </trkpt>
      <trkpt lat="45.31219" lon="5.93442">
        <ele>233.88</ele>
        <time>2018-09-09T15:05:59Z</time>
      </trkpt>
      <trkpt lat="45.31194" lon="5.93413">
        <ele>233.88</ele>
        <time>2018-09-09T15:06:00Z</time>
      </trkpt>
      <trkpt lat="45.31169" lon="5.93384">
        <ele>233.88</ele>
        <time>2018-09-09T15:06:01Z</time>
      </trkpt>
      <trkpt lat="45.31143" lon="5.93355">
        <ele>233.88</ele>
        <time>2018-09-09T15:06:02Z</time>
      </trkpt>
      <trkpt lat="45.31118" lon="5.93326">
        <ele>233.88</ele>
        <time>2018-09-09T15:06:03Z</time>
      </trkpt>
      <trkpt lat="45.31092" lon="5.93297">
        <ele>233.88</ele>
        <time>2018-09-09T15:06:04Z</time>
      </trkpt>
      <trkpt lat="45.31066" lon="5.93269">
        <ele>233.88</ele>
        <time>2018-09-09T15:06:05Z</time>
      </trkpt>
      <trkpt lat="45.31041" lon="5.93241">
        <ele>233.88</ele>
        <time>2018-09-09T15:06:06Z</time>
      </trkpt>
      <trkpt lat="45.31014" lon="5.93214">
        <ele>233.88</ele>
        <time>2018-09-09T15:06:07Z</time>
      </trkpt>
      <trkpt lat="45.30988" lon="5.93186">
        <ele>233.88</ele>
        <time>2018-09-09T15:06:08Z</time>
      </trkpt>
      <trkpt lat="45.30962" lon="5.93158">
        <ele>233.88</ele>
        <time>2018-09-09T15:06:09Z</time>
      </trkpt>
      <trkpt lat="45.30935" lon="5.9313">
        <ele>233.88</ele>
        <time>2018-09-09T15:06:10Z</time>
      </trkpt>
      <trkpt lat="45.30909" lon="5.93103">
        <ele>233.88</ele>
        <time>2018-09-09T15:06:11Z</time>
      </trkpt>
      <trkpt lat="45.30882" lon="5.93076">
        <ele>233.18</ele>
        <time>2018-09-09T15:06:12Z</time>
      </trkpt>
      <trkpt lat="45.30854" lon="5.93049">
        <ele>232.97</ele>
        <time>2018-09-09T15:06:13Z</time>
      </trkpt>
      <trkpt lat="45.30826" lon="5.93023">
        <ele>232.9</ele>
        <time>2018-09-09T15:06:14Z</time>
      </trkpt>
      <trkpt lat="45.30798" lon="5.92997">
        <ele>232.89</ele>
        <time>2018-09-09T15:06:15Z</time>
      </trkpt>
      <trkpt lat="45.3077" lon="5.92971">
        <ele>232.88</ele>
        <time>2018-09-09T15:06:16Z</time>
      </trkpt>
      <trkpt lat="45.30742" lon="5.92946">
        <ele>232.88</ele>
        <time>2018-09-09T15:06:17Z</time>
      </trkpt>
      <trkpt lat="45.30715" lon="5.92921">
        <ele>232.88</ele>
        <time>2018-09-09T15:06:18Z</time>
      </trkpt>
      <trkpt lat="45.30687" lon="5.92896">
        <ele>232.88</ele>
        <time>2018-09-09T15:06:19Z</time>
      </trkpt>
      <trkpt lat="45.3066" lon="5.92872">
        <ele>232.18</ele>
        <time>2018-09-09T15:06:20Z</time>
      </trkpt>
      <trkpt lat="45.30633" lon="5.92847">
        <ele>231.97</ele>
        <time>2018-09-09T15:06:21Z</time>
      </trkpt>
      <trkpt lat="45.30605" lon="5.92824">
        <ele>232.6</ele>
        <time>2018-09-09T15:06:22Z</time>
      </trkpt>
      <trkpt lat="45.30577" lon="5.92801">
        <ele>232.8</ele>
        <time>2018-09-09T15:06:23Z</time>
      </trkpt>
      <trkpt lat="45.30548" lon="5.92778">
        <ele>232.15</ele>
        <time>2018-09-09T15:06:24Z</time>
      </trkpt>
      <trkpt lat="45.3052" lon="5.92756">
        <ele>232.66</ele>
        <time>2018-09-09T15:06:25Z</time>
      </trkpt>
      <trkpt lat="45.30492" lon="5.92734">
        <ele>232.81</ele>
        <time>2018-09-09T15:06:26Z</time>
      </trkpt>
      <trkpt lat="45.30463" lon="5.92712">
        <ele>232.86</ele>
        <time>2018-09-09T15:06:27Z</time>
      </trkpt>
      <trkpt lat="45.30435" lon="5.92689">
        <ele>232.87</ele>
        <time>2018-09-09T15:06:28Z</time>
      </trkpt>
      <trkpt lat="45.30406" lon="5.92668">
        <ele>232.88</ele>
        <time>2018-09-09T15:06:29Z</time>
      </trkpt>
      <trkpt lat="45.30377" lon="5.92647">
        <ele>232.88</ele>
        <time>2018-09-09T15:06:30Z</time>
      </trkpt>
      <trkpt lat="45.30348" lon="5.92626">
        <ele>232.88</ele>
        <time>2018-09-09T15:06:31Z</time>
      </trkpt>
      <trkpt lat="45.30319" lon="5.92605">
        <ele>232.88</ele>
        <time>2018-09-09T15:06:32Z</time>
      </trkpt>
      <trkpt lat="45.30289" lon="5.92584">
        <ele>232.88</ele>
        <time>2018-09-09T15:06:33Z</time>
      </trkpt>
      <trkpt lat="45.3026" lon="5.92564">
        <ele>232.18</ele>
        <time>2018-09-09T15:06:34Z</time>
      </trkpt>
      <trkpt lat="45.30231" lon="5.92543">
        <ele>232.67</ele>
        <time>2018-09-09T15:06:35Z</time>
      </trkpt>
      <trkpt lat="45.30202" lon="5.92523">
        <ele>232.82</ele>
        <time>2018-09-09T15:06:36Z</time>
      </trkpt>
      <trkpt lat="45.30172" lon="5.92503">
        <ele>232.86</ele>
        <time>2018-09-09T15:06:37Z</time>
      </trkpt>
      <trkpt lat="45.30143" lon="5.92482">
        <ele>232.87</ele>
        <time>2018-09-09T15:06:38Z</time>
      </trkpt>
      <trkpt lat="45.30114" lon="5.92462">
        <ele>232.88</ele>
        <time>2018-09-09T15:06:39Z</time>
      </trkpt>
      <trkpt lat="45.30084" lon="5.92443">
        <ele>232.88</ele>
        <time>2018-09-09T15:06:40Z</time>
      </trkpt>
      <trkpt lat="45.30055" lon="5.92424">
        <ele>232.88</ele>
        <time>2018-09-09T15:06:41Z</time>
      </trkpt>
      <trkpt lat="45.30026" lon="5.92404">
        <ele>233.58</ele>
        <time>2018-09-09T15:06:42Z</time>
      </trkpt>
      <trkpt lat="45.29997" lon="5.92384">
        <ele>233.79</ele>
        <time>2018-09-09T15:06:43Z</time>
      </trkpt>
      <trkpt lat="45.29968" lon="5.92365">
        <ele>233.85</ele>
        <time>2018-09-09T15:06:44Z</time>
      </trkpt>
      <trkpt lat="45.29938" lon="5.92345">
        <ele>233.17</ele>
        <time>2018-09-09T15:06:45Z</time>
      </trkpt>
      <trkpt lat="45.29909" lon="5.92325">
        <ele>232.97</ele>
        <time>2018-09-09T15:06:46Z</time>
      </trkpt>
      <trkpt lat="45.29879" lon="5.92305">
        <ele>232.9</ele>
        <time>2018-09-09T15:06:47Z</time>
      </trkpt>
      <trkpt lat="45.2985" lon="5.92286">
        <ele>232.89</ele>
        <time>2018-09-09T15:06:48Z</time>
      </trkpt>
      <trkpt lat="45.29821" lon="5.92266">
        <ele>232.88</ele>
        <time>2018-09-09T15:06:49Z</time>
      </trkpt>
      <trkpt lat="45.29792" lon="5.92246">
        <ele>232.88</ele>
        <time>2018-09-09T15:06:50Z</time>
      </trkpt>
      <trkpt lat="45.29762" lon="5.92226">
        <ele>232.88</ele>
        <time>2018-09-09T15:06:51Z</time>
      </trkpt>
      <trkpt lat="45.29734" lon="5.92205">
        <ele>232.18</ele>
        <time>2018-09-09T15:06:52Z</time>
      </trkpt>
      <trkpt lat="45.29705" lon="5.92186">
        <ele>231.97</ele>
        <time>2018-09-09T15:06:53Z</time>
      </trkpt>
      <trkpt lat="45.29676" lon="5.92166">
        <ele>232.61</ele>
        <time>2018-09-09T15:06:54Z</time>
      </trkpt>
      <trkpt lat="45.29647" lon="5.92146">
        <ele>232.1</ele>
        <time>2018-09-09T15:06:55Z</time>
      </trkpt>
      <trkpt lat="45.29618" lon="5.92126">
        <ele>231.94</ele>
        <time>2018-09-09T15:06:56Z</time>
      </trkpt>
      <trkpt lat="45.29588" lon="5.92106">
        <ele>231.9</ele>
        <time>2018-09-09T15:06:57Z</time>
      </trkpt>
      <trkpt lat="45.2956" lon="5.92085">
        <ele>231.88</ele>
        <time>2018-09-09T15:06:58Z</time>
      </trkpt>
      <trkpt lat="45.29531" lon="5.92064">
        <ele>231.88</ele>
        <time>2018-09-09T15:06:59Z</time>
      </trkpt>
      <trkpt lat="45.29503" lon="5.92043">
        <ele>231.88</ele>
        <time>2018-09-09T15:07:00Z</time>
      </trkpt>
      <trkpt lat="45.29474" lon="5.92022">
        <ele>231.88</ele>
        <time>2018-09-09T15:07:01Z</time>
      </trkpt>
      <trkpt lat="45.29445" lon="5.92002">
        <ele>231.88</ele>
        <time>2018-09-09T15:07:02Z</time>
      </trkpt>
      <trkpt lat="45.29416" lon="5.91981">
        <ele>231.88</ele>
        <time>2018-09-09T15:07:03Z</time>
      </trkpt>
      <trkpt lat="45.29387" lon="5.9196">
        <ele>231.88</ele>
        <time>2018-09-09T15:07:04Z</time>
      </trkpt>
      <trkpt lat="45.29358" lon="5.9194">
        <ele>231.88</ele>
        <time>2018-09-09T15:07:05Z</time>
      </trkpt>
      <trkpt lat="45.29329" lon="5.91918">
        <ele>231.88</ele>
        <time>2018-09-09T15:07:06Z</time>
      </trkpt>
      <trkpt lat="45.29301" lon="5.91896">
        <ele>231.18</ele>
        <time>2018-09-09T15:07:07Z</time>
      </trkpt>
      <trkpt lat="45.29272" lon="5.91875">
        <ele>230.97</ele>
        <time>2018-09-09T15:07:08Z</time>
      </trkpt>
      <trkpt lat="45.29244" lon="5.91853">
        <ele>230.9</ele>
        <time>2018-09-09T15:07:09Z</time>
      </trkpt>
      <trkpt lat="45.29216" lon="5.91831">
        <ele>230.89</ele>
        <time>2018-09-09T15:07:10Z</time>
      </trkpt>
      <trkpt lat="45.29187" lon="5.91809">
        <ele>230.88</ele>
        <time>2018-09-09T15:07:11Z</time>
      </trkpt>
      <trkpt lat="45.29158" lon="5.91788">
        <ele>231.58</ele>
        <time>2018-09-09T15:07:12Z</time>
      </trkpt>
      <trkpt lat="45.29129" lon="5.91767">
        <ele>231.79</ele>
        <time>2018-09-09T15:07:13Z</time>
      </trkpt>
      <trkpt lat="45.291" lon="5.91746">
        <ele>231.85</ele>
        <time>2018-09-09T15:07:14Z</time>
      </trkpt>
      <trkpt lat="45.29071" lon="5.91725">
        <ele>231.87</ele>
        <time>2018-09-09T15:07:15Z</time>
      </trkpt>
      <trkpt lat="45.29042" lon="5.91704">
        <ele>231.88</ele>
        <time>2018-09-09T15:07:16Z</time>
      </trkpt>
      <trkpt lat="45.29014" lon="5.91682">
        <ele>231.88</ele>
        <time>2018-09-09T15:07:17Z</time>
      </trkpt>
      <trkpt lat="45.28985" lon="5.9166">
        <ele>231.88</ele>
        <time>2018-09-09T15:07:18Z</time>
      </trkpt>
      <trkpt lat="45.28957" lon="5.91638">
        <ele>231.88</ele>
        <time>2018-09-09T15:07:19Z</time>
      </trkpt>
      <trkpt lat="45.28928" lon="5.91616">
        <ele>231.88</ele>
        <time>2018-09-09T15:07:20Z</time>
      </trkpt>
      <trkpt lat="45.28901" lon="5.91595">
        <ele>231.88</ele>
        <time>2018-09-09T15:07:21Z</time>
      </trkpt>
      <trkpt lat="45.28873" lon="5.91573">
        <ele>231.88</ele>
        <time>2018-09-09T15:07:22Z</time>
      </trkpt>
      <trkpt lat="45.28845" lon="5.91551">
        <ele>231.88</ele>
        <time>2018-09-09T15:07:23Z</time>
      </trkpt>
      <trkpt lat="45.28818" lon="5.91529">
        <ele>231.88</ele>
        <time>2018-09-09T15:07:24Z</time>
      </trkpt>
      <trkpt lat="45.2879" lon="5.91507">
        <ele>231.88</ele>
        <time>2018-09-09T15:07:25Z</time>
      </trkpt>
      <trkpt lat="45.28764" lon="5.91485">
        <ele>231.88</ele>
        <time>2018-09-09T15:07:26Z</time>
      </trkpt>
      <trkpt lat="45.28737" lon="5.91462">
        <ele>231.88</ele>
        <time>2018-09-09T15:07:27Z</time>
      </trkpt>
      <trkpt lat="45.2871" lon="5.91439">
        <ele>231.88</ele>
        <time>2018-09-09T15:07:28Z</time>
      </trkpt>
      <trkpt lat="45.28683" lon="5.91416">
        <ele>232.58</ele>
        <time>2018-09-09T15:07:29Z</time>
      </trkpt>
      <trkpt lat="45.28656" lon="5.91393">
        <ele>232.09</ele>
        <time>2018-09-09T15:07:30Z</time>
      </trkpt>
      <trkpt lat="45.28628" lon="5.9137">
        <ele>231.94</ele>
        <time>2018-09-09T15:07:31Z</time>
      </trkpt>
      <trkpt lat="45.286" lon="5.91348">
        <ele>231.9</ele>
        <time>2018-09-09T15:07:32Z</time>
      </trkpt>
      <trkpt lat="45.28573" lon="5.91326">
        <ele>232.58</ele>
        <time>2018-09-09T15:07:33Z</time>
      </trkpt>
      <trkpt lat="45.28545" lon="5.91303">
        <ele>232.79</ele>
        <time>2018-09-09T15:07:34Z</time>
      </trkpt>
      <trkpt lat="45.28517" lon="5.91281">
        <ele>232.15</ele>
        <time>2018-09-09T15:07:35Z</time>
      </trkpt>
      <trkpt lat="45.28489" lon="5.91258">
        <ele>232.66</ele>
        <time>2018-09-09T15:07:36Z</time>
      </trkpt>
      <trkpt lat="45.28462" lon="5.91234">
        <ele>232.11</ele>
        <time>2018-09-09T15:07:37Z</time>
      </trkpt>
      <trkpt lat="45.28434" lon="5.9121">
        <ele>231.95</ele>
        <time>2018-09-09T15:07:38Z</time>
      </trkpt>
      <trkpt lat="45.28406" lon="5.91186">
        <ele>231.9</ele>
        <time>2018-09-09T15:07:39Z</time>
      </trkpt>
      <trkpt lat="45.28379" lon="5.91163">
        <ele>231.88</ele>
        <time>2018-09-09T15:07:40Z</time>
      </trkpt>
      <trkpt lat="45.28351" lon="5.9114">
        <ele>231.18</ele>
        <time>2018-09-09T15:07:41Z</time>
      </trkpt>
      <trkpt lat="45.28323" lon="5.91116">
        <ele>230.97</ele>
        <time>2018-09-09T15:07:42Z</time>
      </trkpt>
      <trkpt lat="45.28296" lon="5.91093">
        <ele>230.91</ele>
        <time>2018-09-09T15:07:43Z</time>
      </trkpt>
      <trkpt lat="45.28268" lon="5.91069">
        <ele>230.89</ele>
        <time>2018-09-09T15:07:44Z</time>
      </trkpt>
      <trkpt lat="45.28241" lon="5.91045">
        <ele>230.88</ele>
        <time>2018-09-09T15:07:45Z</time>
      </trkpt>
      <trkpt lat="45.28213" lon="5.91021">
        <ele>230.88</ele>
        <time>2018-09-09T15:07:46Z</time>
      </trkpt>
      <trkpt lat="45.28185" lon="5.90997">
        <ele>230.88</ele>
        <time>2018-09-09T15:07:47Z</time>
      </trkpt>
      <trkpt lat="45.28158" lon="5.90972">
        <ele>230.88</ele>
        <time>2018-09-09T15:07:48Z</time>
      </trkpt>
      <trkpt lat="45.2813" lon="5.90948">
        <ele>230.88</ele>
        <time>2018-09-09T15:07:49Z</time>
      </trkpt>
      <trkpt lat="45.28103" lon="5.90924">
        <ele>230.88</ele>
        <time>2018-09-09T15:07:50Z</time>
      </trkpt>
      <trkpt lat="45.28076" lon="5.909">
        <ele>230.88</ele>
        <time>2018-09-09T15:07:51Z</time>
      </trkpt>
      <trkpt lat="45.28048" lon="5.90875">
        <ele>230.88</ele>
        <time>2018-09-09T15:07:52Z</time>
      </trkpt>
      <trkpt lat="45.28021" lon="5.9085">
        <ele>230.88</ele>
        <time>2018-09-09T15:07:53Z</time>
      </trkpt>
      <trkpt lat="45.27993" lon="5.90826">
        <ele>230.88</ele>
        <time>2018-09-09T15:07:54Z</time>
      </trkpt>
      <trkpt lat="45.27965" lon="5.90802">
        <ele>230.88</ele>
        <time>2018-09-09T15:07:55Z</time>
      </trkpt>
      <trkpt lat="45.27937" lon="5.90778">
        <ele>230.88</ele>
        <time>2018-09-09T15:07:56Z</time>
      </trkpt>
      <trkpt lat="45.2791" lon="5.90754">
        <ele>230.88</ele>
        <time>2018-09-09T15:07:57Z</time>
      </trkpt>
      <trkpt lat="45.27884" lon="5.9073">
        <ele>230.88</ele>
        <time>2018-09-09T15:07:58Z</time>
      </trkpt>
      <trkpt lat="45.27858" lon="5.90707">
        <ele>230.88</ele>
        <time>2018-09-09T15:07:59Z</time>
      </trkpt>
      <trkpt lat="45.27832" lon="5.90683">
        <ele>230.88</ele>
        <time>2018-09-09T15:08:00Z</time>
      </trkpt>
      <trkpt lat="45.27807" lon="5.90661">
        <ele>230.88</ele>
        <time>2018-09-09T15:08:01Z</time>
      </trkpt>
      <trkpt lat="45.27783" lon="5.90638">
        <ele>230.88</ele>
        <time>2018-09-09T15:08:02Z</time>
      </trkpt>
      <trkpt lat="45.27759" lon="5.90616">
        <ele>230.88</ele>
        <time>2018-09-09T15:08:03Z</time>
      </trkpt>
      <trkpt lat="45.27735" lon="5.90594">
        <ele>230.88</ele>
        <time>2018-09-09T15:08:04Z</time>
      </trkpt>
      <trkpt lat="45.27711" lon="5.90571">
        <ele>230.88</ele>
        <time>2018-09-09T15:08:05Z</time>
      </trkpt>
      <trkpt lat="45.27687" lon="5.90549">
        <ele>230.88</ele>
        <time>2018-09-09T15:08:06Z</time>
      </trkpt>
      <trkpt lat="45.27664" lon="5.90527">
        <ele>230.88</ele>
        <time>2018-09-09T15:08:07Z</time>
      </trkpt>
      <trkpt lat="45.27641" lon="5.90505">
        <ele>230.88</ele>
        <time>2018-09-09T15:08:08Z</time>
      </trkpt>
      <trkpt lat="45.27618" lon="5.90483">
        <ele>230.18</ele>
        <time>2018-09-09T15:08:09Z</time>
      </trkpt>
      <trkpt lat="45.27596" lon="5.90461">
        <ele>229.97</ele>
        <time>2018-09-09T15:08:10Z</time>
      </trkpt>
      <trkpt lat="45.27574" lon="5.9044">
        <ele>229.9</ele>
        <time>2018-09-09T15:08:11Z</time>
      </trkpt>
      <trkpt lat="45.27552" lon="5.90419">
        <ele>229.89</ele>
        <time>2018-09-09T15:08:12Z</time>
      </trkpt>
      <trkpt lat="45.2753" lon="5.90398">
        <ele>229.88</ele>
        <time>2018-09-09T15:08:13Z</time>
      </trkpt>
      <trkpt lat="45.27509" lon="5.90378">
        <ele>229.88</ele>
        <time>2018-09-09T15:08:14Z</time>
      </trkpt>
      <trkpt lat="45.27489" lon="5.90359">
        <ele>229.88</ele>
        <time>2018-09-09T15:08:15Z</time>
      </trkpt>
      <trkpt lat="45.27469" lon="5.9034">
        <ele>229.88</ele>
        <time>2018-09-09T15:08:16Z</time>
      </trkpt>
      <trkpt lat="45.27449" lon="5.90321">
        <ele>229.88</ele>
        <time>2018-09-09T15:08:17Z</time>
      </trkpt>
      <trkpt lat="45.2743" lon="5.90302">
        <ele>229.88</ele>
        <time>2018-09-09T15:08:18Z</time>
      </trkpt>
      <trkpt lat="45.27411" lon="5.90284">
        <ele>229.18</ele>
        <time>2018-09-09T15:08:19Z</time>
      </trkpt>
      <trkpt lat="45.27394" lon="5.90266">
        <ele>228.97</ele>
        <time>2018-09-09T15:08:20Z</time>
      </trkpt>
      <trkpt lat="45.27377" lon="5.90248">
        <ele>228.9</ele>
        <time>2018-09-09T15:08:21Z</time>
      </trkpt>
      <trkpt lat="45.2736" lon="5.90231">
        <ele>228.89</ele>
        <time>2018-09-09T15:08:22Z</time>
      </trkpt>
      <trkpt lat="45.27344" lon="5.90213">
        <ele>228.88</ele>
        <time>2018-09-09T15:08:23Z</time>
      </trkpt>
      <trkpt lat="45.27328" lon="5.90195">
        <ele>228.18</ele>
        <time>2018-09-09T15:08:24Z</time>
      </trkpt>
      <trkpt lat="45.27313" lon="5.90178">
        <ele>227.97</ele>
        <time>2018-09-09T15:08:25Z</time>
      </trkpt>
      <trkpt lat="45.27286" lon="5.90147">
        <ele>228.1</ele>
        <time>2018-09-09T15:08:27Z</time>
      </trkpt>
      <trkpt lat="45.27263" lon="5.90119">
        <ele>227.9</ele>
        <time>2018-09-09T15:08:29Z</time>
      </trkpt>
      <trkpt lat="45.27245" lon="5.90096">
        <ele>227.88</ele>
        <time>2018-09-09T15:08:31Z</time>
      </trkpt>
      <trkpt lat="45.27231" lon="5.9008">
        <ele>227.88</ele>
        <time>2018-09-09T15:08:33Z</time>
      </trkpt>
      <trkpt lat="45.27214" lon="5.90061">
        <ele>227.82</ele>
        <time>2018-09-09T15:08:36Z</time>
      </trkpt>
      <trkpt lat="45.27197" lon="5.90044">
        <ele>226.94</ele>
        <time>2018-09-09T15:08:41Z</time>
      </trkpt>
      <trkpt lat="45.27183" lon="5.90027">
        <ele>223.28</ele>
        <time>2018-09-09T15:09:54Z</time>
      </trkpt>
      <trkpt lat="45.27163" lon="5.9001">
        <ele>224.73</ele>
        <time>2018-09-09T15:09:56Z</time>
      </trkpt>
      <trkpt lat="45.27145" lon="5.89997">
        <ele>224.83</ele>
        <time>2018-09-09T15:09:57Z</time>
      </trkpt>
      <trkpt lat="45.27123" lon="5.8998">
        <ele>224.87</ele>
        <time>2018-09-09T15:09:58Z</time>
      </trkpt>
      <trkpt lat="45.27099" lon="5.8996">
        <ele>224.87</ele>
        <time>2018-09-09T15:09:59Z</time>
      </trkpt>
      <trkpt lat="45.27073" lon="5.89936">
        <ele>224.88</ele>
        <time>2018-09-09T15:10:00Z</time>
      </trkpt>
      <trkpt lat="45.27046" lon="5.89909">
        <ele>224.88</ele>
        <time>2018-09-09T15:10:01Z</time>
      </trkpt>
      <trkpt lat="45.27017" lon="5.8988">
        <ele>224.88</ele>
        <time>2018-09-09T15:10:02Z</time>
      </trkpt>
      <trkpt lat="45.26986" lon="5.89849">
        <ele>224.88</ele>
        <time>2018-09-09T15:10:03Z</time>
      </trkpt>
      <trkpt lat="45.26955" lon="5.89817">
        <ele>225.58</ele>
        <time>2018-09-09T15:10:04Z</time>
      </trkpt>
      <trkpt lat="45.26924" lon="5.89785">
        <ele>225.79</ele>
        <time>2018-09-09T15:10:05Z</time>
      </trkpt>
      <trkpt lat="45.26895" lon="5.89754">
        <ele>225.85</ele>
        <time>2018-09-09T15:10:06Z</time>
      </trkpt>
      <trkpt lat="45.26869" lon="5.89725">
        <ele>225.87</ele>
        <time>2018-09-09T15:10:07Z</time>
      </trkpt>
      <trkpt lat="45.26842" lon="5.89698">
        <ele>225.88</ele>
        <time>2018-09-09T15:10:08Z</time>
      </trkpt>
      <trkpt lat="45.26817" lon="5.89671">
        <ele>226.58</ele>
        <time>2018-09-09T15:10:09Z</time>
      </trkpt>
      <trkpt lat="45.26793" lon="5.89645">
        <ele>226.79</ele>
        <time>2018-09-09T15:10:10Z</time>
      </trkpt>
      <trkpt lat="45.26768" lon="5.89619">
        <ele>226.85</ele>
        <time>2018-09-09T15:10:11Z</time>
      </trkpt>
      <trkpt lat="45.26745" lon="5.89594">
        <ele>226.87</ele>
        <time>2018-09-09T15:10:12Z</time>
      </trkpt>
      <trkpt lat="45.2672" lon="5.89568">
        <ele>226.18</ele>
        <time>2018-09-09T15:10:13Z</time>
      </trkpt>
      <trkpt lat="45.26696" lon="5.89542">
        <ele>226.67</ele>
        <time>2018-09-09T15:10:14Z</time>
      </trkpt>
      <trkpt lat="45.26672" lon="5.89516">
        <ele>226.11</ele>
        <time>2018-09-09T15:10:15Z</time>
      </trkpt>
      <trkpt lat="45.26648" lon="5.8949">
        <ele>225.95</ele>
        <time>2018-09-09T15:10:16Z</time>
      </trkpt>
      <trkpt lat="45.26624" lon="5.89464">
        <ele>225.9</ele>
        <time>2018-09-09T15:10:17Z</time>
      </trkpt>
      <trkpt lat="45.266" lon="5.89437">
        <ele>225.88</ele>
        <time>2018-09-09T15:10:18Z</time>
      </trkpt>
      <trkpt lat="45.26575" lon="5.89411">
        <ele>226.58</ele>
        <time>2018-09-09T15:10:19Z</time>
      </trkpt>
      <trkpt lat="45.26549" lon="5.89384">
        <ele>226.09</ele>
        <time>2018-09-09T15:10:20Z</time>
      </trkpt>
      <trkpt lat="45.26523" lon="5.89355">
        <ele>226.64</ele>
        <time>2018-09-09T15:10:21Z</time>
      </trkpt>
      <trkpt lat="45.26498" lon="5.89326">
        <ele>226.81</ele>
        <time>2018-09-09T15:10:22Z</time>
      </trkpt>
      <trkpt lat="45.26472" lon="5.89296">
        <ele>226.86</ele>
        <time>2018-09-09T15:10:23Z</time>
      </trkpt>
      <trkpt lat="45.26446" lon="5.89267">
        <ele>226.87</ele>
        <time>2018-09-09T15:10:24Z</time>
      </trkpt>
      <trkpt lat="45.2642" lon="5.89237">
        <ele>226.88</ele>
        <time>2018-09-09T15:10:25Z</time>
      </trkpt>
      <trkpt lat="45.26394" lon="5.89208">
        <ele>226.88</ele>
        <time>2018-09-09T15:10:26Z</time>
      </trkpt>
      <trkpt lat="45.26368" lon="5.89179">
        <ele>226.88</ele>
        <time>2018-09-09T15:10:27Z</time>
      </trkpt>
      <trkpt lat="45.26343" lon="5.8915">
        <ele>226.88</ele>
        <time>2018-09-09T15:10:28Z</time>
      </trkpt>
      <trkpt lat="45.26317" lon="5.89121">
        <ele>226.18</ele>
        <time>2018-09-09T15:10:29Z</time>
      </trkpt>
      <trkpt lat="45.26291" lon="5.89092">
        <ele>226.67</ele>
        <time>2018-09-09T15:10:30Z</time>
      </trkpt>
      <trkpt lat="45.26266" lon="5.89063">
        <ele>226.82</ele>
        <time>2018-09-09T15:10:31Z</time>
      </trkpt>
      <trkpt lat="45.2624" lon="5.89034">
        <ele>226.86</ele>
        <time>2018-09-09T15:10:32Z</time>
      </trkpt>
      <trkpt lat="45.26214" lon="5.89005">
        <ele>226.87</ele>
        <time>2018-09-09T15:10:33Z</time>
      </trkpt>
      <trkpt lat="45.26189" lon="5.88976">
        <ele>226.88</ele>
        <time>2018-09-09T15:10:34Z</time>
      </trkpt>
      <trkpt lat="45.26164" lon="5.88946">
        <ele>226.88</ele>
        <time>2018-09-09T15:10:35Z</time>
      </trkpt>
      <trkpt lat="45.26139" lon="5.88917">
        <ele>226.88</ele>
        <time>2018-09-09T15:10:36Z</time>
      </trkpt>
      <trkpt lat="45.26114" lon="5.88887">
        <ele>226.88</ele>
        <time>2018-09-09T15:10:37Z</time>
      </trkpt>
      <trkpt lat="45.26089" lon="5.88857">
        <ele>226.18</ele>
        <time>2018-09-09T15:10:38Z</time>
      </trkpt>
      <trkpt lat="45.26065" lon="5.88827">
        <ele>225.97</ele>
        <time>2018-09-09T15:10:39Z</time>
      </trkpt>
      <trkpt lat="45.26041" lon="5.88796">
        <ele>226.6</ele>
        <time>2018-09-09T15:10:40Z</time>
      </trkpt>
      <trkpt lat="45.26017" lon="5.88765">
        <ele>226.1</ele>
        <time>2018-09-09T15:10:41Z</time>
      </trkpt>
      <trkpt lat="45.25992" lon="5.88735">
        <ele>225.94</ele>
        <time>2018-09-09T15:10:42Z</time>
      </trkpt>
      <trkpt lat="45.25967" lon="5.88705">
        <ele>225.9</ele>
        <time>2018-09-09T15:10:43Z</time>
      </trkpt>
      <trkpt lat="45.25942" lon="5.88675">
        <ele>225.88</ele>
        <time>2018-09-09T15:10:44Z</time>
      </trkpt>
      <trkpt lat="45.25917" lon="5.88645">
        <ele>225.88</ele>
        <time>2018-09-09T15:10:45Z</time>
      </trkpt>
      <trkpt lat="45.25892" lon="5.88614">
        <ele>225.88</ele>
        <time>2018-09-09T15:10:46Z</time>
      </trkpt>
      <trkpt lat="45.25867" lon="5.88584">
        <ele>225.18</ele>
        <time>2018-09-09T15:10:47Z</time>
      </trkpt>
      <trkpt lat="45.25843" lon="5.88553">
        <ele>224.97</ele>
        <time>2018-09-09T15:10:48Z</time>
      </trkpt>
      <trkpt lat="45.25818" lon="5.88523">
        <ele>224.91</ele>
        <time>2018-09-09T15:10:49Z</time>
      </trkpt>
      <trkpt lat="45.25794" lon="5.88492">
        <ele>224.89</ele>
        <time>2018-09-09T15:10:50Z</time>
      </trkpt>
      <trkpt lat="45.2577" lon="5.88462">
        <ele>224.88</ele>
        <time>2018-09-09T15:10:51Z</time>
      </trkpt>
      <trkpt lat="45.25745" lon="5.88431">
        <ele>224.88</ele>
        <time>2018-09-09T15:10:52Z</time>
      </trkpt>
      <trkpt lat="45.25722" lon="5.88401">
        <ele>224.88</ele>
        <time>2018-09-09T15:10:53Z</time>
      </trkpt>
      <trkpt lat="45.25697" lon="5.88371">
        <ele>224.88</ele>
        <time>2018-09-09T15:10:54Z</time>
      </trkpt>
      <trkpt lat="45.25674" lon="5.88341">
        <ele>224.88</ele>
        <time>2018-09-09T15:10:55Z</time>
      </trkpt>
      <trkpt lat="45.2565" lon="5.8831">
        <ele>224.88</ele>
        <time>2018-09-09T15:10:56Z</time>
      </trkpt>
      <trkpt lat="45.25626" lon="5.88279">
        <ele>224.88</ele>
        <time>2018-09-09T15:10:57Z</time>
      </trkpt>
      <trkpt lat="45.25602" lon="5.88248">
        <ele>224.88</ele>
        <time>2018-09-09T15:10:58Z</time>
      </trkpt>
      <trkpt lat="45.25578" lon="5.88218">
        <ele>224.88</ele>
        <time>2018-09-09T15:10:59Z</time>
      </trkpt>
      <trkpt lat="45.25554" lon="5.88187">
        <ele>224.18</ele>
        <time>2018-09-09T15:11:00Z</time>
      </trkpt>
      <trkpt lat="45.25531" lon="5.88157">
        <ele>223.97</ele>
        <time>2018-09-09T15:11:01Z</time>
      </trkpt>
      <trkpt lat="45.25507" lon="5.88125">
        <ele>224.6</ele>
        <time>2018-09-09T15:11:02Z</time>
      </trkpt>
      <trkpt lat="45.25483" lon="5.88094">
        <ele>224.8</ele>
        <time>2018-09-09T15:11:03Z</time>
      </trkpt>
      <trkpt lat="45.2546" lon="5.88062">
        <ele>224.85</ele>
        <time>2018-09-09T15:11:04Z</time>
      </trkpt>
      <trkpt lat="45.25437" lon="5.88029">
        <ele>224.87</ele>
        <time>2018-09-09T15:11:05Z</time>
      </trkpt>
      <trkpt lat="45.25414" lon="5.87997">
        <ele>224.88</ele>
        <time>2018-09-09T15:11:06Z</time>
      </trkpt>
      <trkpt lat="45.25391" lon="5.87964">
        <ele>224.88</ele>
        <time>2018-09-09T15:11:07Z</time>
      </trkpt>
      <trkpt lat="45.25368" lon="5.87932">
        <ele>224.88</ele>
        <time>2018-09-09T15:11:08Z</time>
      </trkpt>
      <trkpt lat="45.25344" lon="5.879">
        <ele>224.88</ele>
        <time>2018-09-09T15:11:09Z</time>
      </trkpt>
      <trkpt lat="45.25321" lon="5.87866">
        <ele>224.88</ele>
        <time>2018-09-09T15:11:10Z</time>
      </trkpt>
      <trkpt lat="45.25298" lon="5.87832">
        <ele>224.88</ele>
        <time>2018-09-09T15:11:11Z</time>
      </trkpt>
      <trkpt lat="45.25275" lon="5.87798">
        <ele>224.18</ele>
        <time>2018-09-09T15:11:12Z</time>
      </trkpt>
      <trkpt lat="45.25252" lon="5.87765">
        <ele>224.67</ele>
        <time>2018-09-09T15:11:13Z</time>
      </trkpt>
      <trkpt lat="45.25229" lon="5.8773">
        <ele>224.82</ele>
        <time>2018-09-09T15:11:14Z</time>
      </trkpt>
      <trkpt lat="45.25207" lon="5.87696">
        <ele>224.16</ele>
        <time>2018-09-09T15:11:15Z</time>
      </trkpt>
      <trkpt lat="45.25184" lon="5.87661">
        <ele>223.96</ele>
        <time>2018-09-09T15:11:16Z</time>
      </trkpt>
      <trkpt lat="45.25162" lon="5.87626">
        <ele>223.9</ele>
        <time>2018-09-09T15:11:17Z</time>
      </trkpt>
      <trkpt lat="45.2514" lon="5.87591">
        <ele>223.89</ele>
        <time>2018-09-09T15:11:18Z</time>
      </trkpt>
      <trkpt lat="45.25118" lon="5.87557">
        <ele>223.88</ele>
        <time>2018-09-09T15:11:19Z</time>
      </trkpt>
      <trkpt lat="45.25097" lon="5.87522">
        <ele>223.88</ele>
        <time>2018-09-09T15:11:20Z</time>
      </trkpt>
      <trkpt lat="45.25075" lon="5.87488">
        <ele>223.88</ele>
        <time>2018-09-09T15:11:21Z</time>
      </trkpt>
      <trkpt lat="45.25054" lon="5.87453">
        <ele>223.88</ele>
        <time>2018-09-09T15:11:22Z</time>
      </trkpt>
      <trkpt lat="45.25034" lon="5.87418">
        <ele>223.88</ele>
        <time>2018-09-09T15:11:23Z</time>
      </trkpt>
      <trkpt lat="45.25014" lon="5.87383">
        <ele>223.18</ele>
        <time>2018-09-09T15:11:24Z</time>
      </trkpt>
      <trkpt lat="45.24993" lon="5.87348">
        <ele>222.17</ele>
        <time>2018-09-09T15:11:25Z</time>
      </trkpt>
      <trkpt lat="45.24973" lon="5.87313">
        <ele>222.57</ele>
        <time>2018-09-09T15:11:26Z</time>
      </trkpt>
      <trkpt lat="45.24953" lon="5.8728">
        <ele>221.99</ele>
        <time>2018-09-09T15:11:27Z</time>
      </trkpt>
      <trkpt lat="45.24934" lon="5.87247">
        <ele>221.82</ele>
        <time>2018-09-09T15:11:28Z</time>
      </trkpt>
      <trkpt lat="45.24914" lon="5.87214">
        <ele>221.76</ele>
        <time>2018-09-09T15:11:29Z</time>
      </trkpt>
      <trkpt lat="45.24895" lon="5.8718">
        <ele>221.75</ele>
        <time>2018-09-09T15:11:30Z</time>
      </trkpt>
      <trkpt lat="45.24877" lon="5.87146">
        <ele>221.04</ele>
        <time>2018-09-09T15:11:31Z</time>
      </trkpt>
      <trkpt lat="45.24859" lon="5.87112">
        <ele>220.83</ele>
        <time>2018-09-09T15:11:32Z</time>
      </trkpt>
      <trkpt lat="45.24841" lon="5.87078">
        <ele>220.77</ele>
        <time>2018-09-09T15:11:33Z</time>
      </trkpt>
      <trkpt lat="45.24824" lon="5.87044">
        <ele>220.75</ele>
        <time>2018-09-09T15:11:34Z</time>
      </trkpt>
      <trkpt lat="45.24806" lon="5.8701">
        <ele>220.74</ele>
        <time>2018-09-09T15:11:35Z</time>
      </trkpt>
      <trkpt lat="45.24789" lon="5.86976">
        <ele>220.74</ele>
        <time>2018-09-09T15:11:36Z</time>
      </trkpt>
      <trkpt lat="45.24771" lon="5.86941">
        <ele>220.74</ele>
        <time>2018-09-09T15:11:37Z</time>
      </trkpt>
      <trkpt lat="45.24754" lon="5.86907">
        <ele>220.74</ele>
        <time>2018-09-09T15:11:38Z</time>
      </trkpt>
      <trkpt lat="45.24737" lon="5.86872">
        <ele>220.74</ele>
        <time>2018-09-09T15:11:39Z</time>
      </trkpt>
      <trkpt lat="45.24721" lon="5.86836">
        <ele>220.74</ele>
        <time>2018-09-09T15:11:40Z</time>
      </trkpt>
      <trkpt lat="45.24705" lon="5.868">
        <ele>220.74</ele>
        <time>2018-09-09T15:11:41Z</time>
      </trkpt>
      <trkpt lat="45.24688" lon="5.86765">
        <ele>220.74</ele>
        <time>2018-09-09T15:11:42Z</time>
      </trkpt>
      <trkpt lat="45.24672" lon="5.86729">
        <ele>220.74</ele>
        <time>2018-09-09T15:11:43Z</time>
      </trkpt>
      <trkpt lat="45.24655" lon="5.86692">
        <ele>221.44</ele>
        <time>2018-09-09T15:11:44Z</time>
      </trkpt>
      <trkpt lat="45.24639" lon="5.86655">
        <ele>221.65</ele>
        <time>2018-09-09T15:11:45Z</time>
      </trkpt>
      <trkpt lat="45.24622" lon="5.86617">
        <ele>221.71</ele>
        <time>2018-09-09T15:11:46Z</time>
      </trkpt>
      <trkpt lat="45.24606" lon="5.86579">
        <ele>221.73</ele>
        <time>2018-09-09T15:11:47Z</time>
      </trkpt>
      <trkpt lat="45.2459" lon="5.86542">
        <ele>221.74</ele>
        <time>2018-09-09T15:11:48Z</time>
      </trkpt>
      <trkpt lat="45.24575" lon="5.86504">
        <ele>221.74</ele>
        <time>2018-09-09T15:11:49Z</time>
      </trkpt>
      <trkpt lat="45.24559" lon="5.86466">
        <ele>222.44</ele>
        <time>2018-09-09T15:11:50Z</time>
      </trkpt>
      <trkpt lat="45.24543" lon="5.86427">
        <ele>222.65</ele>
        <time>2018-09-09T15:11:51Z</time>
      </trkpt>
      <trkpt lat="45.24528" lon="5.86388">
        <ele>222.71</ele>
        <time>2018-09-09T15:11:52Z</time>
      </trkpt>
      <trkpt lat="45.24513" lon="5.86349">
        <ele>222.03</ele>
        <time>2018-09-09T15:11:53Z</time>
      </trkpt>
      <trkpt lat="45.24497" lon="5.86309">
        <ele>221.83</ele>
        <time>2018-09-09T15:11:54Z</time>
      </trkpt>
      <trkpt lat="45.24483" lon="5.8627">
        <ele>221.77</ele>
        <time>2018-09-09T15:11:55Z</time>
      </trkpt>
      <trkpt lat="45.24468" lon="5.8623">
        <ele>222.45</ele>
        <time>2018-09-09T15:11:56Z</time>
      </trkpt>
      <trkpt lat="45.24454" lon="5.8619">
        <ele>222.65</ele>
        <time>2018-09-09T15:11:57Z</time>
      </trkpt>
      <trkpt lat="45.24441" lon="5.8615">
        <ele>222.71</ele>
        <time>2018-09-09T15:11:58Z</time>
      </trkpt>
      <trkpt lat="45.24428" lon="5.86109">
        <ele>222.73</ele>
        <time>2018-09-09T15:11:59Z</time>
      </trkpt>
      <trkpt lat="45.24415" lon="5.86069">
        <ele>222.74</ele>
        <time>2018-09-09T15:12:00Z</time>
      </trkpt>
      <trkpt lat="45.24401" lon="5.86029">
        <ele>222.74</ele>
        <time>2018-09-09T15:12:01Z</time>
      </trkpt>
      <trkpt lat="45.24388" lon="5.85988">
        <ele>222.74</ele>
        <time>2018-09-09T15:12:02Z</time>
      </trkpt>
      <trkpt lat="45.24375" lon="5.85948">
        <ele>223.44</ele>
        <time>2018-09-09T15:12:03Z</time>
      </trkpt>
      <trkpt lat="45.24362" lon="5.85907">
        <ele>223.65</ele>
        <time>2018-09-09T15:12:04Z</time>
      </trkpt>
      <trkpt lat="45.24349" lon="5.85866">
        <ele>224.41</ele>
        <time>2018-09-09T15:12:05Z</time>
      </trkpt>
      <trkpt lat="45.24337" lon="5.85825">
        <ele>224.64</ele>
        <time>2018-09-09T15:12:06Z</time>
      </trkpt>
      <trkpt lat="45.24325" lon="5.85785">
        <ele>224.71</ele>
        <time>2018-09-09T15:12:07Z</time>
      </trkpt>
      <trkpt lat="45.24313" lon="5.85744">
        <ele>224.73</ele>
        <time>2018-09-09T15:12:08Z</time>
      </trkpt>
      <trkpt lat="45.24301" lon="5.85703">
        <ele>225.44</ele>
        <time>2018-09-09T15:12:09Z</time>
      </trkpt>
      <trkpt lat="45.24289" lon="5.85662">
        <ele>225.65</ele>
        <time>2018-09-09T15:12:10Z</time>
      </trkpt>
      <trkpt lat="45.24278" lon="5.85621">
        <ele>225.71</ele>
        <time>2018-09-09T15:12:11Z</time>
      </trkpt>
      <trkpt lat="45.24265" lon="5.85581">
        <ele>226.43</ele>
        <time>2018-09-09T15:12:12Z</time>
      </trkpt>
      <trkpt lat="45.24254" lon="5.8554">
        <ele>225.95</ele>
        <time>2018-09-09T15:12:13Z</time>
      </trkpt>
      <trkpt lat="45.24243" lon="5.855">
        <ele>226.5</ele>
        <time>2018-09-09T15:12:14Z</time>
      </trkpt>
      <trkpt lat="45.24232" lon="5.85459">
        <ele>227.37</ele>
        <time>2018-09-09T15:12:15Z</time>
      </trkpt>
      <trkpt lat="45.2422" lon="5.85419">
        <ele>227.63</ele>
        <time>2018-09-09T15:12:16Z</time>
      </trkpt>
      <trkpt lat="45.24209" lon="5.85379">
        <ele>228.41</ele>
        <time>2018-09-09T15:12:17Z</time>
      </trkpt>
      <trkpt lat="45.24197" lon="5.85339">
        <ele>229.34</ele>
        <time>2018-09-09T15:12:18Z</time>
      </trkpt>
      <trkpt lat="45.24186" lon="5.853">
        <ele>229.62</ele>
        <time>2018-09-09T15:12:19Z</time>
      </trkpt>
      <trkpt lat="45.24174" lon="5.8526">
        <ele>230.4</ele>
        <time>2018-09-09T15:12:20Z</time>
      </trkpt>
      <trkpt lat="45.24163" lon="5.85222">
        <ele>231.34</ele>
        <time>2018-09-09T15:12:21Z</time>
      </trkpt>
      <trkpt lat="45.24152" lon="5.85182">
        <ele>232.32</ele>
        <time>2018-09-09T15:12:22Z</time>
      </trkpt>
      <trkpt lat="45.2414" lon="5.85143">
        <ele>232.61</ele>
        <time>2018-09-09T15:12:23Z</time>
      </trkpt>
      <trkpt lat="45.24129" lon="5.85104">
        <ele>233.4</ele>
        <time>2018-09-09T15:12:24Z</time>
      </trkpt>
      <trkpt lat="45.24118" lon="5.85065">
        <ele>233.64</ele>
        <time>2018-09-09T15:12:25Z</time>
      </trkpt>
      <trkpt lat="45.24107" lon="5.85026">
        <ele>234.41</ele>
        <time>2018-09-09T15:12:26Z</time>
      </trkpt>
      <trkpt lat="45.24096" lon="5.84987">
        <ele>234.64</ele>
        <time>2018-09-09T15:12:27Z</time>
      </trkpt>
      <trkpt lat="45.24084" lon="5.84948">
        <ele>235.41</ele>
        <time>2018-09-09T15:12:28Z</time>
      </trkpt>
      <trkpt lat="45.24073" lon="5.8491">
        <ele>235.64</ele>
        <time>2018-09-09T15:12:29Z</time>
      </trkpt>
      <trkpt lat="45.24061" lon="5.84871">
        <ele>236.41</ele>
        <time>2018-09-09T15:12:30Z</time>
      </trkpt>
      <trkpt lat="45.24048" lon="5.84833">
        <ele>236.64</ele>
        <time>2018-09-09T15:12:31Z</time>
      </trkpt>
      <trkpt lat="45.24036" lon="5.84795">
        <ele>236.71</ele>
        <time>2018-09-09T15:12:32Z</time>
      </trkpt>
      <trkpt lat="45.24023" lon="5.84757">
        <ele>237.43</ele>
        <time>2018-09-09T15:12:33Z</time>
      </trkpt>
      <trkpt lat="45.2401" lon="5.84719">
        <ele>237.65</ele>
        <time>2018-09-09T15:12:34Z</time>
      </trkpt>
      <trkpt lat="45.23997" lon="5.84682">
        <ele>237.71</ele>
        <time>2018-09-09T15:12:35Z</time>
      </trkpt>
      <trkpt lat="45.23983" lon="5.84645">
        <ele>237.73</ele>
        <time>2018-09-09T15:12:36Z</time>
      </trkpt>
      <trkpt lat="45.2397" lon="5.84608">
        <ele>237.74</ele>
        <time>2018-09-09T15:12:37Z</time>
      </trkpt>
      <trkpt lat="45.23956" lon="5.84571">
        <ele>237.74</ele>
        <time>2018-09-09T15:12:38Z</time>
      </trkpt>
      <trkpt lat="45.23941" lon="5.84535">
        <ele>238.44</ele>
        <time>2018-09-09T15:12:39Z</time>
      </trkpt>
      <trkpt lat="45.23927" lon="5.84499">
        <ele>238.65</ele>
        <time>2018-09-09T15:12:40Z</time>
      </trkpt>
      <trkpt lat="45.23912" lon="5.84462">
        <ele>238.71</ele>
        <time>2018-09-09T15:12:41Z</time>
      </trkpt>
      <trkpt lat="45.23897" lon="5.84426">
        <ele>239.43</ele>
        <time>2018-09-09T15:12:42Z</time>
      </trkpt>
      <trkpt lat="45.23882" lon="5.8439">
        <ele>239.65</ele>
        <time>2018-09-09T15:12:43Z</time>
      </trkpt>
      <trkpt lat="45.23868" lon="5.84354">
        <ele>239.71</ele>
        <time>2018-09-09T15:12:44Z</time>
      </trkpt>
      <trkpt lat="45.23852" lon="5.84318">
        <ele>239.73</ele>
        <time>2018-09-09T15:12:45Z</time>
      </trkpt>
      <trkpt lat="45.23837" lon="5.84283">
        <ele>239.74</ele>
        <time>2018-09-09T15:12:46Z</time>
      </trkpt>
      <trkpt lat="45.23821" lon="5.84248">
        <ele>239.74</ele>
        <time>2018-09-09T15:12:47Z</time>
      </trkpt>
      <trkpt lat="45.23805" lon="5.84212">
        <ele>239.74</ele>
        <time>2018-09-09T15:12:48Z</time>
      </trkpt>
      <trkpt lat="45.23788" lon="5.84177">
        <ele>239.74</ele>
        <time>2018-09-09T15:12:49Z</time>
      </trkpt>
      <trkpt lat="45.23772" lon="5.84143">
        <ele>239.04</ele>
        <time>2018-09-09T15:12:50Z</time>
      </trkpt>
      <trkpt lat="45.23755" lon="5.84108">
        <ele>239.53</ele>
        <time>2018-09-09T15:12:51Z</time>
      </trkpt>
      <trkpt lat="45.23738" lon="5.84074">
        <ele>238.98</ele>
        <time>2018-09-09T15:12:52Z</time>
      </trkpt>
      <trkpt lat="45.23721" lon="5.8404">
        <ele>238.11</ele>
        <time>2018-09-09T15:12:53Z</time>
      </trkpt>
      <trkpt lat="45.23704" lon="5.84006">
        <ele>237.85</ele>
        <time>2018-09-09T15:12:54Z</time>
      </trkpt>
      <trkpt lat="45.23687" lon="5.83973">
        <ele>237.07</ele>
        <time>2018-09-09T15:12:55Z</time>
      </trkpt>
      <trkpt lat="45.23669" lon="5.83941">
        <ele>236.84</ele>
        <time>2018-09-09T15:12:56Z</time>
      </trkpt>
      <trkpt lat="45.23652" lon="5.83909">
        <ele>236.07</ele>
        <time>2018-09-09T15:12:57Z</time>
      </trkpt>
      <trkpt lat="45.23633" lon="5.83876">
        <ele>235.84</ele>
        <time>2018-09-09T15:12:58Z</time>
      </trkpt>
      <trkpt lat="45.23616" lon="5.83845">
        <ele>235.77</ele>
        <time>2018-09-09T15:12:59Z</time>
      </trkpt>
      <trkpt lat="45.23597" lon="5.83813">
        <ele>235.05</ele>
        <time>2018-09-09T15:13:00Z</time>
      </trkpt>
      <trkpt lat="45.23579" lon="5.83781">
        <ele>234.83</ele>
        <time>2018-09-09T15:13:01Z</time>
      </trkpt>
      <trkpt lat="45.2356" lon="5.83749">
        <ele>234.77</ele>
        <time>2018-09-09T15:13:02Z</time>
      </trkpt>
      <trkpt lat="45.23541" lon="5.83718">
        <ele>234.05</ele>
        <time>2018-09-09T15:13:03Z</time>
      </trkpt>
      <trkpt lat="45.23523" lon="5.83687">
        <ele>233.83</ele>
        <time>2018-09-09T15:13:04Z</time>
      </trkpt>
      <trkpt lat="45.23503" lon="5.83654">
        <ele>233.07</ele>
        <time>2018-09-09T15:13:05Z</time>
      </trkpt>
      <trkpt lat="45.23482" lon="5.83622">
        <ele>232.84</ele>
        <time>2018-09-09T15:13:06Z</time>
      </trkpt>
      <trkpt lat="45.23461" lon="5.83588">
        <ele>232.07</ele>
        <time>2018-09-09T15:13:07Z</time>
      </trkpt>
      <trkpt lat="45.23439" lon="5.83553">
        <ele>231.84</ele>
        <time>2018-09-09T15:13:08Z</time>
      </trkpt>
      <trkpt lat="45.23416" lon="5.83519">
        <ele>231.07</ele>
        <time>2018-09-09T15:13:09Z</time>
      </trkpt>
      <trkpt lat="45.23393" lon="5.83484">
        <ele>230.84</ele>
        <time>2018-09-09T15:13:10Z</time>
      </trkpt>
      <trkpt lat="45.2337" lon="5.83451">
        <ele>230.07</ele>
        <time>2018-09-09T15:13:11Z</time>
      </trkpt>
      <trkpt lat="45.23347" lon="5.83417">
        <ele>229.14</ele>
        <time>2018-09-09T15:13:12Z</time>
      </trkpt>
      <trkpt lat="45.23324" lon="5.83383">
        <ele>228.16</ele>
        <time>2018-09-09T15:13:13Z</time>
      </trkpt>
      <trkpt lat="45.23301" lon="5.8335">
        <ele>227.87</ele>
        <time>2018-09-09T15:13:14Z</time>
      </trkpt>
      <trkpt lat="45.23278" lon="5.83317">
        <ele>227.08</ele>
        <time>2018-09-09T15:13:15Z</time>
      </trkpt>
      <trkpt lat="45.23255" lon="5.83284">
        <ele>226.84</ele>
        <time>2018-09-09T15:13:16Z</time>
      </trkpt>
      <trkpt lat="45.23232" lon="5.83252">
        <ele>226.77</ele>
        <time>2018-09-09T15:13:17Z</time>
      </trkpt>
      <trkpt lat="45.23209" lon="5.83221">
        <ele>226.05</ele>
        <time>2018-09-09T15:13:18Z</time>
      </trkpt>
      <trkpt lat="45.23186" lon="5.8319">
        <ele>225.83</ele>
        <time>2018-09-09T15:13:19Z</time>
      </trkpt>
      <trkpt lat="45.23163" lon="5.8316">
        <ele>225.07</ele>
        <time>2018-09-09T15:13:20Z</time>
      </trkpt>
      <trkpt lat="45.2314" lon="5.8313">
        <ele>224.14</ele>
        <time>2018-09-09T15:13:21Z</time>
      </trkpt>
      <trkpt lat="45.23118" lon="5.831">
        <ele>223.86</ele>
        <time>2018-09-09T15:13:22Z</time>
      </trkpt>
      <trkpt lat="45.23095" lon="5.8307">
        <ele>223.08</ele>
        <time>2018-09-09T15:13:23Z</time>
      </trkpt>
      <trkpt lat="45.23072" lon="5.83041">
        <ele>222.14</ele>
        <time>2018-09-09T15:13:24Z</time>
      </trkpt>
      <trkpt lat="45.2305" lon="5.83013">
        <ele>221.86</ele>
        <time>2018-09-09T15:13:25Z</time>
      </trkpt>
      <trkpt lat="45.23027" lon="5.82984">
        <ele>221.78</ele>
        <time>2018-09-09T15:13:26Z</time>
      </trkpt>
      <trkpt lat="45.23005" lon="5.82955">
        <ele>221.05</ele>
        <time>2018-09-09T15:13:27Z</time>
      </trkpt>
      <trkpt lat="45.22982" lon="5.82927">
        <ele>220.83</ele>
        <time>2018-09-09T15:13:28Z</time>
      </trkpt>
      <trkpt lat="45.22959" lon="5.82899">
        <ele>220.77</ele>
        <time>2018-09-09T15:13:29Z</time>
      </trkpt>
      <trkpt lat="45.22936" lon="5.82871">
        <ele>220.05</ele>
        <time>2018-09-09T15:13:30Z</time>
      </trkpt>
      <trkpt lat="45.22913" lon="5.82844">
        <ele>219.83</ele>
        <time>2018-09-09T15:13:31Z</time>
      </trkpt>
      <trkpt lat="45.22891" lon="5.82816">
        <ele>219.07</ele>
        <time>2018-09-09T15:13:32Z</time>
      </trkpt>
      <trkpt lat="45.22869" lon="5.82789">
        <ele>218.84</ele>
        <time>2018-09-09T15:13:33Z</time>
      </trkpt>
      <trkpt lat="45.22845" lon="5.82762">
        <ele>218.77</ele>
        <time>2018-09-09T15:13:34Z</time>
      </trkpt>
      <trkpt lat="45.22823" lon="5.82735">
        <ele>218.75</ele>
        <time>2018-09-09T15:13:35Z</time>
      </trkpt>
      <trkpt lat="45.228" lon="5.82709">
        <ele>218.74</ele>
        <time>2018-09-09T15:13:36Z</time>
      </trkpt>
      <trkpt lat="45.22778" lon="5.82683">
        <ele>218.74</ele>
        <time>2018-09-09T15:13:37Z</time>
      </trkpt>
      <trkpt lat="45.22755" lon="5.82657">
        <ele>218.74</ele>
        <time>2018-09-09T15:13:38Z</time>
      </trkpt>
      <trkpt lat="45.22732" lon="5.82632">
        <ele>218.04</ele>
        <time>2018-09-09T15:13:39Z</time>
      </trkpt>
      <trkpt lat="45.22708" lon="5.82606">
        <ele>217.83</ele>
        <time>2018-09-09T15:13:40Z</time>
      </trkpt>
      <trkpt lat="45.22685" lon="5.8258">
        <ele>217.77</ele>
        <time>2018-09-09T15:13:41Z</time>
      </trkpt>
      <trkpt lat="45.22661" lon="5.82552">
        <ele>217.75</ele>
        <time>2018-09-09T15:13:42Z</time>
      </trkpt>
      <trkpt lat="45.22637" lon="5.82524">
        <ele>217.74</ele>
        <time>2018-09-09T15:13:43Z</time>
      </trkpt>
      <trkpt lat="45.22612" lon="5.82496">
        <ele>217.74</ele>
        <time>2018-09-09T15:13:44Z</time>
      </trkpt>
      <trkpt lat="45.22585" lon="5.82467">
        <ele>217.74</ele>
        <time>2018-09-09T15:13:45Z</time>
      </trkpt>
      <trkpt lat="45.22559" lon="5.8244">
        <ele>217.74</ele>
        <time>2018-09-09T15:13:46Z</time>
      </trkpt>
      <trkpt lat="45.22532" lon="5.82413">
        <ele>218.44</ele>
        <time>2018-09-09T15:13:47Z</time>
      </trkpt>
      <trkpt lat="45.22506" lon="5.82386">
        <ele>218.65</ele>
        <time>2018-09-09T15:13:48Z</time>
      </trkpt>
      <trkpt lat="45.22479" lon="5.8236">
        <ele>218.71</ele>
        <time>2018-09-09T15:13:49Z</time>
      </trkpt>
      <trkpt lat="45.22453" lon="5.82333">
        <ele>218.73</ele>
        <time>2018-09-09T15:13:50Z</time>
      </trkpt>
      <trkpt lat="45.22426" lon="5.82307">
        <ele>218.74</ele>
        <time>2018-09-09T15:13:51Z</time>
      </trkpt>
      <trkpt lat="45.224" lon="5.82282">
        <ele>218.74</ele>
        <time>2018-09-09T15:13:52Z</time>
      </trkpt>
      <trkpt lat="45.22373" lon="5.82256">
        <ele>218.74</ele>
        <time>2018-09-09T15:13:53Z</time>
      </trkpt>
      <trkpt lat="45.22347" lon="5.82231">
        <ele>218.74</ele>
        <time>2018-09-09T15:13:54Z</time>
      </trkpt>
      <trkpt lat="45.22321" lon="5.82206">
        <ele>218.74</ele>
        <time>2018-09-09T15:13:55Z</time>
      </trkpt>
      <trkpt lat="45.22295" lon="5.82181">
        <ele>218.74</ele>
        <time>2018-09-09T15:13:56Z</time>
      </trkpt>
      <trkpt lat="45.22269" lon="5.82156">
        <ele>218.74</ele>
        <time>2018-09-09T15:13:57Z</time>
      </trkpt>
      <trkpt lat="45.22243" lon="5.82131">
        <ele>219.44</ele>
        <time>2018-09-09T15:13:58Z</time>
      </trkpt>
      <trkpt lat="45.22217" lon="5.82107">
        <ele>219.65</ele>
        <time>2018-09-09T15:13:59Z</time>
      </trkpt>
      <trkpt lat="45.22192" lon="5.82082">
        <ele>219.71</ele>
        <time>2018-09-09T15:14:00Z</time>
      </trkpt>
      <trkpt lat="45.22166" lon="5.82057">
        <ele>219.73</ele>
        <time>2018-09-09T15:14:01Z</time>
      </trkpt>
      <trkpt lat="45.22141" lon="5.82033">
        <ele>219.74</ele>
        <time>2018-09-09T15:14:02Z</time>
      </trkpt>
      <trkpt lat="45.22117" lon="5.82011">
        <ele>219.74</ele>
        <time>2018-09-09T15:14:03Z</time>
      </trkpt>
      <trkpt lat="45.22094" lon="5.81989">
        <ele>219.74</ele>
        <time>2018-09-09T15:14:04Z</time>
      </trkpt>
      <trkpt lat="45.2207" lon="5.81968">
        <ele>219.74</ele>
        <time>2018-09-09T15:14:05Z</time>
      </trkpt>
      <trkpt lat="45.22047" lon="5.81946">
        <ele>219.74</ele>
        <time>2018-09-09T15:14:06Z</time>
      </trkpt>
      <trkpt lat="45.22025" lon="5.81925">
        <ele>219.74</ele>
        <time>2018-09-09T15:14:07Z</time>
      </trkpt>
      <trkpt lat="45.22002" lon="5.81903">
        <ele>219.74</ele>
        <time>2018-09-09T15:14:08Z</time>
      </trkpt>
      <trkpt lat="45.21978" lon="5.81882">
        <ele>219.74</ele>
        <time>2018-09-09T15:14:09Z</time>
      </trkpt>
      <trkpt lat="45.21956" lon="5.81859">
        <ele>219.74</ele>
        <time>2018-09-09T15:14:10Z</time>
      </trkpt>
      <trkpt lat="45.21933" lon="5.81837">
        <ele>219.74</ele>
        <time>2018-09-09T15:14:11Z</time>
      </trkpt>
      <trkpt lat="45.2191" lon="5.81815">
        <ele>219.74</ele>
        <time>2018-09-09T15:14:12Z</time>
      </trkpt>
      <trkpt lat="45.21888" lon="5.81793">
        <ele>219.74</ele>
        <time>2018-09-09T15:14:13Z</time>
      </trkpt>
      <trkpt lat="45.21864" lon="5.81771">
        <ele>219.74</ele>
        <time>2018-09-09T15:14:14Z</time>
      </trkpt>
      <trkpt lat="45.21841" lon="5.81749">
        <ele>219.74</ele>
        <time>2018-09-09T15:14:15Z</time>
      </trkpt>
      <trkpt lat="45.21818" lon="5.81727">
        <ele>219.74</ele>
        <time>2018-09-09T15:14:16Z</time>
      </trkpt>
      <trkpt lat="45.21795" lon="5.81704">
        <ele>219.74</ele>
        <time>2018-09-09T15:14:17Z</time>
      </trkpt>
      <trkpt lat="45.21772" lon="5.81682">
        <ele>219.74</ele>
        <time>2018-09-09T15:14:18Z</time>
      </trkpt>
      <trkpt lat="45.21749" lon="5.81658">
        <ele>219.74</ele>
        <time>2018-09-09T15:14:19Z</time>
      </trkpt>
      <trkpt lat="45.21726" lon="5.81636">
        <ele>219.74</ele>
        <time>2018-09-09T15:14:20Z</time>
      </trkpt>
      <trkpt lat="45.21704" lon="5.81612">
        <ele>219.74</ele>
        <time>2018-09-09T15:14:21Z</time>
      </trkpt>
      <trkpt lat="45.21681" lon="5.81588">
        <ele>219.74</ele>
        <time>2018-09-09T15:14:22Z</time>
      </trkpt>
      <trkpt lat="45.21659" lon="5.81564">
        <ele>219.74</ele>
        <time>2018-09-09T15:14:23Z</time>
      </trkpt>
      <trkpt lat="45.21636" lon="5.81539">
        <ele>219.74</ele>
        <time>2018-09-09T15:14:24Z</time>
      </trkpt>
      <trkpt lat="45.21614" lon="5.81514">
        <ele>219.74</ele>
        <time>2018-09-09T15:14:25Z</time>
      </trkpt>
      <trkpt lat="45.21592" lon="5.81489">
        <ele>219.74</ele>
        <time>2018-09-09T15:14:26Z</time>
      </trkpt>
      <trkpt lat="45.2157" lon="5.81463">
        <ele>219.74</ele>
        <time>2018-09-09T15:14:27Z</time>
      </trkpt>
      <trkpt lat="45.21549" lon="5.81437">
        <ele>219.74</ele>
        <time>2018-09-09T15:14:28Z</time>
      </trkpt>
      <trkpt lat="45.21527" lon="5.81411">
        <ele>219.74</ele>
        <time>2018-09-09T15:14:29Z</time>
      </trkpt>
      <trkpt lat="45.21506" lon="5.81384">
        <ele>219.74</ele>
        <time>2018-09-09T15:14:30Z</time>
      </trkpt>
      <trkpt lat="45.21485" lon="5.81357">
        <ele>219.74</ele>
        <time>2018-09-09T15:14:31Z</time>
      </trkpt>
      <trkpt lat="45.21464" lon="5.81329">
        <ele>219.74</ele>
        <time>2018-09-09T15:14:32Z</time>
      </trkpt>
      <trkpt lat="45.21443" lon="5.81302">
        <ele>219.74</ele>
        <time>2018-09-09T15:14:33Z</time>
      </trkpt>
      <trkpt lat="45.21422" lon="5.81273">
        <ele>219.04</ele>
        <time>2018-09-09T15:14:34Z</time>
      </trkpt>
      <trkpt lat="45.21402" lon="5.81245">
        <ele>218.83</ele>
        <time>2018-09-09T15:14:35Z</time>
      </trkpt>
      <trkpt lat="45.21382" lon="5.81216">
        <ele>218.77</ele>
        <time>2018-09-09T15:14:36Z</time>
      </trkpt>
      <trkpt lat="45.21362" lon="5.81186">
        <ele>218.75</ele>
        <time>2018-09-09T15:14:37Z</time>
      </trkpt>
      <trkpt lat="45.21342" lon="5.81156">
        <ele>218.74</ele>
        <time>2018-09-09T15:14:38Z</time>
      </trkpt>
      <trkpt lat="45.21322" lon="5.81126">
        <ele>218.04</ele>
        <time>2018-09-09T15:14:39Z</time>
      </trkpt>
      <trkpt lat="45.21302" lon="5.81096">
        <ele>217.83</ele>
        <time>2018-09-09T15:14:40Z</time>
      </trkpt>
      <trkpt lat="45.21282" lon="5.81066">
        <ele>217.77</ele>
        <time>2018-09-09T15:14:41Z</time>
      </trkpt>
      <trkpt lat="45.21263" lon="5.81035">
        <ele>217.75</ele>
        <time>2018-09-09T15:14:42Z</time>
      </trkpt>
      <trkpt lat="45.21245" lon="5.81004">
        <ele>217.74</ele>
        <time>2018-09-09T15:14:43Z</time>
      </trkpt>
      <trkpt lat="45.21226" lon="5.80972">
        <ele>217.74</ele>
        <time>2018-09-09T15:14:44Z</time>
      </trkpt>
      <trkpt lat="45.21208" lon="5.8094">
        <ele>217.74</ele>
        <time>2018-09-09T15:14:45Z</time>
      </trkpt>
      <trkpt lat="45.2119" lon="5.80909">
        <ele>217.74</ele>
        <time>2018-09-09T15:14:46Z</time>
      </trkpt>
      <trkpt lat="45.21172" lon="5.80877">
        <ele>217.74</ele>
        <time>2018-09-09T15:14:47Z</time>
      </trkpt>
      <trkpt lat="45.21155" lon="5.80845">
        <ele>217.74</ele>
        <time>2018-09-09T15:14:48Z</time>
      </trkpt>
      <trkpt lat="45.21138" lon="5.80813">
        <ele>217.74</ele>
        <time>2018-09-09T15:14:49Z</time>
      </trkpt>
      <trkpt lat="45.21122" lon="5.80781">
        <ele>217.74</ele>
        <time>2018-09-09T15:14:50Z</time>
      </trkpt>
      <trkpt lat="45.21106" lon="5.80748">
        <ele>217.74</ele>
        <time>2018-09-09T15:14:51Z</time>
      </trkpt>
      <trkpt lat="45.21089" lon="5.80716">
        <ele>217.74</ele>
        <time>2018-09-09T15:14:52Z</time>
      </trkpt>
      <trkpt lat="45.21073" lon="5.80683">
        <ele>217.04</ele>
        <time>2018-09-09T15:14:53Z</time>
      </trkpt>
      <trkpt lat="45.21057" lon="5.8065">
        <ele>217.53</ele>
        <time>2018-09-09T15:14:54Z</time>
      </trkpt>
      <trkpt lat="45.21042" lon="5.80618">
        <ele>217.68</ele>
        <time>2018-09-09T15:14:55Z</time>
      </trkpt>
      <trkpt lat="45.21027" lon="5.80585">
        <ele>217.72</ele>
        <time>2018-09-09T15:14:56Z</time>
      </trkpt>
      <trkpt lat="45.21012" lon="5.80551">
        <ele>217.74</ele>
        <time>2018-09-09T15:14:57Z</time>
      </trkpt>
      <trkpt lat="45.20998" lon="5.80519">
        <ele>216.34</ele>
        <time>2018-09-09T15:14:58Z</time>
      </trkpt>
      <trkpt lat="45.20984" lon="5.80484">
        <ele>216.62</ele>
        <time>2018-09-09T15:14:59Z</time>
      </trkpt>
      <trkpt lat="45.2097" lon="5.80451">
        <ele>216.7</ele>
        <time>2018-09-09T15:15:00Z</time>
      </trkpt>
      <trkpt lat="45.20957" lon="5.80417">
        <ele>216.73</ele>
        <time>2018-09-09T15:15:01Z</time>
      </trkpt>
      <trkpt lat="45.20943" lon="5.80383">
        <ele>216.04</ele>
        <time>2018-09-09T15:15:02Z</time>
      </trkpt>
      <trkpt lat="45.2093" lon="5.80349">
        <ele>216.53</ele>
        <time>2018-09-09T15:15:03Z</time>
      </trkpt>
      <trkpt lat="45.20916" lon="5.80314">
        <ele>216.68</ele>
        <time>2018-09-09T15:15:04Z</time>
      </trkpt>
      <trkpt lat="45.20904" lon="5.80279">
        <ele>216.72</ele>
        <time>2018-09-09T15:15:05Z</time>
      </trkpt>
      <trkpt lat="45.20891" lon="5.80245">
        <ele>216.74</ele>
        <time>2018-09-09T15:15:06Z</time>
      </trkpt>
      <trkpt lat="45.20879" lon="5.8021">
        <ele>216.74</ele>
        <time>2018-09-09T15:15:07Z</time>
      </trkpt>
      <trkpt lat="45.20867" lon="5.80174">
        <ele>216.74</ele>
        <time>2018-09-09T15:15:08Z</time>
      </trkpt>
      <trkpt lat="45.20855" lon="5.80139">
        <ele>216.74</ele>
        <time>2018-09-09T15:15:09Z</time>
      </trkpt>
      <trkpt lat="45.20843" lon="5.80103">
        <ele>216.74</ele>
        <time>2018-09-09T15:15:10Z</time>
      </trkpt>
      <trkpt lat="45.20831" lon="5.80067">
        <ele>216.74</ele>
        <time>2018-09-09T15:15:11Z</time>
      </trkpt>
      <trkpt lat="45.2082" lon="5.80031">
        <ele>216.74</ele>
        <time>2018-09-09T15:15:12Z</time>
      </trkpt>
      <trkpt lat="45.20808" lon="5.79994">
        <ele>216.74</ele>
        <time>2018-09-09T15:15:13Z</time>
      </trkpt>
      <trkpt lat="45.20798" lon="5.79958">
        <ele>216.74</ele>
        <time>2018-09-09T15:15:14Z</time>
      </trkpt>
      <trkpt lat="45.20787" lon="5.79922">
        <ele>216.74</ele>
        <time>2018-09-09T15:15:15Z</time>
      </trkpt>
      <trkpt lat="45.20776" lon="5.79886">
        <ele>216.74</ele>
        <time>2018-09-09T15:15:16Z</time>
      </trkpt>
      <trkpt lat="45.20767" lon="5.7985">
        <ele>216.04</ele>
        <time>2018-09-09T15:15:17Z</time>
      </trkpt>
      <trkpt lat="45.20757" lon="5.79814">
        <ele>215.83</ele>
        <time>2018-09-09T15:15:18Z</time>
      </trkpt>
      <trkpt lat="45.20748" lon="5.79777">
        <ele>215.77</ele>
        <time>2018-09-09T15:15:19Z</time>
      </trkpt>
      <trkpt lat="45.20739" lon="5.79741">
        <ele>215.05</ele>
        <time>2018-09-09T15:15:20Z</time>
      </trkpt>
      <trkpt lat="45.20729" lon="5.79704">
        <ele>214.83</ele>
        <time>2018-09-09T15:15:21Z</time>
      </trkpt>
      <trkpt lat="45.2072" lon="5.79668">
        <ele>214.77</ele>
        <time>2018-09-09T15:15:22Z</time>
      </trkpt>
      <trkpt lat="45.20711" lon="5.79631">
        <ele>214.05</ele>
        <time>2018-09-09T15:15:23Z</time>
      </trkpt>
      <trkpt lat="45.20702" lon="5.79594">
        <ele>213.83</ele>
        <time>2018-09-09T15:15:24Z</time>
      </trkpt>
      <trkpt lat="45.20692" lon="5.79557">
        <ele>213.77</ele>
        <time>2018-09-09T15:15:25Z</time>
      </trkpt>
      <trkpt lat="45.20683" lon="5.79521">
        <ele>213.75</ele>
        <time>2018-09-09T15:15:26Z</time>
      </trkpt>
      <trkpt lat="45.20674" lon="5.79484">
        <ele>213.74</ele>
        <time>2018-09-09T15:15:27Z</time>
      </trkpt>
      <trkpt lat="45.20665" lon="5.79448">
        <ele>213.74</ele>
        <time>2018-09-09T15:15:28Z</time>
      </trkpt>
      <trkpt lat="45.20656" lon="5.79411">
        <ele>213.74</ele>
        <time>2018-09-09T15:15:29Z</time>
      </trkpt>
      <trkpt lat="45.20649" lon="5.79374">
        <ele>213.04</ele>
        <time>2018-09-09T15:15:30Z</time>
      </trkpt>
      <trkpt lat="45.20641" lon="5.79338">
        <ele>212.13</ele>
        <time>2018-09-09T15:15:31Z</time>
      </trkpt>
      <trkpt lat="45.20633" lon="5.79301">
        <ele>211.86</ele>
        <time>2018-09-09T15:15:32Z</time>
      </trkpt>
      <trkpt lat="45.20625" lon="5.79265">
        <ele>211.08</ele>
        <time>2018-09-09T15:15:33Z</time>
      </trkpt>
      <trkpt lat="45.20617" lon="5.79228">
        <ele>212.24</ele>
        <time>2018-09-09T15:15:34Z</time>
      </trkpt>
      <trkpt lat="45.20609" lon="5.79191">
        <ele>212.59</ele>
        <time>2018-09-09T15:15:35Z</time>
      </trkpt>
      <trkpt lat="45.20601" lon="5.79154">
        <ele>212.7</ele>
        <time>2018-09-09T15:15:36Z</time>
      </trkpt>
      <trkpt lat="45.20593" lon="5.79116">
        <ele>212.73</ele>
        <time>2018-09-09T15:15:37Z</time>
      </trkpt>
      <trkpt lat="45.20585" lon="5.79078">
        <ele>212.74</ele>
        <time>2018-09-09T15:15:38Z</time>
      </trkpt>
      <trkpt lat="45.20578" lon="5.79039">
        <ele>212.74</ele>
        <time>2018-09-09T15:15:39Z</time>
      </trkpt>
      <trkpt lat="45.2057" lon="5.79">
        <ele>212.74</ele>
        <time>2018-09-09T15:15:40Z</time>
      </trkpt>
      <trkpt lat="45.20564" lon="5.78962">
        <ele>211.34</ele>
        <time>2018-09-09T15:15:41Z</time>
      </trkpt>
      <trkpt lat="45.20555" lon="5.78924">
        <ele>211.62</ele>
        <time>2018-09-09T15:15:42Z</time>
      </trkpt>
      <trkpt lat="45.20548" lon="5.78884">
        <ele>211.7</ele>
        <time>2018-09-09T15:15:43Z</time>
      </trkpt>
      <trkpt lat="45.20541" lon="5.78846">
        <ele>211.73</ele>
        <time>2018-09-09T15:15:44Z</time>
      </trkpt>
      <trkpt lat="45.20534" lon="5.78808">
        <ele>211.74</ele>
        <time>2018-09-09T15:15:45Z</time>
      </trkpt>
      <trkpt lat="45.20528" lon="5.78769">
        <ele>211.74</ele>
        <time>2018-09-09T15:15:46Z</time>
      </trkpt>
      <trkpt lat="45.20522" lon="5.78732">
        <ele>211.74</ele>
        <time>2018-09-09T15:15:47Z</time>
      </trkpt>
      <trkpt lat="45.20516" lon="5.78694">
        <ele>211.74</ele>
        <time>2018-09-09T15:15:48Z</time>
      </trkpt>
      <trkpt lat="45.20509" lon="5.78657">
        <ele>211.74</ele>
        <time>2018-09-09T15:15:49Z</time>
      </trkpt>
      <trkpt lat="45.20503" lon="5.78621">
        <ele>211.04</ele>
        <time>2018-09-09T15:15:50Z</time>
      </trkpt>
      <trkpt lat="45.20496" lon="5.78584">
        <ele>210.83</ele>
        <time>2018-09-09T15:15:51Z</time>
      </trkpt>
      <trkpt lat="45.20489" lon="5.78548">
        <ele>210.77</ele>
        <time>2018-09-09T15:15:52Z</time>
      </trkpt>
      <trkpt lat="45.20483" lon="5.78511">
        <ele>210.75</ele>
        <time>2018-09-09T15:15:53Z</time>
      </trkpt>
      <trkpt lat="45.20477" lon="5.78474">
        <ele>210.74</ele>
        <time>2018-09-09T15:15:54Z</time>
      </trkpt>
      <trkpt lat="45.2047" lon="5.78436">
        <ele>211.44</ele>
        <time>2018-09-09T15:15:55Z</time>
      </trkpt>
      <trkpt lat="45.20463" lon="5.78399">
        <ele>210.95</ele>
        <time>2018-09-09T15:15:56Z</time>
      </trkpt>
      <trkpt lat="45.20457" lon="5.7836">
        <ele>211.5</ele>
        <time>2018-09-09T15:15:57Z</time>
      </trkpt>
      <trkpt lat="45.20451" lon="5.78322">
        <ele>211.67</ele>
        <time>2018-09-09T15:15:58Z</time>
      </trkpt>
      <trkpt lat="45.20446" lon="5.78285">
        <ele>211.72</ele>
        <time>2018-09-09T15:15:59Z</time>
      </trkpt>
      <trkpt lat="45.20439" lon="5.78248">
        <ele>211.73</ele>
        <time>2018-09-09T15:16:00Z</time>
      </trkpt>
      <trkpt lat="45.20433" lon="5.7821">
        <ele>211.74</ele>
        <time>2018-09-09T15:16:01Z</time>
      </trkpt>
      <trkpt lat="45.20428" lon="5.78172">
        <ele>211.74</ele>
        <time>2018-09-09T15:16:02Z</time>
      </trkpt>
      <trkpt lat="45.20421" lon="5.78134">
        <ele>211.74</ele>
        <time>2018-09-09T15:16:03Z</time>
      </trkpt>
      <trkpt lat="45.20416" lon="5.78096">
        <ele>212.44</ele>
        <time>2018-09-09T15:16:04Z</time>
      </trkpt>
      <trkpt lat="45.2041" lon="5.78058">
        <ele>212.65</ele>
        <time>2018-09-09T15:16:05Z</time>
      </trkpt>
      <trkpt lat="45.20404" lon="5.78019">
        <ele>212.71</ele>
        <time>2018-09-09T15:16:06Z</time>
      </trkpt>
      <trkpt lat="45.20398" lon="5.77981">
        <ele>212.73</ele>
        <time>2018-09-09T15:16:07Z</time>
      </trkpt>
      <trkpt lat="45.20393" lon="5.77942">
        <ele>212.04</ele>
        <time>2018-09-09T15:16:08Z</time>
      </trkpt>
      <trkpt lat="45.20387" lon="5.77903">
        <ele>211.83</ele>
        <time>2018-09-09T15:16:09Z</time>
      </trkpt>
      <trkpt lat="45.20381" lon="5.77865">
        <ele>211.77</ele>
        <time>2018-09-09T15:16:10Z</time>
      </trkpt>
      <trkpt lat="45.20374" lon="5.77827">
        <ele>211.75</ele>
        <time>2018-09-09T15:16:11Z</time>
      </trkpt>
      <trkpt lat="45.20368" lon="5.77789">
        <ele>211.74</ele>
        <time>2018-09-09T15:16:12Z</time>
      </trkpt>
      <trkpt lat="45.20363" lon="5.77751">
        <ele>211.74</ele>
        <time>2018-09-09T15:16:13Z</time>
      </trkpt>
      <trkpt lat="45.20357" lon="5.77713">
        <ele>211.74</ele>
        <time>2018-09-09T15:16:14Z</time>
      </trkpt>
      <trkpt lat="45.20351" lon="5.77675">
        <ele>211.74</ele>
        <time>2018-09-09T15:16:15Z</time>
      </trkpt>
      <trkpt lat="45.20346" lon="5.77638">
        <ele>211.74</ele>
        <time>2018-09-09T15:16:16Z</time>
      </trkpt>
      <trkpt lat="45.2034" lon="5.776">
        <ele>211.74</ele>
        <time>2018-09-09T15:16:17Z</time>
      </trkpt>
      <trkpt lat="45.20336" lon="5.77562">
        <ele>211.74</ele>
        <time>2018-09-09T15:16:18Z</time>
      </trkpt>
      <trkpt lat="45.2033" lon="5.77525">
        <ele>211.74</ele>
        <time>2018-09-09T15:16:19Z</time>
      </trkpt>
      <trkpt lat="45.20325" lon="5.77488">
        <ele>211.04</ele>
        <time>2018-09-09T15:16:20Z</time>
      </trkpt>
      <trkpt lat="45.2032" lon="5.7745">
        <ele>210.83</ele>
        <time>2018-09-09T15:16:21Z</time>
      </trkpt>
      <trkpt lat="45.20314" lon="5.77413">
        <ele>211.47</ele>
        <time>2018-09-09T15:16:22Z</time>
      </trkpt>
      <trkpt lat="45.20309" lon="5.77375">
        <ele>211.66</ele>
        <time>2018-09-09T15:16:23Z</time>
      </trkpt>
      <trkpt lat="45.20304" lon="5.77337">
        <ele>211.02</ele>
        <time>2018-09-09T15:16:24Z</time>
      </trkpt>
      <trkpt lat="45.20299" lon="5.77299">
        <ele>210.82</ele>
        <time>2018-09-09T15:16:25Z</time>
      </trkpt>
      <trkpt lat="45.20294" lon="5.77261">
        <ele>210.77</ele>
        <time>2018-09-09T15:16:26Z</time>
      </trkpt>
      <trkpt lat="45.20289" lon="5.77223">
        <ele>211.45</ele>
        <time>2018-09-09T15:16:27Z</time>
      </trkpt>
      <trkpt lat="45.20284" lon="5.77185">
        <ele>211.65</ele>
        <time>2018-09-09T15:16:28Z</time>
      </trkpt>
      <trkpt lat="45.20279" lon="5.77147">
        <ele>211.71</ele>
        <time>2018-09-09T15:16:29Z</time>
      </trkpt>
      <trkpt lat="45.20274" lon="5.7711">
        <ele>211.73</ele>
        <time>2018-09-09T15:16:30Z</time>
      </trkpt>
      <trkpt lat="45.20268" lon="5.77073">
        <ele>211.74</ele>
        <time>2018-09-09T15:16:31Z</time>
      </trkpt>
      <trkpt lat="45.20263" lon="5.77036">
        <ele>211.04</ele>
        <time>2018-09-09T15:16:32Z</time>
      </trkpt>
      <trkpt lat="45.20258" lon="5.76999">
        <ele>211.53</ele>
        <time>2018-09-09T15:16:33Z</time>
      </trkpt>
      <trkpt lat="45.20254" lon="5.76964">
        <ele>210.98</ele>
        <time>2018-09-09T15:16:34Z</time>
      </trkpt>
      <trkpt lat="45.20249" lon="5.7693">
        <ele>210.81</ele>
        <time>2018-09-09T15:16:35Z</time>
      </trkpt>
      <trkpt lat="45.20245" lon="5.76898">
        <ele>210.76</ele>
        <time>2018-09-09T15:16:36Z</time>
      </trkpt>
      <trkpt lat="45.20241" lon="5.76868">
        <ele>210.75</ele>
        <time>2018-09-09T15:16:37Z</time>
      </trkpt>
      <trkpt lat="45.20237" lon="5.76837">
        <ele>210.74</ele>
        <time>2018-09-09T15:16:38Z</time>
      </trkpt>
      <trkpt lat="45.20233" lon="5.76807">
        <ele>210.74</ele>
        <time>2018-09-09T15:16:39Z</time>
      </trkpt>
      <trkpt lat="45.20229" lon="5.76776">
        <ele>210.74</ele>
        <time>2018-09-09T15:16:40Z</time>
      </trkpt>
      <trkpt lat="45.20224" lon="5.76746">
        <ele>210.74</ele>
        <time>2018-09-09T15:16:41Z</time>
      </trkpt>
      <trkpt lat="45.2022" lon="5.76715">
        <ele>210.74</ele>
        <time>2018-09-09T15:16:42Z</time>
      </trkpt>
      <trkpt lat="45.20215" lon="5.76684">
        <ele>210.74</ele>
        <time>2018-09-09T15:16:43Z</time>
      </trkpt>
      <trkpt lat="45.20211" lon="5.76653">
        <ele>210.74</ele>
        <time>2018-09-09T15:16:44Z</time>
      </trkpt>
      <trkpt lat="45.20206" lon="5.76622">
        <ele>210.74</ele>
        <time>2018-09-09T15:16:45Z</time>
      </trkpt>
      <trkpt lat="45.20202" lon="5.7659">
        <ele>210.04</ele>
        <time>2018-09-09T15:16:46Z</time>
      </trkpt>
      <trkpt lat="45.20197" lon="5.76559">
        <ele>209.83</ele>
        <time>2018-09-09T15:16:47Z</time>
      </trkpt>
      <trkpt lat="45.20192" lon="5.76529">
        <ele>209.77</ele>
        <time>2018-09-09T15:16:48Z</time>
      </trkpt>
      <trkpt lat="45.20187" lon="5.76499">
        <ele>209.75</ele>
        <time>2018-09-09T15:16:49Z</time>
      </trkpt>
      <trkpt lat="45.20182" lon="5.76469">
        <ele>209.74</ele>
        <time>2018-09-09T15:16:50Z</time>
      </trkpt>
      <trkpt lat="45.20177" lon="5.76441">
        <ele>209.74</ele>
        <time>2018-09-09T15:16:51Z</time>
      </trkpt>
      <trkpt lat="45.20172" lon="5.76413">
        <ele>209.04</ele>
        <time>2018-09-09T15:16:52Z</time>
      </trkpt>
      <trkpt lat="45.20168" lon="5.76387">
        <ele>209.53</ele>
        <time>2018-09-09T15:16:53Z</time>
      </trkpt>
      <trkpt lat="45.20159" lon="5.76339">
        <ele>208.81</ele>
        <time>2018-09-09T15:16:55Z</time>
      </trkpt>
      <trkpt lat="45.20151" lon="5.7629">
        <ele>208.75</ele>
        <time>2018-09-09T15:16:57Z</time>
      </trkpt>
      <trkpt lat="45.20143" lon="5.76241">
        <ele>208.74</ele>
        <time>2018-09-09T15:16:59Z</time>
      </trkpt>
      <trkpt lat="45.20135" lon="5.76192">
        <ele>208.74</ele>
        <time>2018-09-09T15:17:01Z</time>
      </trkpt>
      <trkpt lat="45.20127" lon="5.76144">
        <ele>208.74</ele>
        <time>2018-09-09T15:17:03Z</time>
      </trkpt>
      <trkpt lat="45.2012" lon="5.76097">
        <ele>208.74</ele>
        <time>2018-09-09T15:17:05Z</time>
      </trkpt>
      <trkpt lat="45.20112" lon="5.76056">
        <ele>208.74</ele>
        <time>2018-09-09T15:17:07Z</time>
      </trkpt>
      <trkpt lat="45.20105" lon="5.76019">
        <ele>209.65</ele>
        <time>2018-09-09T15:17:09Z</time>
      </trkpt>
      <trkpt lat="45.201" lon="5.75987">
        <ele>208.82</ele>
        <time>2018-09-09T15:17:11Z</time>
      </trkpt>
      <trkpt lat="45.20096" lon="5.75955">
        <ele>209.66</ele>
        <time>2018-09-09T15:17:13Z</time>
      </trkpt>
      <trkpt lat="45.20094" lon="5.75924">
        <ele>209.73</ele>
        <time>2018-09-09T15:17:15Z</time>
      </trkpt>
      <trkpt lat="45.20093" lon="5.75892">
        <ele>209.74</ele>
        <time>2018-09-09T15:17:17Z</time>
      </trkpt>
      <trkpt lat="45.20089" lon="5.75859">
        <ele>209.74</ele>
        <time>2018-09-09T15:17:19Z</time>
      </trkpt>
      <trkpt lat="45.20068" lon="5.75825">
        <ele>208.83</ele>
        <time>2018-09-09T15:17:21Z</time>
      </trkpt>
      <trkpt lat="45.20044" lon="5.7579">
        <ele>209.45</ele>
        <time>2018-09-09T15:17:23Z</time>
      </trkpt>
      <trkpt lat="45.2003" lon="5.75772">
        <ele>209.65</ele>
        <time>2018-09-09T15:17:24Z</time>
      </trkpt>
      <trkpt lat="45.20017" lon="5.75754">
        <ele>209.71</ele>
        <time>2018-09-09T15:17:25Z</time>
      </trkpt>
      <trkpt lat="45.20004" lon="5.75736">
        <ele>209.73</ele>
        <time>2018-09-09T15:17:26Z</time>
      </trkpt>
      <trkpt lat="45.19979" lon="5.757">
        <ele>209.74</ele>
        <time>2018-09-09T15:17:28Z</time>
      </trkpt>
      <trkpt lat="45.19954" lon="5.75665">
        <ele>209.74</ele>
        <time>2018-09-09T15:17:30Z</time>
      </trkpt>
      <trkpt lat="45.19929" lon="5.75629">
        <ele>208.83</ele>
        <time>2018-09-09T15:17:32Z</time>
      </trkpt>
      <trkpt lat="45.19916" lon="5.75611">
        <ele>208.77</ele>
        <time>2018-09-09T15:17:33Z</time>
      </trkpt>
      <trkpt lat="45.19903" lon="5.75592">
        <ele>208.75</ele>
        <time>2018-09-09T15:17:34Z</time>
      </trkpt>
      <trkpt lat="45.1989" lon="5.75573">
        <ele>208.74</ele>
        <time>2018-09-09T15:17:35Z</time>
      </trkpt>
      <trkpt lat="45.19877" lon="5.75555">
        <ele>208.74</ele>
        <time>2018-09-09T15:17:36Z</time>
      </trkpt>
      <trkpt lat="45.19864" lon="5.75535">
        <ele>208.74</ele>
        <time>2018-09-09T15:17:37Z</time>
      </trkpt>
      <trkpt lat="45.19851" lon="5.75517">
        <ele>208.74</ele>
        <time>2018-09-09T15:17:38Z</time>
      </trkpt>
      <trkpt lat="45.19827" lon="5.75482">
        <ele>208.53</ele>
        <time>2018-09-09T15:17:40Z</time>
      </trkpt>
      <trkpt lat="45.19803" lon="5.75447">
        <ele>208.72</ele>
        <time>2018-09-09T15:17:42Z</time>
      </trkpt>
      <trkpt lat="45.19778" lon="5.75412">
        <ele>208.04</ele>
        <time>2018-09-09T15:17:44Z</time>
      </trkpt>
      <trkpt lat="45.19765" lon="5.75393">
        <ele>208.53</ele>
        <time>2018-09-09T15:17:45Z</time>
      </trkpt>
      <trkpt lat="45.19752" lon="5.75375">
        <ele>208.68</ele>
        <time>2018-09-09T15:17:46Z</time>
      </trkpt>
      <trkpt lat="45.19739" lon="5.75356">
        <ele>208.72</ele>
        <time>2018-09-09T15:17:47Z</time>
      </trkpt>
      <trkpt lat="45.19726" lon="5.75338">
        <ele>208.74</ele>
        <time>2018-09-09T15:17:48Z</time>
      </trkpt>
      <trkpt lat="45.19713" lon="5.75319">
        <ele>208.74</ele>
        <time>2018-09-09T15:17:49Z</time>
      </trkpt>
      <trkpt lat="45.197" lon="5.75301">
        <ele>208.74</ele>
        <time>2018-09-09T15:17:50Z</time>
      </trkpt>
      <trkpt lat="45.19687" lon="5.75283">
        <ele>209.44</ele>
        <time>2018-09-09T15:17:51Z</time>
      </trkpt>
      <trkpt lat="45.19662" lon="5.75247">
        <ele>209.71</ele>
        <time>2018-09-09T15:17:53Z</time>
      </trkpt>
      <trkpt lat="45.19637" lon="5.75211">
        <ele>209.74</ele>
        <time>2018-09-09T15:17:55Z</time>
      </trkpt>
      <trkpt lat="45.19612" lon="5.75176">
        <ele>209.74</ele>
        <time>2018-09-09T15:17:57Z</time>
      </trkpt>
      <trkpt lat="45.19587" lon="5.75141">
        <ele>209.74</ele>
        <time>2018-09-09T15:17:59Z</time>
      </trkpt>
      <trkpt lat="45.19562" lon="5.75106">
        <ele>209.04</ele>
        <time>2018-09-09T15:18:01Z</time>
      </trkpt>
      <trkpt lat="45.19538" lon="5.75071">
        <ele>209.47</ele>
        <time>2018-09-09T15:18:03Z</time>
      </trkpt>
      <trkpt lat="45.19512" lon="5.75035">
        <ele>209.72</ele>
        <time>2018-09-09T15:18:05Z</time>
      </trkpt>
      <trkpt lat="45.19487" lon="5.74999">
        <ele>210.44</ele>
        <time>2018-09-09T15:18:07Z</time>
      </trkpt>
      <trkpt lat="45.19474" lon="5.7498">
        <ele>210.87</ele>
        <time>2018-09-09T15:18:08Z</time>
      </trkpt>
      <trkpt lat="45.19461" lon="5.74961">
        <ele>210.99</ele>
        <time>2018-09-09T15:18:09Z</time>
      </trkpt>
      <trkpt lat="45.19448" lon="5.74943">
        <ele>211.03</ele>
        <time>2018-09-09T15:18:10Z</time>
      </trkpt>
      <trkpt lat="45.19435" lon="5.74925">
        <ele>211.04</ele>
        <time>2018-09-09T15:18:11Z</time>
      </trkpt>
      <trkpt lat="45.19422" lon="5.74907">
        <ele>211.05</ele>
        <time>2018-09-09T15:18:12Z</time>
      </trkpt>
      <trkpt lat="45.19409" lon="5.74888">
        <ele>211.05</ele>
        <time>2018-09-09T15:18:13Z</time>
      </trkpt>
      <trkpt lat="45.19396" lon="5.7487">
        <ele>211.05</ele>
        <time>2018-09-09T15:18:14Z</time>
      </trkpt>
      <trkpt lat="45.19383" lon="5.74852">
        <ele>211.05</ele>
        <time>2018-09-09T15:18:15Z</time>
      </trkpt>
      <trkpt lat="45.1937" lon="5.74832">
        <ele>211.05</ele>
        <time>2018-09-09T15:18:16Z</time>
      </trkpt>
      <trkpt lat="45.19357" lon="5.74813">
        <ele>211.05</ele>
        <time>2018-09-09T15:18:17Z</time>
      </trkpt>
      <trkpt lat="45.19344" lon="5.74794">
        <ele>211.05</ele>
        <time>2018-09-09T15:18:18Z</time>
      </trkpt>
      <trkpt lat="45.19331" lon="5.74774">
        <ele>211.05</ele>
        <time>2018-09-09T15:18:19Z</time>
      </trkpt>
      <trkpt lat="45.19318" lon="5.74755">
        <ele>211.05</ele>
        <time>2018-09-09T15:18:20Z</time>
      </trkpt>
      <trkpt lat="45.19306" lon="5.74736">
        <ele>211.05</ele>
        <time>2018-09-09T15:18:21Z</time>
      </trkpt>
      <trkpt lat="45.19284" lon="5.74699">
        <ele>211.05</ele>
        <time>2018-09-09T15:18:23Z</time>
      </trkpt>
      <trkpt lat="45.19262" lon="5.74666">
        <ele>211.05</ele>
        <time>2018-09-09T15:18:25Z</time>
      </trkpt>
      <trkpt lat="45.19244" lon="5.74641">
        <ele>211.05</ele>
        <time>2018-09-09T15:18:27Z</time>
      </trkpt>
      <trkpt lat="45.19243" lon="5.74615">
        <ele>212.02</ele>
        <time>2018-09-09T15:18:30Z</time>
      </trkpt>
      <trkpt lat="45.19267" lon="5.74599">
        <ele>211.08</ele>
        <time>2018-09-09T15:18:33Z</time>
      </trkpt>
      <trkpt lat="45.19278" lon="5.74579">
        <ele>210.14</ele>
        <time>2018-09-09T15:18:35Z</time>
      </trkpt>
      <trkpt lat="45.19263" lon="5.7455">
        <ele>210.05</ele>
        <time>2018-09-09T15:18:39Z</time>
      </trkpt>
      <trkpt lat="45.19245" lon="5.74537">
        <ele>209.35</ele>
        <time>2018-09-09T15:18:41Z</time>
      </trkpt>
      <trkpt lat="45.19226" lon="5.74517">
        <ele>209.08</ele>
        <time>2018-09-09T15:18:43Z</time>
      </trkpt>
      <trkpt lat="45.19208" lon="5.74492">
        <ele>209.26</ele>
        <time>2018-09-09T15:18:45Z</time>
      </trkpt>
      <trkpt lat="45.19194" lon="5.74462">
        <ele>209.07</ele>
        <time>2018-09-09T15:18:47Z</time>
      </trkpt>
      <trkpt lat="45.19184" lon="5.74428">
        <ele>209.05</ele>
        <time>2018-09-09T15:18:49Z</time>
      </trkpt>
      <trkpt lat="45.19179" lon="5.74392">
        <ele>209.05</ele>
        <time>2018-09-09T15:18:51Z</time>
      </trkpt>
      <trkpt lat="45.19176" lon="5.74354">
        <ele>209.75</ele>
        <time>2018-09-09T15:18:53Z</time>
      </trkpt>
      <trkpt lat="45.19174" lon="5.74317">
        <ele>210.93</ele>
        <time>2018-09-09T15:18:55Z</time>
      </trkpt>
      <trkpt lat="45.19172" lon="5.74284">
        <ele>211.74</ele>
        <time>2018-09-09T15:18:57Z</time>
      </trkpt>
      <trkpt lat="45.1917" lon="5.74253">
        <ele>212.93</ele>
        <time>2018-09-09T15:18:59Z</time>
      </trkpt>
      <trkpt lat="45.19169" lon="5.74222">
        <ele>213.74</ele>
        <time>2018-09-09T15:19:01Z</time>
      </trkpt>
      <trkpt lat="45.19168" lon="5.7419">
        <ele>214.02</ele>
        <time>2018-09-09T15:19:03Z</time>
      </trkpt>
      <trkpt lat="45.19166" lon="5.74159">
        <ele>214.75</ele>
        <time>2018-09-09T15:19:05Z</time>
      </trkpt>
      <trkpt lat="45.19164" lon="5.74126">
        <ele>214.32</ele>
        <time>2018-09-09T15:19:07Z</time>
      </trkpt>
      <trkpt lat="45.19162" lon="5.74094">
        <ele>214.77</ele>
        <time>2018-09-09T15:19:09Z</time>
      </trkpt>
      <trkpt lat="45.1916" lon="5.74063">
        <ele>215.23</ele>
        <time>2018-09-09T15:19:11Z</time>
      </trkpt>
      <trkpt lat="45.19159" lon="5.74031">
        <ele>215.98</ele>
        <time>2018-09-09T15:19:13Z</time>
      </trkpt>
      <trkpt lat="45.19158" lon="5.73997">
        <ele>215.13</ele>
        <time>2018-09-09T15:19:15Z</time>
      </trkpt>
      <trkpt lat="45.19156" lon="5.73966">
        <ele>215.97</ele>
        <time>2018-09-09T15:19:17Z</time>
      </trkpt>
      <trkpt lat="45.19155" lon="5.73935">
        <ele>216.25</ele>
        <time>2018-09-09T15:19:19Z</time>
      </trkpt>
      <trkpt lat="45.19153" lon="5.73904">
        <ele>216.07</ele>
        <time>2018-09-09T15:19:21Z</time>
      </trkpt>
      <trkpt lat="45.19147" lon="5.73878">
        <ele>216.05</ele>
        <time>2018-09-09T15:19:23Z</time>
      </trkpt>
      <trkpt lat="45.19135" lon="5.73851">
        <ele>213.05</ele>
        <time>2018-09-09T15:20:29Z</time>
      </trkpt>
      <trkpt lat="45.19143" lon="5.73824">
        <ele>212.84</ele>
        <time>2018-09-09T15:20:32Z</time>
      </trkpt>
      <trkpt lat="45.19158" lon="5.7381">
        <ele>213.03</ele>
        <time>2018-09-09T15:20:34Z</time>
      </trkpt>
      <trkpt lat="45.19177" lon="5.73792">
        <ele>213.75</ele>
        <time>2018-09-09T15:20:36Z</time>
      </trkpt>
      <trkpt lat="45.19196" lon="5.73773">
        <ele>214.02</ele>
        <time>2018-09-09T15:20:38Z</time>
      </trkpt>
      <trkpt lat="45.19215" lon="5.73755">
        <ele>214.05</ele>
        <time>2018-09-09T15:20:40Z</time>
      </trkpt>
      <trkpt lat="45.19235" lon="5.73737">
        <ele>214.05</ele>
        <time>2018-09-09T15:20:42Z</time>
      </trkpt>
      <trkpt lat="45.19254" lon="5.73719">
        <ele>214.05</ele>
        <time>2018-09-09T15:20:44Z</time>
      </trkpt>
      <trkpt lat="45.19273" lon="5.737">
        <ele>214.05</ele>
        <time>2018-09-09T15:20:46Z</time>
      </trkpt>
      <trkpt lat="45.19291" lon="5.7368">
        <ele>214.05</ele>
        <time>2018-09-09T15:20:48Z</time>
      </trkpt>
      <trkpt lat="45.1931" lon="5.73661">
        <ele>214.05</ele>
        <time>2018-09-09T15:20:50Z</time>
      </trkpt>
      <trkpt lat="45.1933" lon="5.73642">
        <ele>214.26</ele>
        <time>2018-09-09T15:20:52Z</time>
      </trkpt>
      <trkpt lat="45.19349" lon="5.73624">
        <ele>214.77</ele>
        <time>2018-09-09T15:20:54Z</time>
      </trkpt>
      <trkpt lat="45.19369" lon="5.73606">
        <ele>215.02</ele>
        <time>2018-09-09T15:20:56Z</time>
      </trkpt>
      <trkpt lat="45.1939" lon="5.73587">
        <ele>214.14</ele>
        <time>2018-09-09T15:20:58Z</time>
      </trkpt>
      <trkpt lat="45.19412" lon="5.73566">
        <ele>214.06</ele>
        <time>2018-09-09T15:21:00Z</time>
      </trkpt>
      <trkpt lat="45.19436" lon="5.73549">
        <ele>214.05</ele>
        <time>2018-09-09T15:21:02Z</time>
      </trkpt>
      <trkpt lat="45.1946" lon="5.73532">
        <ele>214.05</ele>
        <time>2018-09-09T15:21:04Z</time>
      </trkpt>
      <trkpt lat="45.19486" lon="5.73517">
        <ele>214.05</ele>
        <time>2018-09-09T15:21:06Z</time>
      </trkpt>
      <trkpt lat="45.19513" lon="5.73505">
        <ele>214.05</ele>
        <time>2018-09-09T15:21:08Z</time>
      </trkpt>
      <trkpt lat="45.19541" lon="5.73494">
        <ele>214.05</ele>
        <time>2018-09-09T15:21:10Z</time>
      </trkpt>
      <trkpt lat="45.19568" lon="5.73485">
        <ele>213.35</ele>
        <time>2018-09-09T15:21:12Z</time>
      </trkpt>
      <trkpt lat="45.19593" lon="5.73476">
        <ele>211.89</ele>
        <time>2018-09-09T15:21:14Z</time>
      </trkpt>
      <trkpt lat="45.19618" lon="5.73461">
        <ele>211.12</ele>
        <time>2018-09-09T15:21:16Z</time>
      </trkpt>
      <trkpt lat="45.19643" lon="5.73443">
        <ele>211.06</ele>
        <time>2018-09-09T15:21:18Z</time>
      </trkpt>
      <trkpt lat="45.19667" lon="5.73424">
        <ele>211.96</ele>
        <time>2018-09-09T15:21:20Z</time>
      </trkpt>
      <trkpt lat="45.19691" lon="5.73409">
        <ele>212.25</ele>
        <time>2018-09-09T15:21:22Z</time>
      </trkpt>
      <trkpt lat="45.1971" lon="5.7339">
        <ele>215.08</ele>
        <time>2018-09-09T15:21:24Z</time>
      </trkpt>
      <trkpt lat="45.19723" lon="5.73361">
        <ele>216.66</ele>
        <time>2018-09-09T15:21:26Z</time>
      </trkpt>
      <trkpt lat="45.19733" lon="5.73327">
        <ele>218.62</ele>
        <time>2018-09-09T15:21:28Z</time>
      </trkpt>
      <trkpt lat="45.19742" lon="5.73294">
        <ele>219.22</ele>
        <time>2018-09-09T15:21:30Z</time>
      </trkpt>
      <trkpt lat="45.19749" lon="5.73267">
        <ele>219.06</ele>
        <time>2018-09-09T15:21:32Z</time>
      </trkpt>
      <trkpt lat="45.19745" lon="5.73239">
        <ele>218.32</ele>
        <time>2018-09-09T15:21:37Z</time>
      </trkpt>
      <trkpt lat="45.19726" lon="5.73225">
        <ele>216.38</ele>
        <time>2018-09-09T15:21:41Z</time>
      </trkpt>
      <trkpt lat="45.19709" lon="5.73212">
        <ele>216.06</ele>
        <time>2018-09-09T15:21:44Z</time>
      </trkpt>
      <trkpt lat="45.19692" lon="5.73197">
        <ele>215.84</ele>
        <time>2018-09-09T15:21:47Z</time>
      </trkpt>
      <trkpt lat="45.19676" lon="5.73182">
        <ele>214.16</ele>
        <time>2018-09-09T15:21:50Z</time>
      </trkpt>
      <trkpt lat="45.1966" lon="5.73164">
        <ele>214.05</ele>
        <time>2018-09-09T15:21:53Z</time>
      </trkpt>
      <trkpt lat="45.19644" lon="5.73146">
        <ele>214.75</ele>
        <time>2018-09-09T15:21:56Z</time>
      </trkpt>
      <trkpt lat="45.19627" lon="5.73122">
        <ele>215.05</ele>
        <time>2018-09-09T15:22:00Z</time>
      </trkpt>
      <trkpt lat="45.19613" lon="5.731">
        <ele>215.05</ele>
        <time>2018-09-09T15:22:03Z</time>
      </trkpt>
      <trkpt lat="45.19597" lon="5.73075">
        <ele>215.05</ele>
        <time>2018-09-09T15:22:06Z</time>
      </trkpt>
      <trkpt lat="45.19581" lon="5.73047">
        <ele>214.14</ele>
        <time>2018-09-09T15:22:09Z</time>
      </trkpt>
      <trkpt lat="45.19563" lon="5.73019">
        <ele>214.05</ele>
        <time>2018-09-09T15:22:12Z</time>
      </trkpt>
      <trkpt lat="45.19547" lon="5.72993">
        <ele>214.05</ele>
        <time>2018-09-09T15:22:15Z</time>
      </trkpt>
      <trkpt lat="45.19535" lon="5.72972">
        <ele>214.05</ele>
        <time>2018-09-09T15:22:19Z</time>
      </trkpt>
      <trkpt lat="45.19523" lon="5.7295">
        <ele>214.05</ele>
        <time>2018-09-09T15:22:23Z</time>
      </trkpt>
      <trkpt lat="45.19509" lon="5.72929">
        <ele>214.05</ele>
        <time>2018-09-09T15:22:26Z</time>
      </trkpt>
      <trkpt lat="45.19496" lon="5.72909">
        <ele>214.05</ele>
        <time>2018-09-09T15:22:29Z</time>
      </trkpt>
      <trkpt lat="45.19482" lon="5.72888">
        <ele>213.06</ele>
        <time>2018-09-09T15:22:33Z</time>
      </trkpt>
      <trkpt lat="45.19471" lon="5.72867">
        <ele>213.93</ele>
        <time>2018-09-09T15:22:39Z</time>
      </trkpt>
      <trkpt lat="45.19463" lon="5.7284">
        <ele>214.06</ele>
        <time>2018-09-09T15:22:45Z</time>
      </trkpt>
      <trkpt lat="45.19456" lon="5.72817">
        <ele>213.14</ele>
        <time>2018-09-09T15:22:48Z</time>
      </trkpt>
      <trkpt lat="45.19449" lon="5.72788">
        <ele>213.01</ele>
        <time>2018-09-09T15:22:52Z</time>
      </trkpt>
      <trkpt lat="45.19441" lon="5.72765">
        <ele>213.07</ele>
        <time>2018-09-09T15:22:57Z</time>
      </trkpt>
      <trkpt lat="45.19436" lon="5.72739">
        <ele>213.07</ele>
        <time>2018-09-09T15:23:03Z</time>
      </trkpt>
      <trkpt lat="45.19431" lon="5.72714">
        <ele>213.03</ele>
        <time>2018-09-09T15:23:11Z</time>
      </trkpt>
      <trkpt lat="45.19425" lon="5.72687">
        <ele>215.05</ele>
        <time>2018-09-09T15:23:24Z</time>
      </trkpt>
      <trkpt lat="45.1942" lon="5.72661">
        <ele>215.74</ele>
        <time>2018-09-09T15:23:29Z</time>
      </trkpt>
      <trkpt lat="45.19415" lon="5.72637">
        <ele>216.05</ele>
        <time>2018-09-09T15:23:33Z</time>
      </trkpt>
      <trkpt lat="45.19411" lon="5.72612">
        <ele>216.05</ele>
        <time>2018-09-09T15:23:37Z</time>
      </trkpt>
      <trkpt lat="45.19404" lon="5.72581">
        <ele>216.72</ele>
        <time>2018-09-09T15:23:42Z</time>
      </trkpt>
      <trkpt lat="45.19396" lon="5.72551">
        <ele>217.05</ele>
        <time>2018-09-09T15:23:46Z</time>
      </trkpt>
      <trkpt lat="45.19388" lon="5.72518">
        <ele>217.96</ele>
        <time>2018-09-09T15:23:49Z</time>
      </trkpt>
      <trkpt lat="45.19382" lon="5.72483">
        <ele>219.66</ele>
        <time>2018-09-09T15:23:52Z</time>
      </trkpt>
      <trkpt lat="45.19375" lon="5.72449">
        <ele>221.98</ele>
        <time>2018-09-09T15:23:55Z</time>
      </trkpt>
      <trkpt lat="45.19367" lon="5.72415">
        <ele>222.96</ele>
        <time>2018-09-09T15:23:58Z</time>
      </trkpt>
      <trkpt lat="45.19361" lon="5.72384">
        <ele>222.2</ele>
        <time>2018-09-09T15:24:01Z</time>
      </trkpt>
      <trkpt lat="45.19358" lon="5.72356">
        <ele>221.08</ele>
        <time>2018-09-09T15:24:04Z</time>
      </trkpt>
      <trkpt lat="45.19356" lon="5.72327">
        <ele>221.05</ele>
        <time>2018-09-09T15:24:07Z</time>
      </trkpt>
      <trkpt lat="45.19356" lon="5.72296">
        <ele>220.78</ele>
        <time>2018-09-09T15:24:10Z</time>
      </trkpt>
      <trkpt lat="45.19353" lon="5.72262">
        <ele>221.95</ele>
        <time>2018-09-09T15:24:13Z</time>
      </trkpt>
      <trkpt lat="45.19351" lon="5.72231">
        <ele>221.83</ele>
        <time>2018-09-09T15:24:15Z</time>
      </trkpt>
      <trkpt lat="45.19352" lon="5.72198">
        <ele>221.82</ele>
        <time>2018-09-09T15:24:17Z</time>
      </trkpt>
      <trkpt lat="45.19351" lon="5.72169">
        <ele>220.42</ele>
        <time>2018-09-09T15:24:19Z</time>
      </trkpt>
      <trkpt lat="45.19349" lon="5.7214">
        <ele>220.99</ele>
        <time>2018-09-09T15:24:21Z</time>
      </trkpt>
      <trkpt lat="45.19348" lon="5.72111">
        <ele>220.83</ele>
        <time>2018-09-09T15:24:23Z</time>
      </trkpt>
      <trkpt lat="45.19347" lon="5.72082">
        <ele>220.12</ele>
        <time>2018-09-09T15:24:25Z</time>
      </trkpt>
      <trkpt lat="45.19346" lon="5.72048">
        <ele>218.38</ele>
        <time>2018-09-09T15:24:28Z</time>
      </trkpt>
      <trkpt lat="45.19343" lon="5.72019">
        <ele>219.34</ele>
        <time>2018-09-09T15:24:45Z</time>
      </trkpt>
      <trkpt lat="45.19345" lon="5.71989">
        <ele>219.05</ele>
        <time>2018-09-09T15:24:50Z</time>
      </trkpt>
      <trkpt lat="45.19356" lon="5.71962">
        <ele>218.35</ele>
        <time>2018-09-09T15:24:55Z</time>
      </trkpt>
      <trkpt lat="45.19373" lon="5.71942">
        <ele>218.76</ele>
        <time>2018-09-09T15:24:58Z</time>
      </trkpt>
      <trkpt lat="45.19387" lon="5.71923">
        <ele>218.11</ele>
        <time>2018-09-09T15:25:00Z</time>
      </trkpt>
      <trkpt lat="45.19411" lon="5.71911">
        <ele>217.35</ele>
        <time>2018-09-09T15:25:03Z</time>
      </trkpt>
      <trkpt lat="45.19437" lon="5.71912">
        <ele>217.06</ele>
        <time>2018-09-09T15:25:06Z</time>
      </trkpt>
      <trkpt lat="45.19457" lon="5.71911">
        <ele>217.05</ele>
        <time>2018-09-09T15:25:08Z</time>
      </trkpt>
      <trkpt lat="45.19478" lon="5.71909">
        <ele>217.05</ele>
        <time>2018-09-09T15:25:10Z</time>
      </trkpt>
      <trkpt lat="45.19501" lon="5.71908">
        <ele>217.05</ele>
        <time>2018-09-09T15:25:12Z</time>
      </trkpt>
      <trkpt lat="45.19525" lon="5.71907">
        <ele>217.05</ele>
        <time>2018-09-09T15:25:14Z</time>
      </trkpt>
      <trkpt lat="45.19549" lon="5.71904">
        <ele>217.05</ele>
        <time>2018-09-09T15:25:16Z</time>
      </trkpt>
      <trkpt lat="45.19573" lon="5.71901">
        <ele>216.14</ele>
        <time>2018-09-09T15:25:18Z</time>
      </trkpt>
      <trkpt lat="45.19597" lon="5.71894">
        <ele>216.06</ele>
        <time>2018-09-09T15:25:20Z</time>
      </trkpt>
      <trkpt lat="45.19616" lon="5.71886">
        <ele>215.14</ele>
        <time>2018-09-09T15:25:22Z</time>
      </trkpt>
      <trkpt lat="45.19637" lon="5.71881">
        <ele>215.97</ele>
        <time>2018-09-09T15:25:24Z</time>
      </trkpt>
      <trkpt lat="45.1966" lon="5.71876">
        <ele>216.74</ele>
        <time>2018-09-09T15:25:26Z</time>
      </trkpt>
      <trkpt lat="45.19684" lon="5.71868">
        <ele>216.11</ele>
        <time>2018-09-09T15:25:28Z</time>
      </trkpt>
      <trkpt lat="45.19709" lon="5.71861">
        <ele>216.05</ele>
        <time>2018-09-09T15:25:30Z</time>
      </trkpt>
      <trkpt lat="45.19734" lon="5.71853">
        <ele>215.35</ele>
        <time>2018-09-09T15:25:32Z</time>
      </trkpt>
      <trkpt lat="45.19762" lon="5.71845">
        <ele>215.08</ele>
        <time>2018-09-09T15:25:34Z</time>
      </trkpt>
      <trkpt lat="45.19789" lon="5.71838">
        <ele>215.05</ele>
        <time>2018-09-09T15:25:36Z</time>
      </trkpt>
      <trkpt lat="45.19817" lon="5.71831">
        <ele>215.05</ele>
        <time>2018-09-09T15:25:38Z</time>
      </trkpt>
      <trkpt lat="45.19844" lon="5.71823">
        <ele>214.35</ele>
        <time>2018-09-09T15:25:40Z</time>
      </trkpt>
      <trkpt lat="45.19872" lon="5.71813">
        <ele>214.08</ele>
        <time>2018-09-09T15:25:42Z</time>
      </trkpt>
      <trkpt lat="45.19901" lon="5.71804">
        <ele>213.35</ele>
        <time>2018-09-09T15:25:44Z</time>
      </trkpt>
      <trkpt lat="45.19928" lon="5.71797">
        <ele>213.08</ele>
        <time>2018-09-09T15:25:46Z</time>
      </trkpt>
      <trkpt lat="45.19954" lon="5.71789">
        <ele>213.05</ele>
        <time>2018-09-09T15:25:48Z</time>
      </trkpt>
      <trkpt lat="45.19981" lon="5.71782">
        <ele>214.87</ele>
        <time>2018-09-09T15:25:50Z</time>
      </trkpt>
      <trkpt lat="45.20008" lon="5.71776">
        <ele>216.43</ele>
        <time>2018-09-09T15:25:52Z</time>
      </trkpt>
      <trkpt lat="45.20035" lon="5.71771">
        <ele>218.6</ele>
        <time>2018-09-09T15:25:54Z</time>
      </trkpt>
      <trkpt lat="45.20061" lon="5.71765">
        <ele>220.62</ele>
        <time>2018-09-09T15:25:56Z</time>
      </trkpt>
      <trkpt lat="45.20081" lon="5.7175">
        <ele>220.8</ele>
        <time>2018-09-09T15:25:58Z</time>
      </trkpt>
      <trkpt lat="45.20097" lon="5.7173">
        <ele>222.23</ele>
        <time>2018-09-09T15:26:01Z</time>
      </trkpt>
      <trkpt lat="45.20087" lon="5.71759">
        <ele>222.83</ele>
        <time>2018-09-09T15:26:09Z</time>
      </trkpt>
      <trkpt lat="45.20073" lon="5.71778">
        <ele>224.65</ele>
        <time>2018-09-09T15:26:12Z</time>
      </trkpt>
      <trkpt lat="45.20084" lon="5.71801">
        <ele>227.03</ele>
        <time>2018-09-09T15:26:18Z</time>
      </trkpt>
      <trkpt lat="45.20102" lon="5.7179">
        <ele>228.74</ele>
        <time>2018-09-09T15:26:23Z</time>
      </trkpt>
      <trkpt lat="45.20121" lon="5.71795">
        <ele>231.72</ele>
        <time>2018-09-09T15:26:48Z</time>
      </trkpt>
    </trkseg>
  </trk>
</gpx>